<?xml version='1.0' encoding='UTF-8'?><gpx version="1.1" creator="JPX - https://github.com/jenetics/jpx" xmlns="http://www.topografix.com/GPX/1/1"><trk><trkseg><trkpt lat="25.040508915199617" lon="121.50820978265055"><ele>10.0</ele><time>2026-03-22T01:40:07Z</time></trkpt><trkpt lat="25.040524630747598" lon="121.50811720117004"><ele>10.0</ele><time>2026-03-22T01:40:10Z</time></trkpt><trkpt lat="25.04053105918586" lon="121.50804065273492"><ele>10.0</ele><time>2026-03-22T01:40:12Z</time></trkpt><trkpt lat="25.04053089937293" lon="121.5079666727226"><ele>10.0</ele><time>2026-03-22T01:40:14Z</time></trkpt><trkpt lat="25.04053469088272" lon="121.5078812695274"><ele>10.0</ele><time>2026-03-22T01:40:16Z</time></trkpt><trkpt lat="25.040537093143485" lon="121.50778619999089"><ele>10.0</ele><time>2026-03-22T01:40:18Z</time></trkpt><trkpt lat="25.040517421868422" lon="121.5076916906315"><ele>9.6</ele><time>2026-03-22T01:40:20Z</time></trkpt><trkpt lat="25.040474677068573" lon="121.50762282978363"><ele>9.2</ele><time>2026-03-22T01:40:22Z</time></trkpt><trkpt lat="25.040401190275265" lon="121.50757677883584"><ele>8.8</ele><time>2026-03-22T01:40:24Z</time></trkpt><trkpt lat="25.040302804826815" lon="121.50755355367787"><ele>8.4</ele><time>2026-03-22T01:40:26Z</time></trkpt><trkpt lat="25.040196151478316" lon="121.50752471854713"><ele>8.0</ele><time>2026-03-22T01:40:28Z</time></trkpt><trkpt lat="25.040085158616037" lon="121.50748838019739"><ele>8.200000000000001</ele><time>2026-03-22T01:40:30Z</time></trkpt><trkpt lat="25.039959698481304" lon="121.50745219546678"><ele>8.4</ele><time>2026-03-22T01:40:32Z</time></trkpt><trkpt lat="25.039897431250075" lon="121.5074353779911"><ele>8.600000000000001</ele><time>2026-03-22T01:40:33Z</time></trkpt><trkpt lat="25.039833999361775" lon="121.50742209137498"><ele>8.8</ele><time>2026-03-22T01:40:34Z</time></trkpt><trkpt lat="25.039720155623414" lon="121.50738691054173"><ele>9.0</ele><time>2026-03-22T01:40:35.998Z</time></trkpt><trkpt lat="25.03961967643571" lon="121.50735971302396"><ele>9.0</ele><time>2026-03-22T01:40:37.998Z</time></trkpt><trkpt lat="25.039550122870654" lon="121.50734226548146"><ele>9.0</ele><time>2026-03-22T01:40:40.999Z</time></trkpt><trkpt lat="25.039462307165135" lon="121.50730978644052"><ele>9.0</ele><time>2026-03-22T01:41:31Z</time></trkpt><trkpt lat="25.039383960801175" lon="121.50728752690488"><ele>9.0</ele><time>2026-03-22T01:41:33Z</time></trkpt><trkpt lat="25.039282205528878" lon="121.50725908368639"><ele>9.0</ele><time>2026-03-22T01:41:35Z</time></trkpt><trkpt lat="25.039175583447005" lon="121.50723221261607"><ele>10.0</ele><time>2026-03-22T01:41:37Z</time></trkpt><trkpt lat="25.039052943015193" lon="121.50719350775606"><ele>11.0</ele><time>2026-03-22T01:41:39Z</time></trkpt><trkpt lat="25.038978743412827" lon="121.50717273941656"><ele>11.999999999999998</ele><time>2026-03-22T01:41:40Z</time></trkpt><trkpt lat="25.038901499434292" lon="121.50714961997497"><ele>13.0</ele><time>2026-03-22T01:41:41Z</time></trkpt><trkpt lat="25.038816267330567" lon="121.50712276631938"><ele>14.0</ele><time>2026-03-22T01:41:42Z</time></trkpt><trkpt lat="25.038731555563558" lon="121.50709810745893"><ele>14.2</ele><time>2026-03-22T01:41:43Z</time></trkpt><trkpt lat="25.03864452586747" lon="121.50707158045454"><ele>14.399999999999999</ele><time>2026-03-22T01:41:44Z</time></trkpt><trkpt lat="25.038557255020056" lon="121.50704505400014"><ele>14.6</ele><time>2026-03-22T01:41:45Z</time></trkpt><trkpt lat="25.038471456504862" lon="121.50701661261199"><ele>14.8</ele><time>2026-03-22T01:41:46Z</time></trkpt><trkpt lat="25.038382656675644" lon="121.50699474874493"><ele>15.0</ele><time>2026-03-22T01:41:47Z</time></trkpt><trkpt lat="25.03829191890354" lon="121.50696992279158"><ele>15.0</ele><time>2026-03-22T01:41:48Z</time></trkpt><trkpt lat="25.03820020196775" lon="121.50694555825417"><ele>15.0</ele><time>2026-03-22T01:41:49Z</time></trkpt><trkpt lat="25.038106009343924" lon="121.5069196331925"><ele>15.0</ele><time>2026-03-22T01:41:50Z</time></trkpt><trkpt lat="25.038008149854353" lon="121.50689391251106"><ele>15.0</ele><time>2026-03-22T01:41:51Z</time></trkpt><trkpt lat="25.037909180609603" lon="121.50686316377367"><ele>15.0</ele><time>2026-03-22T01:41:52Z</time></trkpt><trkpt lat="25.037806415467976" lon="121.50682337262873"><ele>15.0</ele><time>2026-03-22T01:41:53Z</time></trkpt><trkpt lat="25.03770486783733" lon="121.50678910134725"><ele>15.0</ele><time>2026-03-22T01:41:54Z</time></trkpt><trkpt lat="25.03759925291483" lon="121.50675900318407"><ele>15.0</ele><time>2026-03-22T01:41:55Z</time></trkpt><trkpt lat="25.037495493573722" lon="121.50673354772626"><ele>15.0</ele><time>2026-03-22T01:41:56Z</time></trkpt><trkpt lat="25.03738575292302" lon="121.50670499974078"><ele>15.0</ele><time>2026-03-22T01:41:57Z</time></trkpt><trkpt lat="25.037275527910655" lon="121.50668560410287"><ele>13.75</ele><time>2026-03-22T01:41:58Z</time></trkpt><trkpt lat="25.03716333442216" lon="121.50666448496771"><ele>12.5</ele><time>2026-03-22T01:41:59Z</time></trkpt><trkpt lat="25.037047649846475" lon="121.50664088107972"><ele>11.25</ele><time>2026-03-22T01:42:00Z</time></trkpt><trkpt lat="25.036931165056135" lon="121.50663571059503"><ele>10.0</ele><time>2026-03-22T01:42:01Z</time></trkpt><trkpt lat="25.036817250008927" lon="121.50661366804502"><ele>10.0</ele><time>2026-03-22T01:42:02Z</time></trkpt><trkpt lat="25.036699519938733" lon="121.50658955088669"><ele>10.0</ele><time>2026-03-22T01:42:03Z</time></trkpt><trkpt lat="25.036583914329025" lon="121.50654689394057"><ele>10.0</ele><time>2026-03-22T01:42:04Z</time></trkpt><trkpt lat="25.036460871870236" lon="121.50651921344287"><ele>10.0</ele><time>2026-03-22T01:42:05Z</time></trkpt><trkpt lat="25.03633709246884" lon="121.50649673404315"><ele>11.75</ele><time>2026-03-22T01:42:06Z</time></trkpt><trkpt lat="25.036213285121526" lon="121.50646748232101"><ele>13.5</ele><time>2026-03-22T01:42:07Z</time></trkpt><trkpt lat="25.036088899319015" lon="121.50643279510436"><ele>15.25</ele><time>2026-03-22T01:42:08Z</time></trkpt><trkpt lat="25.03596197695303" lon="121.50641243115044"><ele>17.0</ele><time>2026-03-22T01:42:09Z</time></trkpt><trkpt lat="25.035841178134472" lon="121.5063793685083"><ele>17.0</ele><time>2026-03-22T01:42:10Z</time></trkpt><trkpt lat="25.035724406624627" lon="121.50633846165242"><ele>17.0</ele><time>2026-03-22T01:42:11Z</time></trkpt><trkpt lat="25.03561399822038" lon="121.50629302962221"><ele>17.0</ele><time>2026-03-22T01:42:12Z</time></trkpt><trkpt lat="25.03550622258929" lon="121.5062486809529"><ele>17.0</ele><time>2026-03-22T01:42:13Z</time></trkpt><trkpt lat="25.03540950836192" lon="121.50620446643265"><ele>15.2</ele><time>2026-03-22T01:42:14Z</time></trkpt><trkpt lat="25.03532921483988" lon="121.50616198172028"><ele>13.399999999999999</ele><time>2026-03-22T01:42:15Z</time></trkpt><trkpt lat="25.03525677098673" lon="121.50611969832967"><ele>11.600000000000001</ele><time>2026-03-22T01:42:16Z</time></trkpt><trkpt lat="25.03519657168472" lon="121.50608103784319"><ele>9.8</ele><time>2026-03-22T01:42:17Z</time></trkpt><trkpt lat="25.035096851841146" lon="121.50601331716234"><ele>8.0</ele><time>2026-03-22T01:42:19Z</time></trkpt><trkpt lat="25.035016941641384" lon="121.50595516884694"><ele>9.0</ele><time>2026-03-22T01:42:21Z</time></trkpt><trkpt lat="25.034951229927472" lon="121.5059047874058"><ele>10.0</ele><time>2026-03-22T01:42:24Z</time></trkpt><trkpt lat="25.03489818025801" lon="121.50586402741683"><ele>11.0</ele><time>2026-03-22T01:42:57.999Z</time></trkpt><trkpt lat="25.034845475547343" lon="121.50581864529009"><ele>12.0</ele><time>2026-03-22T01:42:59.999Z</time></trkpt><trkpt lat="25.03479106095956" lon="121.50577221520183"><ele>13.000000000000002</ele><time>2026-03-22T01:43:01.999Z</time></trkpt><trkpt lat="25.03471522584256" lon="121.50570362974351"><ele>14.0</ele><time>2026-03-22T01:43:03.999Z</time></trkpt><trkpt lat="25.03463270005786" lon="121.50561754518866"><ele>14.000000000000002</ele><time>2026-03-22T01:43:05.999Z</time></trkpt><trkpt lat="25.034549562923136" lon="121.50552038318833"><ele>14.0</ele><time>2026-03-22T01:43:07.999Z</time></trkpt><trkpt lat="25.034499518667907" lon="121.50546411226243"><ele>14.0</ele><time>2026-03-22T01:43:08.999Z</time></trkpt><trkpt lat="25.034446879724943" lon="121.50539660091408"><ele>14.0</ele><time>2026-03-22T01:43:09.999Z</time></trkpt><trkpt lat="25.03439003732239" lon="121.50532546246845"><ele>14.000000000000002</ele><time>2026-03-22T01:43:10.999Z</time></trkpt><trkpt lat="25.0343323257017" lon="121.50525015537845"><ele>14.0</ele><time>2026-03-22T01:43:11.999Z</time></trkpt><trkpt lat="25.03427004413502" lon="121.50516554542342"><ele>13.799999999999999</ele><time>2026-03-22T01:43:12.999Z</time></trkpt><trkpt lat="25.034207863488884" lon="121.50507698772509"><ele>13.599999999999998</ele><time>2026-03-22T01:43:13.999Z</time></trkpt><trkpt lat="25.03415322273636" lon="121.50499182235464"><ele>13.4</ele><time>2026-03-22T01:43:14.999Z</time></trkpt><trkpt lat="25.034094966398104" lon="121.50489868077793"><ele>13.2</ele><time>2026-03-22T01:43:15.999Z</time></trkpt><trkpt lat="25.03403577919617" lon="121.50480145831432"><ele>13.0</ele><time>2026-03-22T01:43:16.999Z</time></trkpt><trkpt lat="25.033975467926993" lon="121.50470155087893"><ele>12.5</ele><time>2026-03-22T01:43:17.999Z</time></trkpt><trkpt lat="25.033924409990647" lon="121.50458450080959"><ele>12.0</ele><time>2026-03-22T01:43:18.999Z</time></trkpt><trkpt lat="25.033873704464124" lon="121.504466723435"><ele>11.5</ele><time>2026-03-22T01:43:19.999Z</time></trkpt><trkpt lat="25.033827372808624" lon="121.5043489407642"><ele>11.0</ele><time>2026-03-22T01:43:20.999Z</time></trkpt><trkpt lat="25.03379125094068" lon="121.50422958150526"><ele>11.0</ele><time>2026-03-22T01:43:21.999Z</time></trkpt><trkpt lat="25.03376053596633" lon="121.50411118745856"><ele>11.0</ele><time>2026-03-22T01:43:22.999Z</time></trkpt><trkpt lat="25.033731388153537" lon="121.50399372090482"><ele>11.0</ele><time>2026-03-22T01:43:23.999Z</time></trkpt><trkpt lat="25.033704676311594" lon="121.50388510347517"><ele>11.0</ele><time>2026-03-22T01:43:24.999Z</time></trkpt><trkpt lat="25.033676506754727" lon="121.5037699712985"><ele>11.0</ele><time>2026-03-22T01:43:25.999Z</time></trkpt><trkpt lat="25.03364983532384" lon="121.50365824833776"><ele>10.8</ele><time>2026-03-22T01:43:26.999Z</time></trkpt><trkpt lat="25.033624254022364" lon="121.50355105562828"><ele>10.600000000000001</ele><time>2026-03-22T01:43:27.999Z</time></trkpt><trkpt lat="25.033598598717756" lon="121.50344355396496"><ele>10.4</ele><time>2026-03-22T01:43:28.999Z</time></trkpt><trkpt lat="25.033575272871936" lon="121.5033458132764"><ele>10.2</ele><time>2026-03-22T01:43:29.999Z</time></trkpt><trkpt lat="25.033554278286125" lon="121.50325296593032"><ele>10.0</ele><time>2026-03-22T01:43:30.999Z</time></trkpt><trkpt lat="25.033538004736407" lon="121.50316871426207"><ele>10.0</ele><time>2026-03-22T01:43:31.999Z</time></trkpt><trkpt lat="25.033523433483076" lon="121.50309327574877"><ele>10.0</ele><time>2026-03-22T01:43:32.999Z</time></trkpt><trkpt lat="25.03349716520294" lon="121.5029684389204"><ele>10.0</ele><time>2026-03-22T01:43:34.999Z</time></trkpt><trkpt lat="25.03347436978562" lon="121.50286497616587"><ele>10.0</ele><time>2026-03-22T01:43:37Z</time></trkpt><trkpt lat="25.03345572348652" lon="121.5027803452306"><ele>10.0</ele><time>2026-03-22T01:43:39Z</time></trkpt><trkpt lat="25.033439144017684" lon="121.50270509512788"><ele>10.0</ele><time>2026-03-22T01:43:41Z</time></trkpt><trkpt lat="25.033422694798762" lon="121.50263043619682"><ele>10.4</ele><time>2026-03-22T01:43:44Z</time></trkpt><trkpt lat="25.033404537928515" lon="121.50254852148396"><ele>10.8</ele><time>2026-03-22T01:44:26Z</time></trkpt><trkpt lat="25.03338204886293" lon="121.50244905371855"><ele>11.2</ele><time>2026-03-22T01:44:29Z</time></trkpt><trkpt lat="25.033360521351355" lon="121.50236061508323"><ele>11.6</ele><time>2026-03-22T01:44:31Z</time></trkpt><trkpt lat="25.033331943743544" lon="121.50224112365649"><ele>12.0</ele><time>2026-03-22T01:44:33Z</time></trkpt><trkpt lat="25.03330178643051" lon="121.50211542918142"><ele>11.833333333333334</ele><time>2026-03-22T01:44:35Z</time></trkpt><trkpt lat="25.03328517069427" lon="121.50204371413486"><ele>11.666666666666666</ele><time>2026-03-22T01:44:36Z</time></trkpt><trkpt lat="25.033266841057745" lon="121.50196460173481"><ele>11.5</ele><time>2026-03-22T01:44:37Z</time></trkpt><trkpt lat="25.033247193994175" lon="121.50187900378474"><ele>11.333333333333332</ele><time>2026-03-22T01:44:38Z</time></trkpt><trkpt lat="25.033226801701908" lon="121.50179020127862"><ele>11.166666666666666</ele><time>2026-03-22T01:44:39Z</time></trkpt><trkpt lat="25.033205709212197" lon="121.50169450066495"><ele>11.0</ele><time>2026-03-22T01:44:40Z</time></trkpt><trkpt lat="25.033184510477234" lon="121.50159555502475"><ele>11.0</ele><time>2026-03-22T01:44:41Z</time></trkpt><trkpt lat="25.033163438427177" lon="121.50149316265208"><ele>11.0</ele><time>2026-03-22T01:44:42Z</time></trkpt><trkpt lat="25.033142851254826" lon="121.50139181041942"><ele>11.0</ele><time>2026-03-22T01:44:43Z</time></trkpt><trkpt lat="25.0331213128157" lon="121.50128512743818"><ele>11.0</ele><time>2026-03-22T01:44:44Z</time></trkpt><trkpt lat="25.03310344717234" lon="121.50117298900965"><ele>11.0</ele><time>2026-03-22T01:44:45Z</time></trkpt><trkpt lat="25.033089045863036" lon="121.50105741144317"><ele>10.75</ele><time>2026-03-22T01:44:46Z</time></trkpt><trkpt lat="25.033075446638808" lon="121.50094072384621"><ele>10.5</ele><time>2026-03-22T01:44:46.999Z</time></trkpt><trkpt lat="25.03306099755526" lon="121.50081674406448"><ele>10.25</ele><time>2026-03-22T01:44:47.999Z</time></trkpt><trkpt lat="25.03304617463039" lon="121.50069025017163"><ele>10.0</ele><time>2026-03-22T01:44:48.999Z</time></trkpt><trkpt lat="25.033033343892136" lon="121.50056169915825"><ele>10.0</ele><time>2026-03-22T01:44:49.999Z</time></trkpt><trkpt lat="25.033020258144415" lon="121.50043059309235"><ele>10.0</ele><time>2026-03-22T01:44:50.999Z</time></trkpt><trkpt lat="25.033023715333606" lon="121.50028873778496"><ele>10.0</ele><time>2026-03-22T01:44:51.999Z</time></trkpt><trkpt lat="25.03301961392994" lon="121.50014855968516"><ele>10.0</ele><time>2026-03-22T01:44:52.999Z</time></trkpt><trkpt lat="25.033015307500744" lon="121.50000722249212"><ele>10.5</ele><time>2026-03-22T01:44:53.999Z</time></trkpt><trkpt lat="25.033010678321915" lon="121.49987087647042"><ele>11.0</ele><time>2026-03-22T01:44:54.999Z</time></trkpt><trkpt lat="25.033006552186684" lon="121.49973590686406"><ele>11.5</ele><time>2026-03-22T01:44:55.999Z</time></trkpt><trkpt lat="25.03300481050078" lon="121.49960549814294"><ele>12.0</ele><time>2026-03-22T01:44:56.999Z</time></trkpt><trkpt lat="25.03301338223621" lon="121.49947323122895"><ele>12.0</ele><time>2026-03-22T01:44:57.999Z</time></trkpt><trkpt lat="25.033034661928628" lon="121.49934886520651"><ele>12.0</ele><time>2026-03-22T01:44:58.999Z</time></trkpt><trkpt lat="25.033057479756778" lon="121.49923006415437"><ele>12.0</ele><time>2026-03-22T01:44:59.999Z</time></trkpt><trkpt lat="25.033094624668138" lon="121.49910736777596"><ele>12.0</ele><time>2026-03-22T01:45:00.999Z</time></trkpt><trkpt lat="25.03311864511574" lon="121.49897092459885"><ele>12.0</ele><time>2026-03-22T01:45:01.999Z</time></trkpt><trkpt lat="25.033143870045457" lon="121.49883329160006"><ele>12.0</ele><time>2026-03-22T01:45:02.999Z</time></trkpt><trkpt lat="25.03316654042139" lon="121.49869225277112"><ele>12.0</ele><time>2026-03-22T01:45:03.999Z</time></trkpt><trkpt lat="25.033170207580046" lon="121.49855037988611"><ele>12.0</ele><time>2026-03-22T01:45:04.999Z</time></trkpt><trkpt lat="25.033201388807885" lon="121.49841485654883"><ele>11.25</ele><time>2026-03-22T01:45:05.999Z</time></trkpt><trkpt lat="25.033211935273364" lon="121.49827607739127"><ele>10.5</ele><time>2026-03-22T01:45:06.999Z</time></trkpt><trkpt lat="25.03322269253385" lon="121.4981329307498"><ele>9.75</ele><time>2026-03-22T01:45:08Z</time></trkpt><trkpt lat="25.033228104052935" lon="121.49798661639325"><ele>9.0</ele><time>2026-03-22T01:45:09Z</time></trkpt><trkpt lat="25.033228583792418" lon="121.49783788684212"><ele>8.75</ele><time>2026-03-22T01:45:10Z</time></trkpt><trkpt lat="25.033225101853166" lon="121.49769285508081"><ele>8.5</ele><time>2026-03-22T01:45:11Z</time></trkpt><trkpt lat="25.033217405908932" lon="121.49754832950796"><ele>8.25</ele><time>2026-03-22T01:45:12Z</time></trkpt><trkpt lat="25.033205309149437" lon="121.49740257991618"><ele>8.0</ele><time>2026-03-22T01:45:13Z</time></trkpt><trkpt lat="25.03316952168662" lon="121.49726205098791"><ele>8.0</ele><time>2026-03-22T01:45:14Z</time></trkpt><trkpt lat="25.033146289291707" lon="121.49712226248276"><ele>8.0</ele><time>2026-03-22T01:45:15Z</time></trkpt><trkpt lat="25.03312136410209" lon="121.49698356112833"><ele>8.0</ele><time>2026-03-22T01:45:16Z</time></trkpt><trkpt lat="25.03309319997717" lon="121.49685028902893"><ele>8.0</ele><time>2026-03-22T01:45:17Z</time></trkpt><trkpt lat="25.033062022767435" lon="121.49671599813865"><ele>8.0</ele><time>2026-03-22T01:45:18Z</time></trkpt><trkpt lat="25.033021975084374" lon="121.49658779223262"><ele>8.0</ele><time>2026-03-22T01:45:19Z</time></trkpt><trkpt lat="25.03298124055482" lon="121.49646158000614"><ele>8.0</ele><time>2026-03-22T01:45:20Z</time></trkpt><trkpt lat="25.032937752271533" lon="121.49633793000025"><ele>8.0</ele><time>2026-03-22T01:45:21Z</time></trkpt><trkpt lat="25.032889938548095" lon="121.49621936398911"><ele>8.5</ele><time>2026-03-22T01:45:22Z</time></trkpt><trkpt lat="25.032834819572674" lon="121.49610549615629"><ele>9.0</ele><time>2026-03-22T01:45:23Z</time></trkpt><trkpt lat="25.03277784588494" lon="121.49599551109607"><ele>9.5</ele><time>2026-03-22T01:45:24Z</time></trkpt><trkpt lat="25.032719230501865" lon="121.49588721868426"><ele>10.0</ele><time>2026-03-22T01:45:25Z</time></trkpt><trkpt lat="25.0326562036435" lon="121.49578601348034"><ele>10.0</ele><time>2026-03-22T01:45:26Z</time></trkpt><trkpt lat="25.032590105675375" lon="121.49568796933906"><ele>10.0</ele><time>2026-03-22T01:45:27Z</time></trkpt><trkpt lat="25.03252227761107" lon="121.49559293531502"><ele>10.0</ele><time>2026-03-22T01:45:28Z</time></trkpt><trkpt lat="25.03245515704435" lon="121.49550301348509"><ele>10.0</ele><time>2026-03-22T01:45:29Z</time></trkpt><trkpt lat="25.03239033436015" lon="121.49542198932424"><ele>10.0</ele><time>2026-03-22T01:45:30Z</time></trkpt><trkpt lat="25.032331514372004" lon="121.49535114130465"><ele>10.0</ele><time>2026-03-22T01:45:31Z</time></trkpt><trkpt lat="25.03227941423853" lon="121.4952902987996"><ele>10.0</ele><time>2026-03-22T01:45:32Z</time></trkpt><trkpt lat="25.032235114622864" lon="121.49523846294626"><ele>10.0</ele><time>2026-03-22T01:45:33Z</time></trkpt><trkpt lat="25.032169289209723" lon="121.49516143933927"><ele>10.0</ele><time>2026-03-22T01:45:35Z</time></trkpt><trkpt lat="25.032120715610045" lon="121.49510460241508"><ele>10.0</ele><time>2026-03-22T01:45:38Z</time></trkpt><trkpt lat="25.032070625438706" lon="121.49504599092388"><ele>10.0</ele><time>2026-03-22T01:46:08Z</time></trkpt><trkpt lat="25.032015523900032" lon="121.49498151553094"><ele>10.0</ele><time>2026-03-22T01:46:10Z</time></trkpt><trkpt lat="25.03194005576331" lon="121.49489265260198"><ele>10.0</ele><time>2026-03-22T01:46:12Z</time></trkpt><trkpt lat="25.031857065054904" lon="121.49479250842742"><ele>10.0</ele><time>2026-03-22T01:46:14Z</time></trkpt><trkpt lat="25.03180997344768" lon="121.49473483655966"><ele>10.0</ele><time>2026-03-22T01:46:15Z</time></trkpt><trkpt lat="25.031757292556158" lon="121.49467031960502"><ele>10.0</ele><time>2026-03-22T01:46:16Z</time></trkpt><trkpt lat="25.031700096039863" lon="121.49460496031928"><ele>9.6</ele><time>2026-03-22T01:46:17Z</time></trkpt><trkpt lat="25.031635264717323" lon="121.49453289974404"><ele>9.2</ele><time>2026-03-22T01:46:18Z</time></trkpt><trkpt lat="25.031567752828995" lon="121.49445785969573"><ele>8.8</ele><time>2026-03-22T01:46:19Z</time></trkpt><trkpt lat="25.031499466022762" lon="121.49438107922498"><ele>8.4</ele><time>2026-03-22T01:46:20Z</time></trkpt><trkpt lat="25.03143202637381" lon="121.49430477821208"><ele>8.0</ele><time>2026-03-22T01:46:21Z</time></trkpt><trkpt lat="25.03136250235126" lon="121.49422617898173"><ele>8.0</ele><time>2026-03-22T01:46:22Z</time></trkpt><trkpt lat="25.031289475332137" lon="121.49414367626072"><ele>8.0</ele><time>2026-03-22T01:46:23Z</time></trkpt><trkpt lat="25.031212706386153" lon="121.49405694607752"><ele>8.0</ele><time>2026-03-22T01:46:24Z</time></trkpt><trkpt lat="25.031133683162356" lon="121.49396766910714"><ele>8.0</ele><time>2026-03-22T01:46:25Z</time></trkpt><trkpt lat="25.031051110149598" lon="121.49387439171547"><ele>8.0</ele><time>2026-03-22T01:46:26Z</time></trkpt><trkpt lat="25.0309690785971" lon="121.49378210651668"><ele>8.0</ele><time>2026-03-22T01:46:27Z</time></trkpt><trkpt lat="25.03088766603091" lon="121.4936914305888"><ele>8.0</ele><time>2026-03-22T01:46:28Z</time></trkpt><trkpt lat="25.03080890180824" lon="121.49360362384333"><ele>8.0</ele><time>2026-03-22T01:46:29Z</time></trkpt><trkpt lat="25.030730750248022" lon="121.49351683261777"><ele>8.0</ele><time>2026-03-22T01:46:30Z</time></trkpt><trkpt lat="25.03065429652444" lon="121.49343201648796"><ele>8.0</ele><time>2026-03-22T01:46:31Z</time></trkpt><trkpt lat="25.030579341617994" lon="121.4933493991265"><ele>8.0</ele><time>2026-03-22T01:46:32Z</time></trkpt><trkpt lat="25.03050655439565" lon="121.49326741917551"><ele>8.0</ele><time>2026-03-22T01:46:33Z</time></trkpt><trkpt lat="25.030434859282227" lon="121.49318789963161"><ele>8.0</ele><time>2026-03-22T01:46:34Z</time></trkpt><trkpt lat="25.030364370902227" lon="121.4931097182798"><ele>8.0</ele><time>2026-03-22T01:46:35Z</time></trkpt><trkpt lat="25.030295067186742" lon="121.49303285084635"><ele>8.0</ele><time>2026-03-22T01:46:36Z</time></trkpt><trkpt lat="25.030225440622562" lon="121.49296244479427"><ele>8.0</ele><time>2026-03-22T01:46:37Z</time></trkpt><trkpt lat="25.030155816450435" lon="121.49289250236878"><ele>8.0</ele><time>2026-03-22T01:46:38Z</time></trkpt><trkpt lat="25.030150134860197" lon="121.49274907812514"><ele>8.0</ele><time>2026-03-22T01:46:39Z</time></trkpt><trkpt lat="25.0300941766454" lon="121.49267254368702"><ele>8.0</ele><time>2026-03-22T01:46:40.001Z</time></trkpt><trkpt lat="25.030041414227394" lon="121.49259828970837"><ele>8.0</ele><time>2026-03-22T01:46:41.001Z</time></trkpt><trkpt lat="25.02998960559113" lon="121.49252152054527"><ele>7.999999999999999</ele><time>2026-03-22T01:46:42.001Z</time></trkpt><trkpt lat="25.02993734484477" lon="121.49245032077741"><ele>8.0</ele><time>2026-03-22T01:46:43.001Z</time></trkpt><trkpt lat="25.029885372374473" lon="121.49238204234472"><ele>8.0</ele><time>2026-03-22T01:46:44.001Z</time></trkpt><trkpt lat="25.029833780207635" lon="121.49231662018343"><ele>8.0</ele><time>2026-03-22T01:46:45.001Z</time></trkpt><trkpt lat="25.029783970111865" lon="121.49225186414759"><ele>7.999999999999999</ele><time>2026-03-22T01:46:46.001Z</time></trkpt><trkpt lat="25.029735045150787" lon="121.49218866460346"><ele>8.0</ele><time>2026-03-22T01:46:47.001Z</time></trkpt><trkpt lat="25.029690858030488" lon="121.49213182201528"><ele>7.571428571428571</ele><time>2026-03-22T01:46:48.001Z</time></trkpt><trkpt lat="25.02962404848159" lon="121.49205209724978"><ele>7.142857142857142</ele><time>2026-03-22T01:46:50.001Z</time></trkpt><trkpt lat="25.029575608698778" lon="121.4919988081134"><ele>6.7142857142857135</ele><time>2026-03-22T01:46:54Z</time></trkpt><trkpt lat="25.029523049619854" lon="121.49193191073967"><ele>6.285714285714286</ele><time>2026-03-22T01:47:19Z</time></trkpt><trkpt lat="25.029476344155423" lon="121.49188076492142"><ele>5.857142857142858</ele><time>2026-03-22T01:47:21Z</time></trkpt><trkpt lat="25.029431333267112" lon="121.49183082574625"><ele>5.428571428571429</ele><time>2026-03-22T01:47:23Z</time></trkpt><trkpt lat="25.029382091082688" lon="121.49177600915719"><ele>5.0</ele><time>2026-03-22T01:47:26Z</time></trkpt><trkpt lat="25.029337276027338" lon="121.49172203561108"><ele>5.0</ele><time>2026-03-22T01:47:30Z</time></trkpt><trkpt lat="25.029278460992707" lon="121.49165007381237"><ele>5.0</ele><time>2026-03-22T01:47:34Z</time></trkpt><trkpt lat="25.029238683532476" lon="121.49159268753087"><ele>5.0</ele><time>2026-03-22T01:47:36Z</time></trkpt><trkpt lat="25.029137233331944" lon="121.49160611087247"><ele>5.0</ele><time>2026-03-22T01:47:39Z</time></trkpt><trkpt lat="25.029211095330375" lon="121.49144265123226"><ele>5.0</ele><time>2026-03-22T01:47:40Z</time></trkpt><trkpt lat="25.029298844486146" lon="121.4913947149258"><ele>5.0</ele><time>2026-03-22T01:47:42Z</time></trkpt><trkpt lat="25.029373568160523" lon="121.49130677796077"><ele>5.0</ele><time>2026-03-22T01:47:44Z</time></trkpt><trkpt lat="25.029453301731003" lon="121.4912170310237"><ele>5.0</ele><time>2026-03-22T01:47:46Z</time></trkpt><trkpt lat="25.029499963168146" lon="121.49116559619989"><ele>5.0</ele><time>2026-03-22T01:47:47Z</time></trkpt><trkpt lat="25.029550263112423" lon="121.49110958839618"><ele>5.0</ele><time>2026-03-22T01:47:48Z</time></trkpt><trkpt lat="25.02960403598296" lon="121.49105067603182"><ele>5.0</ele><time>2026-03-22T01:47:49Z</time></trkpt><trkpt lat="25.029660088036874" lon="121.49098852237044"><ele>5.333333333333334</ele><time>2026-03-22T01:47:50Z</time></trkpt><trkpt lat="25.029717957700115" lon="121.49092464250623"><ele>5.666666666666667</ele><time>2026-03-22T01:47:51Z</time></trkpt><trkpt lat="25.029777951204757" lon="121.49085759861524"><ele>6.0</ele><time>2026-03-22T01:47:52.001Z</time></trkpt><trkpt lat="25.029841446283417" lon="121.49078822772397"><ele>6.333333333333334</ele><time>2026-03-22T01:47:53.001Z</time></trkpt><trkpt lat="25.029906899381622" lon="121.49071732248896"><ele>6.666666666666667</ele><time>2026-03-22T01:47:54.001Z</time></trkpt><trkpt lat="25.02997136570081" lon="121.49064489087318"><ele>7.0</ele><time>2026-03-22T01:47:55.001Z</time></trkpt><trkpt lat="25.030036368723643" lon="121.49057245088822"><ele>7.199999999999999</ele><time>2026-03-22T01:47:56.001Z</time></trkpt><trkpt lat="25.030101648285342" lon="121.49049980230491"><ele>7.3999999999999995</ele><time>2026-03-22T01:47:57.001Z</time></trkpt><trkpt lat="25.030167178168604" lon="121.49042717941983"><ele>7.6000000000000005</ele><time>2026-03-22T01:47:58.001Z</time></trkpt><trkpt lat="25.030233372722478" lon="121.49035456536127"><ele>7.800000000000001</ele><time>2026-03-22T01:47:59.001Z</time></trkpt><trkpt lat="25.030297600180283" lon="121.49027902238768"><ele>8.0</ele><time>2026-03-22T01:48:00.001Z</time></trkpt><trkpt lat="25.03035931759477" lon="121.490198455816"><ele>7.6000000000000005</ele><time>2026-03-22T01:48:01.001Z</time></trkpt><trkpt lat="25.030416310213013" lon="121.49011374892108"><ele>7.200000000000001</ele><time>2026-03-22T01:48:02.001Z</time></trkpt><trkpt lat="25.030467904323313" lon="121.49002455524733"><ele>6.8</ele><time>2026-03-22T01:48:03.001Z</time></trkpt><trkpt lat="25.030514811977522" lon="121.4899307218288"><ele>6.4</ele><time>2026-03-22T01:48:04.001Z</time></trkpt><trkpt lat="25.03055793002831" lon="121.48983478811945"><ele>6.0</ele><time>2026-03-22T01:48:05.001Z</time></trkpt><trkpt lat="25.030596188793325" lon="121.4897355882689"><ele>6.0</ele><time>2026-03-22T01:48:06.001Z</time></trkpt><trkpt lat="25.030629174218785" lon="121.48963384974371"><ele>6.0</ele><time>2026-03-22T01:48:07.001Z</time></trkpt><trkpt lat="25.03065622555371" lon="121.4895261766521"><ele>6.0</ele><time>2026-03-22T01:48:08.001Z</time></trkpt><trkpt lat="25.030677481417023" lon="121.48941398657007"><ele>6.0</ele><time>2026-03-22T01:48:09.001Z</time></trkpt><trkpt lat="25.03069217257209" lon="121.48929852862699"><ele>6.0</ele><time>2026-03-22T01:48:10.001Z</time></trkpt><trkpt lat="25.03070153924868" lon="121.4891820173457"><ele>6.4</ele><time>2026-03-22T01:48:11.001Z</time></trkpt><trkpt lat="25.030703618263097" lon="121.48906797097851"><ele>6.8</ele><time>2026-03-22T01:48:12.001Z</time></trkpt><trkpt lat="25.03069946942831" lon="121.48896201533935"><ele>7.200000000000001</ele><time>2026-03-22T01:48:13.001Z</time></trkpt><trkpt lat="25.030689405936464" lon="121.48885783523087"><ele>7.6000000000000005</ele><time>2026-03-22T01:48:14.001Z</time></trkpt><trkpt lat="25.0306749784546" lon="121.48875303815531"><ele>8.0</ele><time>2026-03-22T01:48:15.001Z</time></trkpt><trkpt lat="25.030655288276144" lon="121.4886480238379"><ele>8.200000000000001</ele><time>2026-03-22T01:48:16.001Z</time></trkpt><trkpt lat="25.030629480848713" lon="121.48854317091109"><ele>8.4</ele><time>2026-03-22T01:48:17.001Z</time></trkpt><trkpt lat="25.03059633113523" lon="121.48843954250025"><ele>8.600000000000001</ele><time>2026-03-22T01:48:18.001Z</time></trkpt><trkpt lat="25.03055530543148" lon="121.48833638756625"><ele>8.8</ele><time>2026-03-22T01:48:19.001Z</time></trkpt><trkpt lat="25.030508068611404" lon="121.488233729464"><ele>9.0</ele><time>2026-03-22T01:48:20.001Z</time></trkpt><trkpt lat="25.030454446124594" lon="121.4881315363512"><ele>9.0</ele><time>2026-03-22T01:48:21.001Z</time></trkpt><trkpt lat="25.030393919991717" lon="121.48802928373621"><ele>9.0</ele><time>2026-03-22T01:48:22.001Z</time></trkpt><trkpt lat="25.030331027097812" lon="121.48792562036779"><ele>9.0</ele><time>2026-03-22T01:48:23.001Z</time></trkpt><trkpt lat="25.030266078762132" lon="121.48781763527093"><ele>9.0</ele><time>2026-03-22T01:48:24.001Z</time></trkpt><trkpt lat="25.030200631072237" lon="121.4877081315149"><ele>8.0</ele><time>2026-03-22T01:48:25.001Z</time></trkpt><trkpt lat="25.030126119751674" lon="121.48758328585173"><ele>7.0</ele><time>2026-03-22T01:48:26.001Z</time></trkpt><trkpt lat="25.030042726542014" lon="121.48747806244137"><ele>6.0</ele><time>2026-03-22T01:48:27.001Z</time></trkpt><trkpt lat="25.02996511545747" lon="121.48736492969704"><ele>5.0</ele><time>2026-03-22T01:48:28.001Z</time></trkpt><trkpt lat="25.029901871539806" lon="121.48723646852251"><ele>4.5</ele><time>2026-03-22T01:48:29.001Z</time></trkpt><trkpt lat="25.029831058935635" lon="121.48711590012432"><ele>4.0</ele><time>2026-03-22T01:48:30.001Z</time></trkpt><trkpt lat="25.029758641030284" lon="121.48699428731152"><ele>3.5</ele><time>2026-03-22T01:48:31.001Z</time></trkpt><trkpt lat="25.02968029068068" lon="121.48687170398914"><ele>3.0</ele><time>2026-03-22T01:48:32.001Z</time></trkpt><trkpt lat="25.02960538003908" lon="121.48674600980465"><ele>2.5</ele><time>2026-03-22T01:48:33.001Z</time></trkpt><trkpt lat="25.02955260278476" lon="121.48660463135376"><ele>2.0</ele><time>2026-03-22T01:48:34.001Z</time></trkpt><trkpt lat="25.029453808255603" lon="121.48648510720784"><ele>1.5</ele><time>2026-03-22T01:48:35.001Z</time></trkpt><trkpt lat="25.02937312105806" lon="121.48635373886047"><ele>1.0</ele><time>2026-03-22T01:48:36.001Z</time></trkpt><trkpt lat="25.029293556345596" lon="121.48621977412483"><ele>1.0</ele><time>2026-03-22T01:48:37.001Z</time></trkpt><trkpt lat="25.029213203672093" lon="121.48608157841922"><ele>1.0</ele><time>2026-03-22T01:48:38.001Z</time></trkpt><trkpt lat="25.029131923201728" lon="121.48594274491985"><ele>1.0</ele><time>2026-03-22T01:48:39.001Z</time></trkpt><trkpt lat="25.029048214679847" lon="121.48580099131142"><ele>1.0</ele><time>2026-03-22T01:48:40.001Z</time></trkpt><trkpt lat="25.028962988785647" lon="121.48565895295808"><ele>1.0</ele><time>2026-03-22T01:48:41.001Z</time></trkpt><trkpt lat="25.02887993150195" lon="121.48551862406941"><ele>1.0</ele><time>2026-03-22T01:48:42.001Z</time></trkpt><trkpt lat="25.028796355269467" lon="121.48537858160678"><ele>2.0</ele><time>2026-03-22T01:48:43.001Z</time></trkpt><trkpt lat="25.028713204463713" lon="121.48523584199289"><ele>3.0</ele><time>2026-03-22T01:48:44.001Z</time></trkpt><trkpt lat="25.0286325386659" lon="121.4850973562369"><ele>4.0</ele><time>2026-03-22T01:48:45.001Z</time></trkpt><trkpt lat="25.02854598092609" lon="121.48495662072813"><ele>4.0</ele><time>2026-03-22T01:48:46.001Z</time></trkpt><trkpt lat="25.028460523800707" lon="121.48482123873282"><ele>4.0</ele><time>2026-03-22T01:48:47.001Z</time></trkpt><trkpt lat="25.028373401827448" lon="121.48469130168041"><ele>4.0</ele><time>2026-03-22T01:48:48.001Z</time></trkpt><trkpt lat="25.02829075763893" lon="121.4845588341192"><ele>4.0</ele><time>2026-03-22T01:48:49.001Z</time></trkpt><trkpt lat="25.02820909764905" lon="121.48443117175613"><ele>5.5</ele><time>2026-03-22T01:48:50.001Z</time></trkpt><trkpt lat="25.02812733815347" lon="121.48429220899853"><ele>7.0</ele><time>2026-03-22T01:48:51.001Z</time></trkpt><trkpt lat="25.02805634449929" lon="121.48415831086676"><ele>8.5</ele><time>2026-03-22T01:48:52.001Z</time></trkpt><trkpt lat="25.027993421534223" lon="121.48401980842097"><ele>10.0</ele><time>2026-03-22T01:48:53.001Z</time></trkpt><trkpt lat="25.027940718198177" lon="121.48387725640796"><ele>9.5</ele><time>2026-03-22T01:48:54.001Z</time></trkpt><trkpt lat="25.02789106175012" lon="121.4837285337306"><ele>9.0</ele><time>2026-03-22T01:48:55.001Z</time></trkpt><trkpt lat="25.02784427597809" lon="121.48356735330859"><ele>8.5</ele><time>2026-03-22T01:48:56.001Z</time></trkpt><trkpt lat="25.027798676238152" lon="121.48340708305383"><ele>8.0</ele><time>2026-03-22T01:48:57.001Z</time></trkpt><trkpt lat="25.027745201186633" lon="121.48324812844974"><ele>8.0</ele><time>2026-03-22T01:48:58.001Z</time></trkpt><trkpt lat="25.027708449275266" lon="121.48308951139099"><ele>8.0</ele><time>2026-03-22T01:48:59Z</time></trkpt><trkpt lat="25.027667729294972" lon="121.48293693798415"><ele>8.0</ele><time>2026-03-22T01:49:00Z</time></trkpt><trkpt lat="25.027624093625747" lon="121.4827759844839"><ele>8.0</ele><time>2026-03-22T01:49:01Z</time></trkpt><trkpt lat="25.027579531582337" lon="121.48261866309781"><ele>8.0</ele><time>2026-03-22T01:49:02Z</time></trkpt><trkpt lat="25.02753648593261" lon="121.48246239134347"><ele>8.0</ele><time>2026-03-22T01:49:03Z</time></trkpt><trkpt lat="25.027496326208258" lon="121.48230803943048"><ele>8.0</ele><time>2026-03-22T01:49:04Z</time></trkpt><trkpt lat="25.027438032415215" lon="121.48216109737521"><ele>8.0</ele><time>2026-03-22T01:49:05Z</time></trkpt><trkpt lat="25.02739431958804" lon="121.48200485154548"><ele>9.0</ele><time>2026-03-22T01:49:06Z</time></trkpt><trkpt lat="25.027361578633183" lon="121.48184245523318"><ele>10.0</ele><time>2026-03-22T01:49:07Z</time></trkpt><trkpt lat="25.0273039681148" lon="121.48168828767935"><ele>11.0</ele><time>2026-03-22T01:49:08Z</time></trkpt><trkpt lat="25.027238212416528" lon="121.48153862662242"><ele>11.0</ele><time>2026-03-22T01:49:09Z</time></trkpt><trkpt lat="25.027162282375773" lon="121.481396461843"><ele>11.0</ele><time>2026-03-22T01:49:10Z</time></trkpt><trkpt lat="25.027075589677654" lon="121.48126183442564"><ele>11.0</ele><time>2026-03-22T01:49:11Z</time></trkpt><trkpt lat="25.02698533322356" lon="121.481132900702"><ele>11.0</ele><time>2026-03-22T01:49:12Z</time></trkpt><trkpt lat="25.026895580202623" lon="121.48100413025699"><ele>11.0</ele><time>2026-03-22T01:49:13Z</time></trkpt><trkpt lat="25.026807005809996" lon="121.48087676744306"><ele>11.0</ele><time>2026-03-22T01:49:14Z</time></trkpt><trkpt lat="25.026723543185128" lon="121.48074613931041"><ele>11.0</ele><time>2026-03-22T01:49:15Z</time></trkpt><trkpt lat="25.026641167801692" lon="121.48061304717473"><ele>11.0</ele><time>2026-03-22T01:49:16Z</time></trkpt><trkpt lat="25.026561862016703" lon="121.48047669055677"><ele>12.666666666666666</ele><time>2026-03-22T01:49:17Z</time></trkpt><trkpt lat="25.026478170432757" lon="121.48033603600682"><ele>14.333333333333332</ele><time>2026-03-22T01:49:18Z</time></trkpt><trkpt lat="25.026401540216618" lon="121.48018980413683"><ele>16.0</ele><time>2026-03-22T01:49:19Z</time></trkpt><trkpt lat="25.02632116226331" lon="121.48004943795067"><ele>16.0</ele><time>2026-03-22T01:49:20Z</time></trkpt><trkpt lat="25.026238863578122" lon="121.479913726103"><ele>16.0</ele><time>2026-03-22T01:49:21Z</time></trkpt><trkpt lat="25.02615443656844" lon="121.47978214875643"><ele>16.0</ele><time>2026-03-22T01:49:22Z</time></trkpt><trkpt lat="25.026069543045608" lon="121.47965226764416"><ele>16.0</ele><time>2026-03-22T01:49:23Z</time></trkpt><trkpt lat="25.025984299290343" lon="121.47952627928655"><ele>16.5</ele><time>2026-03-22T01:49:24Z</time></trkpt><trkpt lat="25.025898710214303" lon="121.4794065882707"><ele>17.0</ele><time>2026-03-22T01:49:25Z</time></trkpt><trkpt lat="25.02582037064475" lon="121.47928048728352"><ele>17.5</ele><time>2026-03-22T01:49:26Z</time></trkpt><trkpt lat="25.02575475879173" lon="121.47914724062203"><ele>18.0</ele><time>2026-03-22T01:49:27Z</time></trkpt><trkpt lat="25.02570267808141" lon="121.47901289548564"><ele>18.0</ele><time>2026-03-22T01:49:28Z</time></trkpt><trkpt lat="25.025663971877943" lon="121.47887531788345"><ele>18.0</ele><time>2026-03-22T01:49:29Z</time></trkpt><trkpt lat="25.025640504012223" lon="121.4787350831107"><ele>18.0</ele><time>2026-03-22T01:49:30Z</time></trkpt><trkpt lat="25.02561520808894" lon="121.47859632327975"><ele>18.0</ele><time>2026-03-22T01:49:31Z</time></trkpt><trkpt lat="25.02558273419679" lon="121.47845994946734"><ele>18.25</ele><time>2026-03-22T01:49:32Z</time></trkpt><trkpt lat="25.02554515579818" lon="121.47832824962401"><ele>18.5</ele><time>2026-03-22T01:49:33Z</time></trkpt><trkpt lat="25.025504629239588" lon="121.47819912533609"><ele>18.75</ele><time>2026-03-22T01:49:34Z</time></trkpt><trkpt lat="25.025459414034387" lon="121.47807453588254"><ele>19.0</ele><time>2026-03-22T01:49:35Z</time></trkpt><trkpt lat="25.025410525374205" lon="121.47795311809892"><ele>17.75</ele><time>2026-03-22T01:49:36Z</time></trkpt><trkpt lat="25.025357400849266" lon="121.47783196531574"><ele>16.5</ele><time>2026-03-22T01:49:37Z</time></trkpt><trkpt lat="25.025299859657324" lon="121.47771126371401"><ele>15.25</ele><time>2026-03-22T01:49:38Z</time></trkpt><trkpt lat="25.025238086352143" lon="121.4775896480855"><ele>14.0</ele><time>2026-03-22T01:49:39Z</time></trkpt><trkpt lat="25.02517075834682" lon="121.47746725551339"><ele>14.0</ele><time>2026-03-22T01:49:40Z</time></trkpt><trkpt lat="25.025098434639304" lon="121.47734410384753"><ele>14.0</ele><time>2026-03-22T01:49:41Z</time></trkpt><trkpt lat="25.025020506049767" lon="121.4772198913702"><ele>14.0</ele><time>2026-03-22T01:49:42Z</time></trkpt><trkpt lat="25.024936454355146" lon="121.4770985077179"><ele>14.0</ele><time>2026-03-22T01:49:43Z</time></trkpt><trkpt lat="25.024847809206758" lon="121.47697537468446"><ele>14.0</ele><time>2026-03-22T01:49:44Z</time></trkpt><trkpt lat="25.02475348205286" lon="121.47685351085107"><ele>14.0</ele><time>2026-03-22T01:49:45Z</time></trkpt><trkpt lat="25.024653020696878" lon="121.47673337275745"><ele>14.0</ele><time>2026-03-22T01:49:46.001Z</time></trkpt><trkpt lat="25.024550541887713" lon="121.47661143239647"><ele>14.0</ele><time>2026-03-22T01:49:47.001Z</time></trkpt><trkpt lat="25.02444687306976" lon="121.47648707583949"><ele>14.0</ele><time>2026-03-22T01:49:48.001Z</time></trkpt><trkpt lat="25.02434089440441" lon="121.47636173497493"><ele>14.0</ele><time>2026-03-22T01:49:49.001Z</time></trkpt><trkpt lat="25.024237337882763" lon="121.47623768101282"><ele>14.0</ele><time>2026-03-22T01:49:50.001Z</time></trkpt><trkpt lat="25.024137943826563" lon="121.47611655013519"><ele>14.5</ele><time>2026-03-22T01:49:51.001Z</time></trkpt><trkpt lat="25.024044358705385" lon="121.47600458674171"><ele>15.0</ele><time>2026-03-22T01:49:52.001Z</time></trkpt><trkpt lat="25.02395797631404" lon="121.47590027134515"><ele>15.5</ele><time>2026-03-22T01:49:53.001Z</time></trkpt><trkpt lat="25.023877828930843" lon="121.47580471555374"><ele>16.0</ele><time>2026-03-22T01:49:54.001Z</time></trkpt><trkpt lat="25.023807603382476" lon="121.47571538822189"><ele>15.999999999999998</ele><time>2026-03-22T01:49:55.001Z</time></trkpt><trkpt lat="25.023747256383956" lon="121.47562986691979"><ele>16.0</ele><time>2026-03-22T01:49:56.001Z</time></trkpt><trkpt lat="25.023696848962544" lon="121.4755474396153"><ele>16.0</ele><time>2026-03-22T01:49:57.001Z</time></trkpt><trkpt lat="25.023656384674723" lon="121.47546806191524"><ele>16.0</ele><time>2026-03-22T01:49:58.001Z</time></trkpt><trkpt lat="25.023629456984086" lon="121.47539413926897"><ele>15.999999999999998</ele><time>2026-03-22T01:49:59.001Z</time></trkpt><trkpt lat="25.02360525201518" lon="121.47531643210002"><ele>16.0</ele><time>2026-03-22T01:50:00.001Z</time></trkpt><trkpt lat="25.02358791122812" lon="121.47523600289345"><ele>15.999999999999998</ele><time>2026-03-22T01:50:01.001Z</time></trkpt><trkpt lat="25.023574930966106" lon="121.47515647152899"><ele>16.0</ele><time>2026-03-22T01:50:02.001Z</time></trkpt><trkpt lat="25.02356296542272" lon="121.4750766216645"><ele>16.0</ele><time>2026-03-22T01:50:03.001Z</time></trkpt><trkpt lat="25.02355113432625" lon="121.47498731389594"><ele>16.0</ele><time>2026-03-22T01:50:04.001Z</time></trkpt><trkpt lat="25.023536987870557" lon="121.47489441843064"><ele>15.999999999999998</ele><time>2026-03-22T01:50:05.001Z</time></trkpt><trkpt lat="25.02352090552745" lon="121.47479494493028"><ele>16.0</ele><time>2026-03-22T01:50:06.001Z</time></trkpt><trkpt lat="25.023504831538922" lon="121.47468861262574"><ele>15.600000000000001</ele><time>2026-03-22T01:50:07.001Z</time></trkpt><trkpt lat="25.023492403401846" lon="121.47458054606851"><ele>15.200000000000001</ele><time>2026-03-22T01:50:08.001Z</time></trkpt><trkpt lat="25.023481958165092" lon="121.47447041289962"><ele>14.799999999999999</ele><time>2026-03-22T01:50:09.001Z</time></trkpt><trkpt lat="25.02347354491177" lon="121.47435175079431"><ele>14.399999999999999</ele><time>2026-03-22T01:50:10.001Z</time></trkpt><trkpt lat="25.023469549536298" lon="121.4742283007649"><ele>14.0</ele><time>2026-03-22T01:50:11.001Z</time></trkpt><trkpt lat="25.023471099517238" lon="121.47409696667027"><ele>14.0</ele><time>2026-03-22T01:50:12.001Z</time></trkpt><trkpt lat="25.023479124894152" lon="121.47395716898338"><ele>14.0</ele><time>2026-03-22T01:50:13.001Z</time></trkpt><trkpt lat="25.02348802919383" lon="121.47381097706844"><ele>14.0</ele><time>2026-03-22T01:50:14.001Z</time></trkpt><trkpt lat="25.023493987945898" lon="121.47366347206646"><ele>14.0</ele><time>2026-03-22T01:50:15.001Z</time></trkpt><trkpt lat="25.023495770831047" lon="121.473515857522"><ele>13.25</ele><time>2026-03-22T01:50:16.001Z</time></trkpt><trkpt lat="25.02349491407609" lon="121.47336099881956"><ele>12.5</ele><time>2026-03-22T01:50:17.001Z</time></trkpt><trkpt lat="25.023496103137717" lon="121.47319853601066"><ele>11.75</ele><time>2026-03-22T01:50:18.001Z</time></trkpt><trkpt lat="25.023489291158153" lon="121.4730402215797"><ele>11.0</ele><time>2026-03-22T01:50:19.001Z</time></trkpt><trkpt lat="25.023477462091538" lon="121.47288399376946"><ele>11.0</ele><time>2026-03-22T01:50:20.001Z</time></trkpt><trkpt lat="25.023455698104247" lon="121.47273136822054"><ele>11.0</ele><time>2026-03-22T01:50:21.001Z</time></trkpt><trkpt lat="25.023420330238487" lon="121.47258628365006"><ele>11.0</ele><time>2026-03-22T01:50:22.001Z</time></trkpt><trkpt lat="25.023368100041935" lon="121.472445950024"><ele>11.0</ele><time>2026-03-22T01:50:23.001Z</time></trkpt><trkpt lat="25.023300386414114" lon="121.47231900929918"><ele>11.0</ele><time>2026-03-22T01:50:24.001Z</time></trkpt><trkpt lat="25.023216349748548" lon="121.47220258305092"><ele>11.0</ele><time>2026-03-22T01:50:25.001Z</time></trkpt><trkpt lat="25.02311835864219" lon="121.4720947301539"><ele>11.0</ele><time>2026-03-22T01:50:26.001Z</time></trkpt><trkpt lat="25.023009409873836" lon="121.4720024373702"><ele>11.0</ele><time>2026-03-22T01:50:27.001Z</time></trkpt><trkpt lat="25.022892901886884" lon="121.47192805234732"><ele>10.25</ele><time>2026-03-22T01:50:28.001Z</time></trkpt><trkpt lat="25.02277523166394" lon="121.4718526525879"><ele>9.5</ele><time>2026-03-22T01:50:29.001Z</time></trkpt><trkpt lat="25.02264028385434" lon="121.47180612418776"><ele>8.75</ele><time>2026-03-22T01:50:30.001Z</time></trkpt><trkpt lat="25.02250254865192" lon="121.47178090290473"><ele>8.0</ele><time>2026-03-22T01:50:31.001Z</time></trkpt><trkpt lat="25.022368550447098" lon="121.47177958607277"><ele>9.75</ele><time>2026-03-22T01:50:32.001Z</time></trkpt><trkpt lat="25.022241675741082" lon="121.47179110251211"><ele>11.5</ele><time>2026-03-22T01:50:33.001Z</time></trkpt><trkpt lat="25.022118071764858" lon="121.47175752558114"><ele>13.25</ele><time>2026-03-22T01:50:34.001Z</time></trkpt><trkpt lat="25.02199916193927" lon="121.47170492156505"><ele>15.0</ele><time>2026-03-22T01:50:35.001Z</time></trkpt><trkpt lat="25.02188718828315" lon="121.47164145270995"><ele>15.0</ele><time>2026-03-22T01:50:36.001Z</time></trkpt><trkpt lat="25.021789033809128" lon="121.47155634536132"><ele>15.0</ele><time>2026-03-22T01:50:37.001Z</time></trkpt><trkpt lat="25.021687408466885" lon="121.47148226285125"><ele>15.0</ele><time>2026-03-22T01:50:38.001Z</time></trkpt><trkpt lat="25.021590850755867" lon="121.47140943056472"><ele>15.0</ele><time>2026-03-22T01:50:39.001Z</time></trkpt><trkpt lat="25.021498782405562" lon="121.47135500431882"><ele>15.4</ele><time>2026-03-22T01:50:40.001Z</time></trkpt><trkpt lat="25.021431667100593" lon="121.47128899323927"><ele>15.8</ele><time>2026-03-22T01:50:41.001Z</time></trkpt><trkpt lat="25.021375105668476" lon="121.47122620025412"><ele>16.2</ele><time>2026-03-22T01:50:42.001Z</time></trkpt><trkpt lat="25.02132743670677" lon="121.47116782098007"><ele>16.6</ele><time>2026-03-22T01:50:43.001Z</time></trkpt><trkpt lat="25.02125236208795" lon="121.47106621991627"><ele>17.0</ele><time>2026-03-22T01:50:45.001Z</time></trkpt><trkpt lat="25.02119462261972" lon="121.47097908521195"><ele>16.333333333333336</ele><time>2026-03-22T01:50:47.001Z</time></trkpt><trkpt lat="25.021150019014904" lon="121.47090491836492"><ele>15.666666666666668</ele><time>2026-03-22T01:50:49.001Z</time></trkpt><trkpt lat="25.021114679260812" lon="121.47084541046327"><ele>15.0</ele><time>2026-03-22T01:50:54.001Z</time></trkpt><trkpt lat="25.021065535949262" lon="121.47076305059765"><ele>14.333333333333332</ele><time>2026-03-22T01:51:26Z</time></trkpt><trkpt lat="25.02103092690623" lon="121.47070462681549"><ele>13.666666666666666</ele><time>2026-03-22T01:51:28Z</time></trkpt><trkpt lat="25.02098609915019" lon="121.47062751770991"><ele>13.0</ele><time>2026-03-22T01:51:30Z</time></trkpt><trkpt lat="25.02092707443709" lon="121.47052482793343"><ele>13.600000000000001</ele><time>2026-03-22T01:51:32Z</time></trkpt><trkpt lat="25.020885587743326" lon="121.47040808145515"><ele>14.200000000000001</ele><time>2026-03-22T01:51:34Z</time></trkpt><trkpt lat="25.02080853088576" lon="121.47029098581204"><ele>14.8</ele><time>2026-03-22T01:51:36Z</time></trkpt><trkpt lat="25.020770825083755" lon="121.47022642673691"><ele>15.4</ele><time>2026-03-22T01:51:37Z</time></trkpt><trkpt lat="25.020733412544867" lon="121.47016081489154"><ele>16.0</ele><time>2026-03-22T01:51:38Z</time></trkpt><trkpt lat="25.020695549493897" lon="121.47009600879886"><ele>14.999999999999998</ele><time>2026-03-22T01:51:39Z</time></trkpt><trkpt lat="25.02065509207007" lon="121.47003629879723"><ele>14.0</ele><time>2026-03-22T01:51:40Z</time></trkpt><trkpt lat="25.020636369770788" lon="121.46996902708347"><ele>13.0</ele><time>2026-03-22T01:51:41Z</time></trkpt><trkpt lat="25.020614031103626" lon="121.4698717489877"><ele>12.0</ele><time>2026-03-22T01:51:43Z</time></trkpt><trkpt lat="25.020584353526736" lon="121.46979468476833"><ele>11.0</ele><time>2026-03-22T01:51:46Z</time></trkpt><trkpt lat="25.02055411715813" lon="121.46971554514924"><ele>10.0</ele><time>2026-03-22T01:51:49Z</time></trkpt><trkpt lat="25.020299850606392" lon="121.46975945589591"><ele>10.0</ele><time>2026-03-22T01:51:51Z</time></trkpt><trkpt lat="25.020179751558878" lon="121.46978561137276"><ele>10.0</ele><time>2026-03-22T01:51:53Z</time></trkpt><trkpt lat="25.020105786938892" lon="121.46978588600908"><ele>10.0</ele><time>2026-03-22T01:51:54Z</time></trkpt><trkpt lat="25.02005159509798" lon="121.46982895349716"><ele>10.0</ele><time>2026-03-22T01:51:55Z</time></trkpt><trkpt lat="25.019988166985165" lon="121.4698787827011"><ele>10.0</ele><time>2026-03-22T01:51:56Z</time></trkpt><trkpt lat="25.01991959671876" lon="121.46994868123214"><ele>10.0</ele><time>2026-03-22T01:51:57Z</time></trkpt><trkpt lat="25.019829066348432" lon="121.47000777804189"><ele>10.6</ele><time>2026-03-22T01:51:58Z</time></trkpt><trkpt lat="25.019737469950464" lon="121.47007412969384"><ele>11.2</ele><time>2026-03-22T01:51:59Z</time></trkpt><trkpt lat="25.019650755762285" lon="121.47013743963524"><ele>11.8</ele><time>2026-03-22T01:52:00Z</time></trkpt><trkpt lat="25.019568183708344" lon="121.47019813241404"><ele>12.4</ele><time>2026-03-22T01:52:01.001Z</time></trkpt><trkpt lat="25.01948416683299" lon="121.47026103932315"><ele>13.0</ele><time>2026-03-22T01:52:02.001Z</time></trkpt><trkpt lat="25.019397340923437" lon="121.47032647187945"><ele>13.0</ele><time>2026-03-22T01:52:03.001Z</time></trkpt><trkpt lat="25.019307681218507" lon="121.4703940947102"><ele>13.0</ele><time>2026-03-22T01:52:04.001Z</time></trkpt><trkpt lat="25.019215113491683" lon="121.4704643518393"><ele>13.0</ele><time>2026-03-22T01:52:05.001Z</time></trkpt><trkpt lat="25.019117431493356" lon="121.47053667138225"><ele>13.0</ele><time>2026-03-22T01:52:06.001Z</time></trkpt><trkpt lat="25.019017588863704" lon="121.47061278505197"><ele>13.0</ele><time>2026-03-22T01:52:07.001Z</time></trkpt><trkpt lat="25.018914039056334" lon="121.47069108278632"><ele>13.0</ele><time>2026-03-22T01:52:08.001Z</time></trkpt><trkpt lat="25.018808378621188" lon="121.47077141727715"><ele>13.0</ele><time>2026-03-22T01:52:09.001Z</time></trkpt><trkpt lat="25.018707041028733" lon="121.47084870593886"><ele>13.0</ele><time>2026-03-22T01:52:10.001Z</time></trkpt><trkpt lat="25.018607591691044" lon="121.47092631367259"><ele>13.0</ele><time>2026-03-22T01:52:11.001Z</time></trkpt><trkpt lat="25.018510218678074" lon="121.4710018446875"><ele>13.0</ele><time>2026-03-22T01:52:12.001Z</time></trkpt><trkpt lat="25.018415674311164" lon="121.47107697525219"><ele>13.0</ele><time>2026-03-22T01:52:13.001Z</time></trkpt><trkpt lat="25.01832338514049" lon="121.47115157754621"><ele>13.0</ele><time>2026-03-22T01:52:14.001Z</time></trkpt><trkpt lat="25.01823263898193" lon="121.47122626970462"><ele>13.600000000000001</ele><time>2026-03-22T01:52:15.001Z</time></trkpt><trkpt lat="25.01814427121351" lon="121.47129956245132"><ele>14.200000000000001</ele><time>2026-03-22T01:52:16.001Z</time></trkpt><trkpt lat="25.018056165765078" lon="121.47137394036893"><ele>14.8</ele><time>2026-03-22T01:52:17.001Z</time></trkpt><trkpt lat="25.017969304773604" lon="121.47144656262762"><ele>15.4</ele><time>2026-03-22T01:52:18.001Z</time></trkpt><trkpt lat="25.017884330264607" lon="121.4715186071401"><ele>16.0</ele><time>2026-03-22T01:52:19.001Z</time></trkpt><trkpt lat="25.017800317873782" lon="121.47158782639565"><ele>16.0</ele><time>2026-03-22T01:52:20.001Z</time></trkpt><trkpt lat="25.01771719876115" lon="121.47165577204996"><ele>16.0</ele><time>2026-03-22T01:52:21.001Z</time></trkpt><trkpt lat="25.017635137654036" lon="121.47172341005312"><ele>16.0</ele><time>2026-03-22T01:52:22.001Z</time></trkpt><trkpt lat="25.0175542851479" lon="121.47179006603537"><ele>16.0</ele><time>2026-03-22T01:52:23.001Z</time></trkpt><trkpt lat="25.017472303098447" lon="121.47185839325647"><ele>16.0</ele><time>2026-03-22T01:52:24.001Z</time></trkpt><trkpt lat="25.017385688732702" lon="121.47192928703579"><ele>16.0</ele><time>2026-03-22T01:52:25.001Z</time></trkpt><trkpt lat="25.01729215107174" lon="121.4720016321076"><ele>16.0</ele><time>2026-03-22T01:52:26.001Z</time></trkpt><trkpt lat="25.017190139140123" lon="121.4720789118435"><ele>16.0</ele><time>2026-03-22T01:52:27.001Z</time></trkpt><trkpt lat="25.01708348350978" lon="121.47216052479973"><ele>16.0</ele><time>2026-03-22T01:52:28.001Z</time></trkpt><trkpt lat="25.016973648673773" lon="121.47224372008706"><ele>15.0</ele><time>2026-03-22T01:52:29.001Z</time></trkpt><trkpt lat="25.016864115593073" lon="121.47232538725282"><ele>14.0</ele><time>2026-03-22T01:52:30.001Z</time></trkpt><trkpt lat="25.016755090370754" lon="121.47240782061145"><ele>13.0</ele><time>2026-03-22T01:52:31.001Z</time></trkpt><trkpt lat="25.01664142545049" lon="121.4724931690664"><ele>12.0</ele><time>2026-03-22T01:52:32.001Z</time></trkpt><trkpt lat="25.016523746695373" lon="121.47258318910684"><ele>12.0</ele><time>2026-03-22T01:52:33.001Z</time></trkpt><trkpt lat="25.016403111077178" lon="121.4726781484592"><ele>12.0</ele><time>2026-03-22T01:52:34.001Z</time></trkpt><trkpt lat="25.016278722548837" lon="121.47277932452229"><ele>12.0</ele><time>2026-03-22T01:52:35.001Z</time></trkpt><trkpt lat="25.01615112889106" lon="121.47288521986741"><ele>12.666666666666668</ele><time>2026-03-22T01:52:36.001Z</time></trkpt><trkpt lat="25.01601791577355" lon="121.47299293258436"><ele>13.333333333333334</ele><time>2026-03-22T01:52:37.001Z</time></trkpt><trkpt lat="25.015879353076528" lon="121.4731014911226"><ele>14.0</ele><time>2026-03-22T01:52:38.001Z</time></trkpt><trkpt lat="25.01573630508887" lon="121.47321283781152"><ele>14.0</ele><time>2026-03-22T01:52:39.001Z</time></trkpt><trkpt lat="25.015593138992433" lon="121.47332106957738"><ele>14.0</ele><time>2026-03-22T01:52:40.001Z</time></trkpt><trkpt lat="25.01542996207442" lon="121.47340082935352"><ele>14.0</ele><time>2026-03-22T01:52:41.001Z</time></trkpt><trkpt lat="25.01530297587246" lon="121.47353769489203"><ele>14.0</ele><time>2026-03-22T01:52:42.001Z</time></trkpt><trkpt lat="25.015154158115546" lon="121.47364977597496"><ele>14.0</ele><time>2026-03-22T01:52:43.001Z</time></trkpt><trkpt lat="25.01500307466786" lon="121.47376437510106"><ele>14.0</ele><time>2026-03-22T01:52:44.001Z</time></trkpt><trkpt lat="25.014850686392517" lon="121.47388199600758"><ele>13.666666666666668</ele><time>2026-03-22T01:52:45.001Z</time></trkpt><trkpt lat="25.014697521705244" lon="121.47400393673429"><ele>13.333333333333332</ele><time>2026-03-22T01:52:46.001Z</time></trkpt><trkpt lat="25.014545473523015" lon="121.47413180311874"><ele>13.0</ele><time>2026-03-22T01:52:47.001Z</time></trkpt><trkpt lat="25.0143941285901" lon="121.47426495032988"><ele>13.0</ele><time>2026-03-22T01:52:48.001Z</time></trkpt><trkpt lat="25.01424514404767" lon="121.47440239103132"><ele>13.0</ele><time>2026-03-22T01:52:49.001Z</time></trkpt><trkpt lat="25.014099198781242" lon="121.4745410065257"><ele>13.0</ele><time>2026-03-22T01:52:50.001Z</time></trkpt><trkpt lat="25.013956184120385" lon="121.47467973572601"><ele>14.666666666666666</ele><time>2026-03-22T01:52:51.001Z</time></trkpt><trkpt lat="25.013815203294754" lon="121.47481853245334"><ele>16.333333333333332</ele><time>2026-03-22T01:52:52.001Z</time></trkpt><trkpt lat="25.013676377679342" lon="121.47495641352864"><ele>18.0</ele><time>2026-03-22T01:52:53.001Z</time></trkpt><trkpt lat="25.013539362334743" lon="121.47509400121797"><ele>18.0</ele><time>2026-03-22T01:52:54.001Z</time></trkpt><trkpt lat="25.01340401297887" lon="121.47522617709977"><ele>18.0</ele><time>2026-03-22T01:52:55.001Z</time></trkpt><trkpt lat="25.013269061407684" lon="121.47535937419428"><ele>18.0</ele><time>2026-03-22T01:52:56.001Z</time></trkpt><trkpt lat="25.013136437420755" lon="121.47548955219085"><ele>24.333333333333336</ele><time>2026-03-22T01:52:57.001Z</time></trkpt><trkpt lat="25.01300527474673" lon="121.47561881770964"><ele>30.666666666666668</ele><time>2026-03-22T01:52:58.001Z</time></trkpt><trkpt lat="25.01287793511775" lon="121.4757469466787"><ele>37.0</ele><time>2026-03-22T01:52:59.001Z</time></trkpt><trkpt lat="25.01275322630495" lon="121.47587557638607"><ele>37.0</ele><time>2026-03-22T01:53:00.001Z</time></trkpt><trkpt lat="25.012628425616054" lon="121.47600426189153"><ele>37.0</ele><time>2026-03-22T01:53:01.001Z</time></trkpt><trkpt lat="25.01250651590696" lon="121.47613525790376"><ele>37.0</ele><time>2026-03-22T01:53:02.001Z</time></trkpt><trkpt lat="25.012390078123143" lon="121.47626954423573"><ele>36.333333333333336</ele><time>2026-03-22T01:53:03.001Z</time></trkpt><trkpt lat="25.012276019145308" lon="121.47640774520544"><ele>35.666666666666664</ele><time>2026-03-22T01:53:04.001Z</time></trkpt><trkpt lat="25.01216737514448" lon="121.47655365634218"><ele>35.0</ele><time>2026-03-22T01:53:05.001Z</time></trkpt><trkpt lat="25.012064153066994" lon="121.47670251245854"><ele>35.0</ele><time>2026-03-22T01:53:06.001Z</time></trkpt><trkpt lat="25.01196817208408" lon="121.47685243075854"><ele>35.0</ele><time>2026-03-22T01:53:07.001Z</time></trkpt><trkpt lat="25.011875824625697" lon="121.47700434413665"><ele>35.0</ele><time>2026-03-22T01:53:08.001Z</time></trkpt><trkpt lat="25.011787115817338" lon="121.47715980929536"><ele>30.0</ele><time>2026-03-22T01:53:09.001Z</time></trkpt><trkpt lat="25.01170200846723" lon="121.47732095575212"><ele>25.0</ele><time>2026-03-22T01:53:10.001Z</time></trkpt><trkpt lat="25.01161786509243" lon="121.47748557417513"><ele>20.0</ele><time>2026-03-22T01:53:11Z</time></trkpt><trkpt lat="25.01153396715751" lon="121.47765543110515"><ele>20.0</ele><time>2026-03-22T01:53:12Z</time></trkpt><trkpt lat="25.011448618210068" lon="121.47782559594557"><ele>20.0</ele><time>2026-03-22T01:53:13Z</time></trkpt><trkpt lat="25.011362382967906" lon="121.47799930078486"><ele>20.0</ele><time>2026-03-22T01:53:14Z</time></trkpt><trkpt lat="25.011275635237173" lon="121.47817743313178"><ele>18.0</ele><time>2026-03-22T01:53:15Z</time></trkpt><trkpt lat="25.01118850807026" lon="121.47835467649818"><ele>16.0</ele><time>2026-03-22T01:53:16Z</time></trkpt><trkpt lat="25.01110153257504" lon="121.47853268314154"><ele>14.0</ele><time>2026-03-22T01:53:17Z</time></trkpt><trkpt lat="25.011016100804103" lon="121.47870817197618"><ele>13.666666666666668</ele><time>2026-03-22T01:53:18Z</time></trkpt><trkpt lat="25.01093178332565" lon="121.47888243648536"><ele>13.333333333333332</ele><time>2026-03-22T01:53:19Z</time></trkpt><trkpt lat="25.01084527002982" lon="121.47905407467093"><ele>13.0</ele><time>2026-03-22T01:53:20Z</time></trkpt><trkpt lat="25.010760744382896" lon="121.4792231871299"><ele>14.0</ele><time>2026-03-22T01:53:21Z</time></trkpt><trkpt lat="25.01067585430826" lon="121.47939177567264"><ele>15.0</ele><time>2026-03-22T01:53:22Z</time></trkpt><trkpt lat="25.010590486881828" lon="121.47955796479269"><ele>16.0</ele><time>2026-03-22T01:53:23Z</time></trkpt><trkpt lat="25.010506840775285" lon="121.47972317246202"><ele>16.0</ele><time>2026-03-22T01:53:24Z</time></trkpt><trkpt lat="25.010422831792155" lon="121.47988651335626"><ele>16.0</ele><time>2026-03-22T01:53:25Z</time></trkpt><trkpt lat="25.01034103318696" lon="121.48004891072607"><ele>16.0</ele><time>2026-03-22T01:53:26Z</time></trkpt><trkpt lat="25.010258448528578" lon="121.48020760552944"><ele>16.0</ele><time>2026-03-22T01:53:27Z</time></trkpt><trkpt lat="25.010172264819637" lon="121.48036508386417"><ele>16.0</ele><time>2026-03-22T01:53:28Z</time></trkpt><trkpt lat="25.010081646189892" lon="121.48051958746818"><ele>16.0</ele><time>2026-03-22T01:53:29Z</time></trkpt><trkpt lat="25.009985246542975" lon="121.48067226062018"><ele>16.333333333333332</ele><time>2026-03-22T01:53:30Z</time></trkpt><trkpt lat="25.009884989886157" lon="121.48082423654284"><ele>16.666666666666668</ele><time>2026-03-22T01:53:31Z</time></trkpt><trkpt lat="25.0097760599083" lon="121.48097110356947"><ele>17.0</ele><time>2026-03-22T01:53:32Z</time></trkpt><trkpt lat="25.009665766895246" lon="121.48112327717551"><ele>16.333333333333336</ele><time>2026-03-22T01:53:33Z</time></trkpt><trkpt lat="25.00955305206345" lon="121.48127097229494"><ele>15.666666666666668</ele><time>2026-03-22T01:53:34Z</time></trkpt><trkpt lat="25.00943944214068" lon="121.48140910029174"><ele>15.0</ele><time>2026-03-22T01:53:35Z</time></trkpt><trkpt lat="25.009323352218203" lon="121.48154740456194"><ele>15.0</ele><time>2026-03-22T01:53:36Z</time></trkpt><trkpt lat="25.009206784252893" lon="121.48168332401215"><ele>15.0</ele><time>2026-03-22T01:53:37Z</time></trkpt><trkpt lat="25.00908620124173" lon="121.48181008575224"><ele>15.0</ele><time>2026-03-22T01:53:38Z</time></trkpt><trkpt lat="25.008964728298025" lon="121.48193232712795"><ele>14.333333333333332</ele><time>2026-03-22T01:53:39Z</time></trkpt><trkpt lat="25.008841521198622" lon="121.48205049756477"><ele>13.666666666666666</ele><time>2026-03-22T01:53:40Z</time></trkpt><trkpt lat="25.008716682031544" lon="121.48216270438414"><ele>13.0</ele><time>2026-03-22T01:53:41Z</time></trkpt><trkpt lat="25.008590424296607" lon="121.4822736934458"><ele>12.333333333333332</ele><time>2026-03-22T01:53:42Z</time></trkpt><trkpt lat="25.008463971368993" lon="121.48237997108086"><ele>11.666666666666666</ele><time>2026-03-22T01:53:43Z</time></trkpt><trkpt lat="25.00833473768943" lon="121.48248448805515"><ele>11.0</ele><time>2026-03-22T01:53:44Z</time></trkpt><trkpt lat="25.008203987118478" lon="121.48259060035518"><ele>9.666666666666666</ele><time>2026-03-22T01:53:45Z</time></trkpt><trkpt lat="25.008071833691396" lon="121.48269460967022"><ele>8.333333333333334</ele><time>2026-03-22T01:53:46Z</time></trkpt><trkpt lat="25.007940668284412" lon="121.48279548486539"><ele>7.0</ele><time>2026-03-22T01:53:47Z</time></trkpt><trkpt lat="25.00781040623767" lon="121.48289192114325"><ele>7.333333333333334</ele><time>2026-03-22T01:53:48Z</time></trkpt><trkpt lat="25.00767936918938" lon="121.48298592615463"><ele>7.666666666666666</ele><time>2026-03-22T01:53:49Z</time></trkpt><trkpt lat="25.00754458929818" lon="121.48307911378342"><ele>8.0</ele><time>2026-03-22T01:53:50Z</time></trkpt><trkpt lat="25.00740700566915" lon="121.48317234799525"><ele>8.666666666666666</ele><time>2026-03-22T01:53:51Z</time></trkpt><trkpt lat="25.00726617007933" lon="121.48326294059851"><ele>9.333333333333334</ele><time>2026-03-22T01:53:52Z</time></trkpt><trkpt lat="25.007125263810384" lon="121.48335161042996"><ele>10.0</ele><time>2026-03-22T01:53:53Z</time></trkpt><trkpt lat="25.006987759879344" lon="121.48343660226146"><ele>10.0</ele><time>2026-03-22T01:53:54Z</time></trkpt><trkpt lat="25.00685018911622" lon="121.48351813455193"><ele>10.0</ele><time>2026-03-22T01:53:55.001Z</time></trkpt><trkpt lat="25.006711774240518" lon="121.48359620134633"><ele>10.0</ele><time>2026-03-22T01:53:56.001Z</time></trkpt><trkpt lat="25.006572070171597" lon="121.48367000775488"><ele>11.666666666666668</ele><time>2026-03-22T01:53:57.001Z</time></trkpt><trkpt lat="25.006427524742936" lon="121.48374009009896"><ele>13.333333333333334</ele><time>2026-03-22T01:53:58.001Z</time></trkpt><trkpt lat="25.006279714461876" lon="121.4838024204251"><ele>15.0</ele><time>2026-03-22T01:53:59.001Z</time></trkpt><trkpt lat="25.006132895439787" lon="121.48385582145112"><ele>15.0</ele><time>2026-03-22T01:54:00.001Z</time></trkpt><trkpt lat="25.00598656521243" lon="121.48390011579133"><ele>15.0</ele><time>2026-03-22T01:54:01.001Z</time></trkpt><trkpt lat="25.00584119621301" lon="121.48393651731365"><ele>15.0</ele><time>2026-03-22T01:54:02.001Z</time></trkpt><trkpt lat="25.005697710319247" lon="121.48397341981651"><ele>15.0</ele><time>2026-03-22T01:54:03.001Z</time></trkpt><trkpt lat="25.00555660998006" lon="121.48401013017418"><ele>15.25</ele><time>2026-03-22T01:54:04.001Z</time></trkpt><trkpt lat="25.00541715191217" lon="121.48404767784075"><ele>15.5</ele><time>2026-03-22T01:54:05.001Z</time></trkpt><trkpt lat="25.005281859513566" lon="121.48408517731556"><ele>15.75</ele><time>2026-03-22T01:54:06.001Z</time></trkpt><trkpt lat="25.005150830957515" lon="121.48412627680487"><ele>16.0</ele><time>2026-03-22T01:54:07.001Z</time></trkpt><trkpt lat="25.005019688013242" lon="121.48417156946068"><ele>17.0</ele><time>2026-03-22T01:54:08.001Z</time></trkpt><trkpt lat="25.004892598991717" lon="121.48421998688268"><ele>18.0</ele><time>2026-03-22T01:54:09.001Z</time></trkpt><trkpt lat="25.004770234244415" lon="121.48426751837414"><ele>19.0</ele><time>2026-03-22T01:54:10.001Z</time></trkpt><trkpt lat="25.004660927721396" lon="121.48430916386349"><ele>20.0</ele><time>2026-03-22T01:54:11.001Z</time></trkpt><trkpt lat="25.004562050932705" lon="121.48434432888119"><ele>20.0</ele><time>2026-03-22T01:54:12.001Z</time></trkpt><trkpt lat="25.00447445658282" lon="121.4843725678207"><ele>20.0</ele><time>2026-03-22T01:54:13.001Z</time></trkpt><trkpt lat="25.00439608404518" lon="121.4843943439048"><ele>20.0</ele><time>2026-03-22T01:54:14.001Z</time></trkpt><trkpt lat="25.0043256610351" lon="121.48441214785126"><ele>20.0</ele><time>2026-03-22T01:54:15.001Z</time></trkpt><trkpt lat="25.00426389233811" lon="121.48442788922053"><ele>20.0</ele><time>2026-03-22T01:54:16.001Z</time></trkpt><trkpt lat="25.004159409119406" lon="121.48445112866281"><ele>20.0</ele><time>2026-03-22T01:54:18.001Z</time></trkpt><trkpt lat="25.004061740095388" lon="121.48447336140472"><ele>19.4</ele><time>2026-03-22T01:54:20.001Z</time></trkpt><trkpt lat="25.003965242001506" lon="121.48449341359478"><ele>18.8</ele><time>2026-03-22T01:54:22.001Z</time></trkpt><trkpt lat="25.003874042360493" lon="121.48451221065122"><ele>18.2</ele><time>2026-03-22T01:54:24.001Z</time></trkpt><trkpt lat="25.003778967050145" lon="121.4845306161344"><ele>17.6</ele><time>2026-03-22T01:54:26.001Z</time></trkpt><trkpt lat="25.003680402902013" lon="121.48454921796761"><ele>17.0</ele><time>2026-03-22T01:54:28.001Z</time></trkpt><trkpt lat="25.00358358211232" lon="121.48456822799137"><ele>17.0</ele><time>2026-03-22T01:54:30.001Z</time></trkpt><trkpt lat="25.003499924602746" lon="121.48458300205067"><ele>17.0</ele><time>2026-03-22T01:54:32.001Z</time></trkpt><trkpt lat="25.003437038680005" lon="121.48459454518873"><ele>17.0</ele><time>2026-03-22T01:54:34.001Z</time></trkpt><trkpt lat="25.003346148867916" lon="121.48461082239041"><ele>17.0</ele><time>2026-03-22T01:54:37.001Z</time></trkpt><trkpt lat="25.00325883648787" lon="121.48462642136438"><ele>17.0</ele><time>2026-03-22T01:54:40.001Z</time></trkpt><trkpt lat="25.003172922017754" lon="121.48464107921978"><ele>17.0</ele><time>2026-03-22T01:54:43.001Z</time></trkpt><trkpt lat="25.003108079334226" lon="121.4846519054658"><ele>17.2</ele><time>2026-03-22T01:54:45.001Z</time></trkpt><trkpt lat="25.003033406047088" lon="121.48466337246894"><ele>17.4</ele><time>2026-03-22T01:54:47.001Z</time></trkpt><trkpt lat="25.002941604067434" lon="121.48467682752465"><ele>17.6</ele><time>2026-03-22T01:54:49.001Z</time></trkpt><trkpt lat="25.002837295784264" lon="121.4846916281121"><ele>17.8</ele><time>2026-03-22T01:54:51.001Z</time></trkpt><trkpt lat="25.00272542814579" lon="121.48470733235385"><ele>18.0</ele><time>2026-03-22T01:54:53.001Z</time></trkpt><trkpt lat="25.002601461207682" lon="121.48472391122597"><ele>19.4</ele><time>2026-03-22T01:54:55.001Z</time></trkpt><trkpt lat="25.002481211698576" lon="121.48473702603198"><ele>20.8</ele><time>2026-03-22T01:54:57.001Z</time></trkpt><trkpt lat="25.00237253673427" lon="121.484747937598"><ele>22.2</ele><time>2026-03-22T01:54:59.001Z</time></trkpt><trkpt lat="25.002273249505265" lon="121.48475684120115"><ele>23.6</ele><time>2026-03-22T01:55:01.001Z</time></trkpt><trkpt lat="25.002182130450578" lon="121.48476518188207"><ele>25.0</ele><time>2026-03-22T01:55:03.001Z</time></trkpt><trkpt lat="25.00210535977694" lon="121.48477259290635"><ele>25.000000000000004</ele><time>2026-03-22T01:55:05.001Z</time></trkpt><trkpt lat="25.00203050396503" lon="121.48477677690903"><ele>25.0</ele><time>2026-03-22T01:55:07.001Z</time></trkpt><trkpt lat="25.001956323581577" lon="121.48477946301377"><ele>25.0</ele><time>2026-03-22T01:55:09.001Z</time></trkpt><trkpt lat="25.001884599762523" lon="121.48478155568074"><ele>25.0</ele><time>2026-03-22T01:55:11.001Z</time></trkpt><trkpt lat="25.001797704995074" lon="121.48478353717961"><ele>25.000000000000004</ele><time>2026-03-22T01:55:14.001Z</time></trkpt><trkpt lat="25.001726902064334" lon="121.48478093216251"><ele>25.0</ele><time>2026-03-22T01:55:17Z</time></trkpt><trkpt lat="25.001655735110074" lon="121.48478372042898"><ele>26.666666666666668</ele><time>2026-03-22T01:55:20Z</time></trkpt><trkpt lat="25.00158894559541" lon="121.48478673369857"><ele>28.333333333333336</ele><time>2026-03-22T01:55:23Z</time></trkpt><trkpt lat="25.001516899551664" lon="121.4847897870621"><ele>30.0</ele><time>2026-03-22T01:55:25Z</time></trkpt><trkpt lat="25.00143385162489" lon="121.48479490320328"><ele>31.666666666666664</ele><time>2026-03-22T01:55:27Z</time></trkpt><trkpt lat="25.0013359404839" lon="121.48480636935575"><ele>33.33333333333333</ele><time>2026-03-22T01:55:29Z</time></trkpt><trkpt lat="25.001227022196417" lon="121.48481562619189"><ele>35.0</ele><time>2026-03-22T01:55:31Z</time></trkpt><trkpt lat="25.001114270519388" lon="121.48482624236537"><ele>35.0</ele><time>2026-03-22T01:55:33Z</time></trkpt><trkpt lat="25.001011997492466" lon="121.48483344038215"><ele>35.0</ele><time>2026-03-22T01:55:35Z</time></trkpt><trkpt lat="25.000913653888496" lon="121.48484110242471"><ele>35.0</ele><time>2026-03-22T01:55:37Z</time></trkpt><trkpt lat="25.00082071508005" lon="121.48485228699522"><ele>35.0</ele><time>2026-03-22T01:55:39Z</time></trkpt><trkpt lat="25.000729872480072" lon="121.48485669320112"><ele>35.0</ele><time>2026-03-22T01:55:41Z</time></trkpt><trkpt lat="25.00064283470167" lon="121.48486484202996"><ele>35.57142857142857</ele><time>2026-03-22T01:55:43.001Z</time></trkpt><trkpt lat="25.000569167202944" lon="121.48487011556858"><ele>36.14285714285714</ele><time>2026-03-22T01:55:45.001Z</time></trkpt><trkpt lat="25.000488584306428" lon="121.48487458019547"><ele>36.714285714285715</ele><time>2026-03-22T01:55:48.001Z</time></trkpt><trkpt lat="25.00041466855438" lon="121.48488243273046"><ele>37.285714285714285</ele><time>2026-03-22T01:55:51.001Z</time></trkpt><trkpt lat="25.000344222709142" lon="121.4848864984586"><ele>37.857142857142854</ele><time>2026-03-22T01:55:54.001Z</time></trkpt><trkpt lat="25.00027855091816" lon="121.4848901068689"><ele>38.42857142857143</ele><time>2026-03-22T01:55:58.001Z</time></trkpt><trkpt lat="25.00021531115429" lon="121.48489476167148"><ele>39.0</ele><time>2026-03-22T01:56:03.001Z</time></trkpt><trkpt lat="25.000134200476037" lon="121.48489927979055"><ele>39.0</ele><time>2026-03-22T01:56:09.001Z</time></trkpt><trkpt lat="25.00005612577002" lon="121.48490469413451"><ele>39.0</ele><time>2026-03-22T01:56:12.001Z</time></trkpt><trkpt lat="24.99998477815521" lon="121.48490816167153"><ele>39.0</ele><time>2026-03-22T01:56:15.001Z</time></trkpt><trkpt lat="24.999912151811927" lon="121.4849127719845"><ele>39.0</ele><time>2026-03-22T01:56:19.001Z</time></trkpt><trkpt lat="24.999840543193013" lon="121.48491433579062"><ele>39.0</ele><time>2026-03-22T01:56:24.001Z</time></trkpt><trkpt lat="24.999774614576474" lon="121.48492199799699"><ele>39.0</ele><time>2026-03-22T01:56:27.001Z</time></trkpt><trkpt lat="24.99970722829035" lon="121.48492657336922"><ele>39.0</ele><time>2026-03-22T01:56:30.001Z</time></trkpt><trkpt lat="24.999644480287234" lon="121.48493274781582"><ele>39.0</ele><time>2026-03-22T01:56:35.001Z</time></trkpt><trkpt lat="24.999581279487096" lon="121.48495321662068"><ele>39.0</ele><time>2026-03-22T01:56:59.001Z</time></trkpt><trkpt lat="24.999503194956155" lon="121.48494821215587"><ele>39.0</ele><time>2026-03-22T01:57:02.001Z</time></trkpt><trkpt lat="24.99940011037737" lon="121.4849329802236"><ele>39.0</ele><time>2026-03-22T01:57:05.001Z</time></trkpt><trkpt lat="24.99929325151125" lon="121.48493913197919"><ele>39.0</ele><time>2026-03-22T01:57:07.001Z</time></trkpt><trkpt lat="24.99919463126598" lon="121.48492815396182"><ele>36.2</ele><time>2026-03-22T01:57:09.001Z</time></trkpt><trkpt lat="24.999081718839506" lon="121.48494197910651"><ele>33.4</ele><time>2026-03-22T01:57:11.001Z</time></trkpt><trkpt lat="24.998971425261317" lon="121.48495272558532"><ele>30.6</ele><time>2026-03-22T01:57:13.001Z</time></trkpt><trkpt lat="24.998865019277435" lon="121.48496183360602"><ele>27.8</ele><time>2026-03-22T01:57:15.001Z</time></trkpt><trkpt lat="24.998748697694072" lon="121.48496971291117"><ele>25.0</ele><time>2026-03-22T01:57:17.001Z</time></trkpt><trkpt lat="24.99861570359297" lon="121.48498014306392"><ele>25.000000000000004</ele><time>2026-03-22T01:57:19.001Z</time></trkpt><trkpt lat="24.99852586237144" lon="121.48499944328583"><ele>25.0</ele><time>2026-03-22T01:57:21.001Z</time></trkpt><trkpt lat="24.99844183326366" lon="121.48501028340621"><ele>25.0</ele><time>2026-03-22T01:57:23.001Z</time></trkpt><trkpt lat="24.998357113621232" lon="121.4850165701981"><ele>25.0</ele><time>2026-03-22T01:57:25.001Z</time></trkpt><trkpt lat="24.99826588983695" lon="121.48503054058091"><ele>25.000000000000004</ele><time>2026-03-22T01:57:27.001Z</time></trkpt><trkpt lat="24.998189909121734" lon="121.48503089877657"><ele>25.0</ele><time>2026-03-22T01:57:29.001Z</time></trkpt><trkpt lat="24.998116209188762" lon="121.48503769044272"><ele>23.333333333333336</ele><time>2026-03-22T01:57:31.001Z</time></trkpt><trkpt lat="24.99805128969925" lon="121.48504309482716"><ele>21.666666666666668</ele><time>2026-03-22T01:57:33.001Z</time></trkpt><trkpt lat="24.99797236575229" lon="121.4850414615347"><ele>20.0</ele><time>2026-03-22T01:57:36.001Z</time></trkpt><trkpt lat="24.99790532243762" lon="121.48505573612339"><ele>18.333333333333336</ele><time>2026-03-22T01:57:39.001Z</time></trkpt><trkpt lat="24.997806307887387" lon="121.48506889092216"><ele>16.666666666666668</ele><time>2026-03-22T01:57:42.001Z</time></trkpt><trkpt lat="24.997721390472392" lon="121.48506895549772"><ele>15.0</ele><time>2026-03-22T01:57:44.001Z</time></trkpt><trkpt lat="24.99762758243974" lon="121.48508225663456"><ele>15.0</ele><time>2026-03-22T01:57:46.001Z</time></trkpt><trkpt lat="24.997522746272132" lon="121.48508371543265"><ele>15.0</ele><time>2026-03-22T01:57:48.001Z</time></trkpt><trkpt lat="24.997386853323096" lon="121.48510322560318"><ele>15.0</ele><time>2026-03-22T01:57:50.001Z</time></trkpt><trkpt lat="24.99731828611662" lon="121.48512156629984"><ele>15.0</ele><time>2026-03-22T01:57:51.001Z</time></trkpt><trkpt lat="24.99720649184969" lon="121.48511233151505"><ele>15.0</ele><time>2026-03-22T01:57:53.001Z</time></trkpt><trkpt lat="24.997126098633643" lon="121.48510912482524"><ele>14.833333333333334</ele><time>2026-03-22T01:57:54.001Z</time></trkpt><trkpt lat="24.99704759280854" lon="121.48511106509703"><ele>14.666666666666668</ele><time>2026-03-22T01:57:55.001Z</time></trkpt><trkpt lat="24.9969647120282" lon="121.48510854937341"><ele>14.5</ele><time>2026-03-22T01:57:56.001Z</time></trkpt><trkpt lat="24.996874655758816" lon="121.48512607496055"><ele>14.333333333333334</ele><time>2026-03-22T01:57:57.001Z</time></trkpt><trkpt lat="24.996783773219708" lon="121.48513111230533"><ele>14.166666666666668</ele><time>2026-03-22T01:57:58.001Z</time></trkpt><trkpt lat="24.99668624989653" lon="121.48512591224399"><ele>14.0</ele><time>2026-03-22T01:57:59.001Z</time></trkpt><trkpt lat="24.99658358013077" lon="121.48513749238961"><ele>14.0</ele><time>2026-03-22T01:58:00.001Z</time></trkpt><trkpt lat="24.99649196945646" lon="121.48513931855992"><ele>13.999999999999998</ele><time>2026-03-22T01:58:01.001Z</time></trkpt><trkpt lat="24.996393037426202" lon="121.48514539449424"><ele>13.999999999999998</ele><time>2026-03-22T01:58:02.001Z</time></trkpt><trkpt lat="24.9962895724807" lon="121.48515527517971"><ele>14.0</ele><time>2026-03-22T01:58:03.001Z</time></trkpt><trkpt lat="24.996179610236336" lon="121.48516745133735"><ele>14.0</ele><time>2026-03-22T01:58:04.001Z</time></trkpt><trkpt lat="24.99606550500473" lon="121.48517368965797"><ele>14.0</ele><time>2026-03-22T01:58:05.001Z</time></trkpt><trkpt lat="24.995947574253584" lon="121.48518193320787"><ele>14.0</ele><time>2026-03-22T01:58:06.001Z</time></trkpt><trkpt lat="24.995830753940105" lon="121.4851975724227"><ele>14.0</ele><time>2026-03-22T01:58:07.001Z</time></trkpt><trkpt lat="24.995716479913877" lon="121.48521011739899"><ele>14.0</ele><time>2026-03-22T01:58:08.001Z</time></trkpt><trkpt lat="24.99560442185133" lon="121.48523001931146"><ele>14.5</ele><time>2026-03-22T01:58:09.001Z</time></trkpt><trkpt lat="24.995488766493285" lon="121.48525776642002"><ele>15.0</ele><time>2026-03-22T01:58:10.001Z</time></trkpt><trkpt lat="24.9953776008352" lon="121.4852885007011"><ele>15.5</ele><time>2026-03-22T01:58:11.001Z</time></trkpt><trkpt lat="24.99525822668736" lon="121.48532107641506"><ele>16.0</ele><time>2026-03-22T01:58:12.001Z</time></trkpt><trkpt lat="24.995149434864697" lon="121.48536932855762"><ele>16.0</ele><time>2026-03-22T01:58:13.001Z</time></trkpt><trkpt lat="24.995034020549934" lon="121.48541592098152"><ele>16.0</ele><time>2026-03-22T01:58:14.001Z</time></trkpt><trkpt lat="24.99492246328882" lon="121.48545007172977"><ele>16.0</ele><time>2026-03-22T01:58:15.001Z</time></trkpt><trkpt lat="24.994813820424117" lon="121.4855112185067"><ele>16.0</ele><time>2026-03-22T01:58:16.001Z</time></trkpt><trkpt lat="24.99470222387829" lon="121.48554414613261"><ele>15.8</ele><time>2026-03-22T01:58:17.001Z</time></trkpt><trkpt lat="24.99458041705231" lon="121.4855308174295"><ele>15.600000000000001</ele><time>2026-03-22T01:58:18.001Z</time></trkpt><trkpt lat="24.994465811166645" lon="121.48554755752261"><ele>15.4</ele><time>2026-03-22T01:58:19.001Z</time></trkpt><trkpt lat="24.99435793980556" lon="121.48555839073745"><ele>15.2</ele><time>2026-03-22T01:58:20.001Z</time></trkpt><trkpt lat="24.994256576183542" lon="121.48556156651216"><ele>15.0</ele><time>2026-03-22T01:58:21.001Z</time></trkpt><trkpt lat="24.994163496361605" lon="121.485565203634"><ele>15.0</ele><time>2026-03-22T01:58:22.001Z</time></trkpt><trkpt lat="24.99407263638739" lon="121.48556288212914"><ele>15.0</ele><time>2026-03-22T01:58:23.001Z</time></trkpt><trkpt lat="24.993985856195064" lon="121.48556420011131"><ele>15.0</ele><time>2026-03-22T01:58:24.001Z</time></trkpt><trkpt lat="24.99389928919817" lon="121.48556918787739"><ele>15.0</ele><time>2026-03-22T01:58:25.001Z</time></trkpt><trkpt lat="24.993815496814502" lon="121.48557193183798"><ele>15.0</ele><time>2026-03-22T01:58:26.001Z</time></trkpt><trkpt lat="24.99373564042285" lon="121.48557489981015"><ele>15.0</ele><time>2026-03-22T01:58:27.001Z</time></trkpt><trkpt lat="24.993656511188604" lon="121.48557551539602"><ele>15.0</ele><time>2026-03-22T01:58:28.001Z</time></trkpt><trkpt lat="24.993577415639905" lon="121.4855764844508"><ele>15.0</ele><time>2026-03-22T01:58:29.001Z</time></trkpt><trkpt lat="24.993499743525643" lon="121.48557607804462"><ele>15.0</ele><time>2026-03-22T01:58:30.001Z</time></trkpt><trkpt lat="24.993419766012877" lon="121.48557817146583"><ele>15.0</ele><time>2026-03-22T01:58:31.001Z</time></trkpt><trkpt lat="24.99334261803224" lon="121.48557902752347"><ele>15.0</ele><time>2026-03-22T01:58:32.001Z</time></trkpt><trkpt lat="24.993263639800762" lon="121.48558065712037"><ele>15.0</ele><time>2026-03-22T01:58:33.001Z</time></trkpt><trkpt lat="24.99318299252538" lon="121.48557964558762"><ele>14.166666666666666</ele><time>2026-03-22T01:58:34.001Z</time></trkpt><trkpt lat="24.993099934893475" lon="121.48557970210773"><ele>13.333333333333334</ele><time>2026-03-22T01:58:35.001Z</time></trkpt><trkpt lat="24.99301754559132" lon="121.48558031487573"><ele>12.5</ele><time>2026-03-22T01:58:36.001Z</time></trkpt><trkpt lat="24.992937597551467" lon="121.4855802026936"><ele>11.666666666666668</ele><time>2026-03-22T01:58:37.001Z</time></trkpt><trkpt lat="24.992860333366675" lon="121.48557989865795"><ele>10.833333333333334</ele><time>2026-03-22T01:58:38.001Z</time></trkpt><trkpt lat="24.99278635588608" lon="121.48557862032871"><ele>10.0</ele><time>2026-03-22T01:58:39.001Z</time></trkpt><trkpt lat="24.992716291202477" lon="121.48557795274125"><ele>10.0</ele><time>2026-03-22T01:58:40.001Z</time></trkpt><trkpt lat="24.992649655954757" lon="121.48557723697834"><ele>10.0</ele><time>2026-03-22T01:58:41.001Z</time></trkpt><trkpt lat="24.992586328865134" lon="121.48557584890861"><ele>10.0</ele><time>2026-03-22T01:58:42.001Z</time></trkpt><trkpt lat="24.992469422362134" lon="121.48557324166394"><ele>10.0</ele><time>2026-03-22T01:58:44.001Z</time></trkpt><trkpt lat="24.99236340745741" lon="121.48557058249781"><ele>10.0</ele><time>2026-03-22T01:58:46.001Z</time></trkpt><trkpt lat="24.992249722154273" lon="121.48556018495668"><ele>10.142857142857142</ele><time>2026-03-22T01:58:48.001Z</time></trkpt><trkpt lat="24.99218493590053" lon="121.48555018654324"><ele>10.285714285714286</ele><time>2026-03-22T01:58:49.001Z</time></trkpt><trkpt lat="24.992116516940527" lon="121.48553802477421"><ele>10.428571428571429</ele><time>2026-03-22T01:58:50.001Z</time></trkpt><trkpt lat="24.992044755681658" lon="121.48552019553897"><ele>10.571428571428571</ele><time>2026-03-22T01:58:51.001Z</time></trkpt><trkpt lat="24.991972042684168" lon="121.48549756355074"><ele>10.714285714285714</ele><time>2026-03-22T01:58:52.001Z</time></trkpt><trkpt lat="24.991902407898888" lon="121.48547102008854"><ele>10.857142857142858</ele><time>2026-03-22T01:58:53.001Z</time></trkpt><trkpt lat="24.991833034815905" lon="121.48544160752506"><ele>11.0</ele><time>2026-03-22T01:58:54.001Z</time></trkpt><trkpt lat="24.991764462367254" lon="121.48540836012823"><ele>11.0</ele><time>2026-03-22T01:58:55.001Z</time></trkpt><trkpt lat="24.99169867373875" lon="121.48537013509487"><ele>11.0</ele><time>2026-03-22T01:58:56.001Z</time></trkpt><trkpt lat="24.991638587080367" lon="121.48533081921953"><ele>11.0</ele><time>2026-03-22T01:58:57.001Z</time></trkpt><trkpt lat="24.99158269075322" lon="121.4852896902039"><ele>11.0</ele><time>2026-03-22T01:58:58.001Z</time></trkpt><trkpt lat="24.991529008615576" lon="121.48524601417797"><ele>11.0</ele><time>2026-03-22T01:58:59.001Z</time></trkpt><trkpt lat="24.99147884273714" lon="121.48519915897504"><ele>11.0</ele><time>2026-03-22T01:59:00.001Z</time></trkpt><trkpt lat="24.991429133066447" lon="121.4851492940897"><ele>11.0</ele><time>2026-03-22T01:59:01.001Z</time></trkpt><trkpt lat="24.9913824668898" lon="121.48509640998533"><ele>11.0</ele><time>2026-03-22T01:59:02.001Z</time></trkpt><trkpt lat="24.991336928243275" lon="121.4850412862539"><ele>11.0</ele><time>2026-03-22T01:59:03.001Z</time></trkpt><trkpt lat="24.991295247162324" lon="121.48498096683822"><ele>11.0</ele><time>2026-03-22T01:59:04.001Z</time></trkpt><trkpt lat="24.991255733357995" lon="121.48492160608586"><ele>11.0</ele><time>2026-03-22T01:59:05.001Z</time></trkpt><trkpt lat="24.99120149117452" lon="121.48487345518419"><ele>11.0</ele><time>2026-03-22T01:59:06.001Z</time></trkpt><trkpt lat="24.991186453498653" lon="121.48479772525052"><ele>11.0</ele><time>2026-03-22T01:59:07.001Z</time></trkpt><trkpt lat="24.99112976902629" lon="121.48467490442783"><ele>10.8</ele><time>2026-03-22T01:59:09.001Z</time></trkpt><trkpt lat="24.991081934874696" lon="121.48455311554578"><ele>10.600000000000001</ele><time>2026-03-22T01:59:11.001Z</time></trkpt><trkpt lat="24.99103328225077" lon="121.48443250892875"><ele>10.4</ele><time>2026-03-22T01:59:13.001Z</time></trkpt><trkpt lat="24.990991304697648" lon="121.48432473711367"><ele>10.2</ele><time>2026-03-22T01:59:15.001Z</time></trkpt><trkpt lat="24.990964581191676" lon="121.48425168928524"><ele>10.0</ele><time>2026-03-22T01:59:17.001Z</time></trkpt><trkpt lat="24.990934181074927" lon="121.4841691875759"><ele>10.0</ele><time>2026-03-22T01:59:20.001Z</time></trkpt><trkpt lat="24.99089530008107" lon="121.48406508905649"><ele>10.0</ele><time>2026-03-22T01:59:23.001Z</time></trkpt><trkpt lat="24.990857513704626" lon="121.48396385001321"><ele>10.0</ele><time>2026-03-22T01:59:25.001Z</time></trkpt><trkpt lat="24.990819483948755" lon="121.48385977854056"><ele>10.0</ele><time>2026-03-22T01:59:27.001Z</time></trkpt><trkpt lat="24.990772701015544" lon="121.48373598439728"><ele>10.0</ele><time>2026-03-22T01:59:29Z</time></trkpt><trkpt lat="24.990744176294587" lon="121.48366338691552"><ele>10.166666666666668</ele><time>2026-03-22T01:59:30Z</time></trkpt><trkpt lat="24.99071130017744" lon="121.48358492931841"><ele>10.333333333333334</ele><time>2026-03-22T01:59:31Z</time></trkpt><trkpt lat="24.990674683605754" lon="121.4835043451144"><ele>10.5</ele><time>2026-03-22T01:59:32Z</time></trkpt><trkpt lat="24.990634373259024" lon="121.48341967707219"><ele>10.666666666666666</ele><time>2026-03-22T01:59:33Z</time></trkpt><trkpt lat="24.990591399064005" lon="121.48333344653291"><ele>10.833333333333332</ele><time>2026-03-22T01:59:34Z</time></trkpt><trkpt lat="24.990546610969286" lon="121.48324879697863"><ele>11.0</ele><time>2026-03-22T01:59:35Z</time></trkpt><trkpt lat="24.990501400534253" lon="121.48316620331302"><ele>11.0</ele><time>2026-03-22T01:59:36Z</time></trkpt><trkpt lat="24.99045381357259" lon="121.4830836731729"><ele>11.0</ele><time>2026-03-22T01:59:37Z</time></trkpt><trkpt lat="24.990403977054438" lon="121.48299956239336"><ele>11.0</ele><time>2026-03-22T01:59:38Z</time></trkpt><trkpt lat="24.99035262359251" lon="121.48291646962598"><ele>11.0</ele><time>2026-03-22T01:59:39Z</time></trkpt><trkpt lat="24.99030117361973" lon="121.48283665324625"><ele>11.0</ele><time>2026-03-22T01:59:40Z</time></trkpt><trkpt lat="24.99024891750969" lon="121.482756596892"><ele>11.0</ele><time>2026-03-22T01:59:41Z</time></trkpt><trkpt lat="24.990194092729684" lon="121.48267504767928"><ele>11.0</ele><time>2026-03-22T01:59:42Z</time></trkpt><trkpt lat="24.990137873496394" lon="121.48259160938991"><ele>11.0</ele><time>2026-03-22T01:59:43Z</time></trkpt><trkpt lat="24.99008228257033" lon="121.48250880107788"><ele>11.0</ele><time>2026-03-22T01:59:44Z</time></trkpt><trkpt lat="24.99002655176247" lon="121.4824279639097"><ele>11.0</ele><time>2026-03-22T01:59:45Z</time></trkpt><trkpt lat="24.989973427488835" lon="121.48234947501231"><ele>11.0</ele><time>2026-03-22T01:59:46Z</time></trkpt><trkpt lat="24.98992145879867" lon="121.48227238237878"><ele>11.833333333333332</ele><time>2026-03-22T01:59:47Z</time></trkpt><trkpt lat="24.9898715782049" lon="121.4821974584091"><ele>12.666666666666666</ele><time>2026-03-22T01:59:48Z</time></trkpt><trkpt lat="24.989823680357517" lon="121.48212488030161"><ele>13.5</ele><time>2026-03-22T01:59:49Z</time></trkpt><trkpt lat="24.989777297539046" lon="121.48205397490716"><ele>14.333333333333332</ele><time>2026-03-22T01:59:50Z</time></trkpt><trkpt lat="24.989732817429314" lon="121.48198567796639"><ele>15.166666666666666</ele><time>2026-03-22T01:59:51Z</time></trkpt><trkpt lat="24.989689645966582" lon="121.48191781030724"><ele>16.0</ele><time>2026-03-22T01:59:52Z</time></trkpt><trkpt lat="24.989649338209972" lon="121.48185326657148"><ele>15.999999999999998</ele><time>2026-03-22T01:59:53Z</time></trkpt><trkpt lat="24.98961123026812" lon="121.48179117401989"><ele>16.0</ele><time>2026-03-22T01:59:54Z</time></trkpt><trkpt lat="24.989575810672065" lon="121.48173153188955"><ele>16.0</ele><time>2026-03-22T01:59:55Z</time></trkpt><trkpt lat="24.989507680320074" lon="121.48161188162022"><ele>16.0</ele><time>2026-03-22T01:59:57Z</time></trkpt><trkpt lat="24.989471308439228" lon="121.48154633461535"><ele>15.999999999999998</ele><time>2026-03-22T01:59:58Z</time></trkpt><trkpt lat="24.989431962034278" lon="121.48147420248867"><ele>16.0</ele><time>2026-03-22T01:59:59Z</time></trkpt><trkpt lat="24.98939072554716" lon="121.48139576488876"><ele>16.0</ele><time>2026-03-22T02:00:00Z</time></trkpt><trkpt lat="24.98934770002706" lon="121.48131024302138"><ele>16.0</ele><time>2026-03-22T02:00:01Z</time></trkpt><trkpt lat="24.98930332853178" lon="121.48121849273907"><ele>16.0</ele><time>2026-03-22T02:00:02Z</time></trkpt><trkpt lat="24.98925860151957" lon="121.48112231205087"><ele>16.0</ele><time>2026-03-22T02:00:03Z</time></trkpt><trkpt lat="24.98921688743718" lon="121.48102711341971"><ele>16.0</ele><time>2026-03-22T02:00:04Z</time></trkpt><trkpt lat="24.989177089358478" lon="121.48093071674137"><ele>18.6</ele><time>2026-03-22T02:00:05Z</time></trkpt><trkpt lat="24.98913630680594" lon="121.48082845217793"><ele>21.200000000000003</ele><time>2026-03-22T02:00:06Z</time></trkpt><trkpt lat="24.989094267659564" lon="121.48071996477543"><ele>23.799999999999997</ele><time>2026-03-22T02:00:07.001Z</time></trkpt><trkpt lat="24.989049494983465" lon="121.48060574446684"><ele>26.4</ele><time>2026-03-22T02:00:08.001Z</time></trkpt><trkpt lat="24.9890040808165" lon="121.48048565630843"><ele>29.0</ele><time>2026-03-22T02:00:09.001Z</time></trkpt><trkpt lat="24.9889569360222" lon="121.48035916611357"><ele>33.0</ele><time>2026-03-22T02:00:10.001Z</time></trkpt><trkpt lat="24.988908048604216" lon="121.4802287370067"><ele>37.0</ele><time>2026-03-22T02:00:11.001Z</time></trkpt><trkpt lat="24.9888556593827" lon="121.48009148921906"><ele>41.0</ele><time>2026-03-22T02:00:12.001Z</time></trkpt><trkpt lat="24.988801715376376" lon="121.47995229849795"><ele>45.0</ele><time>2026-03-22T02:00:13.001Z</time></trkpt><trkpt lat="24.988747780591666" lon="121.47981690489644"><ele>45.0</ele><time>2026-03-22T02:00:14.001Z</time></trkpt><trkpt lat="24.988692341120824" lon="121.47967976164176"><ele>45.0</ele><time>2026-03-22T02:00:15.001Z</time></trkpt><trkpt lat="24.988633403417115" lon="121.47953794194231"><ele>45.0</ele><time>2026-03-22T02:00:16.001Z</time></trkpt><trkpt lat="24.988570988612953" lon="121.47939387164536"><ele>45.0</ele><time>2026-03-22T02:00:17.001Z</time></trkpt><trkpt lat="24.988504445582695" lon="121.47924701417968"><ele>45.666666666666664</ele><time>2026-03-22T02:00:18.001Z</time></trkpt><trkpt lat="24.988434188269615" lon="121.47909766663754"><ele>46.33333333333333</ele><time>2026-03-22T02:00:19.001Z</time></trkpt><trkpt lat="24.988360223920903" lon="121.47894598156942"><ele>47.0</ele><time>2026-03-22T02:00:20.001Z</time></trkpt><trkpt lat="24.988283127665692" lon="121.47879194146648"><ele>44.0</ele><time>2026-03-22T02:00:21.001Z</time></trkpt><trkpt lat="24.988201676826" lon="121.4786356766134"><ele>41.0</ele><time>2026-03-22T02:00:22.001Z</time></trkpt><trkpt lat="24.988112246199123" lon="121.47847850704625"><ele>38.0</ele><time>2026-03-22T02:00:23.001Z</time></trkpt><trkpt lat="24.9880226993406" lon="121.47831863932565"><ele>38.0</ele><time>2026-03-22T02:00:24.001Z</time></trkpt><trkpt lat="24.987928096209917" lon="121.47815884145314"><ele>38.0</ele><time>2026-03-22T02:00:25.001Z</time></trkpt><trkpt lat="24.98783553745505" lon="121.47799620068116"><ele>38.0</ele><time>2026-03-22T02:00:26.001Z</time></trkpt><trkpt lat="24.987722694680063" lon="121.47784809487338"><ele>37.0</ele><time>2026-03-22T02:00:27.001Z</time></trkpt><trkpt lat="24.987623759529892" lon="121.47769455774514"><ele>36.0</ele><time>2026-03-22T02:00:28.001Z</time></trkpt><trkpt lat="24.987523559708414" lon="121.47754464873587"><ele>35.0</ele><time>2026-03-22T02:00:29.001Z</time></trkpt><trkpt lat="24.98741802921395" lon="121.47738984318676"><ele>34.666666666666664</ele><time>2026-03-22T02:00:30.001Z</time></trkpt><trkpt lat="24.987311314381383" lon="121.47723455067005"><ele>34.333333333333336</ele><time>2026-03-22T02:00:31.001Z</time></trkpt><trkpt lat="24.987199939637748" lon="121.47707897205633"><ele>34.0</ele><time>2026-03-22T02:00:32.001Z</time></trkpt><trkpt lat="24.987088114993224" lon="121.47692448716661"><ele>30.666666666666668</ele><time>2026-03-22T02:00:33.001Z</time></trkpt><trkpt lat="24.98697459049779" lon="121.4767725701215"><ele>27.333333333333336</ele><time>2026-03-22T02:00:34.001Z</time></trkpt><trkpt lat="24.986856742260922" lon="121.4766142345846"><ele>24.0</ele><time>2026-03-22T02:00:35.001Z</time></trkpt><trkpt lat="24.986742619436402" lon="121.47646449791635"><ele>25.333333333333336</ele><time>2026-03-22T02:00:36.001Z</time></trkpt><trkpt lat="24.98661376457883" lon="121.47630058869962"><ele>26.666666666666668</ele><time>2026-03-22T02:00:37.001Z</time></trkpt><trkpt lat="24.986487483486044" lon="121.47613986308237"><ele>28.0</ele><time>2026-03-22T02:00:38.001Z</time></trkpt><trkpt lat="24.98635769989702" lon="121.47597555656756"><ele>28.0</ele><time>2026-03-22T02:00:39.001Z</time></trkpt><trkpt lat="24.986223623473386" lon="121.47581049524482"><ele>28.0</ele><time>2026-03-22T02:00:40.001Z</time></trkpt><trkpt lat="24.98609610454355" lon="121.4756522453937"><ele>28.0</ele><time>2026-03-22T02:00:41.001Z</time></trkpt><trkpt lat="24.98596443384004" lon="121.47549313443581"><ele>32.0</ele><time>2026-03-22T02:00:42.001Z</time></trkpt><trkpt lat="24.985830582560578" lon="121.47532854900523"><ele>36.0</ele><time>2026-03-22T02:00:43.001Z</time></trkpt><trkpt lat="24.985693608594012" lon="121.47515960758145"><ele>40.0</ele><time>2026-03-22T02:00:44.001Z</time></trkpt><trkpt lat="24.9855536520658" lon="121.47498860775647"><ele>40.0</ele><time>2026-03-22T02:00:45.001Z</time></trkpt><trkpt lat="24.98541599766963" lon="121.47482040636218"><ele>40.0</ele><time>2026-03-22T02:00:46.001Z</time></trkpt><trkpt lat="24.985284515115445" lon="121.47463523710962"><ele>40.0</ele><time>2026-03-22T02:00:47.001Z</time></trkpt><trkpt lat="24.98513664675801" lon="121.47446422264402"><ele>39.0</ele><time>2026-03-22T02:00:48.001Z</time></trkpt><trkpt lat="24.98499167179005" lon="121.47429490426104"><ele>38.0</ele><time>2026-03-22T02:00:49.001Z</time></trkpt><trkpt lat="24.98484128178066" lon="121.47412377696558"><ele>37.0</ele><time>2026-03-22T02:00:50.001Z</time></trkpt><trkpt lat="24.984697580261063" lon="121.47394317858524"><ele>32.0</ele><time>2026-03-22T02:00:51.001Z</time></trkpt><trkpt lat="24.984552094046897" lon="121.47376563699358"><ele>27.0</ele><time>2026-03-22T02:00:52.001Z</time></trkpt><trkpt lat="24.984405061067466" lon="121.47359891391591"><ele>22.0</ele><time>2026-03-22T02:00:53.001Z</time></trkpt><trkpt lat="24.984262604288812" lon="121.47342134544263"><ele>22.333333333333332</ele><time>2026-03-22T02:00:54.001Z</time></trkpt><trkpt lat="24.984112988075033" lon="121.47324787767293"><ele>22.666666666666668</ele><time>2026-03-22T02:00:55.001Z</time></trkpt><trkpt lat="24.9839654887798" lon="121.47306825439493"><ele>23.0</ele><time>2026-03-22T02:00:56.001Z</time></trkpt><trkpt lat="24.983820556564588" lon="121.47289186300708"><ele>23.0</ele><time>2026-03-22T02:00:57.001Z</time></trkpt><trkpt lat="24.98367409409194" lon="121.47271865437924"><ele>23.0</ele><time>2026-03-22T02:00:58.001Z</time></trkpt><trkpt lat="24.983523156950135" lon="121.47253987719552"><ele>23.0</ele><time>2026-03-22T02:00:59.001Z</time></trkpt><trkpt lat="24.983375421261456" lon="121.47235887103231"><ele>26.666666666666668</ele><time>2026-03-22T02:01:00.001Z</time></trkpt><trkpt lat="24.983228675089762" lon="121.47217331063467"><ele>30.333333333333336</ele><time>2026-03-22T02:01:01.001Z</time></trkpt><trkpt lat="24.983080039795123" lon="121.47199026202537"><ele>34.0</ele><time>2026-03-22T02:01:02.001Z</time></trkpt><trkpt lat="24.98292943024411" lon="121.47180409786492"><ele>34.0</ele><time>2026-03-22T02:01:03.001Z</time></trkpt><trkpt lat="24.982776149461046" lon="121.47161814121013"><ele>34.0</ele><time>2026-03-22T02:01:04.001Z</time></trkpt><trkpt lat="24.982623463635257" lon="121.47142971349724"><ele>34.5</ele><time>2026-03-22T02:01:05.001Z</time></trkpt><trkpt lat="24.98247243072377" lon="121.47124389752271"><ele>35.0</ele><time>2026-03-22T02:01:06.001Z</time></trkpt><trkpt lat="24.98232131952753" lon="121.47105865631126"><ele>35.0</ele><time>2026-03-22T02:01:07.001Z</time></trkpt><trkpt lat="24.982172294010493" lon="121.47086857676852"><ele>35.0</ele><time>2026-03-22T02:01:08.001Z</time></trkpt><trkpt lat="24.982020784384197" lon="121.47068111267934"><ele>35.0</ele><time>2026-03-22T02:01:09.001Z</time></trkpt><trkpt lat="24.981861386486315" lon="121.47049470915393"><ele>35.0</ele><time>2026-03-22T02:01:10.001Z</time></trkpt><trkpt lat="24.9817047015961" lon="121.47030421802789"><ele>34.5</ele><time>2026-03-22T02:01:11.001Z</time></trkpt><trkpt lat="24.981549360438876" lon="121.47011479579898"><ele>34.0</ele><time>2026-03-22T02:01:12.001Z</time></trkpt><trkpt lat="24.981390454915903" lon="121.4699161647048"><ele>34.0</ele><time>2026-03-22T02:01:13.001Z</time></trkpt><trkpt lat="24.981229804763412" lon="121.46972273801364"><ele>34.0</ele><time>2026-03-22T02:01:14.001Z</time></trkpt><trkpt lat="24.98107631055643" lon="121.4695277558672"><ele>31.0</ele><time>2026-03-22T02:01:15.001Z</time></trkpt><trkpt lat="24.98092052020464" lon="121.46933951592054"><ele>28.0</ele><time>2026-03-22T02:01:16.001Z</time></trkpt><trkpt lat="24.98076458137192" lon="121.46914629281592"><ele>28.0</ele><time>2026-03-22T02:01:17.001Z</time></trkpt><trkpt lat="24.980606383119277" lon="121.4689522736403"><ele>28.0</ele><time>2026-03-22T02:01:18.001Z</time></trkpt><trkpt lat="24.98044588135833" lon="121.4687568952222"><ele>26.0</ele><time>2026-03-22T02:01:19.001Z</time></trkpt><trkpt lat="24.98028368393118" lon="121.46856001151912"><ele>24.0</ele><time>2026-03-22T02:01:20.001Z</time></trkpt><trkpt lat="24.980126276974847" lon="121.46836629384754"><ele>23.0</ele><time>2026-03-22T02:01:21.001Z</time></trkpt><trkpt lat="24.979969213652712" lon="121.46817191922328"><ele>22.0</ele><time>2026-03-22T02:01:22.001Z</time></trkpt><trkpt lat="24.979809935417418" lon="121.46797854464396"><ele>24.5</ele><time>2026-03-22T02:01:23.001Z</time></trkpt><trkpt lat="24.979652431633767" lon="121.46778486620045"><ele>27.0</ele><time>2026-03-22T02:01:24.001Z</time></trkpt><trkpt lat="24.979494937121164" lon="121.46759406387417"><ele>27.0</ele><time>2026-03-22T02:01:25.001Z</time></trkpt><trkpt lat="24.97933790645879" lon="121.46740319541075"><ele>27.0</ele><time>2026-03-22T02:01:26.001Z</time></trkpt><trkpt lat="24.97917979293056" lon="121.46720977052121"><ele>27.5</ele><time>2026-03-22T02:01:27.001Z</time></trkpt><trkpt lat="24.979020561399686" lon="121.467015361971"><ele>28.0</ele><time>2026-03-22T02:01:28.001Z</time></trkpt><trkpt lat="24.978860975852605" lon="121.46681999733048"><ele>28.0</ele><time>2026-03-22T02:01:29.001Z</time></trkpt><trkpt lat="24.97870230758364" lon="121.4666246351192"><ele>28.0</ele><time>2026-03-22T02:01:30.001Z</time></trkpt><trkpt lat="24.978543336235326" lon="121.46643086678343"><ele>28.5</ele><time>2026-03-22T02:01:31.001Z</time></trkpt><trkpt lat="24.978384934873684" lon="121.46623586985196"><ele>29.0</ele><time>2026-03-22T02:01:32.001Z</time></trkpt><trkpt lat="24.97823080148917" lon="121.46604039215299"><ele>29.0</ele><time>2026-03-22T02:01:33.001Z</time></trkpt><trkpt lat="24.978078840935474" lon="121.46584593121047"><ele>29.0</ele><time>2026-03-22T02:01:34.001Z</time></trkpt><trkpt lat="24.977932766826157" lon="121.46564745289915"><ele>29.0</ele><time>2026-03-22T02:01:35Z</time></trkpt><trkpt lat="24.977787171368938" lon="121.4654478549844"><ele>29.0</ele><time>2026-03-22T02:01:36Z</time></trkpt><trkpt lat="24.977642390003883" lon="121.46524669417299"><ele>28.5</ele><time>2026-03-22T02:01:37Z</time></trkpt><trkpt lat="24.977499538603343" lon="121.46504334452943"><ele>28.0</ele><time>2026-03-22T02:01:38Z</time></trkpt><trkpt lat="24.977359425421568" lon="121.4648365827715"><ele>28.0</ele><time>2026-03-22T02:01:39Z</time></trkpt><trkpt lat="24.977216022037762" lon="121.46462858774314"><ele>28.0</ele><time>2026-03-22T02:01:40Z</time></trkpt><trkpt lat="24.977069518973593" lon="121.46442243702114"><ele>26.0</ele><time>2026-03-22T02:01:41Z</time></trkpt><trkpt lat="24.976927059061865" lon="121.46421337144665"><ele>24.0</ele><time>2026-03-22T02:01:42Z</time></trkpt><trkpt lat="24.976828951172187" lon="121.4639648127808"><ele>23.5</ele><time>2026-03-22T02:01:43Z</time></trkpt><trkpt lat="24.97670349348042" lon="121.46373503327251"><ele>23.0</ele><time>2026-03-22T02:01:44Z</time></trkpt><trkpt lat="24.97658788837597" lon="121.46350759182474"><ele>24.5</ele><time>2026-03-22T02:01:45Z</time></trkpt><trkpt lat="24.976474480566086" lon="121.46328207453435"><ele>26.0</ele><time>2026-03-22T02:01:46Z</time></trkpt><trkpt lat="24.976359457005394" lon="121.46305712164386"><ele>24.5</ele><time>2026-03-22T02:01:47Z</time></trkpt><trkpt lat="24.97625353399103" lon="121.4628226880619"><ele>23.0</ele><time>2026-03-22T02:01:48Z</time></trkpt><trkpt lat="24.976156785628834" lon="121.46257530327091"><ele>23.0</ele><time>2026-03-22T02:01:49Z</time></trkpt><trkpt lat="24.976064778238047" lon="121.4623172591532"><ele>23.0</ele><time>2026-03-22T02:01:50Z</time></trkpt><trkpt lat="24.97597728416397" lon="121.46207098223464"><ele>26.0</ele><time>2026-03-22T02:01:51Z</time></trkpt><trkpt lat="24.975893767890135" lon="121.46182360651945"><ele>29.0</ele><time>2026-03-22T02:01:52Z</time></trkpt><trkpt lat="24.975818397556978" lon="121.46157913765333"><ele>29.0</ele><time>2026-03-22T02:01:53Z</time></trkpt><trkpt lat="24.97574757984755" lon="121.46133442050993"><ele>29.0</ele><time>2026-03-22T02:01:54Z</time></trkpt><trkpt lat="24.975681507877663" lon="121.46108747529132"><ele>29.5</ele><time>2026-03-22T02:01:55Z</time></trkpt><trkpt lat="24.975620992127034" lon="121.4608357431423"><ele>30.0</ele><time>2026-03-22T02:01:56Z</time></trkpt><trkpt lat="24.97556419160334" lon="121.46058394296192"><ele>29.0</ele><time>2026-03-22T02:01:57Z</time></trkpt><trkpt lat="24.97551237301718" lon="121.4603317992904"><ele>28.0</ele><time>2026-03-22T02:01:58Z</time></trkpt><trkpt lat="24.97546336432686" lon="121.46008010251568"><ele>28.0</ele><time>2026-03-22T02:01:59Z</time></trkpt><trkpt lat="24.97541824136752" lon="121.45982761246466"><ele>28.0</ele><time>2026-03-22T02:02:00Z</time></trkpt><trkpt lat="24.975379791459034" lon="121.45957234691983"><ele>25.5</ele><time>2026-03-22T02:02:01Z</time></trkpt><trkpt lat="24.975345359048273" lon="121.4593179540386"><ele>23.0</ele><time>2026-03-22T02:02:02Z</time></trkpt><trkpt lat="24.97531937598374" lon="121.45906579454889"><ele>23.0</ele><time>2026-03-22T02:02:03Z</time></trkpt><trkpt lat="24.975295513862893" lon="121.45880954788075"><ele>23.0</ele><time>2026-03-22T02:02:04Z</time></trkpt><trkpt lat="24.975274199855292" lon="121.45855394866817"><ele>23.0</ele><time>2026-03-22T02:02:05Z</time></trkpt><trkpt lat="24.975259530693773" lon="121.45829450818704"><ele>23.0</ele><time>2026-03-22T02:02:06Z</time></trkpt><trkpt lat="24.97525490231002" lon="121.45803377887083"><ele>24.0</ele><time>2026-03-22T02:02:07Z</time></trkpt><trkpt lat="24.975254910060595" lon="121.45777253674196"><ele>25.0</ele><time>2026-03-22T02:02:08Z</time></trkpt><trkpt lat="24.975256907724408" lon="121.45751144835779"><ele>25.0</ele><time>2026-03-22T02:02:09Z</time></trkpt><trkpt lat="24.975261100173274" lon="121.45725270420284"><ele>25.0</ele><time>2026-03-22T02:02:10Z</time></trkpt><trkpt lat="24.97526324441864" lon="121.45698909497587"><ele>25.5</ele><time>2026-03-22T02:02:11Z</time></trkpt><trkpt lat="24.97527300583026" lon="121.45672621264418"><ele>26.0</ele><time>2026-03-22T02:02:12Z</time></trkpt><trkpt lat="24.975283894718487" lon="121.4564636767591"><ele>26.5</ele><time>2026-03-22T02:02:13Z</time></trkpt><trkpt lat="24.97529705094142" lon="121.45620624102929"><ele>27.0</ele><time>2026-03-22T02:02:14Z</time></trkpt><trkpt lat="24.9753125121847" lon="121.45594781885951"><ele>27.0</ele><time>2026-03-22T02:02:15Z</time></trkpt><trkpt lat="24.97532735775398" lon="121.45569200894043"><ele>27.0</ele><time>2026-03-22T02:02:16Z</time></trkpt><trkpt lat="24.97533965108783" lon="121.45543333845629"><ele>28.0</ele><time>2026-03-22T02:02:17Z</time></trkpt><trkpt lat="24.975352248519442" lon="121.45517436217766"><ele>29.0</ele><time>2026-03-22T02:02:18Z</time></trkpt><trkpt lat="24.975363768095058" lon="121.45491541749199"><ele>29.0</ele><time>2026-03-22T02:02:19Z</time></trkpt><trkpt lat="24.97537517503498" lon="121.45466058195518"><ele>29.0</ele><time>2026-03-22T02:02:20Z</time></trkpt><trkpt lat="24.97538617821521" lon="121.45440588840032"><ele>25.5</ele><time>2026-03-22T02:02:21Z</time></trkpt><trkpt lat="24.975396982956667" lon="121.45415176660292"><ele>22.0</ele><time>2026-03-22T02:02:22Z</time></trkpt><trkpt lat="24.975402433346755" lon="121.4538972162071"><ele>23.5</ele><time>2026-03-22T02:02:23Z</time></trkpt><trkpt lat="24.975404589002604" lon="121.45364103279236"><ele>25.0</ele><time>2026-03-22T02:02:24Z</time></trkpt><trkpt lat="24.975404755589864" lon="121.45338672988456"><ele>25.0</ele><time>2026-03-22T02:02:25Z</time></trkpt><trkpt lat="24.97540178997164" lon="121.4531311877318"><ele>25.0</ele><time>2026-03-22T02:02:26Z</time></trkpt><trkpt lat="24.975395186008615" lon="121.45287733903955"><ele>25.0</ele><time>2026-03-22T02:02:27Z</time></trkpt><trkpt lat="24.975383966429842" lon="121.45262775127674"><ele>25.0</ele><time>2026-03-22T02:02:28Z</time></trkpt><trkpt lat="24.97537017416675" lon="121.45238348571876"><ele>25.0</ele><time>2026-03-22T02:02:29Z</time></trkpt><trkpt lat="24.975351032328422" lon="121.45214234011546"><ele>24.0</ele><time>2026-03-22T02:02:30Z</time></trkpt><trkpt lat="24.975331675162824" lon="121.45190380582464"><ele>23.0</ele><time>2026-03-22T02:02:31Z</time></trkpt><trkpt lat="24.97530343351553" lon="121.45167478243775"><ele>22.0</ele><time>2026-03-22T02:02:32Z</time></trkpt><trkpt lat="24.97526901694472" lon="121.45144356223908"><ele>22.666666666666664</ele><time>2026-03-22T02:02:33Z</time></trkpt><trkpt lat="24.97522832011045" lon="121.45121635408073"><ele>23.333333333333332</ele><time>2026-03-22T02:02:34Z</time></trkpt><trkpt lat="24.975184621389346" lon="121.45098530081043"><ele>24.0</ele><time>2026-03-22T02:02:35Z</time></trkpt><trkpt lat="24.975134604508174" lon="121.45075266636925"><ele>24.0</ele><time>2026-03-22T02:02:36Z</time></trkpt><trkpt lat="24.975080552846862" lon="121.45051601041081"><ele>24.0</ele><time>2026-03-22T02:02:37Z</time></trkpt><trkpt lat="24.97501918791395" lon="121.45027583217225"><ele>24.0</ele><time>2026-03-22T02:02:38Z</time></trkpt><trkpt lat="24.974948972725397" lon="121.4500372747285"><ele>27.0</ele><time>2026-03-22T02:02:39Z</time></trkpt><trkpt lat="24.974875542172043" lon="121.44979734786675"><ele>30.0</ele><time>2026-03-22T02:02:40Z</time></trkpt><trkpt lat="24.974798408021044" lon="121.44955675217406"><ele>31.5</ele><time>2026-03-22T02:02:41Z</time></trkpt><trkpt lat="24.974715051094492" lon="121.44931681766482"><ele>33.0</ele><time>2026-03-22T02:02:42Z</time></trkpt><trkpt lat="24.974624369315617" lon="121.44908136114762"><ele>33.0</ele><time>2026-03-22T02:02:43Z</time></trkpt><trkpt lat="24.974528882625222" lon="121.44884315181328"><ele>33.0</ele><time>2026-03-22T02:02:44Z</time></trkpt><trkpt lat="24.9744286944642" lon="121.44860441768365"><ele>27.0</ele><time>2026-03-22T02:02:45Z</time></trkpt><trkpt lat="24.974320134923243" lon="121.448371639813"><ele>21.0</ele><time>2026-03-22T02:02:46Z</time></trkpt><trkpt lat="24.97420126998953" lon="121.44814572824414"><ele>21.0</ele><time>2026-03-22T02:02:47Z</time></trkpt><trkpt lat="24.974077591600462" lon="121.44791611234717"><ele>21.0</ele><time>2026-03-22T02:02:48Z</time></trkpt><trkpt lat="24.973927683549444" lon="121.44770251060518"><ele>21.0</ele><time>2026-03-22T02:02:49Z</time></trkpt><trkpt lat="24.973793661131896" lon="121.44747769870487"><ele>21.0</ele><time>2026-03-22T02:02:50Z</time></trkpt><trkpt lat="24.97365288738989" lon="121.44725567527927"><ele>20.0</ele><time>2026-03-22T02:02:51Z</time></trkpt><trkpt lat="24.973508867471036" lon="121.44704441642459"><ele>19.0</ele><time>2026-03-22T02:02:52Z</time></trkpt><trkpt lat="24.9733641962724" lon="121.44683888135008"><ele>24.0</ele><time>2026-03-22T02:02:53Z</time></trkpt><trkpt lat="24.973215899987416" lon="121.44663807980083"><ele>29.0</ele><time>2026-03-22T02:02:54Z</time></trkpt><trkpt lat="24.973069448895885" lon="121.44643064069727"><ele>28.0</ele><time>2026-03-22T02:02:55.001Z</time></trkpt><trkpt lat="24.972902912845367" lon="121.44622917660499"><ele>27.0</ele><time>2026-03-22T02:02:56.001Z</time></trkpt><trkpt lat="24.97273340294921" lon="121.4460374046607"><ele>27.0</ele><time>2026-03-22T02:02:57.001Z</time></trkpt><trkpt lat="24.972560738080244" lon="121.44585106403142"><ele>27.0</ele><time>2026-03-22T02:02:58.001Z</time></trkpt><trkpt lat="24.97238568502642" lon="121.44567354552198"><ele>26.0</ele><time>2026-03-22T02:02:59.001Z</time></trkpt><trkpt lat="24.972204034432337" lon="121.44549613189061"><ele>25.0</ele><time>2026-03-22T02:03:00.001Z</time></trkpt><trkpt lat="24.97201306136546" lon="121.44532455242984"><ele>25.0</ele><time>2026-03-22T02:03:01.001Z</time></trkpt><trkpt lat="24.971821267381635" lon="121.44515695064223"><ele>25.0</ele><time>2026-03-22T02:03:02.001Z</time></trkpt><trkpt lat="24.97163045849085" lon="121.44499395834916"><ele>24.5</ele><time>2026-03-22T02:03:03.001Z</time></trkpt><trkpt lat="24.97144179198645" lon="121.44483925416391"><ele>24.0</ele><time>2026-03-22T02:03:04.001Z</time></trkpt><trkpt lat="24.971250110904357" lon="121.44469391271382"><ele>23.0</ele><time>2026-03-22T02:03:05.001Z</time></trkpt><trkpt lat="24.971058218021945" lon="121.44455709903009"><ele>22.0</ele><time>2026-03-22T02:03:06.001Z</time></trkpt><trkpt lat="24.970862355767537" lon="121.44442117584401"><ele>21.0</ele><time>2026-03-22T02:03:07.001Z</time></trkpt><trkpt lat="24.97066267927634" lon="121.44429046307512"><ele>20.0</ele><time>2026-03-22T02:03:08.001Z</time></trkpt><trkpt lat="24.97045624703361" lon="121.4441611054426"><ele>20.0</ele><time>2026-03-22T02:03:09.001Z</time></trkpt><trkpt lat="24.970244879979166" lon="121.44403539545246"><ele>20.0</ele><time>2026-03-22T02:03:10.001Z</time></trkpt><trkpt lat="24.970032769487876" lon="121.44390646728905"><ele>19.5</ele><time>2026-03-22T02:03:11.001Z</time></trkpt><trkpt lat="24.969816935409682" lon="121.44378245969386"><ele>19.0</ele><time>2026-03-22T02:03:12.001Z</time></trkpt><trkpt lat="24.969598701356972" lon="121.44365956728915"><ele>19.0</ele><time>2026-03-22T02:03:13.001Z</time></trkpt><trkpt lat="24.969387392801828" lon="121.4435344099018"><ele>19.0</ele><time>2026-03-22T02:03:14.001Z</time></trkpt><trkpt lat="24.969182541241427" lon="121.4434137210983"><ele>20.0</ele><time>2026-03-22T02:03:15.001Z</time></trkpt><trkpt lat="24.968968595844228" lon="121.44328986236278"><ele>21.0</ele><time>2026-03-22T02:03:16.001Z</time></trkpt><trkpt lat="24.96875425805799" lon="121.44316213399136"><ele>21.0</ele><time>2026-03-22T02:03:17.001Z</time></trkpt><trkpt lat="24.968539399141168" lon="121.4430351174207"><ele>21.0</ele><time>2026-03-22T02:03:18.001Z</time></trkpt><trkpt lat="24.96832502495831" lon="121.44290940748947"><ele>20.5</ele><time>2026-03-22T02:03:19.001Z</time></trkpt><trkpt lat="24.968109032997816" lon="121.44278524933375"><ele>20.0</ele><time>2026-03-22T02:03:20.001Z</time></trkpt><trkpt lat="24.967896708942106" lon="121.44265599887166"><ele>20.0</ele><time>2026-03-22T02:03:21.001Z</time></trkpt><trkpt lat="24.967682341193534" lon="121.44251876846077"><ele>20.0</ele><time>2026-03-22T02:03:22.001Z</time></trkpt><trkpt lat="24.967473506198555" lon="121.44238112116952"><ele>21.0</ele><time>2026-03-22T02:03:23.001Z</time></trkpt><trkpt lat="24.967261435779637" lon="121.4422436351531"><ele>22.0</ele><time>2026-03-22T02:03:24.001Z</time></trkpt><trkpt lat="24.96705382302951" lon="121.44210443882093"><ele>22.5</ele><time>2026-03-22T02:03:25.001Z</time></trkpt><trkpt lat="24.966842981486888" lon="121.44196471788096"><ele>23.0</ele><time>2026-03-22T02:03:26.001Z</time></trkpt><trkpt lat="24.96663072865757" lon="121.441817421109"><ele>24.0</ele><time>2026-03-22T02:03:27.001Z</time></trkpt><trkpt lat="24.966420396922366" lon="121.4416743700121"><ele>25.0</ele><time>2026-03-22T02:03:28.001Z</time></trkpt><trkpt lat="24.96621740305639" lon="121.4415239252563"><ele>25.0</ele><time>2026-03-22T02:03:29.001Z</time></trkpt><trkpt lat="24.966022738174978" lon="121.44136854328654"><ele>25.0</ele><time>2026-03-22T02:03:30.001Z</time></trkpt><trkpt lat="24.96583757427929" lon="121.44120555647139"><ele>25.0</ele><time>2026-03-22T02:03:31.001Z</time></trkpt><trkpt lat="24.96565242043607" lon="121.44104394008161"><ele>25.0</ele><time>2026-03-22T02:03:32.001Z</time></trkpt><trkpt lat="24.96546877282903" lon="121.44087903129142"><ele>25.0</ele><time>2026-03-22T02:03:33.001Z</time></trkpt><trkpt lat="24.96528601154249" lon="121.44071237672112"><ele>25.0</ele><time>2026-03-22T02:03:34.001Z</time></trkpt><trkpt lat="24.965108464616545" lon="121.44054486476443"><ele>23.0</ele><time>2026-03-22T02:03:35.001Z</time></trkpt><trkpt lat="24.964935341735792" lon="121.44037686057084"><ele>21.0</ele><time>2026-03-22T02:03:36.001Z</time></trkpt><trkpt lat="24.964764152325696" lon="121.44020804502868"><ele>21.0</ele><time>2026-03-22T02:03:37.001Z</time></trkpt><trkpt lat="24.96459602991879" lon="121.4400370456197"><ele>21.0</ele><time>2026-03-22T02:03:38.001Z</time></trkpt><trkpt lat="24.964429427531332" lon="121.4398626056444"><ele>21.0</ele><time>2026-03-22T02:03:39.001Z</time></trkpt><trkpt lat="24.9642677581301" lon="121.43968414894276"><ele>21.0</ele><time>2026-03-22T02:03:40.001Z</time></trkpt><trkpt lat="24.96411158089094" lon="121.4395054194649"><ele>23.0</ele><time>2026-03-22T02:03:40.999Z</time></trkpt><trkpt lat="24.963956336814846" lon="121.43932435904152"><ele>25.0</ele><time>2026-03-22T02:03:41.999Z</time></trkpt><trkpt lat="24.96380225050101" lon="121.43913989142187"><ele>25.0</ele><time>2026-03-22T02:03:42.999Z</time></trkpt><trkpt lat="24.963649813474735" lon="121.43895042262862"><ele>25.0</ele><time>2026-03-22T02:03:43.999Z</time></trkpt><trkpt lat="24.963497477094744" lon="121.43875939833056"><ele>23.5</ele><time>2026-03-22T02:03:44.999Z</time></trkpt><trkpt lat="24.963346793861028" lon="121.43856319702529"><ele>22.0</ele><time>2026-03-22T02:03:45.999Z</time></trkpt><trkpt lat="24.96319943037741" lon="121.4383647745263"><ele>22.0</ele><time>2026-03-22T02:03:46.999Z</time></trkpt><trkpt lat="24.963056073156437" lon="121.43816634095224"><ele>22.0</ele><time>2026-03-22T02:03:47.999Z</time></trkpt><trkpt lat="24.96291570055246" lon="121.43796577114543"><ele>21.5</ele><time>2026-03-22T02:03:48.999Z</time></trkpt><trkpt lat="24.962777232282043" lon="121.43776053308206"><ele>21.0</ele><time>2026-03-22T02:03:49.999Z</time></trkpt><trkpt lat="24.96264089211687" lon="121.4375503632454"><ele>21.0</ele><time>2026-03-22T02:03:50.999Z</time></trkpt><trkpt lat="24.96250506005508" lon="121.43733691819118"><ele>21.0</ele><time>2026-03-22T02:03:51.999Z</time></trkpt><trkpt lat="24.96237246136378" lon="121.43711883671173"><ele>21.0</ele><time>2026-03-22T02:03:52.999Z</time></trkpt><trkpt lat="24.962240829609392" lon="121.43689669280607"><ele>21.0</ele><time>2026-03-22T02:03:53.999Z</time></trkpt><trkpt lat="24.96211288980153" lon="121.43667420644066"><ele>21.0</ele><time>2026-03-22T02:03:54.999Z</time></trkpt><trkpt lat="24.961989485047116" lon="121.43645215709485"><ele>21.0</ele><time>2026-03-22T02:03:55.999Z</time></trkpt><trkpt lat="24.961871076834285" lon="121.4362300052538"><ele>20.5</ele><time>2026-03-22T02:03:56.999Z</time></trkpt><trkpt lat="24.96175638013526" lon="121.43600673733839"><ele>20.0</ele><time>2026-03-22T02:03:57.999Z</time></trkpt><trkpt lat="24.961646681541048" lon="121.43578301167803"><ele>21.0</ele><time>2026-03-22T02:03:58.999Z</time></trkpt><trkpt lat="24.961540005668795" lon="121.43555923434782"><ele>22.0</ele><time>2026-03-22T02:04:00Z</time></trkpt><trkpt lat="24.96143777384132" lon="121.43533531043687"><ele>22.0</ele><time>2026-03-22T02:04:01Z</time></trkpt><trkpt lat="24.961338732477902" lon="121.43511233688483"><ele>22.0</ele><time>2026-03-22T02:04:02Z</time></trkpt><trkpt lat="24.961242834438682" lon="121.43489024669563"><ele>22.0</ele><time>2026-03-22T02:04:03Z</time></trkpt><trkpt lat="24.9611518770929" lon="121.43466805971714"><ele>22.333333333333332</ele><time>2026-03-22T02:04:04Z</time></trkpt><trkpt lat="24.96106380278753" lon="121.43444626357888"><ele>22.666666666666668</ele><time>2026-03-22T02:04:05Z</time></trkpt><trkpt lat="24.96097967423328" lon="121.43422515514345"><ele>23.0</ele><time>2026-03-22T02:04:06Z</time></trkpt><trkpt lat="24.960899124488027" lon="121.43400332800287"><ele>24.333333333333336</ele><time>2026-03-22T02:04:07Z</time></trkpt><trkpt lat="24.960820793856165" lon="121.43378041483528"><ele>25.666666666666668</ele><time>2026-03-22T02:04:08Z</time></trkpt><trkpt lat="24.960746605186664" lon="121.43355912827928"><ele>27.0</ele><time>2026-03-22T02:04:09Z</time></trkpt><trkpt lat="24.960675727423443" lon="121.43333846771596"><ele>27.0</ele><time>2026-03-22T02:04:10Z</time></trkpt><trkpt lat="24.960608167940602" lon="121.43311441479163"><ele>27.0</ele><time>2026-03-22T02:04:11Z</time></trkpt><trkpt lat="24.9605417981976" lon="121.43288675020368"><ele>27.0</ele><time>2026-03-22T02:04:12Z</time></trkpt><trkpt lat="24.960479124737343" lon="121.43265733931705"><ele>25.666666666666668</ele><time>2026-03-22T02:04:13Z</time></trkpt><trkpt lat="24.960417619904376" lon="121.43242617799079"><ele>24.333333333333336</ele><time>2026-03-22T02:04:14Z</time></trkpt><trkpt lat="24.960359578110687" lon="121.43219326652654"><ele>23.0</ele><time>2026-03-22T02:04:15Z</time></trkpt><trkpt lat="24.960304229214444" lon="121.43195929052264"><ele>22.666666666666668</ele><time>2026-03-22T02:04:16Z</time></trkpt><trkpt lat="24.96025088645988" lon="121.43172588506226"><ele>22.333333333333332</ele><time>2026-03-22T02:04:17Z</time></trkpt><trkpt lat="24.96020136302996" lon="121.43149185345712"><ele>22.0</ele><time>2026-03-22T02:04:18Z</time></trkpt><trkpt lat="24.96015587028758" lon="121.4312554826018"><ele>25.333333333333332</ele><time>2026-03-22T02:04:19Z</time></trkpt><trkpt lat="24.960112937518314" lon="121.43101711410887"><ele>28.666666666666664</ele><time>2026-03-22T02:04:20Z</time></trkpt><trkpt lat="24.960073627089958" lon="121.4307808602027"><ele>32.0</ele><time>2026-03-22T02:04:21Z</time></trkpt><trkpt lat="24.960037092799936" lon="121.43054663949006"><ele>31.333333333333332</ele><time>2026-03-22T02:04:22Z</time></trkpt><trkpt lat="24.960002806501564" lon="121.4303140231223"><ele>30.666666666666664</ele><time>2026-03-22T02:04:23Z</time></trkpt><trkpt lat="24.959970055378736" lon="121.43008314499802"><ele>30.0</ele><time>2026-03-22T02:04:24Z</time></trkpt><trkpt lat="24.95993937657076" lon="121.42985346162813"><ele>29.333333333333336</ele><time>2026-03-22T02:04:25Z</time></trkpt><trkpt lat="24.959909283372596" lon="121.42962574480008"><ele>28.666666666666668</ele><time>2026-03-22T02:04:26Z</time></trkpt><trkpt lat="24.95988063428783" lon="121.4293988521519"><ele>28.0</ele><time>2026-03-22T02:04:27Z</time></trkpt><trkpt lat="24.959852576101138" lon="121.4291746948831"><ele>28.0</ele><time>2026-03-22T02:04:28Z</time></trkpt><trkpt lat="24.959824434704853" lon="121.42895247564576"><ele>28.0</ele><time>2026-03-22T02:04:29Z</time></trkpt><trkpt lat="24.959797310642646" lon="121.4287311837705"><ele>28.0</ele><time>2026-03-22T02:04:30Z</time></trkpt><trkpt lat="24.95977179532878" lon="121.42850881308281"><ele>28.666666666666668</ele><time>2026-03-22T02:04:31Z</time></trkpt><trkpt lat="24.959742670975793" lon="121.42828479940115"><ele>29.333333333333336</ele><time>2026-03-22T02:04:32Z</time></trkpt><trkpt lat="24.959713709714514" lon="121.42806195083682"><ele>30.0</ele><time>2026-03-22T02:04:33Z</time></trkpt><trkpt lat="24.959684138788745" lon="121.42783767606896"><ele>30.0</ele><time>2026-03-22T02:04:34Z</time></trkpt><trkpt lat="24.959653241212653" lon="121.4276125443674"><ele>30.0</ele><time>2026-03-22T02:04:35Z</time></trkpt><trkpt lat="24.959621960534534" lon="121.42738733149413"><ele>30.0</ele><time>2026-03-22T02:04:36Z</time></trkpt><trkpt lat="24.95959040547683" lon="121.4271653101689"><ele>29.666666666666664</ele><time>2026-03-22T02:04:37Z</time></trkpt><trkpt lat="24.959556818223852" lon="121.42694643176881"><ele>29.333333333333332</ele><time>2026-03-22T02:04:38Z</time></trkpt><trkpt lat="24.959522158683786" lon="121.42673070471453"><ele>29.0</ele><time>2026-03-22T02:04:39Z</time></trkpt><trkpt lat="24.959484859319343" lon="121.42651783858523"><ele>30.333333333333332</ele><time>2026-03-22T02:04:40Z</time></trkpt><trkpt lat="24.959446203843765" lon="121.42630479283159"><ele>31.666666666666664</ele><time>2026-03-22T02:04:41Z</time></trkpt><trkpt lat="24.959404074289196" lon="121.42609081244252"><ele>33.0</ele><time>2026-03-22T02:04:42Z</time></trkpt><trkpt lat="24.95935870493404" lon="121.42587600609164"><ele>33.0</ele><time>2026-03-22T02:04:43Z</time></trkpt><trkpt lat="24.95931087019817" lon="121.42565971252029"><ele>33.0</ele><time>2026-03-22T02:04:44Z</time></trkpt><trkpt lat="24.95925995557006" lon="121.42544496166616"><ele>33.0</ele><time>2026-03-22T02:04:45Z</time></trkpt><trkpt lat="24.959206027804328" lon="121.42523347908306"><ele>33.0</ele><time>2026-03-22T02:04:46Z</time></trkpt><trkpt lat="24.959149807670556" lon="121.4250264133999"><ele>33.0</ele><time>2026-03-22T02:04:47Z</time></trkpt><trkpt lat="24.95909087737004" lon="121.42482227715031"><ele>33.0</ele><time>2026-03-22T02:04:48Z</time></trkpt><trkpt lat="24.959029203159407" lon="121.42462168597245"><ele>34.0</ele><time>2026-03-22T02:04:49Z</time></trkpt><trkpt lat="24.958964985478897" lon="121.42442433846406"><ele>35.0</ele><time>2026-03-22T02:04:50Z</time></trkpt><trkpt lat="24.95889796889741" lon="121.42423093480103"><ele>36.0</ele><time>2026-03-22T02:04:51Z</time></trkpt><trkpt lat="24.958828373265423" lon="121.42404045179326"><ele>36.0</ele><time>2026-03-22T02:04:52Z</time></trkpt><trkpt lat="24.958756001849444" lon="121.42385388013706"><ele>36.0</ele><time>2026-03-22T02:04:53Z</time></trkpt><trkpt lat="24.95868305570985" lon="121.42367039343249"><ele>36.0</ele><time>2026-03-22T02:04:54Z</time></trkpt><trkpt lat="24.958608262850237" lon="121.42349012610646"><ele>33.333333333333336</ele><time>2026-03-22T02:04:55Z</time></trkpt><trkpt lat="24.958532408274927" lon="121.4233140779233"><ele>30.666666666666668</ele><time>2026-03-22T02:04:56Z</time></trkpt><trkpt lat="24.958453957258502" lon="121.42313980896357"><ele>28.0</ele><time>2026-03-22T02:04:57Z</time></trkpt><trkpt lat="24.958371548357622" lon="121.42296476336523"><ele>26.666666666666668</ele><time>2026-03-22T02:04:58Z</time></trkpt><trkpt lat="24.95828382499971" lon="121.42278913793709"><ele>25.333333333333336</ele><time>2026-03-22T02:04:59Z</time></trkpt><trkpt lat="24.958192089872753" lon="121.42261315606018"><ele>24.0</ele><time>2026-03-22T02:05:00Z</time></trkpt><trkpt lat="24.958095553957072" lon="121.42243500691113"><ele>24.0</ele><time>2026-03-22T02:05:01Z</time></trkpt><trkpt lat="24.957993683187716" lon="121.42225765246721"><ele>24.0</ele><time>2026-03-22T02:05:02Z</time></trkpt><trkpt lat="24.957887826081475" lon="121.42207949842172"><ele>24.0</ele><time>2026-03-22T02:05:03Z</time></trkpt><trkpt lat="24.957779186339653" lon="121.42190088440105"><ele>24.0</ele><time>2026-03-22T02:05:04Z</time></trkpt><trkpt lat="24.957666359341165" lon="121.42172106890938"><ele>24.0</ele><time>2026-03-22T02:05:05Z</time></trkpt><trkpt lat="24.95754835385728" lon="121.42154205771531"><ele>24.0</ele><time>2026-03-22T02:05:06Z</time></trkpt><trkpt lat="24.957425607064277" lon="121.42136394937124"><ele>23.666666666666668</ele><time>2026-03-22T02:05:07Z</time></trkpt><trkpt lat="24.957298164450393" lon="121.42118490541701"><ele>23.333333333333336</ele><time>2026-03-22T02:05:08Z</time></trkpt><trkpt lat="24.95716618120174" lon="121.42100814767224"><ele>23.0</ele><time>2026-03-22T02:05:09Z</time></trkpt><trkpt lat="24.957027964705894" lon="121.42083199904224"><ele>23.0</ele><time>2026-03-22T02:05:10Z</time></trkpt><trkpt lat="24.956885513934996" lon="121.42065948148093"><ele>23.0</ele><time>2026-03-22T02:05:11Z</time></trkpt><trkpt lat="24.956742490862343" lon="121.42049145881354"><ele>23.0</ele><time>2026-03-22T02:05:12Z</time></trkpt><trkpt lat="24.956598048808775" lon="121.42032662477126"><ele>23.333333333333336</ele><time>2026-03-22T02:05:13Z</time></trkpt><trkpt lat="24.956452267897692" lon="121.42016728999008"><ele>23.666666666666668</ele><time>2026-03-22T02:05:14Z</time></trkpt><trkpt lat="24.956303209682176" lon="121.42000981613964"><ele>24.0</ele><time>2026-03-22T02:05:15Z</time></trkpt><trkpt lat="24.956149596672226" lon="121.41985376323474"><ele>24.0</ele><time>2026-03-22T02:05:16Z</time></trkpt><trkpt lat="24.955995241934215" lon="121.419702161207"><ele>24.0</ele><time>2026-03-22T02:05:17.001Z</time></trkpt><trkpt lat="24.955838504401658" lon="121.41955505524143"><ele>24.0</ele><time>2026-03-22T02:05:18.001Z</time></trkpt><trkpt lat="24.95567939270334" lon="121.41941099583596"><ele>24.333333333333336</ele><time>2026-03-22T02:05:19.001Z</time></trkpt><trkpt lat="24.955518550299775" lon="121.41926756953382"><ele>24.666666666666668</ele><time>2026-03-22T02:05:20.001Z</time></trkpt><trkpt lat="24.955358174272092" lon="121.4191274294271"><ele>25.0</ele><time>2026-03-22T02:05:21.001Z</time></trkpt><trkpt lat="24.95519874118282" lon="121.41898809416104"><ele>25.0</ele><time>2026-03-22T02:05:22.001Z</time></trkpt><trkpt lat="24.955039372688855" lon="121.41885096935705"><ele>25.0</ele><time>2026-03-22T02:05:23.001Z</time></trkpt><trkpt lat="24.954877599268283" lon="121.41871584736036"><ele>25.0</ele><time>2026-03-22T02:05:24.001Z</time></trkpt><trkpt lat="24.954714427976015" lon="121.41857937478116"><ele>24.0</ele><time>2026-03-22T02:05:25.001Z</time></trkpt><trkpt lat="24.954549628951074" lon="121.41844146634277"><ele>23.0</ele><time>2026-03-22T02:05:26.001Z</time></trkpt><trkpt lat="24.954384689014027" lon="121.41830387145676"><ele>22.0</ele><time>2026-03-22T02:05:27.001Z</time></trkpt><trkpt lat="24.9542180475179" lon="121.41816617035339"><ele>21.333333333333332</ele><time>2026-03-22T02:05:28.001Z</time></trkpt><trkpt lat="24.954050554656938" lon="121.4180277514028"><ele>20.666666666666668</ele><time>2026-03-22T02:05:29.001Z</time></trkpt><trkpt lat="24.953885544329495" lon="121.4178867191807"><ele>20.0</ele><time>2026-03-22T02:05:30.001Z</time></trkpt><trkpt lat="24.95372253090963" lon="121.41774307655494"><ele>20.0</ele><time>2026-03-22T02:05:31.001Z</time></trkpt><trkpt lat="24.953559447343117" lon="121.41759592263175"><ele>20.0</ele><time>2026-03-22T02:05:32.001Z</time></trkpt><trkpt lat="24.953399107139706" lon="121.41744402956004"><ele>20.0</ele><time>2026-03-22T02:05:33.001Z</time></trkpt><trkpt lat="24.953238720747805" lon="121.41728913603568"><ele>20.0</ele><time>2026-03-22T02:05:34.001Z</time></trkpt><trkpt lat="24.953079418510693" lon="121.41713202451838"><ele>20.0</ele><time>2026-03-22T02:05:35.001Z</time></trkpt><trkpt lat="24.95292313004849" lon="121.41696888469109"><ele>20.0</ele><time>2026-03-22T02:05:36.001Z</time></trkpt><trkpt lat="24.95277024066403" lon="121.41680107535618"><ele>20.0</ele><time>2026-03-22T02:05:37.001Z</time></trkpt><trkpt lat="24.952620785005326" lon="121.41662783183222"><ele>20.0</ele><time>2026-03-22T02:05:38.001Z</time></trkpt><trkpt lat="24.95247437788037" lon="121.41645053768919"><ele>20.0</ele><time>2026-03-22T02:05:39.001Z</time></trkpt><trkpt lat="24.952331808765774" lon="121.41626944675647"><ele>20.666666666666668</ele><time>2026-03-22T02:05:40.001Z</time></trkpt><trkpt lat="24.952192599356025" lon="121.41608376264575"><ele>21.333333333333332</ele><time>2026-03-22T02:05:41.001Z</time></trkpt><trkpt lat="24.952058361357093" lon="121.41589649145719"><ele>22.0</ele><time>2026-03-22T02:05:42.001Z</time></trkpt><trkpt lat="24.95192974792487" lon="121.41570672583929"><ele>22.0</ele><time>2026-03-22T02:05:43.001Z</time></trkpt><trkpt lat="24.951807179311373" lon="121.41551526145798"><ele>22.0</ele><time>2026-03-22T02:05:44.001Z</time></trkpt><trkpt lat="24.951689393440944" lon="121.41532221472197"><ele>22.0</ele><time>2026-03-22T02:05:45.001Z</time></trkpt><trkpt lat="24.951575748882096" lon="121.41512846563043"><ele>23.0</ele><time>2026-03-22T02:05:46.001Z</time></trkpt><trkpt lat="24.951468066105434" lon="121.41493436094535"><ele>24.0</ele><time>2026-03-22T02:05:47Z</time></trkpt><trkpt lat="24.951365663269225" lon="121.41473758418554"><ele>25.0</ele><time>2026-03-22T02:05:48Z</time></trkpt><trkpt lat="24.951268776477917" lon="121.41453923048721"><ele>25.0</ele><time>2026-03-22T02:05:49Z</time></trkpt><trkpt lat="24.951178783517907" lon="121.41434031462362"><ele>25.0</ele><time>2026-03-22T02:05:50Z</time></trkpt><trkpt lat="24.95109306198418" lon="121.41414104926876"><ele>25.0</ele><time>2026-03-22T02:05:51Z</time></trkpt><trkpt lat="24.95101009923336" lon="121.41394307548515"><ele>24.666666666666668</ele><time>2026-03-22T02:05:52Z</time></trkpt><trkpt lat="24.950930385599516" lon="121.4137467585133"><ele>24.333333333333336</ele><time>2026-03-22T02:05:53Z</time></trkpt><trkpt lat="24.95085551756228" lon="121.41354774648518"><ele>24.0</ele><time>2026-03-22T02:05:54Z</time></trkpt><trkpt lat="24.950786270489782" lon="121.41334589663076"><ele>25.666666666666664</ele><time>2026-03-22T02:05:55Z</time></trkpt><trkpt lat="24.950720746518883" lon="121.41314392263956"><ele>27.333333333333332</ele><time>2026-03-22T02:05:56Z</time></trkpt><trkpt lat="24.95065966975012" lon="121.41294035162058"><ele>29.0</ele><time>2026-03-22T02:05:57Z</time></trkpt><trkpt lat="24.95060135828676" lon="121.41273174731379"><ele>29.0</ele><time>2026-03-22T02:05:58Z</time></trkpt><trkpt lat="24.95054655966721" lon="121.41252142244582"><ele>29.0</ele><time>2026-03-22T02:05:59Z</time></trkpt><trkpt lat="24.95049583888659" lon="121.41230735175174"><ele>29.0</ele><time>2026-03-22T02:06:00Z</time></trkpt><trkpt lat="24.950450098837887" lon="121.41209062288924"><ele>29.0</ele><time>2026-03-22T02:06:01Z</time></trkpt><trkpt lat="24.950410341886453" lon="121.4118705746678"><ele>29.0</ele><time>2026-03-22T02:06:02Z</time></trkpt><trkpt lat="24.95037297849899" lon="121.41164836670073"><ele>29.0</ele><time>2026-03-22T02:06:03Z</time></trkpt><trkpt lat="24.95034074527327" lon="121.41142768746735"><ele>27.333333333333332</ele><time>2026-03-22T02:06:04Z</time></trkpt><trkpt lat="24.950312922296316" lon="121.41120667932599"><ele>25.666666666666664</ele><time>2026-03-22T02:06:05Z</time></trkpt><trkpt lat="24.950290159943926" lon="121.41098670410658"><ele>24.0</ele><time>2026-03-22T02:06:06Z</time></trkpt><trkpt lat="24.950270322206" lon="121.41076606362721"><ele>24.0</ele><time>2026-03-22T02:06:07Z</time></trkpt><trkpt lat="24.950254068879747" lon="121.410543155889"><ele>24.0</ele><time>2026-03-22T02:06:08Z</time></trkpt><trkpt lat="24.950241830680692" lon="121.41031964481006"><ele>24.0</ele><time>2026-03-22T02:06:09Z</time></trkpt><trkpt lat="24.950232061448617" lon="121.41009797845575"><ele>24.0</ele><time>2026-03-22T02:06:10Z</time></trkpt><trkpt lat="24.95022584150961" lon="121.40987769553276"><ele>24.0</ele><time>2026-03-22T02:06:11Z</time></trkpt><trkpt lat="24.950223542884174" lon="121.4096601271837"><ele>24.0</ele><time>2026-03-22T02:06:12Z</time></trkpt><trkpt lat="24.950223813209625" lon="121.40944400886937"><ele>24.0</ele><time>2026-03-22T02:06:13Z</time></trkpt><trkpt lat="24.95022533115117" lon="121.40922756318749"><ele>24.0</ele><time>2026-03-22T02:06:14Z</time></trkpt><trkpt lat="24.95022882275873" lon="121.40901515316715"><ele>24.0</ele><time>2026-03-22T02:06:15Z</time></trkpt><trkpt lat="24.95023523690458" lon="121.40880191504965"><ele>24.666666666666664</ele><time>2026-03-22T02:06:16Z</time></trkpt><trkpt lat="24.9502445261483" lon="121.40858682740271"><ele>25.333333333333332</ele><time>2026-03-22T02:06:17Z</time></trkpt><trkpt lat="24.950254949207885" lon="121.40836826293851"><ele>26.0</ele><time>2026-03-22T02:06:18Z</time></trkpt><trkpt lat="24.950265931093437" lon="121.40815131858685"><ele>26.666666666666664</ele><time>2026-03-22T02:06:19Z</time></trkpt><trkpt lat="24.950278946020525" lon="121.40793748218175"><ele>27.333333333333336</ele><time>2026-03-22T02:06:20Z</time></trkpt><trkpt lat="24.950293764831002" lon="121.40772384116609"><ele>28.0</ele><time>2026-03-22T02:06:21Z</time></trkpt><trkpt lat="24.950309019315668" lon="121.40751175754147"><ele>28.0</ele><time>2026-03-22T02:06:22Z</time></trkpt><trkpt lat="24.950324927524484" lon="121.40730163286356"><ele>28.0</ele><time>2026-03-22T02:06:23Z</time></trkpt><trkpt lat="24.950343138797294" lon="121.40709228899668"><ele>28.0</ele><time>2026-03-22T02:06:24Z</time></trkpt><trkpt lat="24.950361459006963" lon="121.40688264894284"><ele>27.333333333333336</ele><time>2026-03-22T02:06:25Z</time></trkpt><trkpt lat="24.95037959089074" lon="121.4066746007468"><ele>26.666666666666664</ele><time>2026-03-22T02:06:26Z</time></trkpt><trkpt lat="24.950397503600964" lon="121.40646776772566"><ele>26.0</ele><time>2026-03-22T02:06:27Z</time></trkpt><trkpt lat="24.95041607098119" lon="121.406263474438"><ele>26.0</ele><time>2026-03-22T02:06:28Z</time></trkpt><trkpt lat="24.950434795202305" lon="121.40605997171454"><ele>26.0</ele><time>2026-03-22T02:06:29Z</time></trkpt><trkpt lat="24.950453615514164" lon="121.40585742412435"><ele>26.0</ele><time>2026-03-22T02:06:30Z</time></trkpt><trkpt lat="24.950472202146937" lon="121.40565687232127"><ele>24.666666666666664</ele><time>2026-03-22T02:06:31Z</time></trkpt><trkpt lat="24.95048964187832" lon="121.40546110718958"><ele>23.333333333333332</ele><time>2026-03-22T02:06:32Z</time></trkpt><trkpt lat="24.950507293840662" lon="121.40527303529797"><ele>22.0</ele><time>2026-03-22T02:06:33Z</time></trkpt><trkpt lat="24.95052506072322" lon="121.40508722898298"><ele>22.0</ele><time>2026-03-22T02:06:34Z</time></trkpt><trkpt lat="24.95054229838399" lon="121.404901639436"><ele>22.0</ele><time>2026-03-22T02:06:35Z</time></trkpt><trkpt lat="24.950558911916744" lon="121.40471823508759"><ele>22.0</ele><time>2026-03-22T02:06:36Z</time></trkpt><trkpt lat="24.95057538241236" lon="121.40453685584218"><ele>21.666666666666664</ele><time>2026-03-22T02:06:37Z</time></trkpt><trkpt lat="24.950590849243337" lon="121.40435915806786"><ele>21.333333333333332</ele><time>2026-03-22T02:06:38Z</time></trkpt><trkpt lat="24.950606839570405" lon="121.40418134305865"><ele>21.0</ele><time>2026-03-22T02:06:39Z</time></trkpt><trkpt lat="24.950622769877313" lon="121.4040033777873"><ele>22.0</ele><time>2026-03-22T02:06:40Z</time></trkpt><trkpt lat="24.950640001083514" lon="121.40382329009081"><ele>23.0</ele><time>2026-03-22T02:06:41Z</time></trkpt><trkpt lat="24.950656779435224" lon="121.40363829703375"><ele>24.0</ele><time>2026-03-22T02:06:42Z</time></trkpt><trkpt lat="24.950673836104265" lon="121.40344945232955"><ele>24.0</ele><time>2026-03-22T02:06:43Z</time></trkpt><trkpt lat="24.950690697542655" lon="121.40326020912042"><ele>24.0</ele><time>2026-03-22T02:06:44Z</time></trkpt><trkpt lat="24.950707181397302" lon="121.40307203125325"><ele>24.0</ele><time>2026-03-22T02:06:45.001Z</time></trkpt><trkpt lat="24.95072521431473" lon="121.40288026789148"><ele>25.0</ele><time>2026-03-22T02:06:46.001Z</time></trkpt><trkpt lat="24.950743699874863" lon="121.40268582683014"><ele>26.0</ele><time>2026-03-22T02:06:47.001Z</time></trkpt><trkpt lat="24.95076239320451" lon="121.40248686050948"><ele>27.0</ele><time>2026-03-22T02:06:48.001Z</time></trkpt><trkpt lat="24.9507814688944" lon="121.40228531311526"><ele>28.0</ele><time>2026-03-22T02:06:49.001Z</time></trkpt><trkpt lat="24.95079986584943" lon="121.40208050556515"><ele>29.0</ele><time>2026-03-22T02:06:50.001Z</time></trkpt><trkpt lat="24.950818372363862" lon="121.40187237475051"><ele>30.0</ele><time>2026-03-22T02:06:51.001Z</time></trkpt><trkpt lat="24.950837879206265" lon="121.40166183914255"><ele>30.0</ele><time>2026-03-22T02:06:52.001Z</time></trkpt><trkpt lat="24.950857346418292" lon="121.40144758901648"><ele>30.0</ele><time>2026-03-22T02:06:53.001Z</time></trkpt><trkpt lat="24.950876445807115" lon="121.40123131474229"><ele>30.0</ele><time>2026-03-22T02:06:54.001Z</time></trkpt><trkpt lat="24.950895635398446" lon="121.40101187242199"><ele>30.0</ele><time>2026-03-22T02:06:55.001Z</time></trkpt><trkpt lat="24.95091586768926" lon="121.40079024667911"><ele>30.0</ele><time>2026-03-22T02:06:56.001Z</time></trkpt><trkpt lat="24.95093667897814" lon="121.40056628626564"><ele>30.0</ele><time>2026-03-22T02:06:57.001Z</time></trkpt><trkpt lat="24.950957323440026" lon="121.40033969374653"><ele>30.0</ele><time>2026-03-22T02:06:58.001Z</time></trkpt><trkpt lat="24.950978161067006" lon="121.4001105744426"><ele>30.0</ele><time>2026-03-22T02:06:59.001Z</time></trkpt><trkpt lat="24.95099952901425" lon="121.39987948038923"><ele>30.0</ele><time>2026-03-22T02:07:00.001Z</time></trkpt><trkpt lat="24.951021392201444" lon="121.39964660343576"><ele>30.333333333333336</ele><time>2026-03-22T02:07:01.001Z</time></trkpt><trkpt lat="24.951042122397748" lon="121.39941549463728"><ele>30.666666666666668</ele><time>2026-03-22T02:07:02.001Z</time></trkpt><trkpt lat="24.95106260530292" lon="121.39918553456292"><ele>31.0</ele><time>2026-03-22T02:07:03.001Z</time></trkpt><trkpt lat="24.951083781508164" lon="121.3989548263916"><ele>31.333333333333336</ele><time>2026-03-22T02:07:04.001Z</time></trkpt><trkpt lat="24.951105280156966" lon="121.39872291767516"><ele>31.666666666666664</ele><time>2026-03-22T02:07:05.001Z</time></trkpt><trkpt lat="24.951126721678676" lon="121.39849149362254"><ele>32.0</ele><time>2026-03-22T02:07:06.001Z</time></trkpt><trkpt lat="24.951147998972758" lon="121.39826106758686"><ele>32.0</ele><time>2026-03-22T02:07:07.001Z</time></trkpt><trkpt lat="24.951168800135743" lon="121.3980299151311"><ele>32.0</ele><time>2026-03-22T02:07:08.001Z</time></trkpt><trkpt lat="24.951189722448113" lon="121.39779681814282"><ele>32.0</ele><time>2026-03-22T02:07:09.001Z</time></trkpt><trkpt lat="24.951211568689867" lon="121.39756306138192"><ele>31.666666666666664</ele><time>2026-03-22T02:07:10.001Z</time></trkpt><trkpt lat="24.95123371027265" lon="121.39732796834411"><ele>31.333333333333336</ele><time>2026-03-22T02:07:11.001Z</time></trkpt><trkpt lat="24.95125489467686" lon="121.39709085916179"><ele>31.0</ele><time>2026-03-22T02:07:12.001Z</time></trkpt><trkpt lat="24.951276262203" lon="121.39685316711085"><ele>30.666666666666668</ele><time>2026-03-22T02:07:13.001Z</time></trkpt><trkpt lat="24.951298622262215" lon="121.39661358496178"><ele>30.333333333333336</ele><time>2026-03-22T02:07:14.001Z</time></trkpt><trkpt lat="24.95132086018729" lon="121.39637302055961"><ele>30.0</ele><time>2026-03-22T02:07:15.001Z</time></trkpt><trkpt lat="24.951342485951027" lon="121.3961310296919"><ele>31.666666666666664</ele><time>2026-03-22T02:07:16.001Z</time></trkpt><trkpt lat="24.951363689928403" lon="121.39588732454355"><ele>33.33333333333333</ele><time>2026-03-22T02:07:17.001Z</time></trkpt><trkpt lat="24.95138559424927" lon="121.3956426184552"><ele>35.0</ele><time>2026-03-22T02:07:18.001Z</time></trkpt><trkpt lat="24.951408557390916" lon="121.39539648775208"><ele>35.0</ele><time>2026-03-22T02:07:19.001Z</time></trkpt><trkpt lat="24.95143184837683" lon="121.39514917719706"><ele>35.0</ele><time>2026-03-22T02:07:20.001Z</time></trkpt><trkpt lat="24.95145540361653" lon="121.39490104127547"><ele>36.33333333333333</ele><time>2026-03-22T02:07:21.001Z</time></trkpt><trkpt lat="24.95147895469435" lon="121.39465524370561"><ele>37.666666666666664</ele><time>2026-03-22T02:07:22.001Z</time></trkpt><trkpt lat="24.95150312309993" lon="121.39441010753752"><ele>39.0</ele><time>2026-03-22T02:07:23.001Z</time></trkpt><trkpt lat="24.951525760406806" lon="121.3941666569188"><ele>39.0</ele><time>2026-03-22T02:07:24.001Z</time></trkpt><trkpt lat="24.95154681857982" lon="121.3939240870828"><ele>39.0</ele><time>2026-03-22T02:07:25.001Z</time></trkpt><trkpt lat="24.951567048031368" lon="121.39368337733036"><ele>39.0</ele><time>2026-03-22T02:07:26.001Z</time></trkpt><trkpt lat="24.951587880907784" lon="121.39344395812162"><ele>39.333333333333336</ele><time>2026-03-22T02:07:27.001Z</time></trkpt><trkpt lat="24.951609597183108" lon="121.39320490200498"><ele>39.66666666666667</ele><time>2026-03-22T02:07:28.001Z</time></trkpt><trkpt lat="24.95163057817187" lon="121.39296460384234"><ele>40.0</ele><time>2026-03-22T02:07:29.001Z</time></trkpt><trkpt lat="24.951651789104645" lon="121.39272532368489"><ele>39.333333333333336</ele><time>2026-03-22T02:07:30.001Z</time></trkpt><trkpt lat="24.95167234870607" lon="121.39248787218638"><ele>38.666666666666664</ele><time>2026-03-22T02:07:31.001Z</time></trkpt><trkpt lat="24.951693484543455" lon="121.39225019170104"><ele>38.0</ele><time>2026-03-22T02:07:32.001Z</time></trkpt><trkpt lat="24.95171476034624" lon="121.39201108096628"><ele>34.33333333333333</ele><time>2026-03-22T02:07:33.001Z</time></trkpt><trkpt lat="24.951734407242057" lon="121.39177060914676"><ele>30.666666666666664</ele><time>2026-03-22T02:07:34.001Z</time></trkpt><trkpt lat="24.95175283992375" lon="121.39152843106336"><ele>27.0</ele><time>2026-03-22T02:07:35.001Z</time></trkpt><trkpt lat="24.951771121975735" lon="121.39128529057562"><ele>27.0</ele><time>2026-03-22T02:07:36.001Z</time></trkpt><trkpt lat="24.951788219394498" lon="121.39104194791511"><ele>27.0</ele><time>2026-03-22T02:07:37.001Z</time></trkpt><trkpt lat="24.95180513051214" lon="121.39079718533739"><ele>27.0</ele><time>2026-03-22T02:07:38.001Z</time></trkpt><trkpt lat="24.951821778389142" lon="121.39055202073587"><ele>28.0</ele><time>2026-03-22T02:07:39.001Z</time></trkpt><trkpt lat="24.9518387078235" lon="121.39030569090667"><ele>29.0</ele><time>2026-03-22T02:07:40.001Z</time></trkpt><trkpt lat="24.95185475503443" lon="121.39005791499378"><ele>30.0</ele><time>2026-03-22T02:07:41.001Z</time></trkpt><trkpt lat="24.951869687510847" lon="121.38980921483139"><ele>30.5</ele><time>2026-03-22T02:07:42.001Z</time></trkpt><trkpt lat="24.951883385999565" lon="121.38956014952635"><ele>31.0</ele><time>2026-03-22T02:07:43.001Z</time></trkpt><trkpt lat="24.951896423341896" lon="121.38931003796901"><ele>31.0</ele><time>2026-03-22T02:07:44.001Z</time></trkpt><trkpt lat="24.951908820206025" lon="121.38905866408157"><ele>31.0</ele><time>2026-03-22T02:07:45.001Z</time></trkpt><trkpt lat="24.951920553087742" lon="121.38881030899975"><ele>31.333333333333336</ele><time>2026-03-22T02:07:46.001Z</time></trkpt><trkpt lat="24.951930874832836" lon="121.38856409149452"><ele>31.666666666666664</ele><time>2026-03-22T02:07:47.001Z</time></trkpt><trkpt lat="24.95194053603892" lon="121.38832019285334"><ele>32.0</ele><time>2026-03-22T02:07:48.001Z</time></trkpt><trkpt lat="24.9519493722125" lon="121.3880779061077"><ele>32.0</ele><time>2026-03-22T02:07:49.001Z</time></trkpt><trkpt lat="24.951957031411368" lon="121.38783758512874"><ele>32.0</ele><time>2026-03-22T02:07:50.001Z</time></trkpt><trkpt lat="24.951962250197045" lon="121.38760047627072"><ele>32.0</ele><time>2026-03-22T02:07:51.001Z</time></trkpt><trkpt lat="24.951965885647667" lon="121.38736623190431"><ele>31.333333333333332</ele><time>2026-03-22T02:07:52.001Z</time></trkpt><trkpt lat="24.951969496178084" lon="121.3871337986276"><ele>30.666666666666664</ele><time>2026-03-22T02:07:53.001Z</time></trkpt><trkpt lat="24.951971904335625" lon="121.38690935338127"><ele>30.0</ele><time>2026-03-22T02:07:54.001Z</time></trkpt><trkpt lat="24.951973700646022" lon="121.38669318841036"><ele>30.0</ele><time>2026-03-22T02:07:55.001Z</time></trkpt><trkpt lat="24.95197436303644" lon="121.38648372572102"><ele>30.0</ele><time>2026-03-22T02:07:56.001Z</time></trkpt><trkpt lat="24.951973279377313" lon="121.38627546228683"><ele>30.0</ele><time>2026-03-22T02:07:57.001Z</time></trkpt><trkpt lat="24.951970455769974" lon="121.38606877513833"><ele>30.333333333333336</ele><time>2026-03-22T02:07:58.001Z</time></trkpt><trkpt lat="24.951966880813615" lon="121.38586272136006"><ele>30.666666666666668</ele><time>2026-03-22T02:07:59.001Z</time></trkpt><trkpt lat="24.951963386749636" lon="121.38565389204105"><ele>31.0</ele><time>2026-03-22T02:08:00.001Z</time></trkpt><trkpt lat="24.951958203153307" lon="121.38544317271601"><ele>31.333333333333336</ele><time>2026-03-22T02:08:01.001Z</time></trkpt><trkpt lat="24.95195135562779" lon="121.38523005114332"><ele>31.666666666666664</ele><time>2026-03-22T02:08:02.001Z</time></trkpt><trkpt lat="24.951943669203917" lon="121.3850160978523"><ele>32.0</ele><time>2026-03-22T02:08:03.001Z</time></trkpt><trkpt lat="24.951934454019966" lon="121.38480068496516"><ele>31.333333333333332</ele><time>2026-03-22T02:08:04.001Z</time></trkpt><trkpt lat="24.951922939742193" lon="121.38458305434956"><ele>30.666666666666664</ele><time>2026-03-22T02:08:05.001Z</time></trkpt><trkpt lat="24.951910085889352" lon="121.38436431930974"><ele>30.0</ele><time>2026-03-22T02:08:06.001Z</time></trkpt><trkpt lat="24.951895708066395" lon="121.3841455656168"><ele>30.0</ele><time>2026-03-22T02:08:07.001Z</time></trkpt><trkpt lat="24.951879737183383" lon="121.3839274886491"><ele>30.0</ele><time>2026-03-22T02:08:08.001Z</time></trkpt><trkpt lat="24.951862770892404" lon="121.38370843632313"><ele>30.0</ele><time>2026-03-22T02:08:09.001Z</time></trkpt><trkpt lat="24.95184364022526" lon="121.38348785831263"><ele>30.333333333333336</ele><time>2026-03-22T02:08:10.001Z</time></trkpt><trkpt lat="24.95182253663082" lon="121.38326545860822"><ele>30.666666666666668</ele><time>2026-03-22T02:08:11.001Z</time></trkpt><trkpt lat="24.951800231650665" lon="121.38304195670646"><ele>31.0</ele><time>2026-03-22T02:08:12.001Z</time></trkpt><trkpt lat="24.95177684026794" lon="121.38281646581294"><ele>31.0</ele><time>2026-03-22T02:08:13.001Z</time></trkpt><trkpt lat="24.95175200652546" lon="121.38259103614588"><ele>31.0</ele><time>2026-03-22T02:08:14.001Z</time></trkpt><trkpt lat="24.9517265507891" lon="121.38236738109865"><ele>31.0</ele><time>2026-03-22T02:08:15.001Z</time></trkpt><trkpt lat="24.95170025658936" lon="121.38214519772744"><ele>32.66666666666667</ele><time>2026-03-22T02:08:16.001Z</time></trkpt><trkpt lat="24.951672047128437" lon="121.38192213510136"><ele>34.333333333333336</ele><time>2026-03-22T02:08:17.001Z</time></trkpt><trkpt lat="24.951641115809014" lon="121.38169902183198"><ele>36.0</ele><time>2026-03-22T02:08:18.001Z</time></trkpt><trkpt lat="24.95160861545699" lon="121.38147558568521"><ele>35.333333333333336</ele><time>2026-03-22T02:08:19.001Z</time></trkpt><trkpt lat="24.951574376635822" lon="121.38125408177066"><ele>34.66666666666667</ele><time>2026-03-22T02:08:20.001Z</time></trkpt><trkpt lat="24.951538243024014" lon="121.38103300032243"><ele>34.0</ele><time>2026-03-22T02:08:21.001Z</time></trkpt><trkpt lat="24.95149985252074" lon="121.38081029964631"><ele>34.0</ele><time>2026-03-22T02:08:22.001Z</time></trkpt><trkpt lat="24.951459779017682" lon="121.3805874647091"><ele>34.0</ele><time>2026-03-22T02:08:23.001Z</time></trkpt><trkpt lat="24.951419005778014" lon="121.38036321851044"><ele>34.0</ele><time>2026-03-22T02:08:24.001Z</time></trkpt><trkpt lat="24.951376096007092" lon="121.3801403125929"><ele>35.0</ele><time>2026-03-22T02:08:25.001Z</time></trkpt><trkpt lat="24.951332293708116" lon="121.37991786425007"><ele>36.0</ele><time>2026-03-22T02:08:26.001Z</time></trkpt><trkpt lat="24.951287602153684" lon="121.37969751481226"><ele>37.0</ele><time>2026-03-22T02:08:27.001Z</time></trkpt><trkpt lat="24.95124155150238" lon="121.37947938677782"><ele>37.0</ele><time>2026-03-22T02:08:28.001Z</time></trkpt><trkpt lat="24.95119440337827" lon="121.37926334717986"><ele>37.0</ele><time>2026-03-22T02:08:29.001Z</time></trkpt><trkpt lat="24.951144733015273" lon="121.3790471017935"><ele>37.0</ele><time>2026-03-22T02:08:30.001Z</time></trkpt><trkpt lat="24.951093785999472" lon="121.37883012813471"><ele>36.66666666666667</ele><time>2026-03-22T02:08:31.001Z</time></trkpt><trkpt lat="24.95104068957354" lon="121.37861078368566"><ele>36.333333333333336</ele><time>2026-03-22T02:08:32.001Z</time></trkpt><trkpt lat="24.95098499139522" lon="121.37839088615564"><ele>36.0</ele><time>2026-03-22T02:08:33.001Z</time></trkpt><trkpt lat="24.95092758199341" lon="121.37817258149255"><ele>36.333333333333336</ele><time>2026-03-22T02:08:34.001Z</time></trkpt><trkpt lat="24.95086939372571" lon="121.37795578998706"><ele>36.66666666666667</ele><time>2026-03-22T02:08:35.001Z</time></trkpt><trkpt lat="24.95081020078018" lon="121.37773870771537"><ele>37.0</ele><time>2026-03-22T02:08:36.001Z</time></trkpt><trkpt lat="24.95075005581399" lon="121.3775199016777"><ele>37.0</ele><time>2026-03-22T02:08:37.001Z</time></trkpt><trkpt lat="24.950687004770877" lon="121.37729944388731"><ele>37.0</ele><time>2026-03-22T02:08:38.001Z</time></trkpt><trkpt lat="24.95062249044625" lon="121.37707643312466"><ele>37.0</ele><time>2026-03-22T02:08:39.001Z</time></trkpt><trkpt lat="24.95055349415775" lon="121.37685196314516"><ele>36.66666666666667</ele><time>2026-03-22T02:08:40.001Z</time></trkpt><trkpt lat="24.950482905191958" lon="121.37662466781502"><ele>36.333333333333336</ele><time>2026-03-22T02:08:41.001Z</time></trkpt><trkpt lat="24.950409909994153" lon="121.3763936882938"><ele>36.0</ele><time>2026-03-22T02:08:42.001Z</time></trkpt><trkpt lat="24.950333903245184" lon="121.37616160282438"><ele>36.0</ele><time>2026-03-22T02:08:43.001Z</time></trkpt><trkpt lat="24.95025534596602" lon="121.37592622643545"><ele>36.0</ele><time>2026-03-22T02:08:44.001Z</time></trkpt><trkpt lat="24.95017491859877" lon="121.37568987810234"><ele>35.0</ele><time>2026-03-22T02:08:45.001Z</time></trkpt><trkpt lat="24.950090670444474" lon="121.3754512513842"><ele>34.0</ele><time>2026-03-22T02:08:46.001Z</time></trkpt><trkpt lat="24.950003325688908" lon="121.37521036092478"><ele>36.5</ele><time>2026-03-22T02:08:47.001Z</time></trkpt><trkpt lat="24.949913586827716" lon="121.37496790840065"><ele>39.0</ele><time>2026-03-22T02:08:48.001Z</time></trkpt><trkpt lat="24.949820691439754" lon="121.37472373724391"><ele>38.5</ele><time>2026-03-22T02:08:49.001Z</time></trkpt><trkpt lat="24.949725665154578" lon="121.37447944112427"><ele>38.0</ele><time>2026-03-22T02:08:50.001Z</time></trkpt><trkpt lat="24.94962680785292" lon="121.37423326175576"><ele>38.0</ele><time>2026-03-22T02:08:51.001Z</time></trkpt><trkpt lat="24.94952481878391" lon="121.37398656174196"><ele>38.0</ele><time>2026-03-22T02:08:52.001Z</time></trkpt><trkpt lat="24.94942047406189" lon="121.3737382700151"><ele>36.5</ele><time>2026-03-22T02:08:53.001Z</time></trkpt><trkpt lat="24.94931300756346" lon="121.3734887463434"><ele>35.0</ele><time>2026-03-22T02:08:54.001Z</time></trkpt><trkpt lat="24.94920348481072" lon="121.37323817446652"><ele>35.0</ele><time>2026-03-22T02:08:55.001Z</time></trkpt><trkpt lat="24.94909028701834" lon="121.3729869570984"><ele>35.0</ele><time>2026-03-22T02:08:56.001Z</time></trkpt><trkpt lat="24.948973318948322" lon="121.3727361784216"><ele>35.0</ele><time>2026-03-22T02:08:57.001Z</time></trkpt><trkpt lat="24.948855014481822" lon="121.37249092518557"><ele>35.0</ele><time>2026-03-22T02:08:58.001Z</time></trkpt><trkpt lat="24.9487366074861" lon="121.37224735708605"><ele>34.5</ele><time>2026-03-22T02:08:59.001Z</time></trkpt><trkpt lat="24.948616112095266" lon="121.37200363459559"><ele>34.0</ele><time>2026-03-22T02:09:00.001Z</time></trkpt><trkpt lat="24.948493283842716" lon="121.3717607140981"><ele>37.0</ele><time>2026-03-22T02:09:01.001Z</time></trkpt><trkpt lat="24.9483679020933" lon="121.37151829059596"><ele>40.0</ele><time>2026-03-22T02:09:02.001Z</time></trkpt><trkpt lat="24.948240347037423" lon="121.3712769304693"><ele>40.5</ele><time>2026-03-22T02:09:03.001Z</time></trkpt><trkpt lat="24.9481107301686" lon="121.37103498989164"><ele>41.0</ele><time>2026-03-22T02:09:04.001Z</time></trkpt><trkpt lat="24.94797772866474" lon="121.37079418650912"><ele>41.0</ele><time>2026-03-22T02:09:05.001Z</time></trkpt><trkpt lat="24.94784079909196" lon="121.37055515812902"><ele>41.0</ele><time>2026-03-22T02:09:06.001Z</time></trkpt><trkpt lat="24.94770157559608" lon="121.37031714494165"><ele>40.0</ele><time>2026-03-22T02:09:07.001Z</time></trkpt><trkpt lat="24.947562391617083" lon="121.37008155009963"><ele>39.0</ele><time>2026-03-22T02:09:08.001Z</time></trkpt><trkpt lat="24.94742236187955" lon="121.3698468334757"><ele>39.5</ele><time>2026-03-22T02:09:09.001Z</time></trkpt><trkpt lat="24.94728027092577" lon="121.36961274094476"><ele>40.0</ele><time>2026-03-22T02:09:10.001Z</time></trkpt><trkpt lat="24.947135123162944" lon="121.36937886153147"><ele>40.0</ele><time>2026-03-22T02:09:11.001Z</time></trkpt><trkpt lat="24.946986500551592" lon="121.36914614541536"><ele>40.0</ele><time>2026-03-22T02:09:12.001Z</time></trkpt><trkpt lat="24.94683551970821" lon="121.3689144526162"><ele>41.0</ele><time>2026-03-22T02:09:13.001Z</time></trkpt><trkpt lat="24.94668283681531" lon="121.36868327991003"><ele>42.0</ele><time>2026-03-22T02:09:14.001Z</time></trkpt><trkpt lat="24.946528913910058" lon="121.36845162237418"><ele>42.0</ele><time>2026-03-22T02:09:15.001Z</time></trkpt><trkpt lat="24.94637328926328" lon="121.3682198140821"><ele>42.0</ele><time>2026-03-22T02:09:16.001Z</time></trkpt><trkpt lat="24.946217104568767" lon="121.36798791670508"><ele>41.5</ele><time>2026-03-22T02:09:17.001Z</time></trkpt><trkpt lat="24.94605992177938" lon="121.36775509847739"><ele>41.0</ele><time>2026-03-22T02:09:18.001Z</time></trkpt><trkpt lat="24.94589984310626" lon="121.36752383236491"><ele>41.0</ele><time>2026-03-22T02:09:19.001Z</time></trkpt><trkpt lat="24.945735659515403" lon="121.36729626169154"><ele>41.0</ele><time>2026-03-22T02:09:20.001Z</time></trkpt><trkpt lat="24.945567381927425" lon="121.36707158968522"><ele>41.0</ele><time>2026-03-22T02:09:21.001Z</time></trkpt><trkpt lat="24.945395708278163" lon="121.36685031376503"><ele>41.0</ele><time>2026-03-22T02:09:22.001Z</time></trkpt><trkpt lat="24.945220454830746" lon="121.36663090413202"><ele>41.0</ele><time>2026-03-22T02:09:23.001Z</time></trkpt><trkpt lat="24.945043190588557" lon="121.36641384438019"><ele>41.0</ele><time>2026-03-22T02:09:24.001Z</time></trkpt><trkpt lat="24.94486673366765" lon="121.36620252365537"><ele>41.0</ele><time>2026-03-22T02:09:25.001Z</time></trkpt><trkpt lat="24.944690104816548" lon="121.36599330552153"><ele>41.0</ele><time>2026-03-22T02:09:26.001Z</time></trkpt><trkpt lat="24.944514471327413" lon="121.36578677609518"><ele>41.0</ele><time>2026-03-22T02:09:27.001Z</time></trkpt><trkpt lat="24.94433517442095" lon="121.36558192291258"><ele>41.0</ele><time>2026-03-22T02:09:28.001Z</time></trkpt><trkpt lat="24.9441548569296" lon="121.36537970120942"><ele>40.5</ele><time>2026-03-22T02:09:29.001Z</time></trkpt><trkpt lat="24.943972936963608" lon="121.36517808959658"><ele>40.0</ele><time>2026-03-22T02:09:30.001Z</time></trkpt><trkpt lat="24.943789646100235" lon="121.36497792913421"><ele>40.0</ele><time>2026-03-22T02:09:31.001Z</time></trkpt><trkpt lat="24.94360489021979" lon="121.36477908431691"><ele>40.0</ele><time>2026-03-22T02:09:32.001Z</time></trkpt><trkpt lat="24.94341876389517" lon="121.36458179153935"><ele>40.5</ele><time>2026-03-22T02:09:33.001Z</time></trkpt><trkpt lat="24.943232518212323" lon="121.36438567195734"><ele>41.0</ele><time>2026-03-22T02:09:34.001Z</time></trkpt><trkpt lat="24.943044424410427" lon="121.3641902769437"><ele>41.0</ele><time>2026-03-22T02:09:35.001Z</time></trkpt><trkpt lat="24.942856322379367" lon="121.3639953978451"><ele>41.0</ele><time>2026-03-22T02:09:36.001Z</time></trkpt><trkpt lat="24.942668919530803" lon="121.36380018696305"><ele>42.0</ele><time>2026-03-22T02:09:37.001Z</time></trkpt><trkpt lat="24.942481713322046" lon="121.36360738337686"><ele>43.0</ele><time>2026-03-22T02:09:38.001Z</time></trkpt><trkpt lat="24.942295633520636" lon="121.36341781464644"><ele>43.0</ele><time>2026-03-22T02:09:39.001Z</time></trkpt><trkpt lat="24.94210997413268" lon="121.36323101221268"><ele>43.0</ele><time>2026-03-22T02:09:40.001Z</time></trkpt><trkpt lat="24.941925451955484" lon="121.36304823502022"><ele>43.0</ele><time>2026-03-22T02:09:41.001Z</time></trkpt><trkpt lat="24.94174199090539" lon="121.36286620611722"><ele>43.0</ele><time>2026-03-22T02:09:42.001Z</time></trkpt><trkpt lat="24.941559880717932" lon="121.36268746557046"><ele>43.0</ele><time>2026-03-22T02:09:43.001Z</time></trkpt><trkpt lat="24.941379297731388" lon="121.3625105727732"><ele>43.0</ele><time>2026-03-22T02:09:44.001Z</time></trkpt><trkpt lat="24.941199139279686" lon="121.36233490086346"><ele>43.5</ele><time>2026-03-22T02:09:45.001Z</time></trkpt><trkpt lat="24.941023224032868" lon="121.36215950547466"><ele>44.0</ele><time>2026-03-22T02:09:46.001Z</time></trkpt><trkpt lat="24.940849780355798" lon="121.36198607167438"><ele>44.0</ele><time>2026-03-22T02:09:47.001Z</time></trkpt><trkpt lat="24.940677964376523" lon="121.36181347443969"><ele>44.0</ele><time>2026-03-22T02:09:48.001Z</time></trkpt><trkpt lat="24.940509282036434" lon="121.36164178957662"><ele>44.0</ele><time>2026-03-22T02:09:49.001Z</time></trkpt><trkpt lat="24.940344728641083" lon="121.36146954974085"><ele>44.0</ele><time>2026-03-22T02:09:50.001Z</time></trkpt><trkpt lat="24.940182060023574" lon="121.36129770350693"><ele>45.33333333333333</ele><time>2026-03-22T02:09:51.001Z</time></trkpt><trkpt lat="24.94002176851091" lon="121.36112748064609"><ele>46.666666666666664</ele><time>2026-03-22T02:09:52.001Z</time></trkpt><trkpt lat="24.939864337988322" lon="121.36095831428494"><ele>48.0</ele><time>2026-03-22T02:09:53.001Z</time></trkpt><trkpt lat="24.939710003512083" lon="121.36078926914037"><ele>48.0</ele><time>2026-03-22T02:09:54.001Z</time></trkpt><trkpt lat="24.939557700981627" lon="121.36062075217558"><ele>48.0</ele><time>2026-03-22T02:09:55.001Z</time></trkpt><trkpt lat="24.93940641576586" lon="121.36045238927683"><ele>48.0</ele><time>2026-03-22T02:09:56.001Z</time></trkpt><trkpt lat="24.93925746004586" lon="121.36028260187011"><ele>48.66666666666667</ele><time>2026-03-22T02:09:57.001Z</time></trkpt><trkpt lat="24.93910997065794" lon="121.36011162825805"><ele>49.333333333333336</ele><time>2026-03-22T02:09:58.001Z</time></trkpt><trkpt lat="24.93896337683932" lon="121.35993818671787"><ele>50.0</ele><time>2026-03-22T02:09:59.001Z</time></trkpt><trkpt lat="24.938819248661698" lon="121.35976647005499"><ele>48.333333333333336</ele><time>2026-03-22T02:10:00.001Z</time></trkpt><trkpt lat="24.938675983154468" lon="121.35959429595728"><ele>46.66666666666667</ele><time>2026-03-22T02:10:01.001Z</time></trkpt><trkpt lat="24.938536092491194" lon="121.35942219451411"><ele>45.0</ele><time>2026-03-22T02:10:02.001Z</time></trkpt><trkpt lat="24.938399127092453" lon="121.35925113129416"><ele>45.333333333333336</ele><time>2026-03-22T02:10:03.001Z</time></trkpt><trkpt lat="24.938264983973273" lon="121.35907979621597"><ele>45.66666666666667</ele><time>2026-03-22T02:10:04.001Z</time></trkpt><trkpt lat="24.938133822479628" lon="121.35890782972001"><ele>46.0</ele><time>2026-03-22T02:10:05.001Z</time></trkpt><trkpt lat="24.93800506813673" lon="121.35873514759282"><ele>46.0</ele><time>2026-03-22T02:10:06.001Z</time></trkpt><trkpt lat="24.937877357196655" lon="121.3585614748734"><ele>46.0</ele><time>2026-03-22T02:10:07.001Z</time></trkpt><trkpt lat="24.937752634057293" lon="121.35838735188759"><ele>46.0</ele><time>2026-03-22T02:10:08.001Z</time></trkpt><trkpt lat="24.93763115440711" lon="121.3582142647352"><ele>46.0</ele><time>2026-03-22T02:10:09.001Z</time></trkpt><trkpt lat="24.937512759459096" lon="121.35804010172106"><ele>46.0</ele><time>2026-03-22T02:10:10.001Z</time></trkpt><trkpt lat="24.937395848820746" lon="121.35786207918416"><ele>46.0</ele><time>2026-03-22T02:10:11.001Z</time></trkpt><trkpt lat="24.937280016789277" lon="121.35768168022126"><ele>46.0</ele><time>2026-03-22T02:10:12.001Z</time></trkpt><trkpt lat="24.937165284794784" lon="121.35749807457171"><ele>46.0</ele><time>2026-03-22T02:10:13.001Z</time></trkpt><trkpt lat="24.937051392497917" lon="121.35731193533937"><ele>46.0</ele><time>2026-03-22T02:10:14.001Z</time></trkpt><trkpt lat="24.93693905893852" lon="121.3571228465401"><ele>46.66666666666667</ele><time>2026-03-22T02:10:15.001Z</time></trkpt><trkpt lat="24.9368284345191" lon="121.35693014861236"><ele>47.333333333333336</ele><time>2026-03-22T02:10:16.001Z</time></trkpt><trkpt lat="24.936720031263256" lon="121.35673450557356"><ele>48.0</ele><time>2026-03-22T02:10:17.001Z</time></trkpt><trkpt lat="24.936613000121017" lon="121.35653470941989"><ele>48.66666666666667</ele><time>2026-03-22T02:10:18.001Z</time></trkpt><trkpt lat="24.936508011090513" lon="121.35633113641623"><ele>49.333333333333336</ele><time>2026-03-22T02:10:19.001Z</time></trkpt><trkpt lat="24.936406771381808" lon="121.35612685534197"><ele>50.0</ele><time>2026-03-22T02:10:20.001Z</time></trkpt><trkpt lat="24.936308928669575" lon="121.35592223721174"><ele>50.0</ele><time>2026-03-22T02:10:21.001Z</time></trkpt><trkpt lat="24.936213279169063" lon="121.35571445400976"><ele>50.0</ele><time>2026-03-22T02:10:22.001Z</time></trkpt><trkpt lat="24.93612046364623" lon="121.35550434376704"><ele>50.0</ele><time>2026-03-22T02:10:23.001Z</time></trkpt><trkpt lat="24.936031023964297" lon="121.35529055855154"><ele>50.0</ele><time>2026-03-22T02:10:24.001Z</time></trkpt><trkpt lat="24.93594395576022" lon="121.35507418473232"><ele>50.0</ele><time>2026-03-22T02:10:25.001Z</time></trkpt><trkpt lat="24.93586005156296" lon="121.35485521602136"><ele>50.0</ele><time>2026-03-22T02:10:26.001Z</time></trkpt><trkpt lat="24.935777893367014" lon="121.35463388583234"><ele>50.0</ele><time>2026-03-22T02:10:27.001Z</time></trkpt><trkpt lat="24.935698708729454" lon="121.35440984937716"><ele>50.0</ele><time>2026-03-22T02:10:28.001Z</time></trkpt><trkpt lat="24.9356212257461" lon="121.35418336131723"><ele>50.0</ele><time>2026-03-22T02:10:29.001Z</time></trkpt><trkpt lat="24.935544423595847" lon="121.35395440606584"><ele>49.333333333333336</ele><time>2026-03-22T02:10:30.001Z</time></trkpt><trkpt lat="24.935470055134566" lon="121.35372391743866"><ele>48.66666666666667</ele><time>2026-03-22T02:10:31.001Z</time></trkpt><trkpt lat="24.935400295389933" lon="121.3534903693181"><ele>48.0</ele><time>2026-03-22T02:10:32.001Z</time></trkpt><trkpt lat="24.935337265832697" lon="121.3532529372329"><ele>47.5</ele><time>2026-03-22T02:10:33.001Z</time></trkpt><trkpt lat="24.935277747626174" lon="121.35301349037024"><ele>47.0</ele><time>2026-03-22T02:10:34.001Z</time></trkpt><trkpt lat="24.935221363840974" lon="121.35277307239464"><ele>47.0</ele><time>2026-03-22T02:10:35.001Z</time></trkpt><trkpt lat="24.935168509557062" lon="121.35253202792993"><ele>47.0</ele><time>2026-03-22T02:10:36.001Z</time></trkpt><trkpt lat="24.935119545254395" lon="121.35229067106938"><ele>47.0</ele><time>2026-03-22T02:10:37.001Z</time></trkpt><trkpt lat="24.935075723338866" lon="121.3520476991132"><ele>48.5</ele><time>2026-03-22T02:10:38.001Z</time></trkpt><trkpt lat="24.93503382020159" lon="121.35180330817195"><ele>50.0</ele><time>2026-03-22T02:10:39.001Z</time></trkpt><trkpt lat="24.934993543564897" lon="121.35155769117858"><ele>48.5</ele><time>2026-03-22T02:10:40.001Z</time></trkpt><trkpt lat="24.934957213788074" lon="121.35130932778777"><ele>47.0</ele><time>2026-03-22T02:10:41.001Z</time></trkpt><trkpt lat="24.934926063629646" lon="121.35105957722078"><ele>47.0</ele><time>2026-03-22T02:10:42.001Z</time></trkpt><trkpt lat="24.934899281399066" lon="121.35080743329961"><ele>47.0</ele><time>2026-03-22T02:10:43.001Z</time></trkpt><trkpt lat="24.934875584757016" lon="121.35055332412534"><ele>45.5</ele><time>2026-03-22T02:10:44.001Z</time></trkpt><trkpt lat="24.934856279030033" lon="121.35029833654616"><ele>44.0</ele><time>2026-03-22T02:10:45.001Z</time></trkpt><trkpt lat="24.934840798772953" lon="121.35004202767354"><ele>44.0</ele><time>2026-03-22T02:10:46.001Z</time></trkpt><trkpt lat="24.934830050174607" lon="121.34978568811593"><ele>44.0</ele><time>2026-03-22T02:10:47.001Z</time></trkpt><trkpt lat="24.934822035519513" lon="121.34953041580748"><ele>42.0</ele><time>2026-03-22T02:10:48.001Z</time></trkpt><trkpt lat="24.93481881006171" lon="121.34927517972143"><ele>40.0</ele><time>2026-03-22T02:10:49.001Z</time></trkpt><trkpt lat="24.934821063987933" lon="121.34902013623771"><ele>38.0</ele><time>2026-03-22T02:10:50.001Z</time></trkpt><trkpt lat="24.934826725537224" lon="121.34876383087597"><ele>36.0</ele><time>2026-03-22T02:10:51.001Z</time></trkpt><trkpt lat="24.934837045345535" lon="121.34850783336273"><ele>36.0</ele><time>2026-03-22T02:10:52.001Z</time></trkpt><trkpt lat="24.934851329824617" lon="121.34825163834098"><ele>36.0</ele><time>2026-03-22T02:10:53.001Z</time></trkpt><trkpt lat="24.934867185675913" lon="121.34799598521818"><ele>36.5</ele><time>2026-03-22T02:10:54.001Z</time></trkpt><trkpt lat="24.93488662098591" lon="121.34774005143137"><ele>37.0</ele><time>2026-03-22T02:10:55.001Z</time></trkpt><trkpt lat="24.93490953535452" lon="121.34748629285338"><ele>37.0</ele><time>2026-03-22T02:10:56.001Z</time></trkpt><trkpt lat="24.934936659483718" lon="121.34723242255403"><ele>37.0</ele><time>2026-03-22T02:10:57.001Z</time></trkpt><trkpt lat="24.934968588315204" lon="121.3469774779438"><ele>39.0</ele><time>2026-03-22T02:10:58.001Z</time></trkpt><trkpt lat="24.93500408998515" lon="121.34672443817881"><ele>41.0</ele><time>2026-03-22T02:10:59.001Z</time></trkpt><trkpt lat="24.935041442050444" lon="121.34647167997956"><ele>45.0</ele><time>2026-03-22T02:11:00.001Z</time></trkpt><trkpt lat="24.935082955184114" lon="121.34622284389421"><ele>49.0</ele><time>2026-03-22T02:11:01.001Z</time></trkpt><trkpt lat="24.935127231097393" lon="121.34597726290356"><ele>49.0</ele><time>2026-03-22T02:11:02.001Z</time></trkpt><trkpt lat="24.9351735672221" lon="121.34573330344381"><ele>49.0</ele><time>2026-03-22T02:11:03.001Z</time></trkpt><trkpt lat="24.935221888585684" lon="121.34549169977535"><ele>49.0</ele><time>2026-03-22T02:11:04.001Z</time></trkpt><trkpt lat="24.93527076826824" lon="121.34525280562627"><ele>49.0</ele><time>2026-03-22T02:11:05.001Z</time></trkpt><trkpt lat="24.935322343574814" lon="121.34501711634267"><ele>49.0</ele><time>2026-03-22T02:11:06.001Z</time></trkpt><trkpt lat="24.935375338766637" lon="121.34478359916405"><ele>48.666666666666664</ele><time>2026-03-22T02:11:07.001Z</time></trkpt><trkpt lat="24.935430638287503" lon="121.34455328606063"><ele>48.33333333333333</ele><time>2026-03-22T02:11:08.001Z</time></trkpt><trkpt lat="24.935487585114977" lon="121.34432599930986"><ele>48.0</ele><time>2026-03-22T02:11:09.001Z</time></trkpt><trkpt lat="24.9355445401801" lon="121.34409957476635"><ele>49.33333333333333</ele><time>2026-03-22T02:11:10.001Z</time></trkpt><trkpt lat="24.935604608093108" lon="121.34387272577958"><ele>50.666666666666664</ele><time>2026-03-22T02:11:11.001Z</time></trkpt><trkpt lat="24.93566682755605" lon="121.34364497131435"><ele>52.0</ele><time>2026-03-22T02:11:12.001Z</time></trkpt><trkpt lat="24.93573115847214" lon="121.34341661876473"><ele>52.0</ele><time>2026-03-22T02:11:13.001Z</time></trkpt><trkpt lat="24.935797885994113" lon="121.34318782684869"><ele>52.0</ele><time>2026-03-22T02:11:14.001Z</time></trkpt><trkpt lat="24.935865604420464" lon="121.34295897125331"><ele>52.0</ele><time>2026-03-22T02:11:15.001Z</time></trkpt><trkpt lat="24.935934282522435" lon="121.34272990750374"><ele>52.666666666666664</ele><time>2026-03-22T02:11:16.001Z</time></trkpt><trkpt lat="24.936004916489082" lon="121.34250136751037"><ele>53.33333333333333</ele><time>2026-03-22T02:11:17.001Z</time></trkpt><trkpt lat="24.936076424058488" lon="121.34227345230113"><ele>54.0</ele><time>2026-03-22T02:11:18.001Z</time></trkpt><trkpt lat="24.936148922336994" lon="121.3420461382988"><ele>54.0</ele><time>2026-03-22T02:11:19.001Z</time></trkpt><trkpt lat="24.936222854963567" lon="121.34182002483169"><ele>54.0</ele><time>2026-03-22T02:11:20.001Z</time></trkpt><trkpt lat="24.93629766855093" lon="121.34159424440408"><ele>54.0</ele><time>2026-03-22T02:11:21.001Z</time></trkpt><trkpt lat="24.93637326407527" lon="121.34136983915269"><ele>55.0</ele><time>2026-03-22T02:11:22.001Z</time></trkpt><trkpt lat="24.936450338635087" lon="121.34114640987458"><ele>56.0</ele><time>2026-03-22T02:11:23.001Z</time></trkpt><trkpt lat="24.936527912653904" lon="121.34092179991558"><ele>57.0</ele><time>2026-03-22T02:11:24.001Z</time></trkpt><trkpt lat="24.936605986116863" lon="121.34069719929421"><ele>57.0</ele><time>2026-03-22T02:11:25.001Z</time></trkpt><trkpt lat="24.936685536920276" lon="121.34047205841578"><ele>57.0</ele><time>2026-03-22T02:11:26.001Z</time></trkpt><trkpt lat="24.93676575172061" lon="121.34024682212898"><ele>57.0</ele><time>2026-03-22T02:11:27.001Z</time></trkpt><trkpt lat="24.936847783313247" lon="121.34002076793217"><ele>57.0</ele><time>2026-03-22T02:11:28.001Z</time></trkpt><trkpt lat="24.93693035216186" lon="121.3397943774202"><ele>57.0</ele><time>2026-03-22T02:11:29.001Z</time></trkpt><trkpt lat="24.93701262845988" lon="121.33956674608561"><ele>57.0</ele><time>2026-03-22T02:11:30.001Z</time></trkpt><trkpt lat="24.937095415807146" lon="121.33933811883558"><ele>57.0</ele><time>2026-03-22T02:11:31.001Z</time></trkpt><trkpt lat="24.937178315082853" lon="121.33910963079943"><ele>57.0</ele><time>2026-03-22T02:11:32.001Z</time></trkpt><trkpt lat="24.937261926036133" lon="121.33888107762236"><ele>57.0</ele><time>2026-03-22T02:11:33.001Z</time></trkpt><trkpt lat="24.93734507691193" lon="121.33865281030083"><ele>59.0</ele><time>2026-03-22T02:11:34.001Z</time></trkpt><trkpt lat="24.937428127611312" lon="121.33842419914667"><ele>61.0</ele><time>2026-03-22T02:11:35.001Z</time></trkpt><trkpt lat="24.93750939014698" lon="121.33819602509634"><ele>63.0</ele><time>2026-03-22T02:11:36.001Z</time></trkpt><trkpt lat="24.937591825296" lon="121.33796806800994"><ele>63.33333333333333</ele><time>2026-03-22T02:11:37.001Z</time></trkpt><trkpt lat="24.937674989475987" lon="121.33773988001099"><ele>63.666666666666664</ele><time>2026-03-22T02:11:38.001Z</time></trkpt><trkpt lat="24.937757288763027" lon="121.3375116728154"><ele>64.0</ele><time>2026-03-22T02:11:39.001Z</time></trkpt><trkpt lat="24.937838115251267" lon="121.33728309225532"><ele>64.33333333333333</ele><time>2026-03-22T02:11:40.001Z</time></trkpt><trkpt lat="24.937917954631065" lon="121.33705441234676"><ele>64.66666666666667</ele><time>2026-03-22T02:11:41.001Z</time></trkpt><trkpt lat="24.93799779435063" lon="121.33682574497344"><ele>65.0</ele><time>2026-03-22T02:11:42.001Z</time></trkpt><trkpt lat="24.938076553210294" lon="121.33659592160816"><ele>66.0</ele><time>2026-03-22T02:11:43.001Z</time></trkpt><trkpt lat="24.938155276921062" lon="121.33636496846174"><ele>67.0</ele><time>2026-03-22T02:11:44.001Z</time></trkpt><trkpt lat="24.93823305410113" lon="121.33613071742218"><ele>67.0</ele><time>2026-03-22T02:11:45.001Z</time></trkpt><trkpt lat="24.938308482560245" lon="121.33589166746653"><ele>67.0</ele><time>2026-03-22T02:11:46.001Z</time></trkpt><trkpt lat="24.938382473107236" lon="121.33564900942417"><ele>69.5</ele><time>2026-03-22T02:11:47.001Z</time></trkpt><trkpt lat="24.93845446529597" lon="121.33540242157196"><ele>72.0</ele><time>2026-03-22T02:11:48.001Z</time></trkpt><trkpt lat="24.938526947258197" lon="121.33515263229862"><ele>72.0</ele><time>2026-03-22T02:11:49.001Z</time></trkpt><trkpt lat="24.93860003620475" lon="121.33489974004245"><ele>72.0</ele><time>2026-03-22T02:11:50.001Z</time></trkpt><trkpt lat="24.93867211314697" lon="121.33464435907064"><ele>70.5</ele><time>2026-03-22T02:11:51.001Z</time></trkpt><trkpt lat="24.93874482609126" lon="121.33438609359118"><ele>69.0</ele><time>2026-03-22T02:11:52.001Z</time></trkpt><trkpt lat="24.938817437795024" lon="121.33412485063945"><ele>69.5</ele><time>2026-03-22T02:11:53.001Z</time></trkpt><trkpt lat="24.93888859732841" lon="121.33386085207594"><ele>70.0</ele><time>2026-03-22T02:11:54.001Z</time></trkpt><trkpt lat="24.93895968045003" lon="121.33359412712774"><ele>70.0</ele><time>2026-03-22T02:11:55.001Z</time></trkpt><trkpt lat="24.939031419972665" lon="121.33332606118205"><ele>70.0</ele><time>2026-03-22T02:11:56.001Z</time></trkpt><trkpt lat="24.939100450374863" lon="121.33305475221238"><ele>70.0</ele><time>2026-03-22T02:11:57.001Z</time></trkpt><trkpt lat="24.93916522187232" lon="121.33278192236766"><ele>70.0</ele><time>2026-03-22T02:11:58.001Z</time></trkpt><trkpt lat="24.939225567924446" lon="121.33250615208183"><ele>68.0</ele><time>2026-03-22T02:11:59.001Z</time></trkpt><trkpt lat="24.939281970276085" lon="121.33222981755564"><ele>66.0</ele><time>2026-03-22T02:12:00.001Z</time></trkpt><trkpt lat="24.93933589420148" lon="121.33195116721839"><ele>65.0</ele><time>2026-03-22T02:12:01.001Z</time></trkpt><trkpt lat="24.9393871398999" lon="121.33167203663443"><ele>64.0</ele><time>2026-03-22T02:12:02.002Z</time></trkpt><trkpt lat="24.93943654622042" lon="121.33139324570514"><ele>63.0</ele><time>2026-03-22T02:12:03.002Z</time></trkpt><trkpt lat="24.939483461718613" lon="121.331113842156"><ele>62.0</ele><time>2026-03-22T02:12:04.002Z</time></trkpt><trkpt lat="24.93952720954255" lon="121.33083385934755"><ele>63.0</ele><time>2026-03-22T02:12:05.001Z</time></trkpt><trkpt lat="24.939565092312677" lon="121.33055230396447"><ele>64.0</ele><time>2026-03-22T02:12:06.001Z</time></trkpt><trkpt lat="24.939596756873275" lon="121.33027005023611"><ele>64.0</ele><time>2026-03-22T02:12:07.001Z</time></trkpt><trkpt lat="24.939624145080003" lon="121.32998685011512"><ele>64.0</ele><time>2026-03-22T02:12:08.001Z</time></trkpt><trkpt lat="24.939645882925618" lon="121.32970317207817"><ele>66.5</ele><time>2026-03-22T02:12:09.001Z</time></trkpt><trkpt lat="24.939663345583654" lon="121.32941896475118"><ele>69.0</ele><time>2026-03-22T02:12:10.001Z</time></trkpt><trkpt lat="24.939677095660393" lon="121.32913481327498"><ele>68.5</ele><time>2026-03-22T02:12:11.001Z</time></trkpt><trkpt lat="24.93968760851237" lon="121.32885051899817"><ele>68.0</ele><time>2026-03-22T02:12:12.001Z</time></trkpt><trkpt lat="24.939692653044908" lon="121.32856504406013"><ele>68.0</ele><time>2026-03-22T02:12:13.001Z</time></trkpt><trkpt lat="24.93969337606095" lon="121.32828008511389"><ele>68.0</ele><time>2026-03-22T02:12:14.001Z</time></trkpt><trkpt lat="24.939689883134264" lon="121.32799621510124"><ele>68.5</ele><time>2026-03-22T02:12:15.001Z</time></trkpt><trkpt lat="24.93968323096522" lon="121.32771137124645"><ele>69.0</ele><time>2026-03-22T02:12:16.001Z</time></trkpt><trkpt lat="24.939670198118428" lon="121.32742754058665"><ele>69.0</ele><time>2026-03-22T02:12:17.001Z</time></trkpt><trkpt lat="24.939651944413303" lon="121.32714356047642"><ele>69.0</ele><time>2026-03-22T02:12:18.001Z</time></trkpt><trkpt lat="24.939632010187786" lon="121.32686007152753"><ele>69.0</ele><time>2026-03-22T02:12:19.001Z</time></trkpt><trkpt lat="24.939606795196244" lon="121.32657672747993"><ele>69.0</ele><time>2026-03-22T02:12:20.001Z</time></trkpt><trkpt lat="24.93957695705042" lon="121.32629452488086"><ele>67.5</ele><time>2026-03-22T02:12:21.001Z</time></trkpt><trkpt lat="24.939537233963456" lon="121.3260136511918"><ele>66.0</ele><time>2026-03-22T02:12:22.001Z</time></trkpt><trkpt lat="24.939494897564995" lon="121.3257329690401"><ele>67.0</ele><time>2026-03-22T02:12:23.001Z</time></trkpt><trkpt lat="24.939451267261617" lon="121.32545262913284"><ele>68.0</ele><time>2026-03-22T02:12:24.001Z</time></trkpt><trkpt lat="24.93940042879669" lon="121.32517424995372"><ele>68.0</ele><time>2026-03-22T02:12:25.001Z</time></trkpt><trkpt lat="24.939344971147136" lon="121.32489704181639"><ele>68.0</ele><time>2026-03-22T02:12:26.001Z</time></trkpt><trkpt lat="24.93928573616573" lon="121.32462165535715"><ele>70.0</ele><time>2026-03-22T02:12:27.001Z</time></trkpt><trkpt lat="24.939220715662444" lon="121.32434703604105"><ele>72.0</ele><time>2026-03-22T02:12:28.001Z</time></trkpt><trkpt lat="24.93915297260185" lon="121.32407179395466"><ele>71.5</ele><time>2026-03-22T02:12:29.001Z</time></trkpt><trkpt lat="24.939080227463894" lon="121.32379893271273"><ele>71.0</ele><time>2026-03-22T02:12:30.001Z</time></trkpt><trkpt lat="24.939002790256843" lon="121.32352805442927"><ele>71.0</ele><time>2026-03-22T02:12:31.001Z</time></trkpt><trkpt lat="24.938921071675395" lon="121.32325903294559"><ele>71.0</ele><time>2026-03-22T02:12:32.001Z</time></trkpt><trkpt lat="24.93883735609405" lon="121.32299081009113"><ele>71.0</ele><time>2026-03-22T02:12:33.001Z</time></trkpt><trkpt lat="24.93875053217055" lon="121.32272368631743"><ele>71.0</ele><time>2026-03-22T02:12:34.001Z</time></trkpt><trkpt lat="24.938658092224237" lon="121.3224597139229"><ele>73.0</ele><time>2026-03-22T02:12:35.001Z</time></trkpt><trkpt lat="24.938558888373787" lon="121.32220013780793"><ele>75.0</ele><time>2026-03-22T02:12:36.001Z</time></trkpt><trkpt lat="24.938456454291327" lon="121.32194582566594"><ele>74.0</ele><time>2026-03-22T02:12:37.001Z</time></trkpt><trkpt lat="24.938353634331815" lon="121.32169509014396"><ele>73.0</ele><time>2026-03-22T02:12:38.001Z</time></trkpt><trkpt lat="24.938248526171193" lon="121.32144838651855"><ele>75.0</ele><time>2026-03-22T02:12:39.001Z</time></trkpt><trkpt lat="24.938140362374945" lon="121.32120673408345"><ele>77.0</ele><time>2026-03-22T02:12:40.001Z</time></trkpt><trkpt lat="24.93802937671729" lon="121.32096970968361"><ele>77.0</ele><time>2026-03-22T02:12:41.001Z</time></trkpt><trkpt lat="24.937915460757665" lon="121.32073767666081"><ele>77.0</ele><time>2026-03-22T02:12:42.001Z</time></trkpt><trkpt lat="24.937799930157126" lon="121.32051065978749"><ele>79.5</ele><time>2026-03-22T02:12:43.001Z</time></trkpt><trkpt lat="24.937683284334348" lon="121.32028732786453"><ele>82.0</ele><time>2026-03-22T02:12:44.001Z</time></trkpt><trkpt lat="24.937564213994744" lon="121.32006834325452"><ele>82.33333333333333</ele><time>2026-03-22T02:12:45.001Z</time></trkpt><trkpt lat="24.937444731609382" lon="121.31985603382022"><ele>82.66666666666667</ele><time>2026-03-22T02:12:46.001Z</time></trkpt><trkpt lat="24.937324762198944" lon="121.3196498967174"><ele>83.0</ele><time>2026-03-22T02:12:47.001Z</time></trkpt><trkpt lat="24.937203572123824" lon="121.31944830377614"><ele>83.0</ele><time>2026-03-22T02:12:48.001Z</time></trkpt><trkpt lat="24.937079887333603" lon="121.31925107442258"><ele>83.0</ele><time>2026-03-22T02:12:49.001Z</time></trkpt><trkpt lat="24.93695340421913" lon="121.31905482919161"><ele>83.0</ele><time>2026-03-22T02:12:50.001Z</time></trkpt><trkpt lat="24.936824632635368" lon="121.31886147267295"><ele>82.33333333333334</ele><time>2026-03-22T02:12:51.001Z</time></trkpt><trkpt lat="24.93669301351721" lon="121.31866990033352"><ele>81.66666666666667</ele><time>2026-03-22T02:12:52.001Z</time></trkpt><trkpt lat="24.936559017198107" lon="121.31847957487221"><ele>81.0</ele><time>2026-03-22T02:12:53.001Z</time></trkpt><trkpt lat="24.936420861726955" lon="121.31829177952542"><ele>81.0</ele><time>2026-03-22T02:12:54.001Z</time></trkpt><trkpt lat="24.936278987402165" lon="121.31810815754407"><ele>81.0</ele><time>2026-03-22T02:12:55.001Z</time></trkpt><trkpt lat="24.936135732849415" lon="121.31792481312654"><ele>81.0</ele><time>2026-03-22T02:12:56.001Z</time></trkpt><trkpt lat="24.935989946123282" lon="121.31774296656654"><ele>80.66666666666667</ele><time>2026-03-22T02:12:57.001Z</time></trkpt><trkpt lat="24.93584184857779" lon="121.31756307218177"><ele>80.33333333333334</ele><time>2026-03-22T02:12:58.001Z</time></trkpt><trkpt lat="24.9356917302655" lon="121.31738548598777"><ele>80.0</ele><time>2026-03-22T02:12:59.001Z</time></trkpt><trkpt lat="24.935539841405355" lon="121.31720899614086"><ele>81.66666666666667</ele><time>2026-03-22T02:13:00.001Z</time></trkpt><trkpt lat="24.93538450611298" lon="121.31703521215401"><ele>83.33333333333333</ele><time>2026-03-22T02:13:01.001Z</time></trkpt><trkpt lat="24.935225522478675" lon="121.31686431341858"><ele>85.0</ele><time>2026-03-22T02:13:02.001Z</time></trkpt><trkpt lat="24.93506496563988" lon="121.3166946218283"><ele>84.66666666666666</ele><time>2026-03-22T02:13:03.001Z</time></trkpt><trkpt lat="24.934903388209648" lon="121.31652442621174"><ele>84.33333333333333</ele><time>2026-03-22T02:13:04.001Z</time></trkpt><trkpt lat="24.93473936158455" lon="121.31635455932101"><ele>84.0</ele><time>2026-03-22T02:13:05.001Z</time></trkpt><trkpt lat="24.934571600333353" lon="121.31618702655135"><ele>83.0</ele><time>2026-03-22T02:13:06.001Z</time></trkpt><trkpt lat="24.934401617807286" lon="121.31602144872554"><ele>82.0</ele><time>2026-03-22T02:13:07.001Z</time></trkpt><trkpt lat="24.934228572427063" lon="121.31585673477456"><ele>80.5</ele><time>2026-03-22T02:13:08.001Z</time></trkpt><trkpt lat="24.934053374664494" lon="121.31569300166099"><ele>79.0</ele><time>2026-03-22T02:13:09.001Z</time></trkpt><trkpt lat="24.93387676703697" lon="121.31552956112597"><ele>79.0</ele><time>2026-03-22T02:13:10.001Z</time></trkpt><trkpt lat="24.933698798168134" lon="121.3153653750094"><ele>79.0</ele><time>2026-03-22T02:13:11.001Z</time></trkpt><trkpt lat="24.933519287977603" lon="121.31520083435159"><ele>78.5</ele><time>2026-03-22T02:13:12.001Z</time></trkpt><trkpt lat="24.933337638225062" lon="121.31503777421156"><ele>78.0</ele><time>2026-03-22T02:13:13.001Z</time></trkpt><trkpt lat="24.933154440103966" lon="121.31487558938264"><ele>78.5</ele><time>2026-03-22T02:13:14.001Z</time></trkpt><trkpt lat="24.932970386065403" lon="121.31471438115197"><ele>79.0</ele><time>2026-03-22T02:13:15.001Z</time></trkpt><trkpt lat="24.93278700790204" lon="121.31455574355834"><ele>79.0</ele><time>2026-03-22T02:13:16.001Z</time></trkpt><trkpt lat="24.932604959321523" lon="121.3143993111198"><ele>79.0</ele><time>2026-03-22T02:13:17.001Z</time></trkpt><trkpt lat="24.93242467344663" lon="121.31424388175608"><ele>78.5</ele><time>2026-03-22T02:13:18.001Z</time></trkpt><trkpt lat="24.932245461512768" lon="121.31408823674256"><ele>78.0</ele><time>2026-03-22T02:13:19.001Z</time></trkpt><trkpt lat="24.93206672012358" lon="121.313933328479"><ele>78.0</ele><time>2026-03-22T02:13:20.001Z</time></trkpt><trkpt lat="24.931889696161335" lon="121.31378133445476"><ele>78.0</ele><time>2026-03-22T02:13:21.001Z</time></trkpt><trkpt lat="24.93171283847689" lon="121.31363034521218"><ele>78.0</ele><time>2026-03-22T02:13:22.001Z</time></trkpt><trkpt lat="24.931536553617416" lon="121.31347824169077"><ele>78.33333333333333</ele><time>2026-03-22T02:13:23.001Z</time></trkpt><trkpt lat="24.931360445047964" lon="121.3133270608219"><ele>78.66666666666666</ele><time>2026-03-22T02:13:24.001Z</time></trkpt><trkpt lat="24.931184499524008" lon="121.31317599238787"><ele>79.0</ele><time>2026-03-22T02:13:25.001Z</time></trkpt><trkpt lat="24.931010699761597" lon="121.31302565825962"><ele>80.33333333333333</ele><time>2026-03-22T02:13:26.001Z</time></trkpt><trkpt lat="24.930837370346786" lon="121.31287446221823"><ele>81.66666666666667</ele><time>2026-03-22T02:13:27.001Z</time></trkpt><trkpt lat="24.9306645513049" lon="121.3127229526494"><ele>83.0</ele><time>2026-03-22T02:13:28.001Z</time></trkpt><trkpt lat="24.930492118336893" lon="121.3125697354883"><ele>83.0</ele><time>2026-03-22T02:13:29.001Z</time></trkpt><trkpt lat="24.930320119604072" lon="121.31241577810972"><ele>83.0</ele><time>2026-03-22T02:13:30.001Z</time></trkpt><trkpt lat="24.93014871190761" lon="121.31226012323387"><ele>83.0</ele><time>2026-03-22T02:13:31.001Z</time></trkpt><trkpt lat="24.929976713513422" lon="121.31210323723997"><ele>82.33333333333334</ele><time>2026-03-22T02:13:32.001Z</time></trkpt><trkpt lat="24.929805903740643" lon="121.31194531441298"><ele>81.66666666666667</ele><time>2026-03-22T02:13:33.001Z</time></trkpt><trkpt lat="24.929635734797138" lon="121.31178360174276"><ele>81.0</ele><time>2026-03-22T02:13:34.001Z</time></trkpt><trkpt lat="24.929465983950404" lon="121.31161946840069"><ele>81.0</ele><time>2026-03-22T02:13:35.001Z</time></trkpt><trkpt lat="24.92929656419586" lon="121.31145271501798"><ele>81.0</ele><time>2026-03-22T02:13:36.001Z</time></trkpt><trkpt lat="24.929127566017634" lon="121.31128310567476"><ele>83.0</ele><time>2026-03-22T02:13:37.001Z</time></trkpt><trkpt lat="24.9289589672509" lon="121.31111106463648"><ele>85.0</ele><time>2026-03-22T02:13:38.001Z</time></trkpt><trkpt lat="24.928791065346903" lon="121.3109363672112"><ele>85.0</ele><time>2026-03-22T02:13:39.001Z</time></trkpt><trkpt lat="24.928623729719074" lon="121.31075845214899"><ele>85.0</ele><time>2026-03-22T02:13:40.001Z</time></trkpt><trkpt lat="24.92845809583509" lon="121.31057766763797"><ele>85.5</ele><time>2026-03-22T02:13:41.001Z</time></trkpt><trkpt lat="24.92829363282403" lon="121.31039291854647"><ele>86.0</ele><time>2026-03-22T02:13:42.001Z</time></trkpt><trkpt lat="24.928131183900856" lon="121.31020513492328"><ele>86.0</ele><time>2026-03-22T02:13:43.001Z</time></trkpt><trkpt lat="24.927970187092978" lon="121.31001482585862"><ele>86.0</ele><time>2026-03-22T02:13:44.001Z</time></trkpt><trkpt lat="24.927810303291324" lon="121.30982124543952"><ele>85.5</ele><time>2026-03-22T02:13:45.001Z</time></trkpt><trkpt lat="24.927652525757953" lon="121.30962524121932"><ele>85.0</ele><time>2026-03-22T02:13:46.001Z</time></trkpt><trkpt lat="24.92749710445957" lon="121.30942607274926"><ele>85.0</ele><time>2026-03-22T02:13:47.001Z</time></trkpt><trkpt lat="24.927343863342962" lon="121.30922269129708"><ele>85.0</ele><time>2026-03-22T02:13:48.001Z</time></trkpt><trkpt lat="24.927192776639135" lon="121.30901680740885"><ele>85.5</ele><time>2026-03-22T02:13:49.001Z</time></trkpt><trkpt lat="24.9270429510168" lon="121.30880895346903"><ele>86.0</ele><time>2026-03-22T02:13:50.001Z</time></trkpt><trkpt lat="24.926894694405043" lon="121.30859979868595"><ele>86.0</ele><time>2026-03-22T02:13:51.001Z</time></trkpt><trkpt lat="24.926749222894337" lon="121.30838696242195"><ele>86.0</ele><time>2026-03-22T02:13:52.001Z</time></trkpt><trkpt lat="24.926606503087218" lon="121.30817167689015"><ele>83.5</ele><time>2026-03-22T02:13:53.001Z</time></trkpt><trkpt lat="24.926465788811598" lon="121.30795343232914"><ele>81.0</ele><time>2026-03-22T02:13:54.001Z</time></trkpt><trkpt lat="24.926328639121348" lon="121.3077331749042"><ele>81.0</ele><time>2026-03-22T02:13:55.001Z</time></trkpt><trkpt lat="24.92619425297118" lon="121.30751339158851"><ele>81.0</ele><time>2026-03-22T02:13:56.001Z</time></trkpt><trkpt lat="24.926064329866854" lon="121.30729400516275"><ele>83.0</ele><time>2026-03-22T02:13:57.001Z</time></trkpt><trkpt lat="24.925938397687716" lon="121.30707259223497"><ele>85.0</ele><time>2026-03-22T02:13:58.001Z</time></trkpt><trkpt lat="24.92581447586251" lon="121.30684913065059"><ele>85.0</ele><time>2026-03-22T02:13:59.001Z</time></trkpt><trkpt lat="24.925693002313835" lon="121.30662349659684"><ele>85.0</ele><time>2026-03-22T02:14:00.001Z</time></trkpt><trkpt lat="24.925573185856354" lon="121.30639651493128"><ele>85.5</ele><time>2026-03-22T02:14:01.001Z</time></trkpt><trkpt lat="24.925454295062988" lon="121.30616864664407"><ele>86.0</ele><time>2026-03-22T02:14:02.001Z</time></trkpt><trkpt lat="24.9253369185024" lon="121.30593818907533"><ele>86.0</ele><time>2026-03-22T02:14:03.001Z</time></trkpt><trkpt lat="24.925222076568932" lon="121.30570589022572"><ele>86.0</ele><time>2026-03-22T02:14:04.001Z</time></trkpt><trkpt lat="24.925108209797347" lon="121.30547263967235"><ele>87.0</ele><time>2026-03-22T02:14:05.001Z</time></trkpt><trkpt lat="24.9249950339014" lon="121.30523816167204"><ele>88.0</ele><time>2026-03-22T02:14:06.001Z</time></trkpt><trkpt lat="24.924882134470128" lon="121.30500376276505"><ele>88.0</ele><time>2026-03-22T02:14:07.001Z</time></trkpt><trkpt lat="24.924769545104734" lon="121.30476739178542"><ele>88.0</ele><time>2026-03-22T02:14:08.001Z</time></trkpt><trkpt lat="24.924657803714965" lon="121.30453083593059"><ele>88.5</ele><time>2026-03-22T02:14:09.001Z</time></trkpt><trkpt lat="24.924546814854345" lon="121.30429388521507"><ele>89.0</ele><time>2026-03-22T02:14:10.001Z</time></trkpt><trkpt lat="24.924436142939516" lon="121.30405651744634"><ele>89.5</ele><time>2026-03-22T02:14:11.001Z</time></trkpt><trkpt lat="24.92432381537825" lon="121.30381933844092"><ele>90.0</ele><time>2026-03-22T02:14:12.001Z</time></trkpt><trkpt lat="24.924210292228807" lon="121.30358221204138"><ele>90.5</ele><time>2026-03-22T02:14:13.001Z</time></trkpt><trkpt lat="24.92409770112655" lon="121.30334465668422"><ele>91.0</ele><time>2026-03-22T02:14:14.001Z</time></trkpt><trkpt lat="24.923984884188577" lon="121.30310575457295"><ele>90.0</ele><time>2026-03-22T02:14:15.001Z</time></trkpt><trkpt lat="24.923870932253426" lon="121.30286707552614"><ele>89.0</ele><time>2026-03-22T02:14:16.001Z</time></trkpt><trkpt lat="24.92375672532141" lon="121.30262849255166"><ele>89.0</ele><time>2026-03-22T02:14:17.001Z</time></trkpt><trkpt lat="24.923640221769954" lon="121.3023901089501"><ele>89.0</ele><time>2026-03-22T02:14:18.001Z</time></trkpt><trkpt lat="24.9235219195039" lon="121.30215205275798"><ele>90.0</ele><time>2026-03-22T02:14:19.001Z</time></trkpt><trkpt lat="24.923401794798735" lon="121.30191557762308"><ele>91.0</ele><time>2026-03-22T02:14:20.001Z</time></trkpt><trkpt lat="24.92327980953619" lon="121.30167953878959"><ele>91.0</ele><time>2026-03-22T02:14:21.001Z</time></trkpt><trkpt lat="24.923155802970662" lon="121.30144616228316"><ele>91.0</ele><time>2026-03-22T02:14:22.001Z</time></trkpt><trkpt lat="24.92302885867736" lon="121.30121502931858"><ele>94.0</ele><time>2026-03-22T02:14:23.001Z</time></trkpt><trkpt lat="24.922899536511906" lon="121.30098573099015"><ele>97.0</ele><time>2026-03-22T02:14:24.001Z</time></trkpt><trkpt lat="24.922766772004696" lon="121.3007584074606"><ele>97.0</ele><time>2026-03-22T02:14:25.001Z</time></trkpt><trkpt lat="24.922629908690016" lon="121.300533563289"><ele>97.0</ele><time>2026-03-22T02:14:26.001Z</time></trkpt><trkpt lat="24.922489583906366" lon="121.30031174235624"><ele>97.0</ele><time>2026-03-22T02:14:27.001Z</time></trkpt><trkpt lat="24.922347099375266" lon="121.30009226630051"><ele>97.0</ele><time>2026-03-22T02:14:28.001Z</time></trkpt><trkpt lat="24.92220111776744" lon="121.29987489257499"><ele>100.5</ele><time>2026-03-22T02:14:29.001Z</time></trkpt><trkpt lat="24.92205139199099" lon="121.29966114604163"><ele>104.0</ele><time>2026-03-22T02:14:30.001Z</time></trkpt><trkpt lat="24.921897705525865" lon="121.29945073309717"><ele>104.0</ele><time>2026-03-22T02:14:31.001Z</time></trkpt><trkpt lat="24.921741542611468" lon="121.29924404042136"><ele>104.0</ele><time>2026-03-22T02:14:32.001Z</time></trkpt><trkpt lat="24.921581315644616" lon="121.2990404037215"><ele>106.5</ele><time>2026-03-22T02:14:33.001Z</time></trkpt><trkpt lat="24.921418586308214" lon="121.2988397784399"><ele>109.0</ele><time>2026-03-22T02:14:34.001Z</time></trkpt><trkpt lat="24.921252472966806" lon="121.29864250403413"><ele>109.0</ele><time>2026-03-22T02:14:35.001Z</time></trkpt><trkpt lat="24.921083414620785" lon="121.29844972979782"><ele>109.0</ele><time>2026-03-22T02:14:36.001Z</time></trkpt><trkpt lat="24.920911347284743" lon="121.29826052248501"><ele>111.5</ele><time>2026-03-22T02:14:37.001Z</time></trkpt><trkpt lat="24.92073683405092" lon="121.29807424611455"><ele>114.0</ele><time>2026-03-22T02:14:38.001Z</time></trkpt><trkpt lat="24.92056008400866" lon="121.2978914158036"><ele>114.0</ele><time>2026-03-22T02:14:39.001Z</time></trkpt><trkpt lat="24.920379729161446" lon="121.29771268264886"><ele>114.0</ele><time>2026-03-22T02:14:40.001Z</time></trkpt><trkpt lat="24.92019651645048" lon="121.29753720312466"><ele>118.0</ele><time>2026-03-22T02:14:41.001Z</time></trkpt><trkpt lat="24.920010326357925" lon="121.29736684524005"><ele>122.0</ele><time>2026-03-22T02:14:42.001Z</time></trkpt><trkpt lat="24.91982260310023" lon="121.2972003368165"><ele>122.0</ele><time>2026-03-22T02:14:43.001Z</time></trkpt><trkpt lat="24.91963215107673" lon="121.2970357702981"><ele>122.0</ele><time>2026-03-22T02:14:44.001Z</time></trkpt><trkpt lat="24.919439921456185" lon="121.29687636434225"><ele>122.0</ele><time>2026-03-22T02:14:45.001Z</time></trkpt><trkpt lat="24.9192448940933" lon="121.29672101841444"><ele>122.0</ele><time>2026-03-22T02:14:46.001Z</time></trkpt><trkpt lat="24.919048282430367" lon="121.29656934624188"><ele>118.0</ele><time>2026-03-22T02:14:47.001Z</time></trkpt><trkpt lat="24.91884917221569" lon="121.29642161348667"><ele>114.0</ele><time>2026-03-22T02:14:48.001Z</time></trkpt><trkpt lat="24.918647785119088" lon="121.2962785004435"><ele>118.0</ele><time>2026-03-22T02:14:49.001Z</time></trkpt><trkpt lat="24.918444583361605" lon="121.29614010091777"><ele>122.0</ele><time>2026-03-22T02:14:50.001Z</time></trkpt><trkpt lat="24.918239727349498" lon="121.2960048294706"><ele>122.0</ele><time>2026-03-22T02:14:51.001Z</time></trkpt><trkpt lat="24.91803288804648" lon="121.29587240504107"><ele>122.0</ele><time>2026-03-22T02:14:52.001Z</time></trkpt><trkpt lat="24.91782392922765" lon="121.29574367463401"><ele>122.0</ele><time>2026-03-22T02:14:53.001Z</time></trkpt><trkpt lat="24.917613022820913" lon="121.29561725194777"><ele>122.0</ele><time>2026-03-22T02:14:54.001Z</time></trkpt><trkpt lat="24.917401298433298" lon="121.29549377886927"><ele>129.0</ele><time>2026-03-22T02:14:55.001Z</time></trkpt><trkpt lat="24.917188591056586" lon="121.29537414389429"><ele>136.0</ele><time>2026-03-22T02:14:56.001Z</time></trkpt><trkpt lat="24.916973430299866" lon="121.2952566415886"><ele>136.0</ele><time>2026-03-22T02:14:57.001Z</time></trkpt><trkpt lat="24.91675726343751" lon="121.29514189732748"><ele>136.0</ele><time>2026-03-22T02:14:58.001Z</time></trkpt><trkpt lat="24.916540065285883" lon="121.29502931100176"><ele>129.0</ele><time>2026-03-22T02:14:59.001Z</time></trkpt><trkpt lat="24.91632295673697" lon="121.29491678226105"><ele>122.0</ele><time>2026-03-22T02:15:00.001Z</time></trkpt><trkpt lat="24.916104439073834" lon="121.29480613480308"><ele>125.0</ele><time>2026-03-22T02:15:01.001Z</time></trkpt><trkpt lat="24.915886401260963" lon="121.29469446232207"><ele>128.0</ele><time>2026-03-22T02:15:02.001Z</time></trkpt><trkpt lat="24.91566902927361" lon="121.29458258184349"><ele>128.0</ele><time>2026-03-22T02:15:03.001Z</time></trkpt><trkpt lat="24.91545180832376" lon="121.29447101235863"><ele>128.0</ele><time>2026-03-22T02:15:04.001Z</time></trkpt><trkpt lat="24.915234671532026" lon="121.29435982312407"><ele>120.5</ele><time>2026-03-22T02:15:05.001Z</time></trkpt><trkpt lat="24.9150172822705" lon="121.29425087720153"><ele>113.0</ele><time>2026-03-22T02:15:06.001Z</time></trkpt><trkpt lat="24.914800049680387" lon="121.29414146435553"><ele>113.0</ele><time>2026-03-22T02:15:07.001Z</time></trkpt><trkpt lat="24.914583652759728" lon="121.29403130358254"><ele>113.0</ele><time>2026-03-22T02:15:08.001Z</time></trkpt><trkpt lat="24.914368083232297" lon="121.29392087874483"><ele>114.0</ele><time>2026-03-22T02:15:09.001Z</time></trkpt><trkpt lat="24.914154727083663" lon="121.29380627965661"><ele>115.0</ele><time>2026-03-22T02:15:10.001Z</time></trkpt><trkpt lat="24.913943550220672" lon="121.29368824804804"><ele>115.0</ele><time>2026-03-22T02:15:11.001Z</time></trkpt><trkpt lat="24.913733691750735" lon="121.29356817695283"><ele>115.0</ele><time>2026-03-22T02:15:12.001Z</time></trkpt><trkpt lat="24.913525742371984" lon="121.2934457040368"><ele>115.5</ele><time>2026-03-22T02:15:13.001Z</time></trkpt><trkpt lat="24.913320095021618" lon="121.29331975643237"><ele>116.0</ele><time>2026-03-22T02:15:14.001Z</time></trkpt><trkpt lat="24.913116915635484" lon="121.29318958669799"><ele>117.5</ele><time>2026-03-22T02:15:15.001Z</time></trkpt><trkpt lat="24.912914263742234" lon="121.29305694118517"><ele>119.0</ele><time>2026-03-22T02:15:16.001Z</time></trkpt><trkpt lat="24.912714570547315" lon="121.29292050996943"><ele>120.0</ele><time>2026-03-22T02:15:17.001Z</time></trkpt><trkpt lat="24.912518432830858" lon="121.29278026392689"><ele>121.0</ele><time>2026-03-22T02:15:18.001Z</time></trkpt><trkpt lat="24.91232812800756" lon="121.2926386965695"><ele>121.0</ele><time>2026-03-22T02:15:19.001Z</time></trkpt><trkpt lat="24.912144364240913" lon="121.29249434572733"><ele>121.0</ele><time>2026-03-22T02:15:20.001Z</time></trkpt><trkpt lat="24.911967339605013" lon="121.29234716925768"><ele>121.0</ele><time>2026-03-22T02:15:21.001Z</time></trkpt><trkpt lat="24.911795682773864" lon="121.29219826565092"><ele>124.0</ele><time>2026-03-22T02:15:22.001Z</time></trkpt><trkpt lat="24.911628727214687" lon="121.29204783069754"><ele>127.0</ele><time>2026-03-22T02:15:23.001Z</time></trkpt><trkpt lat="24.911465125075544" lon="121.2918948619412"><ele>130.0</ele><time>2026-03-22T02:15:24.001Z</time></trkpt><trkpt lat="24.911304200547608" lon="121.29174030247734"><ele>130.0</ele><time>2026-03-22T02:15:25.001Z</time></trkpt><trkpt lat="24.911147072791728" lon="121.29158235066062"><ele>130.0</ele><time>2026-03-22T02:15:26.001Z</time></trkpt><trkpt lat="24.910993891273797" lon="121.29142093597122"><ele>130.0</ele><time>2026-03-22T02:15:27.001Z</time></trkpt><trkpt lat="24.910844070053404" lon="121.29125648905313"><ele>130.33333333333334</ele><time>2026-03-22T02:15:28.001Z</time></trkpt><trkpt lat="24.9106974977052" lon="121.29108979261723"><ele>130.66666666666666</ele><time>2026-03-22T02:15:29.001Z</time></trkpt><trkpt lat="24.91055495889028" lon="121.2909208004382"><ele>131.0</ele><time>2026-03-22T02:15:30.001Z</time></trkpt><trkpt lat="24.910416563423418" lon="121.29074921689988"><ele>133.33333333333331</ele><time>2026-03-22T02:15:31.001Z</time></trkpt><trkpt lat="24.91028206283184" lon="121.29057470215746"><ele>135.66666666666666</ele><time>2026-03-22T02:15:32.001Z</time></trkpt><trkpt lat="24.910151321518292" lon="121.2903991082078"><ele>138.0</ele><time>2026-03-22T02:15:33.001Z</time></trkpt><trkpt lat="24.910024401062543" lon="121.29022151533212"><ele>138.0</ele><time>2026-03-22T02:15:34.001Z</time></trkpt><trkpt lat="24.90990188095664" lon="121.29004176772672"><ele>138.0</ele><time>2026-03-22T02:15:35.001Z</time></trkpt><trkpt lat="24.90978361108729" lon="121.28986185473903"><ele>138.0</ele><time>2026-03-22T02:15:36.001Z</time></trkpt><trkpt lat="24.909669132272782" lon="121.28968514908117"><ele>143.0</ele><time>2026-03-22T02:15:37.001Z</time></trkpt><trkpt lat="24.909560565065153" lon="121.28950974184818"><ele>148.0</ele><time>2026-03-22T02:15:38.001Z</time></trkpt><trkpt lat="24.909457561138765" lon="121.28933584916786"><ele>153.0</ele><time>2026-03-22T02:15:39.001Z</time></trkpt><trkpt lat="24.90935929630691" lon="121.28916330726909"><ele>153.0</ele><time>2026-03-22T02:15:40.001Z</time></trkpt><trkpt lat="24.90926588576134" lon="121.28899286474292"><ele>153.0</ele><time>2026-03-22T02:15:41.001Z</time></trkpt><trkpt lat="24.909177816653727" lon="121.28882460711732"><ele>153.0</ele><time>2026-03-22T02:15:42.001Z</time></trkpt><trkpt lat="24.90909538171277" lon="121.28866113746685"><ele>152.33333333333334</ele><time>2026-03-22T02:15:43.001Z</time></trkpt><trkpt lat="24.909018927266153" lon="121.28850313980334"><ele>151.66666666666669</ele><time>2026-03-22T02:15:44.001Z</time></trkpt><trkpt lat="24.90894786954785" lon="121.2883478281721"><ele>151.0</ele><time>2026-03-22T02:15:45.001Z</time></trkpt><trkpt lat="24.908881632897025" lon="121.28819575043323"><ele>153.0</ele><time>2026-03-22T02:15:46.001Z</time></trkpt><trkpt lat="24.90881810134716" lon="121.28804530760347"><ele>155.0</ele><time>2026-03-22T02:15:47.001Z</time></trkpt><trkpt lat="24.90875648177334" lon="121.28789849978503"><ele>157.0</ele><time>2026-03-22T02:15:48.001Z</time></trkpt><trkpt lat="24.90869859991181" lon="121.28775525344773"><ele>159.0</ele><time>2026-03-22T02:15:49.001Z</time></trkpt><trkpt lat="24.908642785135328" lon="121.2876155647948"><ele>159.0</ele><time>2026-03-22T02:15:50.001Z</time></trkpt><trkpt lat="24.908590357050578" lon="121.2874796694069"><ele>159.0</ele><time>2026-03-22T02:15:51.001Z</time></trkpt><trkpt lat="24.908540991274148" lon="121.28734584964491"><ele>159.0</ele><time>2026-03-22T02:15:52.001Z</time></trkpt><trkpt lat="24.90849394258889" lon="121.28721295242619"><ele>159.0</ele><time>2026-03-22T02:15:53.001Z</time></trkpt><trkpt lat="24.90844985779072" lon="121.28708217016715"><ele>159.0</ele><time>2026-03-22T02:15:54.001Z</time></trkpt><trkpt lat="24.90840853254022" lon="121.28695290776476"><ele>159.0</ele><time>2026-03-22T02:15:55.001Z</time></trkpt><trkpt lat="24.90837030074151" lon="121.28682468841974"><ele>159.0</ele><time>2026-03-22T02:15:56.001Z</time></trkpt><trkpt lat="24.908333329109283" lon="121.28669819806605"><ele>159.0</ele><time>2026-03-22T02:15:57.001Z</time></trkpt><trkpt lat="24.90829883231258" lon="121.28657358131642"><ele>159.0</ele><time>2026-03-22T02:15:58.001Z</time></trkpt><trkpt lat="24.90826702828491" lon="121.28645075427248"><ele>159.0</ele><time>2026-03-22T02:15:59.001Z</time></trkpt><trkpt lat="24.908237523370303" lon="121.28632849414507"><ele>159.0</ele><time>2026-03-22T02:16:00.001Z</time></trkpt><trkpt lat="24.90822343857808" lon="121.28624248518811"><ele>159.0</ele><time>2026-03-22T02:16:01.001Z</time></trkpt><trkpt lat="24.908193835524305" lon="121.28612340812789"><ele>159.0</ele><time>2026-03-22T02:16:02.001Z</time></trkpt><trkpt lat="24.908165398165075" lon="121.28600209303795"><ele>159.0</ele><time>2026-03-22T02:16:03.001Z</time></trkpt><trkpt lat="24.908137104944473" lon="121.28588106342744"><ele>159.0</ele><time>2026-03-22T02:16:04.001Z</time></trkpt><trkpt lat="24.908109526426458" lon="121.28575735855829"><ele>159.0</ele><time>2026-03-22T02:16:05.001Z</time></trkpt><trkpt lat="24.90808199967043" lon="121.28563135571989"><ele>159.0</ele><time>2026-03-22T02:16:06.001Z</time></trkpt><trkpt lat="24.908055297677226" lon="121.28550314307758"><ele>159.0</ele><time>2026-03-22T02:16:07.001Z</time></trkpt><trkpt lat="24.908030113204184" lon="121.28537524181897"><ele>159.0</ele><time>2026-03-22T02:16:08.001Z</time></trkpt><trkpt lat="24.90800638216275" lon="121.28524350659359"><ele>159.0</ele><time>2026-03-22T02:16:09.001Z</time></trkpt><trkpt lat="24.90798192392953" lon="121.28510808276641"><ele>159.0</ele><time>2026-03-22T02:16:10.001Z</time></trkpt><trkpt lat="24.907958398505247" lon="121.28497622601225"><ele>159.0</ele><time>2026-03-22T02:16:11.001Z</time></trkpt><trkpt lat="24.907935331001017" lon="121.28484923718506"><ele>159.0</ele><time>2026-03-22T02:16:12.001Z</time></trkpt><trkpt lat="24.90791175475646" lon="121.28471845216181"><ele>159.0</ele><time>2026-03-22T02:16:13.001Z</time></trkpt><trkpt lat="24.907888346033864" lon="121.28458120386045"><ele>159.0</ele><time>2026-03-22T02:16:14.001Z</time></trkpt><trkpt lat="24.9078653939951" lon="121.28444267353812"><ele>159.0</ele><time>2026-03-22T02:16:15.001Z</time></trkpt><trkpt lat="24.907843178027402" lon="121.28430440277218"><ele>159.0</ele><time>2026-03-22T02:16:16.001Z</time></trkpt><trkpt lat="24.907821900488294" lon="121.28416148597908"><ele>159.0</ele><time>2026-03-22T02:16:17.001Z</time></trkpt><trkpt lat="24.907800288447607" lon="121.28401466863033"><ele>159.0</ele><time>2026-03-22T02:16:18.001Z</time></trkpt><trkpt lat="24.907778451590882" lon="121.28386216867331"><ele>158.75</ele><time>2026-03-22T02:16:19.001Z</time></trkpt><trkpt lat="24.907756504157003" lon="121.28370925294682"><ele>158.5</ele><time>2026-03-22T02:16:20.001Z</time></trkpt><trkpt lat="24.90773409477746" lon="121.28355413353958"><ele>158.25</ele><time>2026-03-22T02:16:21.001Z</time></trkpt><trkpt lat="24.907711013926146" lon="121.28339139922825"><ele>158.0</ele><time>2026-03-22T02:16:22.001Z</time></trkpt><trkpt lat="24.90768623227115" lon="121.28322280688134"><ele>158.5</ele><time>2026-03-22T02:16:23.001Z</time></trkpt><trkpt lat="24.907660431273015" lon="121.28305132531926"><ele>159.0</ele><time>2026-03-22T02:16:24.001Z</time></trkpt><trkpt lat="24.90751458155192" lon="121.28246372457903"><ele>159.0</ele><time>2026-03-22T02:16:25.001Z</time></trkpt><trkpt lat="24.907472610374352" lon="121.2822107955841"><ele>159.0</ele><time>2026-03-22T02:16:26.001Z</time></trkpt><trkpt lat="24.907455967511687" lon="121.28203151175545"><ele>159.0</ele><time>2026-03-22T02:16:27.001Z</time></trkpt><trkpt lat="24.90743185517874" lon="121.2818387492497"><ele>159.0</ele><time>2026-03-22T02:16:28.001Z</time></trkpt><trkpt lat="24.90740265509627" lon="121.28163708437054"><ele>159.0</ele><time>2026-03-22T02:16:29.001Z</time></trkpt><trkpt lat="24.907369681448127" lon="121.28143138006442"><ele>159.0</ele><time>2026-03-22T02:16:30.001Z</time></trkpt><trkpt lat="24.907333939374332" lon="121.28122001433347"><ele>160.33333333333334</ele><time>2026-03-22T02:16:31.001Z</time></trkpt><trkpt lat="24.90729361003276" lon="121.28100503211118"><ele>161.66666666666669</ele><time>2026-03-22T02:16:32.001Z</time></trkpt><trkpt lat="24.907253566700774" lon="121.28078836349066"><ele>163.0</ele><time>2026-03-22T02:16:33.001Z</time></trkpt><trkpt lat="24.907209825536185" lon="121.28057073158531"><ele>163.0</ele><time>2026-03-22T02:16:34.001Z</time></trkpt><trkpt lat="24.90716475620019" lon="121.28035135145163"><ele>163.0</ele><time>2026-03-22T02:16:35.001Z</time></trkpt><trkpt lat="24.90711564728611" lon="121.28012963757818"><ele>163.0</ele><time>2026-03-22T02:16:36.001Z</time></trkpt><trkpt lat="24.907064791001467" lon="121.27990274949907"><ele>163.66666666666669</ele><time>2026-03-22T02:16:37.001Z</time></trkpt><trkpt lat="24.907008766080367" lon="121.27967477566102"><ele>164.33333333333334</ele><time>2026-03-22T02:16:38.001Z</time></trkpt><trkpt lat="24.906948882966212" lon="121.27944472471852"><ele>165.0</ele><time>2026-03-22T02:16:39.001Z</time></trkpt><trkpt lat="24.906887103814704" lon="121.27921607148832"><ele>165.0</ele><time>2026-03-22T02:16:40.001Z</time></trkpt><trkpt lat="24.906822399948144" lon="121.27899001441973"><ele>165.0</ele><time>2026-03-22T02:16:41.001Z</time></trkpt><trkpt lat="24.906753501524324" lon="121.27876253553482"><ele>165.0</ele><time>2026-03-22T02:16:42.001Z</time></trkpt><trkpt lat="24.906680768694443" lon="121.27853400720757"><ele>164.66666666666666</ele><time>2026-03-22T02:16:43.001Z</time></trkpt><trkpt lat="24.90660376332619" lon="121.27830495812273"><ele>164.33333333333331</ele><time>2026-03-22T02:16:44.001Z</time></trkpt><trkpt lat="24.90652146875549" lon="121.27807467195177"><ele>164.0</ele><time>2026-03-22T02:16:45.001Z</time></trkpt><trkpt lat="24.906433670656018" lon="121.27784347480458"><ele>163.0</ele><time>2026-03-22T02:16:46.001Z</time></trkpt><trkpt lat="24.90634421793923" lon="121.27761268978479"><ele>162.0</ele><time>2026-03-22T02:16:47.001Z</time></trkpt><trkpt lat="24.906253878330418" lon="121.2773844988358"><ele>163.0</ele><time>2026-03-22T02:16:48.001Z</time></trkpt><trkpt lat="24.90621518329811" lon="121.27718006518741"><ele>164.0</ele><time>2026-03-22T02:16:49.001Z</time></trkpt><trkpt lat="24.90611529373336" lon="121.27695473328804"><ele>165.0</ele><time>2026-03-22T02:16:50.001Z</time></trkpt><trkpt lat="24.906003737564635" lon="121.27671545712155"><ele>163.5</ele><time>2026-03-22T02:16:51.001Z</time></trkpt><trkpt lat="24.905880148117117" lon="121.27650153453597"><ele>162.0</ele><time>2026-03-22T02:16:52.001Z</time></trkpt><trkpt lat="24.905761240526495" lon="121.27627370157164"><ele>162.0</ele><time>2026-03-22T02:16:53.001Z</time></trkpt><trkpt lat="24.90564101507472" lon="121.27604219315606"><ele>162.0</ele><time>2026-03-22T02:16:54.001Z</time></trkpt><trkpt lat="24.905516307678457" lon="121.27581695802023"><ele>164.5</ele><time>2026-03-22T02:16:55.001Z</time></trkpt><trkpt lat="24.90535479342674" lon="121.2755935436533"><ele>167.0</ele><time>2026-03-22T02:16:56.001Z</time></trkpt><trkpt lat="24.90522237306918" lon="121.27536985686568"><ele>167.0</ele><time>2026-03-22T02:16:57.001Z</time></trkpt><trkpt lat="24.90508718462076" lon="121.27514486504029"><ele>167.0</ele><time>2026-03-22T02:16:58.001Z</time></trkpt><trkpt lat="24.904947949411063" lon="121.27492208465317"><ele>167.0</ele><time>2026-03-22T02:16:59.001Z</time></trkpt><trkpt lat="24.904804118853562" lon="121.27469822913483"><ele>167.0</ele><time>2026-03-22T02:17:00.001Z</time></trkpt><trkpt lat="24.904657510122785" lon="121.27447234196566"><ele>167.0</ele><time>2026-03-22T02:17:01.001Z</time></trkpt><trkpt lat="24.904510255803693" lon="121.27424927171742"><ele>167.0</ele><time>2026-03-22T02:17:02.001Z</time></trkpt><trkpt lat="24.904358321622915" lon="121.27402564625783"><ele>167.0</ele><time>2026-03-22T02:17:03.001Z</time></trkpt><trkpt lat="24.904202804115965" lon="121.27380269773643"><ele>167.0</ele><time>2026-03-22T02:17:04.001Z</time></trkpt><trkpt lat="24.90404539074228" lon="121.27358001565354"><ele>167.0</ele><time>2026-03-22T02:17:05.001Z</time></trkpt><trkpt lat="24.90388530752648" lon="121.27335788797265"><ele>167.0</ele><time>2026-03-22T02:17:06.001Z</time></trkpt><trkpt lat="24.903722002748975" lon="121.27313750585522"><ele>168.5</ele><time>2026-03-22T02:17:07.001Z</time></trkpt><trkpt lat="24.903556372164772" lon="121.2729184682537"><ele>170.0</ele><time>2026-03-22T02:17:08.001Z</time></trkpt><trkpt lat="24.903387423719767" lon="121.27270101485732"><ele>170.0</ele><time>2026-03-22T02:17:09.001Z</time></trkpt><trkpt lat="24.903216507704002" lon="121.27248549311767"><ele>170.0</ele><time>2026-03-22T02:17:10.001Z</time></trkpt><trkpt lat="24.90304233451511" lon="121.27226994846077"><ele>169.5</ele><time>2026-03-22T02:17:11.001Z</time></trkpt><trkpt lat="24.902867001972943" lon="121.27205617370315"><ele>169.0</ele><time>2026-03-22T02:17:12.001Z</time></trkpt><trkpt lat="24.902690010927465" lon="121.27184356120236"><ele>169.0</ele><time>2026-03-22T02:17:13.001Z</time></trkpt><trkpt lat="24.90251227713123" lon="121.2716340834025"><ele>169.0</ele><time>2026-03-22T02:17:14.001Z</time></trkpt><trkpt lat="24.902333396440334" lon="121.27142530037838"><ele>170.0</ele><time>2026-03-22T02:17:15.001Z</time></trkpt><trkpt lat="24.902152460928225" lon="121.27121595633675"><ele>171.0</ele><time>2026-03-22T02:17:16.001Z</time></trkpt><trkpt lat="24.901969989332095" lon="121.2710098299651"><ele>171.0</ele><time>2026-03-22T02:17:17.001Z</time></trkpt><trkpt lat="24.901785194561892" lon="121.27080643998222"><ele>171.0</ele><time>2026-03-22T02:17:18.001Z</time></trkpt><trkpt lat="24.9015987454162" lon="121.27060642480669"><ele>170.0</ele><time>2026-03-22T02:17:19.001Z</time></trkpt><trkpt lat="24.901408752162993" lon="121.27041161191265"><ele>169.0</ele><time>2026-03-22T02:17:20.001Z</time></trkpt><trkpt lat="24.901217713474445" lon="121.27021899361397"><ele>169.0</ele><time>2026-03-22T02:17:21.001Z</time></trkpt><trkpt lat="24.901023663544564" lon="121.27003091277867"><ele>169.0</ele><time>2026-03-22T02:17:22.001Z</time></trkpt><trkpt lat="24.900828982292246" lon="121.26984572860206"><ele>168.5</ele><time>2026-03-22T02:17:23.001Z</time></trkpt><trkpt lat="24.90063412209208" lon="121.2696618527331"><ele>168.0</ele><time>2026-03-22T02:17:24.001Z</time></trkpt><trkpt lat="24.90043778857021" lon="121.269481454585"><ele>168.0</ele><time>2026-03-22T02:17:25.001Z</time></trkpt><trkpt lat="24.900242764990615" lon="121.26930175669986"><ele>168.0</ele><time>2026-03-22T02:17:26.001Z</time></trkpt><trkpt lat="24.90004587494824" lon="121.26912670948485"><ele>169.5</ele><time>2026-03-22T02:17:27.001Z</time></trkpt><trkpt lat="24.899847360039878" lon="121.26895598850349"><ele>171.0</ele><time>2026-03-22T02:17:28.001Z</time></trkpt><trkpt lat="24.899648137054815" lon="121.26878798535749"><ele>172.0</ele><time>2026-03-22T02:17:29.001Z</time></trkpt><trkpt lat="24.899448424817635" lon="121.2686241765092"><ele>173.0</ele><time>2026-03-22T02:17:30.001Z</time></trkpt><trkpt lat="24.899248175244512" lon="121.2684626218371"><ele>174.0</ele><time>2026-03-22T02:17:31.001Z</time></trkpt><trkpt lat="24.899047887346796" lon="121.268303554338"><ele>175.0</ele><time>2026-03-22T02:17:32.001Z</time></trkpt><trkpt lat="24.898846388581926" lon="121.26814730130711"><ele>172.5</ele><time>2026-03-22T02:17:33.001Z</time></trkpt><trkpt lat="24.89864427240296" lon="121.26799370203115"><ele>170.0</ele><time>2026-03-22T02:17:34.001Z</time></trkpt><trkpt lat="24.898441269950396" lon="121.26784360311225"><ele>171.5</ele><time>2026-03-22T02:17:35.001Z</time></trkpt><trkpt lat="24.89823762306712" lon="121.26769615154181"><ele>173.0</ele><time>2026-03-22T02:17:36.001Z</time></trkpt><trkpt lat="24.898033575266204" lon="121.26755071816893"><ele>173.0</ele><time>2026-03-22T02:17:37.001Z</time></trkpt><trkpt lat="24.897827971340067" lon="121.26740916324448"><ele>173.0</ele><time>2026-03-22T02:17:38.001Z</time></trkpt><trkpt lat="24.89762214383318" lon="121.2672701781285"><ele>174.5</ele><time>2026-03-22T02:17:39.001Z</time></trkpt><trkpt lat="24.897415838598246" lon="121.26713301932185"><ele>176.0</ele><time>2026-03-22T02:17:40.001Z</time></trkpt><trkpt lat="24.89720808500589" lon="121.26699945779818"><ele>176.0</ele><time>2026-03-22T02:17:41.001Z</time></trkpt><trkpt lat="24.897000590975253" lon="121.2668665802158"><ele>176.0</ele><time>2026-03-22T02:17:42.001Z</time></trkpt><trkpt lat="24.89679180873842" lon="121.26673644908792"><ele>180.0</ele><time>2026-03-22T02:17:43.001Z</time></trkpt><trkpt lat="24.896580101004396" lon="121.26661087203506"><ele>184.0</ele><time>2026-03-22T02:17:44.001Z</time></trkpt><trkpt lat="24.8963680532481" lon="121.2664864399335"><ele>182.5</ele><time>2026-03-22T02:17:45.001Z</time></trkpt><trkpt lat="24.89615461933469" lon="121.2663630942033"><ele>181.0</ele><time>2026-03-22T02:17:46.001Z</time></trkpt><trkpt lat="24.895940026325235" lon="121.26624214825081"><ele>182.5</ele><time>2026-03-22T02:17:47.001Z</time></trkpt><trkpt lat="24.895724500869264" lon="121.26612185903318"><ele>184.0</ele><time>2026-03-22T02:17:48.001Z</time></trkpt><trkpt lat="24.89550729443215" lon="121.26600413234648"><ele>184.0</ele><time>2026-03-22T02:17:49.001Z</time></trkpt><trkpt lat="24.895288988650428" lon="121.2658872130382"><ele>184.0</ele><time>2026-03-22T02:17:50.001Z</time></trkpt><trkpt lat="24.895068241725923" lon="121.265775315"><ele>183.0</ele><time>2026-03-22T02:17:51.001Z</time></trkpt><trkpt lat="24.894845521690012" lon="121.26566753399624"><ele>182.0</ele><time>2026-03-22T02:17:52.001Z</time></trkpt><trkpt lat="24.894620659331654" lon="121.2655626804436"><ele>182.0</ele><time>2026-03-22T02:17:53.001Z</time></trkpt><trkpt lat="24.894394983958712" lon="121.26545891103149"><ele>182.0</ele><time>2026-03-22T02:17:54.001Z</time></trkpt><trkpt lat="24.894168907316953" lon="121.26535514980692"><ele>182.0</ele><time>2026-03-22T02:17:55.001Z</time></trkpt><trkpt lat="24.893940890080994" lon="121.26525257251393"><ele>182.0</ele><time>2026-03-22T02:17:56.001Z</time></trkpt><trkpt lat="24.89371224838735" lon="121.26514983315506"><ele>182.0</ele><time>2026-03-22T02:17:57.001Z</time></trkpt><trkpt lat="24.893483674884415" lon="121.26504570243725"><ele>182.0</ele><time>2026-03-22T02:17:58.001Z</time></trkpt><trkpt lat="24.893254885338976" lon="121.26494072948081"><ele>182.5</ele><time>2026-03-22T02:17:59.001Z</time></trkpt><trkpt lat="24.89302497685472" lon="121.26483574783428"><ele>183.0</ele><time>2026-03-22T02:18:00.001Z</time></trkpt><trkpt lat="24.892794837697807" lon="121.26473105493378"><ele>182.5</ele><time>2026-03-22T02:18:01.001Z</time></trkpt><trkpt lat="24.892566218439324" lon="121.26462884870506"><ele>182.0</ele><time>2026-03-22T02:18:02.001Z</time></trkpt><trkpt lat="24.89233177909647" lon="121.26452388764318"><ele>182.0</ele><time>2026-03-22T02:18:03.001Z</time></trkpt><trkpt lat="24.8920987652134" lon="121.26442067582063"><ele>182.0</ele><time>2026-03-22T02:18:04.001Z</time></trkpt><trkpt lat="24.891866121525407" lon="121.26431726643469"><ele>180.5</ele><time>2026-03-22T02:18:05.001Z</time></trkpt><trkpt lat="24.891632818568507" lon="121.2642150899128"><ele>179.0</ele><time>2026-03-22T02:18:06.001Z</time></trkpt><trkpt lat="24.89140014127192" lon="121.26411173997609"><ele>179.0</ele><time>2026-03-22T02:18:07.001Z</time></trkpt><trkpt lat="24.89116632951466" lon="121.26400824028194"><ele>179.0</ele><time>2026-03-22T02:18:08.001Z</time></trkpt><trkpt lat="24.890933054869247" lon="121.26390465830524"><ele>183.0</ele><time>2026-03-22T02:18:09.001Z</time></trkpt><trkpt lat="24.89069976992979" lon="121.26379977888041"><ele>187.0</ele><time>2026-03-22T02:18:10.001Z</time></trkpt><trkpt lat="24.890466012324705" lon="121.26369476296654"><ele>187.0</ele><time>2026-03-22T02:18:11.001Z</time></trkpt><trkpt lat="24.89023274072424" lon="121.26358970430081"><ele>187.0</ele><time>2026-03-22T02:18:12.001Z</time></trkpt><trkpt lat="24.89000027534264" lon="121.26348217113998"><ele>186.5</ele><time>2026-03-22T02:18:13.001Z</time></trkpt><trkpt lat="24.88976808434068" lon="121.26337355650737"><ele>186.0</ele><time>2026-03-22T02:18:14.001Z</time></trkpt><trkpt lat="24.88953788353356" lon="121.2632598666452"><ele>186.0</ele><time>2026-03-22T02:18:15.001Z</time></trkpt><trkpt lat="24.889309083736762" lon="121.2631415921867"><ele>186.0</ele><time>2026-03-22T02:18:16.001Z</time></trkpt><trkpt lat="24.889082409089546" lon="121.26301901893801"><ele>185.5</ele><time>2026-03-22T02:18:17.001Z</time></trkpt><trkpt lat="24.888855844413637" lon="121.26289522927401"><ele>185.0</ele><time>2026-03-22T02:18:18.001Z</time></trkpt><trkpt lat="24.88862983633762" lon="121.26277007931678"><ele>185.0</ele><time>2026-03-22T02:18:19.001Z</time></trkpt><trkpt lat="24.888404672572456" lon="121.26264403922492"><ele>185.0</ele><time>2026-03-22T02:18:20.001Z</time></trkpt><trkpt lat="24.888179924578278" lon="121.26251703766343"><ele>185.0</ele><time>2026-03-22T02:18:21.001Z</time></trkpt><trkpt lat="24.88795614572752" lon="121.26238820406606"><ele>185.0</ele><time>2026-03-22T02:18:22.001Z</time></trkpt><trkpt lat="24.887734641115788" lon="121.26225503054485"><ele>186.5</ele><time>2026-03-22T02:18:23.001Z</time></trkpt><trkpt lat="24.887513657199158" lon="121.26211985995317"><ele>188.0</ele><time>2026-03-22T02:18:24.001Z</time></trkpt><trkpt lat="24.887294817321326" lon="121.2619808860282"><ele>188.0</ele><time>2026-03-22T02:18:25.001Z</time></trkpt><trkpt lat="24.887076880659215" lon="121.26183855572138"><ele>188.0</ele><time>2026-03-22T02:18:26.001Z</time></trkpt><trkpt lat="24.886861759331975" lon="121.26169274393112"><ele>188.0</ele><time>2026-03-22T02:18:27.001Z</time></trkpt><trkpt lat="24.88664779872161" lon="121.26154388078412"><ele>188.0</ele><time>2026-03-22T02:18:28.001Z</time></trkpt><trkpt lat="24.886435971370798" lon="121.26139335364573"><ele>188.0</ele><time>2026-03-22T02:18:29.001Z</time></trkpt><trkpt lat="24.886226376953026" lon="121.26123949038998"><ele>188.0</ele><time>2026-03-22T02:18:30.001Z</time></trkpt><trkpt lat="24.88601914240635" lon="121.26108171850355"><ele>189.0</ele><time>2026-03-22T02:18:31.001Z</time></trkpt><trkpt lat="24.885813797496954" lon="121.26092150460771"><ele>190.0</ele><time>2026-03-22T02:18:32.001Z</time></trkpt><trkpt lat="24.885613180042473" lon="121.2607600461399"><ele>189.5</ele><time>2026-03-22T02:18:33.001Z</time></trkpt><trkpt lat="24.88541558732671" lon="121.26059764410574"><ele>189.0</ele><time>2026-03-22T02:18:34.001Z</time></trkpt><trkpt lat="24.885221342403902" lon="121.26043052039628"><ele>192.5</ele><time>2026-03-22T02:18:35.001Z</time></trkpt><trkpt lat="24.885028978882758" lon="121.26026024057845"><ele>196.0</ele><time>2026-03-22T02:18:36.001Z</time></trkpt><trkpt lat="24.884838684574735" lon="121.26008652860376"><ele>196.0</ele><time>2026-03-22T02:18:37.001Z</time></trkpt><trkpt lat="24.884650462724263" lon="121.25991006956916"><ele>196.0</ele><time>2026-03-22T02:18:38.001Z</time></trkpt><trkpt lat="24.884463185218873" lon="121.25973081518822"><ele>196.0</ele><time>2026-03-22T02:18:39.001Z</time></trkpt><trkpt lat="24.884279931654294" lon="121.25955003958764"><ele>196.0</ele><time>2026-03-22T02:18:40.001Z</time></trkpt><trkpt lat="24.88410016016645" lon="121.2593690157809"><ele>196.0</ele><time>2026-03-22T02:18:41.001Z</time></trkpt><trkpt lat="24.883924503532675" lon="121.25918678606638"><ele>196.0</ele><time>2026-03-22T02:18:42.001Z</time></trkpt><trkpt lat="24.883753149177288" lon="121.2590048909657"><ele>194.5</ele><time>2026-03-22T02:18:43.001Z</time></trkpt><trkpt lat="24.883585606021132" lon="121.25882182565165"><ele>193.0</ele><time>2026-03-22T02:18:44.001Z</time></trkpt><trkpt lat="24.88342243990485" lon="121.25863837405315"><ele>192.33333333333331</ele><time>2026-03-22T02:18:45.001Z</time></trkpt><trkpt lat="24.883266373036225" lon="121.25845785914076"><ele>191.66666666666666</ele><time>2026-03-22T02:18:46.001Z</time></trkpt><trkpt lat="24.883119866310654" lon="121.25828302638988"><ele>191.0</ele><time>2026-03-22T02:18:47.001Z</time></trkpt><trkpt lat="24.882979262037008" lon="121.25811252222536"><ele>191.0</ele><time>2026-03-22T02:18:48.001Z</time></trkpt><trkpt lat="24.882840665220648" lon="121.25794286431427"><ele>191.0</ele><time>2026-03-22T02:18:49.001Z</time></trkpt><trkpt lat="24.882705288170932" lon="121.25777300532889"><ele>191.0</ele><time>2026-03-22T02:18:50.001Z</time></trkpt><trkpt lat="24.882572558429743" lon="121.2576029601877"><ele>191.0</ele><time>2026-03-22T02:18:51.001Z</time></trkpt><trkpt lat="24.882447803191535" lon="121.2574382560821"><ele>191.0</ele><time>2026-03-22T02:18:52.001Z</time></trkpt><trkpt lat="24.88232927602477" lon="121.25727621171592"><ele>191.0</ele><time>2026-03-22T02:18:53.001Z</time></trkpt><trkpt lat="24.882212890818703" lon="121.25711245299513"><ele>191.0</ele><time>2026-03-22T02:18:54.001Z</time></trkpt><trkpt lat="24.88209624640131" lon="121.25694658110326"><ele>191.0</ele><time>2026-03-22T02:18:55.001Z</time></trkpt><trkpt lat="24.88197929243196" lon="121.25677739460679"><ele>191.0</ele><time>2026-03-22T02:18:56.001Z</time></trkpt><trkpt lat="24.881860472479065" lon="121.25660407382296"><ele>190.66666666666666</ele><time>2026-03-22T02:18:57.001Z</time></trkpt><trkpt lat="24.881740483151148" lon="121.25642726968863"><ele>190.33333333333334</ele><time>2026-03-22T02:18:58.001Z</time></trkpt><trkpt lat="24.88161688985912" lon="121.25624780390197"><ele>190.0</ele><time>2026-03-22T02:18:59.001Z</time></trkpt><trkpt lat="24.881492074535615" lon="121.25606480949007"><ele>190.0</ele><time>2026-03-22T02:19:00.001Z</time></trkpt><trkpt lat="24.881368279282146" lon="121.25587682051695"><ele>190.0</ele><time>2026-03-22T02:19:01.001Z</time></trkpt><trkpt lat="24.88124576925614" lon="121.25568257029869"><ele>190.0</ele><time>2026-03-22T02:19:02.001Z</time></trkpt><trkpt lat="24.88112634878282" lon="121.25548175956921"><ele>189.33333333333334</ele><time>2026-03-22T02:19:03.001Z</time></trkpt><trkpt lat="24.881010225467104" lon="121.25527577793167"><ele>188.66666666666666</ele><time>2026-03-22T02:19:04.001Z</time></trkpt><trkpt lat="24.88089774347191" lon="121.25506957557702"><ele>188.0</ele><time>2026-03-22T02:19:05.001Z</time></trkpt><trkpt lat="24.880784778085868" lon="121.25486265296084"><ele>189.66666666666666</ele><time>2026-03-22T02:19:06.001Z</time></trkpt><trkpt lat="24.880673011043573" lon="121.25465212867553"><ele>191.33333333333331</ele><time>2026-03-22T02:19:07.001Z</time></trkpt><trkpt lat="24.880561677600483" lon="121.2544390314578"><ele>193.0</ele><time>2026-03-22T02:19:08.001Z</time></trkpt><trkpt lat="24.880451929228247" lon="121.25422225557604"><ele>193.0</ele><time>2026-03-22T02:19:09.001Z</time></trkpt><trkpt lat="24.88034267009534" lon="121.25400262648049"><ele>193.0</ele><time>2026-03-22T02:19:10.001Z</time></trkpt><trkpt lat="24.880234676062535" lon="121.25377982313478"><ele>192.0</ele><time>2026-03-22T02:19:11.001Z</time></trkpt><trkpt lat="24.8801265994896" lon="121.25355495408195"><ele>191.0</ele><time>2026-03-22T02:19:12.001Z</time></trkpt><trkpt lat="24.880019309038033" lon="121.25332692683186"><ele>191.5</ele><time>2026-03-22T02:19:13.001Z</time></trkpt><trkpt lat="24.87991279138449" lon="121.25309590462798"><ele>192.0</ele><time>2026-03-22T02:19:14.001Z</time></trkpt><trkpt lat="24.87980729016713" lon="121.25286171213867"><ele>192.0</ele><time>2026-03-22T02:19:15.001Z</time></trkpt><trkpt lat="24.879701752074244" lon="121.25262604105424"><ele>192.0</ele><time>2026-03-22T02:19:16.001Z</time></trkpt><trkpt lat="24.87959534623865" lon="121.25238878478598"><ele>192.0</ele><time>2026-03-22T02:19:17.001Z</time></trkpt><trkpt lat="24.8794891186172" lon="121.25214873217523"><ele>192.0</ele><time>2026-03-22T02:19:18.001Z</time></trkpt><trkpt lat="24.879381193966907" lon="121.25190645540881"><ele>192.0</ele><time>2026-03-22T02:19:19.001Z</time></trkpt><trkpt lat="24.879273172702966" lon="121.25166204892545"><ele>192.0</ele><time>2026-03-22T02:19:20.001Z</time></trkpt><trkpt lat="24.87916447759794" lon="121.25141601902396"><ele>195.0</ele><time>2026-03-22T02:19:21.001Z</time></trkpt><trkpt lat="24.879055185841825" lon="121.25116791165763"><ele>198.0</ele><time>2026-03-22T02:19:22.001Z</time></trkpt><trkpt lat="24.878946095960085" lon="121.25091792386104"><ele>198.0</ele><time>2026-03-22T02:19:23.001Z</time></trkpt><trkpt lat="24.87883575338669" lon="121.25066678401777"><ele>198.0</ele><time>2026-03-22T02:19:24.001Z</time></trkpt><trkpt lat="24.878725571732858" lon="121.2504153410119"><ele>204.0</ele><time>2026-03-22T02:19:25.001Z</time></trkpt><trkpt lat="24.878613712694555" lon="121.25016196946572"><ele>210.0</ele><time>2026-03-22T02:19:26.001Z</time></trkpt><trkpt lat="24.878500069054525" lon="121.24991151116924"><ele>212.0</ele><time>2026-03-22T02:19:27.001Z</time></trkpt><trkpt lat="24.87838416863013" lon="121.24966007121623"><ele>214.0</ele><time>2026-03-22T02:19:28.001Z</time></trkpt><trkpt lat="24.878267348773253" lon="121.2494066617324"><ele>214.0</ele><time>2026-03-22T02:19:29.001Z</time></trkpt><trkpt lat="24.8781495536371" lon="121.24915296434244"><ele>214.0</ele><time>2026-03-22T02:19:30.001Z</time></trkpt><trkpt lat="24.87802884811146" lon="121.24890066786404"><ele>216.0</ele><time>2026-03-22T02:19:31.001Z</time></trkpt><trkpt lat="24.877906412053978" lon="121.24864941840262"><ele>218.0</ele><time>2026-03-22T02:19:32.001Z</time></trkpt><trkpt lat="24.877782281219535" lon="121.24839867086449"><ele>218.0</ele><time>2026-03-22T02:19:33.001Z</time></trkpt><trkpt lat="24.87765655161217" lon="121.2481487204406"><ele>218.0</ele><time>2026-03-22T02:19:34.001Z</time></trkpt><trkpt lat="24.87752891218856" lon="121.24790024163313"><ele>218.5</ele><time>2026-03-22T02:19:35.001Z</time></trkpt><trkpt lat="24.877398415462896" lon="121.24765289822052"><ele>219.0</ele><time>2026-03-22T02:19:36.001Z</time></trkpt><trkpt lat="24.87726428644049" lon="121.24741019095092"><ele>217.0</ele><time>2026-03-22T02:19:37.001Z</time></trkpt><trkpt lat="24.877126665891538" lon="121.2471687521596"><ele>215.0</ele><time>2026-03-22T02:19:38.001Z</time></trkpt><trkpt lat="24.876985376194273" lon="121.24693309258733"><ele>215.0</ele><time>2026-03-22T02:19:39.001Z</time></trkpt><trkpt lat="24.876840127180408" lon="121.24669763266684"><ele>215.0</ele><time>2026-03-22T02:19:40.001Z</time></trkpt><trkpt lat="24.876690691523933" lon="121.24646690528684"><ele>216.0</ele><time>2026-03-22T02:19:41.001Z</time></trkpt><trkpt lat="24.8765399679438" lon="121.24623929768735"><ele>217.0</ele><time>2026-03-22T02:19:42.001Z</time></trkpt><trkpt lat="24.876388128661425" lon="121.24601428384337"><ele>217.0</ele><time>2026-03-22T02:19:43.001Z</time></trkpt><trkpt lat="24.87623302247128" lon="121.2457925198756"><ele>217.0</ele><time>2026-03-22T02:19:44.001Z</time></trkpt><trkpt lat="24.876075044019473" lon="121.2455744749225"><ele>216.5</ele><time>2026-03-22T02:19:45.001Z</time></trkpt><trkpt lat="24.875914310028556" lon="121.24535985508417"><ele>216.0</ele><time>2026-03-22T02:19:46.001Z</time></trkpt><trkpt lat="24.875751980703637" lon="121.24514832374057"><ele>216.0</ele><time>2026-03-22T02:19:47.001Z</time></trkpt><trkpt lat="24.87558698682309" lon="121.24493972544941"><ele>216.0</ele><time>2026-03-22T02:19:48.001Z</time></trkpt><trkpt lat="24.875419867007135" lon="121.24473415790824"><ele>215.0</ele><time>2026-03-22T02:19:49.001Z</time></trkpt><trkpt lat="24.875250339714622" lon="121.24453177059483"><ele>214.0</ele><time>2026-03-22T02:19:50.001Z</time></trkpt><trkpt lat="24.875078827617408" lon="121.24433194755845"><ele>214.0</ele><time>2026-03-22T02:19:51.001Z</time></trkpt><trkpt lat="24.874906191465648" lon="121.24413360867808"><ele>214.0</ele><time>2026-03-22T02:19:52.001Z</time></trkpt><trkpt lat="24.874732132248955" lon="121.24393734741892"><ele>216.5</ele><time>2026-03-22T02:19:53.001Z</time></trkpt><trkpt lat="24.874555797835733" lon="121.24374499678541"><ele>219.0</ele><time>2026-03-22T02:19:54.001Z</time></trkpt><trkpt lat="24.87437654425838" lon="121.2435550825883"><ele>220.5</ele><time>2026-03-22T02:19:55.001Z</time></trkpt><trkpt lat="24.874194146120015" lon="121.243369173383"><ele>222.0</ele><time>2026-03-22T02:19:56.001Z</time></trkpt><trkpt lat="24.87401102361697" lon="121.24318473254246"><ele>222.0</ele><time>2026-03-22T02:19:57.001Z</time></trkpt><trkpt lat="24.87382782721023" lon="121.24300078601001"><ele>222.0</ele><time>2026-03-22T02:19:58.001Z</time></trkpt><trkpt lat="24.8736433214607" lon="121.24281825716771"><ele>222.0</ele><time>2026-03-22T02:19:59.001Z</time></trkpt><trkpt lat="24.87345733927381" lon="121.24263743691131"><ele>222.0</ele><time>2026-03-22T02:20:00.001Z</time></trkpt><trkpt lat="24.873270962696115" lon="121.24245783665253"><ele>221.0</ele><time>2026-03-22T02:20:01.001Z</time></trkpt><trkpt lat="24.873083071364388" lon="121.24227953666835"><ele>220.0</ele><time>2026-03-22T02:20:02.001Z</time></trkpt><trkpt lat="24.872894092987025" lon="121.24210195761911"><ele>220.0</ele><time>2026-03-22T02:20:03.001Z</time></trkpt><trkpt lat="24.872704172122788" lon="121.2419256047382"><ele>220.0</ele><time>2026-03-22T02:20:04.001Z</time></trkpt><trkpt lat="24.872513445989146" lon="121.24175031197358"><ele>220.5</ele><time>2026-03-22T02:20:05.001Z</time></trkpt><trkpt lat="24.87232231442589" lon="121.24157555868513"><ele>221.0</ele><time>2026-03-22T02:20:06.001Z</time></trkpt><trkpt lat="24.87213044560434" lon="121.24140071970412"><ele>221.0</ele><time>2026-03-22T02:20:07.001Z</time></trkpt><trkpt lat="24.87193872674983" lon="121.24122484128857"><ele>221.0</ele><time>2026-03-22T02:20:08.001Z</time></trkpt><trkpt lat="24.871746586800803" lon="121.24104858939606"><ele>222.0</ele><time>2026-03-22T02:20:09.001Z</time></trkpt><trkpt lat="24.87155275223839" lon="121.24087257859325"><ele>223.0</ele><time>2026-03-22T02:20:10.001Z</time></trkpt><trkpt lat="24.871358942724186" lon="121.24069516017114"><ele>223.5</ele><time>2026-03-22T02:20:11.001Z</time></trkpt><trkpt lat="24.871164839551945" lon="121.24051761539477"><ele>224.0</ele><time>2026-03-22T02:20:12.001Z</time></trkpt><trkpt lat="24.87097088628027" lon="121.24033858836165"><ele>223.0</ele><time>2026-03-22T02:20:13.001Z</time></trkpt><trkpt lat="24.87077575017479" lon="121.2401600503283"><ele>222.0</ele><time>2026-03-22T02:20:14.001Z</time></trkpt><trkpt lat="24.870580441586085" lon="121.23997995103015"><ele>221.0</ele><time>2026-03-22T02:20:15.001Z</time></trkpt><trkpt lat="24.870385793794522" lon="121.23979865249535"><ele>220.0</ele><time>2026-03-22T02:20:16.001Z</time></trkpt><trkpt lat="24.870190017897087" lon="121.2396169304359"><ele>221.5</ele><time>2026-03-22T02:20:17.001Z</time></trkpt><trkpt lat="24.869995100174517" lon="121.23943317554284"><ele>223.0</ele><time>2026-03-22T02:20:18.001Z</time></trkpt><trkpt lat="24.86980125365861" lon="121.23924706091293"><ele>223.0</ele><time>2026-03-22T02:20:19.001Z</time></trkpt><trkpt lat="24.869607464556843" lon="121.23905964474295"><ele>223.0</ele><time>2026-03-22T02:20:20.001Z</time></trkpt><trkpt lat="24.869414386537503" lon="121.23887074010439"><ele>224.5</ele><time>2026-03-22T02:20:21.001Z</time></trkpt><trkpt lat="24.86922159346252" lon="121.23867992416727"><ele>226.0</ele><time>2026-03-22T02:20:22.001Z</time></trkpt><trkpt lat="24.86903039828184" lon="121.2384881935274"><ele>226.0</ele><time>2026-03-22T02:20:23.001Z</time></trkpt><trkpt lat="24.868842462407976" lon="121.23829723965413"><ele>226.0</ele><time>2026-03-22T02:20:24.001Z</time></trkpt><trkpt lat="24.868657203837753" lon="121.23810456541672"><ele>226.5</ele><time>2026-03-22T02:20:25.001Z</time></trkpt><trkpt lat="24.868474000419194" lon="121.23791035743885"><ele>227.0</ele><time>2026-03-22T02:20:26.001Z</time></trkpt><trkpt lat="24.868293941384785" lon="121.23771435668785"><ele>227.0</ele><time>2026-03-22T02:20:27.001Z</time></trkpt><trkpt lat="24.868116142094877" lon="121.23751643970574"><ele>227.0</ele><time>2026-03-22T02:20:28.001Z</time></trkpt><trkpt lat="24.8679409676708" lon="121.23731626732614"><ele>226.5</ele><time>2026-03-22T02:20:29.001Z</time></trkpt><trkpt lat="24.867766339330824" lon="121.23711421866169"><ele>226.0</ele><time>2026-03-22T02:20:30.001Z</time></trkpt><trkpt lat="24.867593876776784" lon="121.23691128438766"><ele>226.0</ele><time>2026-03-22T02:20:31.001Z</time></trkpt><trkpt lat="24.867425388676537" lon="121.23670799596889"><ele>226.0</ele><time>2026-03-22T02:20:32.001Z</time></trkpt><trkpt lat="24.867259798772402" lon="121.23650241269743"><ele>224.0</ele><time>2026-03-22T02:20:33.001Z</time></trkpt><trkpt lat="24.86709798848941" lon="121.23629542491486"><ele>222.0</ele><time>2026-03-22T02:20:34.001Z</time></trkpt><trkpt lat="24.86693898108342" lon="121.23608789150707"><ele>222.0</ele><time>2026-03-22T02:20:35.001Z</time></trkpt><trkpt lat="24.866782731298883" lon="121.23588109932268"><ele>222.0</ele><time>2026-03-22T02:20:36.001Z</time></trkpt><trkpt lat="24.866630660595796" lon="121.23567329556617"><ele>224.5</ele><time>2026-03-22T02:20:37.001Z</time></trkpt><trkpt lat="24.866482736785915" lon="121.23546499957716"><ele>227.0</ele><time>2026-03-22T02:20:38.001Z</time></trkpt><trkpt lat="24.86633778461747" lon="121.23525728061918"><ele>227.0</ele><time>2026-03-22T02:20:39.001Z</time></trkpt><trkpt lat="24.866197066715646" lon="121.23504909082752"><ele>227.0</ele><time>2026-03-22T02:20:40.001Z</time></trkpt><trkpt lat="24.86606014540389" lon="121.23484019389714"><ele>225.5</ele><time>2026-03-22T02:20:41.001Z</time></trkpt><trkpt lat="24.865926658682472" lon="121.23463220391314"><ele>224.0</ele><time>2026-03-22T02:20:42.001Z</time></trkpt><trkpt lat="24.86579670277445" lon="121.23442455772427"><ele>224.0</ele><time>2026-03-22T02:20:43.001Z</time></trkpt><trkpt lat="24.865669560154526" lon="121.23421703347714"><ele>224.0</ele><time>2026-03-22T02:20:44.001Z</time></trkpt><trkpt lat="24.865546177819677" lon="121.23400895536828"><ele>225.0</ele><time>2026-03-22T02:20:45.001Z</time></trkpt><trkpt lat="24.86542575722598" lon="121.23380168925623"><ele>226.0</ele><time>2026-03-22T02:20:46.001Z</time></trkpt><trkpt lat="24.8653097028637" lon="121.2335944894119"><ele>227.0</ele><time>2026-03-22T02:20:47.001Z</time></trkpt><trkpt lat="24.865196612782334" lon="121.23338787693586"><ele>227.33333333333334</ele><time>2026-03-22T02:20:48.001Z</time></trkpt><trkpt lat="24.865085322402383" lon="121.23318209566618"><ele>227.66666666666669</ele><time>2026-03-22T02:20:49.001Z</time></trkpt><trkpt lat="24.864976663318338" lon="121.23297730118576"><ele>228.0</ele><time>2026-03-22T02:20:50.001Z</time></trkpt><trkpt lat="24.864871649796235" lon="121.23277294245963"><ele>228.66666666666669</ele><time>2026-03-22T02:20:51Z</time></trkpt><trkpt lat="24.864769771316038" lon="121.23256818659497"><ele>229.33333333333334</ele><time>2026-03-22T02:20:52Z</time></trkpt><trkpt lat="24.864670921950054" lon="121.2323650791121"><ele>230.0</ele><time>2026-03-22T02:20:53Z</time></trkpt><trkpt lat="24.86457406398839" lon="121.23216166429236"><ele>228.33333333333334</ele><time>2026-03-22T02:20:54Z</time></trkpt><trkpt lat="24.864477173035585" lon="121.23195880032738"><ele>226.66666666666669</ele><time>2026-03-22T02:20:55Z</time></trkpt><trkpt lat="24.8643837534737" lon="121.23175410176574"><ele>225.0</ele><time>2026-03-22T02:20:56Z</time></trkpt><trkpt lat="24.8642909491418" lon="121.23155042089284"><ele>227.0</ele><time>2026-03-22T02:20:57Z</time></trkpt><trkpt lat="24.864201810598477" lon="121.2313472491738"><ele>229.0</ele><time>2026-03-22T02:20:58Z</time></trkpt><trkpt lat="24.864115903675582" lon="121.23114369322727"><ele>231.0</ele><time>2026-03-22T02:20:59Z</time></trkpt><trkpt lat="24.864033238668853" lon="121.2309400828534"><ele>231.0</ele><time>2026-03-22T02:21:00Z</time></trkpt><trkpt lat="24.863952616225877" lon="121.23073581902774"><ele>231.0</ele><time>2026-03-22T02:21:01Z</time></trkpt><trkpt lat="24.863872806513154" lon="121.23052848117364"><ele>231.0</ele><time>2026-03-22T02:21:02Z</time></trkpt><trkpt lat="24.863793326124668" lon="121.23032063185529"><ele>230.0</ele><time>2026-03-22T02:21:03Z</time></trkpt><trkpt lat="24.86371593327647" lon="121.23011084725772"><ele>229.0</ele><time>2026-03-22T02:21:04Z</time></trkpt><trkpt lat="24.863640007070813" lon="121.22989864779456"><ele>228.0</ele><time>2026-03-22T02:21:05Z</time></trkpt><trkpt lat="24.863565259276534" lon="121.22968603092183"><ele>228.0</ele><time>2026-03-22T02:21:06Z</time></trkpt><trkpt lat="24.863492705785742" lon="121.22947408295077"><ele>228.0</ele><time>2026-03-22T02:21:07Z</time></trkpt><trkpt lat="24.86342180598126" lon="121.2292606998959"><ele>228.0</ele><time>2026-03-22T02:21:08Z</time></trkpt><trkpt lat="24.863352112723813" lon="121.22904400874727"><ele>229.33333333333331</ele><time>2026-03-22T02:21:09Z</time></trkpt><trkpt lat="24.863284000648374" lon="121.22882476812036"><ele>230.66666666666666</ele><time>2026-03-22T02:21:10Z</time></trkpt><trkpt lat="24.863215924858885" lon="121.22860346716638"><ele>232.0</ele><time>2026-03-22T02:21:11Z</time></trkpt><trkpt lat="24.8631481624825" lon="121.22837973500789"><ele>232.0</ele><time>2026-03-22T02:21:12Z</time></trkpt><trkpt lat="24.863080948741544" lon="121.22815741619527"><ele>232.0</ele><time>2026-03-22T02:21:13Z</time></trkpt><trkpt lat="24.86301444040443" lon="121.2279357086678"><ele>232.0</ele><time>2026-03-22T02:21:14Z</time></trkpt><trkpt lat="24.862949440830857" lon="121.22771150653972"><ele>231.33333333333331</ele><time>2026-03-22T02:21:15Z</time></trkpt><trkpt lat="24.86288572789525" lon="121.22748530003396"><ele>230.66666666666669</ele><time>2026-03-22T02:21:16Z</time></trkpt><trkpt lat="24.86282270265181" lon="121.22725722501359"><ele>230.0</ele><time>2026-03-22T02:21:17Z</time></trkpt><trkpt lat="24.862759707388822" lon="121.22702672854182"><ele>230.66666666666669</ele><time>2026-03-22T02:21:18Z</time></trkpt><trkpt lat="24.862698635076597" lon="121.22679478429882"><ele>231.33333333333331</ele><time>2026-03-22T02:21:19Z</time></trkpt><trkpt lat="24.862637350355552" lon="121.22656092352706"><ele>232.0</ele><time>2026-03-22T02:21:20Z</time></trkpt><trkpt lat="24.86257685073104" lon="121.22632568977849"><ele>232.0</ele><time>2026-03-22T02:21:21Z</time></trkpt><trkpt lat="24.86251626816207" lon="121.22608923868556"><ele>232.0</ele><time>2026-03-22T02:21:22Z</time></trkpt><trkpt lat="24.86245579960425" lon="121.22585013472295"><ele>232.0</ele><time>2026-03-22T02:21:23Z</time></trkpt><trkpt lat="24.862396572743588" lon="121.22560885310848"><ele>232.0</ele><time>2026-03-22T02:21:24Z</time></trkpt><trkpt lat="24.862336951301415" lon="121.2253650787113"><ele>232.0</ele><time>2026-03-22T02:21:25Z</time></trkpt><trkpt lat="24.862277589397753" lon="121.22512000592586"><ele>232.0</ele><time>2026-03-22T02:21:26Z</time></trkpt><trkpt lat="24.86221863969441" lon="121.22487215066266"><ele>232.0</ele><time>2026-03-22T02:21:27Z</time></trkpt><trkpt lat="24.862158696298586" lon="121.22462099293956"><ele>232.0</ele><time>2026-03-22T02:21:28Z</time></trkpt><trkpt lat="24.862097549664558" lon="121.2243664013487"><ele>232.0</ele><time>2026-03-22T02:21:29Z</time></trkpt><trkpt lat="24.862035314109935" lon="121.22410916345333"><ele>231.5</ele><time>2026-03-22T02:21:30Z</time></trkpt><trkpt lat="24.861970691798945" lon="121.22385032942327"><ele>231.0</ele><time>2026-03-22T02:21:31Z</time></trkpt><trkpt lat="24.861904748269318" lon="121.22358893721565"><ele>231.0</ele><time>2026-03-22T02:21:32Z</time></trkpt><trkpt lat="24.861836959290155" lon="121.22332534578806"><ele>231.0</ele><time>2026-03-22T02:21:33Z</time></trkpt><trkpt lat="24.861768619260467" lon="121.22305975698634"><ele>234.0</ele><time>2026-03-22T02:21:34Z</time></trkpt><trkpt lat="24.861700211819656" lon="121.22279164740995"><ele>237.0</ele><time>2026-03-22T02:21:35Z</time></trkpt><trkpt lat="24.861632965221688" lon="121.22252041369968"><ele>236.0</ele><time>2026-03-22T02:21:36Z</time></trkpt><trkpt lat="24.861566879978746" lon="121.22224607074453"><ele>235.0</ele><time>2026-03-22T02:21:37Z</time></trkpt><trkpt lat="24.861501693528403" lon="121.2219692660137"><ele>235.0</ele><time>2026-03-22T02:21:38Z</time></trkpt><trkpt lat="24.86143559633071" lon="121.22168988857734"><ele>235.0</ele><time>2026-03-22T02:21:39Z</time></trkpt><trkpt lat="24.861367812837926" lon="121.22140918922017"><ele>234.5</ele><time>2026-03-22T02:21:40Z</time></trkpt><trkpt lat="24.86129950986892" lon="121.22112600899264"><ele>234.0</ele><time>2026-03-22T02:21:41Z</time></trkpt><trkpt lat="24.861231432371202" lon="121.22084121487022"><ele>235.0</ele><time>2026-03-22T02:21:42Z</time></trkpt><trkpt lat="24.861161465554343" lon="121.220554240522"><ele>236.0</ele><time>2026-03-22T02:21:43Z</time></trkpt><trkpt lat="24.861089532613676" lon="121.22026584197648"><ele>236.0</ele><time>2026-03-22T02:21:44Z</time></trkpt><trkpt lat="24.861016421855172" lon="121.21997684793615"><ele>236.0</ele><time>2026-03-22T02:21:45Z</time></trkpt><trkpt lat="24.86094344098585" lon="121.21968940629584"><ele>233.5</ele><time>2026-03-22T02:21:46Z</time></trkpt><trkpt lat="24.86087040245466" lon="121.2194037747233"><ele>231.0</ele><time>2026-03-22T02:21:47Z</time></trkpt><trkpt lat="24.860797208613565" lon="121.2191193324"><ele>231.0</ele><time>2026-03-22T02:21:48Z</time></trkpt><trkpt lat="24.86072345215979" lon="121.21883724262617"><ele>231.0</ele><time>2026-03-22T02:21:49Z</time></trkpt><trkpt lat="24.86064839903191" lon="121.21855945237553"><ele>231.0</ele><time>2026-03-22T02:21:50Z</time></trkpt><trkpt lat="24.860573178170807" lon="121.21828386321025"><ele>231.0</ele><time>2026-03-22T02:21:51Z</time></trkpt><trkpt lat="24.86049699290156" lon="121.21801005660608"><ele>232.0</ele><time>2026-03-22T02:21:52Z</time></trkpt><trkpt lat="24.86042159217203" lon="121.21774113950264"><ele>233.0</ele><time>2026-03-22T02:21:53Z</time></trkpt><trkpt lat="24.86034795702197" lon="121.2174796913361"><ele>233.5</ele><time>2026-03-22T02:21:54Z</time></trkpt><trkpt lat="24.86027472053665" lon="121.2172277146978"><ele>234.0</ele><time>2026-03-22T02:21:55Z</time></trkpt><trkpt lat="24.860201671938743" lon="121.21698402377864"><ele>234.0</ele><time>2026-03-22T02:21:56Z</time></trkpt><trkpt lat="24.86013195568737" lon="121.21675204600479"><ele>234.0</ele><time>2026-03-22T02:21:57Z</time></trkpt><trkpt lat="24.86006245736226" lon="121.21652292740735"><ele>234.0</ele><time>2026-03-22T02:21:58Z</time></trkpt><trkpt lat="24.85999222809232" lon="121.21629574869779"><ele>234.33333333333331</ele><time>2026-03-22T02:21:59Z</time></trkpt><trkpt lat="24.85991972962213" lon="121.21607127565616"><ele>234.66666666666666</ele><time>2026-03-22T02:22:00Z</time></trkpt><trkpt lat="24.859847968873762" lon="121.21584744320269"><ele>235.0</ele><time>2026-03-22T02:22:01Z</time></trkpt><trkpt lat="24.859772951228923" lon="121.21562356945807"><ele>236.0</ele><time>2026-03-22T02:22:02Z</time></trkpt><trkpt lat="24.859697300371145" lon="121.2154002647541"><ele>237.0</ele><time>2026-03-22T02:22:03Z</time></trkpt><trkpt lat="24.859619918775266" lon="121.2151758655229"><ele>238.0</ele><time>2026-03-22T02:22:04Z</time></trkpt><trkpt lat="24.85954116495604" lon="121.21495075173812"><ele>238.33333333333331</ele><time>2026-03-22T02:22:05Z</time></trkpt><trkpt lat="24.859460351667312" lon="121.21472500885777"><ele>238.66666666666669</ele><time>2026-03-22T02:22:06Z</time></trkpt><trkpt lat="24.859378209788826" lon="121.21449892888482"><ele>239.0</ele><time>2026-03-22T02:22:07Z</time></trkpt><trkpt lat="24.85929445836484" lon="121.21427175582936"><ele>238.33333333333334</ele><time>2026-03-22T02:22:08Z</time></trkpt><trkpt lat="24.859208843652063" lon="121.21404435532587"><ele>237.66666666666669</ele><time>2026-03-22T02:22:09Z</time></trkpt><trkpt lat="24.85912058638546" lon="121.21381788270094"><ele>237.0</ele><time>2026-03-22T02:22:10Z</time></trkpt><trkpt lat="24.859031523848852" lon="121.21358990790743"><ele>235.5</ele><time>2026-03-22T02:22:11Z</time></trkpt><trkpt lat="24.85894111045926" lon="121.21336253859462"><ele>234.0</ele><time>2026-03-22T02:22:12Z</time></trkpt><trkpt lat="24.85884912176551" lon="121.21313436949904"><ele>234.0</ele><time>2026-03-22T02:22:13Z</time></trkpt><trkpt lat="24.858755687628943" lon="121.21290548446794"><ele>234.0</ele><time>2026-03-22T02:22:14Z</time></trkpt><trkpt lat="24.858663284945077" lon="121.21267509164583"><ele>234.0</ele><time>2026-03-22T02:22:15Z</time></trkpt><trkpt lat="24.85857126147593" lon="121.21244241998274"><ele>234.0</ele><time>2026-03-22T02:22:16Z</time></trkpt><trkpt lat="24.858480491327654" lon="121.2122065930987"><ele>234.0</ele><time>2026-03-22T02:22:17Z</time></trkpt><trkpt lat="24.858386223340005" lon="121.21196975091425"><ele>234.0</ele><time>2026-03-22T02:22:18Z</time></trkpt><trkpt lat="24.858286084634486" lon="121.21173372030981"><ele>234.0</ele><time>2026-03-22T02:22:19Z</time></trkpt><trkpt lat="24.858180622725992" lon="121.21149882932514"><ele>234.0</ele><time>2026-03-22T02:22:20Z</time></trkpt><trkpt lat="24.85807314672502" lon="121.21126326191188"><ele>233.5</ele><time>2026-03-22T02:22:21.001Z</time></trkpt><trkpt lat="24.857961767429334" lon="121.21102667919733"><ele>233.0</ele><time>2026-03-22T02:22:22.001Z</time></trkpt><trkpt lat="24.85784799310772" lon="121.21079044245596"><ele>231.5</ele><time>2026-03-22T02:22:23.001Z</time></trkpt><trkpt lat="24.85773260608498" lon="121.2105531628407"><ele>230.0</ele><time>2026-03-22T02:22:24.001Z</time></trkpt><trkpt lat="24.85761573565731" lon="121.21031485175115"><ele>230.0</ele><time>2026-03-22T02:22:25.001Z</time></trkpt><trkpt lat="24.857496043653946" lon="121.21007657235658"><ele>230.0</ele><time>2026-03-22T02:22:26.001Z</time></trkpt><trkpt lat="24.857374816899004" lon="121.2098380177226"><ele>232.5</ele><time>2026-03-22T02:22:27.001Z</time></trkpt><trkpt lat="24.85724963346225" lon="121.20960005739371"><ele>235.0</ele><time>2026-03-22T02:22:28.001Z</time></trkpt><trkpt lat="24.85712299959693" lon="121.20936296250271"><ele>235.0</ele><time>2026-03-22T02:22:29.001Z</time></trkpt><trkpt lat="24.856994502949426" lon="121.20912614008455"><ele>235.0</ele><time>2026-03-22T02:22:30.001Z</time></trkpt><trkpt lat="24.856864349227866" lon="121.20888905397516"><ele>236.0</ele><time>2026-03-22T02:22:31.001Z</time></trkpt><trkpt lat="24.856733044964727" lon="121.20865311258416"><ele>237.0</ele><time>2026-03-22T02:22:32.001Z</time></trkpt><trkpt lat="24.856598190797587" lon="121.20841890966624"><ele>237.0</ele><time>2026-03-22T02:22:33.001Z</time></trkpt><trkpt lat="24.856459886381852" lon="121.20818622861835"><ele>237.0</ele><time>2026-03-22T02:22:34.001Z</time></trkpt><trkpt lat="24.85632097877932" lon="121.20795335840634"><ele>235.0</ele><time>2026-03-22T02:22:35.001Z</time></trkpt><trkpt lat="24.85617900285721" lon="121.20772341251542"><ele>233.0</ele><time>2026-03-22T02:22:36.001Z</time></trkpt><trkpt lat="24.856033664287576" lon="121.20749554246044"><ele>233.5</ele><time>2026-03-22T02:22:37.001Z</time></trkpt><trkpt lat="24.855886366308773" lon="121.20726947800551"><ele>234.0</ele><time>2026-03-22T02:22:38.001Z</time></trkpt><trkpt lat="24.855737317410597" lon="121.20704592728121"><ele>234.0</ele><time>2026-03-22T02:22:39.001Z</time></trkpt><trkpt lat="24.85558535345499" lon="121.20682399736936"><ele>234.0</ele><time>2026-03-22T02:22:40Z</time></trkpt><trkpt lat="24.855431242682393" lon="121.20660388134915"><ele>234.5</ele><time>2026-03-22T02:22:41Z</time></trkpt><trkpt lat="24.855274289041215" lon="121.2063876642229"><ele>235.0</ele><time>2026-03-22T02:22:42Z</time></trkpt><trkpt lat="24.855113692250363" lon="121.20617444805907"><ele>236.5</ele><time>2026-03-22T02:22:43Z</time></trkpt><trkpt lat="24.854951184522147" lon="121.20596364866533"><ele>238.0</ele><time>2026-03-22T02:22:44Z</time></trkpt><trkpt lat="24.854787388018" lon="121.20575386945583"><ele>236.0</ele><time>2026-03-22T02:22:45Z</time></trkpt><trkpt lat="24.854621990259815" lon="121.20554636963195"><ele>234.0</ele><time>2026-03-22T02:22:46Z</time></trkpt><trkpt lat="24.854455015297752" lon="121.20534227544326"><ele>238.0</ele><time>2026-03-22T02:22:47Z</time></trkpt><trkpt lat="24.85428418834828" lon="121.20514219190285"><ele>242.0</ele><time>2026-03-22T02:22:48Z</time></trkpt><trkpt lat="24.85411095698727" lon="121.20494606405002"><ele>242.0</ele><time>2026-03-22T02:22:49Z</time></trkpt><trkpt lat="24.853936788205676" lon="121.2047520462413"><ele>242.0</ele><time>2026-03-22T02:22:50Z</time></trkpt><trkpt lat="24.85376008694495" lon="121.20456113939773"><ele>242.0</ele><time>2026-03-22T02:22:51Z</time></trkpt><trkpt lat="24.85358255996403" lon="121.20437279125588"><ele>242.0</ele><time>2026-03-22T02:22:52Z</time></trkpt><trkpt lat="24.85340302805256" lon="121.20418843488899"><ele>244.0</ele><time>2026-03-22T02:22:53Z</time></trkpt><trkpt lat="24.85322203911899" lon="121.2040068251638"><ele>246.0</ele><time>2026-03-22T02:22:54Z</time></trkpt><trkpt lat="24.853039760039525" lon="121.20382856720396"><ele>255.0</ele><time>2026-03-22T02:22:55Z</time></trkpt><trkpt lat="24.852855034975367" lon="121.20365419280361"><ele>264.0</ele><time>2026-03-22T02:22:56Z</time></trkpt><trkpt lat="24.852668090749304" lon="121.20348514474512"><ele>263.0</ele><time>2026-03-22T02:22:57Z</time></trkpt><trkpt lat="24.852480637170846" lon="121.20331881079301"><ele>262.0</ele><time>2026-03-22T02:22:58Z</time></trkpt><trkpt lat="24.85229110586065" lon="121.20315704091217"><ele>277.5</ele><time>2026-03-22T02:22:59Z</time></trkpt><trkpt lat="24.852100975392617" lon="121.20299795157648"><ele>293.0</ele><time>2026-03-22T02:23:00Z</time></trkpt><trkpt lat="24.851910979376814" lon="121.20284035117471"><ele>282.5</ele><time>2026-03-22T02:23:01Z</time></trkpt><trkpt lat="24.851719336732923" lon="121.20268575866002"><ele>272.0</ele><time>2026-03-22T02:23:02Z</time></trkpt><trkpt lat="24.851526775120853" lon="121.20253443509333"><ele>272.0</ele><time>2026-03-22T02:23:03Z</time></trkpt><trkpt lat="24.851333860137846" lon="121.2023862790632"><ele>272.0</ele><time>2026-03-22T02:23:04Z</time></trkpt><trkpt lat="24.85113902317055" lon="121.20224144251159"><ele>276.0</ele><time>2026-03-22T02:23:05Z</time></trkpt><trkpt lat="24.850943440315945" lon="121.20210028674734"><ele>280.0</ele><time>2026-03-22T02:23:06Z</time></trkpt><trkpt lat="24.850747499046278" lon="121.2019625758475"><ele>280.0</ele><time>2026-03-22T02:23:07Z</time></trkpt><trkpt lat="24.85054976315609" lon="121.20182937370998"><ele>280.0</ele><time>2026-03-22T02:23:08Z</time></trkpt><trkpt lat="24.850350837034068" lon="121.20169853223165"><ele>280.0</ele><time>2026-03-22T02:23:09Z</time></trkpt><trkpt lat="24.850150771479317" lon="121.20156989306292"><ele>280.0</ele><time>2026-03-22T02:23:10Z</time></trkpt><trkpt lat="24.84994847161614" lon="121.20144431501652"><ele>287.0</ele><time>2026-03-22T02:23:11Z</time></trkpt><trkpt lat="24.84974463761502" lon="121.20132035881244"><ele>294.0</ele><time>2026-03-22T02:23:12Z</time></trkpt><trkpt lat="24.849538908984698" lon="121.20119892730082"><ele>294.0</ele><time>2026-03-22T02:23:13Z</time></trkpt><trkpt lat="24.849330870419912" lon="121.20108112066202"><ele>294.0</ele><time>2026-03-22T02:23:14Z</time></trkpt><trkpt lat="24.849121598169354" lon="121.2009675455317"><ele>287.5</ele><time>2026-03-22T02:23:15Z</time></trkpt><trkpt lat="24.84891045451957" lon="121.20085615458908"><ele>281.0</ele><time>2026-03-22T02:23:16Z</time></trkpt><trkpt lat="24.8486982510355" lon="121.20074708768428"><ele>289.0</ele><time>2026-03-22T02:23:17Z</time></trkpt><trkpt lat="24.848484179348507" lon="121.20064117619401"><ele>297.0</ele><time>2026-03-22T02:23:18Z</time></trkpt><trkpt lat="24.84826906562412" lon="121.20053814050655"><ele>297.0</ele><time>2026-03-22T02:23:19Z</time></trkpt><trkpt lat="24.84805226039673" lon="121.20043713442334"><ele>297.0</ele><time>2026-03-22T02:23:20Z</time></trkpt><trkpt lat="24.847833089228587" lon="121.20033867383168"><ele>296.0</ele><time>2026-03-22T02:23:21Z</time></trkpt><trkpt lat="24.847611846832947" lon="121.20024317874535"><ele>295.0</ele><time>2026-03-22T02:23:22Z</time></trkpt><trkpt lat="24.847388407994266" lon="121.20015192217517"><ele>295.0</ele><time>2026-03-22T02:23:23Z</time></trkpt><trkpt lat="24.8471643595584" lon="121.2000636094953"><ele>295.0</ele><time>2026-03-22T02:23:24Z</time></trkpt><trkpt lat="24.846938483122933" lon="121.19997781361225"><ele>292.5</ele><time>2026-03-22T02:23:25Z</time></trkpt><trkpt lat="24.84671075998187" lon="121.19989566163368"><ele>290.0</ele><time>2026-03-22T02:23:26Z</time></trkpt><trkpt lat="24.846482278652488" lon="121.19981684802387"><ele>297.5</ele><time>2026-03-22T02:23:27Z</time></trkpt><trkpt lat="24.846252736648747" lon="121.1997406591762"><ele>305.0</ele><time>2026-03-22T02:23:28Z</time></trkpt><trkpt lat="24.84602140097441" lon="121.19966618215327"><ele>304.5</ele><time>2026-03-22T02:23:29Z</time></trkpt><trkpt lat="24.845789456982413" lon="121.19959519123898"><ele>304.0</ele><time>2026-03-22T02:23:30Z</time></trkpt><trkpt lat="24.84555592263414" lon="121.19952819558644"><ele>304.0</ele><time>2026-03-22T02:23:31Z</time></trkpt><trkpt lat="24.845321434523864" lon="121.19946570077452"><ele>304.0</ele><time>2026-03-22T02:23:32Z</time></trkpt><trkpt lat="24.845087210290142" lon="121.19940763936224"><ele>304.5</ele><time>2026-03-22T02:23:33Z</time></trkpt><trkpt lat="24.84485208446694" lon="121.19935275470652"><ele>305.0</ele><time>2026-03-22T02:23:34Z</time></trkpt><trkpt lat="24.84461777088842" lon="121.19930232415182"><ele>305.0</ele><time>2026-03-22T02:23:35Z</time></trkpt><trkpt lat="24.84438263398644" lon="121.19925065094645"><ele>305.0</ele><time>2026-03-22T02:23:36Z</time></trkpt><trkpt lat="24.844147653916323" lon="121.1992032749177"><ele>303.0</ele><time>2026-03-22T02:23:37Z</time></trkpt><trkpt lat="24.843913017566145" lon="121.19916163652388"><ele>301.0</ele><time>2026-03-22T02:23:38Z</time></trkpt><trkpt lat="24.84367920418174" lon="121.19912457016696"><ele>300.5</ele><time>2026-03-22T02:23:39Z</time></trkpt><trkpt lat="24.843446371660132" lon="121.19909147410675"><ele>300.0</ele><time>2026-03-22T02:23:40Z</time></trkpt><trkpt lat="24.8432146189152" lon="121.19906112584935"><ele>300.0</ele><time>2026-03-22T02:23:41Z</time></trkpt><trkpt lat="24.842983291100584" lon="121.19903236361512"><ele>300.0</ele><time>2026-03-22T02:23:42Z</time></trkpt><trkpt lat="24.842751144872654" lon="121.19900659945648"><ele>304.5</ele><time>2026-03-22T02:23:43Z</time></trkpt><trkpt lat="24.84251847355142" lon="121.1989859759331"><ele>309.0</ele><time>2026-03-22T02:23:44Z</time></trkpt><trkpt lat="24.842286483093826" lon="121.19896971526262"><ele>309.0</ele><time>2026-03-22T02:23:45Z</time></trkpt><trkpt lat="24.84205495805658" lon="121.19895515487079"><ele>309.0</ele><time>2026-03-22T02:23:46Z</time></trkpt><trkpt lat="24.841824100086033" lon="121.19894319116878"><ele>308.0</ele><time>2026-03-22T02:23:47Z</time></trkpt><trkpt lat="24.84159180142547" lon="121.1989339351313"><ele>307.0</ele><time>2026-03-22T02:23:48Z</time></trkpt><trkpt lat="24.841359317432225" lon="121.1989271000624"><ele>307.0</ele><time>2026-03-22T02:23:49Z</time></trkpt><trkpt lat="24.841129592592836" lon="121.19892478009214"><ele>307.0</ele><time>2026-03-22T02:23:50Z</time></trkpt><trkpt lat="24.84090192008869" lon="121.19892516242034"><ele>306.5</ele><time>2026-03-22T02:23:51Z</time></trkpt><trkpt lat="24.840673135310784" lon="121.1989271988308"><ele>306.0</ele><time>2026-03-22T02:23:52Z</time></trkpt><trkpt lat="24.840444008735375" lon="121.19893101514614"><ele>306.0</ele><time>2026-03-22T02:23:53Z</time></trkpt><trkpt lat="24.840216346470616" lon="121.19893674369067"><ele>306.0</ele><time>2026-03-22T02:23:54Z</time></trkpt><trkpt lat="24.83999064289725" lon="121.1989448306388"><ele>304.3333333333333</ele><time>2026-03-22T02:23:55Z</time></trkpt><trkpt lat="24.839767580150642" lon="121.19895481175158"><ele>302.66666666666663</ele><time>2026-03-22T02:23:56Z</time></trkpt><trkpt lat="24.83954642467936" lon="121.19896580543974"><ele>301.0</ele><time>2026-03-22T02:23:57Z</time></trkpt><trkpt lat="24.839325198629204" lon="121.19897966631153"><ele>302.0</ele><time>2026-03-22T02:23:58Z</time></trkpt><trkpt lat="24.83910217316136" lon="121.19899571074144"><ele>303.0</ele><time>2026-03-22T02:23:59Z</time></trkpt><trkpt lat="24.838876634554186" lon="121.19901658137802"><ele>303.0</ele><time>2026-03-22T02:24:00Z</time></trkpt><trkpt lat="24.838647568324607" lon="121.19903640770345"><ele>303.0</ele><time>2026-03-22T02:24:01Z</time></trkpt><trkpt lat="24.838414577920773" lon="121.19905393413322"><ele>303.0</ele><time>2026-03-22T02:24:02Z</time></trkpt><trkpt lat="24.838178737627427" lon="121.19907153012394"><ele>303.0</ele><time>2026-03-22T02:24:03Z</time></trkpt><trkpt lat="24.837945369054776" lon="121.19908604847302"><ele>303.0</ele><time>2026-03-22T02:24:04Z</time></trkpt><trkpt lat="24.837713134702483" lon="121.19909915181242"><ele>303.0</ele><time>2026-03-22T02:24:05Z</time></trkpt><trkpt lat="24.837482900504217" lon="121.19911123736306"><ele>302.5</ele><time>2026-03-22T02:24:06Z</time></trkpt><trkpt lat="24.83725430038448" lon="121.19912354444314"><ele>302.0</ele><time>2026-03-22T02:24:07Z</time></trkpt><trkpt lat="24.837026706810025" lon="121.19913585416407"><ele>301.5</ele><time>2026-03-22T02:24:08Z</time></trkpt><trkpt lat="24.83680090084599" lon="121.19914943541156"><ele>301.0</ele><time>2026-03-22T02:24:09Z</time></trkpt><trkpt lat="24.836576855774815" lon="121.1991625138565"><ele>301.0</ele><time>2026-03-22T02:24:10Z</time></trkpt><trkpt lat="24.836353364932478" lon="121.19917397444357"><ele>301.0</ele><time>2026-03-22T02:24:11Z</time></trkpt><trkpt lat="24.836131281827264" lon="121.19918394200258"><ele>301.0</ele><time>2026-03-22T02:24:12Z</time></trkpt><trkpt lat="24.835908375197825" lon="121.19919446260357"><ele>301.3333333333333</ele><time>2026-03-22T02:24:13Z</time></trkpt><trkpt lat="24.835684824753077" lon="121.19920594987332"><ele>301.6666666666667</ele><time>2026-03-22T02:24:14Z</time></trkpt><trkpt lat="24.83545960851155" lon="121.19921769055902"><ele>302.0</ele><time>2026-03-22T02:24:15Z</time></trkpt><trkpt lat="24.835232614724646" lon="121.19923010591506"><ele>302.0</ele><time>2026-03-22T02:24:16Z</time></trkpt><trkpt lat="24.835003724182517" lon="121.19924311453536"><ele>302.0</ele><time>2026-03-22T02:24:17Z</time></trkpt><trkpt lat="24.83477300081652" lon="121.19925572316964"><ele>302.0</ele><time>2026-03-22T02:24:18Z</time></trkpt><trkpt lat="24.834539708123636" lon="121.19926823555602"><ele>302.0</ele><time>2026-03-22T02:24:19Z</time></trkpt><trkpt lat="24.834304659371035" lon="121.19928076867299"><ele>300.0</ele><time>2026-03-22T02:24:20Z</time></trkpt><trkpt lat="24.834067204651582" lon="121.19929295087131"><ele>298.0</ele><time>2026-03-22T02:24:21Z</time></trkpt><trkpt lat="24.833827757316975" lon="121.19930686812287"><ele>298.0</ele><time>2026-03-22T02:24:22Z</time></trkpt><trkpt lat="24.83358613727386" lon="121.19932051860181"><ele>298.0</ele><time>2026-03-22T02:24:23Z</time></trkpt><trkpt lat="24.833343352932356" lon="121.19933317860013"><ele>297.0</ele><time>2026-03-22T02:24:24Z</time></trkpt><trkpt lat="24.833101594837387" lon="121.1993457693661"><ele>296.0</ele><time>2026-03-22T02:24:25Z</time></trkpt><trkpt lat="24.832859714730187" lon="121.19935796383389"><ele>296.0</ele><time>2026-03-22T02:24:26Z</time></trkpt><trkpt lat="24.832615830722894" lon="121.19936999469355"><ele>296.0</ele><time>2026-03-22T02:24:27Z</time></trkpt><trkpt lat="24.832370475109343" lon="121.199383327292"><ele>296.0</ele><time>2026-03-22T02:24:28Z</time></trkpt><trkpt lat="24.832125186281214" lon="121.19939720663739"><ele>296.0</ele><time>2026-03-22T02:24:29Z</time></trkpt><trkpt lat="24.831880851170155" lon="121.19941188521238"><ele>296.5</ele><time>2026-03-22T02:24:30Z</time></trkpt><trkpt lat="24.831637376121414" lon="121.1994255158366"><ele>297.0</ele><time>2026-03-22T02:24:31Z</time></trkpt><trkpt lat="24.83139291611353" lon="121.19944022573819"><ele>297.0</ele><time>2026-03-22T02:24:32Z</time></trkpt><trkpt lat="24.831150236289602" lon="121.19945416601871"><ele>297.0</ele><time>2026-03-22T02:24:33Z</time></trkpt><trkpt lat="24.83091125008037" lon="121.19946574757937"><ele>298.5</ele><time>2026-03-22T02:24:34Z</time></trkpt><trkpt lat="24.830671095291336" lon="121.19947744380153"><ele>300.0</ele><time>2026-03-22T02:24:35Z</time></trkpt><trkpt lat="24.830426389332835" lon="121.19949007658859"><ele>300.0</ele><time>2026-03-22T02:24:36Z</time></trkpt><trkpt lat="24.830180816207513" lon="121.19950486657069"><ele>300.0</ele><time>2026-03-22T02:24:37Z</time></trkpt><trkpt lat="24.82993702198882" lon="121.19951803106994"><ele>299.5</ele><time>2026-03-22T02:24:38Z</time></trkpt><trkpt lat="24.829693817828804" lon="121.19953185980334"><ele>299.0</ele><time>2026-03-22T02:24:39Z</time></trkpt><trkpt lat="24.82945016003584" lon="121.19954473235379"><ele>294.5</ele><time>2026-03-22T02:24:40Z</time></trkpt><trkpt lat="24.829206544084595" lon="121.19955749934459"><ele>290.0</ele><time>2026-03-22T02:24:41Z</time></trkpt><trkpt lat="24.828962502446554" lon="121.19956999940689"><ele>290.0</ele><time>2026-03-22T02:24:42Z</time></trkpt><trkpt lat="24.828718560796485" lon="121.19958287386741"><ele>290.0</ele><time>2026-03-22T02:24:43Z</time></trkpt><trkpt lat="24.82847423323146" lon="121.19959582697652"><ele>291.5</ele><time>2026-03-22T02:24:44Z</time></trkpt><trkpt lat="24.828229089946042" lon="121.19961030079084"><ele>293.0</ele><time>2026-03-22T02:24:45Z</time></trkpt><trkpt lat="24.82798529036935" lon="121.1996261507902"><ele>293.0</ele><time>2026-03-22T02:24:46Z</time></trkpt><trkpt lat="24.82774188267196" lon="121.19964085890429"><ele>293.0</ele><time>2026-03-22T02:24:47Z</time></trkpt><trkpt lat="24.82749875049185" lon="121.19965364513406"><ele>293.0</ele><time>2026-03-22T02:24:48Z</time></trkpt><trkpt lat="24.827254816235776" lon="121.19966731813776"><ele>293.0</ele><time>2026-03-22T02:24:49Z</time></trkpt><trkpt lat="24.827010689806112" lon="121.19967988575391"><ele>291.5</ele><time>2026-03-22T02:24:50Z</time></trkpt><trkpt lat="24.826766994650182" lon="121.19969338052402"><ele>290.0</ele><time>2026-03-22T02:24:51Z</time></trkpt><trkpt lat="24.826524362156295" lon="121.19970720780714"><ele>290.0</ele><time>2026-03-22T02:24:52Z</time></trkpt><trkpt lat="24.826286640731396" lon="121.19971952523883"><ele>290.0</ele><time>2026-03-22T02:24:53Z</time></trkpt><trkpt lat="24.826053296044073" lon="121.1997325482272"><ele>286.5</ele><time>2026-03-22T02:24:54Z</time></trkpt><trkpt lat="24.8258176339663" lon="121.19974651604464"><ele>283.0</ele><time>2026-03-22T02:24:55Z</time></trkpt><trkpt lat="24.82558076069527" lon="121.1997610453468"><ele>283.0</ele><time>2026-03-22T02:24:56Z</time></trkpt><trkpt lat="24.825344409944755" lon="121.1997739714553"><ele>283.0</ele><time>2026-03-22T02:24:57Z</time></trkpt><trkpt lat="24.825107916269573" lon="121.19978703868249"><ele>277.5</ele><time>2026-03-22T02:24:58Z</time></trkpt><trkpt lat="24.824871410018588" lon="121.19979946249907"><ele>272.0</ele><time>2026-03-22T02:24:59Z</time></trkpt><trkpt lat="24.824634906030916" lon="121.19981258849187"><ele>272.0</ele><time>2026-03-22T02:25:00Z</time></trkpt><trkpt lat="24.824399585764237" lon="121.19982611791437"><ele>272.0</ele><time>2026-03-22T02:25:01Z</time></trkpt><trkpt lat="24.82416625096665" lon="121.19983894679926"><ele>274.0</ele><time>2026-03-22T02:25:02Z</time></trkpt><trkpt lat="24.82393511310363" lon="121.19985152816196"><ele>276.0</ele><time>2026-03-22T02:25:03Z</time></trkpt><trkpt lat="24.823708378567982" lon="121.19986465684997"><ele>276.0</ele><time>2026-03-22T02:25:04Z</time></trkpt><trkpt lat="24.823484855115243" lon="121.19987753127667"><ele>276.0</ele><time>2026-03-22T02:25:05Z</time></trkpt><trkpt lat="24.82326009527733" lon="121.1998903078083"><ele>276.0</ele><time>2026-03-22T02:25:06Z</time></trkpt><trkpt lat="24.823033000486035" lon="121.19990179946522"><ele>275.0</ele><time>2026-03-22T02:25:07Z</time></trkpt><trkpt lat="24.822804517795195" lon="121.19991483720179"><ele>274.0</ele><time>2026-03-22T02:25:08Z</time></trkpt><trkpt lat="24.822574977354307" lon="121.19992804458006"><ele>268.0</ele><time>2026-03-22T02:25:09Z</time></trkpt><trkpt lat="24.822344069079907" lon="121.199939284738"><ele>262.0</ele><time>2026-03-22T02:25:10Z</time></trkpt><trkpt lat="24.822113198185974" lon="121.19995024634"><ele>262.0</ele><time>2026-03-22T02:25:11Z</time></trkpt><trkpt lat="24.821882602352346" lon="121.19996169461292"><ele>262.0</ele><time>2026-03-22T02:25:12Z</time></trkpt><trkpt lat="24.821652049619182" lon="121.19997399206639"><ele>266.0</ele><time>2026-03-22T02:25:13Z</time></trkpt><trkpt lat="24.82142211611824" lon="121.19998740706474"><ele>270.0</ele><time>2026-03-22T02:25:14Z</time></trkpt><trkpt lat="24.82119173275551" lon="121.20000029869144"><ele>272.5</ele><time>2026-03-22T02:25:15Z</time></trkpt><trkpt lat="24.820961160764927" lon="121.20001246142374"><ele>275.0</ele><time>2026-03-22T02:25:16Z</time></trkpt><trkpt lat="24.820730897764115" lon="121.20002503831738"><ele>275.0</ele><time>2026-03-22T02:25:17Z</time></trkpt><trkpt lat="24.820500547019126" lon="121.20003789668972"><ele>275.0</ele><time>2026-03-22T02:25:18Z</time></trkpt><trkpt lat="24.820270943951467" lon="121.20005065760957"><ele>274.5</ele><time>2026-03-22T02:25:19Z</time></trkpt><trkpt lat="24.82004090207327" lon="121.2000630283183"><ele>274.0</ele><time>2026-03-22T02:25:20Z</time></trkpt><trkpt lat="24.81981090986874" lon="121.20007606407536"><ele>274.0</ele><time>2026-03-22T02:25:21Z</time></trkpt><trkpt lat="24.81958122221392" lon="121.20008850391373"><ele>274.0</ele><time>2026-03-22T02:25:22Z</time></trkpt><trkpt lat="24.81935178282186" lon="121.20010035716815"><ele>272.5</ele><time>2026-03-22T02:25:23Z</time></trkpt><trkpt lat="24.81912508164901" lon="121.20011271116259"><ele>271.0</ele><time>2026-03-22T02:25:24Z</time></trkpt><trkpt lat="24.818895273774693" lon="121.20012476111337"><ele>271.0</ele><time>2026-03-22T02:25:25Z</time></trkpt><trkpt lat="24.818665401439155" lon="121.20013695293268"><ele>271.0</ele><time>2026-03-22T02:25:26Z</time></trkpt><trkpt lat="24.818435781880265" lon="121.20014977526066"><ele>270.5</ele><time>2026-03-22T02:25:27Z</time></trkpt><trkpt lat="24.818205384585216" lon="121.20016186327503"><ele>270.0</ele><time>2026-03-22T02:25:28Z</time></trkpt><trkpt lat="24.817972980549218" lon="121.20017528006127"><ele>270.0</ele><time>2026-03-22T02:25:29Z</time></trkpt><trkpt lat="24.817737492231302" lon="121.20018881788053"><ele>270.0</ele><time>2026-03-22T02:25:30Z</time></trkpt><trkpt lat="24.817499997972327" lon="121.20020123120648"><ele>273.5</ele><time>2026-03-22T02:25:31Z</time></trkpt><trkpt lat="24.817259373680514" lon="121.20021505601127"><ele>277.0</ele><time>2026-03-22T02:25:32Z</time></trkpt><trkpt lat="24.817016625303292" lon="121.20022760788291"><ele>274.5</ele><time>2026-03-22T02:25:33Z</time></trkpt><trkpt lat="24.816772600268845" lon="121.20024122236907"><ele>272.0</ele><time>2026-03-22T02:25:34Z</time></trkpt><trkpt lat="24.816529157210045" lon="121.20025361296739"><ele>272.0</ele><time>2026-03-22T02:25:35Z</time></trkpt><trkpt lat="24.816285479163632" lon="121.2002669033913"><ele>272.0</ele><time>2026-03-22T02:25:36Z</time></trkpt><trkpt lat="24.81603977036226" lon="121.20028160267421"><ele>272.5</ele><time>2026-03-22T02:25:37Z</time></trkpt><trkpt lat="24.81579377789534" lon="121.200294692745"><ele>273.0</ele><time>2026-03-22T02:25:38Z</time></trkpt><trkpt lat="24.815548828255867" lon="121.20030779181994"><ele>273.0</ele><time>2026-03-22T02:25:39Z</time></trkpt><trkpt lat="24.81530486111376" lon="121.20031991346788"><ele>273.0</ele><time>2026-03-22T02:25:40Z</time></trkpt><trkpt lat="24.81506089365148" lon="121.20033250914335"><ele>270.5</ele><time>2026-03-22T02:25:41Z</time></trkpt><trkpt lat="24.814817669007564" lon="121.20034472442464"><ele>268.0</ele><time>2026-03-22T02:25:42Z</time></trkpt><trkpt lat="24.814578393604744" lon="121.20035683258932"><ele>268.0</ele><time>2026-03-22T02:25:43Z</time></trkpt><trkpt lat="24.81434076962373" lon="121.20036874041853"><ele>268.0</ele><time>2026-03-22T02:25:44Z</time></trkpt><trkpt lat="24.81410535403945" lon="121.20037842846955"><ele>264.5</ele><time>2026-03-22T02:25:45Z</time></trkpt><trkpt lat="24.81387440160385" lon="121.20038799444869"><ele>261.0</ele><time>2026-03-22T02:25:46Z</time></trkpt><trkpt lat="24.813644722849006" lon="121.20039644292015"><ele>250.5</ele><time>2026-03-22T02:25:47Z</time></trkpt><trkpt lat="24.813416108006024" lon="121.20040247546802"><ele>240.0</ele><time>2026-03-22T02:25:48Z</time></trkpt><trkpt lat="24.813189069051578" lon="121.20040841780332"><ele>240.0</ele><time>2026-03-22T02:25:49Z</time></trkpt><trkpt lat="24.812963094786408" lon="121.20041358486996"><ele>240.0</ele><time>2026-03-22T02:25:50Z</time></trkpt><trkpt lat="24.812739198376345" lon="121.20041717780559"><ele>232.0</ele><time>2026-03-22T02:25:51Z</time></trkpt><trkpt lat="24.812513450456773" lon="121.20041889035637"><ele>224.0</ele><time>2026-03-22T02:25:52Z</time></trkpt><trkpt lat="24.81228654598455" lon="121.2004187135691"><ele>224.0</ele><time>2026-03-22T02:25:53Z</time></trkpt><trkpt lat="24.812056808173228" lon="121.20041704231485"><ele>224.0</ele><time>2026-03-22T02:25:54Z</time></trkpt><trkpt lat="24.811824030983395" lon="121.20041501785032"><ele>221.0</ele><time>2026-03-22T02:25:55Z</time></trkpt><trkpt lat="24.811589002940707" lon="121.2004121737364"><ele>218.0</ele><time>2026-03-22T02:25:56Z</time></trkpt><trkpt lat="24.81135320195155" lon="121.20040601911704"><ele>218.0</ele><time>2026-03-22T02:25:57Z</time></trkpt><trkpt lat="24.811116803822422" lon="121.20039653748132"><ele>218.0</ele><time>2026-03-22T02:25:58Z</time></trkpt><trkpt lat="24.810879491367906" lon="121.2003848319767"><ele>217.0</ele><time>2026-03-22T02:25:59Z</time></trkpt><trkpt lat="24.81064220391526" lon="121.2003695055516"><ele>216.0</ele><time>2026-03-22T02:26:00Z</time></trkpt><trkpt lat="24.810404278063288" lon="121.20035215890653"><ele>216.0</ele><time>2026-03-22T02:26:01Z</time></trkpt><trkpt lat="24.810163857294416" lon="121.20033263970274"><ele>216.0</ele><time>2026-03-22T02:26:02Z</time></trkpt><trkpt lat="24.80992086825267" lon="121.20030998497809"><ele>221.0</ele><time>2026-03-22T02:26:03Z</time></trkpt><trkpt lat="24.809675827574193" lon="121.20028170362046"><ele>226.0</ele><time>2026-03-22T02:26:04Z</time></trkpt><trkpt lat="24.809430668897733" lon="121.20025085088452"><ele>235.5</ele><time>2026-03-22T02:26:05Z</time></trkpt><trkpt lat="24.80918618306052" lon="121.20021621766084"><ele>245.0</ele><time>2026-03-22T02:26:06Z</time></trkpt><trkpt lat="24.808942511542078" lon="121.20017940553993"><ele>245.0</ele><time>2026-03-22T02:26:07Z</time></trkpt><trkpt lat="24.808697999552372" lon="121.20013938491111"><ele>245.0</ele><time>2026-03-22T02:26:08Z</time></trkpt><trkpt lat="24.808454553331483" lon="121.20009401459565"><ele>249.5</ele><time>2026-03-22T02:26:09Z</time></trkpt><trkpt lat="24.808211902195684" lon="121.20004412672608"><ele>254.0</ele><time>2026-03-22T02:26:10Z</time></trkpt><trkpt lat="24.80797027215103" lon="121.19999024149644"><ele>254.0</ele><time>2026-03-22T02:26:11Z</time></trkpt><trkpt lat="24.807730459153834" lon="121.19993182108102"><ele>254.0</ele><time>2026-03-22T02:26:12Z</time></trkpt><trkpt lat="24.807490824125438" lon="121.19986939208653"><ele>253.5</ele><time>2026-03-22T02:26:13Z</time></trkpt><trkpt lat="24.80725314303713" lon="121.19980219679593"><ele>253.0</ele><time>2026-03-22T02:26:14Z</time></trkpt><trkpt lat="24.807015624039277" lon="121.19972858332183"><ele>253.5</ele><time>2026-03-22T02:26:15Z</time></trkpt><trkpt lat="24.80677628633642" lon="121.19965179575732"><ele>254.0</ele><time>2026-03-22T02:26:16Z</time></trkpt><trkpt lat="24.80653770630228" lon="121.19957155112502"><ele>254.0</ele><time>2026-03-22T02:26:17Z</time></trkpt><trkpt lat="24.806300824948146" lon="121.19948616432504"><ele>254.0</ele><time>2026-03-22T02:26:18Z</time></trkpt><trkpt lat="24.806064966242495" lon="121.19939571888267"><ele>251.5</ele><time>2026-03-22T02:26:19Z</time></trkpt><trkpt lat="24.805831341817402" lon="121.19930042000647"><ele>249.0</ele><time>2026-03-22T02:26:20Z</time></trkpt><trkpt lat="24.805599336211454" lon="121.19920039279343"><ele>249.0</ele><time>2026-03-22T02:26:21Z</time></trkpt><trkpt lat="24.805369205408756" lon="121.19909521902103"><ele>249.0</ele><time>2026-03-22T02:26:22Z</time></trkpt><trkpt lat="24.80514122915444" lon="121.19898458995371"><ele>247.5</ele><time>2026-03-22T02:26:23Z</time></trkpt><trkpt lat="24.80491403438598" lon="121.19887061940982"><ele>246.0</ele><time>2026-03-22T02:26:24Z</time></trkpt><trkpt lat="24.80468771312858" lon="121.19875388440877"><ele>246.0</ele><time>2026-03-22T02:26:25Z</time></trkpt><trkpt lat="24.804464423856675" lon="121.19863580858743"><ele>246.0</ele><time>2026-03-22T02:26:26Z</time></trkpt><trkpt lat="24.80424850115329" lon="121.19851461886411"><ele>242.5</ele><time>2026-03-22T02:26:27Z</time></trkpt><trkpt lat="24.804038142237346" lon="121.19838919357781"><ele>239.0</ele><time>2026-03-22T02:26:28Z</time></trkpt><trkpt lat="24.803826698542263" lon="121.19825602791401"><ele>242.0</ele><time>2026-03-22T02:26:29Z</time></trkpt><trkpt lat="24.803612870935616" lon="121.1981208940667"><ele>245.0</ele><time>2026-03-22T02:26:30Z</time></trkpt><trkpt lat="24.803398676156846" lon="121.19798025362536"><ele>245.0</ele><time>2026-03-22T02:26:31Z</time></trkpt><trkpt lat="24.803183989735754" lon="121.19783267566551"><ele>245.0</ele><time>2026-03-22T02:26:32Z</time></trkpt><trkpt lat="24.8029714104177" lon="121.19767956247263"><ele>245.0</ele><time>2026-03-22T02:26:33Z</time></trkpt><trkpt lat="24.802761440843927" lon="121.19752210704372"><ele>245.0</ele><time>2026-03-22T02:26:34Z</time></trkpt><trkpt lat="24.802557732832287" lon="121.19736161968787"><ele>245.0</ele><time>2026-03-22T02:26:35Z</time></trkpt><trkpt lat="24.802351810366147" lon="121.19719488895615"><ele>245.0</ele><time>2026-03-22T02:26:36Z</time></trkpt><trkpt lat="24.802147531765478" lon="121.19702247061075"><ele>245.0</ele><time>2026-03-22T02:26:37Z</time></trkpt><trkpt lat="24.8019452312756" lon="121.19684942104976"><ele>245.0</ele><time>2026-03-22T02:26:38Z</time></trkpt><trkpt lat="24.801745311800822" lon="121.19667126400874"><ele>243.0</ele><time>2026-03-22T02:26:39Z</time></trkpt><trkpt lat="24.801547814963808" lon="121.19648890077539"><ele>241.0</ele><time>2026-03-22T02:26:40Z</time></trkpt><trkpt lat="24.801351477568378" lon="121.19630078997889"><ele>241.0</ele><time>2026-03-22T02:26:41Z</time></trkpt><trkpt lat="24.801155832468783" lon="121.19610527424703"><ele>241.0</ele><time>2026-03-22T02:26:42Z</time></trkpt><trkpt lat="24.800961256079" lon="121.19590083764217"><ele>236.5</ele><time>2026-03-22T02:26:43Z</time></trkpt><trkpt lat="24.80077274342436" lon="121.19568951913499"><ele>232.0</ele><time>2026-03-22T02:26:44Z</time></trkpt><trkpt lat="24.800591490376323" lon="121.19547116444235"><ele>232.0</ele><time>2026-03-22T02:26:45Z</time></trkpt><trkpt lat="24.800413669692308" lon="121.19524843140935"><ele>232.0</ele><time>2026-03-22T02:26:46Z</time></trkpt><trkpt lat="24.80023601251548" lon="121.19502895193062"><ele>230.5</ele><time>2026-03-22T02:26:47Z</time></trkpt><trkpt lat="24.80006078550111" lon="121.194809617061"><ele>229.0</ele><time>2026-03-22T02:26:48Z</time></trkpt><trkpt lat="24.799892739080214" lon="121.19458367208765"><ele>229.0</ele><time>2026-03-22T02:26:49Z</time></trkpt><trkpt lat="24.799726007148102" lon="121.19435615215296"><ele>229.0</ele><time>2026-03-22T02:26:50Z</time></trkpt><trkpt lat="24.799561374161094" lon="121.19412576696854"><ele>232.5</ele><time>2026-03-22T02:26:51Z</time></trkpt><trkpt lat="24.799402566122357" lon="121.19389153439559"><ele>236.0</ele><time>2026-03-22T02:26:52Z</time></trkpt><trkpt lat="24.799247146177304" lon="121.19365361287308"><ele>229.0</ele><time>2026-03-22T02:26:53Z</time></trkpt><trkpt lat="24.79909470262041" lon="121.1934148446318"><ele>222.0</ele><time>2026-03-22T02:26:54Z</time></trkpt><trkpt lat="24.79894675685323" lon="121.19317241769713"><ele>225.5</ele><time>2026-03-22T02:26:55Z</time></trkpt><trkpt lat="24.798802310458978" lon="121.19292577319789"><ele>229.0</ele><time>2026-03-22T02:26:56Z</time></trkpt><trkpt lat="24.798661084342754" lon="121.1926773500276"><ele>229.0</ele><time>2026-03-22T02:26:57Z</time></trkpt><trkpt lat="24.798525162207675" lon="121.19242691906437"><ele>229.0</ele><time>2026-03-22T02:26:58Z</time></trkpt><trkpt lat="24.798393183817307" lon="121.19217420192386"><ele>225.0</ele><time>2026-03-22T02:26:59Z</time></trkpt><trkpt lat="24.798266624828727" lon="121.1919181002698"><ele>221.0</ele><time>2026-03-22T02:27:00Z</time></trkpt><trkpt lat="24.798145877441442" lon="121.19165786953594"><ele>222.5</ele><time>2026-03-22T02:27:01Z</time></trkpt><trkpt lat="24.798028777625884" lon="121.19139541643175"><ele>224.0</ele><time>2026-03-22T02:27:02Z</time></trkpt><trkpt lat="24.797916007820547" lon="121.19113004252753"><ele>224.0</ele><time>2026-03-22T02:27:03Z</time></trkpt><trkpt lat="24.797807104032085" lon="121.19086338782371"><ele>224.0</ele><time>2026-03-22T02:27:04Z</time></trkpt><trkpt lat="24.797701937346666" lon="121.19059601464427"><ele>214.0</ele><time>2026-03-22T02:27:05Z</time></trkpt><trkpt lat="24.797601408498917" lon="121.19032739425198"><ele>204.0</ele><time>2026-03-22T02:27:06Z</time></trkpt><trkpt lat="24.797506312367062" lon="121.19005582445871"><ele>199.0</ele><time>2026-03-22T02:27:07Z</time></trkpt><trkpt lat="24.79741578387265" lon="121.18978208364133"><ele>194.0</ele><time>2026-03-22T02:27:08Z</time></trkpt><trkpt lat="24.797329838240803" lon="121.18950742489325"><ele>194.0</ele><time>2026-03-22T02:27:09Z</time></trkpt><trkpt lat="24.797248780862187" lon="121.18923155936052"><ele>194.0</ele><time>2026-03-22T02:27:10Z</time></trkpt><trkpt lat="24.797173603590558" lon="121.18895279592687"><ele>190.5</ele><time>2026-03-22T02:27:11Z</time></trkpt><trkpt lat="24.79710394130307" lon="121.1886736090191"><ele>187.0</ele><time>2026-03-22T02:27:12Z</time></trkpt><trkpt lat="24.797039194344766" lon="121.18839348601387"><ele>181.0</ele><time>2026-03-22T02:27:13Z</time></trkpt><trkpt lat="24.796979019819645" lon="121.18811277907854"><ele>175.0</ele><time>2026-03-22T02:27:14Z</time></trkpt><trkpt lat="24.796923077284152" lon="121.18783109560984"><ele>175.0</ele><time>2026-03-22T02:27:15Z</time></trkpt><trkpt lat="24.79687277074582" lon="121.18754836869572"><ele>175.0</ele><time>2026-03-22T02:27:16Z</time></trkpt><trkpt lat="24.796825464230793" lon="121.18726657411203"><ele>168.5</ele><time>2026-03-22T02:27:17Z</time></trkpt><trkpt lat="24.7967810716979" lon="121.18698417713448"><ele>162.0</ele><time>2026-03-22T02:27:18Z</time></trkpt><trkpt lat="24.796742168385574" lon="121.1867020338213"><ele>158.0</ele><time>2026-03-22T02:27:19Z</time></trkpt><trkpt lat="24.79670963418472" lon="121.18641864581603"><ele>154.0</ele><time>2026-03-22T02:27:20Z</time></trkpt><trkpt lat="24.79668148515277" lon="121.18613621652662"><ele>154.0</ele><time>2026-03-22T02:27:21Z</time></trkpt><trkpt lat="24.796658955856053" lon="121.18585407180984"><ele>154.0</ele><time>2026-03-22T02:27:22Z</time></trkpt><trkpt lat="24.79664124373575" lon="121.18557259741732"><ele>154.5</ele><time>2026-03-22T02:27:23Z</time></trkpt><trkpt lat="24.796628649646518" lon="121.18529103281506"><ele>155.0</ele><time>2026-03-22T02:27:24Z</time></trkpt><trkpt lat="24.79661987284523" lon="121.18501076569495"><ele>158.5</ele><time>2026-03-22T02:27:25Z</time></trkpt><trkpt lat="24.796614845664166" lon="121.18473107826833"><ele>162.0</ele><time>2026-03-22T02:27:26Z</time></trkpt><trkpt lat="24.79661352226408" lon="121.18445014353918"><ele>162.0</ele><time>2026-03-22T02:27:27Z</time></trkpt><trkpt lat="24.796617467498244" lon="121.18416893745494"><ele>162.0</ele><time>2026-03-22T02:27:28Z</time></trkpt><trkpt lat="24.796627141762293" lon="121.18388642562044"><ele>163.0</ele><time>2026-03-22T02:27:29Z</time></trkpt><trkpt lat="24.796641062090526" lon="121.18360167533754"><ele>164.0</ele><time>2026-03-22T02:27:30Z</time></trkpt><trkpt lat="24.796658663070417" lon="121.18331471281164"><ele>173.5</ele><time>2026-03-22T02:27:31Z</time></trkpt><trkpt lat="24.796678554110425" lon="121.18302599701887"><ele>183.0</ele><time>2026-03-22T02:27:32Z</time></trkpt><trkpt lat="24.796703158382062" lon="121.18273473244787"><ele>183.0</ele><time>2026-03-22T02:27:33Z</time></trkpt><trkpt lat="24.796732112539495" lon="121.18244504959657"><ele>183.0</ele><time>2026-03-22T02:27:34Z</time></trkpt><trkpt lat="24.79676511907066" lon="121.18215667296366"><ele>189.5</ele><time>2026-03-22T02:27:35Z</time></trkpt><trkpt lat="24.796803887702037" lon="121.18186980835637"><ele>196.0</ele><time>2026-03-22T02:27:36Z</time></trkpt><trkpt lat="24.79684783439906" lon="121.18158579462235"><ele>198.0</ele><time>2026-03-22T02:27:37Z</time></trkpt><trkpt lat="24.796895934433596" lon="121.18130395842924"><ele>200.0</ele><time>2026-03-22T02:27:38Z</time></trkpt><trkpt lat="24.796952140639167" lon="121.18102436517981"><ele>200.0</ele><time>2026-03-22T02:27:39Z</time></trkpt><trkpt lat="24.79701279945791" lon="121.18074641349276"><ele>200.0</ele><time>2026-03-22T02:27:40Z</time></trkpt><trkpt lat="24.797077129812177" lon="121.18047012915123"><ele>202.5</ele><time>2026-03-22T02:27:41Z</time></trkpt><trkpt lat="24.797148435379118" lon="121.18019742320935"><ele>205.0</ele><time>2026-03-22T02:27:42Z</time></trkpt><trkpt lat="24.797223289142647" lon="121.1799271642731"><ele>200.0</ele><time>2026-03-22T02:27:43Z</time></trkpt><trkpt lat="24.797303178993204" lon="121.17965960434871"><ele>195.0</ele><time>2026-03-22T02:27:44Z</time></trkpt><trkpt lat="24.797386591737798" lon="121.17939352547205"><ele>195.0</ele><time>2026-03-22T02:27:45Z</time></trkpt><trkpt lat="24.797472189023026" lon="121.17912869546475"><ele>195.0</ele><time>2026-03-22T02:27:46Z</time></trkpt><trkpt lat="24.797561589915578" lon="121.17886647163839"><ele>193.5</ele><time>2026-03-22T02:27:47Z</time></trkpt><trkpt lat="24.797655560121758" lon="121.17860498160145"><ele>192.0</ele><time>2026-03-22T02:27:48Z</time></trkpt><trkpt lat="24.79775370026568" lon="121.17834664853089"><ele>197.0</ele><time>2026-03-22T02:27:49Z</time></trkpt><trkpt lat="24.797857450322073" lon="121.1780909203426"><ele>202.0</ele><time>2026-03-22T02:27:50Z</time></trkpt><trkpt lat="24.797967084467306" lon="121.1778369023301"><ele>202.0</ele><time>2026-03-22T02:27:51Z</time></trkpt><trkpt lat="24.798082103370895" lon="121.17758406227348"><ele>202.0</ele><time>2026-03-22T02:27:52Z</time></trkpt><trkpt lat="24.79820006709291" lon="121.17733130092417"><ele>197.0</ele><time>2026-03-22T02:27:53Z</time></trkpt><trkpt lat="24.79831986903613" lon="121.17707912606345"><ele>192.0</ele><time>2026-03-22T02:27:54Z</time></trkpt><trkpt lat="24.798442762566648" lon="121.17682766886797"><ele>194.0</ele><time>2026-03-22T02:27:55Z</time></trkpt><trkpt lat="24.798566702754027" lon="121.17657595892032"><ele>196.0</ele><time>2026-03-22T02:27:56Z</time></trkpt><trkpt lat="24.798694130976727" lon="121.17632446283561"><ele>196.0</ele><time>2026-03-22T02:27:57Z</time></trkpt><trkpt lat="24.798827348015664" lon="121.17607546184912"><ele>196.0</ele><time>2026-03-22T02:27:58Z</time></trkpt><trkpt lat="24.79896521911943" lon="121.17582850934103"><ele>189.0</ele><time>2026-03-22T02:27:59Z</time></trkpt><trkpt lat="24.79910390453874" lon="121.17558180152686"><ele>182.0</ele><time>2026-03-22T02:28:00Z</time></trkpt><trkpt lat="24.799245655161393" lon="121.17533690397832"><ele>181.5</ele><time>2026-03-22T02:28:01Z</time></trkpt><trkpt lat="24.7993872528415" lon="121.17509117986184"><ele>181.0</ele><time>2026-03-22T02:28:02Z</time></trkpt><trkpt lat="24.799532918930527" lon="121.17484802953511"><ele>181.0</ele><time>2026-03-22T02:28:03Z</time></trkpt><trkpt lat="24.799679982926076" lon="121.17460558813228"><ele>181.0</ele><time>2026-03-22T02:28:04Z</time></trkpt><trkpt lat="24.79982686277613" lon="121.17436393345618"><ele>181.0</ele><time>2026-03-22T02:28:05Z</time></trkpt><trkpt lat="24.79997607281733" lon="121.17412404131375"><ele>181.0</ele><time>2026-03-22T02:28:06Z</time></trkpt><trkpt lat="24.800126491506095" lon="121.1738861386424"><ele>178.5</ele><time>2026-03-22T02:28:07Z</time></trkpt><trkpt lat="24.800276836249736" lon="121.17364822597708"><ele>176.0</ele><time>2026-03-22T02:28:08Z</time></trkpt><trkpt lat="24.800427538977686" lon="121.17341028855182"><ele>174.0</ele><time>2026-03-22T02:28:09Z</time></trkpt><trkpt lat="24.80057702348389" lon="121.17317250027624"><ele>172.0</ele><time>2026-03-22T02:28:10Z</time></trkpt><trkpt lat="24.800727808278815" lon="121.17293639705692"><ele>172.0</ele><time>2026-03-22T02:28:11Z</time></trkpt><trkpt lat="24.80087781577363" lon="121.17270041187976"><ele>172.0</ele><time>2026-03-22T02:28:12Z</time></trkpt><trkpt lat="24.801026209465284" lon="121.17246375427565"><ele>173.0</ele><time>2026-03-22T02:28:13Z</time></trkpt><trkpt lat="24.80117400460208" lon="121.17222612021006"><ele>174.0</ele><time>2026-03-22T02:28:14Z</time></trkpt><trkpt lat="24.801321984306185" lon="121.17198997951068"><ele>174.0</ele><time>2026-03-22T02:28:15Z</time></trkpt><trkpt lat="24.801469510550902" lon="121.17175373776841"><ele>174.0</ele><time>2026-03-22T02:28:16Z</time></trkpt><trkpt lat="24.801615378483184" lon="121.1715173534906"><ele>172.0</ele><time>2026-03-22T02:28:17Z</time></trkpt><trkpt lat="24.801761339986495" lon="121.17128082082034"><ele>170.0</ele><time>2026-03-22T02:28:18Z</time></trkpt><trkpt lat="24.80190563966533" lon="121.17104470292722"><ele>173.5</ele><time>2026-03-22T02:28:19Z</time></trkpt><trkpt lat="24.802049992496244" lon="121.17080839682868"><ele>177.0</ele><time>2026-03-22T02:28:20Z</time></trkpt><trkpt lat="24.802192548386035" lon="121.17057227069367"><ele>177.0</ele><time>2026-03-22T02:28:21Z</time></trkpt><trkpt lat="24.80233428099315" lon="121.17033759561194"><ele>177.0</ele><time>2026-03-22T02:28:22Z</time></trkpt><trkpt lat="24.802474280264523" lon="121.17010172265017"><ele>177.0</ele><time>2026-03-22T02:28:23Z</time></trkpt><trkpt lat="24.80261276591996" lon="121.1698661798947"><ele>177.0</ele><time>2026-03-22T02:28:24Z</time></trkpt><trkpt lat="24.80274950498865" lon="121.16963032342748"><ele>181.0</ele><time>2026-03-22T02:28:25Z</time></trkpt><trkpt lat="24.802885312290037" lon="121.16939487157983"><ele>185.0</ele><time>2026-03-22T02:28:26Z</time></trkpt><trkpt lat="24.80302005501119" lon="121.16915906690913"><ele>177.0</ele><time>2026-03-22T02:28:27Z</time></trkpt><trkpt lat="24.803153271421998" lon="121.16892344934885"><ele>169.0</ele><time>2026-03-22T02:28:28Z</time></trkpt><trkpt lat="24.803284529564017" lon="121.16868791735781"><ele>169.0</ele><time>2026-03-22T02:28:29Z</time></trkpt><trkpt lat="24.80341424101035" lon="121.16845202430365"><ele>169.0</ele><time>2026-03-22T02:28:30Z</time></trkpt><trkpt lat="24.803541310062172" lon="121.16821660813947"><ele>165.0</ele><time>2026-03-22T02:28:31Z</time></trkpt><trkpt lat="24.80366675177086" lon="121.16798169974015"><ele>161.0</ele><time>2026-03-22T02:28:32Z</time></trkpt><trkpt lat="24.803789640012646" lon="121.16774581409192"><ele>161.0</ele><time>2026-03-22T02:28:33Z</time></trkpt><trkpt lat="24.80391030793468" lon="121.16750985397694"><ele>161.0</ele><time>2026-03-22T02:28:34Z</time></trkpt><trkpt lat="24.804028961961816" lon="121.16727257494729"><ele>165.0</ele><time>2026-03-22T02:28:35Z</time></trkpt><trkpt lat="24.804146729850896" lon="121.16703187794397"><ele>169.0</ele><time>2026-03-22T02:28:36Z</time></trkpt><trkpt lat="24.80426481714133" lon="121.16678779511902"><ele>174.5</ele><time>2026-03-22T02:28:37Z</time></trkpt><trkpt lat="24.804381563979582" lon="121.16654031147353"><ele>180.0</ele><time>2026-03-22T02:28:38Z</time></trkpt><trkpt lat="24.804497313990147" lon="121.16628884875526"><ele>180.0</ele><time>2026-03-22T02:28:39Z</time></trkpt><trkpt lat="24.804611593592906" lon="121.16603461576868"><ele>180.0</ele><time>2026-03-22T02:28:40Z</time></trkpt><trkpt lat="24.804724858370207" lon="121.16577786457842"><ele>174.0</ele><time>2026-03-22T02:28:41Z</time></trkpt><trkpt lat="24.804838915828853" lon="121.16551914263101"><ele>168.0</ele><time>2026-03-22T02:28:42Z</time></trkpt><trkpt lat="24.804952829289775" lon="121.16525773639196"><ele>168.0</ele><time>2026-03-22T02:28:43Z</time></trkpt><trkpt lat="24.805065016639457" lon="121.1649978670249"><ele>168.0</ele><time>2026-03-22T02:28:44Z</time></trkpt><trkpt lat="24.805174454246732" lon="121.16473744361059"><ele>171.5</ele><time>2026-03-22T02:28:45Z</time></trkpt><trkpt lat="24.805280853266538" lon="121.16447705491585"><ele>175.0</ele><time>2026-03-22T02:28:46Z</time></trkpt><trkpt lat="24.80538235245082" lon="121.16421591901194"><ele>175.0</ele><time>2026-03-22T02:28:47Z</time></trkpt><trkpt lat="24.80547820321871" lon="121.16395326975582"><ele>175.0</ele><time>2026-03-22T02:28:48Z</time></trkpt><trkpt lat="24.80557132321849" lon="121.16369000204459"><ele>175.0</ele><time>2026-03-22T02:28:49Z</time></trkpt><trkpt lat="24.8056628092368" lon="121.16342674423194"><ele>175.0</ele><time>2026-03-22T02:28:50Z</time></trkpt><trkpt lat="24.80575035293612" lon="121.1631622272162"><ele>174.0</ele><time>2026-03-22T02:28:51Z</time></trkpt><trkpt lat="24.80583507492855" lon="121.16289735185136"><ele>173.0</ele><time>2026-03-22T02:28:52Z</time></trkpt><trkpt lat="24.80591890929815" lon="121.16263362251063"><ele>180.0</ele><time>2026-03-22T02:28:53Z</time></trkpt><trkpt lat="24.806001131621677" lon="121.16236877766853"><ele>187.0</ele><time>2026-03-22T02:28:54Z</time></trkpt><trkpt lat="24.8060810709648" lon="121.1621039230569"><ele>187.0</ele><time>2026-03-22T02:28:55Z</time></trkpt><trkpt lat="24.806157787716096" lon="121.16183766781555"><ele>187.0</ele><time>2026-03-22T02:28:56Z</time></trkpt><trkpt lat="24.806232995343844" lon="121.16157217557637"><ele>181.0</ele><time>2026-03-22T02:28:57Z</time></trkpt><trkpt lat="24.806305564340743" lon="121.16130564754965"><ele>175.0</ele><time>2026-03-22T02:28:58Z</time></trkpt><trkpt lat="24.806375841741954" lon="121.1610379831099"><ele>175.0</ele><time>2026-03-22T02:28:59Z</time></trkpt><trkpt lat="24.806442232310893" lon="121.16076964499871"><ele>175.0</ele><time>2026-03-22T02:29:00Z</time></trkpt><trkpt lat="24.806505553244044" lon="121.16050061574136"><ele>167.0</ele><time>2026-03-22T02:29:01Z</time></trkpt><trkpt lat="24.806566465617255" lon="121.16023081181217"><ele>159.0</ele><time>2026-03-22T02:29:02Z</time></trkpt><trkpt lat="24.806627276207863" lon="121.15996000931182"><ele>158.5</ele><time>2026-03-22T02:29:03Z</time></trkpt><trkpt lat="24.80668587176513" lon="121.15968859739161"><ele>158.0</ele><time>2026-03-22T02:29:04Z</time></trkpt><trkpt lat="24.806741522614214" lon="121.15941629652905"><ele>158.0</ele><time>2026-03-22T02:29:05Z</time></trkpt><trkpt lat="24.80679664113252" lon="121.15914355303352"><ele>158.0</ele><time>2026-03-22T02:29:06Z</time></trkpt><trkpt lat="24.806848685407836" lon="121.15887048282734"><ele>167.0</ele><time>2026-03-22T02:29:07Z</time></trkpt><trkpt lat="24.806898241953732" lon="121.15859574031202"><ele>176.0</ele><time>2026-03-22T02:29:08Z</time></trkpt><trkpt lat="24.806945129153796" lon="121.1583203504417"><ele>170.5</ele><time>2026-03-22T02:29:09Z</time></trkpt><trkpt lat="24.806989733115852" lon="121.15804280992653"><ele>165.0</ele><time>2026-03-22T02:29:10Z</time></trkpt><trkpt lat="24.80703249860724" lon="121.15776563355182"><ele>165.0</ele><time>2026-03-22T02:29:11Z</time></trkpt><trkpt lat="24.807072267056284" lon="121.1574867671449"><ele>165.0</ele><time>2026-03-22T02:29:12Z</time></trkpt><trkpt lat="24.807110190385234" lon="121.15720626170527"><ele>157.0</ele><time>2026-03-22T02:29:13Z</time></trkpt><trkpt lat="24.80714590705114" lon="121.15692510049843"><ele>149.0</ele><time>2026-03-22T02:29:14Z</time></trkpt><trkpt lat="24.80717825734936" lon="121.15664277055436"><ele>151.5</ele><time>2026-03-22T02:29:15Z</time></trkpt><trkpt lat="24.80720768628706" lon="121.15635993537823"><ele>154.0</ele><time>2026-03-22T02:29:16Z</time></trkpt><trkpt lat="24.807235068777082" lon="121.15607631453885"><ele>154.0</ele><time>2026-03-22T02:29:17Z</time></trkpt><trkpt lat="24.807263131974572" lon="121.15579182275349"><ele>154.0</ele><time>2026-03-22T02:29:18Z</time></trkpt><trkpt lat="24.80728693801857" lon="121.15550719012525"><ele>154.0</ele><time>2026-03-22T02:29:19Z</time></trkpt><trkpt lat="24.807307967982855" lon="121.1552210172238"><ele>154.0</ele><time>2026-03-22T02:29:20Z</time></trkpt><trkpt lat="24.807326573296123" lon="121.15493449944499"><ele>154.0</ele><time>2026-03-22T02:29:21Z</time></trkpt><trkpt lat="24.807341576459475" lon="121.15464660487763"><ele>154.0</ele><time>2026-03-22T02:29:22Z</time></trkpt><trkpt lat="24.80735342321595" lon="121.1543579803271"><ele>154.0</ele><time>2026-03-22T02:29:23Z</time></trkpt><trkpt lat="24.807363199979314" lon="121.15407002708577"><ele>154.0</ele><time>2026-03-22T02:29:24Z</time></trkpt><trkpt lat="24.807371072002883" lon="121.15378034056586"><ele>156.0</ele><time>2026-03-22T02:29:25Z</time></trkpt><trkpt lat="24.80737492140093" lon="121.15348923784677"><ele>158.0</ele><time>2026-03-22T02:29:26Z</time></trkpt><trkpt lat="24.807377237510018" lon="121.15319849804888"><ele>154.0</ele><time>2026-03-22T02:29:27Z</time></trkpt><trkpt lat="24.80737752243958" lon="121.15290676139323"><ele>150.0</ele><time>2026-03-22T02:29:28Z</time></trkpt><trkpt lat="24.807376209556868" lon="121.15261352777325"><ele>148.5</ele><time>2026-03-22T02:29:29Z</time></trkpt><trkpt lat="24.807371432711562" lon="121.15232066826009"><ele>147.0</ele><time>2026-03-22T02:29:30Z</time></trkpt><trkpt lat="24.807365218965117" lon="121.15202859051908"><ele>147.0</ele><time>2026-03-22T02:29:31Z</time></trkpt><trkpt lat="24.80735713235522" lon="121.15173495059692"><ele>147.0</ele><time>2026-03-22T02:29:32Z</time></trkpt><trkpt lat="24.807344569996935" lon="121.15144221652807"><ele>147.0</ele><time>2026-03-22T02:29:33Z</time></trkpt><trkpt lat="24.807328973878565" lon="121.1511485747132"><ele>147.0</ele><time>2026-03-22T02:29:34Z</time></trkpt><trkpt lat="24.807310404846238" lon="121.15085498415574"><ele>144.0</ele><time>2026-03-22T02:29:35Z</time></trkpt><trkpt lat="24.807289785376398" lon="121.15056164240693"><ele>141.0</ele><time>2026-03-22T02:29:36Z</time></trkpt><trkpt lat="24.80726701956202" lon="121.15026890610376"><ele>141.0</ele><time>2026-03-22T02:29:37Z</time></trkpt><trkpt lat="24.807240573248034" lon="121.1499762455723"><ele>141.0</ele><time>2026-03-22T02:29:38Z</time></trkpt><trkpt lat="24.807211517526966" lon="121.14968404099508"><ele>132.0</ele><time>2026-03-22T02:29:39Z</time></trkpt><trkpt lat="24.807178906550703" lon="121.14939366547561"><ele>123.0</ele><time>2026-03-22T02:29:40Z</time></trkpt><trkpt lat="24.807145328752323" lon="121.14910319050335"><ele>125.0</ele><time>2026-03-22T02:29:41Z</time></trkpt><trkpt lat="24.807109527179865" lon="121.14881336500503"><ele>127.0</ele><time>2026-03-22T02:29:42Z</time></trkpt><trkpt lat="24.80707138327085" lon="121.14852433956048"><ele>127.0</ele><time>2026-03-22T02:29:43Z</time></trkpt><trkpt lat="24.807031034029816" lon="121.14823627682105"><ele>127.0</ele><time>2026-03-22T02:29:44Z</time></trkpt><trkpt lat="24.806987257441577" lon="121.14794955668253"><ele>139.0</ele><time>2026-03-22T02:29:45Z</time></trkpt><trkpt lat="24.806941124650145" lon="121.1476642227662"><ele>151.0</ele><time>2026-03-22T02:29:46Z</time></trkpt><trkpt lat="24.806891698801635" lon="121.14737912599021"><ele>159.0</ele><time>2026-03-22T02:29:47Z</time></trkpt><trkpt lat="24.806839423468272" lon="121.14709655920086"><ele>167.0</ele><time>2026-03-22T02:29:48Z</time></trkpt><trkpt lat="24.806785653559448" lon="121.14681438834282"><ele>141.0</ele><time>2026-03-22T02:29:49Z</time></trkpt><trkpt lat="24.806728218981736" lon="121.14653411814247"><ele>115.0</ele><time>2026-03-22T02:29:50Z</time></trkpt><trkpt lat="24.80666901320989" lon="121.14625525626995"><ele>115.0</ele><time>2026-03-22T02:29:51Z</time></trkpt><trkpt lat="24.806607681901635" lon="121.1459770645756"><ele>115.0</ele><time>2026-03-22T02:29:52Z</time></trkpt><trkpt lat="24.80654736213879" lon="121.14570139655797"><ele>108.5</ele><time>2026-03-22T02:29:53Z</time></trkpt><trkpt lat="24.806483885793163" lon="121.14542521200543"><ele>102.0</ele><time>2026-03-22T02:29:54Z</time></trkpt><trkpt lat="24.806418068472222" lon="121.14515183938035"><ele>102.0</ele><time>2026-03-22T02:29:55Z</time></trkpt><trkpt lat="24.806349089339015" lon="121.14488117478396"><ele>102.0</ele><time>2026-03-22T02:29:56Z</time></trkpt><trkpt lat="24.806278340337595" lon="121.14461398663472"><ele>99.5</ele><time>2026-03-22T02:29:57Z</time></trkpt><trkpt lat="24.80620543760342" lon="121.14434692739619"><ele>97.0</ele><time>2026-03-22T02:29:58Z</time></trkpt><trkpt lat="24.806131121413074" lon="121.14408185514561"><ele>94.0</ele><time>2026-03-22T02:29:59Z</time></trkpt><trkpt lat="24.806055306050855" lon="121.14381909321813"><ele>91.0</ele><time>2026-03-22T02:30:00Z</time></trkpt><trkpt lat="24.80597565995681" lon="121.1435586727682"><ele>91.0</ele><time>2026-03-22T02:30:01Z</time></trkpt><trkpt lat="24.80589504824217" lon="121.14330156734589"><ele>91.0</ele><time>2026-03-22T02:30:02Z</time></trkpt><trkpt lat="24.80581290421887" lon="121.14304648574266"><ele>91.5</ele><time>2026-03-22T02:30:03Z</time></trkpt><trkpt lat="24.80572966099177" lon="121.14279259436572"><ele>92.0</ele><time>2026-03-22T02:30:04Z</time></trkpt><trkpt lat="24.80564529289778" lon="121.14254284687354"><ele>91.5</ele><time>2026-03-22T02:30:05Z</time></trkpt><trkpt lat="24.805559451322402" lon="121.14229409552917"><ele>91.0</ele><time>2026-03-22T02:30:06Z</time></trkpt><trkpt lat="24.805472433758773" lon="121.14204775852743"><ele>91.0</ele><time>2026-03-22T02:30:07Z</time></trkpt><trkpt lat="24.805383315350863" lon="121.14180462173222"><ele>91.0</ele><time>2026-03-22T02:30:08Z</time></trkpt><trkpt lat="24.805292682720847" lon="121.14156409651787"><ele>91.5</ele><time>2026-03-22T02:30:09Z</time></trkpt><trkpt lat="24.805201304479787" lon="121.14132556941256"><ele>92.0</ele><time>2026-03-22T02:30:10Z</time></trkpt><trkpt lat="24.805108644123365" lon="121.14109020627735"><ele>99.5</ele><time>2026-03-22T02:30:11Z</time></trkpt><trkpt lat="24.805014977884376" lon="121.14085693597058"><ele>107.0</ele><time>2026-03-22T02:30:12Z</time></trkpt><trkpt lat="24.804919756307903" lon="121.14062680834431"><ele>107.0</ele><time>2026-03-22T02:30:13Z</time></trkpt><trkpt lat="24.80482336746148" lon="121.14039833495143"><ele>107.0</ele><time>2026-03-22T02:30:14Z</time></trkpt><trkpt lat="24.80472462184453" lon="121.14016905443026"><ele>107.0</ele><time>2026-03-22T02:30:15Z</time></trkpt><trkpt lat="24.80462494371903" lon="121.13993959769137"><ele>107.0</ele><time>2026-03-22T02:30:16Z</time></trkpt><trkpt lat="24.804521660529314" lon="121.1397115444001"><ele>105.5</ele><time>2026-03-22T02:30:17Z</time></trkpt><trkpt lat="24.804415014094428" lon="121.1394858722204"><ele>104.0</ele><time>2026-03-22T02:30:18Z</time></trkpt><trkpt lat="24.804306477759788" lon="121.13926097043702"><ele>107.0</ele><time>2026-03-22T02:30:19Z</time></trkpt><trkpt lat="24.804197738604028" lon="121.1390357266413"><ele>110.0</ele><time>2026-03-22T02:30:20Z</time></trkpt><trkpt lat="24.804088046111406" lon="121.13880939994868"><ele>110.0</ele><time>2026-03-22T02:30:21Z</time></trkpt><trkpt lat="24.8039769585256" lon="121.13858426463285"><ele>110.0</ele><time>2026-03-22T02:30:22Z</time></trkpt><trkpt lat="24.803863040647983" lon="121.13836115843384"><ele>110.0</ele><time>2026-03-22T02:30:23Z</time></trkpt><trkpt lat="24.80374678668036" lon="121.13813981219388"><ele>110.0</ele><time>2026-03-22T02:30:24Z</time></trkpt><trkpt lat="24.803630881009845" lon="121.13791841284326"><ele>110.0</ele><time>2026-03-22T02:30:25Z</time></trkpt><trkpt lat="24.803514216016534" lon="121.13769790041188"><ele>110.0</ele><time>2026-03-22T02:30:26Z</time></trkpt><trkpt lat="24.80339506269024" lon="121.13747944204779"><ele>110.5</ele><time>2026-03-22T02:30:27Z</time></trkpt><trkpt lat="24.803273507886807" lon="121.13726221191777"><ele>111.0</ele><time>2026-03-22T02:30:28Z</time></trkpt><trkpt lat="24.80314860810899" lon="121.13704705151228"><ele>111.0</ele><time>2026-03-22T02:30:29Z</time></trkpt><trkpt lat="24.80302258043795" lon="121.13683332988323"><ele>111.0</ele><time>2026-03-22T02:30:30Z</time></trkpt><trkpt lat="24.802894950479377" lon="121.13661940274885"><ele>112.0</ele><time>2026-03-22T02:30:31Z</time></trkpt><trkpt lat="24.802764002834827" lon="121.13640579947797"><ele>113.0</ele><time>2026-03-22T02:30:32Z</time></trkpt><trkpt lat="24.802630217648854" lon="121.13619084257094"><ele>113.0</ele><time>2026-03-22T02:30:33Z</time></trkpt><trkpt lat="24.80249351887202" lon="121.13597455200453"><ele>113.0</ele><time>2026-03-22T02:30:34Z</time></trkpt><trkpt lat="24.80235283736509" lon="121.13575770278614"><ele>115.5</ele><time>2026-03-22T02:30:35Z</time></trkpt><trkpt lat="24.802209344278424" lon="121.13553968250449"><ele>118.0</ele><time>2026-03-22T02:30:36Z</time></trkpt><trkpt lat="24.802063225832576" lon="121.13532055594487"><ele>118.0</ele><time>2026-03-22T02:30:37Z</time></trkpt><trkpt lat="24.801913449010023" lon="121.13510014250053"><ele>118.0</ele><time>2026-03-22T02:30:38Z</time></trkpt><trkpt lat="24.80175982093308" lon="121.13487995201714"><ele>120.0</ele><time>2026-03-22T02:30:39Z</time></trkpt><trkpt lat="24.801602788054662" lon="121.13465920032273"><ele>122.0</ele><time>2026-03-22T02:30:40Z</time></trkpt><trkpt lat="24.801444443108593" lon="121.13443806297032"><ele>122.0</ele><time>2026-03-22T02:30:41Z</time></trkpt><trkpt lat="24.80128417484033" lon="121.13421874439614"><ele>122.0</ele><time>2026-03-22T02:30:42Z</time></trkpt><trkpt lat="24.801122728929965" lon="121.13400135130414"><ele>122.5</ele><time>2026-03-22T02:30:43Z</time></trkpt><trkpt lat="24.800958623374438" lon="121.13378446245189"><ele>123.0</ele><time>2026-03-22T02:30:44Z</time></trkpt><trkpt lat="24.80079241279368" lon="121.13357048535038"><ele>123.0</ele><time>2026-03-22T02:30:45Z</time></trkpt><trkpt lat="24.800624619357187" lon="121.13335822551834"><ele>123.0</ele><time>2026-03-22T02:30:46Z</time></trkpt><trkpt lat="24.800455638101784" lon="121.13314683389795"><ele>117.0</ele><time>2026-03-22T02:30:47Z</time></trkpt><trkpt lat="24.800285209150225" lon="121.13293710065332"><ele>111.0</ele><time>2026-03-22T02:30:48Z</time></trkpt><trkpt lat="24.80011105470111" lon="121.13272988673903"><ele>111.0</ele><time>2026-03-22T02:30:49Z</time></trkpt><trkpt lat="24.79993441214261" lon="121.13252500896243"><ele>111.0</ele><time>2026-03-22T02:30:50Z</time></trkpt><trkpt lat="24.79975637737701" lon="121.13232223517993"><ele>111.0</ele><time>2026-03-22T02:30:51Z</time></trkpt><trkpt lat="24.799575920300224" lon="121.13212168716323"><ele>111.0</ele><time>2026-03-22T02:30:52Z</time></trkpt><trkpt lat="24.799394484843752" lon="121.13192186973775"><ele>111.0</ele><time>2026-03-22T02:30:53Z</time></trkpt><trkpt lat="24.79921138348087" lon="121.13172395145875"><ele>111.0</ele><time>2026-03-22T02:30:54Z</time></trkpt><trkpt lat="24.79902689730979" lon="121.13152786163957"><ele>117.0</ele><time>2026-03-22T02:30:55Z</time></trkpt><trkpt lat="24.798841130679474" lon="121.13133262498023"><ele>123.0</ele><time>2026-03-22T02:30:56Z</time></trkpt><trkpt lat="24.79865305103705" lon="121.13113986986933"><ele>126.0</ele><time>2026-03-22T02:30:57Z</time></trkpt><trkpt lat="24.798462989135587" lon="121.13094867649765"><ele>129.0</ele><time>2026-03-22T02:30:58Z</time></trkpt><trkpt lat="24.7982718005545" lon="121.13075950177603"><ele>136.0</ele><time>2026-03-22T02:30:59Z</time></trkpt><trkpt lat="24.79807759622234" lon="121.13057391705134"><ele>143.0</ele><time>2026-03-22T02:31:00Z</time></trkpt><trkpt lat="24.797881940590013" lon="121.13039134401372"><ele>143.0</ele><time>2026-03-22T02:31:01Z</time></trkpt><trkpt lat="24.7976846909857" lon="121.13021091247535"><ele>143.0</ele><time>2026-03-22T02:31:02Z</time></trkpt><trkpt lat="24.797486388876997" lon="121.1300306358902"><ele>154.5</ele><time>2026-03-22T02:31:03Z</time></trkpt><trkpt lat="24.7972875090799" lon="121.12985183568064"><ele>166.0</ele><time>2026-03-22T02:31:04Z</time></trkpt><trkpt lat="24.79708751432432" lon="121.12967367983474"><ele>166.0</ele><time>2026-03-22T02:31:05Z</time></trkpt><trkpt lat="24.796885118775332" lon="121.12949855131102"><ele>166.0</ele><time>2026-03-22T02:31:06Z</time></trkpt><trkpt lat="24.796680704575333" lon="121.12932728852944"><ele>168.5</ele><time>2026-03-22T02:31:07Z</time></trkpt><trkpt lat="24.796474616885252" lon="121.12915787997869"><ele>171.0</ele><time>2026-03-22T02:31:08Z</time></trkpt><trkpt lat="24.796266679788914" lon="121.12898969789593"><ele>171.0</ele><time>2026-03-22T02:31:09Z</time></trkpt><trkpt lat="24.79605768440362" lon="121.1288237375078"><ele>171.0</ele><time>2026-03-22T02:31:10Z</time></trkpt><trkpt lat="24.79584748735855" lon="121.1286593765494"><ele>160.0</ele><time>2026-03-22T02:31:11Z</time></trkpt><trkpt lat="24.795635413734107" lon="121.12849749487656"><ele>149.0</ele><time>2026-03-22T02:31:12Z</time></trkpt><trkpt lat="24.795422096587323" lon="121.12833787337271"><ele>150.5</ele><time>2026-03-22T02:31:13Z</time></trkpt><trkpt lat="24.795206224804097" lon="121.1281802407348"><ele>152.0</ele><time>2026-03-22T02:31:14Z</time></trkpt><trkpt lat="24.794989384106238" lon="121.12802671564691"><ele>152.0</ele><time>2026-03-22T02:31:15Z</time></trkpt><trkpt lat="24.79477205094157" lon="121.12787309860919"><ele>152.0</ele><time>2026-03-22T02:31:16Z</time></trkpt><trkpt lat="24.794553381158114" lon="121.12772085202882"><ele>151.0</ele><time>2026-03-22T02:31:17Z</time></trkpt><trkpt lat="24.794332375526004" lon="121.12757280688396"><ele>150.0</ele><time>2026-03-22T02:31:18Z</time></trkpt><trkpt lat="24.794109593616728" lon="121.1274282699334"><ele>154.5</ele><time>2026-03-22T02:31:19Z</time></trkpt><trkpt lat="24.793887300398193" lon="121.12728484660177"><ele>159.0</ele><time>2026-03-22T02:31:20Z</time></trkpt><trkpt lat="24.79366325697521" lon="121.12714183141163"><ele>153.5</ele><time>2026-03-22T02:31:21Z</time></trkpt><trkpt lat="24.79343709754252" lon="121.12700238650577"><ele>148.0</ele><time>2026-03-22T02:31:22Z</time></trkpt><trkpt lat="24.79321030516131" lon="121.1268639643407"><ele>148.0</ele><time>2026-03-22T02:31:23Z</time></trkpt><trkpt lat="24.792983313881336" lon="121.12672853865857"><ele>148.0</ele><time>2026-03-22T02:31:24Z</time></trkpt><trkpt lat="24.7927544698996" lon="121.1265962916222"><ele>157.0</ele><time>2026-03-22T02:31:25Z</time></trkpt><trkpt lat="24.79252471032567" lon="121.12646426366054"><ele>166.0</ele><time>2026-03-22T02:31:26Z</time></trkpt><trkpt lat="24.792292917445454" lon="121.12633481031054"><ele>166.0</ele><time>2026-03-22T02:31:27Z</time></trkpt><trkpt lat="24.792060471736793" lon="121.12620811579234"><ele>166.0</ele><time>2026-03-22T02:31:28Z</time></trkpt><trkpt lat="24.791827731647302" lon="121.12608319871102"><ele>158.0</ele><time>2026-03-22T02:31:29Z</time></trkpt><trkpt lat="24.79159333954411" lon="121.12595991602898"><ele>150.0</ele><time>2026-03-22T02:31:30Z</time></trkpt><trkpt lat="24.791357971383558" lon="121.12583971372712"><ele>148.5</ele><time>2026-03-22T02:31:31Z</time></trkpt><trkpt lat="24.79112262560453" lon="121.12572115470297"><ele>147.0</ele><time>2026-03-22T02:31:32Z</time></trkpt><trkpt lat="24.790887322628848" lon="121.12560126952144"><ele>147.0</ele><time>2026-03-22T02:31:33Z</time></trkpt><trkpt lat="24.790650942703614" lon="121.12548237552517"><ele>147.0</ele><time>2026-03-22T02:31:34Z</time></trkpt><trkpt lat="24.79041605717979" lon="121.125363292271"><ele>147.0</ele><time>2026-03-22T02:31:35Z</time></trkpt><trkpt lat="24.790178576897084" lon="121.12524717205977"><ele>147.0</ele><time>2026-03-22T02:31:36Z</time></trkpt><trkpt lat="24.78994255463149" lon="121.12513039695801"><ele>148.5</ele><time>2026-03-22T02:31:37Z</time></trkpt><trkpt lat="24.789706097460147" lon="121.12501299637862"><ele>150.0</ele><time>2026-03-22T02:31:38Z</time></trkpt><trkpt lat="24.789469417919168" lon="121.12489586850863"><ele>152.0</ele><time>2026-03-22T02:31:39Z</time></trkpt><trkpt lat="24.789233698998842" lon="121.1247778625896"><ele>154.0</ele><time>2026-03-22T02:31:40Z</time></trkpt><trkpt lat="24.788997226552645" lon="121.12466146674396"><ele>154.0</ele><time>2026-03-22T02:31:41Z</time></trkpt><trkpt lat="24.788760313690428" lon="121.12454633161789"><ele>154.0</ele><time>2026-03-22T02:31:42Z</time></trkpt><trkpt lat="24.788524350439342" lon="121.12442917129768"><ele>149.5</ele><time>2026-03-22T02:31:43Z</time></trkpt><trkpt lat="24.788288651211953" lon="121.12431082830615"><ele>145.0</ele><time>2026-03-22T02:31:44Z</time></trkpt><trkpt lat="24.7880529026602" lon="121.12419383027195"><ele>145.0</ele><time>2026-03-22T02:31:45Z</time></trkpt><trkpt lat="24.787818244300823" lon="121.1240748641551"><ele>145.0</ele><time>2026-03-22T02:31:46Z</time></trkpt><trkpt lat="24.78758388218863" lon="121.12395475331743"><ele>144.0</ele><time>2026-03-22T02:31:47Z</time></trkpt><trkpt lat="24.787351653052667" lon="121.12383068368504"><ele>143.0</ele><time>2026-03-22T02:31:48Z</time></trkpt><trkpt lat="24.787121140107562" lon="121.12370275592589"><ele>143.0</ele><time>2026-03-22T02:31:49Z</time></trkpt><trkpt lat="24.786890686539234" lon="121.12357266499862"><ele>143.0</ele><time>2026-03-22T02:31:50Z</time></trkpt><trkpt lat="24.78666258545277" lon="121.1234391387041"><ele>143.0</ele><time>2026-03-22T02:31:51Z</time></trkpt><trkpt lat="24.786435920245612" lon="121.12330401656538"><ele>143.0</ele><time>2026-03-22T02:31:52Z</time></trkpt><trkpt lat="24.786211556751244" lon="121.12316433046264"><ele>146.5</ele><time>2026-03-22T02:31:53Z</time></trkpt><trkpt lat="24.78598978229821" lon="121.1230203151888"><ele>150.0</ele><time>2026-03-22T02:31:54Z</time></trkpt><trkpt lat="24.785770369788228" lon="121.12287205037916"><ele>150.0</ele><time>2026-03-22T02:31:55Z</time></trkpt><trkpt lat="24.785554396192605" lon="121.12271859599537"><ele>150.0</ele><time>2026-03-22T02:31:56Z</time></trkpt><trkpt lat="24.785340545179185" lon="121.12256075969276"><ele>150.5</ele><time>2026-03-22T02:31:57Z</time></trkpt><trkpt lat="24.785130134385938" lon="121.12239827747727"><ele>151.0</ele><time>2026-03-22T02:31:58Z</time></trkpt><trkpt lat="24.784922668594298" lon="121.122232048167"><ele>163.5</ele><time>2026-03-22T02:31:59Z</time></trkpt><trkpt lat="24.784717628394453" lon="121.12206268159018"><ele>176.0</ele><time>2026-03-22T02:32:00Z</time></trkpt><trkpt lat="24.784515845900785" lon="121.12188926120197"><ele>179.5</ele><time>2026-03-22T02:32:01Z</time></trkpt><trkpt lat="24.784317966884803" lon="121.12171069803483"><ele>183.0</ele><time>2026-03-22T02:32:02Z</time></trkpt><trkpt lat="24.784124168639675" lon="121.12152718840457"><ele>183.0</ele><time>2026-03-22T02:32:03Z</time></trkpt><trkpt lat="24.783933511731178" lon="121.12133881988089"><ele>183.0</ele><time>2026-03-22T02:32:04Z</time></trkpt><trkpt lat="24.783743860158648" lon="121.12114823912286"><ele>183.0</ele><time>2026-03-22T02:32:05Z</time></trkpt><trkpt lat="24.783557153178446" lon="121.12095418795526"><ele>183.0</ele><time>2026-03-22T02:32:06Z</time></trkpt><trkpt lat="24.78337291900958" lon="121.12075786269018"><ele>185.0</ele><time>2026-03-22T02:32:07Z</time></trkpt><trkpt lat="24.783192347278995" lon="121.12055706566315"><ele>187.0</ele><time>2026-03-22T02:32:08Z</time></trkpt><trkpt lat="24.78301625855619" lon="121.12035117688939"><ele>187.0</ele><time>2026-03-22T02:32:09Z</time></trkpt><trkpt lat="24.782843269042733" lon="121.12014127544649"><ele>187.0</ele><time>2026-03-22T02:32:10Z</time></trkpt><trkpt lat="24.782674934042006" lon="121.11992670083771"><ele>186.0</ele><time>2026-03-22T02:32:11Z</time></trkpt><trkpt lat="24.782510975534947" lon="121.11970769101958"><ele>185.0</ele><time>2026-03-22T02:32:12Z</time></trkpt><trkpt lat="24.782349767253237" lon="121.11948479600258"><ele>185.0</ele><time>2026-03-22T02:32:13Z</time></trkpt><trkpt lat="24.782192456015363" lon="121.11925955383168"><ele>185.0</ele><time>2026-03-22T02:32:14Z</time></trkpt><trkpt lat="24.782038147106764" lon="121.11903205973587"><ele>179.0</ele><time>2026-03-22T02:32:15Z</time></trkpt><trkpt lat="24.781887625039058" lon="121.11880157325673"><ele>173.0</ele><time>2026-03-22T02:32:16Z</time></trkpt><trkpt lat="24.781741947665523" lon="121.11856781101379"><ele>173.0</ele><time>2026-03-22T02:32:17Z</time></trkpt><trkpt lat="24.781601914639015" lon="121.11832911364071"><ele>173.0</ele><time>2026-03-22T02:32:18Z</time></trkpt><trkpt lat="24.781465783334124" lon="121.11808689898636"><ele>177.5</ele><time>2026-03-22T02:32:19Z</time></trkpt><trkpt lat="24.78133404616437" lon="121.11784293006278"><ele>182.0</ele><time>2026-03-22T02:32:20Z</time></trkpt><trkpt lat="24.78120544701073" lon="121.11759595378967"><ele>179.5</ele><time>2026-03-22T02:32:21Z</time></trkpt><trkpt lat="24.781079877395292" lon="121.11734755707201"><ele>177.0</ele><time>2026-03-22T02:32:22Z</time></trkpt><trkpt lat="24.780959293088802" lon="121.11709548704084"><ele>177.0</ele><time>2026-03-22T02:32:23Z</time></trkpt><trkpt lat="24.780842919685202" lon="121.11684002886345"><ele>177.0</ele><time>2026-03-22T02:32:24Z</time></trkpt><trkpt lat="24.780732801503923" lon="121.1165827600159"><ele>182.0</ele><time>2026-03-22T02:32:25Z</time></trkpt><trkpt lat="24.780629062902335" lon="121.11632232878112"><ele>187.0</ele><time>2026-03-22T02:32:26Z</time></trkpt><trkpt lat="24.780526350877768" lon="121.11605991825516"><ele>187.0</ele><time>2026-03-22T02:32:27Z</time></trkpt><trkpt lat="24.780427867309097" lon="121.11579609881949"><ele>187.0</ele><time>2026-03-22T02:32:28Z</time></trkpt><trkpt lat="24.78033453342255" lon="121.11552997859955"><ele>187.5</ele><time>2026-03-22T02:32:29Z</time></trkpt><trkpt lat="24.780246679998246" lon="121.11526274089766"><ele>188.0</ele><time>2026-03-22T02:32:30Z</time></trkpt><trkpt lat="24.780163801526793" lon="121.11499229572298"><ele>176.0</ele><time>2026-03-22T02:32:31Z</time></trkpt><trkpt lat="24.780085574335377" lon="121.11472032745488"><ele>164.0</ele><time>2026-03-22T02:32:32Z</time></trkpt><trkpt lat="24.780011866394158" lon="121.11444654854192"><ele>164.0</ele><time>2026-03-22T02:32:33Z</time></trkpt><trkpt lat="24.77994346570634" lon="121.11417034264767"><ele>164.0</ele><time>2026-03-22T02:32:34Z</time></trkpt><trkpt lat="24.779879537095734" lon="121.11389350433946"><ele>164.5</ele><time>2026-03-22T02:32:35Z</time></trkpt><trkpt lat="24.779820670997378" lon="121.1136164366599"><ele>165.0</ele><time>2026-03-22T02:32:36Z</time></trkpt><trkpt lat="24.779770966410442" lon="121.11333779616241"><ele>167.5</ele><time>2026-03-22T02:32:37Z</time></trkpt><trkpt lat="24.779723282911384" lon="121.113056265904"><ele>170.0</ele><time>2026-03-22T02:32:38Z</time></trkpt><trkpt lat="24.77968218184688" lon="121.11277318936814"><ele>170.0</ele><time>2026-03-22T02:32:39Z</time></trkpt><trkpt lat="24.77964427091857" lon="121.1124872799548"><ele>170.0</ele><time>2026-03-22T02:32:40Z</time></trkpt><trkpt lat="24.779607848810766" lon="121.11219745419841"><ele>172.0</ele><time>2026-03-22T02:32:41Z</time></trkpt><trkpt lat="24.779576018262123" lon="121.11190458591007"><ele>174.0</ele><time>2026-03-22T02:32:42Z</time></trkpt><trkpt lat="24.77954769148315" lon="121.1116093033005"><ele>174.5</ele><time>2026-03-22T02:32:43Z</time></trkpt><trkpt lat="24.779524668476707" lon="121.11130987683171"><ele>175.0</ele><time>2026-03-22T02:32:44Z</time></trkpt><trkpt lat="24.779505080248658" lon="121.11100795680618"><ele>174.0</ele><time>2026-03-22T02:32:45Z</time></trkpt><trkpt lat="24.779487183749307" lon="121.11070307069954"><ele>173.0</ele><time>2026-03-22T02:32:46Z</time></trkpt><trkpt lat="24.779472459701722" lon="121.1103988714148"><ele>173.0</ele><time>2026-03-22T02:32:47Z</time></trkpt><trkpt lat="24.77946084789122" lon="121.11009454831527"><ele>173.0</ele><time>2026-03-22T02:32:48Z</time></trkpt><trkpt lat="24.779449984736956" lon="121.10978831851469"><ele>170.0</ele><time>2026-03-22T02:32:49Z</time></trkpt><trkpt lat="24.779442255592674" lon="121.1094800631244"><ele>167.0</ele><time>2026-03-22T02:32:50Z</time></trkpt><trkpt lat="24.779434738119946" lon="121.10917081028941"><ele>162.0</ele><time>2026-03-22T02:32:51Z</time></trkpt><trkpt lat="24.7794272128083" lon="121.1088611384619"><ele>157.0</ele><time>2026-03-22T02:32:52Z</time></trkpt><trkpt lat="24.779422639343725" lon="121.1085541416894"><ele>157.0</ele><time>2026-03-22T02:32:53Z</time></trkpt><trkpt lat="24.77941710689379" lon="121.10824701398525"><ele>157.0</ele><time>2026-03-22T02:32:54Z</time></trkpt><trkpt lat="24.779409508409735" lon="121.10793876873184"><ele>152.0</ele><time>2026-03-22T02:32:55Z</time></trkpt><trkpt lat="24.77940132249208" lon="121.107629436689"><ele>147.0</ele><time>2026-03-22T02:32:56Z</time></trkpt><trkpt lat="24.779392187611776" lon="121.10731818247443"><ele>141.0</ele><time>2026-03-22T02:32:57Z</time></trkpt><trkpt lat="24.779380991991896" lon="121.10700623908807"><ele>135.0</ele><time>2026-03-22T02:32:58Z</time></trkpt><trkpt lat="24.779368615701372" lon="121.10669366334048"><ele>136.0</ele><time>2026-03-22T02:32:59Z</time></trkpt><trkpt lat="24.77935464724064" lon="121.10638070197278"><ele>137.0</ele><time>2026-03-22T02:33:00Z</time></trkpt><trkpt lat="24.779340467786216" lon="121.10606986417216"><ele>143.0</ele><time>2026-03-22T02:33:01Z</time></trkpt><trkpt lat="24.77932677300236" lon="121.1057599522429"><ele>149.0</ele><time>2026-03-22T02:33:02Z</time></trkpt><trkpt lat="24.779310027198374" lon="121.10545038019076"><ele>148.5</ele><time>2026-03-22T02:33:03Z</time></trkpt><trkpt lat="24.77929235181779" lon="121.10513968107631"><ele>148.0</ele><time>2026-03-22T02:33:04Z</time></trkpt><trkpt lat="24.779276481448456" lon="121.10483011211016"><ele>148.0</ele><time>2026-03-22T02:33:05Z</time></trkpt><trkpt lat="24.779260616279412" lon="121.104519770406"><ele>148.0</ele><time>2026-03-22T02:33:06Z</time></trkpt><trkpt lat="24.779243886568814" lon="121.10420944784093"><ele>145.0</ele><time>2026-03-22T02:33:07Z</time></trkpt><trkpt lat="24.779223381492123" lon="121.10390084303755"><ele>142.0</ele><time>2026-03-22T02:33:08Z</time></trkpt><trkpt lat="24.779201519112423" lon="121.1035929085088"><ele>142.0</ele><time>2026-03-22T02:33:09Z</time></trkpt><trkpt lat="24.779177271480798" lon="121.10328753367756"><ele>142.0</ele><time>2026-03-22T02:33:10Z</time></trkpt><trkpt lat="24.779152210083605" lon="121.10298342521364"><ele>139.5</ele><time>2026-03-22T02:33:11Z</time></trkpt><trkpt lat="24.779126373988554" lon="121.10268133332421"><ele>137.0</ele><time>2026-03-22T02:33:12Z</time></trkpt><trkpt lat="24.77909717623907" lon="121.102381776368"><ele>137.0</ele><time>2026-03-22T02:33:13Z</time></trkpt><trkpt lat="24.779065412217886" lon="121.10208443115827"><ele>137.0</ele><time>2026-03-22T02:33:14Z</time></trkpt><trkpt lat="24.779031414857286" lon="121.10178771772475"><ele>139.0</ele><time>2026-03-22T02:33:15Z</time></trkpt><trkpt lat="24.778995076625552" lon="121.10149121913517"><ele>141.0</ele><time>2026-03-22T02:33:16Z</time></trkpt><trkpt lat="24.7789580577839" lon="121.1011974141001"><ele>141.0</ele><time>2026-03-22T02:33:17Z</time></trkpt><trkpt lat="24.778917458548047" lon="121.10090293469474"><ele>141.0</ele><time>2026-03-22T02:33:18Z</time></trkpt><trkpt lat="24.778873400045505" lon="121.1006088596666"><ele>145.5</ele><time>2026-03-22T02:33:19Z</time></trkpt><trkpt lat="24.778826186552603" lon="121.10031505202413"><ele>150.0</ele><time>2026-03-22T02:33:20Z</time></trkpt><trkpt lat="24.77877639114723" lon="121.10001994164321"><ele>153.5</ele><time>2026-03-22T02:33:21Z</time></trkpt><trkpt lat="24.778723033259517" lon="121.09972649262478"><ele>157.0</ele><time>2026-03-22T02:33:22Z</time></trkpt><trkpt lat="24.77866736656306" lon="121.09943491243885"><ele>157.0</ele><time>2026-03-22T02:33:23Z</time></trkpt><trkpt lat="24.778609284775445" lon="121.0991435764065"><ele>157.0</ele><time>2026-03-22T02:33:24Z</time></trkpt><trkpt lat="24.778547097701345" lon="121.09885203033667"><ele>149.0</ele><time>2026-03-22T02:33:25Z</time></trkpt><trkpt lat="24.778480576303938" lon="121.09855896390127"><ele>141.0</ele><time>2026-03-22T02:33:26Z</time></trkpt><trkpt lat="24.778411187473495" lon="121.09826608707672"><ele>142.5</ele><time>2026-03-22T02:33:27Z</time></trkpt><trkpt lat="24.778337091402577" lon="121.09797222754194"><ele>144.0</ele><time>2026-03-22T02:33:28Z</time></trkpt><trkpt lat="24.778260912829843" lon="121.09767735697808"><ele>145.5</ele><time>2026-03-22T02:33:29Z</time></trkpt><trkpt lat="24.778180943233327" lon="121.09738125175286"><ele>147.0</ele><time>2026-03-22T02:33:30Z</time></trkpt><trkpt lat="24.778098551787664" lon="121.09708719302876"><ele>147.0</ele><time>2026-03-22T02:33:31Z</time></trkpt><trkpt lat="24.778014906084056" lon="121.09679408792394"><ele>147.0</ele><time>2026-03-22T02:33:32Z</time></trkpt><trkpt lat="24.777928287331182" lon="121.09650228565"><ele>142.0</ele><time>2026-03-22T02:33:33Z</time></trkpt><trkpt lat="24.77783874984012" lon="121.09621227349443"><ele>137.0</ele><time>2026-03-22T02:33:34Z</time></trkpt><trkpt lat="24.777744863150787" lon="121.09592393720375"><ele>138.5</ele><time>2026-03-22T02:33:35Z</time></trkpt><trkpt lat="24.777646187135012" lon="121.09563807531704"><ele>140.0</ele><time>2026-03-22T02:33:36Z</time></trkpt><trkpt lat="24.777542748388697" lon="121.09535413791713"><ele>140.0</ele><time>2026-03-22T02:33:37Z</time></trkpt><trkpt lat="24.777438038276813" lon="121.0950715744427"><ele>140.0</ele><time>2026-03-22T02:33:38Z</time></trkpt><trkpt lat="24.77733236995406" lon="121.09478951955417"><ele>140.5</ele><time>2026-03-22T02:33:39Z</time></trkpt><trkpt lat="24.777224845184634" lon="121.09450785902294"><ele>141.0</ele><time>2026-03-22T02:33:40Z</time></trkpt><trkpt lat="24.777113931242155" lon="121.09422777479408"><ele>134.5</ele><time>2026-03-22T02:33:41Z</time></trkpt><trkpt lat="24.77699955725189" lon="121.09394989046989"><ele>128.0</ele><time>2026-03-22T02:33:42Z</time></trkpt><trkpt lat="24.77688253314102" lon="121.09367320090591"><ele>128.5</ele><time>2026-03-22T02:33:43Z</time></trkpt><trkpt lat="24.776762085791724" lon="121.09339763976844"><ele>129.0</ele><time>2026-03-22T02:33:44Z</time></trkpt><trkpt lat="24.776638392321885" lon="121.09312508186223"><ele>126.5</ele><time>2026-03-22T02:33:45Z</time></trkpt><trkpt lat="24.776514371003937" lon="121.09285203641146"><ele>124.0</ele><time>2026-03-22T02:33:46Z</time></trkpt><trkpt lat="24.77638629673807" lon="121.09258174430875"><ele>117.0</ele><time>2026-03-22T02:33:47Z</time></trkpt><trkpt lat="24.776254680605977" lon="121.09231292377807"><ele>110.0</ele><time>2026-03-22T02:33:48Z</time></trkpt><trkpt lat="24.77611917226537" lon="121.09204648132695"><ele>110.5</ele><time>2026-03-22T02:33:49Z</time></trkpt><trkpt lat="24.77598164455567" lon="121.09178097538471"><ele>111.0</ele><time>2026-03-22T02:33:50Z</time></trkpt><trkpt lat="24.77584154379161" lon="121.09151726426566"><ele>111.0</ele><time>2026-03-22T02:33:51Z</time></trkpt><trkpt lat="24.77570039567715" lon="121.09125394040984"><ele>111.0</ele><time>2026-03-22T02:33:52Z</time></trkpt><trkpt lat="24.775556670600498" lon="121.09099258024854"><ele>109.0</ele><time>2026-03-22T02:33:53Z</time></trkpt><trkpt lat="24.775408813418778" lon="121.09073362423126"><ele>107.0</ele><time>2026-03-22T02:33:54Z</time></trkpt><trkpt lat="24.775258199875047" lon="121.0904777468046"><ele>107.0</ele><time>2026-03-22T02:33:55Z</time></trkpt><trkpt lat="24.775105095211927" lon="121.09022246546567"><ele>107.0</ele><time>2026-03-22T02:33:56Z</time></trkpt><trkpt lat="24.77494927351839" lon="121.08996953410765"><ele>106.5</ele><time>2026-03-22T02:33:57Z</time></trkpt><trkpt lat="24.77479068134331" lon="121.08971838616338"><ele>106.0</ele><time>2026-03-22T02:33:58Z</time></trkpt><trkpt lat="24.77462971176615" lon="121.08946916034694"><ele>106.0</ele><time>2026-03-22T02:33:59Z</time></trkpt><trkpt lat="24.77446757501544" lon="121.089220582508"><ele>106.0</ele><time>2026-03-22T02:34:00Z</time></trkpt><trkpt lat="24.774301466025857" lon="121.08897455659904"><ele>104.5</ele><time>2026-03-22T02:34:01Z</time></trkpt><trkpt lat="24.774132297112946" lon="121.08873144711026"><ele>103.0</ele><time>2026-03-22T02:34:02Z</time></trkpt><trkpt lat="24.7739616452462" lon="121.08848900298221"><ele>99.0</ele><time>2026-03-22T02:34:03Z</time></trkpt><trkpt lat="24.77378790672418" lon="121.08824890471439"><ele>95.0</ele><time>2026-03-22T02:34:04Z</time></trkpt><trkpt lat="24.773611224953257" lon="121.08801183646305"><ele>100.0</ele><time>2026-03-22T02:34:05Z</time></trkpt><trkpt lat="24.773431590470455" lon="121.08777716468256"><ele>105.0</ele><time>2026-03-22T02:34:06Z</time></trkpt><trkpt lat="24.773250046995685" lon="121.08754449581342"><ele>101.5</ele><time>2026-03-22T02:34:07Z</time></trkpt><trkpt lat="24.773066092556782" lon="121.0873148543348"><ele>98.0</ele><time>2026-03-22T02:34:08Z</time></trkpt><trkpt lat="24.772880377112166" lon="121.08708729713692"><ele>98.0</ele><time>2026-03-22T02:34:09Z</time></trkpt><trkpt lat="24.77269230285331" lon="121.0868629109569"><ele>98.0</ele><time>2026-03-22T02:34:10Z</time></trkpt><trkpt lat="24.77250231272321" lon="121.08664075911334"><ele>97.5</ele><time>2026-03-22T02:34:11Z</time></trkpt><trkpt lat="24.772310834030673" lon="121.08642156031603"><ele>97.0</ele><time>2026-03-22T02:34:12Z</time></trkpt><trkpt lat="24.772115928705972" lon="121.08620576484451"><ele>97.0</ele><time>2026-03-22T02:34:13Z</time></trkpt><trkpt lat="24.7719200125242" lon="121.08599354370527"><ele>97.0</ele><time>2026-03-22T02:34:14Z</time></trkpt><trkpt lat="24.771723015854803" lon="121.08578266143493"><ele>98.5</ele><time>2026-03-22T02:34:15Z</time></trkpt><trkpt lat="24.771524848671714" lon="121.0855733355003"><ele>100.0</ele><time>2026-03-22T02:34:16Z</time></trkpt><trkpt lat="24.77132665933417" lon="121.08536711295811"><ele>100.0</ele><time>2026-03-22T02:34:17Z</time></trkpt><trkpt lat="24.771125970455437" lon="121.08516395676632"><ele>100.0</ele><time>2026-03-22T02:34:18Z</time></trkpt><trkpt lat="24.770925212013353" lon="121.08496260912375"><ele>97.0</ele><time>2026-03-22T02:34:19Z</time></trkpt><trkpt lat="24.770723735955443" lon="121.08476378709287"><ele>94.0</ele><time>2026-03-22T02:34:20Z</time></trkpt><trkpt lat="24.770522083243367" lon="121.08456589808347"><ele>94.0</ele><time>2026-03-22T02:34:21Z</time></trkpt><trkpt lat="24.7703201190618" lon="121.08437079577244"><ele>94.0</ele><time>2026-03-22T02:34:22Z</time></trkpt><trkpt lat="24.77011694564436" lon="121.08417831511257"><ele>92.0</ele><time>2026-03-22T02:34:23Z</time></trkpt><trkpt lat="24.769913613135518" lon="121.08398803837598"><ele>90.0</ele><time>2026-03-22T02:34:24Z</time></trkpt><trkpt lat="24.769709850851928" lon="121.08380028698416"><ele>90.0</ele><time>2026-03-22T02:34:25Z</time></trkpt><trkpt lat="24.769506073642876" lon="121.08361420387526"><ele>90.0</ele><time>2026-03-22T02:34:26Z</time></trkpt><trkpt lat="24.7693030391182" lon="121.08342984108181"><ele>91.0</ele><time>2026-03-22T02:34:27Z</time></trkpt><trkpt lat="24.76910048000858" lon="121.08324562577408"><ele>92.0</ele><time>2026-03-22T02:34:28Z</time></trkpt><trkpt lat="24.768896439253204" lon="121.08306358077282"><ele>92.0</ele><time>2026-03-22T02:34:29Z</time></trkpt><trkpt lat="24.76869073779621" lon="121.08288480228319"><ele>92.0</ele><time>2026-03-22T02:34:30Z</time></trkpt><trkpt lat="24.768484717510507" lon="121.08270627623892"><ele>91.5</ele><time>2026-03-22T02:34:31Z</time></trkpt><trkpt lat="24.768279503575727" lon="121.08252699887362"><ele>91.0</ele><time>2026-03-22T02:34:32Z</time></trkpt><trkpt lat="24.768074064915975" lon="121.08234944125515"><ele>91.0</ele><time>2026-03-22T02:34:33Z</time></trkpt><trkpt lat="24.767871364871304" lon="121.08217368274362"><ele>91.0</ele><time>2026-03-22T02:34:34Z</time></trkpt><trkpt lat="24.76767071737859" lon="121.082000883795"><ele>93.0</ele><time>2026-03-22T02:34:35Z</time></trkpt><trkpt lat="24.767472814705595" lon="121.0818287708921"><ele>95.0</ele><time>2026-03-22T02:34:36Z</time></trkpt><trkpt lat="24.767276822545046" lon="121.08165909588145"><ele>93.5</ele><time>2026-03-22T02:34:37Z</time></trkpt><trkpt lat="24.767082821047726" lon="121.0814920467145"><ele>92.0</ele><time>2026-03-22T02:34:38Z</time></trkpt><trkpt lat="24.766892591630192" lon="121.08132386772105"><ele>93.0</ele><time>2026-03-22T02:34:39Z</time></trkpt><trkpt lat="24.766702212979528" lon="121.08115715027074"><ele>94.0</ele><time>2026-03-22T02:34:40Z</time></trkpt><trkpt lat="24.766510777088723" lon="121.0809929661315"><ele>94.0</ele><time>2026-03-22T02:34:41Z</time></trkpt><trkpt lat="24.766320936359346" lon="121.08082687392316"><ele>94.0</ele><time>2026-03-22T02:34:42Z</time></trkpt><trkpt lat="24.766130074420964" lon="121.08066107354091"><ele>96.5</ele><time>2026-03-22T02:34:43Z</time></trkpt><trkpt lat="24.76593913908212" lon="121.08049224774199"><ele>99.0</ele><time>2026-03-22T02:34:44Z</time></trkpt><trkpt lat="24.765746874305616" lon="121.0803220306518"><ele>99.0</ele><time>2026-03-22T02:34:45Z</time></trkpt><trkpt lat="24.76555102404477" lon="121.08015059265553"><ele>99.0</ele><time>2026-03-22T02:34:46Z</time></trkpt><trkpt lat="24.76535434042556" lon="121.07997624745698"><ele>96.5</ele><time>2026-03-22T02:34:47Z</time></trkpt><trkpt lat="24.765158254014302" lon="121.07979989510464"><ele>94.0</ele><time>2026-03-22T02:34:48Z</time></trkpt><trkpt lat="24.76496208030582" lon="121.07962348486595"><ele>94.0</ele><time>2026-03-22T02:34:49Z</time></trkpt><trkpt lat="24.764768536603324" lon="121.0794475811363"><ele>94.0</ele><time>2026-03-22T02:34:50Z</time></trkpt><trkpt lat="24.76457588232475" lon="121.07927114208087"><ele>94.0</ele><time>2026-03-22T02:34:51Z</time></trkpt><trkpt lat="24.76438675863214" lon="121.0790923057083"><ele>94.0</ele><time>2026-03-22T02:34:52Z</time></trkpt><trkpt lat="24.76419940433009" lon="121.07891329056777"><ele>94.0</ele><time>2026-03-22T02:34:53Z</time></trkpt><trkpt lat="24.764014058496738" lon="121.07873499134963"><ele>94.0</ele><time>2026-03-22T02:34:54Z</time></trkpt><trkpt lat="24.76383635406712" lon="121.07856154592136"><ele>94.0</ele><time>2026-03-22T02:34:55Z</time></trkpt><trkpt lat="24.763671289119397" lon="121.07839703606925"><ele>94.0</ele><time>2026-03-22T02:34:56Z</time></trkpt><trkpt lat="24.76351497930788" lon="121.07823792790802"><ele>94.0</ele><time>2026-03-22T02:34:57Z</time></trkpt><trkpt lat="24.763364127436187" lon="121.0780810751925"><ele>94.0</ele><time>2026-03-22T02:34:58Z</time></trkpt><trkpt lat="24.763217837444536" lon="121.0779209820177"><ele>94.0</ele><time>2026-03-22T02:34:59Z</time></trkpt><trkpt lat="24.763073618326995" lon="121.07776275548703"><ele>94.0</ele><time>2026-03-22T02:35:00Z</time></trkpt><trkpt lat="24.762928042734366" lon="121.07760787690559"><ele>94.0</ele><time>2026-03-22T02:35:01Z</time></trkpt><trkpt lat="24.76278595132157" lon="121.07744750745522"><ele>94.0</ele><time>2026-03-22T02:35:02Z</time></trkpt><trkpt lat="24.76264297931271" lon="121.07728417316301"><ele>94.0</ele><time>2026-03-22T02:35:03Z</time></trkpt><trkpt lat="24.76249906865407" lon="121.07711843893011"><ele>93.66666666666666</ele><time>2026-03-22T02:35:04Z</time></trkpt><trkpt lat="24.762355180052495" lon="121.07694906658496"><ele>93.33333333333333</ele><time>2026-03-22T02:35:05Z</time></trkpt><trkpt lat="24.76221146851802" lon="121.0767773568746"><ele>93.0</ele><time>2026-03-22T02:35:06Z</time></trkpt><trkpt lat="24.762067896417417" lon="121.07660158793195"><ele>91.33333333333333</ele><time>2026-03-22T02:35:07Z</time></trkpt><trkpt lat="24.761922436250384" lon="121.07642435650395"><ele>89.66666666666666</ele><time>2026-03-22T02:35:08Z</time></trkpt><trkpt lat="24.761778502534682" lon="121.07624706344134"><ele>88.0</ele><time>2026-03-22T02:35:09Z</time></trkpt><trkpt lat="24.761639862739194" lon="121.0760716663855"><ele>86.33333333333333</ele><time>2026-03-22T02:35:10Z</time></trkpt><trkpt lat="24.761506873072616" lon="121.07589402116137"><ele>84.66666666666667</ele><time>2026-03-22T02:35:11Z</time></trkpt><trkpt lat="24.76137534347344" lon="121.07571462655989"><ele>83.0</ele><time>2026-03-22T02:35:12Z</time></trkpt><trkpt lat="24.761244273744076" lon="121.0755346383373"><ele>83.0</ele><time>2026-03-22T02:35:13Z</time></trkpt><trkpt lat="24.761115074769542" lon="121.07535709968819"><ele>83.0</ele><time>2026-03-22T02:35:14Z</time></trkpt><trkpt lat="24.760989018359442" lon="121.07517839245575"><ele>83.0</ele><time>2026-03-22T02:35:15Z</time></trkpt><trkpt lat="24.760862559097315" lon="121.07499632869687"><ele>82.66666666666667</ele><time>2026-03-22T02:35:16Z</time></trkpt><trkpt lat="24.76073666826235" lon="121.07480900597164"><ele>82.33333333333333</ele><time>2026-03-22T02:35:17Z</time></trkpt><trkpt lat="24.760609871784194" lon="121.07461800869194"><ele>82.0</ele><time>2026-03-22T02:35:18Z</time></trkpt><trkpt lat="24.760483707228914" lon="121.07442255474474"><ele>82.0</ele><time>2026-03-22T02:35:19Z</time></trkpt><trkpt lat="24.76035647180134" lon="121.07422282221354"><ele>82.0</ele><time>2026-03-22T02:35:20Z</time></trkpt><trkpt lat="24.76022924085223" lon="121.07401913569429"><ele>82.0</ele><time>2026-03-22T02:35:21Z</time></trkpt><trkpt lat="24.760105169502904" lon="121.07381684660824"><ele>83.66666666666666</ele><time>2026-03-22T02:35:22Z</time></trkpt><trkpt lat="24.759984239087206" lon="121.0736146768834"><ele>85.33333333333333</ele><time>2026-03-22T02:35:23Z</time></trkpt><trkpt lat="24.75986499099761" lon="121.07341005607977"><ele>87.0</ele><time>2026-03-22T02:35:24Z</time></trkpt><trkpt lat="24.759746989612843" lon="121.0732032129097"><ele>87.0</ele><time>2026-03-22T02:35:25Z</time></trkpt><trkpt lat="24.759629890868112" lon="121.07299226984189"><ele>87.0</ele><time>2026-03-22T02:35:26Z</time></trkpt><trkpt lat="24.75951343458466" lon="121.07277868211564"><ele>87.0</ele><time>2026-03-22T02:35:27Z</time></trkpt><trkpt lat="24.75939852751646" lon="121.07256133375847"><ele>87.0</ele><time>2026-03-22T02:35:28Z</time></trkpt><trkpt lat="24.759283166177156" lon="121.07234094628151"><ele>95.0</ele><time>2026-03-22T02:35:29Z</time></trkpt><trkpt lat="24.759168855793856" lon="121.07211785487185"><ele>103.0</ele><time>2026-03-22T02:35:30Z</time></trkpt><trkpt lat="24.759056559712015" lon="121.07189144257568"><ele>103.0</ele><time>2026-03-22T02:35:31Z</time></trkpt><trkpt lat="24.758943863251552" lon="121.0716617494482"><ele>103.0</ele><time>2026-03-22T02:35:32Z</time></trkpt><trkpt lat="24.758832926841364" lon="121.0714291384254"><ele>109.5</ele><time>2026-03-22T02:35:33Z</time></trkpt><trkpt lat="24.75872457003132" lon="121.07119323858876"><ele>116.0</ele><time>2026-03-22T02:35:34Z</time></trkpt><trkpt lat="24.7586174494425" lon="121.07095444746123"><ele>123.0</ele><time>2026-03-22T02:35:35Z</time></trkpt><trkpt lat="24.75851152867593" lon="121.07071248472911"><ele>130.0</ele><time>2026-03-22T02:35:36Z</time></trkpt><trkpt lat="24.758408121352183" lon="121.0704665263994"><ele>130.0</ele><time>2026-03-22T02:35:37Z</time></trkpt><trkpt lat="24.75830633219845" lon="121.07021753604491"><ele>130.0</ele><time>2026-03-22T02:35:38Z</time></trkpt><trkpt lat="24.75820531813958" lon="121.06996561576706"><ele>127.5</ele><time>2026-03-22T02:35:39Z</time></trkpt><trkpt lat="24.758106692332657" lon="121.06971056681492"><ele>125.0</ele><time>2026-03-22T02:35:40Z</time></trkpt><trkpt lat="24.758011892273085" lon="121.06945170583064"><ele>125.0</ele><time>2026-03-22T02:35:41Z</time></trkpt><trkpt lat="24.757918931842337" lon="121.06918866630309"><ele>125.0</ele><time>2026-03-22T02:35:42Z</time></trkpt><trkpt lat="24.757827460583542" lon="121.06892297674662"><ele>128.5</ele><time>2026-03-22T02:35:43Z</time></trkpt><trkpt lat="24.757740615442174" lon="121.068653300377"><ele>132.0</ele><time>2026-03-22T02:35:44Z</time></trkpt><trkpt lat="24.757656970407783" lon="121.0683792928581"><ele>135.0</ele><time>2026-03-22T02:35:45Z</time></trkpt><trkpt lat="24.757576156447715" lon="121.06810234454292"><ele>138.0</ele><time>2026-03-22T02:35:46Z</time></trkpt><trkpt lat="24.757498637566812" lon="121.06781903289757"><ele>138.0</ele><time>2026-03-22T02:35:47Z</time></trkpt><trkpt lat="24.75742450874484" lon="121.06753379566447"><ele>138.0</ele><time>2026-03-22T02:35:48Z</time></trkpt><trkpt lat="24.75735461635036" lon="121.06724689944603"><ele>139.0</ele><time>2026-03-22T02:35:49Z</time></trkpt><trkpt lat="24.757290583623824" lon="121.06695645186771"><ele>140.0</ele><time>2026-03-22T02:35:50Z</time></trkpt><trkpt lat="24.757231247001183" lon="121.06666300153562"><ele>142.0</ele><time>2026-03-22T02:35:51Z</time></trkpt><trkpt lat="24.757175933569773" lon="121.06637437324093"><ele>144.0</ele><time>2026-03-22T02:35:52Z</time></trkpt><trkpt lat="24.757123563170666" lon="121.0660893234623"><ele>144.0</ele><time>2026-03-22T02:35:53Z</time></trkpt><trkpt lat="24.757078740153865" lon="121.0658106494921"><ele>144.0</ele><time>2026-03-22T02:35:54Z</time></trkpt><trkpt lat="24.757040398172826" lon="121.06554546244033"><ele>144.0</ele><time>2026-03-22T02:35:55Z</time></trkpt><trkpt lat="24.75700730265333" lon="121.06528610820823"><ele>144.0</ele><time>2026-03-22T02:35:56Z</time></trkpt><trkpt lat="24.756978447624792" lon="121.06502820570407"><ele>145.5</ele><time>2026-03-22T02:35:57Z</time></trkpt><trkpt lat="24.75695195239644" lon="121.0647702647341"><ele>147.0</ele><time>2026-03-22T02:35:58Z</time></trkpt><trkpt lat="24.756928346671927" lon="121.0645107357184"><ele>147.0</ele><time>2026-03-22T02:35:59Z</time></trkpt><trkpt lat="24.756908657305218" lon="121.06424978485417"><ele>147.0</ele><time>2026-03-22T02:36:00Z</time></trkpt><trkpt lat="24.75689209893499" lon="121.0639886754543"><ele>148.0</ele><time>2026-03-22T02:36:01Z</time></trkpt><trkpt lat="24.75687934323478" lon="121.06372430123656"><ele>149.0</ele><time>2026-03-22T02:36:02Z</time></trkpt><trkpt lat="24.756869797610243" lon="121.06345896964358"><ele>150.5</ele><time>2026-03-22T02:36:03Z</time></trkpt><trkpt lat="24.75686223281298" lon="121.06319331324434"><ele>152.0</ele><time>2026-03-22T02:36:04Z</time></trkpt><trkpt lat="24.7568579902433" lon="121.06292601661903"><ele>152.0</ele><time>2026-03-22T02:36:05Z</time></trkpt><trkpt lat="24.756858715205716" lon="121.06265651443212"><ele>152.0</ele><time>2026-03-22T02:36:06Z</time></trkpt><trkpt lat="24.756864380586563" lon="121.06238616331571"><ele>147.5</ele><time>2026-03-22T02:36:07Z</time></trkpt><trkpt lat="24.756874232559444" lon="121.06211387831138"><ele>143.0</ele><time>2026-03-22T02:36:08Z</time></trkpt><trkpt lat="24.756887761433866" lon="121.06183988639074"><ele>139.0</ele><time>2026-03-22T02:36:09Z</time></trkpt><trkpt lat="24.756904525603353" lon="121.06156516390277"><ele>135.0</ele><time>2026-03-22T02:36:10Z</time></trkpt><trkpt lat="24.756924846736943" lon="121.0612896418517"><ele>135.0</ele><time>2026-03-22T02:36:11Z</time></trkpt><trkpt lat="24.75694813296924" lon="121.06101294437349"><ele>135.0</ele><time>2026-03-22T02:36:12Z</time></trkpt><trkpt lat="24.756975247071136" lon="121.06073415926254"><ele>135.5</ele><time>2026-03-22T02:36:13Z</time></trkpt><trkpt lat="24.75700809269827" lon="121.06045560112442"><ele>136.0</ele><time>2026-03-22T02:36:14Z</time></trkpt><trkpt lat="24.757044163023544" lon="121.06017510655981"><ele>137.5</ele><time>2026-03-22T02:36:15Z</time></trkpt><trkpt lat="24.757084862248902" lon="121.05989378284032"><ele>139.0</ele><time>2026-03-22T02:36:16Z</time></trkpt><trkpt lat="24.75713081800108" lon="121.05961308457431"><ele>139.0</ele><time>2026-03-22T02:36:17Z</time></trkpt><trkpt lat="24.75718278673022" lon="121.0593316280549"><ele>139.0</ele><time>2026-03-22T02:36:18Z</time></trkpt><trkpt lat="24.757237960848094" lon="121.05904870967775"><ele>141.5</ele><time>2026-03-22T02:36:19Z</time></trkpt><trkpt lat="24.75729683195622" lon="121.05876561238759"><ele>144.0</ele><time>2026-03-22T02:36:20Z</time></trkpt><trkpt lat="24.757358920015985" lon="121.05848147076586"><ele>146.5</ele><time>2026-03-22T02:36:21Z</time></trkpt><trkpt lat="24.75742727439721" lon="121.05819747661775"><ele>149.0</ele><time>2026-03-22T02:36:22Z</time></trkpt><trkpt lat="24.75749999072072" lon="121.0579144074119"><ele>149.0</ele><time>2026-03-22T02:36:23Z</time></trkpt><trkpt lat="24.75757677439696" lon="121.05763404523249"><ele>149.0</ele><time>2026-03-22T02:36:24Z</time></trkpt><trkpt lat="24.757657015064435" lon="121.05735998263035"><ele>146.5</ele><time>2026-03-22T02:36:25Z</time></trkpt><trkpt lat="24.75774050762962" lon="121.05708800395655"><ele>144.0</ele><time>2026-03-22T02:36:26Z</time></trkpt><trkpt lat="24.757827169845847" lon="121.05681867723949"><ele>147.0</ele><time>2026-03-22T02:36:27Z</time></trkpt><trkpt lat="24.757919288420975" lon="121.05655013584398"><ele>150.0</ele><time>2026-03-22T02:36:28Z</time></trkpt><trkpt lat="24.75801408703885" lon="121.0562814928514"><ele>150.0</ele><time>2026-03-22T02:36:29Z</time></trkpt><trkpt lat="24.75811219673556" lon="121.05601342814705"><ele>150.0</ele><time>2026-03-22T02:36:30Z</time></trkpt><trkpt lat="24.75821748240103" lon="121.05574672242567"><ele>151.5</ele><time>2026-03-22T02:36:31Z</time></trkpt><trkpt lat="24.758327461179004" lon="121.05548087745696"><ele>153.0</ele><time>2026-03-22T02:36:32Z</time></trkpt><trkpt lat="24.758440810801517" lon="121.05521598716396"><ele>152.0</ele><time>2026-03-22T02:36:33Z</time></trkpt><trkpt lat="24.7585588023723" lon="121.05495231881297"><ele>151.0</ele><time>2026-03-22T02:36:34Z</time></trkpt><trkpt lat="24.7586810962821" lon="121.05469023890632"><ele>151.0</ele><time>2026-03-22T02:36:35Z</time></trkpt><trkpt lat="24.758805740408576" lon="121.05443216661531"><ele>151.0</ele><time>2026-03-22T02:36:36Z</time></trkpt><trkpt lat="24.758933228172314" lon="121.05417786982538"><ele>150.0</ele><time>2026-03-22T02:36:37Z</time></trkpt><trkpt lat="24.759063259738532" lon="121.05392615461058"><ele>149.0</ele><time>2026-03-22T02:36:38Z</time></trkpt><trkpt lat="24.759196951410953" lon="121.05367585540318"><ele>149.0</ele><time>2026-03-22T02:36:39Z</time></trkpt><trkpt lat="24.75933409069021" lon="121.05342450044833"><ele>149.0</ele><time>2026-03-22T02:36:40Z</time></trkpt><trkpt lat="24.759474801308723" lon="121.05317312414232"><ele>148.5</ele><time>2026-03-22T02:36:41Z</time></trkpt><trkpt lat="24.759616660245957" lon="121.05292459263842"><ele>148.0</ele><time>2026-03-22T02:36:42Z</time></trkpt><trkpt lat="24.75975959129464" lon="121.05267919378251"><ele>149.0</ele><time>2026-03-22T02:36:43Z</time></trkpt><trkpt lat="24.75990414468462" lon="121.05243591956251"><ele>150.0</ele><time>2026-03-22T02:36:44Z</time></trkpt><trkpt lat="24.760050637973865" lon="121.0521925542745"><ele>150.0</ele><time>2026-03-22T02:36:45Z</time></trkpt><trkpt lat="24.760198945831792" lon="121.05194733514682"><ele>150.0</ele><time>2026-03-22T02:36:46Z</time></trkpt><trkpt lat="24.760347313360665" lon="121.05169983660916"><ele>148.0</ele><time>2026-03-22T02:36:47Z</time></trkpt><trkpt lat="24.760498966826727" lon="121.05145168147807"><ele>146.0</ele><time>2026-03-22T02:36:48Z</time></trkpt><trkpt lat="24.760650351328827" lon="121.05120086608564"><ele>146.0</ele><time>2026-03-22T02:36:49Z</time></trkpt><trkpt lat="24.76080206902556" lon="121.05094936655298"><ele>146.0</ele><time>2026-03-22T02:36:50Z</time></trkpt><trkpt lat="24.76095315972659" lon="121.05069920478059"><ele>144.0</ele><time>2026-03-22T02:36:51Z</time></trkpt><trkpt lat="24.761102693677934" lon="121.05044990007349"><ele>142.0</ele><time>2026-03-22T02:36:52Z</time></trkpt><trkpt lat="24.761251984340507" lon="121.05020135059482"><ele>143.5</ele><time>2026-03-22T02:36:53Z</time></trkpt><trkpt lat="24.7613985506972" lon="121.049952367522"><ele>145.0</ele><time>2026-03-22T02:36:54Z</time></trkpt><trkpt lat="24.76154282643819" lon="121.04970244927762"><ele>145.0</ele><time>2026-03-22T02:36:55Z</time></trkpt><trkpt lat="24.761684141490925" lon="121.04945076191174"><ele>145.0</ele><time>2026-03-22T02:36:56Z</time></trkpt><trkpt lat="24.761821424925376" lon="121.04919726177526"><ele>145.0</ele><time>2026-03-22T02:36:57Z</time></trkpt><trkpt lat="24.761955782420113" lon="121.04894294185078"><ele>145.0</ele><time>2026-03-22T02:36:58Z</time></trkpt><trkpt lat="24.762087746426246" lon="121.04868789745615"><ele>145.0</ele><time>2026-03-22T02:36:59Z</time></trkpt><trkpt lat="24.76221472773597" lon="121.04842954690261"><ele>145.0</ele><time>2026-03-22T02:37:00Z</time></trkpt><trkpt lat="24.76233632310765" lon="121.04816878582062"><ele>144.5</ele><time>2026-03-22T02:37:01Z</time></trkpt><trkpt lat="24.762452761657322" lon="121.04790485576436"><ele>144.0</ele><time>2026-03-22T02:37:02Z</time></trkpt><trkpt lat="24.76256355550548" lon="121.04763859941909"><ele>145.0</ele><time>2026-03-22T02:37:03Z</time></trkpt><trkpt lat="24.762669991342445" lon="121.04737051386104"><ele>146.0</ele><time>2026-03-22T02:37:04Z</time></trkpt><trkpt lat="24.762771160034536" lon="121.04710007464661"><ele>146.0</ele><time>2026-03-22T02:37:05Z</time></trkpt><trkpt lat="24.762867302596348" lon="121.04682740780896"><ele>146.0</ele><time>2026-03-22T02:37:06Z</time></trkpt><trkpt lat="24.762959234493948" lon="121.04655250490657"><ele>147.5</ele><time>2026-03-22T02:37:07Z</time></trkpt><trkpt lat="24.763047612353716" lon="121.04627627014678"><ele>149.0</ele><time>2026-03-22T02:37:08Z</time></trkpt><trkpt lat="24.76312920607402" lon="121.04599701152088"><ele>147.0</ele><time>2026-03-22T02:37:09Z</time></trkpt><trkpt lat="24.76320383596608" lon="121.04571566084958"><ele>145.0</ele><time>2026-03-22T02:37:10Z</time></trkpt><trkpt lat="24.763272686877713" lon="121.0454318474393"><ele>145.0</ele><time>2026-03-22T02:37:11Z</time></trkpt><trkpt lat="24.763336244170326" lon="121.04514638684554"><ele>145.0</ele><time>2026-03-22T02:37:12Z</time></trkpt><trkpt lat="24.76339539014288" lon="121.0448597621352"><ele>145.0</ele><time>2026-03-22T02:37:13Z</time></trkpt><trkpt lat="24.763448701669496" lon="121.04457101502364"><ele>145.0</ele><time>2026-03-22T02:37:14Z</time></trkpt><trkpt lat="24.763497071348898" lon="121.04428245644337"><ele>147.0</ele><time>2026-03-22T02:37:15Z</time></trkpt><trkpt lat="24.76353951325736" lon="121.04399207402564"><ele>149.0</ele><time>2026-03-22T02:37:16Z</time></trkpt><trkpt lat="24.763576087578066" lon="121.04370033213861"><ele>149.0</ele><time>2026-03-22T02:37:17Z</time></trkpt><trkpt lat="24.76360713980067" lon="121.04340726927941"><ele>149.0</ele><time>2026-03-22T02:37:18Z</time></trkpt><trkpt lat="24.76363378330074" lon="121.04311382528277"><ele>143.5</ele><time>2026-03-22T02:37:19Z</time></trkpt><trkpt lat="24.76365557666206" lon="121.04281909048402"><ele>138.0</ele><time>2026-03-22T02:37:20Z</time></trkpt><trkpt lat="24.76367092714148" lon="121.04252442736409"><ele>128.5</ele><time>2026-03-22T02:37:21Z</time></trkpt><trkpt lat="24.763679368686173" lon="121.04222919075688"><ele>119.0</ele><time>2026-03-22T02:37:22Z</time></trkpt><trkpt lat="24.76368292087982" lon="121.04193431228425"><ele>119.0</ele><time>2026-03-22T02:37:23Z</time></trkpt><trkpt lat="24.763679358050982" lon="121.04163906188784"><ele>119.0</ele><time>2026-03-22T02:37:24Z</time></trkpt><trkpt lat="24.76367037165139" lon="121.04134457315139"><ele>115.5</ele><time>2026-03-22T02:37:25Z</time></trkpt><trkpt lat="24.763656475215853" lon="121.04105127890007"><ele>112.0</ele><time>2026-03-22T02:37:26Z</time></trkpt><trkpt lat="24.76363740404902" lon="121.04075862971965"><ele>111.0</ele><time>2026-03-22T02:37:27Z</time></trkpt><trkpt lat="24.763612111404395" lon="121.04046800049606"><ele>110.0</ele><time>2026-03-22T02:37:28Z</time></trkpt><trkpt lat="24.763581072369888" lon="121.04017836339419"><ele>111.5</ele><time>2026-03-22T02:37:29Z</time></trkpt><trkpt lat="24.763543838132588" lon="121.03989075880791"><ele>113.0</ele><time>2026-03-22T02:37:30Z</time></trkpt><trkpt lat="24.76350175138279" lon="121.03960504084934"><ele>113.5</ele><time>2026-03-22T02:37:31Z</time></trkpt><trkpt lat="24.763455270370514" lon="121.03932110047687"><ele>114.0</ele><time>2026-03-22T02:37:32Z</time></trkpt><trkpt lat="24.763403698116587" lon="121.03903982111092"><ele>118.0</ele><time>2026-03-22T02:37:33Z</time></trkpt><trkpt lat="24.763345583138673" lon="121.03876144365897"><ele>122.0</ele><time>2026-03-22T02:37:34Z</time></trkpt><trkpt lat="24.763282908889355" lon="121.03848515663282"><ele>127.0</ele><time>2026-03-22T02:37:35Z</time></trkpt><trkpt lat="24.763215267522092" lon="121.0382088398545"><ele>132.0</ele><time>2026-03-22T02:37:36Z</time></trkpt><trkpt lat="24.763142359045833" lon="121.03793135349125"><ele>132.0</ele><time>2026-03-22T02:37:37Z</time></trkpt><trkpt lat="24.763065131420824" lon="121.03765570238481"><ele>132.0</ele><time>2026-03-22T02:37:38Z</time></trkpt><trkpt lat="24.762982439386686" lon="121.0373814286112"><ele>138.5</ele><time>2026-03-22T02:37:39Z</time></trkpt><trkpt lat="24.76289386386149" lon="121.0371115108511"><ele>145.0</ele><time>2026-03-22T02:37:40Z</time></trkpt><trkpt lat="24.76280211881481" lon="121.03684626453179"><ele>148.0</ele><time>2026-03-22T02:37:41Z</time></trkpt><trkpt lat="24.762706769252254" lon="121.03658465238449"><ele>151.0</ele><time>2026-03-22T02:37:42Z</time></trkpt><trkpt lat="24.762605569522197" lon="121.03632772915746"><ele>142.0</ele><time>2026-03-22T02:37:43Z</time></trkpt><trkpt lat="24.762500445873368" lon="121.03607495306845"><ele>133.0</ele><time>2026-03-22T02:37:44Z</time></trkpt><trkpt lat="24.762390544575453" lon="121.0358226950146"><ele>136.5</ele><time>2026-03-22T02:37:45Z</time></trkpt><trkpt lat="24.762276394251465" lon="121.03557256622318"><ele>140.0</ele><time>2026-03-22T02:37:46Z</time></trkpt><trkpt lat="24.762158572418" lon="121.0353239144192"><ele>140.0</ele><time>2026-03-22T02:37:47Z</time></trkpt><trkpt lat="24.76203277609541" lon="121.0350796704673"><ele>140.0</ele><time>2026-03-22T02:37:48Z</time></trkpt><trkpt lat="24.761902824168125" lon="121.03483821677732"><ele>139.5</ele><time>2026-03-22T02:37:49Z</time></trkpt><trkpt lat="24.761769707727776" lon="121.03459859506073"><ele>139.0</ele><time>2026-03-22T02:37:50Z</time></trkpt><trkpt lat="24.76163363754677" lon="121.03436115404729"><ele>147.0</ele><time>2026-03-22T02:37:51Z</time></trkpt><trkpt lat="24.76149423500884" lon="121.03412651141689"><ele>155.0</ele><time>2026-03-22T02:37:52Z</time></trkpt><trkpt lat="24.761350719622335" lon="121.03389559214212"><ele>155.0</ele><time>2026-03-22T02:37:53Z</time></trkpt><trkpt lat="24.76120303026673" lon="121.03366878898562"><ele>155.0</ele><time>2026-03-22T02:37:54Z</time></trkpt><trkpt lat="24.761049583954634" lon="121.03344627837852"><ele>151.5</ele><time>2026-03-22T02:37:55Z</time></trkpt><trkpt lat="24.76089340244784" lon="121.03322564899901"><ele>148.0</ele><time>2026-03-22T02:37:56Z</time></trkpt><trkpt lat="24.76073301871638" lon="121.03301029863186"><ele>148.0</ele><time>2026-03-22T02:37:57Z</time></trkpt><trkpt lat="24.760570259046702" lon="121.03279720304958"><ele>148.0</ele><time>2026-03-22T02:37:58Z</time></trkpt><trkpt lat="24.760404723843674" lon="121.03258611362847"><ele>147.0</ele><time>2026-03-22T02:37:59Z</time></trkpt><trkpt lat="24.760235737690717" lon="121.03237779900029"><ele>146.0</ele><time>2026-03-22T02:38:00Z</time></trkpt><trkpt lat="24.760065234297482" lon="121.0321695877562"><ele>146.0</ele><time>2026-03-22T02:38:01Z</time></trkpt><trkpt lat="24.75989353187066" lon="121.03196310973485"><ele>146.0</ele><time>2026-03-22T02:38:02Z</time></trkpt><trkpt lat="24.7597199930883" lon="121.03175777315121"><ele>149.0</ele><time>2026-03-22T02:38:03Z</time></trkpt><trkpt lat="24.759545894999786" lon="121.03155457493133"><ele>152.0</ele><time>2026-03-22T02:38:04Z</time></trkpt><trkpt lat="24.75937153821993" lon="121.03135492218304"><ele>149.5</ele><time>2026-03-22T02:38:05Z</time></trkpt><trkpt lat="24.759199363236" lon="121.03115667058461"><ele>147.0</ele><time>2026-03-22T02:38:06Z</time></trkpt><trkpt lat="24.75902744998808" lon="121.03096003107527"><ele>153.0</ele><time>2026-03-22T02:38:07Z</time></trkpt><trkpt lat="24.758856492278404" lon="121.03076493464714"><ele>159.0</ele><time>2026-03-22T02:38:08Z</time></trkpt><trkpt lat="24.758687656837115" lon="121.0305688844764"><ele>151.5</ele><time>2026-03-22T02:38:09Z</time></trkpt><trkpt lat="24.758518654449052" lon="121.03037075041095"><ele>144.0</ele><time>2026-03-22T02:38:10Z</time></trkpt><trkpt lat="24.758349765418533" lon="121.03017075944973"><ele>149.0</ele><time>2026-03-22T02:38:11Z</time></trkpt><trkpt lat="24.75818071533451" lon="121.02996889305783"><ele>154.0</ele><time>2026-03-22T02:38:12Z</time></trkpt><trkpt lat="24.75801075591446" lon="121.02976676700558"><ele>154.0</ele><time>2026-03-22T02:38:13Z</time></trkpt><trkpt lat="24.757842123367148" lon="121.02956041225629"><ele>154.0</ele><time>2026-03-22T02:38:14Z</time></trkpt><trkpt lat="24.75767632850272" lon="121.02935002122827"><ele>152.0</ele><time>2026-03-22T02:38:15Z</time></trkpt><trkpt lat="24.757512514255755" lon="121.02913696208695"><ele>150.0</ele><time>2026-03-22T02:38:16Z</time></trkpt><trkpt lat="24.75735041836735" lon="121.0289214806534"><ele>150.0</ele><time>2026-03-22T02:38:17Z</time></trkpt><trkpt lat="24.757191515573155" lon="121.02870070595819"><ele>150.0</ele><time>2026-03-22T02:38:18Z</time></trkpt><trkpt lat="24.757033636973294" lon="121.0284759175215"><ele>154.5</ele><time>2026-03-22T02:38:19Z</time></trkpt><trkpt lat="24.756879662943152" lon="121.02824578853175"><ele>159.0</ele><time>2026-03-22T02:38:20Z</time></trkpt><trkpt lat="24.756730325354198" lon="121.02801092815663"><ele>149.0</ele><time>2026-03-22T02:38:21Z</time></trkpt><trkpt lat="24.75658435425067" lon="121.02777396581146"><ele>139.0</ele><time>2026-03-22T02:38:22Z</time></trkpt><trkpt lat="24.756441466149237" lon="121.02753303054673"><ele>138.0</ele><time>2026-03-22T02:38:23Z</time></trkpt><trkpt lat="24.756303074794896" lon="121.02728979463787"><ele>137.0</ele><time>2026-03-22T02:38:24Z</time></trkpt><trkpt lat="24.75616854640035" lon="121.02704320175863"><ele>137.0</ele><time>2026-03-22T02:38:25Z</time></trkpt><trkpt lat="24.756038660752253" lon="121.02679280909759"><ele>137.0</ele><time>2026-03-22T02:38:26Z</time></trkpt><trkpt lat="24.755913257945164" lon="121.02653918437032"><ele>131.5</ele><time>2026-03-22T02:38:27Z</time></trkpt><trkpt lat="24.755791746306468" lon="121.0262835649127"><ele>126.0</ele><time>2026-03-22T02:38:28Z</time></trkpt><trkpt lat="24.75567432100923" lon="121.02602459382196"><ele>126.0</ele><time>2026-03-22T02:38:29Z</time></trkpt><trkpt lat="24.755562304466803" lon="121.0257625736556"><ele>126.0</ele><time>2026-03-22T02:38:30Z</time></trkpt><trkpt lat="24.755454844384722" lon="121.02549668038358"><ele>126.0</ele><time>2026-03-22T02:38:31Z</time></trkpt><trkpt lat="24.755350011639184" lon="121.0252290083679"><ele>126.0</ele><time>2026-03-22T02:38:32Z</time></trkpt><trkpt lat="24.755251612378387" lon="121.02496156209368"><ele>121.5</ele><time>2026-03-22T02:38:33Z</time></trkpt><trkpt lat="24.75515801538689" lon="121.02469374652851"><ele>117.0</ele><time>2026-03-22T02:38:34Z</time></trkpt><trkpt lat="24.75506941825081" lon="121.02442616016373"><ele>117.0</ele><time>2026-03-22T02:38:35Z</time></trkpt><trkpt lat="24.75498604457133" lon="121.02415842834749"><ele>117.0</ele><time>2026-03-22T02:38:36Z</time></trkpt><trkpt lat="24.75490920663268" lon="121.02389152760769"><ele>119.5</ele><time>2026-03-22T02:38:37Z</time></trkpt><trkpt lat="24.75483767030052" lon="121.0236220891093"><ele>122.0</ele><time>2026-03-22T02:38:38Z</time></trkpt><trkpt lat="24.754769814053827" lon="121.0233497329756"><ele>126.5</ele><time>2026-03-22T02:38:39Z</time></trkpt><trkpt lat="24.75470585198329" lon="121.02307644073127"><ele>131.0</ele><time>2026-03-22T02:38:40Z</time></trkpt><trkpt lat="24.75464733785333" lon="121.02280023594648"><ele>131.0</ele><time>2026-03-22T02:38:41Z</time></trkpt><trkpt lat="24.754592625880374" lon="121.02252242369502"><ele>131.0</ele><time>2026-03-22T02:38:42Z</time></trkpt><trkpt lat="24.75454488615183" lon="121.02224313515455"><ele>128.5</ele><time>2026-03-22T02:38:43Z</time></trkpt><trkpt lat="24.75450142223063" lon="121.02196124362229"><ele>126.0</ele><time>2026-03-22T02:38:44Z</time></trkpt><trkpt lat="24.754461298180193" lon="121.02167822990886"><ele>120.5</ele><time>2026-03-22T02:38:45Z</time></trkpt><trkpt lat="24.754427857618513" lon="121.02139356219239"><ele>115.0</ele><time>2026-03-22T02:38:46Z</time></trkpt><trkpt lat="24.754397995763416" lon="121.02110811151918"><ele>115.0</ele><time>2026-03-22T02:38:47Z</time></trkpt><trkpt lat="24.754375104007313" lon="121.02082075567421"><ele>115.0</ele><time>2026-03-22T02:38:48Z</time></trkpt><trkpt lat="24.754357505854106" lon="121.02053190327943"><ele>113.5</ele><time>2026-03-22T02:38:49Z</time></trkpt><trkpt lat="24.754343414295633" lon="121.02024456384441"><ele>112.0</ele><time>2026-03-22T02:38:50Z</time></trkpt><trkpt lat="24.75433393775522" lon="121.01996281876083"><ele>112.0</ele><time>2026-03-22T02:38:51Z</time></trkpt><trkpt lat="24.754330070869276" lon="121.01968388545467"><ele>112.0</ele><time>2026-03-22T02:38:52Z</time></trkpt><trkpt lat="24.754332396049396" lon="121.01940846280819"><ele>110.5</ele><time>2026-03-22T02:38:53Z</time></trkpt><trkpt lat="24.754340107195862" lon="121.01913351990885"><ele>109.0</ele><time>2026-03-22T02:38:54Z</time></trkpt><trkpt lat="24.754353427330408" lon="121.01885726531589"><ele>109.0</ele><time>2026-03-22T02:38:55Z</time></trkpt><trkpt lat="24.75436796979843" lon="121.01857730530783"><ele>109.0</ele><time>2026-03-22T02:38:56Z</time></trkpt><trkpt lat="24.75439204511605" lon="121.01830077662127"><ele>106.0</ele><time>2026-03-22T02:38:57Z</time></trkpt><trkpt lat="24.754419278331085" lon="121.01802359982348"><ele>103.0</ele><time>2026-03-22T02:38:58Z</time></trkpt><trkpt lat="24.75445039109102" lon="121.01774523294766"><ele>101.0</ele><time>2026-03-22T02:38:59Z</time></trkpt><trkpt lat="24.75448596838496" lon="121.0174664102892"><ele>99.0</ele><time>2026-03-22T02:39:00Z</time></trkpt><trkpt lat="24.754526814204077" lon="121.01718746696672"><ele>99.0</ele><time>2026-03-22T02:39:01Z</time></trkpt><trkpt lat="24.754571783467775" lon="121.01690811931435"><ele>99.0</ele><time>2026-03-22T02:39:02Z</time></trkpt><trkpt lat="24.75462114111758" lon="121.0166288157147"><ele>92.0</ele><time>2026-03-22T02:39:03Z</time></trkpt><trkpt lat="24.75467547933022" lon="121.01635016657181"><ele>85.0</ele><time>2026-03-22T02:39:04Z</time></trkpt><trkpt lat="24.754735403464167" lon="121.01607192017458"><ele>85.0</ele><time>2026-03-22T02:39:05Z</time></trkpt><trkpt lat="24.754800535428675" lon="121.0157963591525"><ele>85.0</ele><time>2026-03-22T02:39:06Z</time></trkpt><trkpt lat="24.75486779231363" lon="121.01552670731822"><ele>85.0</ele><time>2026-03-22T02:39:07Z</time></trkpt><trkpt lat="24.754935943986144" lon="121.01526260524835"><ele>85.0</ele><time>2026-03-22T02:39:08Z</time></trkpt><trkpt lat="24.755004561588514" lon="121.01500516068198"><ele>86.0</ele><time>2026-03-22T02:39:09Z</time></trkpt><trkpt lat="24.75507647268027" lon="121.01474674880744"><ele>87.0</ele><time>2026-03-22T02:39:10Z</time></trkpt><trkpt lat="24.7551507849726" lon="121.01448878605535"><ele>83.0</ele><time>2026-03-22T02:39:11Z</time></trkpt><trkpt lat="24.75522844883636" lon="121.01423241860645"><ele>79.0</ele><time>2026-03-22T02:39:12Z</time></trkpt><trkpt lat="24.755307799521766" lon="121.0139768006823"><ele>79.0</ele><time>2026-03-22T02:39:13Z</time></trkpt><trkpt lat="24.755388776589864" lon="121.0137235465704"><ele>79.0</ele><time>2026-03-22T02:39:14Z</time></trkpt><trkpt lat="24.75546812033636" lon="121.01347225652256"><ele>81.5</ele><time>2026-03-22T02:39:15Z</time></trkpt><trkpt lat="24.75554934946116" lon="121.01322170625913"><ele>84.0</ele><time>2026-03-22T02:39:16Z</time></trkpt><trkpt lat="24.755632155685817" lon="121.0129704383229"><ele>84.0</ele><time>2026-03-22T02:39:17Z</time></trkpt><trkpt lat="24.755714975245247" lon="121.01271750430166"><ele>84.0</ele><time>2026-03-22T02:39:18Z</time></trkpt><trkpt lat="24.755797886133838" lon="121.01246441654239"><ele>86.5</ele><time>2026-03-22T02:39:19Z</time></trkpt><trkpt lat="24.755881638313973" lon="121.01221086338616"><ele>89.0</ele><time>2026-03-22T02:39:20Z</time></trkpt><trkpt lat="24.75596432827811" lon="121.0119572256922"><ele>84.5</ele><time>2026-03-22T02:39:21Z</time></trkpt><trkpt lat="24.75604542344969" lon="121.0117026945909"><ele>80.0</ele><time>2026-03-22T02:39:22Z</time></trkpt><trkpt lat="24.75612844211037" lon="121.01144840840763"><ele>80.0</ele><time>2026-03-22T02:39:23Z</time></trkpt><trkpt lat="24.756212062900033" lon="121.01119306928557"><ele>80.0</ele><time>2026-03-22T02:39:24Z</time></trkpt><trkpt lat="24.75629258456453" lon="121.01093644680797"><ele>80.5</ele><time>2026-03-22T02:39:25Z</time></trkpt><trkpt lat="24.75637012348226" lon="121.0106794946695"><ele>81.0</ele><time>2026-03-22T02:39:26Z</time></trkpt><trkpt lat="24.75644819517191" lon="121.01042177526774"><ele>81.0</ele><time>2026-03-22T02:39:27Z</time></trkpt><trkpt lat="24.7565253447026" lon="121.01016318262567"><ele>81.0</ele><time>2026-03-22T02:39:28Z</time></trkpt><trkpt lat="24.756601172535905" lon="121.0099047616757"><ele>80.0</ele><time>2026-03-22T02:39:29Z</time></trkpt><trkpt lat="24.756674003179228" lon="121.00964530907392"><ele>79.0</ele><time>2026-03-22T02:39:30Z</time></trkpt><trkpt lat="24.756743506700836" lon="121.009384656336"><ele>75.5</ele><time>2026-03-22T02:39:31Z</time></trkpt><trkpt lat="24.756810383476164" lon="121.00912250145721"><ele>72.0</ele><time>2026-03-22T02:39:32Z</time></trkpt><trkpt lat="24.756873927244076" lon="121.00885971856167"><ele>69.0</ele><time>2026-03-22T02:39:33Z</time></trkpt><trkpt lat="24.75693418184098" lon="121.00859462967921"><ele>66.0</ele><time>2026-03-22T02:39:34Z</time></trkpt><trkpt lat="24.756990748281503" lon="121.00832889663091"><ele>66.0</ele><time>2026-03-22T02:39:35Z</time></trkpt><trkpt lat="24.757044595863995" lon="121.00806209426639"><ele>66.0</ele><time>2026-03-22T02:39:36Z</time></trkpt><trkpt lat="24.75709511297796" lon="121.00779351063287"><ele>66.0</ele><time>2026-03-22T02:39:37Z</time></trkpt><trkpt lat="24.757140309221644" lon="121.00752328904136"><ele>66.0</ele><time>2026-03-22T02:39:38Z</time></trkpt><trkpt lat="24.757180258373477" lon="121.00725208241566"><ele>65.0</ele><time>2026-03-22T02:39:39Z</time></trkpt><trkpt lat="24.757214515375928" lon="121.00698010091288"><ele>64.0</ele><time>2026-03-22T02:39:40Z</time></trkpt><trkpt lat="24.757242416822653" lon="121.00670546631324"><ele>60.0</ele><time>2026-03-22T02:39:41Z</time></trkpt><trkpt lat="24.75726693748766" lon="121.0064302373144"><ele>56.0</ele><time>2026-03-22T02:39:42Z</time></trkpt><trkpt lat="24.757285607061583" lon="121.00615534009063"><ele>56.0</ele><time>2026-03-22T02:39:43Z</time></trkpt><trkpt lat="24.757299304868578" lon="121.00587853894892"><ele>56.0</ele><time>2026-03-22T02:39:44Z</time></trkpt><trkpt lat="24.75730730679806" lon="121.0056012198436"><ele>57.0</ele><time>2026-03-22T02:39:45Z</time></trkpt><trkpt lat="24.757312476692377" lon="121.00532298015249"><ele>58.0</ele><time>2026-03-22T02:39:46Z</time></trkpt><trkpt lat="24.757314013726592" lon="121.00504418461288"><ele>58.5</ele><time>2026-03-22T02:39:47Z</time></trkpt><trkpt lat="24.757309350474976" lon="121.0047644844113"><ele>59.0</ele><time>2026-03-22T02:39:48Z</time></trkpt><trkpt lat="24.757299611339" lon="121.00448684786703"><ele>59.0</ele><time>2026-03-22T02:39:49Z</time></trkpt><trkpt lat="24.757286151101084" lon="121.00421062277158"><ele>59.0</ele><time>2026-03-22T02:39:50Z</time></trkpt><trkpt lat="24.757265774686964" lon="121.0039369600471"><ele>60.0</ele><time>2026-03-22T02:39:51Z</time></trkpt><trkpt lat="24.757240730026993" lon="121.00366530988721"><ele>61.0</ele><time>2026-03-22T02:39:52Z</time></trkpt><trkpt lat="24.75720978212932" lon="121.00339602769853"><ele>64.5</ele><time>2026-03-22T02:39:53Z</time></trkpt><trkpt lat="24.757176004469336" lon="121.00312957843072"><ele>68.0</ele><time>2026-03-22T02:39:54Z</time></trkpt><trkpt lat="24.757136363206047" lon="121.00286600075454"><ele>68.0</ele><time>2026-03-22T02:39:55Z</time></trkpt><trkpt lat="24.757092668048777" lon="121.00260439560248"><ele>68.0</ele><time>2026-03-22T02:39:56Z</time></trkpt><trkpt lat="24.757045704353455" lon="121.00234583949961"><ele>74.5</ele><time>2026-03-22T02:39:57Z</time></trkpt><trkpt lat="24.756997513733225" lon="121.0020887834445"><ele>81.0</ele><time>2026-03-22T02:39:58Z</time></trkpt><trkpt lat="24.756946828552714" lon="121.00183073378584"><ele>81.5</ele><time>2026-03-22T02:39:59Z</time></trkpt><trkpt lat="24.75689254643839" lon="121.00157119852958"><ele>82.0</ele><time>2026-03-22T02:40:00Z</time></trkpt><trkpt lat="24.756834770912807" lon="121.00131077941519"><ele>80.5</ele><time>2026-03-22T02:40:01Z</time></trkpt><trkpt lat="24.75677708293004" lon="121.00105006594532"><ele>79.0</ele><time>2026-03-22T02:40:02Z</time></trkpt><trkpt lat="24.756717339678097" lon="121.00079348735943"><ele>79.0</ele><time>2026-03-22T02:40:03Z</time></trkpt><trkpt lat="24.756656401843628" lon="121.00053878440877"><ele>79.0</ele><time>2026-03-22T02:40:04Z</time></trkpt><trkpt lat="24.756596608432318" lon="121.00028447777468"><ele>79.0</ele><time>2026-03-22T02:40:05Z</time></trkpt><trkpt lat="24.756536116412192" lon="121.00002771721957"><ele>79.0</ele><time>2026-03-22T02:40:06Z</time></trkpt><trkpt lat="24.75647458234885" lon="120.99976750947779"><ele>79.0</ele><time>2026-03-22T02:40:07Z</time></trkpt><trkpt lat="24.756413032487938" lon="120.99950259546286"><ele>79.0</ele><time>2026-03-22T02:40:08Z</time></trkpt><trkpt lat="24.756348277753737" lon="120.99923481242863"><ele>81.5</ele><time>2026-03-22T02:40:09Z</time></trkpt><trkpt lat="24.75628393026365" lon="120.99896429301953"><ele>84.0</ele><time>2026-03-22T02:40:10Z</time></trkpt><trkpt lat="24.756219530761463" lon="120.99868791908472"><ele>84.0</ele><time>2026-03-22T02:40:11Z</time></trkpt><trkpt lat="24.756158223771482" lon="120.99840515945363"><ele>84.0</ele><time>2026-03-22T02:40:12Z</time></trkpt><trkpt lat="24.756099679393532" lon="120.99811986394012"><ele>80.5</ele><time>2026-03-22T02:40:13Z</time></trkpt><trkpt lat="24.75604499862122" lon="120.99782949988496"><ele>77.0</ele><time>2026-03-22T02:40:14Z</time></trkpt><trkpt lat="24.755993282734394" lon="120.99753508536604"><ele>75.0</ele><time>2026-03-22T02:40:15Z</time></trkpt><trkpt lat="24.755945663680865" lon="120.99723684690971"><ele>73.0</ele><time>2026-03-22T02:40:16Z</time></trkpt><trkpt lat="24.75590110942783" lon="120.99693480546051"><ele>66.5</ele><time>2026-03-22T02:40:17Z</time></trkpt><trkpt lat="24.755861891698917" lon="120.99662862292973"><ele>60.0</ele><time>2026-03-22T02:40:18Z</time></trkpt><trkpt lat="24.75582886389818" lon="120.99631857573716"><ele>60.0</ele><time>2026-03-22T02:40:19Z</time></trkpt><trkpt lat="24.75580545002989" lon="120.99600722869503"><ele>60.0</ele><time>2026-03-22T02:40:20Z</time></trkpt><trkpt lat="24.755795621972627" lon="120.99570127215982"><ele>59.0</ele><time>2026-03-22T02:40:21Z</time></trkpt><trkpt lat="24.755794787044305" lon="120.99540451971849"><ele>58.0</ele><time>2026-03-22T02:40:22Z</time></trkpt><trkpt lat="24.75580331353161" lon="120.99512101412874"><ele>63.0</ele><time>2026-03-22T02:40:23Z</time></trkpt><trkpt lat="24.755817487872456" lon="120.99484702834987"><ele>68.0</ele><time>2026-03-22T02:40:24Z</time></trkpt><trkpt lat="24.75583548980827" lon="120.99457574329713"><ele>68.0</ele><time>2026-03-22T02:40:25Z</time></trkpt><trkpt lat="24.755838934481933" lon="120.994308333271"><ele>68.0</ele><time>2026-03-22T02:40:26Z</time></trkpt><trkpt lat="24.755849399787632" lon="120.9940479338804"><ele>68.5</ele><time>2026-03-22T02:40:27Z</time></trkpt><trkpt lat="24.755904050226402" lon="120.99380206886372"><ele>69.0</ele><time>2026-03-22T02:40:28Z</time></trkpt><trkpt lat="24.75594225210656" lon="120.99356213349533"><ele>69.66666666666667</ele><time>2026-03-22T02:40:29Z</time></trkpt><trkpt lat="24.75599156850101" lon="120.9933257947943"><ele>70.33333333333334</ele><time>2026-03-22T02:40:30Z</time></trkpt><trkpt lat="24.756054538438665" lon="120.99310197253983"><ele>71.0</ele><time>2026-03-22T02:40:31Z</time></trkpt><trkpt lat="24.756133193210506" lon="120.99288712470667"><ele>71.0</ele><time>2026-03-22T02:40:32Z</time></trkpt><trkpt lat="24.75622910779057" lon="120.9926796557666"><ele>71.0</ele><time>2026-03-22T02:40:33Z</time></trkpt><trkpt lat="24.756339851125986" lon="120.99247815463117"><ele>71.0</ele><time>2026-03-22T02:40:34Z</time></trkpt><trkpt lat="24.756458319499025" lon="120.99227784331092"><ele>71.33333333333334</ele><time>2026-03-22T02:40:35Z</time></trkpt><trkpt lat="24.756583771254302" lon="120.9920788314802"><ele>71.66666666666667</ele><time>2026-03-22T02:40:36Z</time></trkpt><trkpt lat="24.75671725591139" lon="120.99188134370478"><ele>72.0</ele><time>2026-03-22T02:40:37Z</time></trkpt><trkpt lat="24.756856152245984" lon="120.99168448694294"><ele>78.0</ele><time>2026-03-22T02:40:38Z</time></trkpt><trkpt lat="24.757000509219267" lon="120.99148822554217"><ele>84.0</ele><time>2026-03-22T02:40:39Z</time></trkpt><trkpt lat="24.757146078704046" lon="120.99129121173858"><ele>84.0</ele><time>2026-03-22T02:40:40Z</time></trkpt><trkpt lat="24.757284557682727" lon="120.99109075833049"><ele>84.0</ele><time>2026-03-22T02:40:41Z</time></trkpt><trkpt lat="24.757416021606204" lon="120.99088517941452"><ele>76.0</ele><time>2026-03-22T02:40:42Z</time></trkpt><trkpt lat="24.757533544066938" lon="120.99066990814285"><ele>68.0</ele><time>2026-03-22T02:40:43Z</time></trkpt><trkpt lat="24.75763314330762" lon="120.99044526877894"><ele>65.5</ele><time>2026-03-22T02:40:44Z</time></trkpt><trkpt lat="24.757721540460103" lon="120.99021386831637"><ele>63.0</ele><time>2026-03-22T02:40:45Z</time></trkpt><trkpt lat="24.75780148987096" lon="120.9899766157091"><ele>62.0</ele><time>2026-03-22T02:40:46Z</time></trkpt><trkpt lat="24.75786825185285" lon="120.98973481824571"><ele>61.0</ele><time>2026-03-22T02:40:47Z</time></trkpt><trkpt lat="24.757927341075273" lon="120.98948631903369"><ele>61.0</ele><time>2026-03-22T02:40:48Z</time></trkpt><trkpt lat="24.757976896025625" lon="120.98923447876435"><ele>61.0</ele><time>2026-03-22T02:40:49Z</time></trkpt><trkpt lat="24.758014111354715" lon="120.98898248878194"><ele>60.0</ele><time>2026-03-22T02:40:50Z</time></trkpt><trkpt lat="24.758041795637148" lon="120.98872960222046"><ele>59.0</ele><time>2026-03-22T02:40:51Z</time></trkpt><trkpt lat="24.75805982749961" lon="120.98847684443714"><ele>60.5</ele><time>2026-03-22T02:40:52Z</time></trkpt><trkpt lat="24.758069485453422" lon="120.98822527783484"><ele>62.0</ele><time>2026-03-22T02:40:53Z</time></trkpt><trkpt lat="24.758070234981606" lon="120.98797544111562"><ele>62.0</ele><time>2026-03-22T02:40:54Z</time></trkpt><trkpt lat="24.75806003901919" lon="120.98772817827378"><ele>62.0</ele><time>2026-03-22T02:40:55Z</time></trkpt><trkpt lat="24.758037999776274" lon="120.98748533242039"><ele>62.0</ele><time>2026-03-22T02:40:56Z</time></trkpt><trkpt lat="24.758004582082318" lon="120.98725123375156"><ele>65.33333333333334</ele><time>2026-03-22T02:40:57Z</time></trkpt><trkpt lat="24.757962897540672" lon="120.98702141972086"><ele>68.66666666666667</ele><time>2026-03-22T02:40:58Z</time></trkpt><trkpt lat="24.757910342986005" lon="120.9867949850786"><ele>72.0</ele><time>2026-03-22T02:40:59Z</time></trkpt><trkpt lat="24.75784182558673" lon="120.98657423066588"><ele>72.0</ele><time>2026-03-22T02:41:00Z</time></trkpt><trkpt lat="24.757757867544267" lon="120.98636210565573"><ele>72.0</ele><time>2026-03-22T02:41:01Z</time></trkpt><trkpt lat="24.757662566478615" lon="120.98615917219112"><ele>72.0</ele><time>2026-03-22T02:41:02Z</time></trkpt><trkpt lat="24.757553697247364" lon="120.98596343584683"><ele>73.33333333333333</ele><time>2026-03-22T02:41:03Z</time></trkpt><trkpt lat="24.75743194511851" lon="120.98577453458138"><ele>74.66666666666666</ele><time>2026-03-22T02:41:04Z</time></trkpt><trkpt lat="24.75729613818405" lon="120.98559323639496"><ele>76.0</ele><time>2026-03-22T02:41:05Z</time></trkpt><trkpt lat="24.757147247157423" lon="120.98542476143336"><ele>76.0</ele><time>2026-03-22T02:41:06Z</time></trkpt><trkpt lat="24.756987736453468" lon="120.98526838774241"><ele>76.0</ele><time>2026-03-22T02:41:07Z</time></trkpt><trkpt lat="24.75681731184458" lon="120.98512422569269"><ele>76.0</ele><time>2026-03-22T02:41:08Z</time></trkpt><trkpt lat="24.75663611249959" lon="120.98499133573723"><ele>76.0</ele><time>2026-03-22T02:41:09Z</time></trkpt><trkpt lat="24.756443114117797" lon="120.98487094332924"><ele>76.0</ele><time>2026-03-22T02:41:10Z</time></trkpt><trkpt lat="24.756238931976274" lon="120.98476530994189"><ele>76.0</ele><time>2026-03-22T02:41:11Z</time></trkpt><trkpt lat="24.75602567333725" lon="120.98467473712651"><ele>76.0</ele><time>2026-03-22T02:41:12Z</time></trkpt><trkpt lat="24.755804972205745" lon="120.9846018124381"><ele>76.0</ele><time>2026-03-22T02:41:13Z</time></trkpt><trkpt lat="24.755591853658217" lon="120.98451965541506"><ele>76.0</ele><time>2026-03-22T02:41:14Z</time></trkpt><trkpt lat="24.755386533239175" lon="120.98442502264824"><ele>76.0</ele><time>2026-03-22T02:41:15Z</time></trkpt><trkpt lat="24.755114875112813" lon="120.9844950608034"><ele>80.5</ele><time>2026-03-22T02:41:16Z</time></trkpt><trkpt lat="24.754876646873317" lon="120.98448691022341"><ele>85.0</ele><time>2026-03-22T02:41:17Z</time></trkpt><trkpt lat="24.754635492742874" lon="120.9844842517478"><ele>85.0</ele><time>2026-03-22T02:41:18Z</time></trkpt><trkpt lat="24.754392256242483" lon="120.98446767518581"><ele>85.0</ele><time>2026-03-22T02:41:19Z</time></trkpt><trkpt lat="24.754151825963337" lon="120.98443699203234"><ele>83.5</ele><time>2026-03-22T02:41:20Z</time></trkpt><trkpt lat="24.75391457433525" lon="120.98439495739576"><ele>82.0</ele><time>2026-03-22T02:41:21Z</time></trkpt><trkpt lat="24.753680685203502" lon="120.98434272153737"><ele>85.0</ele><time>2026-03-22T02:41:22Z</time></trkpt><trkpt lat="24.753452955966864" lon="120.98427342982815"><ele>88.0</ele><time>2026-03-22T02:41:23Z</time></trkpt><trkpt lat="24.75323420132245" lon="120.98418530496002"><ele>82.0</ele><time>2026-03-22T02:41:24Z</time></trkpt><trkpt lat="24.753023611416967" lon="120.98407787648554"><ele>76.0</ele><time>2026-03-22T02:41:25Z</time></trkpt><trkpt lat="24.75282624047588" lon="120.98394739137292"><ele>81.0</ele><time>2026-03-22T02:41:26Z</time></trkpt><trkpt lat="24.75264127184975" lon="120.98379984884586"><ele>86.0</ele><time>2026-03-22T02:41:27Z</time></trkpt><trkpt lat="24.75246551404502" lon="120.9836419995701"><ele>86.0</ele><time>2026-03-22T02:41:27.999Z</time></trkpt><trkpt lat="24.75229433300688" lon="120.98347716026132"><ele>86.0</ele><time>2026-03-22T02:41:28.999Z</time></trkpt><trkpt lat="24.75212762363995" lon="120.98330418766943"><ele>86.0</ele><time>2026-03-22T02:41:29.999Z</time></trkpt><trkpt lat="24.751963436168374" lon="120.98312313233646"><ele>86.0</ele><time>2026-03-22T02:41:30.999Z</time></trkpt><trkpt lat="24.75179881749022" lon="120.98293605220243"><ele>86.0</ele><time>2026-03-22T02:41:31.999Z</time></trkpt><trkpt lat="24.751635997969547" lon="120.9827428895795"><ele>86.0</ele><time>2026-03-22T02:41:32.999Z</time></trkpt><trkpt lat="24.751474463517642" lon="120.98254326156106"><ele>89.5</ele><time>2026-03-22T02:41:33.999Z</time></trkpt><trkpt lat="24.751316198849302" lon="120.98233538320112"><ele>93.0</ele><time>2026-03-22T02:41:34.999Z</time></trkpt><trkpt lat="24.751163141368444" lon="120.9821180523706"><ele>86.5</ele><time>2026-03-22T02:41:35.999Z</time></trkpt><trkpt lat="24.751015936380597" lon="120.98189050026227"><ele>80.0</ele><time>2026-03-22T02:41:36.999Z</time></trkpt><trkpt lat="24.750871300889795" lon="120.98165766781435"><ele>77.5</ele><time>2026-03-22T02:41:37.999Z</time></trkpt><trkpt lat="24.750731626962722" lon="120.98141948376933"><ele>75.0</ele><time>2026-03-22T02:41:38.999Z</time></trkpt><trkpt lat="24.750595597300354" lon="120.98117596863551"><ele>75.0</ele><time>2026-03-22T02:41:39.999Z</time></trkpt><trkpt lat="24.750460218417075" lon="120.9809316229643"><ele>75.0</ele><time>2026-03-22T02:41:40.999Z</time></trkpt><trkpt lat="24.75032623412958" lon="120.98068601116265"><ele>65.5</ele><time>2026-03-22T02:41:41.999Z</time></trkpt><trkpt lat="24.75019517732298" lon="120.9804396633368"><ele>56.0</ele><time>2026-03-22T02:41:42.999Z</time></trkpt><trkpt lat="24.750064408913147" lon="120.98019123849603"><ele>56.0</ele><time>2026-03-22T02:41:43.999Z</time></trkpt><trkpt lat="24.749929426121085" lon="120.97994630062065"><ele>56.0</ele><time>2026-03-22T02:41:44.999Z</time></trkpt><trkpt lat="24.749787580199442" lon="120.97970433920288"><ele>56.0</ele><time>2026-03-22T02:41:45.999Z</time></trkpt><trkpt lat="24.749641894652406" lon="120.97946510401542"><ele>56.0</ele><time>2026-03-22T02:41:46.999Z</time></trkpt><trkpt lat="24.749492742306057" lon="120.9792291698397"><ele>61.0</ele><time>2026-03-22T02:41:47.999Z</time></trkpt><trkpt lat="24.74934215380555" lon="120.97899211745911"><ele>66.0</ele><time>2026-03-22T02:41:48.999Z</time></trkpt><trkpt lat="24.749187696752184" lon="120.97875742463566"><ele>66.0</ele><time>2026-03-22T02:41:49.999Z</time></trkpt><trkpt lat="24.749027302659453" lon="120.97852679688202"><ele>66.0</ele><time>2026-03-22T02:41:50.999Z</time></trkpt><trkpt lat="24.748862070974532" lon="120.97830020778895"><ele>65.0</ele><time>2026-03-22T02:41:51.999Z</time></trkpt><trkpt lat="24.748691893796252" lon="120.97807757155118"><ele>64.0</ele><time>2026-03-22T02:41:52.999Z</time></trkpt><trkpt lat="24.748516634348903" lon="120.97786208920763"><ele>58.0</ele><time>2026-03-22T02:41:53.999Z</time></trkpt><trkpt lat="24.74834014605776" lon="120.97765523682634"><ele>52.0</ele><time>2026-03-22T02:41:54.999Z</time></trkpt><trkpt lat="24.7481592397139" lon="120.97745648821191"><ele>51.5</ele><time>2026-03-22T02:41:55.999Z</time></trkpt><trkpt lat="24.74797707274156" lon="120.97726971971841"><ele>51.0</ele><time>2026-03-22T02:41:56.999Z</time></trkpt><trkpt lat="24.747791245201636" lon="120.9770910600182"><ele>48.0</ele><time>2026-03-22T02:41:57.999Z</time></trkpt><trkpt lat="24.747602662419215" lon="120.97691856608208"><ele>45.0</ele><time>2026-03-22T02:41:58.999Z</time></trkpt><trkpt lat="24.747408325362613" lon="120.97675245764863"><ele>50.5</ele><time>2026-03-22T02:41:59.999Z</time></trkpt><trkpt lat="24.747214757180487" lon="120.9765880469695"><ele>56.0</ele><time>2026-03-22T02:42:00.999Z</time></trkpt><trkpt lat="24.747018007700127" lon="120.97642923782888"><ele>54.5</ele><time>2026-03-22T02:42:01.999Z</time></trkpt><trkpt lat="24.746816423255392" lon="120.97627823710958"><ele>53.0</ele><time>2026-03-22T02:42:02.999Z</time></trkpt><trkpt lat="24.746608593973527" lon="120.97613578278536"><ele>53.0</ele><time>2026-03-22T02:42:03.999Z</time></trkpt><trkpt lat="24.746395635195793" lon="120.9760002032998"><ele>53.0</ele><time>2026-03-22T02:42:04.999Z</time></trkpt><trkpt lat="24.746181269122022" lon="120.97586826031899"><ele>51.0</ele><time>2026-03-22T02:42:05.999Z</time></trkpt><trkpt lat="24.745964505336865" lon="120.97574053262257"><ele>49.0</ele><time>2026-03-22T02:42:06.999Z</time></trkpt><trkpt lat="24.745744940280776" lon="120.97562091340797"><ele>49.0</ele><time>2026-03-22T02:42:07.999Z</time></trkpt><trkpt lat="24.745522480489623" lon="120.97550684374708"><ele>49.0</ele><time>2026-03-22T02:42:08.999Z</time></trkpt><trkpt lat="24.745298603419972" lon="120.97539864407162"><ele>46.0</ele><time>2026-03-22T02:42:09.999Z</time></trkpt><trkpt lat="24.74507286536119" lon="120.97529584378938"><ele>43.0</ele><time>2026-03-22T02:42:10.999Z</time></trkpt><trkpt lat="24.744846628556612" lon="120.97519827873587"><ele>43.0</ele><time>2026-03-22T02:42:11.999Z</time></trkpt><trkpt lat="24.744618965662504" lon="120.97510278258179"><ele>43.0</ele><time>2026-03-22T02:42:12.999Z</time></trkpt><trkpt lat="24.744387873184362" lon="120.97500893052901"><ele>46.0</ele><time>2026-03-22T02:42:13.999Z</time></trkpt><trkpt lat="24.744155105584916" lon="120.97491644933119"><ele>49.0</ele><time>2026-03-22T02:42:14.999Z</time></trkpt><trkpt lat="24.743923306565993" lon="120.97482773097819"><ele>49.0</ele><time>2026-03-22T02:42:15.999Z</time></trkpt><trkpt lat="24.743691852102252" lon="120.9747388132837"><ele>49.0</ele><time>2026-03-22T02:42:16.999Z</time></trkpt><trkpt lat="24.743461176399673" lon="120.97465036838405"><ele>45.5</ele><time>2026-03-22T02:42:17.999Z</time></trkpt><trkpt lat="24.743231416518096" lon="120.97456258884414"><ele>42.0</ele><time>2026-03-22T02:42:18.999Z</time></trkpt><trkpt lat="24.74300227906473" lon="120.97447709460658"><ele>42.0</ele><time>2026-03-22T02:42:19.999Z</time></trkpt><trkpt lat="24.742773941203694" lon="120.97439250093034"><ele>42.0</ele><time>2026-03-22T02:42:20.999Z</time></trkpt><trkpt lat="24.742547985151152" lon="120.97430781845004"><ele>41.5</ele><time>2026-03-22T02:42:21.999Z</time></trkpt><trkpt lat="24.742324821212332" lon="120.97421693821184"><ele>41.0</ele><time>2026-03-22T02:42:22.999Z</time></trkpt><trkpt lat="24.742104363380623" lon="120.9741147052601"><ele>42.0</ele><time>2026-03-22T02:42:23.999Z</time></trkpt><trkpt lat="24.741884485418485" lon="120.97400661103755"><ele>43.0</ele><time>2026-03-22T02:42:24.999Z</time></trkpt><trkpt lat="24.741667252672297" lon="120.9738951172508"><ele>43.0</ele><time>2026-03-22T02:42:25.999Z</time></trkpt><trkpt lat="24.741451323158827" lon="120.97378348074855"><ele>43.0</ele><time>2026-03-22T02:42:26.999Z</time></trkpt><trkpt lat="24.741236863337285" lon="120.97366647660778"><ele>42.0</ele><time>2026-03-22T02:42:27.999Z</time></trkpt><trkpt lat="24.741023294226363" lon="120.97354385467338"><ele>41.0</ele><time>2026-03-22T02:42:28.999Z</time></trkpt><trkpt lat="24.740811030839858" lon="120.97341615237971"><ele>47.0</ele><time>2026-03-22T02:42:29.999Z</time></trkpt><trkpt lat="24.740600267265" lon="120.97328214760263"><ele>53.0</ele><time>2026-03-22T02:42:30.999Z</time></trkpt><trkpt lat="24.740391739535397" lon="120.97314338829216"><ele>51.5</ele><time>2026-03-22T02:42:31.999Z</time></trkpt><trkpt lat="24.74018521389512" lon="120.97300065680427"><ele>50.0</ele><time>2026-03-22T02:42:32.999Z</time></trkpt><trkpt lat="24.739981445763846" lon="120.97285584902559"><ele>50.0</ele><time>2026-03-22T02:42:33.999Z</time></trkpt><trkpt lat="24.7397803858867" lon="120.9727058354967"><ele>50.0</ele><time>2026-03-22T02:42:34.999Z</time></trkpt><trkpt lat="24.739582118382977" lon="120.97255137623262"><ele>49.5</ele><time>2026-03-22T02:42:35.999Z</time></trkpt><trkpt lat="24.739386881485018" lon="120.972393959243"><ele>49.0</ele><time>2026-03-22T02:42:36.999Z</time></trkpt><trkpt lat="24.73919457595825" lon="120.97223483358218"><ele>45.0</ele><time>2026-03-22T02:42:37.999Z</time></trkpt><trkpt lat="24.739006008162598" lon="120.97207298739175"><ele>41.0</ele><time>2026-03-22T02:42:38.999Z</time></trkpt><trkpt lat="24.738821104329606" lon="120.97190844298096"><ele>41.0</ele><time>2026-03-22T02:42:39.999Z</time></trkpt><trkpt lat="24.738642350614846" lon="120.97174188065217"><ele>41.0</ele><time>2026-03-22T02:42:40.999Z</time></trkpt><trkpt lat="24.73847282464568" lon="120.97157721324287"><ele>40.666666666666664</ele><time>2026-03-22T02:42:41.999Z</time></trkpt><trkpt lat="24.7383110836494" lon="120.97141512760712"><ele>40.333333333333336</ele><time>2026-03-22T02:42:42.999Z</time></trkpt><trkpt lat="24.738154218252557" lon="120.97125425985165"><ele>40.0</ele><time>2026-03-22T02:42:43.999Z</time></trkpt><trkpt lat="24.73799994654727" lon="120.97109162824519"><ele>40.0</ele><time>2026-03-22T02:42:44.999Z</time></trkpt><trkpt lat="24.737850528347852" lon="120.97092633098005"><ele>40.0</ele><time>2026-03-22T02:42:45.999Z</time></trkpt><trkpt lat="24.737705028988543" lon="120.97075653501687"><ele>40.0</ele><time>2026-03-22T02:42:46.999Z</time></trkpt><trkpt lat="24.7375601908503" lon="120.9705864019507"><ele>39.333333333333336</ele><time>2026-03-22T02:42:47.999Z</time></trkpt><trkpt lat="24.7374150072188" lon="120.97041499190856"><ele>38.666666666666664</ele><time>2026-03-22T02:42:48.999Z</time></trkpt><trkpt lat="24.737273270632006" lon="120.97023699585954"><ele>38.0</ele><time>2026-03-22T02:42:49.999Z</time></trkpt><trkpt lat="24.737134084442566" lon="120.97005661921898"><ele>37.666666666666664</ele><time>2026-03-22T02:42:50.999Z</time></trkpt><trkpt lat="24.736994024308757" lon="120.96987430851398"><ele>37.333333333333336</ele><time>2026-03-22T02:42:51.999Z</time></trkpt><trkpt lat="24.736857571570326" lon="120.969687494668"><ele>37.0</ele><time>2026-03-22T02:42:52.999Z</time></trkpt><trkpt lat="24.736723531968764" lon="120.96949674963116"><ele>37.0</ele><time>2026-03-22T02:42:53.999Z</time></trkpt><trkpt lat="24.73659165612992" lon="120.96930362999456"><ele>37.0</ele><time>2026-03-22T02:42:54.999Z</time></trkpt><trkpt lat="24.736461081175698" lon="120.96910801378864"><ele>37.0</ele><time>2026-03-22T02:42:55.999Z</time></trkpt><trkpt lat="24.73633345581826" lon="120.96891039985239"><ele>38.66666666666667</ele><time>2026-03-22T02:42:56.999Z</time></trkpt><trkpt lat="24.736207937775887" lon="120.96871351852482"><ele>40.333333333333336</ele><time>2026-03-22T02:42:57.999Z</time></trkpt><trkpt lat="24.736084220667184" lon="120.96851401133209"><ele>42.0</ele><time>2026-03-22T02:42:58.999Z</time></trkpt><trkpt lat="24.73596273137935" lon="120.968314755751"><ele>42.0</ele><time>2026-03-22T02:42:59.999Z</time></trkpt><trkpt lat="24.735842806303097" lon="120.96811624473379"><ele>42.0</ele><time>2026-03-22T02:43:00.999Z</time></trkpt><trkpt lat="24.735724602634534" lon="120.96791706936341"><ele>42.0</ele><time>2026-03-22T02:43:01.999Z</time></trkpt><trkpt lat="24.735606630475022" lon="120.96771946053454"><ele>45.0</ele><time>2026-03-22T02:43:02.999Z</time></trkpt><trkpt lat="24.735486186925478" lon="120.96752518487617"><ele>48.0</ele><time>2026-03-22T02:43:03.999Z</time></trkpt><trkpt lat="24.7353640407416" lon="120.96732844777343"><ele>51.0</ele><time>2026-03-22T02:43:04.999Z</time></trkpt><trkpt lat="24.735239366245967" lon="120.96713027399377"><ele>47.666666666666664</ele><time>2026-03-22T02:43:05.999Z</time></trkpt><trkpt lat="24.735112165000075" lon="120.96693067003794"><ele>44.33333333333333</ele><time>2026-03-22T02:43:06.999Z</time></trkpt><trkpt lat="24.734980148406116" lon="120.96673107293049"><ele>41.0</ele><time>2026-03-22T02:43:07.999Z</time></trkpt><trkpt lat="24.73484339158695" lon="120.96653304990367"><ele>38.5</ele><time>2026-03-22T02:43:08.999Z</time></trkpt><trkpt lat="24.73470279460129" lon="120.96633441259175"><ele>36.0</ele><time>2026-03-22T02:43:09.999Z</time></trkpt><trkpt lat="24.73456041492753" lon="120.96613811409848"><ele>36.0</ele><time>2026-03-22T02:43:10.999Z</time></trkpt><trkpt lat="24.734414556111624" lon="120.9659452383469"><ele>36.0</ele><time>2026-03-22T02:43:11.999Z</time></trkpt><trkpt lat="24.734266854618173" lon="120.96575680196474"><ele>40.0</ele><time>2026-03-22T02:43:12.999Z</time></trkpt><trkpt lat="24.73411639545225" lon="120.96556993149426"><ele>44.0</ele><time>2026-03-22T02:43:13.999Z</time></trkpt><trkpt lat="24.733962618226617" lon="120.96538625211561"><ele>44.0</ele><time>2026-03-22T02:43:14.999Z</time></trkpt><trkpt lat="24.733806998141024" lon="120.96520656254235"><ele>44.0</ele><time>2026-03-22T02:43:15.999Z</time></trkpt><trkpt lat="24.733650104035632" lon="120.96502993385754"><ele>42.666666666666664</ele><time>2026-03-22T02:43:16.999Z</time></trkpt><trkpt lat="24.733491702558286" lon="120.96485622525032"><ele>41.333333333333336</ele><time>2026-03-22T02:43:17.999Z</time></trkpt><trkpt lat="24.733330094345813" lon="120.9646870766709"><ele>40.0</ele><time>2026-03-22T02:43:18.999Z</time></trkpt><trkpt lat="24.733166914631607" lon="120.96452282774425"><ele>40.0</ele><time>2026-03-22T02:43:19.999Z</time></trkpt><trkpt lat="24.73300169289424" lon="120.96436201031793"><ele>40.0</ele><time>2026-03-22T02:43:20.999Z</time></trkpt><trkpt lat="24.732836650343515" lon="120.96420355967471"><ele>40.0</ele><time>2026-03-22T02:43:21.999Z</time></trkpt><trkpt lat="24.732672161616836" lon="120.96404543007895"><ele>42.333333333333336</ele><time>2026-03-22T02:43:22.999Z</time></trkpt><trkpt lat="24.732508448829375" lon="120.96388887549652"><ele>44.666666666666664</ele><time>2026-03-22T02:43:23.999Z</time></trkpt><trkpt lat="24.732344433639245" lon="120.96373435358734"><ele>47.0</ele><time>2026-03-22T02:43:24.999Z</time></trkpt><trkpt lat="24.732180508161782" lon="120.96358134535161"><ele>47.0</ele><time>2026-03-22T02:43:25.999Z</time></trkpt><trkpt lat="24.732017549218373" lon="120.9634292121155"><ele>47.0</ele><time>2026-03-22T02:43:26.999Z</time></trkpt><trkpt lat="24.731855230226383" lon="120.96327711312749"><ele>47.0</ele><time>2026-03-22T02:43:27.999Z</time></trkpt><trkpt lat="24.731694300131142" lon="120.9631250182806"><ele>45.666666666666664</ele><time>2026-03-22T02:43:28.999Z</time></trkpt><trkpt lat="24.73153498945204" lon="120.96297250417634"><ele>44.333333333333336</ele><time>2026-03-22T02:43:29.999Z</time></trkpt><trkpt lat="24.73137812224126" lon="120.9628174141399"><ele>43.0</ele><time>2026-03-22T02:43:30.999Z</time></trkpt><trkpt lat="24.73122107916344" lon="120.96265878899703"><ele>41.333333333333336</ele><time>2026-03-22T02:43:31.999Z</time></trkpt><trkpt lat="24.731063747354302" lon="120.96249803802077"><ele>39.666666666666664</ele><time>2026-03-22T02:43:32.999Z</time></trkpt><trkpt lat="24.730910228426282" lon="120.96233416727601"><ele>38.0</ele><time>2026-03-22T02:43:33.998Z</time></trkpt><trkpt lat="24.730758419647763" lon="120.96216834305473"><ele>38.33333333333333</ele><time>2026-03-22T02:43:34.998Z</time></trkpt><trkpt lat="24.73060756934141" lon="120.9619992229009"><ele>38.666666666666664</ele><time>2026-03-22T02:43:35.998Z</time></trkpt><trkpt lat="24.73045776499405" lon="120.96182350606733"><ele>39.0</ele><time>2026-03-22T02:43:36.998Z</time></trkpt><trkpt lat="24.73030954691791" lon="120.96164251523366"><ele>33.0</ele><time>2026-03-22T02:43:37.998Z</time></trkpt><trkpt lat="24.730164092268808" lon="120.96145467876755"><ele>27.0</ele><time>2026-03-22T02:43:38.998Z</time></trkpt><trkpt lat="24.730020618459932" lon="120.9612619205326"><ele>27.0</ele><time>2026-03-22T02:43:39.998Z</time></trkpt><trkpt lat="24.72987755966129" lon="120.96106688312275"><ele>27.0</ele><time>2026-03-22T02:43:40.998Z</time></trkpt><trkpt lat="24.729736714253576" lon="120.96086640152876"><ele>28.5</ele><time>2026-03-22T02:43:41.998Z</time></trkpt><trkpt lat="24.729596765229953" lon="120.96066167926033"><ele>30.0</ele><time>2026-03-22T02:43:42.998Z</time></trkpt><trkpt lat="24.729460407764602" lon="120.9604520175074"><ele>27.5</ele><time>2026-03-22T02:43:43.998Z</time></trkpt><trkpt lat="24.729327865860537" lon="120.96023631233992"><ele>25.0</ele><time>2026-03-22T02:43:44.998Z</time></trkpt><trkpt lat="24.729199458154618" lon="120.96001511944742"><ele>25.0</ele><time>2026-03-22T02:43:45.999Z</time></trkpt><trkpt lat="24.729074367522625" lon="120.95978931803373"><ele>25.0</ele><time>2026-03-22T02:43:46.999Z</time></trkpt><trkpt lat="24.7289527687094" lon="120.95956358387433"><ele>25.0</ele><time>2026-03-22T02:43:47.999Z</time></trkpt><trkpt lat="24.72883546304271" lon="120.9593360169233"><ele>25.0</ele><time>2026-03-22T02:43:48.999Z</time></trkpt><trkpt lat="24.72872306010143" lon="120.95910689655695"><ele>24.0</ele><time>2026-03-22T02:43:49.999Z</time></trkpt><trkpt lat="24.728615152401336" lon="120.95887617856472"><ele>23.0</ele><time>2026-03-22T02:43:50.999Z</time></trkpt><trkpt lat="24.72851235533951" lon="120.95864444427694"><ele>26.0</ele><time>2026-03-22T02:43:51.999Z</time></trkpt><trkpt lat="24.72841487650033" lon="120.95840949737334"><ele>29.0</ele><time>2026-03-22T02:43:52.999Z</time></trkpt><trkpt lat="24.728320620639668" lon="120.9581696751859"><ele>29.5</ele><time>2026-03-22T02:43:53.999Z</time></trkpt><trkpt lat="24.728231029177287" lon="120.95792732540606"><ele>30.0</ele><time>2026-03-22T02:43:54.999Z</time></trkpt><trkpt lat="24.728144731667875" lon="120.9576840877474"><ele>27.5</ele><time>2026-03-22T02:43:55.999Z</time></trkpt><trkpt lat="24.728063032759277" lon="120.95743936651495"><ele>25.0</ele><time>2026-03-22T02:43:56.999Z</time></trkpt><trkpt lat="24.727987273526935" lon="120.95719431333174"><ele>25.0</ele><time>2026-03-22T02:43:57.999Z</time></trkpt><trkpt lat="24.727915816729993" lon="120.95694798459766"><ele>25.0</ele><time>2026-03-22T02:43:58.999Z</time></trkpt><trkpt lat="24.72784781344272" lon="120.95669877667599"><ele>25.5</ele><time>2026-03-22T02:43:59.999Z</time></trkpt><trkpt lat="24.727783547632495" lon="120.95644681996262"><ele>26.0</ele><time>2026-03-22T02:44:00.999Z</time></trkpt><trkpt lat="24.727722357540745" lon="120.95619201676307"><ele>28.5</ele><time>2026-03-22T02:44:01.999Z</time></trkpt><trkpt lat="24.727665471181083" lon="120.95593481595925"><ele>31.0</ele><time>2026-03-22T02:44:02.999Z</time></trkpt><trkpt lat="24.727612083356263" lon="120.95567486043645"><ele>31.0</ele><time>2026-03-22T02:44:03.999Z</time></trkpt><trkpt lat="24.727560602195517" lon="120.95541257288093"><ele>31.0</ele><time>2026-03-22T02:44:04.999Z</time></trkpt><trkpt lat="24.72751194147154" lon="120.95514910782168"><ele>30.5</ele><time>2026-03-22T02:44:05.999Z</time></trkpt><trkpt lat="24.72746907963349" lon="120.95488177962547"><ele>30.0</ele><time>2026-03-22T02:44:06.999Z</time></trkpt><trkpt lat="24.727429528866285" lon="120.95461165704609"><ele>30.0</ele><time>2026-03-22T02:44:07.999Z</time></trkpt><trkpt lat="24.727391488105518" lon="120.95434115172179"><ele>30.0</ele><time>2026-03-22T02:44:08.999Z</time></trkpt><trkpt lat="24.727356174178322" lon="120.95407286580638"><ele>23.0</ele><time>2026-03-22T02:44:09.999Z</time></trkpt><trkpt lat="24.727324241105876" lon="120.95380501158682"><ele>16.0</ele><time>2026-03-22T02:44:10.999Z</time></trkpt><trkpt lat="24.72729536425936" lon="120.95353723964395"><ele>16.0</ele><time>2026-03-22T02:44:11.999Z</time></trkpt><trkpt lat="24.72726933949527" lon="120.95327065743751"><ele>16.0</ele><time>2026-03-22T02:44:12.999Z</time></trkpt><trkpt lat="24.72724813145781" lon="120.95300624058476"><ele>16.0</ele><time>2026-03-22T02:44:13.999Z</time></trkpt><trkpt lat="24.72722842384119" lon="120.95274207688934"><ele>16.0</ele><time>2026-03-22T02:44:14.999Z</time></trkpt><trkpt lat="24.727210755007413" lon="120.95247826584296"><ele>15.5</ele><time>2026-03-22T02:44:15.999Z</time></trkpt><trkpt lat="24.727194929959495" lon="120.95221688249468"><ele>15.0</ele><time>2026-03-22T02:44:16.999Z</time></trkpt><trkpt lat="24.727181808938717" lon="120.95195577449738"><ele>17.0</ele><time>2026-03-22T02:44:17.999Z</time></trkpt><trkpt lat="24.72717149471393" lon="120.95169566175196"><ele>19.0</ele><time>2026-03-22T02:44:18.999Z</time></trkpt><trkpt lat="24.72716275108354" lon="120.95143762577997"><ele>19.0</ele><time>2026-03-22T02:44:19.999Z</time></trkpt><trkpt lat="24.727153755504368" lon="120.951180102486"><ele>19.0</ele><time>2026-03-22T02:44:20.999Z</time></trkpt><trkpt lat="24.727145016482012" lon="120.95092385673328"><ele>21.0</ele><time>2026-03-22T02:44:21.999Z</time></trkpt><trkpt lat="24.72713846124564" lon="120.95067177878015"><ele>23.0</ele><time>2026-03-22T02:44:22.999Z</time></trkpt><trkpt lat="24.727132788192662" lon="120.95042510294378"><ele>23.0</ele><time>2026-03-22T02:44:23.999Z</time></trkpt><trkpt lat="24.727127360962772" lon="120.95018436193966"><ele>23.0</ele><time>2026-03-22T02:44:24.999Z</time></trkpt><trkpt lat="24.727121477414233" lon="120.94994523218618"><ele>23.0</ele><time>2026-03-22T02:44:25.999Z</time></trkpt><trkpt lat="24.727117524109932" lon="120.94970438651895"><ele>23.0</ele><time>2026-03-22T02:44:26.999Z</time></trkpt><trkpt lat="24.72711536382922" lon="120.94946344645555"><ele>23.0</ele><time>2026-03-22T02:44:27.999Z</time></trkpt><trkpt lat="24.727112973166687" lon="120.94921962198899"><ele>23.0</ele><time>2026-03-22T02:44:28.999Z</time></trkpt><trkpt lat="24.727108946570958" lon="120.94897390167887"><ele>23.0</ele><time>2026-03-22T02:44:29.999Z</time></trkpt><trkpt lat="24.727105050111437" lon="120.94872659267526"><ele>23.0</ele><time>2026-03-22T02:44:30.999Z</time></trkpt><trkpt lat="24.727100837870697" lon="120.94847770651026"><ele>21.5</ele><time>2026-03-22T02:44:31.999Z</time></trkpt><trkpt lat="24.72709693801628" lon="120.9482271357139"><ele>20.0</ele><time>2026-03-22T02:44:32.999Z</time></trkpt><trkpt lat="24.72709426961895" lon="120.94797440431196"><ele>20.0</ele><time>2026-03-22T02:44:33.999Z</time></trkpt><trkpt lat="24.72709144188846" lon="120.94771781557097"><ele>20.0</ele><time>2026-03-22T02:44:34.999Z</time></trkpt><trkpt lat="24.727087602242293" lon="120.9474587339971"><ele>21.0</ele><time>2026-03-22T02:44:35.999Z</time></trkpt><trkpt lat="24.727082475662726" lon="120.94719666589374"><ele>22.0</ele><time>2026-03-22T02:44:36.999Z</time></trkpt><trkpt lat="24.72707600329592" lon="120.94693225243978"><ele>19.5</ele><time>2026-03-22T02:44:37.999Z</time></trkpt><trkpt lat="24.727068322937438" lon="120.94666575125785"><ele>17.0</ele><time>2026-03-22T02:44:38.999Z</time></trkpt><trkpt lat="24.727059618993113" lon="120.94639638942188"><ele>17.0</ele><time>2026-03-22T02:44:39.999Z</time></trkpt><trkpt lat="24.72704986960451" lon="120.94612821123859"><ele>17.0</ele><time>2026-03-22T02:44:40.999Z</time></trkpt><trkpt lat="24.727038595802068" lon="120.94586118520479"><ele>17.5</ele><time>2026-03-22T02:44:41.999Z</time></trkpt><trkpt lat="24.727026080414298" lon="120.94559405405853"><ele>18.0</ele><time>2026-03-22T02:44:42.999Z</time></trkpt><trkpt lat="24.727011469818052" lon="120.94532602004475"><ele>18.0</ele><time>2026-03-22T02:44:43.999Z</time></trkpt><trkpt lat="24.726995210466566" lon="120.94505683592686"><ele>18.0</ele><time>2026-03-22T02:44:44.999Z</time></trkpt><trkpt lat="24.726977650466235" lon="120.9447858517988"><ele>19.0</ele><time>2026-03-22T02:44:45.999Z</time></trkpt><trkpt lat="24.726955251428027" lon="120.94451378882752"><ele>20.0</ele><time>2026-03-22T02:44:46.999Z</time></trkpt><trkpt lat="24.72692889121271" lon="120.94424046031662"><ele>18.5</ele><time>2026-03-22T02:44:47.999Z</time></trkpt><trkpt lat="24.726901559902927" lon="120.94396654905808"><ele>17.0</ele><time>2026-03-22T02:44:48.999Z</time></trkpt><trkpt lat="24.726872739584923" lon="120.94369210171635"><ele>19.5</ele><time>2026-03-22T02:44:49.999Z</time></trkpt><trkpt lat="24.72684103940856" lon="120.94341795143576"><ele>22.0</ele><time>2026-03-22T02:44:50.999Z</time></trkpt><trkpt lat="24.726805125775012" lon="120.94314514789195"><ele>22.0</ele><time>2026-03-22T02:44:51.999Z</time></trkpt><trkpt lat="24.726765006334823" lon="120.94287255749248"><ele>22.0</ele><time>2026-03-22T02:44:52.999Z</time></trkpt><trkpt lat="24.72672470176171" lon="120.94260184219044"><ele>19.5</ele><time>2026-03-22T02:44:53.999Z</time></trkpt><trkpt lat="24.726681987561083" lon="120.9423324186275"><ele>17.0</ele><time>2026-03-22T02:44:54.999Z</time></trkpt><trkpt lat="24.726634307281913" lon="120.94206442647622"><ele>17.0</ele><time>2026-03-22T02:44:55.999Z</time></trkpt><trkpt lat="24.726580850581115" lon="120.94179642665631"><ele>17.0</ele><time>2026-03-22T02:44:56.999Z</time></trkpt><trkpt lat="24.726522274988735" lon="120.94152876687839"><ele>15.5</ele><time>2026-03-22T02:44:57.999Z</time></trkpt><trkpt lat="24.726458725692087" lon="120.94126262145225"><ele>14.0</ele><time>2026-03-22T02:44:58.999Z</time></trkpt><trkpt lat="24.726392555074803" lon="120.94099831439881"><ele>15.5</ele><time>2026-03-22T02:44:59.999Z</time></trkpt><trkpt lat="24.72632455977037" lon="120.94073728437667"><ele>17.0</ele><time>2026-03-22T02:45:00.999Z</time></trkpt><trkpt lat="24.72625152610824" lon="120.94047781615701"><ele>17.0</ele><time>2026-03-22T02:45:01.999Z</time></trkpt><trkpt lat="24.726174301996622" lon="120.94022027524761"><ele>17.0</ele><time>2026-03-22T02:45:02.999Z</time></trkpt><trkpt lat="24.726093312791136" lon="120.93996296510379"><ele>21.0</ele><time>2026-03-22T02:45:03.999Z</time></trkpt><trkpt lat="24.72600985244516" lon="120.9397061064792"><ele>25.0</ele><time>2026-03-22T02:45:04.999Z</time></trkpt><trkpt lat="24.725920005831277" lon="120.93945055238184"><ele>26.5</ele><time>2026-03-22T02:45:05.999Z</time></trkpt><trkpt lat="24.72582540302632" lon="120.93919501959039"><ele>28.0</ele><time>2026-03-22T02:45:06.999Z</time></trkpt><trkpt lat="24.7257258327873" lon="120.93893999448868"><ele>28.0</ele><time>2026-03-22T02:45:07.999Z</time></trkpt><trkpt lat="24.725622882578918" lon="120.93868553331869"><ele>28.0</ele><time>2026-03-22T02:45:08.999Z</time></trkpt><trkpt lat="24.725514273528965" lon="120.93843097821235"><ele>28.0</ele><time>2026-03-22T02:45:09.999Z</time></trkpt><trkpt lat="24.725402203372056" lon="120.9381771348618"><ele>28.0</ele><time>2026-03-22T02:45:10.999Z</time></trkpt><trkpt lat="24.72528794096855" lon="120.93792440197758"><ele>27.0</ele><time>2026-03-22T02:45:11.999Z</time></trkpt><trkpt lat="24.725169195214953" lon="120.9376761248897"><ele>26.0</ele><time>2026-03-22T02:45:12.999Z</time></trkpt><trkpt lat="24.7250464542215" lon="120.93743228035778"><ele>26.0</ele><time>2026-03-22T02:45:13.999Z</time></trkpt><trkpt lat="24.724919447368553" lon="120.93719243962354"><ele>26.0</ele><time>2026-03-22T02:45:14.999Z</time></trkpt><trkpt lat="24.72478837606856" lon="120.93695559982837"><ele>26.0</ele><time>2026-03-22T02:45:15.999Z</time></trkpt><trkpt lat="24.724652778414487" lon="120.93672087075207"><ele>26.0</ele><time>2026-03-22T02:45:16.999Z</time></trkpt><trkpt lat="24.724512887902186" lon="120.93648686880822"><ele>27.5</ele><time>2026-03-22T02:45:17.999Z</time></trkpt><trkpt lat="24.724369649184798" lon="120.93625440440735"><ele>29.0</ele><time>2026-03-22T02:45:18.999Z</time></trkpt><trkpt lat="24.724223029023317" lon="120.93602360928857"><ele>31.0</ele><time>2026-03-22T02:45:19.999Z</time></trkpt><trkpt lat="24.72407199056552" lon="120.93579499061761"><ele>33.0</ele><time>2026-03-22T02:45:20.999Z</time></trkpt><trkpt lat="24.723915027890175" lon="120.93556944207633"><ele>33.0</ele><time>2026-03-22T02:45:21.999Z</time></trkpt><trkpt lat="24.72375387252586" lon="120.93534643233593"><ele>33.0</ele><time>2026-03-22T02:45:22.999Z</time></trkpt><trkpt lat="24.72359048572625" lon="120.93512575530954"><ele>35.5</ele><time>2026-03-22T02:45:23.999Z</time></trkpt><trkpt lat="24.723423172942457" lon="120.934906692503"><ele>38.0</ele><time>2026-03-22T02:45:24.999Z</time></trkpt><trkpt lat="24.723252057630884" lon="120.9346904213489"><ele>38.0</ele><time>2026-03-22T02:45:25.999Z</time></trkpt><trkpt lat="24.72307702828379" lon="120.93447777533954"><ele>38.0</ele><time>2026-03-22T02:45:26.999Z</time></trkpt><trkpt lat="24.722898102361246" lon="120.93426909660573"><ele>36.0</ele><time>2026-03-22T02:45:27.999Z</time></trkpt><trkpt lat="24.722714321245387" lon="120.93406506081037"><ele>34.0</ele><time>2026-03-22T02:45:28.999Z</time></trkpt><trkpt lat="24.722527184406736" lon="120.93386458140193"><ele>34.0</ele><time>2026-03-22T02:45:29.999Z</time></trkpt><trkpt lat="24.722339228248753" lon="120.9336657957202"><ele>34.0</ele><time>2026-03-22T02:45:30.999Z</time></trkpt><trkpt lat="24.722146920935014" lon="120.93347130616556"><ele>32.5</ele><time>2026-03-22T02:45:31.999Z</time></trkpt><trkpt lat="24.721951504955317" lon="120.93328114478766"><ele>31.0</ele><time>2026-03-22T02:45:33Z</time></trkpt><trkpt lat="24.721753434181455" lon="120.93309516549597"><ele>31.0</ele><time>2026-03-22T02:45:34Z</time></trkpt><trkpt lat="24.721552549967875" lon="120.93291175788656"><ele>31.0</ele><time>2026-03-22T02:45:35Z</time></trkpt><trkpt lat="24.721348293303116" lon="120.93273308383573"><ele>31.0</ele><time>2026-03-22T02:45:36Z</time></trkpt><trkpt lat="24.72114202971937" lon="120.93255943760425"><ele>31.0</ele><time>2026-03-22T02:45:37Z</time></trkpt><trkpt lat="24.720933340540252" lon="120.93239025932849"><ele>32.5</ele><time>2026-03-22T02:45:38Z</time></trkpt><trkpt lat="24.720721523653626" lon="120.93222694587173"><ele>34.0</ele><time>2026-03-22T02:45:39Z</time></trkpt><trkpt lat="24.720507945545915" lon="120.93206871605206"><ele>34.0</ele><time>2026-03-22T02:45:39.999Z</time></trkpt><trkpt lat="24.720292749559352" lon="120.93191373784303"><ele>34.0</ele><time>2026-03-22T02:45:40.999Z</time></trkpt><trkpt lat="24.720077341304243" lon="120.93176226459597"><ele>36.5</ele><time>2026-03-22T02:45:41.999Z</time></trkpt><trkpt lat="24.719859439314927" lon="120.93161559184091"><ele>39.0</ele><time>2026-03-22T02:45:42.999Z</time></trkpt><trkpt lat="24.71964005687967" lon="120.93147473516696"><ele>39.0</ele><time>2026-03-22T02:45:43.999Z</time></trkpt><trkpt lat="24.719419313650967" lon="120.93133861267542"><ele>39.0</ele><time>2026-03-22T02:45:44.999Z</time></trkpt><trkpt lat="24.719197413095603" lon="120.93120847643043"><ele>38.5</ele><time>2026-03-22T02:45:45.999Z</time></trkpt><trkpt lat="24.71897440906987" lon="120.93108388320674"><ele>38.0</ele><time>2026-03-22T02:45:46.999Z</time></trkpt><trkpt lat="24.71875080769157" lon="120.93096251269918"><ele>41.0</ele><time>2026-03-22T02:45:48Z</time></trkpt><trkpt lat="24.71852595297822" lon="120.93084589352063"><ele>44.0</ele><time>2026-03-22T02:45:49Z</time></trkpt><trkpt lat="24.718300423592662" lon="120.93073241251095"><ele>44.0</ele><time>2026-03-22T02:45:50Z</time></trkpt><trkpt lat="24.71807506223047" lon="120.93062241449582"><ele>44.0</ele><time>2026-03-22T02:45:51Z</time></trkpt><trkpt lat="24.717849203671136" lon="120.9305165902199"><ele>48.0</ele><time>2026-03-22T02:45:52Z</time></trkpt><trkpt lat="24.71762325324354" lon="120.93041243931931"><ele>52.0</ele><time>2026-03-22T02:45:53Z</time></trkpt><trkpt lat="24.717396387761866" lon="120.93030971944509"><ele>52.0</ele><time>2026-03-22T02:45:54Z</time></trkpt><trkpt lat="24.717169515971484" lon="120.9302111332468"><ele>52.0</ele><time>2026-03-22T02:45:55Z</time></trkpt><trkpt lat="24.716940129073556" lon="120.93011938354299"><ele>51.0</ele><time>2026-03-22T02:45:56Z</time></trkpt><trkpt lat="24.71670874597009" lon="120.93003543807512"><ele>50.0</ele><time>2026-03-22T02:45:57Z</time></trkpt><trkpt lat="24.71647570948767" lon="120.9299559247944"><ele>50.0</ele><time>2026-03-22T02:45:58Z</time></trkpt><trkpt lat="24.716242273888028" lon="120.92988343543914"><ele>50.0</ele><time>2026-03-22T02:45:59Z</time></trkpt><trkpt lat="24.71601026218489" lon="120.92981913679492"><ele>55.0</ele><time>2026-03-22T02:46:00Z</time></trkpt><trkpt lat="24.71578057593561" lon="120.92975843388663"><ele>60.0</ele><time>2026-03-22T02:46:01Z</time></trkpt><trkpt lat="24.715551781841416" lon="120.92970149876282"><ele>60.0</ele><time>2026-03-22T02:46:02Z</time></trkpt><trkpt lat="24.71532206782773" lon="120.92964709393172"><ele>60.0</ele><time>2026-03-22T02:46:03Z</time></trkpt><trkpt lat="24.715090781238658" lon="120.92959557226133"><ele>60.5</ele><time>2026-03-22T02:46:04Z</time></trkpt><trkpt lat="24.714857783574637" lon="120.9295482823111"><ele>61.0</ele><time>2026-03-22T02:46:05Z</time></trkpt><trkpt lat="24.714623366757824" lon="120.92950441775821"><ele>65.0</ele><time>2026-03-22T02:46:06Z</time></trkpt><trkpt lat="24.71438697847649" lon="120.9294637414238"><ele>69.0</ele><time>2026-03-22T02:46:07Z</time></trkpt><trkpt lat="24.714149072076644" lon="120.92942657331234"><ele>69.0</ele><time>2026-03-22T02:46:08Z</time></trkpt><trkpt lat="24.71390934880955" lon="120.9293925341243"><ele>69.0</ele><time>2026-03-22T02:46:09Z</time></trkpt><trkpt lat="24.713668452793712" lon="120.92936139045034"><ele>68.5</ele><time>2026-03-22T02:46:10Z</time></trkpt><trkpt lat="24.713425442989056" lon="120.92933400687167"><ele>68.0</ele><time>2026-03-22T02:46:11Z</time></trkpt><trkpt lat="24.713182417176906" lon="120.92930921486669"><ele>68.0</ele><time>2026-03-22T02:46:12Z</time></trkpt><trkpt lat="24.71293926640228" lon="120.92928635775509"><ele>68.0</ele><time>2026-03-22T02:46:13Z</time></trkpt><trkpt lat="24.71269700810598" lon="120.92926624322611"><ele>66.0</ele><time>2026-03-22T02:46:14Z</time></trkpt><trkpt lat="24.712454530705596" lon="120.92924804057901"><ele>64.0</ele><time>2026-03-22T02:46:15Z</time></trkpt><trkpt lat="24.712210029004492" lon="120.92923045790717"><ele>63.5</ele><time>2026-03-22T02:46:16Z</time></trkpt><trkpt lat="24.711962868821256" lon="120.92921479648423"><ele>63.0</ele><time>2026-03-22T02:46:17Z</time></trkpt><trkpt lat="24.711714510915765" lon="120.9292023736792"><ele>61.5</ele><time>2026-03-22T02:46:18Z</time></trkpt><trkpt lat="24.711463289800637" lon="120.92919034980528"><ele>60.0</ele><time>2026-03-22T02:46:19Z</time></trkpt><trkpt lat="24.71120998175825" lon="120.92918115059562"><ele>60.0</ele><time>2026-03-22T02:46:20Z</time></trkpt><trkpt lat="24.71095487618483" lon="120.9291727618111"><ele>60.0</ele><time>2026-03-22T02:46:21Z</time></trkpt><trkpt lat="24.710697768969883" lon="120.92916262599795"><ele>60.0</ele><time>2026-03-22T02:46:22Z</time></trkpt><trkpt lat="24.710438934366177" lon="120.92915179423757"><ele>60.0</ele><time>2026-03-22T02:46:23Z</time></trkpt><trkpt lat="24.710177176032552" lon="120.92914163702454"><ele>60.0</ele><time>2026-03-22T02:46:24Z</time></trkpt><trkpt lat="24.709915434044962" lon="120.92913190479221"><ele>60.0</ele><time>2026-03-22T02:46:25Z</time></trkpt><trkpt lat="24.709653954798945" lon="120.92912212334923"><ele>61.5</ele><time>2026-03-22T02:46:26Z</time></trkpt><trkpt lat="24.70939398159404" lon="120.92911134433848"><ele>63.0</ele><time>2026-03-22T02:46:27Z</time></trkpt><trkpt lat="24.709134394831178" lon="120.92909990363387"><ele>63.0</ele><time>2026-03-22T02:46:28Z</time></trkpt><trkpt lat="24.708875525395193" lon="120.92908748716242"><ele>63.0</ele><time>2026-03-22T02:46:29Z</time></trkpt><trkpt lat="24.708617227045277" lon="120.92907184591961"><ele>62.0</ele><time>2026-03-22T02:46:30Z</time></trkpt><trkpt lat="24.70836046451876" lon="120.92905137120054"><ele>61.0</ele><time>2026-03-22T02:46:31Z</time></trkpt><trkpt lat="24.708103594991634" lon="120.92902742886406"><ele>61.0</ele><time>2026-03-22T02:46:32Z</time></trkpt><trkpt lat="24.70784753318382" lon="120.92899781487807"><ele>61.0</ele><time>2026-03-22T02:46:33Z</time></trkpt><trkpt lat="24.707593738075502" lon="120.92896300798768"><ele>56.5</ele><time>2026-03-22T02:46:34Z</time></trkpt><trkpt lat="24.707340978809935" lon="120.92892219481725"><ele>52.0</ele><time>2026-03-22T02:46:35Z</time></trkpt><trkpt lat="24.707090347905556" lon="120.92887442613505"><ele>50.0</ele><time>2026-03-22T02:46:36Z</time></trkpt><trkpt lat="24.706840864599677" lon="120.92882100720414"><ele>48.0</ele><time>2026-03-22T02:46:37Z</time></trkpt><trkpt lat="24.706592668242802" lon="120.92876074005841"><ele>48.0</ele><time>2026-03-22T02:46:38Z</time></trkpt><trkpt lat="24.706346923408557" lon="120.92869481239316"><ele>48.0</ele><time>2026-03-22T02:46:39Z</time></trkpt><trkpt lat="24.706103662147903" lon="120.92862247825974"><ele>50.5</ele><time>2026-03-22T02:46:40Z</time></trkpt><trkpt lat="24.705862666218923" lon="120.92854364383714"><ele>53.0</ele><time>2026-03-22T02:46:41Z</time></trkpt><trkpt lat="24.705623771080106" lon="120.92845907077935"><ele>49.5</ele><time>2026-03-22T02:46:42Z</time></trkpt><trkpt lat="24.70538633770461" lon="120.92837108867796"><ele>46.0</ele><time>2026-03-22T02:46:43Z</time></trkpt><trkpt lat="24.70515150822226" lon="120.9282775538777"><ele>46.0</ele><time>2026-03-22T02:46:44Z</time></trkpt><trkpt lat="24.704920079143136" lon="120.92817651230476"><ele>46.0</ele><time>2026-03-22T02:46:45Z</time></trkpt><trkpt lat="24.704690854417937" lon="120.92806859428448"><ele>46.0</ele><time>2026-03-22T02:46:46Z</time></trkpt><trkpt lat="24.704465149086477" lon="120.92795402162096"><ele>46.0</ele><time>2026-03-22T02:46:47Z</time></trkpt><trkpt lat="24.704242559006897" lon="120.92783355841287"><ele>48.0</ele><time>2026-03-22T02:46:48Z</time></trkpt><trkpt lat="24.704021334470834" lon="120.92771081977358"><ele>50.0</ele><time>2026-03-22T02:46:49Z</time></trkpt><trkpt lat="24.703803216647213" lon="120.92758391822338"><ele>49.0</ele><time>2026-03-22T02:46:50Z</time></trkpt><trkpt lat="24.70358914684522" lon="120.92744808408415"><ele>48.0</ele><time>2026-03-22T02:46:51Z</time></trkpt><trkpt lat="24.70337730803556" lon="120.92730888958603"><ele>48.0</ele><time>2026-03-22T02:46:52Z</time></trkpt><trkpt lat="24.70316707502578" lon="120.92716687580511"><ele>48.0</ele><time>2026-03-22T02:46:53Z</time></trkpt><trkpt lat="24.70296131973262" lon="120.92701923499666"><ele>48.0</ele><time>2026-03-22T02:46:54Z</time></trkpt><trkpt lat="24.70275732404212" lon="120.92686842687371"><ele>48.0</ele><time>2026-03-22T02:46:55Z</time></trkpt><trkpt lat="24.70255550518322" lon="120.92671395939098"><ele>44.5</ele><time>2026-03-22T02:46:56Z</time></trkpt><trkpt lat="24.70235769852581" lon="120.92655383966388"><ele>41.0</ele><time>2026-03-22T02:46:57Z</time></trkpt><trkpt lat="24.702162112486473" lon="120.92639026595326"><ele>41.0</ele><time>2026-03-22T02:46:58Z</time></trkpt><trkpt lat="24.70196737599523" lon="120.92622482392551"><ele>41.0</ele><time>2026-03-22T02:46:59Z</time></trkpt><trkpt lat="24.701775964625067" lon="120.92605582932809"><ele>38.5</ele><time>2026-03-22T02:47:00Z</time></trkpt><trkpt lat="24.701586631744366" lon="120.92588432972963"><ele>36.0</ele><time>2026-03-22T02:47:01Z</time></trkpt><trkpt lat="24.701397931623152" lon="120.92571031243895"><ele>36.0</ele><time>2026-03-22T02:47:02Z</time></trkpt><trkpt lat="24.701211265943062" lon="120.92553623246421"><ele>36.0</ele><time>2026-03-22T02:47:03Z</time></trkpt><trkpt lat="24.70102554368192" lon="120.92536008913551"><ele>35.0</ele><time>2026-03-22T02:47:04Z</time></trkpt><trkpt lat="24.70084042269796" lon="120.92518318741624"><ele>34.0</ele><time>2026-03-22T02:47:05Z</time></trkpt><trkpt lat="24.700655335654154" lon="120.92500722591896"><ele>34.0</ele><time>2026-03-22T02:47:06Z</time></trkpt><trkpt lat="24.70047194983334" lon="120.92482980720872"><ele>34.0</ele><time>2026-03-22T02:47:07Z</time></trkpt><trkpt lat="24.700289737599885" lon="120.92465120248119"><ele>32.5</ele><time>2026-03-22T02:47:08Z</time></trkpt><trkpt lat="24.700108545117" lon="120.92447247091886"><ele>31.0</ele><time>2026-03-22T02:47:09Z</time></trkpt><trkpt lat="24.69992814980605" lon="120.92429401874074"><ele>29.5</ele><time>2026-03-22T02:47:10Z</time></trkpt><trkpt lat="24.699747468399927" lon="120.92411678261504"><ele>28.0</ele><time>2026-03-22T02:47:11Z</time></trkpt><trkpt lat="24.69956582944865" lon="120.92393957850938"><ele>28.0</ele><time>2026-03-22T02:47:12Z</time></trkpt><trkpt lat="24.699381974878495" lon="120.92376134778469"><ele>28.0</ele><time>2026-03-22T02:47:13Z</time></trkpt><trkpt lat="24.699197805621868" lon="120.92358123221547"><ele>28.0</ele><time>2026-03-22T02:47:14Z</time></trkpt><trkpt lat="24.69901176354851" lon="120.92340085522487"><ele>28.0</ele><time>2026-03-22T02:47:15Z</time></trkpt><trkpt lat="24.698823332967436" lon="120.92322119257149"><ele>28.0</ele><time>2026-03-22T02:47:16Z</time></trkpt><trkpt lat="24.698633157681428" lon="120.92304106806235"><ele>28.0</ele><time>2026-03-22T02:47:17Z</time></trkpt><trkpt lat="24.69844051055484" lon="120.9228628842839"><ele>28.5</ele><time>2026-03-22T02:47:18Z</time></trkpt><trkpt lat="24.698245392051863" lon="120.922687140391"><ele>29.0</ele><time>2026-03-22T02:47:19Z</time></trkpt><trkpt lat="24.698047893158922" lon="120.92251330745961"><ele>29.5</ele><time>2026-03-22T02:47:20Z</time></trkpt><trkpt lat="24.6978480751089" lon="120.92234106172444"><ele>30.0</ele><time>2026-03-22T02:47:21Z</time></trkpt><trkpt lat="24.697645513980873" lon="120.92217070915412"><ele>30.5</ele><time>2026-03-22T02:47:22Z</time></trkpt><trkpt lat="24.69744075905471" lon="120.92200306787134"><ele>31.0</ele><time>2026-03-22T02:47:23Z</time></trkpt><trkpt lat="24.69723428160465" lon="120.92183703401501"><ele>30.0</ele><time>2026-03-22T02:47:24Z</time></trkpt><trkpt lat="24.697026450699873" lon="120.92167304758011"><ele>29.0</ele><time>2026-03-22T02:47:25Z</time></trkpt><trkpt lat="24.69681790374351" lon="120.92151111284745"><ele>29.0</ele><time>2026-03-22T02:47:26Z</time></trkpt><trkpt lat="24.696609814615375" lon="120.92135233751523"><ele>29.0</ele><time>2026-03-22T02:47:27Z</time></trkpt><trkpt lat="24.69640077790531" lon="120.92119720147561"><ele>29.0</ele><time>2026-03-22T02:47:28Z</time></trkpt><trkpt lat="24.696189596442522" lon="120.92104625916683"><ele>29.0</ele><time>2026-03-22T02:47:29Z</time></trkpt><trkpt lat="24.695976730018668" lon="120.9208973983096"><ele>29.0</ele><time>2026-03-22T02:47:30Z</time></trkpt><trkpt lat="24.69576372146139" lon="120.92075159814326"><ele>29.0</ele><time>2026-03-22T02:47:31Z</time></trkpt><trkpt lat="24.695550628937845" lon="120.92060769001881"><ele>29.0</ele><time>2026-03-22T02:47:32Z</time></trkpt><trkpt lat="24.69533683850898" lon="120.92046606347326"><ele>29.0</ele><time>2026-03-22T02:47:33Z</time></trkpt><trkpt lat="24.695121428972225" lon="120.92032825121741"><ele>29.5</ele><time>2026-03-22T02:47:34Z</time></trkpt><trkpt lat="24.69490490350394" lon="120.92019348481035"><ele>30.0</ele><time>2026-03-22T02:47:35Z</time></trkpt><trkpt lat="24.694688795000015" lon="120.92006139530717"><ele>30.0</ele><time>2026-03-22T02:47:36Z</time></trkpt><trkpt lat="24.69447178856717" lon="120.91993159931162"><ele>30.0</ele><time>2026-03-22T02:47:37Z</time></trkpt><trkpt lat="24.69425396637052" lon="120.91980296234452"><ele>30.5</ele><time>2026-03-22T02:47:38Z</time></trkpt><trkpt lat="24.69403515691282" lon="120.91967803964951"><ele>31.0</ele><time>2026-03-22T02:47:39Z</time></trkpt><trkpt lat="24.69381616958354" lon="120.91955492394464"><ele>31.0</ele><time>2026-03-22T02:47:40Z</time></trkpt><trkpt lat="24.693598323278735" lon="120.91943167420237"><ele>31.0</ele><time>2026-03-22T02:47:41Z</time></trkpt><trkpt lat="24.693379882481405" lon="120.91931047664904"><ele>29.5</ele><time>2026-03-22T02:47:42Z</time></trkpt><trkpt lat="24.693161360636665" lon="120.91919087701774"><ele>28.0</ele><time>2026-03-22T02:47:43Z</time></trkpt><trkpt lat="24.69294306785876" lon="120.91907167402498"><ele>28.5</ele><time>2026-03-22T02:47:44Z</time></trkpt><trkpt lat="24.692724379263282" lon="120.91895168452665"><ele>29.0</ele><time>2026-03-22T02:47:45Z</time></trkpt><trkpt lat="24.692504505732217" lon="120.9188314754017"><ele>29.0</ele><time>2026-03-22T02:47:46Z</time></trkpt><trkpt lat="24.69228540685983" lon="120.91871018257592"><ele>29.0</ele><time>2026-03-22T02:47:47Z</time></trkpt><trkpt lat="24.692068164164738" lon="120.918588146346"><ele>28.5</ele><time>2026-03-22T02:47:48Z</time></trkpt><trkpt lat="24.69185110781777" lon="120.9184681227798"><ele>28.0</ele><time>2026-03-22T02:47:49Z</time></trkpt><trkpt lat="24.69163358595728" lon="120.91834914677186"><ele>29.0</ele><time>2026-03-22T02:47:50Z</time></trkpt><trkpt lat="24.691416991668703" lon="120.91822949247167"><ele>30.0</ele><time>2026-03-22T02:47:51Z</time></trkpt><trkpt lat="24.691201412591724" lon="120.91810804973126"><ele>29.5</ele><time>2026-03-22T02:47:52Z</time></trkpt><trkpt lat="24.690985826809744" lon="120.91798353256446"><ele>29.0</ele><time>2026-03-22T02:47:53Z</time></trkpt><trkpt lat="24.690771055580782" lon="120.91785769203774"><ele>29.0</ele><time>2026-03-22T02:47:54Z</time></trkpt><trkpt lat="24.69055432544631" lon="120.91772984460583"><ele>29.0</ele><time>2026-03-22T02:47:55Z</time></trkpt><trkpt lat="24.6903380491103" lon="120.91759764959936"><ele>28.0</ele><time>2026-03-22T02:47:56Z</time></trkpt><trkpt lat="24.690121985772432" lon="120.91746486288312"><ele>27.0</ele><time>2026-03-22T02:47:57Z</time></trkpt><trkpt lat="24.68990931032698" lon="120.91733052468899"><ele>27.0</ele><time>2026-03-22T02:47:58Z</time></trkpt><trkpt lat="24.689696319693564" lon="120.91719120889101"><ele>27.0</ele><time>2026-03-22T02:47:59Z</time></trkpt><trkpt lat="24.689483342141198" lon="120.91704838421265"><ele>27.0</ele><time>2026-03-22T02:48:00Z</time></trkpt><trkpt lat="24.689273042856605" lon="120.9169042575379"><ele>27.0</ele><time>2026-03-22T02:48:01Z</time></trkpt><trkpt lat="24.689064645196375" lon="120.91675765355458"><ele>27.5</ele><time>2026-03-22T02:48:02Z</time></trkpt><trkpt lat="24.688860194300908" lon="120.91660424927116"><ele>28.0</ele><time>2026-03-22T02:48:03Z</time></trkpt><trkpt lat="24.688656217299393" lon="120.91644872129511"><ele>28.0</ele><time>2026-03-22T02:48:04Z</time></trkpt><trkpt lat="24.68845400103906" lon="120.9162905281967"><ele>28.0</ele><time>2026-03-22T02:48:05Z</time></trkpt><trkpt lat="24.688253323911702" lon="120.9161288497344"><ele>28.0</ele><time>2026-03-22T02:48:06Z</time></trkpt><trkpt lat="24.688054628795577" lon="120.9159649781296"><ele>28.0</ele><time>2026-03-22T02:48:07Z</time></trkpt><trkpt lat="24.687857770265307" lon="120.91579865233969"><ele>26.5</ele><time>2026-03-22T02:48:08Z</time></trkpt><trkpt lat="24.68766419079486" lon="120.91562849330911"><ele>25.0</ele><time>2026-03-22T02:48:09Z</time></trkpt><trkpt lat="24.68747202954495" lon="120.91545474124216"><ele>25.0</ele><time>2026-03-22T02:48:10Z</time></trkpt><trkpt lat="24.687283233070833" lon="120.91527789938584"><ele>25.0</ele><time>2026-03-22T02:48:11Z</time></trkpt><trkpt lat="24.687097197670294" lon="120.91509964979718"><ele>24.5</ele><time>2026-03-22T02:48:12Z</time></trkpt><trkpt lat="24.686911959944887" lon="120.91491897187704"><ele>24.0</ele><time>2026-03-22T02:48:13Z</time></trkpt><trkpt lat="24.68672970893777" lon="120.91473515028659"><ele>24.0</ele><time>2026-03-22T02:48:14Z</time></trkpt><trkpt lat="24.686549161200116" lon="120.91454872098926"><ele>24.0</ele><time>2026-03-22T02:48:15Z</time></trkpt><trkpt lat="24.68637176161522" lon="120.91435897978816"><ele>24.5</ele><time>2026-03-22T02:48:16Z</time></trkpt><trkpt lat="24.686196836309076" lon="120.91416621266539"><ele>25.0</ele><time>2026-03-22T02:48:17Z</time></trkpt><trkpt lat="24.686024937584943" lon="120.91397111348162"><ele>24.0</ele><time>2026-03-22T02:48:18Z</time></trkpt><trkpt lat="24.68585401161119" lon="120.91377332470307"><ele>23.0</ele><time>2026-03-22T02:48:19Z</time></trkpt><trkpt lat="24.685685308277503" lon="120.91357277211706"><ele>22.0</ele><time>2026-03-22T02:48:20Z</time></trkpt><trkpt lat="24.685519967346167" lon="120.91337000699592"><ele>21.0</ele><time>2026-03-22T02:48:21Z</time></trkpt><trkpt lat="24.685357594048646" lon="120.9131636050543"><ele>21.0</ele><time>2026-03-22T02:48:22Z</time></trkpt><trkpt lat="24.685198368329335" lon="120.91295513678588"><ele>21.0</ele><time>2026-03-22T02:48:23Z</time></trkpt><trkpt lat="24.685040126867143" lon="120.91274398650391"><ele>22.5</ele><time>2026-03-22T02:48:24Z</time></trkpt><trkpt lat="24.684885318762888" lon="120.91253042500061"><ele>24.0</ele><time>2026-03-22T02:48:25Z</time></trkpt><trkpt lat="24.68473260156434" lon="120.91231489939437"><ele>24.0</ele><time>2026-03-22T02:48:26Z</time></trkpt><trkpt lat="24.684582603791387" lon="120.9120980105538"><ele>24.0</ele><time>2026-03-22T02:48:27Z</time></trkpt><trkpt lat="24.68443496929176" lon="120.91187841611747"><ele>23.5</ele><time>2026-03-22T02:48:28Z</time></trkpt><trkpt lat="24.68428975542113" lon="120.91165659135012"><ele>23.0</ele><time>2026-03-22T02:48:29Z</time></trkpt><trkpt lat="24.68414658628441" lon="120.91143464099292"><ele>23.0</ele><time>2026-03-22T02:48:30Z</time></trkpt><trkpt lat="24.684006668237828" lon="120.91120918847588"><ele>23.0</ele><time>2026-03-22T02:48:31Z</time></trkpt><trkpt lat="24.683871674632314" lon="120.91098080266981"><ele>23.0</ele><time>2026-03-22T02:48:32Z</time></trkpt><trkpt lat="24.683737557434384" lon="120.9107513202049"><ele>23.0</ele><time>2026-03-22T02:48:33Z</time></trkpt><trkpt lat="24.68360524422536" lon="120.91052102079338"><ele>21.5</ele><time>2026-03-22T02:48:34Z</time></trkpt><trkpt lat="24.683474509539973" lon="120.91028896974281"><ele>20.0</ele><time>2026-03-22T02:48:35Z</time></trkpt><trkpt lat="24.68334228610019" lon="120.91005796005379"><ele>20.0</ele><time>2026-03-22T02:48:36Z</time></trkpt><trkpt lat="24.683211817745107" lon="120.90982683151489"><ele>20.0</ele><time>2026-03-22T02:48:37Z</time></trkpt><trkpt lat="24.683082185686324" lon="120.90959544882129"><ele>20.0</ele><time>2026-03-22T02:48:38Z</time></trkpt><trkpt lat="24.68295229100094" lon="120.90936358605515"><ele>20.0</ele><time>2026-03-22T02:48:39Z</time></trkpt><trkpt lat="24.682821709517295" lon="120.90913210258033"><ele>20.5</ele><time>2026-03-22T02:48:40Z</time></trkpt><trkpt lat="24.68269007819755" lon="120.90890201932548"><ele>21.0</ele><time>2026-03-22T02:48:41Z</time></trkpt><trkpt lat="24.68255865753099" lon="120.90867126086266"><ele>21.0</ele><time>2026-03-22T02:48:42Z</time></trkpt><trkpt lat="24.682426394020922" lon="120.90843992167986"><ele>21.0</ele><time>2026-03-22T02:48:43Z</time></trkpt><trkpt lat="24.68229150232455" lon="120.90821039847671"><ele>22.5</ele><time>2026-03-22T02:48:44Z</time></trkpt><trkpt lat="24.682154436291334" lon="120.90798274781002"><ele>24.0</ele><time>2026-03-22T02:48:45Z</time></trkpt><trkpt lat="24.682015753222622" lon="120.90775654613238"><ele>21.0</ele><time>2026-03-22T02:48:46Z</time></trkpt><trkpt lat="24.681873956901903" lon="120.90753119464819"><ele>18.0</ele><time>2026-03-22T02:48:47Z</time></trkpt><trkpt lat="24.681729508087017" lon="120.90730834873821"><ele>18.0</ele><time>2026-03-22T02:48:48Z</time></trkpt><trkpt lat="24.6815828703697" lon="120.90708706589814"><ele>18.0</ele><time>2026-03-22T02:48:49Z</time></trkpt><trkpt lat="24.68143207767637" lon="120.90686904789213"><ele>19.0</ele><time>2026-03-22T02:48:50Z</time></trkpt><trkpt lat="24.681279171731926" lon="120.90665238949414"><ele>20.0</ele><time>2026-03-22T02:48:51Z</time></trkpt><trkpt lat="24.681121189373982" lon="120.90643957374019"><ele>19.0</ele><time>2026-03-22T02:48:52Z</time></trkpt><trkpt lat="24.680962023471636" lon="120.90622765750203"><ele>18.0</ele><time>2026-03-22T02:48:53Z</time></trkpt><trkpt lat="24.680800912438716" lon="120.90601655207601"><ele>18.5</ele><time>2026-03-22T02:48:54Z</time></trkpt><trkpt lat="24.68063662345256" lon="120.90580814688803"><ele>19.0</ele><time>2026-03-22T02:48:55Z</time></trkpt><trkpt lat="24.68047053728888" lon="120.90560200620487"><ele>19.0</ele><time>2026-03-22T02:48:56Z</time></trkpt><trkpt lat="24.680301969594424" lon="120.90539928932036"><ele>19.0</ele><time>2026-03-22T02:48:57Z</time></trkpt><trkpt lat="24.680130887006474" lon="120.9051994483441"><ele>18.0</ele><time>2026-03-22T02:48:58Z</time></trkpt><trkpt lat="24.67995591518477" lon="120.9050024384087"><ele>17.0</ele><time>2026-03-22T02:48:59Z</time></trkpt><trkpt lat="24.679779456655766" lon="120.90480961997682"><ele>17.0</ele><time>2026-03-22T02:49:00Z</time></trkpt><trkpt lat="24.679601267806245" lon="120.90461820714276"><ele>17.0</ele><time>2026-03-22T02:49:01Z</time></trkpt><trkpt lat="24.679421273527538" lon="120.90442673015424"><ele>14.5</ele><time>2026-03-22T02:49:02Z</time></trkpt><trkpt lat="24.679236221777376" lon="120.90423664706618"><ele>12.0</ele><time>2026-03-22T02:49:03Z</time></trkpt><trkpt lat="24.679048231019454" lon="120.90404657504465"><ele>12.0</ele><time>2026-03-22T02:49:04Z</time></trkpt><trkpt lat="24.67885516553151" lon="120.90385551976844"><ele>12.0</ele><time>2026-03-22T02:49:05Z</time></trkpt><trkpt lat="24.67865664030812" lon="120.90366524287055"><ele>12.0</ele><time>2026-03-22T02:49:06Z</time></trkpt><trkpt lat="24.678453566314396" lon="120.90347558070808"><ele>12.0</ele><time>2026-03-22T02:49:07Z</time></trkpt><trkpt lat="24.678246694518116" lon="120.9032854827768"><ele>12.0</ele><time>2026-03-22T02:49:08Z</time></trkpt><trkpt lat="24.678038096165697" lon="120.9030931400612"><ele>12.0</ele><time>2026-03-22T02:49:09Z</time></trkpt><trkpt lat="24.677827272425713" lon="120.90289834497935"><ele>13.0</ele><time>2026-03-22T02:49:10Z</time></trkpt><trkpt lat="24.677614466089913" lon="120.90270091474824"><ele>14.0</ele><time>2026-03-22T02:49:11Z</time></trkpt><trkpt lat="24.677402378118703" lon="120.9024995596259"><ele>15.0</ele><time>2026-03-22T02:49:12Z</time></trkpt><trkpt lat="24.677192516069283" lon="120.9022967181862"><ele>16.0</ele><time>2026-03-22T02:49:13Z</time></trkpt><trkpt lat="24.676987087388554" lon="120.90209415215985"><ele>14.5</ele><time>2026-03-22T02:49:14Z</time></trkpt><trkpt lat="24.676784882427437" lon="120.90189026934836"><ele>13.0</ele><time>2026-03-22T02:49:15Z</time></trkpt><trkpt lat="24.67658810311746" lon="120.90168885249318"><ele>11.5</ele><time>2026-03-22T02:49:16Z</time></trkpt><trkpt lat="24.676394550612955" lon="120.90148777301958"><ele>10.0</ele><time>2026-03-22T02:49:17Z</time></trkpt><trkpt lat="24.676202325024285" lon="120.90128410871378"><ele>12.5</ele><time>2026-03-22T02:49:18Z</time></trkpt><trkpt lat="24.676014241507247" lon="120.9010752690161"><ele>15.0</ele><time>2026-03-22T02:49:19Z</time></trkpt><trkpt lat="24.675830534678894" lon="120.90086422272891"><ele>15.5</ele><time>2026-03-22T02:49:20Z</time></trkpt><trkpt lat="24.6756483133955" lon="120.9006516518392"><ele>16.0</ele><time>2026-03-22T02:49:21Z</time></trkpt><trkpt lat="24.675470870674882" lon="120.90043442835437"><ele>16.0</ele><time>2026-03-22T02:49:22Z</time></trkpt><trkpt lat="24.675296670682172" lon="120.90021288179788"><ele>16.0</ele><time>2026-03-22T02:49:23Z</time></trkpt><trkpt lat="24.675125863181982" lon="120.89998773993608"><ele>13.5</ele><time>2026-03-22T02:49:24Z</time></trkpt><trkpt lat="24.674958791012386" lon="120.89975840982493"><ele>11.0</ele><time>2026-03-22T02:49:25Z</time></trkpt><trkpt lat="24.67479528232452" lon="120.89952465068143"><ele>11.0</ele><time>2026-03-22T02:49:26Z</time></trkpt><trkpt lat="24.67463669370951" lon="120.89928612651289"><ele>11.0</ele><time>2026-03-22T02:49:27Z</time></trkpt><trkpt lat="24.674483269335862" lon="120.89904266061862"><ele>10.5</ele><time>2026-03-22T02:49:28Z</time></trkpt><trkpt lat="24.67433491691928" lon="120.89879426430957"><ele>10.0</ele><time>2026-03-22T02:49:29Z</time></trkpt><trkpt lat="24.674191422640718" lon="120.89854172384378"><ele>11.0</ele><time>2026-03-22T02:49:30Z</time></trkpt><trkpt lat="24.674054161982745" lon="120.89828439233348"><ele>12.0</ele><time>2026-03-22T02:49:31Z</time></trkpt><trkpt lat="24.673920224542382" lon="120.89802400589663"><ele>12.0</ele><time>2026-03-22T02:49:32Z</time></trkpt><trkpt lat="24.67379023677134" lon="120.89776056239742"><ele>12.0</ele><time>2026-03-22T02:49:33Z</time></trkpt><trkpt lat="24.673668295982576" lon="120.89749157904383"><ele>12.5</ele><time>2026-03-22T02:49:34Z</time></trkpt><trkpt lat="24.67355431817087" lon="120.8972175138243"><ele>13.0</ele><time>2026-03-22T02:49:35Z</time></trkpt><trkpt lat="24.673448204925624" lon="120.89693924290053"><ele>11.5</ele><time>2026-03-22T02:49:36Z</time></trkpt><trkpt lat="24.67334646932168" lon="120.89666299718127"><ele>10.0</ele><time>2026-03-22T02:49:37Z</time></trkpt><trkpt lat="24.6732466640148" lon="120.89638807821643"><ele>10.0</ele><time>2026-03-22T02:49:38Z</time></trkpt><trkpt lat="24.67315036782297" lon="120.89611437546536"><ele>10.0</ele><time>2026-03-22T02:49:39Z</time></trkpt><trkpt lat="24.67306182577926" lon="120.89583980223537"><ele>10.0</ele><time>2026-03-22T02:49:40Z</time></trkpt><trkpt lat="24.672976971404175" lon="120.89556598771668"><ele>10.0</ele><time>2026-03-22T02:49:41Z</time></trkpt><trkpt lat="24.672899511487653" lon="120.89529062573534"><ele>10.5</ele><time>2026-03-22T02:49:42Z</time></trkpt><trkpt lat="24.67282941431742" lon="120.89501570563397"><ele>11.0</ele><time>2026-03-22T02:49:43Z</time></trkpt><trkpt lat="24.6727632141534" lon="120.89474237629739"><ele>10.5</ele><time>2026-03-22T02:49:44Z</time></trkpt><trkpt lat="24.672701674148975" lon="120.8944686299617"><ele>10.0</ele><time>2026-03-22T02:49:45Z</time></trkpt><trkpt lat="24.672643593414026" lon="120.89419768154777"><ele>10.0</ele><time>2026-03-22T02:49:46Z</time></trkpt><trkpt lat="24.672591002376436" lon="120.8939281932832"><ele>10.0</ele><time>2026-03-22T02:49:47Z</time></trkpt><trkpt lat="24.67254066947768" lon="120.89366001376331"><ele>9.5</ele><time>2026-03-22T02:49:48Z</time></trkpt><trkpt lat="24.672493167323122" lon="120.89339314870372"><ele>9.0</ele><time>2026-03-22T02:49:49Z</time></trkpt><trkpt lat="24.672446899697057" lon="120.89312651658817"><ele>9.0</ele><time>2026-03-22T02:49:50Z</time></trkpt><trkpt lat="24.67240112728537" lon="120.89286081687834"><ele>9.0</ele><time>2026-03-22T02:49:51Z</time></trkpt><trkpt lat="24.672355738839336" lon="120.89259519027746"><ele>9.0</ele><time>2026-03-22T02:49:52.001Z</time></trkpt><trkpt lat="24.672308585235506" lon="120.8923305461764"><ele>9.0</ele><time>2026-03-22T02:49:53.001Z</time></trkpt><trkpt lat="24.672260709935035" lon="120.89206615561312"><ele>9.0</ele><time>2026-03-22T02:49:54.001Z</time></trkpt><trkpt lat="24.67221061709423" lon="120.89180091734801"><ele>9.0</ele><time>2026-03-22T02:49:55.001Z</time></trkpt><trkpt lat="24.67215529491764" lon="120.89153838624608"><ele>8.5</ele><time>2026-03-22T02:49:56.001Z</time></trkpt><trkpt lat="24.672096398387392" lon="120.89127647114373"><ele>8.0</ele><time>2026-03-22T02:49:57.001Z</time></trkpt><trkpt lat="24.672033357442356" lon="120.89101534128203"><ele>8.5</ele><time>2026-03-22T02:49:58.001Z</time></trkpt><trkpt lat="24.67196573826652" lon="120.89075458435971"><ele>9.0</ele><time>2026-03-22T02:49:59.001Z</time></trkpt><trkpt lat="24.671891753075" lon="120.8904959967156"><ele>9.0</ele><time>2026-03-22T02:50:00.001Z</time></trkpt><trkpt lat="24.671808901654877" lon="120.89023983695186"><ele>9.0</ele><time>2026-03-22T02:50:01.001Z</time></trkpt><trkpt lat="24.671720203473527" lon="120.88998657838594"><ele>12.5</ele><time>2026-03-22T02:50:02.001Z</time></trkpt><trkpt lat="24.67162707032124" lon="120.88973534952495"><ele>16.0</ele><time>2026-03-22T02:50:03.001Z</time></trkpt><trkpt lat="24.67152997987126" lon="120.88948562268966"><ele>14.0</ele><time>2026-03-22T02:50:04.001Z</time></trkpt><trkpt lat="24.67142514140998" lon="120.88923891885905"><ele>12.0</ele><time>2026-03-22T02:50:05.001Z</time></trkpt><trkpt lat="24.671314355028542" lon="120.88899534262958"><ele>12.0</ele><time>2026-03-22T02:50:06.001Z</time></trkpt><trkpt lat="24.67119694526859" lon="120.88875596391097"><ele>12.0</ele><time>2026-03-22T02:50:07.001Z</time></trkpt><trkpt lat="24.671073838553795" lon="120.88852056319361"><ele>9.5</ele><time>2026-03-22T02:50:08Z</time></trkpt><trkpt lat="24.67094707853126" lon="120.88828744146095"><ele>7.0</ele><time>2026-03-22T02:50:09Z</time></trkpt><trkpt lat="24.670817849460395" lon="120.88805582863957"><ele>7.0</ele><time>2026-03-22T02:50:10Z</time></trkpt><trkpt lat="24.670683423181075" lon="120.88782781755086"><ele>7.0</ele><time>2026-03-22T02:50:11Z</time></trkpt><trkpt lat="24.670543205451633" lon="120.8876043655388"><ele>7.5</ele><time>2026-03-22T02:50:12Z</time></trkpt><trkpt lat="24.670399186998672" lon="120.8873834435422"><ele>8.0</ele><time>2026-03-22T02:50:13Z</time></trkpt><trkpt lat="24.670249444324153" lon="120.88716681628986"><ele>8.0</ele><time>2026-03-22T02:50:14Z</time></trkpt><trkpt lat="24.67009495160886" lon="120.88695502855823"><ele>8.0</ele><time>2026-03-22T02:50:15Z</time></trkpt><trkpt lat="24.66993693834226" lon="120.88674697367696"><ele>9.5</ele><time>2026-03-22T02:50:16Z</time></trkpt><trkpt lat="24.669773916225818" lon="120.88654240587577"><ele>11.0</ele><time>2026-03-22T02:50:17Z</time></trkpt><trkpt lat="24.66960598465475" lon="120.88634250416611"><ele>9.0</ele><time>2026-03-22T02:50:18Z</time></trkpt><trkpt lat="24.6694336398989" lon="120.88614713301943"><ele>7.0</ele><time>2026-03-22T02:50:19Z</time></trkpt><trkpt lat="24.669256209452822" lon="120.88595749214845"><ele>8.5</ele><time>2026-03-22T02:50:20Z</time></trkpt><trkpt lat="24.66907465782513" lon="120.88577245819232"><ele>10.0</ele><time>2026-03-22T02:50:21Z</time></trkpt><trkpt lat="24.66888979096291" lon="120.88559161339336"><ele>10.0</ele><time>2026-03-22T02:50:22Z</time></trkpt><trkpt lat="24.668699429003844" lon="120.88541797197223"><ele>10.0</ele><time>2026-03-22T02:50:23Z</time></trkpt><trkpt lat="24.668502683979337" lon="120.88525200498104"><ele>8.0</ele><time>2026-03-22T02:50:24Z</time></trkpt><trkpt lat="24.6683012939629" lon="120.885093250129"><ele>6.0</ele><time>2026-03-22T02:50:25Z</time></trkpt><trkpt lat="24.668095132332304" lon="120.88494180277618"><ele>6.0</ele><time>2026-03-22T02:50:26Z</time></trkpt><trkpt lat="24.66788581910535" lon="120.88479594518434"><ele>6.0</ele><time>2026-03-22T02:50:27Z</time></trkpt><trkpt lat="24.667672614679923" lon="120.88465587571464"><ele>4.0</ele><time>2026-03-22T02:50:28Z</time></trkpt><trkpt lat="24.66745658826561" lon="120.8845229812412"><ele>2.0</ele><time>2026-03-22T02:50:29Z</time></trkpt><trkpt lat="24.667236858184626" lon="120.88439667289848"><ele>2.0</ele><time>2026-03-22T02:50:30Z</time></trkpt><trkpt lat="24.667012670542334" lon="120.88427772378296"><ele>2.0</ele><time>2026-03-22T02:50:31Z</time></trkpt><trkpt lat="24.666784589791078" lon="120.88416715136374"><ele>4.0</ele><time>2026-03-22T02:50:32Z</time></trkpt><trkpt lat="24.666554083452812" lon="120.88406328600092"><ele>6.0</ele><time>2026-03-22T02:50:33Z</time></trkpt><trkpt lat="24.6663211179215" lon="120.88396780083973"><ele>8.5</ele><time>2026-03-22T02:50:34Z</time></trkpt><trkpt lat="24.666085254020416" lon="120.88388083941737"><ele>11.0</ele><time>2026-03-22T02:50:35Z</time></trkpt><trkpt lat="24.665847329042414" lon="120.88380065082232"><ele>11.0</ele><time>2026-03-22T02:50:36Z</time></trkpt><trkpt lat="24.665607177182594" lon="120.88372784256359"><ele>11.0</ele><time>2026-03-22T02:50:37Z</time></trkpt><trkpt lat="24.66536511879126" lon="120.88366187102086"><ele>17.5</ele><time>2026-03-22T02:50:38Z</time></trkpt><trkpt lat="24.665121796840435" lon="120.88360107468388"><ele>24.0</ele><time>2026-03-22T02:50:39Z</time></trkpt><trkpt lat="24.66487866711422" lon="120.88354380947348"><ele>24.0</ele><time>2026-03-22T02:50:40Z</time></trkpt><trkpt lat="24.664635772201883" lon="120.88348473179158"><ele>24.0</ele><time>2026-03-22T02:50:41Z</time></trkpt><trkpt lat="24.664391625872476" lon="120.88342864199964"><ele>22.5</ele><time>2026-03-22T02:50:42Z</time></trkpt><trkpt lat="24.664148354104036" lon="120.88337350600622"><ele>21.0</ele><time>2026-03-22T02:50:43Z</time></trkpt><trkpt lat="24.66390484708069" lon="120.88331698105708"><ele>21.0</ele><time>2026-03-22T02:50:44Z</time></trkpt><trkpt lat="24.66366179007395" lon="120.88326046742964"><ele>21.0</ele><time>2026-03-22T02:50:45Z</time></trkpt><trkpt lat="24.66341876194762" lon="120.88320470707205"><ele>23.0</ele><time>2026-03-22T02:50:46Z</time></trkpt><trkpt lat="24.663175874661857" lon="120.88314981455781"><ele>25.0</ele><time>2026-03-22T02:50:47Z</time></trkpt><trkpt lat="24.662932617371673" lon="120.8830960304518"><ele>25.0</ele><time>2026-03-22T02:50:48Z</time></trkpt><trkpt lat="24.66268899481429" lon="120.88304376498026"><ele>25.0</ele><time>2026-03-22T02:50:49Z</time></trkpt><trkpt lat="24.662445216408027" lon="120.88298957707579"><ele>25.0</ele><time>2026-03-22T02:50:50Z</time></trkpt><trkpt lat="24.66220097808984" lon="120.88294038027917"><ele>25.0</ele><time>2026-03-22T02:50:51Z</time></trkpt><trkpt lat="24.661955927367867" lon="120.88289396437423"><ele>24.5</ele><time>2026-03-22T02:50:52Z</time></trkpt><trkpt lat="24.661710466497436" lon="120.88284989471151"><ele>24.0</ele><time>2026-03-22T02:50:53Z</time></trkpt><trkpt lat="24.661464690547163" lon="120.88280905627309"><ele>24.0</ele><time>2026-03-22T02:50:54Z</time></trkpt><trkpt lat="24.66121879271024" lon="120.88276860248692"><ele>24.0</ele><time>2026-03-22T02:50:55Z</time></trkpt><trkpt lat="24.660972884290917" lon="120.88272527271165"><ele>23.5</ele><time>2026-03-22T02:50:56Z</time></trkpt><trkpt lat="24.660727626541412" lon="120.88268018188002"><ele>23.0</ele><time>2026-03-22T02:50:57Z</time></trkpt><trkpt lat="24.660481471748312" lon="120.88263624653223"><ele>20.0</ele><time>2026-03-22T02:50:58Z</time></trkpt><trkpt lat="24.66023521429877" lon="120.88259417726792"><ele>17.0</ele><time>2026-03-22T02:50:59Z</time></trkpt><trkpt lat="24.659988298056106" lon="120.88255386360805"><ele>17.0</ele><time>2026-03-22T02:51:00Z</time></trkpt><trkpt lat="24.659742607898295" lon="120.88251406803873"><ele>17.0</ele><time>2026-03-22T02:51:01Z</time></trkpt><trkpt lat="24.65949755209786" lon="120.88247463540542"><ele>17.5</ele><time>2026-03-22T02:51:02Z</time></trkpt><trkpt lat="24.659252068397137" lon="120.88243402136304"><ele>18.0</ele><time>2026-03-22T02:51:03Z</time></trkpt><trkpt lat="24.659006721590853" lon="120.88239226173367"><ele>18.0</ele><time>2026-03-22T02:51:04Z</time></trkpt><trkpt lat="24.658761223566398" lon="120.8823495836379"><ele>18.0</ele><time>2026-03-22T02:51:05Z</time></trkpt><trkpt lat="24.65851616885976" lon="120.8823047786815"><ele>17.5</ele><time>2026-03-22T02:51:06Z</time></trkpt><trkpt lat="24.658270715222944" lon="120.8822577473413"><ele>17.0</ele><time>2026-03-22T02:51:07Z</time></trkpt><trkpt lat="24.658025613166377" lon="120.88220952126751"><ele>17.5</ele><time>2026-03-22T02:51:08Z</time></trkpt><trkpt lat="24.657780334320986" lon="120.88216155354077"><ele>18.0</ele><time>2026-03-22T02:51:09Z</time></trkpt><trkpt lat="24.65753515907809" lon="120.88211108535272"><ele>18.0</ele><time>2026-03-22T02:51:10Z</time></trkpt><trkpt lat="24.65729111063836" lon="120.8820575796263"><ele>18.0</ele><time>2026-03-22T02:51:11Z</time></trkpt><trkpt lat="24.65704798868447" lon="120.88200058683309"><ele>20.0</ele><time>2026-03-22T02:51:12Z</time></trkpt><trkpt lat="24.656805826525126" lon="120.88194100726918"><ele>22.0</ele><time>2026-03-22T02:51:13Z</time></trkpt><trkpt lat="24.65656274247641" lon="120.88187767851946"><ele>22.0</ele><time>2026-03-22T02:51:14Z</time></trkpt><trkpt lat="24.65631808063569" lon="120.88181373016131"><ele>22.0</ele><time>2026-03-22T02:51:15Z</time></trkpt><trkpt lat="24.65607188852748" lon="120.88174801264454"><ele>21.5</ele><time>2026-03-22T02:51:16Z</time></trkpt><trkpt lat="24.65582405531362" lon="120.88167820440181"><ele>21.0</ele><time>2026-03-22T02:51:17Z</time></trkpt><trkpt lat="24.655574536541273" lon="120.8816059632476"><ele>21.0</ele><time>2026-03-22T02:51:18Z</time></trkpt><trkpt lat="24.655323181208153" lon="120.8815296986663"><ele>21.0</ele><time>2026-03-22T02:51:19Z</time></trkpt><trkpt lat="24.655068916557962" lon="120.88145145496605"><ele>18.5</ele><time>2026-03-22T02:51:20Z</time></trkpt><trkpt lat="24.65481298274146" lon="120.8813713755498"><ele>16.0</ele><time>2026-03-22T02:51:21Z</time></trkpt><trkpt lat="24.654555461678598" lon="120.88128802963126"><ele>16.5</ele><time>2026-03-22T02:51:22Z</time></trkpt><trkpt lat="24.65429603674266" lon="120.88120364938767"><ele>17.0</ele><time>2026-03-22T02:51:23Z</time></trkpt><trkpt lat="24.654036221088994" lon="120.88111408243643"><ele>17.0</ele><time>2026-03-22T02:51:24Z</time></trkpt><trkpt lat="24.65377713464608" lon="120.88102041928367"><ele>17.0</ele><time>2026-03-22T02:51:25Z</time></trkpt><trkpt lat="24.65352258912258" lon="120.88092143745985"><ele>15.5</ele><time>2026-03-22T02:51:26Z</time></trkpt><trkpt lat="24.653269293428533" lon="120.88081750291565"><ele>14.0</ele><time>2026-03-22T02:51:27Z</time></trkpt><trkpt lat="24.653018644829494" lon="120.8807098057104"><ele>12.5</ele><time>2026-03-22T02:51:28Z</time></trkpt><trkpt lat="24.652771032095632" lon="120.88059931090598"><ele>11.0</ele><time>2026-03-22T02:51:29Z</time></trkpt><trkpt lat="24.6525249266801" lon="120.88048523774539"><ele>11.0</ele><time>2026-03-22T02:51:30Z</time></trkpt><trkpt lat="24.652281714144014" lon="120.880367787651"><ele>11.0</ele><time>2026-03-22T02:51:31Z</time></trkpt><trkpt lat="24.652043953312766" lon="120.88024662500054"><ele>12.0</ele><time>2026-03-22T02:51:32Z</time></trkpt><trkpt lat="24.65180769960372" lon="120.88012075786726"><ele>13.0</ele><time>2026-03-22T02:51:33Z</time></trkpt><trkpt lat="24.651572586125383" lon="120.8799892640588"><ele>13.0</ele><time>2026-03-22T02:51:34Z</time></trkpt><trkpt lat="24.651338913264834" lon="120.87985207607308"><ele>13.0</ele><time>2026-03-22T02:51:35Z</time></trkpt><trkpt lat="24.651105657165903" lon="120.87970957518198"><ele>14.0</ele><time>2026-03-22T02:51:36Z</time></trkpt><trkpt lat="24.650874835396106" lon="120.87956063648238"><ele>15.0</ele><time>2026-03-22T02:51:37Z</time></trkpt><trkpt lat="24.65064624737606" lon="120.8794056066418"><ele>14.0</ele><time>2026-03-22T02:51:38Z</time></trkpt><trkpt lat="24.65041932019166" lon="120.87924559259567"><ele>13.0</ele><time>2026-03-22T02:51:39Z</time></trkpt><trkpt lat="24.650194421735247" lon="120.8790805290475"><ele>13.0</ele><time>2026-03-22T02:51:40Z</time></trkpt><trkpt lat="24.649971414397182" lon="120.87891033923908"><ele>13.0</ele><time>2026-03-22T02:51:41Z</time></trkpt><trkpt lat="24.649752523561002" lon="120.87873123973787"><ele>13.0</ele><time>2026-03-22T02:51:42Z</time></trkpt><trkpt lat="24.64954004594262" lon="120.87854298921344"><ele>13.0</ele><time>2026-03-22T02:51:43Z</time></trkpt><trkpt lat="24.649331887238077" lon="120.8783468160851"><ele>11.0</ele><time>2026-03-22T02:51:44Z</time></trkpt><trkpt lat="24.64912436748585" lon="120.87814820234877"><ele>9.0</ele><time>2026-03-22T02:51:45Z</time></trkpt><trkpt lat="24.64891889218005" lon="120.87794717978015"><ele>9.0</ele><time>2026-03-22T02:51:46Z</time></trkpt><trkpt lat="24.648713494911846" lon="120.87774717610425"><ele>9.0</ele><time>2026-03-22T02:51:47Z</time></trkpt><trkpt lat="24.64851486383463" lon="120.87754552606528"><ele>10.5</ele><time>2026-03-22T02:51:48Z</time></trkpt><trkpt lat="24.64832063417917" lon="120.87734393058567"><ele>12.0</ele><time>2026-03-22T02:51:49Z</time></trkpt><trkpt lat="24.648131039120116" lon="120.87714201048504"><ele>12.0</ele><time>2026-03-22T02:51:50Z</time></trkpt><trkpt lat="24.647947310374885" lon="120.87693683659586"><ele>12.0</ele><time>2026-03-22T02:51:51Z</time></trkpt><trkpt lat="24.64776605175474" lon="120.87673361221798"><ele>10.0</ele><time>2026-03-22T02:51:52Z</time></trkpt><trkpt lat="24.647587431295854" lon="120.8765311270333"><ele>8.0</ele><time>2026-03-22T02:51:53Z</time></trkpt><trkpt lat="24.64741034372205" lon="120.87633039436174"><ele>8.0</ele><time>2026-03-22T02:51:54Z</time></trkpt><trkpt lat="24.647234673059586" lon="120.87613248955397"><ele>8.0</ele><time>2026-03-22T02:51:55Z</time></trkpt><trkpt lat="24.647060003455298" lon="120.87593670859003"><ele>8.5</ele><time>2026-03-22T02:51:56.001Z</time></trkpt><trkpt lat="24.64688802229398" lon="120.87574148204091"><ele>9.0</ele><time>2026-03-22T02:51:57.001Z</time></trkpt><trkpt lat="24.646715173825726" lon="120.87554788558276"><ele>9.0</ele><time>2026-03-22T02:51:58.001Z</time></trkpt><trkpt lat="24.64654355006491" lon="120.87535353570544"><ele>9.0</ele><time>2026-03-22T02:51:59.001Z</time></trkpt><trkpt lat="24.646372281937232" lon="120.87515917277324"><ele>10.0</ele><time>2026-03-22T02:52:00.001Z</time></trkpt><trkpt lat="24.646200922275085" lon="120.87496525960975"><ele>11.0</ele><time>2026-03-22T02:52:01.001Z</time></trkpt><trkpt lat="24.646029289119635" lon="120.87477129157915"><ele>12.5</ele><time>2026-03-22T02:52:02.001Z</time></trkpt><trkpt lat="24.645856401121062" lon="120.87457654215892"><ele>14.0</ele><time>2026-03-22T02:52:03.001Z</time></trkpt><trkpt lat="24.645682494384786" lon="120.8743824440127"><ele>12.5</ele><time>2026-03-22T02:52:04.001Z</time></trkpt><trkpt lat="24.645507990415172" lon="120.87418856952921"><ele>11.0</ele><time>2026-03-22T02:52:05.001Z</time></trkpt><trkpt lat="24.64533330773368" lon="120.87399428988476"><ele>11.5</ele><time>2026-03-22T02:52:06.001Z</time></trkpt><trkpt lat="24.64515935400957" lon="120.87380027430792"><ele>12.0</ele><time>2026-03-22T02:52:07.001Z</time></trkpt><trkpt lat="24.644985602986388" lon="120.87360630602093"><ele>10.0</ele><time>2026-03-22T02:52:08.001Z</time></trkpt><trkpt lat="24.644811820535814" lon="120.8734110396176"><ele>8.0</ele><time>2026-03-22T02:52:09.001Z</time></trkpt><trkpt lat="24.644638276823706" lon="120.87321504658503"><ele>8.0</ele><time>2026-03-22T02:52:10.001Z</time></trkpt><trkpt lat="24.644464836888545" lon="120.87301833251408"><ele>8.0</ele><time>2026-03-22T02:52:11.001Z</time></trkpt><trkpt lat="24.644290227311267" lon="120.87282243677623"><ele>10.0</ele><time>2026-03-22T02:52:12.001Z</time></trkpt><trkpt lat="24.644115241259556" lon="120.87262693583584"><ele>12.0</ele><time>2026-03-22T02:52:13.001Z</time></trkpt><trkpt lat="24.643940918071504" lon="120.87243147145976"><ele>12.0</ele><time>2026-03-22T02:52:14.001Z</time></trkpt><trkpt lat="24.643767829521725" lon="120.87223415194194"><ele>12.0</ele><time>2026-03-22T02:52:15Z</time></trkpt><trkpt lat="24.6435945369183" lon="120.87203669943804"><ele>11.5</ele><time>2026-03-22T02:52:16Z</time></trkpt><trkpt lat="24.64341998338233" lon="120.87184023092601"><ele>11.0</ele><time>2026-03-22T02:52:17Z</time></trkpt><trkpt lat="24.643244839016237" lon="120.87164528922817"><ele>11.0</ele><time>2026-03-22T02:52:18Z</time></trkpt><trkpt lat="24.643070551828618" lon="120.87144998473262"><ele>11.0</ele><time>2026-03-22T02:52:19Z</time></trkpt><trkpt lat="24.642896444468388" lon="120.87125431545806"><ele>14.5</ele><time>2026-03-22T02:52:20Z</time></trkpt><trkpt lat="24.64272200109365" lon="120.87105950313854"><ele>18.0</ele><time>2026-03-22T02:52:21Z</time></trkpt><trkpt lat="24.64254865813768" lon="120.87086452272327"><ele>18.0</ele><time>2026-03-22T02:52:22Z</time></trkpt><trkpt lat="24.642375979011447" lon="120.87066900878779"><ele>18.0</ele><time>2026-03-22T02:52:23Z</time></trkpt><trkpt lat="24.642203601514478" lon="120.87047407354224"><ele>18.0</ele><time>2026-03-22T02:52:24Z</time></trkpt><trkpt lat="24.642031586758403" lon="120.87027910979465"><ele>18.0</ele><time>2026-03-22T02:52:25Z</time></trkpt><trkpt lat="24.64185978049995" lon="120.87008365340279"><ele>20.5</ele><time>2026-03-22T02:52:26Z</time></trkpt><trkpt lat="24.6416889719942" lon="120.8698886467707"><ele>23.0</ele><time>2026-03-22T02:52:27Z</time></trkpt><trkpt lat="24.641517573767004" lon="120.86969480535056"><ele>23.0</ele><time>2026-03-22T02:52:28Z</time></trkpt><trkpt lat="24.64134625874704" lon="120.86950108587844"><ele>23.0</ele><time>2026-03-22T02:52:29Z</time></trkpt><trkpt lat="24.641172437690418" lon="120.86930939432077"><ele>19.5</ele><time>2026-03-22T02:52:30Z</time></trkpt><trkpt lat="24.64099583800735" lon="120.86912170383276"><ele>16.0</ele><time>2026-03-22T02:52:31Z</time></trkpt><trkpt lat="24.640816938200416" lon="120.86893523845517"><ele>16.0</ele><time>2026-03-22T02:52:32Z</time></trkpt><trkpt lat="24.640637790853205" lon="120.86874937669052"><ele>16.0</ele><time>2026-03-22T02:52:33Z</time></trkpt><trkpt lat="24.640456555014516" lon="120.8685651381606"><ele>18.0</ele><time>2026-03-22T02:52:34Z</time></trkpt><trkpt lat="24.640273723491596" lon="120.86838360340174"><ele>20.0</ele><time>2026-03-22T02:52:35Z</time></trkpt><trkpt lat="24.640088105304027" lon="120.86820326118388"><ele>20.0</ele><time>2026-03-22T02:52:36Z</time></trkpt><trkpt lat="24.63989898584249" lon="120.86802691498461"><ele>20.0</ele><time>2026-03-22T02:52:37Z</time></trkpt><trkpt lat="24.63970558164375" lon="120.86785592359765"><ele>20.0</ele><time>2026-03-22T02:52:38Z</time></trkpt><trkpt lat="24.6395086089535" lon="120.86769005299747"><ele>20.0</ele><time>2026-03-22T02:52:39Z</time></trkpt><trkpt lat="24.639309864859346" lon="120.86752604395741"><ele>19.5</ele><time>2026-03-22T02:52:40Z</time></trkpt><trkpt lat="24.639106146633587" lon="120.8673690156939"><ele>19.0</ele><time>2026-03-22T02:52:41Z</time></trkpt><trkpt lat="24.638897141761962" lon="120.86722076922248"><ele>19.0</ele><time>2026-03-22T02:52:42Z</time></trkpt><trkpt lat="24.638684588833808" lon="120.86707827514718"><ele>19.0</ele><time>2026-03-22T02:52:43Z</time></trkpt><trkpt lat="24.638468360752416" lon="120.86694304405408"><ele>20.5</ele><time>2026-03-22T02:52:44Z</time></trkpt><trkpt lat="24.638247576217204" lon="120.8668159538162"><ele>22.0</ele><time>2026-03-22T02:52:45Z</time></trkpt><trkpt lat="24.638024842511317" lon="120.86669516648438"><ele>24.0</ele><time>2026-03-22T02:52:46Z</time></trkpt><trkpt lat="24.63779866577502" lon="120.86657894360462"><ele>26.0</ele><time>2026-03-22T02:52:47Z</time></trkpt><trkpt lat="24.63756877877196" lon="120.86647297340721"><ele>26.0</ele><time>2026-03-22T02:52:48Z</time></trkpt><trkpt lat="24.637336031676" lon="120.86637385085089"><ele>26.0</ele><time>2026-03-22T02:52:49Z</time></trkpt><trkpt lat="24.637101267934515" lon="120.86628199123041"><ele>29.0</ele><time>2026-03-22T02:52:50Z</time></trkpt><trkpt lat="24.636862734440808" lon="120.86619885481042"><ele>32.0</ele><time>2026-03-22T02:52:51Z</time></trkpt><trkpt lat="24.63662297201489" lon="120.866124243273"><ele>32.0</ele><time>2026-03-22T02:52:52Z</time></trkpt><trkpt lat="24.636381197089964" lon="120.86605578660406"><ele>32.0</ele><time>2026-03-22T02:52:53Z</time></trkpt><trkpt lat="24.636137209269613" lon="120.86599764162601"><ele>33.0</ele><time>2026-03-22T02:52:54Z</time></trkpt><trkpt lat="24.635891383554526" lon="120.86594667564502"><ele>34.0</ele><time>2026-03-22T02:52:55Z</time></trkpt><trkpt lat="24.635643908003804" lon="120.86590362216349"><ele>27.5</ele><time>2026-03-22T02:52:56Z</time></trkpt><trkpt lat="24.635395547452493" lon="120.86587075014778"><ele>21.0</ele><time>2026-03-22T02:52:57Z</time></trkpt><trkpt lat="24.63514659625015" lon="120.86584575793513"><ele>21.0</ele><time>2026-03-22T02:52:58Z</time></trkpt><trkpt lat="24.63489666331109" lon="120.8658288389268"><ele>21.0</ele><time>2026-03-22T02:52:59Z</time></trkpt><trkpt lat="24.634647017010664" lon="120.86581906252754"><ele>20.5</ele><time>2026-03-22T02:53:00Z</time></trkpt><trkpt lat="24.634397036167453" lon="120.86581616363424"><ele>20.0</ele><time>2026-03-22T02:53:01Z</time></trkpt><trkpt lat="24.634145839218004" lon="120.86582140770615"><ele>20.0</ele><time>2026-03-22T02:53:02Z</time></trkpt><trkpt lat="24.63389590861397" lon="120.86583496898864"><ele>20.0</ele><time>2026-03-22T02:53:03Z</time></trkpt><trkpt lat="24.633646305204653" lon="120.86585866562577"><ele>20.0</ele><time>2026-03-22T02:53:04Z</time></trkpt><trkpt lat="24.633396824393554" lon="120.86589202893916"><ele>20.0</ele><time>2026-03-22T02:53:05Z</time></trkpt><trkpt lat="24.63314899707887" lon="120.86593333017458"><ele>22.0</ele><time>2026-03-22T02:53:06Z</time></trkpt><trkpt lat="24.632901504086004" lon="120.8659805982846"><ele>24.0</ele><time>2026-03-22T02:53:07Z</time></trkpt><trkpt lat="24.63265488380693" lon="120.86603457066727"><ele>24.0</ele><time>2026-03-22T02:53:08Z</time></trkpt><trkpt lat="24.63240969183531" lon="120.86609283191352"><ele>24.0</ele><time>2026-03-22T02:53:09Z</time></trkpt><trkpt lat="24.632165591013017" lon="120.86615654952243"><ele>22.0</ele><time>2026-03-22T02:53:10Z</time></trkpt><trkpt lat="24.631922349045137" lon="120.86622474766003"><ele>20.0</ele><time>2026-03-22T02:53:11Z</time></trkpt><trkpt lat="24.63167970925684" lon="120.86629594317863"><ele>20.0</ele><time>2026-03-22T02:53:12Z</time></trkpt><trkpt lat="24.631437258389038" lon="120.8663691230225"><ele>20.0</ele><time>2026-03-22T02:53:13Z</time></trkpt><trkpt lat="24.631195107651752" lon="120.86644145527377"><ele>19.0</ele><time>2026-03-22T02:53:14Z</time></trkpt><trkpt lat="24.630953972178595" lon="120.86651583961938"><ele>18.0</ele><time>2026-03-22T02:53:15Z</time></trkpt><trkpt lat="24.63071383503021" lon="120.86659170006021"><ele>18.0</ele><time>2026-03-22T02:53:16Z</time></trkpt><trkpt lat="24.63047386699953" lon="120.86666470771932"><ele>18.0</ele><time>2026-03-22T02:53:17Z</time></trkpt><trkpt lat="24.630233402331715" lon="120.86673378111657"><ele>20.5</ele><time>2026-03-22T02:53:18Z</time></trkpt><trkpt lat="24.629992975479524" lon="120.86679921910928"><ele>23.0</ele><time>2026-03-22T02:53:19Z</time></trkpt><trkpt lat="24.629751459446574" lon="120.86686267565139"><ele>23.0</ele><time>2026-03-22T02:53:20Z</time></trkpt><trkpt lat="24.62950890561222" lon="120.86692177768575"><ele>23.0</ele><time>2026-03-22T02:53:21Z</time></trkpt><trkpt lat="24.62926582651891" lon="120.86697752013636"><ele>23.0</ele><time>2026-03-22T02:53:22Z</time></trkpt><trkpt lat="24.629022736587164" lon="120.86702838756717"><ele>23.0</ele><time>2026-03-22T02:53:23Z</time></trkpt><trkpt lat="24.628778512326225" lon="120.86707352502744"><ele>23.5</ele><time>2026-03-22T02:53:24Z</time></trkpt><trkpt lat="24.62853433030613" lon="120.867112252338"><ele>24.0</ele><time>2026-03-22T02:53:25Z</time></trkpt><trkpt lat="24.62828937320643" lon="120.86714565474308"><ele>24.0</ele><time>2026-03-22T02:53:26Z</time></trkpt><trkpt lat="24.6280455337253" lon="120.86717233862504"><ele>24.0</ele><time>2026-03-22T02:53:27Z</time></trkpt><trkpt lat="24.627801511123153" lon="120.86719437451379"><ele>22.0</ele><time>2026-03-22T02:53:28Z</time></trkpt><trkpt lat="24.62755653532952" lon="120.86721107206648"><ele>20.0</ele><time>2026-03-22T02:53:29Z</time></trkpt><trkpt lat="24.6273099081181" lon="120.8672243524592"><ele>20.0</ele><time>2026-03-22T02:53:30Z</time></trkpt><trkpt lat="24.627063547117466" lon="120.86723258442866"><ele>20.0</ele><time>2026-03-22T02:53:31Z</time></trkpt><trkpt lat="24.626815899593666" lon="120.86723615661649"><ele>20.5</ele><time>2026-03-22T02:53:32Z</time></trkpt><trkpt lat="24.62656842688716" lon="120.86723446297931"><ele>21.0</ele><time>2026-03-22T02:53:33Z</time></trkpt><trkpt lat="24.626320379418594" lon="120.86722417179556"><ele>22.0</ele><time>2026-03-22T02:53:34Z</time></trkpt><trkpt lat="24.626073738141645" lon="120.86720741013444"><ele>23.0</ele><time>2026-03-22T02:53:35Z</time></trkpt><trkpt lat="24.625826666937176" lon="120.86718713315895"><ele>23.0</ele><time>2026-03-22T02:53:36Z</time></trkpt><trkpt lat="24.625579755155446" lon="120.8671612809169"><ele>23.0</ele><time>2026-03-22T02:53:37Z</time></trkpt><trkpt lat="24.625333059225174" lon="120.86713098781567"><ele>25.0</ele><time>2026-03-22T02:53:38Z</time></trkpt><trkpt lat="24.625087645836825" lon="120.86709643911904"><ele>27.0</ele><time>2026-03-22T02:53:39Z</time></trkpt><trkpt lat="24.624841642835296" lon="120.86705647368596"><ele>27.0</ele><time>2026-03-22T02:53:40Z</time></trkpt><trkpt lat="24.624597508348483" lon="120.86701072823817"><ele>27.0</ele><time>2026-03-22T02:53:41Z</time></trkpt><trkpt lat="24.624353338291062" lon="120.8669589157864"><ele>27.0</ele><time>2026-03-22T02:53:42Z</time></trkpt><trkpt lat="24.624109364638915" lon="120.86690266741732"><ele>27.0</ele><time>2026-03-22T02:53:43Z</time></trkpt><trkpt lat="24.62386677519823" lon="120.8668414815475"><ele>35.5</ele><time>2026-03-22T02:53:44Z</time></trkpt><trkpt lat="24.62362535890012" lon="120.86677486812016"><ele>44.0</ele><time>2026-03-22T02:53:45Z</time></trkpt><trkpt lat="24.62338542066312" lon="120.86670157899944"><ele>44.0</ele><time>2026-03-22T02:53:46Z</time></trkpt><trkpt lat="24.62314644107936" lon="120.86662438948716"><ele>44.0</ele><time>2026-03-22T02:53:47Z</time></trkpt><trkpt lat="24.62290961174711" lon="120.86654099213578"><ele>43.5</ele><time>2026-03-22T02:53:48Z</time></trkpt><trkpt lat="24.62267477970394" lon="120.86645124655782"><ele>43.0</ele><time>2026-03-22T02:53:49Z</time></trkpt><trkpt lat="24.62244001383822" lon="120.86635761089462"><ele>43.0</ele><time>2026-03-22T02:53:50Z</time></trkpt><trkpt lat="24.622208010215047" lon="120.86625922525826"><ele>43.0</ele><time>2026-03-22T02:53:51Z</time></trkpt><trkpt lat="24.621977467486445" lon="120.86615633297423"><ele>44.0</ele><time>2026-03-22T02:53:52Z</time></trkpt><trkpt lat="24.62174847986762" lon="120.8660482304244"><ele>45.0</ele><time>2026-03-22T02:53:53Z</time></trkpt><trkpt lat="24.621521328427953" lon="120.86593581429355"><ele>45.0</ele><time>2026-03-22T02:53:54Z</time></trkpt><trkpt lat="24.621296319829245" lon="120.86581701122648"><ele>45.0</ele><time>2026-03-22T02:53:55Z</time></trkpt><trkpt lat="24.621073505987177" lon="120.86569283812364"><ele>39.5</ele><time>2026-03-22T02:53:56Z</time></trkpt><trkpt lat="24.620851992516894" lon="120.86556532314681"><ele>34.0</ele><time>2026-03-22T02:53:57Z</time></trkpt><trkpt lat="24.620632619702132" lon="120.86543536710116"><ele>34.0</ele><time>2026-03-22T02:53:58Z</time></trkpt><trkpt lat="24.620415238028645" lon="120.86530457276237"><ele>34.0</ele><time>2026-03-22T02:53:59Z</time></trkpt><trkpt lat="24.620197604521874" lon="120.86517114151721"><ele>37.0</ele><time>2026-03-22T02:54:00Z</time></trkpt><trkpt lat="24.619981123237988" lon="120.86503627589785"><ele>40.0</ele><time>2026-03-22T02:54:01Z</time></trkpt><trkpt lat="24.619765500752912" lon="120.86490094259402"><ele>40.0</ele><time>2026-03-22T02:54:02Z</time></trkpt><trkpt lat="24.619548588472274" lon="120.86476784138888"><ele>40.0</ele><time>2026-03-22T02:54:03Z</time></trkpt><trkpt lat="24.619331050780957" lon="120.86463541687672"><ele>35.0</ele><time>2026-03-22T02:54:04.001Z</time></trkpt><trkpt lat="24.619111816451397" lon="120.86450459832697"><ele>30.0</ele><time>2026-03-22T02:54:05.001Z</time></trkpt><trkpt lat="24.618889849505187" lon="120.86437749356847"><ele>33.0</ele><time>2026-03-22T02:54:06.001Z</time></trkpt><trkpt lat="24.618665656361266" lon="120.86425691235999"><ele>36.0</ele><time>2026-03-22T02:54:07.001Z</time></trkpt><trkpt lat="24.61843878641384" lon="120.86414125859812"><ele>36.0</ele><time>2026-03-22T02:54:08.001Z</time></trkpt><trkpt lat="24.618208951063572" lon="120.86403535296047"><ele>36.0</ele><time>2026-03-22T02:54:09.001Z</time></trkpt><trkpt lat="24.617975700707632" lon="120.86393737825513"><ele>35.0</ele><time>2026-03-22T02:54:10.001Z</time></trkpt><trkpt lat="24.61774042320693" lon="120.8638472514983"><ele>34.0</ele><time>2026-03-22T02:54:11.001Z</time></trkpt><trkpt lat="24.617502196423274" lon="120.86376630506791"><ele>34.0</ele><time>2026-03-22T02:54:12.001Z</time></trkpt><trkpt lat="24.617262779183935" lon="120.8636953788391"><ele>34.0</ele><time>2026-03-22T02:54:13.001Z</time></trkpt><trkpt lat="24.61702436081928" lon="120.86363217799821"><ele>32.5</ele><time>2026-03-22T02:54:14Z</time></trkpt><trkpt lat="24.616784483256183" lon="120.86357871997711"><ele>31.0</ele><time>2026-03-22T02:54:15Z</time></trkpt><trkpt lat="24.61654337743729" lon="120.86353342012856"><ele>31.0</ele><time>2026-03-22T02:54:16Z</time></trkpt><trkpt lat="24.616299834151423" lon="120.86349878447433"><ele>31.0</ele><time>2026-03-22T02:54:17Z</time></trkpt><trkpt lat="24.616053593158107" lon="120.86347171311235"><ele>35.0</ele><time>2026-03-22T02:54:18Z</time></trkpt><trkpt lat="24.615805614108353" lon="120.86345464875154"><ele>39.0</ele><time>2026-03-22T02:54:19Z</time></trkpt><trkpt lat="24.6155563862731" lon="120.8634480842485"><ele>43.5</ele><time>2026-03-22T02:54:20Z</time></trkpt><trkpt lat="24.615306495638222" lon="120.86345337268612"><ele>48.0</ele><time>2026-03-22T02:54:21Z</time></trkpt><trkpt lat="24.615056192126197" lon="120.86346981510962"><ele>48.0</ele><time>2026-03-22T02:54:22Z</time></trkpt><trkpt lat="24.614805481037997" lon="120.86349609712103"><ele>48.0</ele><time>2026-03-22T02:54:23Z</time></trkpt><trkpt lat="24.614554767675912" lon="120.86353093048965"><ele>52.0</ele><time>2026-03-22T02:54:24Z</time></trkpt><trkpt lat="24.614304239949146" lon="120.86357534790596"><ele>56.0</ele><time>2026-03-22T02:54:25Z</time></trkpt><trkpt lat="24.614054077421077" lon="120.86362337751964"><ele>56.0</ele><time>2026-03-22T02:54:26Z</time></trkpt><trkpt lat="24.613804253357408" lon="120.86367865450256"><ele>56.0</ele><time>2026-03-22T02:54:27Z</time></trkpt><trkpt lat="24.61355484235032" lon="120.86374065266544"><ele>56.5</ele><time>2026-03-22T02:54:28Z</time></trkpt><trkpt lat="24.613306219427244" lon="120.86380876627221"><ele>57.0</ele><time>2026-03-22T02:54:29Z</time></trkpt><trkpt lat="24.61305827479859" lon="120.86388292208134"><ele>50.5</ele><time>2026-03-22T02:54:30Z</time></trkpt><trkpt lat="24.612810950045983" lon="120.86396116939139"><ele>44.0</ele><time>2026-03-22T02:54:31Z</time></trkpt><trkpt lat="24.6125642553463" lon="120.86404302671212"><ele>44.0</ele><time>2026-03-22T02:54:32Z</time></trkpt><trkpt lat="24.61231834950094" lon="120.86412701465541"><ele>44.0</ele><time>2026-03-22T02:54:33Z</time></trkpt><trkpt lat="24.612073144336964" lon="120.86421387607449"><ele>55.0</ele><time>2026-03-22T02:54:34Z</time></trkpt><trkpt lat="24.611827214466054" lon="120.8643012208124"><ele>66.0</ele><time>2026-03-22T02:54:35Z</time></trkpt><trkpt lat="24.611580219169" lon="120.86438435297688"><ele>66.0</ele><time>2026-03-22T02:54:36Z</time></trkpt><trkpt lat="24.61133221334267" lon="120.8644645721746"><ele>66.0</ele><time>2026-03-22T02:54:37Z</time></trkpt><trkpt lat="24.611083925681925" lon="120.86454174042812"><ele>61.5</ele><time>2026-03-22T02:54:38Z</time></trkpt><trkpt lat="24.610835978986678" lon="120.86462062638117"><ele>57.0</ele><time>2026-03-22T02:54:39Z</time></trkpt><trkpt lat="24.61059021757303" lon="120.86470242149905"><ele>57.0</ele><time>2026-03-22T02:54:40Z</time></trkpt><trkpt lat="24.610344808620265" lon="120.86477980391128"><ele>57.0</ele><time>2026-03-22T02:54:41Z</time></trkpt><trkpt lat="24.610097906014737" lon="120.86485121846854"><ele>55.0</ele><time>2026-03-22T02:54:42Z</time></trkpt><trkpt lat="24.609851246795188" lon="120.86491818621168"><ele>53.0</ele><time>2026-03-22T02:54:43Z</time></trkpt><trkpt lat="24.609604582724433" lon="120.86497971686711"><ele>51.0</ele><time>2026-03-22T02:54:44Z</time></trkpt><trkpt lat="24.609358476168495" lon="120.86503497504735"><ele>49.0</ele><time>2026-03-22T02:54:45Z</time></trkpt><trkpt lat="24.609112522081322" lon="120.86508366531419"><ele>58.0</ele><time>2026-03-22T02:54:46Z</time></trkpt><trkpt lat="24.608866685247" lon="120.86512486628673"><ele>67.0</ele><time>2026-03-22T02:54:47Z</time></trkpt><trkpt lat="24.608621153088578" lon="120.86515887484376"><ele>68.5</ele><time>2026-03-22T02:54:48Z</time></trkpt><trkpt lat="24.608376793242968" lon="120.86518605385945"><ele>70.0</ele><time>2026-03-22T02:54:49Z</time></trkpt><trkpt lat="24.608133854853392" lon="120.86520606374617"><ele>70.0</ele><time>2026-03-22T02:54:50Z</time></trkpt><trkpt lat="24.60789139701832" lon="120.86522019659878"><ele>70.0</ele><time>2026-03-22T02:54:51Z</time></trkpt><trkpt lat="24.607650978540477" lon="120.86522483002884"><ele>74.0</ele><time>2026-03-22T02:54:52Z</time></trkpt><trkpt lat="24.60741263925686" lon="120.86522449397427"><ele>78.0</ele><time>2026-03-22T02:54:53Z</time></trkpt><trkpt lat="24.607177091655775" lon="120.86521747067515"><ele>77.5</ele><time>2026-03-22T02:54:54Z</time></trkpt><trkpt lat="24.6069430507883" lon="120.86520556797127"><ele>77.0</ele><time>2026-03-22T02:54:55Z</time></trkpt><trkpt lat="24.606710354444964" lon="120.86518745016008"><ele>77.0</ele><time>2026-03-22T02:54:56Z</time></trkpt><trkpt lat="24.60647930857637" lon="120.86516269070408"><ele>77.0</ele><time>2026-03-22T02:54:57Z</time></trkpt><trkpt lat="24.606250487832742" lon="120.86513130551981"><ele>71.0</ele><time>2026-03-22T02:54:58Z</time></trkpt><trkpt lat="24.606021999899074" lon="120.86509540776476"><ele>65.0</ele><time>2026-03-22T02:54:59Z</time></trkpt><trkpt lat="24.605794823122498" lon="120.86505299424533"><ele>65.0</ele><time>2026-03-22T02:55:00Z</time></trkpt><trkpt lat="24.60556822421316" lon="120.8650046939107"><ele>65.0</ele><time>2026-03-22T02:55:01Z</time></trkpt><trkpt lat="24.605342051513766" lon="120.86495145698288"><ele>66.0</ele><time>2026-03-22T02:55:02Z</time></trkpt><trkpt lat="24.60511708630044" lon="120.86489267594914"><ele>67.0</ele><time>2026-03-22T02:55:03Z</time></trkpt><trkpt lat="24.604892507708932" lon="120.86482779706623"><ele>67.0</ele><time>2026-03-22T02:55:04Z</time></trkpt><trkpt lat="24.604667784951463" lon="120.86475844165233"><ele>67.0</ele><time>2026-03-22T02:55:05Z</time></trkpt><trkpt lat="24.604443665521583" lon="120.86468167607084"><ele>71.0</ele><time>2026-03-22T02:55:06Z</time></trkpt><trkpt lat="24.604220234253482" lon="120.8645991136003"><ele>75.0</ele><time>2026-03-22T02:55:07Z</time></trkpt><trkpt lat="24.603996602286085" lon="120.86450972832998"><ele>75.0</ele><time>2026-03-22T02:55:08Z</time></trkpt><trkpt lat="24.603773560580688" lon="120.86441303305915"><ele>75.0</ele><time>2026-03-22T02:55:09Z</time></trkpt><trkpt lat="24.603550888355038" lon="120.86430918580785"><ele>78.5</ele><time>2026-03-22T02:55:10Z</time></trkpt><trkpt lat="24.60332762266908" lon="120.86420028161649"><ele>82.0</ele><time>2026-03-22T02:55:11Z</time></trkpt><trkpt lat="24.60310435752026" lon="120.86408559795976"><ele>82.0</ele><time>2026-03-22T02:55:12Z</time></trkpt><trkpt lat="24.60288178182681" lon="120.86396624760803"><ele>82.0</ele><time>2026-03-22T02:55:13Z</time></trkpt><trkpt lat="24.60265906939855" lon="120.86384356998506"><ele>84.5</ele><time>2026-03-22T02:55:14Z</time></trkpt><trkpt lat="24.602435683735" lon="120.86371597543275"><ele>87.0</ele><time>2026-03-22T02:55:15Z</time></trkpt><trkpt lat="24.60221246683834" lon="120.86358480504548"><ele>85.5</ele><time>2026-03-22T02:55:16Z</time></trkpt><trkpt lat="24.601987255255295" lon="120.86345118388023"><ele>84.0</ele><time>2026-03-22T02:55:17Z</time></trkpt><trkpt lat="24.601759103258026" lon="120.86331688006648"><ele>84.0</ele><time>2026-03-22T02:55:18Z</time></trkpt><trkpt lat="24.60152777475621" lon="120.86318153979227"><ele>84.0</ele><time>2026-03-22T02:55:19Z</time></trkpt><trkpt lat="24.601293364835882" lon="120.86304588817714"><ele>80.5</ele><time>2026-03-22T02:55:20Z</time></trkpt><trkpt lat="24.601056513692953" lon="120.86290878040955"><ele>77.0</ele><time>2026-03-22T02:55:21Z</time></trkpt><trkpt lat="24.600818317105574" lon="120.86276718344985"><ele>77.0</ele><time>2026-03-22T02:55:22Z</time></trkpt><trkpt lat="24.600582159344263" lon="120.86262476276868"><ele>77.0</ele><time>2026-03-22T02:55:23Z</time></trkpt><trkpt lat="24.60034496342069" lon="120.86248449141065"><ele>75.0</ele><time>2026-03-22T02:55:24Z</time></trkpt><trkpt lat="24.600106781367288" lon="120.86234620748628"><ele>73.0</ele><time>2026-03-22T02:55:25Z</time></trkpt><trkpt lat="24.599867452975197" lon="120.86221299281368"><ele>73.0</ele><time>2026-03-22T02:55:26Z</time></trkpt><trkpt lat="24.599627111308436" lon="120.86207878639522"><ele>73.0</ele><time>2026-03-22T02:55:27Z</time></trkpt><trkpt lat="24.599384180233837" lon="120.86194782481539"><ele>74.0</ele><time>2026-03-22T02:55:28Z</time></trkpt><trkpt lat="24.59913776142465" lon="120.86182343487276"><ele>75.0</ele><time>2026-03-22T02:55:29Z</time></trkpt><trkpt lat="24.598888029934553" lon="120.86170292644601"><ele>70.5</ele><time>2026-03-22T02:55:30Z</time></trkpt><trkpt lat="24.598635921358603" lon="120.86158709892632"><ele>66.0</ele><time>2026-03-22T02:55:31Z</time></trkpt><trkpt lat="24.59838289342602" lon="120.8614749104558"><ele>66.0</ele><time>2026-03-22T02:55:32Z</time></trkpt><trkpt lat="24.598128830871516" lon="120.86136837226154"><ele>66.0</ele><time>2026-03-22T02:55:33Z</time></trkpt><trkpt lat="24.597872530940727" lon="120.8612667327869"><ele>62.5</ele><time>2026-03-22T02:55:34Z</time></trkpt><trkpt lat="24.597614061983" lon="120.86117183582658"><ele>59.0</ele><time>2026-03-22T02:55:35Z</time></trkpt><trkpt lat="24.59735377551455" lon="120.86108359950165"><ele>59.0</ele><time>2026-03-22T02:55:36Z</time></trkpt><trkpt lat="24.597092459942004" lon="120.86099950328753"><ele>59.0</ele><time>2026-03-22T02:55:37Z</time></trkpt><trkpt lat="24.596829788425033" lon="120.86092171681636"><ele>64.5</ele><time>2026-03-22T02:55:38Z</time></trkpt><trkpt lat="24.59656611838662" lon="120.86084976650585"><ele>70.0</ele><time>2026-03-22T02:55:39Z</time></trkpt><trkpt lat="24.5963031008515" lon="120.86078222333065"><ele>65.5</ele><time>2026-03-22T02:55:40Z</time></trkpt><trkpt lat="24.59603916806845" lon="120.86071900026195"><ele>61.0</ele><time>2026-03-22T02:55:41Z</time></trkpt><trkpt lat="24.59577634126602" lon="120.86066144762745"><ele>61.0</ele><time>2026-03-22T02:55:42Z</time></trkpt><trkpt lat="24.59551460064784" lon="120.86061097907492"><ele>61.0</ele><time>2026-03-22T02:55:43Z</time></trkpt><trkpt lat="24.59525367191728" lon="120.86056704646911"><ele>58.5</ele><time>2026-03-22T02:55:44Z</time></trkpt><trkpt lat="24.59499428373312" lon="120.86052733274765"><ele>56.0</ele><time>2026-03-22T02:55:45Z</time></trkpt><trkpt lat="24.59473761233902" lon="120.86049262921964"><ele>55.0</ele><time>2026-03-22T02:55:46Z</time></trkpt><trkpt lat="24.594482023515447" lon="120.86046353229288"><ele>54.0</ele><time>2026-03-22T02:55:47Z</time></trkpt><trkpt lat="24.59422899560252" lon="120.86043910658017"><ele>54.0</ele><time>2026-03-22T02:55:48Z</time></trkpt><trkpt lat="24.593975760796226" lon="120.86042040989429"><ele>54.0</ele><time>2026-03-22T02:55:49Z</time></trkpt><trkpt lat="24.593722693772655" lon="120.86040659734552"><ele>53.5</ele><time>2026-03-22T02:55:50Z</time></trkpt><trkpt lat="24.59347022655592" lon="120.86039998945877"><ele>53.0</ele><time>2026-03-22T02:55:51Z</time></trkpt><trkpt lat="24.593217868809123" lon="120.8603963278889"><ele>53.0</ele><time>2026-03-22T02:55:52Z</time></trkpt><trkpt lat="24.592966677364956" lon="120.86039625568199"><ele>53.0</ele><time>2026-03-22T02:55:53Z</time></trkpt><trkpt lat="24.592716032796787" lon="120.86040059065188"><ele>51.0</ele><time>2026-03-22T02:55:54Z</time></trkpt><trkpt lat="24.59246636332795" lon="120.86040933059367"><ele>49.0</ele><time>2026-03-22T02:55:55Z</time></trkpt><trkpt lat="24.592219478446292" lon="120.8604239280996"><ele>48.0</ele><time>2026-03-22T02:55:56Z</time></trkpt><trkpt lat="24.59197353417023" lon="120.86044315909777"><ele>47.0</ele><time>2026-03-22T02:55:57Z</time></trkpt><trkpt lat="24.591730147586183" lon="120.8604664596156"><ele>47.0</ele><time>2026-03-22T02:55:58Z</time></trkpt><trkpt lat="24.591487875260125" lon="120.86049253784579"><ele>47.0</ele><time>2026-03-22T02:55:59Z</time></trkpt><trkpt lat="24.591244933334202" lon="120.86052368442427"><ele>48.5</ele><time>2026-03-22T02:56:00Z</time></trkpt><trkpt lat="24.59100155580156" lon="120.86055730074621"><ele>50.0</ele><time>2026-03-22T02:56:01Z</time></trkpt><trkpt lat="24.590756860879544" lon="120.86059145526107"><ele>50.0</ele><time>2026-03-22T02:56:02Z</time></trkpt><trkpt lat="24.590509879345024" lon="120.86062800782096"><ele>50.0</ele><time>2026-03-22T02:56:03Z</time></trkpt><trkpt lat="24.59026232821026" lon="120.86066577526343"><ele>49.5</ele><time>2026-03-22T02:56:04Z</time></trkpt><trkpt lat="24.590013353438263" lon="120.86070472351298"><ele>49.0</ele><time>2026-03-22T02:56:05Z</time></trkpt><trkpt lat="24.589766522687352" lon="120.86074379076454"><ele>49.0</ele><time>2026-03-22T02:56:06Z</time></trkpt><trkpt lat="24.589520481680324" lon="120.86078479693404"><ele>49.0</ele><time>2026-03-22T02:56:07Z</time></trkpt><trkpt lat="24.58927266057873" lon="120.86082373333572"><ele>47.5</ele><time>2026-03-22T02:56:08Z</time></trkpt><trkpt lat="24.58902338532573" lon="120.86086051692304"><ele>46.0</ele><time>2026-03-22T02:56:09Z</time></trkpt><trkpt lat="24.58877497941498" lon="120.86089294898963"><ele>45.5</ele><time>2026-03-22T02:56:10Z</time></trkpt><trkpt lat="24.58852667963341" lon="120.86092089666504"><ele>45.0</ele><time>2026-03-22T02:56:11Z</time></trkpt><trkpt lat="24.588278662885596" lon="120.86094277895272"><ele>48.0</ele><time>2026-03-22T02:56:12Z</time></trkpt><trkpt lat="24.588030922434182" lon="120.8609595314189"><ele>51.0</ele><time>2026-03-22T02:56:13Z</time></trkpt><trkpt lat="24.587783873785003" lon="120.86096916290539"><ele>54.0</ele><time>2026-03-22T02:56:14Z</time></trkpt><trkpt lat="24.58753686889037" lon="120.86097292773754"><ele>57.0</ele><time>2026-03-22T02:56:15Z</time></trkpt><trkpt lat="24.587289224312098" lon="120.86096635062134"><ele>57.0</ele><time>2026-03-22T02:56:16Z</time></trkpt><trkpt lat="24.587043027491493" lon="120.86095109021468"><ele>57.0</ele><time>2026-03-22T02:56:17Z</time></trkpt><trkpt lat="24.586797666120734" lon="120.86092664080915"><ele>55.5</ele><time>2026-03-22T02:56:18Z</time></trkpt><trkpt lat="24.586552738035685" lon="120.86089487865165"><ele>54.0</ele><time>2026-03-22T02:56:19Z</time></trkpt><trkpt lat="24.586308857093094" lon="120.86085455949487"><ele>52.0</ele><time>2026-03-22T02:56:20Z</time></trkpt><trkpt lat="24.58606483353512" lon="120.8608057673285"><ele>50.0</ele><time>2026-03-22T02:56:21Z</time></trkpt><trkpt lat="24.5858208939676" lon="120.86074876284738"><ele>50.0</ele><time>2026-03-22T02:56:22Z</time></trkpt><trkpt lat="24.58557690350306" lon="120.86068412166242"><ele>50.0</ele><time>2026-03-22T02:56:23Z</time></trkpt><trkpt lat="24.585333076120857" lon="120.86060924373909"><ele>49.5</ele><time>2026-03-22T02:56:24Z</time></trkpt><trkpt lat="24.585089546952844" lon="120.8605256055155"><ele>49.0</ele><time>2026-03-22T02:56:25Z</time></trkpt><trkpt lat="24.584846049199086" lon="120.86043491683104"><ele>49.0</ele><time>2026-03-22T02:56:26Z</time></trkpt><trkpt lat="24.584603099724106" lon="120.860336651533"><ele>49.0</ele><time>2026-03-22T02:56:27Z</time></trkpt><trkpt lat="24.584361452450953" lon="120.86023020447492"><ele>44.0</ele><time>2026-03-22T02:56:28Z</time></trkpt><trkpt lat="24.58412005837179" lon="120.86011584658714"><ele>39.0</ele><time>2026-03-22T02:56:29Z</time></trkpt><trkpt lat="24.583879871198516" lon="120.85999462635235"><ele>39.5</ele><time>2026-03-22T02:56:30Z</time></trkpt><trkpt lat="24.583640112302813" lon="120.85986637330235"><ele>40.0</ele><time>2026-03-22T02:56:31Z</time></trkpt><trkpt lat="24.58340207415121" lon="120.8597327314432"><ele>40.0</ele><time>2026-03-22T02:56:32Z</time></trkpt><trkpt lat="24.583168234717444" lon="120.8595916245692"><ele>40.0</ele><time>2026-03-22T02:56:33Z</time></trkpt><trkpt lat="24.582941252894912" lon="120.85944591351532"><ele>40.0</ele><time>2026-03-22T02:56:34Z</time></trkpt><trkpt lat="24.582715065195725" lon="120.85929537493402"><ele>40.0</ele><time>2026-03-22T02:56:35Z</time></trkpt><trkpt lat="24.58249035731977" lon="120.85914316056454"><ele>39.5</ele><time>2026-03-22T02:56:36Z</time></trkpt><trkpt lat="24.582265728458317" lon="120.85899040182649"><ele>39.0</ele><time>2026-03-22T02:56:37Z</time></trkpt><trkpt lat="24.58204456979959" lon="120.85883503746679"><ele>38.0</ele><time>2026-03-22T02:56:38Z</time></trkpt><trkpt lat="24.581827674305714" lon="120.8586766995879"><ele>37.0</ele><time>2026-03-22T02:56:39Z</time></trkpt><trkpt lat="24.58161404172301" lon="120.85851603157519"><ele>35.5</ele><time>2026-03-22T02:56:40Z</time></trkpt><trkpt lat="24.5814062150799" lon="120.85835352150798"><ele>34.0</ele><time>2026-03-22T02:56:41Z</time></trkpt><trkpt lat="24.58119882075579" lon="120.85819045022589"><ele>39.5</ele><time>2026-03-22T02:56:42Z</time></trkpt><trkpt lat="24.580993618265687" lon="120.85802702595258"><ele>45.0</ele><time>2026-03-22T02:56:43Z</time></trkpt><trkpt lat="24.58078918177056" lon="120.85786191643682"><ele>45.0</ele><time>2026-03-22T02:56:44Z</time></trkpt><trkpt lat="24.580584183173947" lon="120.85769962985091"><ele>45.0</ele><time>2026-03-22T02:56:45Z</time></trkpt><trkpt lat="24.580379612623695" lon="120.8575386235693"><ele>44.0</ele><time>2026-03-22T02:56:46Z</time></trkpt><trkpt lat="24.580177053790923" lon="120.85737583044025"><ele>43.0</ele><time>2026-03-22T02:56:47Z</time></trkpt><trkpt lat="24.579976755356064" lon="120.85721386863356"><ele>43.0</ele><time>2026-03-22T02:56:48Z</time></trkpt><trkpt lat="24.579777556002234" lon="120.85705547164298"><ele>43.0</ele><time>2026-03-22T02:56:49Z</time></trkpt><trkpt lat="24.579579306519662" lon="120.85690145998628"><ele>42.5</ele><time>2026-03-22T02:56:50Z</time></trkpt><trkpt lat="24.579380247840387" lon="120.85674923007602"><ele>42.0</ele><time>2026-03-22T02:56:51Z</time></trkpt><trkpt lat="24.57918069270308" lon="120.85659562429478"><ele>42.0</ele><time>2026-03-22T02:56:52Z</time></trkpt><trkpt lat="24.57897999590253" lon="120.85644773731318"><ele>42.0</ele><time>2026-03-22T02:56:53Z</time></trkpt><trkpt lat="24.578778466533574" lon="120.85630312181196"><ele>45.5</ele><time>2026-03-22T02:56:54Z</time></trkpt><trkpt lat="24.578574849997693" lon="120.85616287389732"><ele>49.0</ele><time>2026-03-22T02:56:55Z</time></trkpt><trkpt lat="24.578367500707948" lon="120.8560271575839"><ele>45.5</ele><time>2026-03-22T02:56:56Z</time></trkpt><trkpt lat="24.57815818587685" lon="120.85589524452496"><ele>42.0</ele><time>2026-03-22T02:56:57Z</time></trkpt><trkpt lat="24.577945862180673" lon="120.85576779045562"><ele>48.5</ele><time>2026-03-22T02:56:58Z</time></trkpt><trkpt lat="24.577731732189648" lon="120.8556428716072"><ele>55.0</ele><time>2026-03-22T02:56:59Z</time></trkpt><trkpt lat="24.577516459189688" lon="120.85551867292115"><ele>55.0</ele><time>2026-03-22T02:57:00Z</time></trkpt><trkpt lat="24.577297792161765" lon="120.85540085778554"><ele>55.0</ele><time>2026-03-22T02:57:01Z</time></trkpt><trkpt lat="24.577076903700966" lon="120.85528918164772"><ele>54.0</ele><time>2026-03-22T02:57:02Z</time></trkpt><trkpt lat="24.576854451891915" lon="120.8551816605137"><ele>53.0</ele><time>2026-03-22T02:57:03Z</time></trkpt><trkpt lat="24.576631168585788" lon="120.85507586643268"><ele>53.0</ele><time>2026-03-22T02:57:04Z</time></trkpt><trkpt lat="24.57640588590689" lon="120.8549751143717"><ele>53.0</ele><time>2026-03-22T02:57:05Z</time></trkpt><trkpt lat="24.576178585374038" lon="120.85487588132689"><ele>53.0</ele><time>2026-03-22T02:57:06Z</time></trkpt><trkpt lat="24.575950463570585" lon="120.85477613731713"><ele>53.0</ele><time>2026-03-22T02:57:07Z</time></trkpt><trkpt lat="24.575719717759156" lon="120.85468083592562"><ele>53.0</ele><time>2026-03-22T02:57:08Z</time></trkpt><trkpt lat="24.57548663644594" lon="120.85458925513798"><ele>53.0</ele><time>2026-03-22T02:57:09Z</time></trkpt><trkpt lat="24.575252389804376" lon="120.85449705171845"><ele>60.0</ele><time>2026-03-22T02:57:10Z</time></trkpt><trkpt lat="24.575016449097987" lon="120.85440898518547"><ele>67.0</ele><time>2026-03-22T02:57:11Z</time></trkpt><trkpt lat="24.574780727069516" lon="120.85431972898132"><ele>61.5</ele><time>2026-03-22T02:57:12Z</time></trkpt><trkpt lat="24.5745443206586" lon="120.85423012359709"><ele>56.0</ele><time>2026-03-22T02:57:13Z</time></trkpt><trkpt lat="24.57430863608564" lon="120.85414089622181"><ele>56.0</ele><time>2026-03-22T02:57:14Z</time></trkpt><trkpt lat="24.57407310244775" lon="120.85405349388036"><ele>56.0</ele><time>2026-03-22T02:57:15Z</time></trkpt><trkpt lat="24.573838157720452" lon="120.85396543310449"><ele>60.0</ele><time>2026-03-22T02:57:16Z</time></trkpt><trkpt lat="24.57360458698642" lon="120.85387579890444"><ele>64.0</ele><time>2026-03-22T02:57:17Z</time></trkpt><trkpt lat="24.573370772590593" lon="120.85378467415954"><ele>64.0</ele><time>2026-03-22T02:57:18Z</time></trkpt><trkpt lat="24.573135574307837" lon="120.85369628592245"><ele>64.0</ele><time>2026-03-22T02:57:19Z</time></trkpt><trkpt lat="24.572900246380755" lon="120.85360974960273"><ele>64.5</ele><time>2026-03-22T02:57:20Z</time></trkpt><trkpt lat="24.57266436709333" lon="120.85352125359957"><ele>65.0</ele><time>2026-03-22T02:57:21Z</time></trkpt><trkpt lat="24.572428781760514" lon="120.8534324578425"><ele>64.5</ele><time>2026-03-22T02:57:22Z</time></trkpt><trkpt lat="24.57219400215031" lon="120.85334199882796"><ele>64.0</ele><time>2026-03-22T02:57:23Z</time></trkpt><trkpt lat="24.571959945387217" lon="120.85324830707386"><ele>64.0</ele><time>2026-03-22T02:57:24Z</time></trkpt><trkpt lat="24.571726538186713" lon="120.85315082406653"><ele>64.0</ele><time>2026-03-22T02:57:25Z</time></trkpt><trkpt lat="24.57149539919061" lon="120.85304803738231"><ele>64.0</ele><time>2026-03-22T02:57:26Z</time></trkpt><trkpt lat="24.57126577784552" lon="120.85293959283919"><ele>64.0</ele><time>2026-03-22T02:57:27Z</time></trkpt><trkpt lat="24.57103815465807" lon="120.85282546975586"><ele>62.5</ele><time>2026-03-22T02:57:28Z</time></trkpt><trkpt lat="24.570813130424924" lon="120.85270648780272"><ele>61.0</ele><time>2026-03-22T02:57:29Z</time></trkpt><trkpt lat="24.57059100985638" lon="120.85257919251725"><ele>61.0</ele><time>2026-03-22T02:57:30Z</time></trkpt><trkpt lat="24.5703740108052" lon="120.85244294008857"><ele>61.0</ele><time>2026-03-22T02:57:31Z</time></trkpt><trkpt lat="24.570160721698944" lon="120.85229904321305"><ele>59.5</ele><time>2026-03-22T02:57:32Z</time></trkpt><trkpt lat="24.56995117046277" lon="120.8521465448346"><ele>58.0</ele><time>2026-03-22T02:57:33Z</time></trkpt><trkpt lat="24.56974630894879" lon="120.85198771066078"><ele>58.0</ele><time>2026-03-22T02:57:34Z</time></trkpt><trkpt lat="24.569546126222747" lon="120.85182213827252"><ele>58.0</ele><time>2026-03-22T02:57:35Z</time></trkpt><trkpt lat="24.569351140984867" lon="120.8516480517979"><ele>56.5</ele><time>2026-03-22T02:57:36Z</time></trkpt><trkpt lat="24.56916203477054" lon="120.85146632753299"><ele>55.0</ele><time>2026-03-22T02:57:37Z</time></trkpt><trkpt lat="24.568979462878048" lon="120.8512777561654"><ele>55.0</ele><time>2026-03-22T02:57:38Z</time></trkpt><trkpt lat="24.568802984966307" lon="120.8510807155842"><ele>55.0</ele><time>2026-03-22T02:57:39Z</time></trkpt><trkpt lat="24.568633045052383" lon="120.85087764436068"><ele>53.0</ele><time>2026-03-22T02:57:40Z</time></trkpt><trkpt lat="24.56846755179771" lon="120.85066997035187"><ele>51.0</ele><time>2026-03-22T02:57:41Z</time></trkpt><trkpt lat="24.568307117188187" lon="120.85045532374019"><ele>51.0</ele><time>2026-03-22T02:57:42Z</time></trkpt><trkpt lat="24.568152054844226" lon="120.8502371624087"><ele>51.0</ele><time>2026-03-22T02:57:43Z</time></trkpt><trkpt lat="24.568000804191684" lon="120.85001758901777"><ele>47.5</ele><time>2026-03-22T02:57:44Z</time></trkpt><trkpt lat="24.56785290548273" lon="120.8497945322952"><ele>44.0</ele><time>2026-03-22T02:57:45Z</time></trkpt><trkpt lat="24.567705413107024" lon="120.8495729054087"><ele>44.0</ele><time>2026-03-22T02:57:46Z</time></trkpt><trkpt lat="24.567561841938826" lon="120.84935072944468"><ele>44.0</ele><time>2026-03-22T02:57:47Z</time></trkpt><trkpt lat="24.56741946309401" lon="120.84912924237433"><ele>42.0</ele><time>2026-03-22T02:57:48Z</time></trkpt><trkpt lat="24.567277034077918" lon="120.84890902886453"><ele>40.0</ele><time>2026-03-22T02:57:49Z</time></trkpt><trkpt lat="24.567134000794997" lon="120.84868937343951"><ele>42.0</ele><time>2026-03-22T02:57:50Z</time></trkpt><trkpt lat="24.566989202446752" lon="120.8484721067216"><ele>44.0</ele><time>2026-03-22T02:57:51Z</time></trkpt><trkpt lat="24.566841464539966" lon="120.84825767296012"><ele>46.5</ele><time>2026-03-22T02:57:52Z</time></trkpt><trkpt lat="24.566691830141878" lon="120.84804457547445"><ele>49.0</ele><time>2026-03-22T02:57:53Z</time></trkpt><trkpt lat="24.566540894282593" lon="120.84783498915797"><ele>49.0</ele><time>2026-03-22T02:57:54Z</time></trkpt><trkpt lat="24.566386060679946" lon="120.84762871026888"><ele>49.0</ele><time>2026-03-22T02:57:55Z</time></trkpt><trkpt lat="24.56622626152012" lon="120.84742724712255"><ele>51.0</ele><time>2026-03-22T02:57:56Z</time></trkpt><trkpt lat="24.56606194579393" lon="120.84723044633482"><ele>53.0</ele><time>2026-03-22T02:57:57Z</time></trkpt><trkpt lat="24.565894105642794" lon="120.84703873677203"><ele>53.0</ele><time>2026-03-22T02:57:58Z</time></trkpt><trkpt lat="24.565722126175952" lon="120.84685057585043"><ele>53.0</ele><time>2026-03-22T02:57:59Z</time></trkpt><trkpt lat="24.565547119331686" lon="120.84666650966372"><ele>52.5</ele><time>2026-03-22T02:58:00Z</time></trkpt><trkpt lat="24.565368797106306" lon="120.84648615744628"><ele>52.0</ele><time>2026-03-22T02:58:01Z</time></trkpt><trkpt lat="24.565185593308104" lon="120.84631018205192"><ele>49.5</ele><time>2026-03-22T02:58:02Z</time></trkpt><trkpt lat="24.564999057704" lon="120.84613810701063"><ele>47.0</ele><time>2026-03-22T02:58:03Z</time></trkpt><trkpt lat="24.56481074579279" lon="120.84596894619987"><ele>47.5</ele><time>2026-03-22T02:58:04Z</time></trkpt><trkpt lat="24.564620494142822" lon="120.84580198624685"><ele>48.0</ele><time>2026-03-22T02:58:05Z</time></trkpt><trkpt lat="24.56442645312053" lon="120.84563798998839"><ele>48.0</ele><time>2026-03-22T02:58:06Z</time></trkpt><trkpt lat="24.564231803761423" lon="120.845476232648"><ele>48.0</ele><time>2026-03-22T02:58:07Z</time></trkpt><trkpt lat="24.564036431257566" lon="120.84531640695097"><ele>48.0</ele><time>2026-03-22T02:58:08Z</time></trkpt><trkpt lat="24.56383767560546" lon="120.84515921944448"><ele>48.0</ele><time>2026-03-22T02:58:09Z</time></trkpt><trkpt lat="24.563638092705197" lon="120.84500267024971"><ele>49.5</ele><time>2026-03-22T02:58:10Z</time></trkpt><trkpt lat="24.56343664826897" lon="120.84484705718667"><ele>51.0</ele><time>2026-03-22T02:58:11Z</time></trkpt><trkpt lat="24.56323183265986" lon="120.84469589732346"><ele>51.0</ele><time>2026-03-22T02:58:12Z</time></trkpt><trkpt lat="24.563025329501563" lon="120.84454631507374"><ele>51.0</ele><time>2026-03-22T02:58:13Z</time></trkpt><trkpt lat="24.562817793054577" lon="120.84439635310098"><ele>54.0</ele><time>2026-03-22T02:58:14Z</time></trkpt><trkpt lat="24.562609764622994" lon="120.84424799475569"><ele>57.0</ele><time>2026-03-22T02:58:15Z</time></trkpt><trkpt lat="24.56239933410114" lon="120.84410194198358"><ele>57.0</ele><time>2026-03-22T02:58:16Z</time></trkpt><trkpt lat="24.562187333861058" lon="120.84395759259468"><ele>57.0</ele><time>2026-03-22T02:58:17Z</time></trkpt><trkpt lat="24.5619738678406" lon="120.84381586492078"><ele>57.5</ele><time>2026-03-22T02:58:18Z</time></trkpt><trkpt lat="24.561758824474975" lon="120.8436756547646"><ele>58.0</ele><time>2026-03-22T02:58:19Z</time></trkpt><trkpt lat="24.56154342003955" lon="120.84353710094379"><ele>55.5</ele><time>2026-03-22T02:58:20Z</time></trkpt><trkpt lat="24.561325133845337" lon="120.84340152637985"><ele>53.0</ele><time>2026-03-22T02:58:21Z</time></trkpt><trkpt lat="24.56110579564049" lon="120.84326946444608"><ele>53.0</ele><time>2026-03-22T02:58:22Z</time></trkpt><trkpt lat="24.560885948121896" lon="120.8431384061376"><ele>53.0</ele><time>2026-03-22T02:58:23Z</time></trkpt><trkpt lat="24.56066589556781" lon="120.84300919328601"><ele>53.0</ele><time>2026-03-22T02:58:24Z</time></trkpt><trkpt lat="24.560444565587968" lon="120.84288135765142"><ele>53.0</ele><time>2026-03-22T02:58:25Z</time></trkpt><trkpt lat="24.56022169649906" lon="120.84275712781601"><ele>50.5</ele><time>2026-03-22T02:58:26Z</time></trkpt><trkpt lat="24.559996533941625" lon="120.84263587367158"><ele>48.0</ele><time>2026-03-22T02:58:27Z</time></trkpt><trkpt lat="24.55977060272629" lon="120.84251589040831"><ele>48.0</ele><time>2026-03-22T02:58:28Z</time></trkpt><trkpt lat="24.55954382711649" lon="120.84239797404454"><ele>48.0</ele><time>2026-03-22T02:58:29Z</time></trkpt><trkpt lat="24.559316341005136" lon="120.84228184708495"><ele>49.0</ele><time>2026-03-22T02:58:30Z</time></trkpt><trkpt lat="24.55908834626459" lon="120.84216740660938"><ele>50.0</ele><time>2026-03-22T02:58:31Z</time></trkpt><trkpt lat="24.558858907224508" lon="120.84205577818572"><ele>55.5</ele><time>2026-03-22T02:58:32Z</time></trkpt><trkpt lat="24.558628346003488" lon="120.8419480601858"><ele>61.0</ele><time>2026-03-22T02:58:33Z</time></trkpt><trkpt lat="24.558397317986593" lon="120.841842308883"><ele>54.0</ele><time>2026-03-22T02:58:34Z</time></trkpt><trkpt lat="24.558166227800335" lon="120.84173805547002"><ele>47.0</ele><time>2026-03-22T02:58:35Z</time></trkpt><trkpt lat="24.55793287409693" lon="120.8416348666585"><ele>48.0</ele><time>2026-03-22T02:58:36Z</time></trkpt><trkpt lat="24.557699765830968" lon="120.8415334146837"><ele>49.0</ele><time>2026-03-22T02:58:37Z</time></trkpt><trkpt lat="24.55746590936051" lon="120.84143595331889"><ele>49.0</ele><time>2026-03-22T02:58:38Z</time></trkpt><trkpt lat="24.55722992197593" lon="120.8413412195014"><ele>49.0</ele><time>2026-03-22T02:58:39Z</time></trkpt><trkpt lat="24.556990688737518" lon="120.84124913114144"><ele>53.0</ele><time>2026-03-22T02:58:40Z</time></trkpt><trkpt lat="24.556748540755578" lon="120.84115625690305"><ele>57.0</ele><time>2026-03-22T02:58:41Z</time></trkpt><trkpt lat="24.55650268302115" lon="120.84106412409379"><ele>57.0</ele><time>2026-03-22T02:58:42Z</time></trkpt><trkpt lat="24.556253952379805" lon="120.84097245009234"><ele>57.0</ele><time>2026-03-22T02:58:43Z</time></trkpt><trkpt lat="24.556002837408393" lon="120.84088213229168"><ele>53.5</ele><time>2026-03-22T02:58:44Z</time></trkpt><trkpt lat="24.555749662031403" lon="120.8407943817054"><ele>50.0</ele><time>2026-03-22T02:58:45Z</time></trkpt><trkpt lat="24.555496651743493" lon="120.8407056822119"><ele>49.0</ele><time>2026-03-22T02:58:46Z</time></trkpt><trkpt lat="24.55524253314508" lon="120.84061757521276"><ele>48.0</ele><time>2026-03-22T02:58:47Z</time></trkpt><trkpt lat="24.55498846412374" lon="120.84053072657163"><ele>48.0</ele><time>2026-03-22T02:58:48Z</time></trkpt><trkpt lat="24.554733819774224" lon="120.84044424035133"><ele>48.0</ele><time>2026-03-22T02:58:49Z</time></trkpt><trkpt lat="24.554482985517993" lon="120.84035839704613"><ele>46.5</ele><time>2026-03-22T02:58:50Z</time></trkpt><trkpt lat="24.55423535220281" lon="120.84027258308444"><ele>45.0</ele><time>2026-03-22T02:58:51Z</time></trkpt><trkpt lat="24.55398883827839" lon="120.84018883951926"><ele>45.5</ele><time>2026-03-22T02:58:52Z</time></trkpt><trkpt lat="24.55374287531144" lon="120.84010457635515"><ele>46.0</ele><time>2026-03-22T02:58:53Z</time></trkpt><trkpt lat="24.553497262164107" lon="120.8400201287648"><ele>46.0</ele><time>2026-03-22T02:58:54Z</time></trkpt><trkpt lat="24.553252383615657" lon="120.83993637224394"><ele>46.0</ele><time>2026-03-22T02:58:55Z</time></trkpt><trkpt lat="24.553007559393087" lon="120.83985486806418"><ele>45.0</ele><time>2026-03-22T02:58:56Z</time></trkpt><trkpt lat="24.552763625374123" lon="120.83977494341947"><ele>44.0</ele><time>2026-03-22T02:58:57Z</time></trkpt><trkpt lat="24.552520048264785" lon="120.83969470236248"><ele>44.0</ele><time>2026-03-22T02:58:58Z</time></trkpt><trkpt lat="24.552278099871764" lon="120.8396132242659"><ele>44.0</ele><time>2026-03-22T02:58:59Z</time></trkpt><trkpt lat="24.552038254614054" lon="120.83953000146684"><ele>45.0</ele><time>2026-03-22T02:59:00Z</time></trkpt><trkpt lat="24.551799641773435" lon="120.8394444126345"><ele>46.0</ele><time>2026-03-22T02:59:01Z</time></trkpt><trkpt lat="24.55156132344976" lon="120.83935655654687"><ele>45.5</ele><time>2026-03-22T02:59:02Z</time></trkpt><trkpt lat="24.551324966936647" lon="120.83926513348324"><ele>45.0</ele><time>2026-03-22T02:59:03Z</time></trkpt><trkpt lat="24.55108993772365" lon="120.83917055766993"><ele>46.0</ele><time>2026-03-22T02:59:04Z</time></trkpt><trkpt lat="24.550855489624645" lon="120.83907455082245"><ele>47.0</ele><time>2026-03-22T02:59:05Z</time></trkpt><trkpt lat="24.550622249346226" lon="120.83897607953877"><ele>47.0</ele><time>2026-03-22T02:59:06Z</time></trkpt><trkpt lat="24.550389864653393" lon="120.83887548069572"><ele>47.0</ele><time>2026-03-22T02:59:07Z</time></trkpt><trkpt lat="24.550157580690726" lon="120.8387722204322"><ele>49.0</ele><time>2026-03-22T02:59:08Z</time></trkpt><trkpt lat="24.549926065723625" lon="120.83866458255297"><ele>51.0</ele><time>2026-03-22T02:59:09Z</time></trkpt><trkpt lat="24.549694764520044" lon="120.83855285600166"><ele>51.0</ele><time>2026-03-22T02:59:10Z</time></trkpt><trkpt lat="24.54946511714131" lon="120.83843656016504"><ele>51.0</ele><time>2026-03-22T02:59:11Z</time></trkpt><trkpt lat="24.549235523667637" lon="120.83831572790507"><ele>51.0</ele><time>2026-03-22T02:59:12Z</time></trkpt><trkpt lat="24.549006323899583" lon="120.83819204601214"><ele>51.0</ele><time>2026-03-22T02:59:13Z</time></trkpt><trkpt lat="24.54877743036546" lon="120.83806794267674"><ele>51.5</ele><time>2026-03-22T02:59:14Z</time></trkpt><trkpt lat="24.548548908817434" lon="120.83793941854218"><ele>52.0</ele><time>2026-03-22T02:59:15Z</time></trkpt><trkpt lat="24.548320827342938" lon="120.8378065549407"><ele>52.0</ele><time>2026-03-22T02:59:16Z</time></trkpt><trkpt lat="24.548094588330894" lon="120.83767043925135"><ele>52.0</ele><time>2026-03-22T02:59:17Z</time></trkpt><trkpt lat="24.547870801215094" lon="120.83752912947439"><ele>52.5</ele><time>2026-03-22T02:59:18Z</time></trkpt><trkpt lat="24.547648641303713" lon="120.83738270677321"><ele>53.0</ele><time>2026-03-22T02:59:19Z</time></trkpt><trkpt lat="24.547427106236665" lon="120.83723348846836"><ele>53.0</ele><time>2026-03-22T02:59:20Z</time></trkpt><trkpt lat="24.547208001326812" lon="120.8370802127041"><ele>53.0</ele><time>2026-03-22T02:59:21Z</time></trkpt><trkpt lat="24.54698891240123" lon="120.83692408073563"><ele>51.5</ele><time>2026-03-22T02:59:22Z</time></trkpt><trkpt lat="24.546771794707006" lon="120.83676340863417"><ele>50.0</ele><time>2026-03-22T02:59:23Z</time></trkpt><trkpt lat="24.54655626900758" lon="120.83659813420768"><ele>50.0</ele><time>2026-03-22T02:59:24Z</time></trkpt><trkpt lat="24.546342574141615" lon="120.83642825982317"><ele>50.0</ele><time>2026-03-22T02:59:25Z</time></trkpt><trkpt lat="24.546130171746682" lon="120.83625584336671"><ele>50.5</ele><time>2026-03-22T02:59:26Z</time></trkpt><trkpt lat="24.54592136458756" lon="120.83607601748132"><ele>51.0</ele><time>2026-03-22T02:59:27Z</time></trkpt><trkpt lat="24.545712470953926" lon="120.83589365027406"><ele>51.0</ele><time>2026-03-22T02:59:28Z</time></trkpt><trkpt lat="24.54550332406565" lon="120.83571024472411"><ele>51.0</ele><time>2026-03-22T02:59:29Z</time></trkpt><trkpt lat="24.545293716751804" lon="120.83552600408122"><ele>51.5</ele><time>2026-03-22T02:59:30Z</time></trkpt><trkpt lat="24.545084886075607" lon="120.83534244217506"><ele>52.0</ele><time>2026-03-22T02:59:31Z</time></trkpt><trkpt lat="24.54487540638917" lon="120.83515579091738"><ele>52.5</ele><time>2026-03-22T02:59:32Z</time></trkpt><trkpt lat="24.544666308518252" lon="120.83496827807014"><ele>53.0</ele><time>2026-03-22T02:59:33Z</time></trkpt><trkpt lat="24.54445669383925" lon="120.83477988664133"><ele>53.0</ele><time>2026-03-22T02:59:34Z</time></trkpt><trkpt lat="24.54424545440833" lon="120.83459177294405"><ele>53.0</ele><time>2026-03-22T02:59:35Z</time></trkpt><trkpt lat="24.544033255402468" lon="120.83440357380333"><ele>54.0</ele><time>2026-03-22T02:59:36Z</time></trkpt><trkpt lat="24.54382089567207" lon="120.83421384588158"><ele>55.0</ele><time>2026-03-22T02:59:37Z</time></trkpt><trkpt lat="24.54360750039486" lon="120.8340258556039"><ele>56.0</ele><time>2026-03-22T02:59:38Z</time></trkpt><trkpt lat="24.543393981929643" lon="120.83383673956226"><ele>57.0</ele><time>2026-03-22T02:59:39Z</time></trkpt><trkpt lat="24.543179872610132" lon="120.83364672697104"><ele>55.5</ele><time>2026-03-22T02:59:40Z</time></trkpt><trkpt lat="24.54296507580304" lon="120.83345573174451"><ele>54.0</ele><time>2026-03-22T02:59:41Z</time></trkpt><trkpt lat="24.54275085231518" lon="120.83326282267534"><ele>54.0</ele><time>2026-03-22T02:59:42Z</time></trkpt><trkpt lat="24.542536940187645" lon="120.83306907395162"><ele>54.0</ele><time>2026-03-22T02:59:43Z</time></trkpt><trkpt lat="24.54232131752119" lon="120.83287544569366"><ele>54.0</ele><time>2026-03-22T02:59:44Z</time></trkpt><trkpt lat="24.542104655078482" lon="120.83268350842735"><ele>54.0</ele><time>2026-03-22T02:59:45Z</time></trkpt><trkpt lat="24.54188695930996" lon="120.83249079010311"><ele>55.0</ele><time>2026-03-22T02:59:46Z</time></trkpt><trkpt lat="24.54166909277714" lon="120.83229831833077"><ele>56.0</ele><time>2026-03-22T02:59:47Z</time></trkpt><trkpt lat="24.541450992032246" lon="120.83210575170106"><ele>56.0</ele><time>2026-03-22T02:59:48Z</time></trkpt><trkpt lat="24.541232262068448" lon="120.83191485888088"><ele>56.0</ele><time>2026-03-22T02:59:49Z</time></trkpt><trkpt lat="24.54101191615398" lon="120.83172532868144"><ele>54.5</ele><time>2026-03-22T02:59:50Z</time></trkpt><trkpt lat="24.540790762800487" lon="120.8315371673884"><ele>53.0</ele><time>2026-03-22T02:59:51Z</time></trkpt><trkpt lat="24.54056750874544" lon="120.8313533081503"><ele>55.5</ele><time>2026-03-22T02:59:52Z</time></trkpt><trkpt lat="24.540341313820765" lon="120.8311740413752"><ele>58.0</ele><time>2026-03-22T02:59:53Z</time></trkpt><trkpt lat="24.540112659866153" lon="120.83099843006076"><ele>57.5</ele><time>2026-03-22T02:59:54Z</time></trkpt><trkpt lat="24.53988188687316" lon="120.83082842698629"><ele>57.0</ele><time>2026-03-22T02:59:55Z</time></trkpt><trkpt lat="24.539648878499495" lon="120.83066225868325"><ele>56.5</ele><time>2026-03-22T02:59:56Z</time></trkpt><trkpt lat="24.539412946893197" lon="120.83050205002243"><ele>56.0</ele><time>2026-03-22T02:59:57Z</time></trkpt><trkpt lat="24.5391748911537" lon="120.83034863837146"><ele>56.0</ele><time>2026-03-22T02:59:58Z</time></trkpt><trkpt lat="24.538933837773197" lon="120.83020044454304"><ele>56.0</ele><time>2026-03-22T02:59:59Z</time></trkpt><trkpt lat="24.53869088260723" lon="120.8300587247685"><ele>58.0</ele><time>2026-03-22T03:00:00Z</time></trkpt><trkpt lat="24.53844540734845" lon="120.82992295408482"><ele>60.0</ele><time>2026-03-22T03:00:01Z</time></trkpt><trkpt lat="24.538198383816233" lon="120.82979282168213"><ele>60.0</ele><time>2026-03-22T03:00:02Z</time></trkpt><trkpt lat="24.537949502860908" lon="120.82966788465573"><ele>60.0</ele><time>2026-03-22T03:00:03Z</time></trkpt><trkpt lat="24.537699527529135" lon="120.82954750830213"><ele>59.5</ele><time>2026-03-22T03:00:04Z</time></trkpt><trkpt lat="24.537448367034244" lon="120.82943331012946"><ele>59.0</ele><time>2026-03-22T03:00:05Z</time></trkpt><trkpt lat="24.537194886826967" lon="120.82932457734924"><ele>60.5</ele><time>2026-03-22T03:00:06Z</time></trkpt><trkpt lat="24.53694155428093" lon="120.82921907614173"><ele>62.0</ele><time>2026-03-22T03:00:07Z</time></trkpt><trkpt lat="24.5366880485111" lon="120.82911662290576"><ele>62.0</ele><time>2026-03-22T03:00:08Z</time></trkpt><trkpt lat="24.536434070409005" lon="120.82901687480077"><ele>62.0</ele><time>2026-03-22T03:00:09Z</time></trkpt><trkpt lat="24.536180258231614" lon="120.82891929936082"><ele>62.0</ele><time>2026-03-22T03:00:10Z</time></trkpt><trkpt lat="24.535925275943423" lon="120.82882649273596"><ele>62.0</ele><time>2026-03-22T03:00:11Z</time></trkpt><trkpt lat="24.535669640883437" lon="120.82873742869751"><ele>62.0</ele><time>2026-03-22T03:00:12Z</time></trkpt><trkpt lat="24.53541340259098" lon="120.82865477495216"><ele>62.0</ele><time>2026-03-22T03:00:13Z</time></trkpt><trkpt lat="24.535157060786062" lon="120.8285750908952"><ele>62.5</ele><time>2026-03-22T03:00:14Z</time></trkpt><trkpt lat="24.53490105894963" lon="120.82849582585891"><ele>63.0</ele><time>2026-03-22T03:00:15Z</time></trkpt><trkpt lat="24.53464479907747" lon="120.82842074091006"><ele>64.5</ele><time>2026-03-22T03:00:16Z</time></trkpt><trkpt lat="24.534389148051204" lon="120.82834543885144"><ele>66.0</ele><time>2026-03-22T03:00:17Z</time></trkpt><trkpt lat="24.534134373428277" lon="120.82826758714941"><ele>66.0</ele><time>2026-03-22T03:00:18Z</time></trkpt><trkpt lat="24.533879836288232" lon="120.82819020573885"><ele>66.0</ele><time>2026-03-22T03:00:19Z</time></trkpt><trkpt lat="24.533625762283677" lon="120.82811456848732"><ele>66.0</ele><time>2026-03-22T03:00:20Z</time></trkpt><trkpt lat="24.533373279960085" lon="120.82803713407085"><ele>66.0</ele><time>2026-03-22T03:00:21Z</time></trkpt><trkpt lat="24.533120909994267" lon="120.82795943171425"><ele>67.5</ele><time>2026-03-22T03:00:22Z</time></trkpt><trkpt lat="24.532869228344385" lon="120.82788153193997"><ele>69.0</ele><time>2026-03-22T03:00:23Z</time></trkpt><trkpt lat="24.5326187601312" lon="120.82779911056902"><ele>69.0</ele><time>2026-03-22T03:00:24Z</time></trkpt><trkpt lat="24.53237028867577" lon="120.82771390780748"><ele>69.0</ele><time>2026-03-22T03:00:25Z</time></trkpt><trkpt lat="24.53212376770667" lon="120.82762507047813"><ele>69.0</ele><time>2026-03-22T03:00:26Z</time></trkpt><trkpt lat="24.53187830060393" lon="120.82753324912242"><ele>69.0</ele><time>2026-03-22T03:00:27Z</time></trkpt><trkpt lat="24.53163435363954" lon="120.82743607202079"><ele>69.0</ele><time>2026-03-22T03:00:28Z</time></trkpt><trkpt lat="24.531392000444207" lon="120.8273363754438"><ele>69.0</ele><time>2026-03-22T03:00:29Z</time></trkpt><trkpt lat="24.5311504052741" lon="120.82723320822699"><ele>69.5</ele><time>2026-03-22T03:00:30Z</time></trkpt><trkpt lat="24.530912052146963" lon="120.82712518280911"><ele>70.0</ele><time>2026-03-22T03:00:31Z</time></trkpt><trkpt lat="24.53067476154295" lon="120.82701125273502"><ele>70.0</ele><time>2026-03-22T03:00:32Z</time></trkpt><trkpt lat="24.530440001361374" lon="120.82689273037664"><ele>70.0</ele><time>2026-03-22T03:00:33Z</time></trkpt><trkpt lat="24.530208073256063" lon="120.82676789068806"><ele>70.5</ele><time>2026-03-22T03:00:34Z</time></trkpt><trkpt lat="24.529977193043496" lon="120.8266371107546"><ele>71.0</ele><time>2026-03-22T03:00:35Z</time></trkpt><trkpt lat="24.529749322591304" lon="120.82650075163858"><ele>70.5</ele><time>2026-03-22T03:00:36Z</time></trkpt><trkpt lat="24.529523469213647" lon="120.82635811742735"><ele>70.0</ele><time>2026-03-22T03:00:37Z</time></trkpt><trkpt lat="24.529299066646065" lon="120.82621027062685"><ele>70.0</ele><time>2026-03-22T03:00:38Z</time></trkpt><trkpt lat="24.52907654132183" lon="120.82605940937968"><ele>70.0</ele><time>2026-03-22T03:00:39Z</time></trkpt><trkpt lat="24.528856989921195" lon="120.82590249347277"><ele>71.0</ele><time>2026-03-22T03:00:40Z</time></trkpt><trkpt lat="24.52864095620082" lon="120.82573982769807"><ele>72.0</ele><time>2026-03-22T03:00:41Z</time></trkpt><trkpt lat="24.528427177604286" lon="120.82557269948327"><ele>72.0</ele><time>2026-03-22T03:00:42Z</time></trkpt><trkpt lat="24.528216560387545" lon="120.82539944287116"><ele>72.0</ele><time>2026-03-22T03:00:43Z</time></trkpt><trkpt lat="24.528008239051907" lon="120.82522257394977"><ele>72.0</ele><time>2026-03-22T03:00:44Z</time></trkpt><trkpt lat="24.52780262120648" lon="120.8250404774707"><ele>72.0</ele><time>2026-03-22T03:00:45Z</time></trkpt><trkpt lat="24.527598269665102" lon="120.82485064496937"><ele>72.0</ele><time>2026-03-22T03:00:46Z</time></trkpt><trkpt lat="24.527396239343616" lon="120.82465335429009"><ele>72.0</ele><time>2026-03-22T03:00:47Z</time></trkpt><trkpt lat="24.52719712591241" lon="120.82445017150457"><ele>71.5</ele><time>2026-03-22T03:00:48Z</time></trkpt><trkpt lat="24.52700068102923" lon="120.82423839091221"><ele>71.0</ele><time>2026-03-22T03:00:49Z</time></trkpt><trkpt lat="24.526805485184997" lon="120.82402129855346"><ele>71.0</ele><time>2026-03-22T03:00:50Z</time></trkpt><trkpt lat="24.526613093715913" lon="120.8237981724918"><ele>71.0</ele><time>2026-03-22T03:00:51Z</time></trkpt><trkpt lat="24.526423333620365" lon="120.82356839897494"><ele>72.0</ele><time>2026-03-22T03:00:52Z</time></trkpt><trkpt lat="24.52623766404151" lon="120.8233334768406"><ele>73.0</ele><time>2026-03-22T03:00:53Z</time></trkpt><trkpt lat="24.52605527451063" lon="120.82309408926741"><ele>73.0</ele><time>2026-03-22T03:00:54Z</time></trkpt><trkpt lat="24.525874579373475" lon="120.82285158499377"><ele>73.0</ele><time>2026-03-22T03:00:55Z</time></trkpt><trkpt lat="24.525699922631908" lon="120.82261170757256"><ele>73.0</ele><time>2026-03-22T03:00:56Z</time></trkpt><trkpt lat="24.525526593615538" lon="120.82237251031528"><ele>73.0</ele><time>2026-03-22T03:00:57Z</time></trkpt><trkpt lat="24.52535548927494" lon="120.82213101790838"><ele>73.0</ele><time>2026-03-22T03:00:58Z</time></trkpt><trkpt lat="24.525190567126668" lon="120.82188504014907"><ele>73.0</ele><time>2026-03-22T03:00:59Z</time></trkpt><trkpt lat="24.525029166661707" lon="120.82163498339455"><ele>75.0</ele><time>2026-03-22T03:01:00Z</time></trkpt><trkpt lat="24.5248719693322" lon="120.82138114631893"><ele>77.0</ele><time>2026-03-22T03:01:01Z</time></trkpt><trkpt lat="24.524717515484262" lon="120.821123691868"><ele>76.0</ele><time>2026-03-22T03:01:02Z</time></trkpt><trkpt lat="24.52456387221489" lon="120.82086555923233"><ele>75.0</ele><time>2026-03-22T03:01:03Z</time></trkpt><trkpt lat="24.524414357632224" lon="120.82060706251714"><ele>74.5</ele><time>2026-03-22T03:01:04Z</time></trkpt><trkpt lat="24.52426988199268" lon="120.8203490734289"><ele>74.0</ele><time>2026-03-22T03:01:05Z</time></trkpt><trkpt lat="24.524127334381962" lon="120.82009110607203"><ele>73.5</ele><time>2026-03-22T03:01:06Z</time></trkpt><trkpt lat="24.523982898439733" lon="120.81983823562939"><ele>73.0</ele><time>2026-03-22T03:01:07Z</time></trkpt><trkpt lat="24.52383723315914" lon="120.81958942051185"><ele>75.0</ele><time>2026-03-22T03:01:08Z</time></trkpt><trkpt lat="24.52369207784954" lon="120.81934278110806"><ele>77.0</ele><time>2026-03-22T03:01:09Z</time></trkpt><trkpt lat="24.523547265560268" lon="120.81909771340567"><ele>79.0</ele><time>2026-03-22T03:01:10Z</time></trkpt><trkpt lat="24.523402999429038" lon="120.81885658506593"><ele>81.0</ele><time>2026-03-22T03:01:11Z</time></trkpt><trkpt lat="24.523257026418616" lon="120.81861610444996"><ele>78.0</ele><time>2026-03-22T03:01:12Z</time></trkpt><trkpt lat="24.52311235879095" lon="120.81837765933327"><ele>75.0</ele><time>2026-03-22T03:01:13Z</time></trkpt><trkpt lat="24.522967021496736" lon="120.81814034188807"><ele>76.0</ele><time>2026-03-22T03:01:14Z</time></trkpt><trkpt lat="24.522818873084244" lon="120.81790689147738"><ele>77.0</ele><time>2026-03-22T03:01:15Z</time></trkpt><trkpt lat="24.522669614238314" lon="120.8176770751093"><ele>77.0</ele><time>2026-03-22T03:01:16Z</time></trkpt><trkpt lat="24.52251870087093" lon="120.81744822428246"><ele>77.0</ele><time>2026-03-22T03:01:17Z</time></trkpt><trkpt lat="24.522367770659596" lon="120.81721991048606"><ele>77.0</ele><time>2026-03-22T03:01:18Z</time></trkpt><trkpt lat="24.522212869568957" lon="120.81699370788205"><ele>77.0</ele><time>2026-03-22T03:01:19Z</time></trkpt><trkpt lat="24.522053329716343" lon="120.81676959063785"><ele>77.0</ele><time>2026-03-22T03:01:20Z</time></trkpt><trkpt lat="24.521889304180704" lon="120.81654891021985"><ele>77.0</ele><time>2026-03-22T03:01:21Z</time></trkpt><trkpt lat="24.52172209615178" lon="120.81632978822059"><ele>77.0</ele><time>2026-03-22T03:01:22Z</time></trkpt><trkpt lat="24.521552160382196" lon="120.81611313472325"><ele>77.0</ele><time>2026-03-22T03:01:23Z</time></trkpt><trkpt lat="24.521377586757716" lon="120.8158978665546"><ele>77.0</ele><time>2026-03-22T03:01:24Z</time></trkpt><trkpt lat="24.521200834361178" lon="120.81568539388356"><ele>77.0</ele><time>2026-03-22T03:01:25Z</time></trkpt><trkpt lat="24.52102146083586" lon="120.815474617875"><ele>77.0</ele><time>2026-03-22T03:01:26Z</time></trkpt><trkpt lat="24.52084007091525" lon="120.81526592428906"><ele>77.0</ele><time>2026-03-22T03:01:27Z</time></trkpt><trkpt lat="24.520655701557985" lon="120.8150601428667"><ele>76.0</ele><time>2026-03-22T03:01:28Z</time></trkpt><trkpt lat="24.520469060185977" lon="120.81485736042715"><ele>75.0</ele><time>2026-03-22T03:01:29Z</time></trkpt><trkpt lat="24.520279889878157" lon="120.81465703234814"><ele>75.0</ele><time>2026-03-22T03:01:30Z</time></trkpt><trkpt lat="24.520088740362233" lon="120.81445900438193"><ele>75.0</ele><time>2026-03-22T03:01:31Z</time></trkpt><trkpt lat="24.519894176054073" lon="120.81426691357221"><ele>74.5</ele><time>2026-03-22T03:01:32Z</time></trkpt><trkpt lat="24.519696948938066" lon="120.81407761396673"><ele>74.0</ele><time>2026-03-22T03:01:33Z</time></trkpt><trkpt lat="24.519497423787165" lon="120.81389321271674"><ele>76.5</ele><time>2026-03-22T03:01:34Z</time></trkpt><trkpt lat="24.51929568005153" lon="120.8137119013027"><ele>79.0</ele><time>2026-03-22T03:01:35Z</time></trkpt><trkpt lat="24.519092321611925" lon="120.81353330662391"><ele>79.0</ele><time>2026-03-22T03:01:36Z</time></trkpt><trkpt lat="24.518887188273666" lon="120.81335838153556"><ele>79.0</ele><time>2026-03-22T03:01:37Z</time></trkpt><trkpt lat="24.518681403661592" lon="120.81318601970551"><ele>79.5</ele><time>2026-03-22T03:01:38Z</time></trkpt><trkpt lat="24.518473002110408" lon="120.81301670367232"><ele>80.0</ele><time>2026-03-22T03:01:39Z</time></trkpt><trkpt lat="24.518262368191174" lon="120.81285308450688"><ele>80.0</ele><time>2026-03-22T03:01:40Z</time></trkpt><trkpt lat="24.51805178043264" lon="120.81269338301827"><ele>80.0</ele><time>2026-03-22T03:01:41Z</time></trkpt><trkpt lat="24.517840007418112" lon="120.81253739375946"><ele>80.5</ele><time>2026-03-22T03:01:42Z</time></trkpt><trkpt lat="24.51762594923399" lon="120.81238540198201"><ele>81.0</ele><time>2026-03-22T03:01:43Z</time></trkpt><trkpt lat="24.517410705572562" lon="120.81223635603442"><ele>81.0</ele><time>2026-03-22T03:01:44Z</time></trkpt><trkpt lat="24.51719385118448" lon="120.81209098042731"><ele>81.0</ele><time>2026-03-22T03:01:45Z</time></trkpt><trkpt lat="24.51697617485127" lon="120.8119486368998"><ele>82.0</ele><time>2026-03-22T03:01:46Z</time></trkpt><trkpt lat="24.51675583706807" lon="120.81180998666072"><ele>83.0</ele><time>2026-03-22T03:01:47Z</time></trkpt><trkpt lat="24.516535278170046" lon="120.81167586496635"><ele>83.0</ele><time>2026-03-22T03:01:48Z</time></trkpt><trkpt lat="24.51631224996367" lon="120.81154341403362"><ele>83.0</ele><time>2026-03-22T03:01:49Z</time></trkpt><trkpt lat="24.51608789394836" lon="120.81141538753614"><ele>82.5</ele><time>2026-03-22T03:01:50Z</time></trkpt><trkpt lat="24.51586390449848" lon="120.81128833232378"><ele>82.0</ele><time>2026-03-22T03:01:51Z</time></trkpt><trkpt lat="24.515639186861854" lon="120.81116249784775"><ele>82.0</ele><time>2026-03-22T03:01:52Z</time></trkpt><trkpt lat="24.51541291291206" lon="120.81104112416233"><ele>82.0</ele><time>2026-03-22T03:01:53Z</time></trkpt><trkpt lat="24.515186370064825" lon="120.81092113102498"><ele>83.0</ele><time>2026-03-22T03:01:54Z</time></trkpt><trkpt lat="24.51495998116532" lon="120.81080176569864"><ele>84.0</ele><time>2026-03-22T03:01:55Z</time></trkpt><trkpt lat="24.514734129924484" lon="120.81068383005963"><ele>85.0</ele><time>2026-03-22T03:01:56Z</time></trkpt><trkpt lat="24.514507434261436" lon="120.81056504415285"><ele>86.0</ele><time>2026-03-22T03:01:57Z</time></trkpt><trkpt lat="24.51428095071038" lon="120.8104449554748"><ele>86.0</ele><time>2026-03-22T03:01:58Z</time></trkpt><trkpt lat="24.514054851700934" lon="120.81032633085402"><ele>86.0</ele><time>2026-03-22T03:01:59Z</time></trkpt><trkpt lat="24.513828795697513" lon="120.81020713366189"><ele>84.5</ele><time>2026-03-22T03:02:00Z</time></trkpt><trkpt lat="24.513603075924" lon="120.81008771448396"><ele>83.0</ele><time>2026-03-22T03:02:01Z</time></trkpt><trkpt lat="24.513379104025233" lon="120.80996598355476"><ele>83.0</ele><time>2026-03-22T03:02:02Z</time></trkpt><trkpt lat="24.513158152590616" lon="120.80984037543529"><ele>83.0</ele><time>2026-03-22T03:02:03Z</time></trkpt><trkpt lat="24.512938437130718" lon="120.80971029856761"><ele>83.0</ele><time>2026-03-22T03:02:04Z</time></trkpt><trkpt lat="24.51271987632705" lon="120.80957681183787"><ele>83.0</ele><time>2026-03-22T03:02:05Z</time></trkpt><trkpt lat="24.51250194032589" lon="120.80944349313211"><ele>84.5</ele><time>2026-03-22T03:02:06Z</time></trkpt><trkpt lat="24.512285455620127" lon="120.8093074416088"><ele>86.0</ele><time>2026-03-22T03:02:07Z</time></trkpt><trkpt lat="24.512072189313912" lon="120.80916708460656"><ele>87.0</ele><time>2026-03-22T03:02:08Z</time></trkpt><trkpt lat="24.51186302056421" lon="120.80902251626681"><ele>88.0</ele><time>2026-03-22T03:02:09Z</time></trkpt><trkpt lat="24.51165781111017" lon="120.80887252911457"><ele>88.0</ele><time>2026-03-22T03:02:10Z</time></trkpt><trkpt lat="24.511454607207508" lon="120.8087210074877"><ele>88.0</ele><time>2026-03-22T03:02:11Z</time></trkpt><trkpt lat="24.511252793673844" lon="120.80856593776"><ele>87.0</ele><time>2026-03-22T03:02:12Z</time></trkpt><trkpt lat="24.511052909367095" lon="120.80840998852155"><ele>86.0</ele><time>2026-03-22T03:02:13Z</time></trkpt><trkpt lat="24.51085534864792" lon="120.80824955382751"><ele>86.0</ele><time>2026-03-22T03:02:14Z</time></trkpt><trkpt lat="24.510660846375952" lon="120.80808244420605"><ele>86.0</ele><time>2026-03-22T03:02:15Z</time></trkpt><trkpt lat="24.51046867572611" lon="120.8079119041993"><ele>87.5</ele><time>2026-03-22T03:02:16Z</time></trkpt><trkpt lat="24.510279175662067" lon="120.80773795357683"><ele>89.0</ele><time>2026-03-22T03:02:17Z</time></trkpt><trkpt lat="24.510091420651428" lon="120.80756130926255"><ele>89.0</ele><time>2026-03-22T03:02:18Z</time></trkpt><trkpt lat="24.509905579719597" lon="120.80738273059035"><ele>89.0</ele><time>2026-03-22T03:02:19Z</time></trkpt><trkpt lat="24.509722572458152" lon="120.80720166190288"><ele>89.0</ele><time>2026-03-22T03:02:20Z</time></trkpt><trkpt lat="24.5095427192413" lon="120.80701687836687"><ele>89.0</ele><time>2026-03-22T03:02:21Z</time></trkpt><trkpt lat="24.509366975542168" lon="120.8068264959499"><ele>89.0</ele><time>2026-03-22T03:02:22Z</time></trkpt><trkpt lat="24.509193902961567" lon="120.8066324618139"><ele>89.0</ele><time>2026-03-22T03:02:23Z</time></trkpt><trkpt lat="24.50902369836551" lon="120.80643711567716"><ele>89.0</ele><time>2026-03-22T03:02:24Z</time></trkpt><trkpt lat="24.508857158776333" lon="120.80623985116885"><ele>89.0</ele><time>2026-03-22T03:02:25Z</time></trkpt><trkpt lat="24.508692694559446" lon="120.80603789774756"><ele>90.5</ele><time>2026-03-22T03:02:26Z</time></trkpt><trkpt lat="24.50853130750688" lon="120.8058346574059"><ele>92.0</ele><time>2026-03-22T03:02:27Z</time></trkpt><trkpt lat="24.508373093838838" lon="120.80562787862604"><ele>92.0</ele><time>2026-03-22T03:02:28Z</time></trkpt><trkpt lat="24.508217759770346" lon="120.80541759228672"><ele>92.0</ele><time>2026-03-22T03:02:29Z</time></trkpt><trkpt lat="24.508062912303707" lon="120.80520537024589"><ele>90.5</ele><time>2026-03-22T03:02:30Z</time></trkpt><trkpt lat="24.507910698937216" lon="120.80499210038015"><ele>89.0</ele><time>2026-03-22T03:02:31Z</time></trkpt><trkpt lat="24.507762647482856" lon="120.80477516947023"><ele>92.5</ele><time>2026-03-22T03:02:32Z</time></trkpt><trkpt lat="24.507618973461547" lon="120.8045542269092"><ele>96.0</ele><time>2026-03-22T03:02:33Z</time></trkpt><trkpt lat="24.507477581815394" lon="120.80433165319609"><ele>95.5</ele><time>2026-03-22T03:02:34Z</time></trkpt><trkpt lat="24.507340886978728" lon="120.80410491422509"><ele>95.0</ele><time>2026-03-22T03:02:35Z</time></trkpt><trkpt lat="24.50720680625989" lon="120.80387571750494"><ele>95.0</ele><time>2026-03-22T03:02:36Z</time></trkpt><trkpt lat="24.507075693981417" lon="120.80364507349441"><ele>95.0</ele><time>2026-03-22T03:02:37Z</time></trkpt><trkpt lat="24.506948428634708" lon="120.80341222412488"><ele>94.5</ele><time>2026-03-22T03:02:38Z</time></trkpt><trkpt lat="24.50682542714891" lon="120.80317531739058"><ele>94.0</ele><time>2026-03-22T03:02:39Z</time></trkpt><trkpt lat="24.506705881225024" lon="120.80293552428655"><ele>94.0</ele><time>2026-03-22T03:02:40Z</time></trkpt><trkpt lat="24.50658890060279" lon="120.80269648557619"><ele>94.0</ele><time>2026-03-22T03:02:41Z</time></trkpt><trkpt lat="24.506473878344043" lon="120.80245528459803"><ele>94.0</ele><time>2026-03-22T03:02:42Z</time></trkpt><trkpt lat="24.506363919481345" lon="120.80220943722166"><ele>94.0</ele><time>2026-03-22T03:02:43Z</time></trkpt><trkpt lat="24.506258174144552" lon="120.80196323561098"><ele>93.5</ele><time>2026-03-22T03:02:44Z</time></trkpt><trkpt lat="24.506155548695656" lon="120.80171702409274"><ele>93.0</ele><time>2026-03-22T03:02:45Z</time></trkpt><trkpt lat="24.506054747584752" lon="120.80146787331955"><ele>93.0</ele><time>2026-03-22T03:02:46Z</time></trkpt><trkpt lat="24.505956405033167" lon="120.80121779103479"><ele>93.0</ele><time>2026-03-22T03:02:47Z</time></trkpt><trkpt lat="24.50586148201735" lon="120.80096652843186"><ele>94.0</ele><time>2026-03-22T03:02:48Z</time></trkpt><trkpt lat="24.505767149358707" lon="120.80071506252176"><ele>95.0</ele><time>2026-03-22T03:02:49Z</time></trkpt><trkpt lat="24.505674603337344" lon="120.8004629784255"><ele>95.0</ele><time>2026-03-22T03:02:50Z</time></trkpt><trkpt lat="24.505584309504776" lon="120.80021066254112"><ele>95.0</ele><time>2026-03-22T03:02:51Z</time></trkpt><trkpt lat="24.505493849073986" lon="120.79995715237068"><ele>95.5</ele><time>2026-03-22T03:02:52Z</time></trkpt><trkpt lat="24.505405166617123" lon="120.79970398801181"><ele>96.0</ele><time>2026-03-22T03:02:53Z</time></trkpt><trkpt lat="24.505314426855488" lon="120.79945008697864"><ele>95.5</ele><time>2026-03-22T03:02:54Z</time></trkpt><trkpt lat="24.50522459737886" lon="120.79919641115819"><ele>95.0</ele><time>2026-03-22T03:02:55Z</time></trkpt><trkpt lat="24.50513559612373" lon="120.79894289335569"><ele>95.0</ele><time>2026-03-22T03:02:56Z</time></trkpt><trkpt lat="24.505046048160164" lon="120.79868854219421"><ele>95.0</ele><time>2026-03-22T03:02:57Z</time></trkpt><trkpt lat="24.504956524831815" lon="120.7984338271849"><ele>94.0</ele><time>2026-03-22T03:02:58Z</time></trkpt><trkpt lat="24.504867254772023" lon="120.79817952556652"><ele>93.0</ele><time>2026-03-22T03:02:59Z</time></trkpt><trkpt lat="24.50477713903633" lon="120.79792630333533"><ele>93.0</ele><time>2026-03-22T03:03:00Z</time></trkpt><trkpt lat="24.50468632414057" lon="120.79767375256048"><ele>93.0</ele><time>2026-03-22T03:03:01Z</time></trkpt><trkpt lat="24.504594591398913" lon="120.79742101035357"><ele>93.5</ele><time>2026-03-22T03:03:02Z</time></trkpt><trkpt lat="24.504503859992028" lon="120.79716813511746"><ele>94.0</ele><time>2026-03-22T03:03:03Z</time></trkpt><trkpt lat="24.504413613044356" lon="120.79691461931102"><ele>93.0</ele><time>2026-03-22T03:03:04Z</time></trkpt><trkpt lat="24.504324242671792" lon="120.79666169755698"><ele>92.0</ele><time>2026-03-22T03:03:05Z</time></trkpt><trkpt lat="24.50423397854671" lon="120.79640837690417"><ele>92.0</ele><time>2026-03-22T03:03:06Z</time></trkpt><trkpt lat="24.504143670692343" lon="120.79615591544476"><ele>92.0</ele><time>2026-03-22T03:03:07Z</time></trkpt><trkpt lat="24.5040529228319" lon="120.79590365547031"><ele>91.0</ele><time>2026-03-22T03:03:08Z</time></trkpt><trkpt lat="24.50396479530811" lon="120.79565168787329"><ele>90.0</ele><time>2026-03-22T03:03:09Z</time></trkpt><trkpt lat="24.503876841873964" lon="120.79539995300254"><ele>90.5</ele><time>2026-03-22T03:03:10Z</time></trkpt><trkpt lat="24.503789336567845" lon="120.79514904520036"><ele>91.0</ele><time>2026-03-22T03:03:11Z</time></trkpt><trkpt lat="24.503700998205616" lon="120.794898947898"><ele>92.5</ele><time>2026-03-22T03:03:12Z</time></trkpt><trkpt lat="24.503613335302656" lon="120.79465103783554"><ele>94.0</ele><time>2026-03-22T03:03:13Z</time></trkpt><trkpt lat="24.50352553006683" lon="120.79440215630291"><ele>94.0</ele><time>2026-03-22T03:03:14Z</time></trkpt><trkpt lat="24.503435426783557" lon="120.79415217674809"><ele>94.0</ele><time>2026-03-22T03:03:15Z</time></trkpt><trkpt lat="24.503345586119845" lon="120.79390295923716"><ele>94.0</ele><time>2026-03-22T03:03:16Z</time></trkpt><trkpt lat="24.50325593041726" lon="120.7936530382341"><ele>94.0</ele><time>2026-03-22T03:03:17Z</time></trkpt><trkpt lat="24.503166565586163" lon="120.79340355705297"><ele>97.5</ele><time>2026-03-22T03:03:18Z</time></trkpt><trkpt lat="24.50307647609167" lon="120.7931542033471"><ele>101.0</ele><time>2026-03-22T03:03:19Z</time></trkpt><trkpt lat="24.50298752215711" lon="120.79290306619441"><ele>109.5</ele><time>2026-03-22T03:03:20Z</time></trkpt><trkpt lat="24.502899086196198" lon="120.79265361804926"><ele>118.0</ele><time>2026-03-22T03:03:21Z</time></trkpt><trkpt lat="24.502810151631003" lon="120.79240463481186"><ele>118.0</ele><time>2026-03-22T03:03:22Z</time></trkpt><trkpt lat="24.502719658177053" lon="120.7921569431041"><ele>118.0</ele><time>2026-03-22T03:03:23Z</time></trkpt><trkpt lat="24.50262411597169" lon="120.79191201648321"><ele>124.5</ele><time>2026-03-22T03:03:24Z</time></trkpt><trkpt lat="24.502526517934935" lon="120.7916706198864"><ele>131.0</ele><time>2026-03-22T03:03:25Z</time></trkpt><trkpt lat="24.502427663119782" lon="120.79142961691423"><ele>131.0</ele><time>2026-03-22T03:03:26Z</time></trkpt><trkpt lat="24.502325883746458" lon="120.7911906318324"><ele>131.0</ele><time>2026-03-22T03:03:27Z</time></trkpt><trkpt lat="24.50222206378273" lon="120.79095345346913"><ele>136.0</ele><time>2026-03-22T03:03:28Z</time></trkpt><trkpt lat="24.50211407654849" lon="120.79071823012616"><ele>141.0</ele><time>2026-03-22T03:03:29Z</time></trkpt><trkpt lat="24.502003454108344" lon="120.79048459955081"><ele>142.0</ele><time>2026-03-22T03:03:30Z</time></trkpt><trkpt lat="24.501892750160465" lon="120.79025169619825"><ele>143.0</ele><time>2026-03-22T03:03:31Z</time></trkpt><trkpt lat="24.50178289610007" lon="120.79001943731085"><ele>143.0</ele><time>2026-03-22T03:03:32Z</time></trkpt><trkpt lat="24.501670719194173" lon="120.78978889996219"><ele>143.0</ele><time>2026-03-22T03:03:33Z</time></trkpt><trkpt lat="24.501552789888475" lon="120.78956275247162"><ele>150.0</ele><time>2026-03-22T03:03:34Z</time></trkpt><trkpt lat="24.50142791228376" lon="120.7893395316936"><ele>157.0</ele><time>2026-03-22T03:03:35Z</time></trkpt><trkpt lat="24.5012984038393" lon="120.78911940979167"><ele>155.5</ele><time>2026-03-22T03:03:36Z</time></trkpt><trkpt lat="24.50116387058814" lon="120.788901464822"><ele>154.0</ele><time>2026-03-22T03:03:37Z</time></trkpt><trkpt lat="24.501024648419744" lon="120.78868740625036"><ele>154.0</ele><time>2026-03-22T03:03:38Z</time></trkpt><trkpt lat="24.500882269009217" lon="120.78847515112095"><ele>154.0</ele><time>2026-03-22T03:03:39Z</time></trkpt><trkpt lat="24.500736372442496" lon="120.7882647319487"><ele>154.0</ele><time>2026-03-22T03:03:40Z</time></trkpt><trkpt lat="24.500586800956476" lon="120.78805641014516"><ele>154.0</ele><time>2026-03-22T03:03:41Z</time></trkpt><trkpt lat="24.50043225911028" lon="120.78784984944886"><ele>154.0</ele><time>2026-03-22T03:03:42Z</time></trkpt><trkpt lat="24.500274229012465" lon="120.78764488178099"><ele>154.0</ele><time>2026-03-22T03:03:43Z</time></trkpt><trkpt lat="24.500111169356693" lon="120.78744159364553"><ele>154.0</ele><time>2026-03-22T03:03:44Z</time></trkpt><trkpt lat="24.499944112114886" lon="120.7872399239756"><ele>154.0</ele><time>2026-03-22T03:03:45Z</time></trkpt><trkpt lat="24.49977348347561" lon="120.78703895748399"><ele>149.5</ele><time>2026-03-22T03:03:46Z</time></trkpt><trkpt lat="24.499597784635924" lon="120.786838644226"><ele>145.0</ele><time>2026-03-22T03:03:47Z</time></trkpt><trkpt lat="24.49941562459492" lon="120.786642006512"><ele>144.0</ele><time>2026-03-22T03:03:48Z</time></trkpt><trkpt lat="24.499225817617997" lon="120.78644917324371"><ele>143.0</ele><time>2026-03-22T03:03:49Z</time></trkpt><trkpt lat="24.499029363554158" lon="120.78626094139061"><ele>143.0</ele><time>2026-03-22T03:03:50Z</time></trkpt><trkpt lat="24.49883196913579" lon="120.78607895266768"><ele>143.0</ele><time>2026-03-22T03:03:51Z</time></trkpt><trkpt lat="24.498634285280936" lon="120.78590126963572"><ele>141.5</ele><time>2026-03-22T03:03:52Z</time></trkpt><trkpt lat="24.498436710513445" lon="120.78572180129619"><ele>140.0</ele><time>2026-03-22T03:03:53Z</time></trkpt><trkpt lat="24.498236306744477" lon="120.78554096201867"><ele>140.0</ele><time>2026-03-22T03:03:54Z</time></trkpt><trkpt lat="24.498027955673926" lon="120.78536392738334"><ele>140.0</ele><time>2026-03-22T03:03:55Z</time></trkpt><trkpt lat="24.4978131557448" lon="120.78519022243395"><ele>140.5</ele><time>2026-03-22T03:03:56Z</time></trkpt><trkpt lat="24.497592573066726" lon="120.7850209065771"><ele>141.0</ele><time>2026-03-22T03:03:57Z</time></trkpt><trkpt lat="24.49736410369489" lon="120.78485706751476"><ele>141.0</ele><time>2026-03-22T03:03:58Z</time></trkpt><trkpt lat="24.497133295234562" lon="120.78470113989039"><ele>141.0</ele><time>2026-03-22T03:03:59Z</time></trkpt><trkpt lat="24.496902036136238" lon="120.78454826984064"><ele>141.0</ele><time>2026-03-22T03:04:00Z</time></trkpt><trkpt lat="24.496671596811844" lon="120.7843958784534"><ele>141.0</ele><time>2026-03-22T03:04:01Z</time></trkpt><trkpt lat="24.496439926746163" lon="120.78424814466793"><ele>141.0</ele><time>2026-03-22T03:04:02Z</time></trkpt><trkpt lat="24.496206206547157" lon="120.78410503043236"><ele>141.0</ele><time>2026-03-22T03:04:03Z</time></trkpt><trkpt lat="24.495971935153023" lon="120.78396606739919"><ele>141.0</ele><time>2026-03-22T03:04:04Z</time></trkpt><trkpt lat="24.495735120885808" lon="120.78383086338063"><ele>141.0</ele><time>2026-03-22T03:04:05Z</time></trkpt><trkpt lat="24.49549709321356" lon="120.78370298176189"><ele>141.5</ele><time>2026-03-22T03:04:06Z</time></trkpt><trkpt lat="24.495257685954336" lon="120.78358083038985"><ele>142.0</ele><time>2026-03-22T03:04:07Z</time></trkpt><trkpt lat="24.49501821344438" lon="120.78346181017245"><ele>141.5</ele><time>2026-03-22T03:04:08Z</time></trkpt><trkpt lat="24.49477712810591" lon="120.78334804168512"><ele>141.0</ele><time>2026-03-22T03:04:09Z</time></trkpt><trkpt lat="24.49453505188295" lon="120.78323946554757"><ele>141.0</ele><time>2026-03-22T03:04:10Z</time></trkpt><trkpt lat="24.494291602535878" lon="120.78313647843828"><ele>141.0</ele><time>2026-03-22T03:04:11Z</time></trkpt><trkpt lat="24.4940465562933" lon="120.78303850069342"><ele>141.0</ele><time>2026-03-22T03:04:12Z</time></trkpt><trkpt lat="24.49380149785019" lon="120.78294524695377"><ele>141.0</ele><time>2026-03-22T03:04:13Z</time></trkpt><trkpt lat="24.493554964299314" lon="120.78285737625903"><ele>138.0</ele><time>2026-03-22T03:04:14Z</time></trkpt><trkpt lat="24.49330704487515" lon="120.78277482260519"><ele>135.0</ele><time>2026-03-22T03:04:15Z</time></trkpt><trkpt lat="24.493059652606902" lon="120.78269678933236"><ele>134.0</ele><time>2026-03-22T03:04:16Z</time></trkpt><trkpt lat="24.492811921945734" lon="120.78262185539258"><ele>133.0</ele><time>2026-03-22T03:04:17Z</time></trkpt><trkpt lat="24.49256358799706" lon="120.78255187420605"><ele>133.0</ele><time>2026-03-22T03:04:18Z</time></trkpt><trkpt lat="24.492313173824293" lon="120.78248313064206"><ele>133.0</ele><time>2026-03-22T03:04:19Z</time></trkpt><trkpt lat="24.49205953434395" lon="120.78241524803518"><ele>133.0</ele><time>2026-03-22T03:04:20Z</time></trkpt><trkpt lat="24.491803770250304" lon="120.78235089117284"><ele>133.0</ele><time>2026-03-22T03:04:21Z</time></trkpt><trkpt lat="24.49154466594405" lon="120.78229103010086"><ele>133.0</ele><time>2026-03-22T03:04:22Z</time></trkpt><trkpt lat="24.491282810844112" lon="120.782235068986"><ele>133.0</ele><time>2026-03-22T03:04:23Z</time></trkpt><trkpt lat="24.49101826241102" lon="120.78218392216512"><ele>132.5</ele><time>2026-03-22T03:04:24Z</time></trkpt><trkpt lat="24.490752161066546" lon="120.78213596406715"><ele>132.0</ele><time>2026-03-22T03:04:25Z</time></trkpt><trkpt lat="24.490483617707245" lon="120.78209088296458"><ele>136.0</ele><time>2026-03-22T03:04:26Z</time></trkpt><trkpt lat="24.490213841411254" lon="120.78205026580429"><ele>140.0</ele><time>2026-03-22T03:04:27Z</time></trkpt><trkpt lat="24.489943184801835" lon="120.78201303678962"><ele>140.0</ele><time>2026-03-22T03:04:28Z</time></trkpt><trkpt lat="24.48967176713666" lon="120.78197946627238"><ele>140.0</ele><time>2026-03-22T03:04:29Z</time></trkpt><trkpt lat="24.489398764223562" lon="120.78195047132023"><ele>138.0</ele><time>2026-03-22T03:04:30Z</time></trkpt><trkpt lat="24.48912439739387" lon="120.78192590490325"><ele>136.0</ele><time>2026-03-22T03:04:31Z</time></trkpt><trkpt lat="24.48884926895119" lon="120.78190555911245"><ele>137.0</ele><time>2026-03-22T03:04:32Z</time></trkpt><trkpt lat="24.488573962455465" lon="120.78188831284666"><ele>138.0</ele><time>2026-03-22T03:04:33Z</time></trkpt><trkpt lat="24.488298459470826" lon="120.78187534382049"><ele>138.0</ele><time>2026-03-22T03:04:34Z</time></trkpt><trkpt lat="24.488022970252104" lon="120.78186720762078"><ele>138.0</ele><time>2026-03-22T03:04:35Z</time></trkpt><trkpt lat="24.487747093682255" lon="120.78186342616232"><ele>138.5</ele><time>2026-03-22T03:04:36Z</time></trkpt><trkpt lat="24.48747259483336" lon="120.78186282987559"><ele>139.0</ele><time>2026-03-22T03:04:37Z</time></trkpt><trkpt lat="24.487198293129214" lon="120.78186611252664"><ele>140.0</ele><time>2026-03-22T03:04:38Z</time></trkpt><trkpt lat="24.48692445037328" lon="120.78187404578688"><ele>141.0</ele><time>2026-03-22T03:04:39Z</time></trkpt><trkpt lat="24.486650804923077" lon="120.78188702134351"><ele>141.0</ele><time>2026-03-22T03:04:40Z</time></trkpt><trkpt lat="24.486377549341068" lon="120.78190278082934"><ele>141.0</ele><time>2026-03-22T03:04:41Z</time></trkpt><trkpt lat="24.48610459921043" lon="120.78192368354954"><ele>142.5</ele><time>2026-03-22T03:04:42Z</time></trkpt><trkpt lat="24.48583256323354" lon="120.7819468245981"><ele>144.0</ele><time>2026-03-22T03:04:43Z</time></trkpt><trkpt lat="24.48556057102159" lon="120.78197409248642"><ele>145.0</ele><time>2026-03-22T03:04:44Z</time></trkpt><trkpt lat="24.485288890961485" lon="120.78200175590665"><ele>146.0</ele><time>2026-03-22T03:04:45Z</time></trkpt><trkpt lat="24.485017132176072" lon="120.78203121150776"><ele>146.0</ele><time>2026-03-22T03:04:46Z</time></trkpt><trkpt lat="24.484745492223606" lon="120.78206138570994"><ele>146.0</ele><time>2026-03-22T03:04:47Z</time></trkpt><trkpt lat="24.484473928423846" lon="120.78209700383317"><ele>146.0</ele><time>2026-03-22T03:04:48Z</time></trkpt><trkpt lat="24.48420302370207" lon="120.78214285619829"><ele>146.0</ele><time>2026-03-22T03:04:49Z</time></trkpt><trkpt lat="24.483932796982295" lon="120.78219442020605"><ele>146.0</ele><time>2026-03-22T03:04:50Z</time></trkpt><trkpt lat="24.483662125618135" lon="120.78224846445016"><ele>146.0</ele><time>2026-03-22T03:04:51Z</time></trkpt><trkpt lat="24.4833921879734" lon="120.78230889388098"><ele>146.0</ele><time>2026-03-22T03:04:52Z</time></trkpt><trkpt lat="24.483123239274196" lon="120.78237567819774"><ele>146.0</ele><time>2026-03-22T03:04:53Z</time></trkpt><trkpt lat="24.48285606234984" lon="120.78244669729"><ele>146.0</ele><time>2026-03-22T03:04:54Z</time></trkpt><trkpt lat="24.48258915200779" lon="120.78251920623043"><ele>146.0</ele><time>2026-03-22T03:04:55Z</time></trkpt><trkpt lat="24.48232270551189" lon="120.7825934805196"><ele>146.5</ele><time>2026-03-22T03:04:56Z</time></trkpt><trkpt lat="24.48205754241777" lon="120.78267194122495"><ele>147.0</ele><time>2026-03-22T03:04:57Z</time></trkpt><trkpt lat="24.481795753146894" lon="120.78275469840256"><ele>147.0</ele><time>2026-03-22T03:04:58Z</time></trkpt><trkpt lat="24.481535292927774" lon="120.78284185764097"><ele>147.0</ele><time>2026-03-22T03:04:59Z</time></trkpt><trkpt lat="24.481277137541053" lon="120.78292967563976"><ele>149.0</ele><time>2026-03-22T03:05:00Z</time></trkpt><trkpt lat="24.481020062762184" lon="120.7830199959637"><ele>151.0</ele><time>2026-03-22T03:05:01Z</time></trkpt><trkpt lat="24.480764222377758" lon="120.78311278193877"><ele>151.0</ele><time>2026-03-22T03:05:02Z</time></trkpt><trkpt lat="24.480509898200005" lon="120.78320669038511"><ele>151.0</ele><time>2026-03-22T03:05:03Z</time></trkpt><trkpt lat="24.480257999840575" lon="120.78330495157647"><ele>152.0</ele><time>2026-03-22T03:05:04Z</time></trkpt><trkpt lat="24.48000765535507" lon="120.78340394720517"><ele>153.0</ele><time>2026-03-22T03:05:05Z</time></trkpt><trkpt lat="24.47975899249257" lon="120.78350434301748"><ele>154.5</ele><time>2026-03-22T03:05:06Z</time></trkpt><trkpt lat="24.479511838252726" lon="120.7836068705752"><ele>156.0</ele><time>2026-03-22T03:05:07Z</time></trkpt><trkpt lat="24.479266226739107" lon="120.78371065495705"><ele>156.0</ele><time>2026-03-22T03:05:08Z</time></trkpt><trkpt lat="24.479021144055793" lon="120.78381542305694"><ele>156.0</ele><time>2026-03-22T03:05:09Z</time></trkpt><trkpt lat="24.478777965815212" lon="120.78392189915571"><ele>156.5</ele><time>2026-03-22T03:05:10Z</time></trkpt><trkpt lat="24.478536738746786" lon="120.78402935377062"><ele>157.0</ele><time>2026-03-22T03:05:11Z</time></trkpt><trkpt lat="24.47829538466579" lon="120.78413728911897"><ele>157.0</ele><time>2026-03-22T03:05:12Z</time></trkpt><trkpt lat="24.478054744468018" lon="120.78424637187092"><ele>157.0</ele><time>2026-03-22T03:05:13Z</time></trkpt><trkpt lat="24.477813851216347" lon="120.78435706782594"><ele>159.0</ele><time>2026-03-22T03:05:14Z</time></trkpt><trkpt lat="24.47757325122942" lon="120.78446803154797"><ele>161.0</ele><time>2026-03-22T03:05:15Z</time></trkpt><trkpt lat="24.477332405315135" lon="120.7845794467667"><ele>161.5</ele><time>2026-03-22T03:05:16Z</time></trkpt><trkpt lat="24.47709161032514" lon="120.78469088431606"><ele>162.0</ele><time>2026-03-22T03:05:17Z</time></trkpt><trkpt lat="24.476851163362575" lon="120.78480349954795"><ele>162.0</ele><time>2026-03-22T03:05:18Z</time></trkpt><trkpt lat="24.476611617058065" lon="120.78491919382724"><ele>162.0</ele><time>2026-03-22T03:05:19Z</time></trkpt><trkpt lat="24.47637207887133" lon="120.78503359865196"><ele>162.0</ele><time>2026-03-22T03:05:20Z</time></trkpt><trkpt lat="24.47613298093284" lon="120.7851481036416"><ele>162.0</ele><time>2026-03-22T03:05:21Z</time></trkpt><trkpt lat="24.475890226570634" lon="120.78526451225697"><ele>163.0</ele><time>2026-03-22T03:05:22Z</time></trkpt><trkpt lat="24.475647577366274" lon="120.78537779019007"><ele>164.0</ele><time>2026-03-22T03:05:23Z</time></trkpt><trkpt lat="24.47540748253633" lon="120.7854895208176"><ele>167.5</ele><time>2026-03-22T03:05:24Z</time></trkpt><trkpt lat="24.475169298146636" lon="120.78559799497398"><ele>171.0</ele><time>2026-03-22T03:05:25Z</time></trkpt><trkpt lat="24.474928677487334" lon="120.78571240358812"><ele>171.0</ele><time>2026-03-22T03:05:26Z</time></trkpt><trkpt lat="24.474686763505623" lon="120.78582422571841"><ele>171.0</ele><time>2026-03-22T03:05:27Z</time></trkpt><trkpt lat="24.474444177618423" lon="120.78593449017512"><ele>173.0</ele><time>2026-03-22T03:05:28Z</time></trkpt><trkpt lat="24.474201112395484" lon="120.78604428289205"><ele>175.0</ele><time>2026-03-22T03:05:29Z</time></trkpt><trkpt lat="24.473957239290424" lon="120.78615380922527"><ele>175.0</ele><time>2026-03-22T03:05:30Z</time></trkpt><trkpt lat="24.47371322666573" lon="120.78626257216575"><ele>175.0</ele><time>2026-03-22T03:05:31Z</time></trkpt><trkpt lat="24.473468554072817" lon="120.78637055155507"><ele>175.0</ele><time>2026-03-22T03:05:32Z</time></trkpt><trkpt lat="24.473222916146018" lon="120.78647675350308"><ele>175.0</ele><time>2026-03-22T03:05:33Z</time></trkpt><trkpt lat="24.47297730258501" lon="120.7865819883405"><ele>177.0</ele><time>2026-03-22T03:05:34Z</time></trkpt><trkpt lat="24.472730762790928" lon="120.78668532426093"><ele>179.0</ele><time>2026-03-22T03:05:35Z</time></trkpt><trkpt lat="24.47248354867291" lon="120.78678487981583"><ele>179.0</ele><time>2026-03-22T03:05:36Z</time></trkpt><trkpt lat="24.47223544817428" lon="120.78688223517464"><ele>179.0</ele><time>2026-03-22T03:05:37Z</time></trkpt><trkpt lat="24.471987666915393" lon="120.78697859499135"><ele>180.0</ele><time>2026-03-22T03:05:38Z</time></trkpt><trkpt lat="24.471740389580084" lon="120.78707390369621"><ele>181.0</ele><time>2026-03-22T03:05:39Z</time></trkpt><trkpt lat="24.471493742934758" lon="120.7871676252179"><ele>183.5</ele><time>2026-03-22T03:05:40Z</time></trkpt><trkpt lat="24.47124743155827" lon="120.78726011029886"><ele>186.0</ele><time>2026-03-22T03:05:41Z</time></trkpt><trkpt lat="24.471002773571545" lon="120.7873526999403"><ele>186.0</ele><time>2026-03-22T03:05:42Z</time></trkpt><trkpt lat="24.470758206768018" lon="120.78744266909565"><ele>186.0</ele><time>2026-03-22T03:05:43Z</time></trkpt><trkpt lat="24.4705141732006" lon="120.78753044864453"><ele>185.5</ele><time>2026-03-22T03:05:44Z</time></trkpt><trkpt lat="24.470269260210266" lon="120.78760861757135"><ele>185.0</ele><time>2026-03-22T03:05:45Z</time></trkpt><trkpt lat="24.470022383065857" lon="120.78768760065365"><ele>186.5</ele><time>2026-03-22T03:05:46Z</time></trkpt><trkpt lat="24.469774134127874" lon="120.7877600822515"><ele>188.0</ele><time>2026-03-22T03:05:47Z</time></trkpt><trkpt lat="24.46952568122623" lon="120.78782936619"><ele>190.5</ele><time>2026-03-22T03:05:48Z</time></trkpt><trkpt lat="24.469275947229654" lon="120.7878948703026"><ele>193.0</ele><time>2026-03-22T03:05:49Z</time></trkpt><trkpt lat="24.469026575567007" lon="120.78795722802548"><ele>193.0</ele><time>2026-03-22T03:05:50Z</time></trkpt><trkpt lat="24.468776252368706" lon="120.7880164182377"><ele>193.0</ele><time>2026-03-22T03:05:51Z</time></trkpt><trkpt lat="24.468525889884376" lon="120.78807219160109"><ele>193.5</ele><time>2026-03-22T03:05:52Z</time></trkpt><trkpt lat="24.4682756810922" lon="120.78812145822563"><ele>194.0</ele><time>2026-03-22T03:05:53Z</time></trkpt><trkpt lat="24.468024725348428" lon="120.78816608467058"><ele>196.5</ele><time>2026-03-22T03:05:54Z</time></trkpt><trkpt lat="24.46777303145076" lon="120.78820469757649"><ele>199.0</ele><time>2026-03-22T03:05:55Z</time></trkpt><trkpt lat="24.467521513341687" lon="120.78823973222993"><ele>199.0</ele><time>2026-03-22T03:05:56Z</time></trkpt><trkpt lat="24.467269252947187" lon="120.788271527076"><ele>199.0</ele><time>2026-03-22T03:05:57Z</time></trkpt><trkpt lat="24.46701778025989" lon="120.78830019235123"><ele>201.0</ele><time>2026-03-22T03:05:58Z</time></trkpt><trkpt lat="24.46676665204676" lon="120.78832637494565"><ele>203.0</ele><time>2026-03-22T03:05:59Z</time></trkpt><trkpt lat="24.466514733044153" lon="120.78834636183424"><ele>203.5</ele><time>2026-03-22T03:06:00Z</time></trkpt><trkpt lat="24.46626266992021" lon="120.78835945024012"><ele>204.0</ele><time>2026-03-22T03:06:01Z</time></trkpt><trkpt lat="24.466007820374585" lon="120.78836875632595"><ele>204.0</ele><time>2026-03-22T03:06:02Z</time></trkpt><trkpt lat="24.46575412741351" lon="120.78837094917607"><ele>204.0</ele><time>2026-03-22T03:06:03Z</time></trkpt><trkpt lat="24.465500385236002" lon="120.78837073821943"><ele>205.5</ele><time>2026-03-22T03:06:04Z</time></trkpt><trkpt lat="24.46524539579036" lon="120.78836414966959"><ele>207.0</ele><time>2026-03-22T03:06:05Z</time></trkpt><trkpt lat="24.46499069339655" lon="120.78835221559814"><ele>207.0</ele><time>2026-03-22T03:06:06Z</time></trkpt><trkpt lat="24.464735921193412" lon="120.78833431912166"><ele>207.0</ele><time>2026-03-22T03:06:07Z</time></trkpt><trkpt lat="24.464481056971675" lon="120.7883139435881"><ele>209.5</ele><time>2026-03-22T03:06:08Z</time></trkpt><trkpt lat="24.464226457112282" lon="120.78828824420876"><ele>212.0</ele><time>2026-03-22T03:06:09Z</time></trkpt><trkpt lat="24.463971826192704" lon="120.7882560065968"><ele>213.5</ele><time>2026-03-22T03:06:10Z</time></trkpt><trkpt lat="24.463717723676876" lon="120.78821899876156"><ele>215.0</ele><time>2026-03-22T03:06:11Z</time></trkpt><trkpt lat="24.463463823179595" lon="120.78817745724889"><ele>215.0</ele><time>2026-03-22T03:06:12Z</time></trkpt><trkpt lat="24.463210936070563" lon="120.78812945593717"><ele>215.0</ele><time>2026-03-22T03:06:13Z</time></trkpt><trkpt lat="24.462958658562066" lon="120.78807482157016"><ele>217.5</ele><time>2026-03-22T03:06:14Z</time></trkpt><trkpt lat="24.46270731255026" lon="120.78801392851483"><ele>220.0</ele><time>2026-03-22T03:06:15Z</time></trkpt><trkpt lat="24.46245605704053" lon="120.78794887451684"><ele>220.0</ele><time>2026-03-22T03:06:16Z</time></trkpt><trkpt lat="24.462206128095495" lon="120.78788064939936"><ele>220.0</ele><time>2026-03-22T03:06:17Z</time></trkpt><trkpt lat="24.461957645471237" lon="120.78780652421156"><ele>220.0</ele><time>2026-03-22T03:06:18Z</time></trkpt><trkpt lat="24.461710751099798" lon="120.78772750955918"><ele>220.0</ele><time>2026-03-22T03:06:19Z</time></trkpt><trkpt lat="24.461465201773475" lon="120.7876420523946"><ele>223.0</ele><time>2026-03-22T03:06:20Z</time></trkpt><trkpt lat="24.46122136061656" lon="120.78755159800932"><ele>226.0</ele><time>2026-03-22T03:06:21Z</time></trkpt><trkpt lat="24.460979348026576" lon="120.78745583123458"><ele>226.0</ele><time>2026-03-22T03:06:22Z</time></trkpt><trkpt lat="24.460739156556937" lon="120.78735395686154"><ele>226.0</ele><time>2026-03-22T03:06:23Z</time></trkpt><trkpt lat="24.460500859005307" lon="120.78724871127287"><ele>228.5</ele><time>2026-03-22T03:06:24Z</time></trkpt><trkpt lat="24.46026442739595" lon="120.78713842883172"><ele>231.0</ele><time>2026-03-22T03:06:25Z</time></trkpt><trkpt lat="24.4600303100401" lon="120.7870233286644"><ele>231.0</ele><time>2026-03-22T03:06:26Z</time></trkpt><trkpt lat="24.459797343654923" lon="120.78690571275555"><ele>231.0</ele><time>2026-03-22T03:06:27Z</time></trkpt><trkpt lat="24.45956647346282" lon="120.78678269774794"><ele>230.0</ele><time>2026-03-22T03:06:28Z</time></trkpt><trkpt lat="24.45933933129" lon="120.78665416635545"><ele>229.0</ele><time>2026-03-22T03:06:29Z</time></trkpt><trkpt lat="24.459115379626834" lon="120.78651767725474"><ele>229.0</ele><time>2026-03-22T03:06:30Z</time></trkpt><trkpt lat="24.458894733753635" lon="120.78637606696252"><ele>229.0</ele><time>2026-03-22T03:06:31Z</time></trkpt><trkpt lat="24.45867594835947" lon="120.78623174726863"><ele>229.0</ele><time>2026-03-22T03:06:32Z</time></trkpt><trkpt lat="24.458458176669726" lon="120.78608403152086"><ele>229.0</ele><time>2026-03-22T03:06:33Z</time></trkpt><trkpt lat="24.458242439882273" lon="120.78593335428862"><ele>229.0</ele><time>2026-03-22T03:06:34Z</time></trkpt><trkpt lat="24.458027742741034" lon="120.78578100484157"><ele>229.0</ele><time>2026-03-22T03:06:35Z</time></trkpt><trkpt lat="24.457813832034294" lon="120.78562885597918"><ele>234.0</ele><time>2026-03-22T03:06:36Z</time></trkpt><trkpt lat="24.457600848875714" lon="120.78547284322616"><ele>239.0</ele><time>2026-03-22T03:06:37Z</time></trkpt><trkpt lat="24.45738711395929" lon="120.78531928084729"><ele>239.5</ele><time>2026-03-22T03:06:38Z</time></trkpt><trkpt lat="24.457173035547264" lon="120.78516353137458"><ele>240.0</ele><time>2026-03-22T03:06:39Z</time></trkpt><trkpt lat="24.45695724177532" lon="120.78500825745341"><ele>240.0</ele><time>2026-03-22T03:06:40Z</time></trkpt><trkpt lat="24.456740035889332" lon="120.78485464225511"><ele>240.0</ele><time>2026-03-22T03:06:41Z</time></trkpt><trkpt lat="24.456522427115875" lon="120.78470005895593"><ele>240.0</ele><time>2026-03-22T03:06:42Z</time></trkpt><trkpt lat="24.456300983716126" lon="120.78454888338862"><ele>240.0</ele><time>2026-03-22T03:06:43Z</time></trkpt><trkpt lat="24.456077135427993" lon="120.78440044637796"><ele>242.0</ele><time>2026-03-22T03:06:44Z</time></trkpt><trkpt lat="24.4558501825061" lon="120.784256391745"><ele>244.0</ele><time>2026-03-22T03:06:45Z</time></trkpt><trkpt lat="24.455620558052395" lon="120.78411578681532"><ele>245.5</ele><time>2026-03-22T03:06:46Z</time></trkpt><trkpt lat="24.45538951346008" lon="120.78397579325608"><ele>247.0</ele><time>2026-03-22T03:06:47Z</time></trkpt><trkpt lat="24.455156383441363" lon="120.78383898223478"><ele>247.0</ele><time>2026-03-22T03:06:48Z</time></trkpt><trkpt lat="24.454922123694804" lon="120.78370440729805"><ele>247.0</ele><time>2026-03-22T03:06:49Z</time></trkpt><trkpt lat="24.45468529049506" lon="120.78357634923944"><ele>243.0</ele><time>2026-03-22T03:06:50Z</time></trkpt><trkpt lat="24.454443545929863" lon="120.78345612562893"><ele>239.0</ele><time>2026-03-22T03:06:51Z</time></trkpt><trkpt lat="24.45419828435226" lon="120.78334747275544"><ele>239.0</ele><time>2026-03-22T03:06:52Z</time></trkpt><trkpt lat="24.453950179409123" lon="120.78325036189885"><ele>239.0</ele><time>2026-03-22T03:06:53Z</time></trkpt><trkpt lat="24.453701756343392" lon="120.78316151876422"><ele>244.0</ele><time>2026-03-22T03:06:54Z</time></trkpt><trkpt lat="24.453451696458245" lon="120.78307715031428"><ele>249.0</ele><time>2026-03-22T03:06:55Z</time></trkpt><trkpt lat="24.453202285809354" lon="120.78299792511403"><ele>252.0</ele><time>2026-03-22T03:06:56Z</time></trkpt><trkpt lat="24.45295438048917" lon="120.78292373209202"><ele>255.0</ele><time>2026-03-22T03:06:57Z</time></trkpt><trkpt lat="24.452706406341616" lon="120.78285560499955"><ele>255.0</ele><time>2026-03-22T03:06:58Z</time></trkpt><trkpt lat="24.452457614625388" lon="120.7827925288554"><ele>255.0</ele><time>2026-03-22T03:06:59Z</time></trkpt><trkpt lat="24.452210689047917" lon="120.78273668320787"><ele>253.5</ele><time>2026-03-22T03:07:00Z</time></trkpt><trkpt lat="24.45196491467697" lon="120.78268580001044"><ele>252.0</ele><time>2026-03-22T03:07:01Z</time></trkpt><trkpt lat="24.451718894508584" lon="120.78263995161682"><ele>252.0</ele><time>2026-03-22T03:07:02Z</time></trkpt><trkpt lat="24.451474923731595" lon="120.78259828466716"><ele>252.0</ele><time>2026-03-22T03:07:03Z</time></trkpt><trkpt lat="24.45123124134389" lon="120.78255734852172"><ele>254.5</ele><time>2026-03-22T03:07:04Z</time></trkpt><trkpt lat="24.450988228692182" lon="120.78251733994641"><ele>257.0</ele><time>2026-03-22T03:07:05Z</time></trkpt><trkpt lat="24.450745639632515" lon="120.78248272676495"><ele>257.0</ele><time>2026-03-22T03:07:06Z</time></trkpt><trkpt lat="24.4505035575112" lon="120.78245029034002"><ele>257.0</ele><time>2026-03-22T03:07:07Z</time></trkpt><trkpt lat="24.450262157437272" lon="120.78242180183445"><ele>258.5</ele><time>2026-03-22T03:07:08Z</time></trkpt><trkpt lat="24.450020413660106" lon="120.7823936997724"><ele>260.0</ele><time>2026-03-22T03:07:09Z</time></trkpt><trkpt lat="24.449779737481762" lon="120.78236450715528"><ele>263.5</ele><time>2026-03-22T03:07:10Z</time></trkpt><trkpt lat="24.449539279404704" lon="120.78233580085495"><ele>267.0</ele><time>2026-03-22T03:07:11Z</time></trkpt><trkpt lat="24.449298844435393" lon="120.78230656194012"><ele>267.0</ele><time>2026-03-22T03:07:12Z</time></trkpt><trkpt lat="24.449058555312202" lon="120.78227880248971"><ele>267.0</ele><time>2026-03-22T03:07:13Z</time></trkpt><trkpt lat="24.448817806053896" lon="120.78225241832095"><ele>267.5</ele><time>2026-03-22T03:07:14Z</time></trkpt><trkpt lat="24.448577044803013" lon="120.78222520336232"><ele>268.0</ele><time>2026-03-22T03:07:15Z</time></trkpt><trkpt lat="24.44833673012508" lon="120.78219516813739"><ele>268.0</ele><time>2026-03-22T03:07:16Z</time></trkpt><trkpt lat="24.44809606610442" lon="120.78216265544944"><ele>268.0</ele><time>2026-03-22T03:07:17Z</time></trkpt><trkpt lat="24.44785560481511" lon="120.78212560228737"><ele>269.0</ele><time>2026-03-22T03:07:18Z</time></trkpt><trkpt lat="24.44761429218395" lon="120.78208794215745"><ele>270.0</ele><time>2026-03-22T03:07:19Z</time></trkpt><trkpt lat="24.447372958238642" lon="120.78204547945998"><ele>270.0</ele><time>2026-03-22T03:07:20Z</time></trkpt><trkpt lat="24.447130170695267" lon="120.78199882287223"><ele>270.0</ele><time>2026-03-22T03:07:21Z</time></trkpt><trkpt lat="24.4468877880116" lon="120.78194967771195"><ele>269.5</ele><time>2026-03-22T03:07:22Z</time></trkpt><trkpt lat="24.4466447611259" lon="120.78189733554018"><ele>269.0</ele><time>2026-03-22T03:07:23Z</time></trkpt><trkpt lat="24.4464014476167" lon="120.7818385386602"><ele>265.5</ele><time>2026-03-22T03:07:24Z</time></trkpt><trkpt lat="24.446158944072693" lon="120.78177513465855"><ele>262.0</ele><time>2026-03-22T03:07:25Z</time></trkpt><trkpt lat="24.44591457193415" lon="120.78170898004707"><ele>262.0</ele><time>2026-03-22T03:07:26Z</time></trkpt><trkpt lat="24.445672415324076" lon="120.78163921350243"><ele>262.0</ele><time>2026-03-22T03:07:27Z</time></trkpt><trkpt lat="24.445433266803313" lon="120.78156810780598"><ele>264.5</ele><time>2026-03-22T03:07:28Z</time></trkpt><trkpt lat="24.445194212789197" lon="120.78149455256089"><ele>267.0</ele><time>2026-03-22T03:07:29Z</time></trkpt><trkpt lat="24.444954973312196" lon="120.78141806086991"><ele>267.0</ele><time>2026-03-22T03:07:30Z</time></trkpt><trkpt lat="24.44471511589604" lon="120.78133467096906"><ele>267.0</ele><time>2026-03-22T03:07:31Z</time></trkpt><trkpt lat="24.444475476030284" lon="120.78124714011223"><ele>274.0</ele><time>2026-03-22T03:07:32Z</time></trkpt><trkpt lat="24.4442354690999" lon="120.78115425758185"><ele>281.0</ele><time>2026-03-22T03:07:33Z</time></trkpt><trkpt lat="24.443995451517363" lon="120.78105691355287"><ele>273.5</ele><time>2026-03-22T03:07:34Z</time></trkpt><trkpt lat="24.443755137530403" lon="120.78095653705753"><ele>266.0</ele><time>2026-03-22T03:07:35Z</time></trkpt><trkpt lat="24.44351570901382" lon="120.78085209706741"><ele>266.0</ele><time>2026-03-22T03:07:36Z</time></trkpt><trkpt lat="24.44327646265798" lon="120.78074334549711"><ele>266.0</ele><time>2026-03-22T03:07:37Z</time></trkpt><trkpt lat="24.44303736036043" lon="120.78063163321274"><ele>268.0</ele><time>2026-03-22T03:07:38Z</time></trkpt><trkpt lat="24.44279805793024" lon="120.78051700069894"><ele>270.0</ele><time>2026-03-22T03:07:39Z</time></trkpt><trkpt lat="24.44255878119718" lon="120.78039974698652"><ele>270.0</ele><time>2026-03-22T03:07:40Z</time></trkpt><trkpt lat="24.44232007222734" lon="120.78027945802744"><ele>270.0</ele><time>2026-03-22T03:07:41Z</time></trkpt><trkpt lat="24.442080729782756" lon="120.7801591347376"><ele>269.5</ele><time>2026-03-22T03:07:42Z</time></trkpt><trkpt lat="24.441840382328493" lon="120.78003840984441"><ele>269.0</ele><time>2026-03-22T03:07:43Z</time></trkpt><trkpt lat="24.441600498838962" lon="120.77991807503898"><ele>269.0</ele><time>2026-03-22T03:07:44Z</time></trkpt><trkpt lat="24.44135937169649" lon="120.77979926186556"><ele>269.0</ele><time>2026-03-22T03:07:45Z</time></trkpt><trkpt lat="24.441117594744366" lon="120.77968213306325"><ele>270.5</ele><time>2026-03-22T03:07:46Z</time></trkpt><trkpt lat="24.44087494637015" lon="120.77956413981754"><ele>272.0</ele><time>2026-03-22T03:07:47Z</time></trkpt><trkpt lat="24.440634154137804" lon="120.77944804974561"><ele>269.0</ele><time>2026-03-22T03:07:48Z</time></trkpt><trkpt lat="24.440393468012182" lon="120.77933601978843"><ele>266.0</ele><time>2026-03-22T03:07:49Z</time></trkpt><trkpt lat="24.440152850217952" lon="120.77922647389985"><ele>266.0</ele><time>2026-03-22T03:07:50Z</time></trkpt><trkpt lat="24.439910517400133" lon="120.77911995175671"><ele>266.0</ele><time>2026-03-22T03:07:51Z</time></trkpt><trkpt lat="24.439666072260497" lon="120.77901841704116"><ele>270.0</ele><time>2026-03-22T03:07:52Z</time></trkpt><trkpt lat="24.439419060567772" lon="120.77892207312385"><ele>274.0</ele><time>2026-03-22T03:07:53Z</time></trkpt><trkpt lat="24.439169611879986" lon="120.77883208839195"><ele>274.0</ele><time>2026-03-22T03:07:54Z</time></trkpt><trkpt lat="24.43891762664584" lon="120.77874872054464"><ele>274.0</ele><time>2026-03-22T03:07:55Z</time></trkpt><trkpt lat="24.438663320451695" lon="120.77866785548305"><ele>272.5</ele><time>2026-03-22T03:07:56Z</time></trkpt><trkpt lat="24.43840880525948" lon="120.77859019113632"><ele>271.0</ele><time>2026-03-22T03:07:57Z</time></trkpt><trkpt lat="24.43815229217145" lon="120.77851751898129"><ele>272.0</ele><time>2026-03-22T03:07:58Z</time></trkpt><trkpt lat="24.437893079622874" lon="120.77845270846352"><ele>273.0</ele><time>2026-03-22T03:07:59Z</time></trkpt><trkpt lat="24.437632381366214" lon="120.77839418942"><ele>273.0</ele><time>2026-03-22T03:08:00Z</time></trkpt><trkpt lat="24.437370034812208" lon="120.77833910343296"><ele>273.0</ele><time>2026-03-22T03:08:01Z</time></trkpt><trkpt lat="24.437107183326567" lon="120.7782871069444"><ele>273.5</ele><time>2026-03-22T03:08:02Z</time></trkpt><trkpt lat="24.436841988692198" lon="120.77824427687057"><ele>274.0</ele><time>2026-03-22T03:08:03Z</time></trkpt><trkpt lat="24.436577474745647" lon="120.77821111991675"><ele>274.0</ele><time>2026-03-22T03:08:04Z</time></trkpt><trkpt lat="24.43631553888276" lon="120.77818126792384"><ele>274.0</ele><time>2026-03-22T03:08:05Z</time></trkpt><trkpt lat="24.436056610230523" lon="120.77815430098835"><ele>275.0</ele><time>2026-03-22T03:08:06Z</time></trkpt><trkpt lat="24.435798363073246" lon="120.77813391765895"><ele>276.0</ele><time>2026-03-22T03:08:07Z</time></trkpt><trkpt lat="24.435539581266788" lon="120.77811610289298"><ele>277.0</ele><time>2026-03-22T03:08:08Z</time></trkpt><trkpt lat="24.435280661280338" lon="120.77810293207014"><ele>278.0</ele><time>2026-03-22T03:08:09Z</time></trkpt><trkpt lat="24.435024567753036" lon="120.77809540548502"><ele>278.0</ele><time>2026-03-22T03:08:10Z</time></trkpt><trkpt lat="24.434769922366204" lon="120.77809328593486"><ele>278.0</ele><time>2026-03-22T03:08:11Z</time></trkpt><trkpt lat="24.434517778631882" lon="120.77809285006416"><ele>280.0</ele><time>2026-03-22T03:08:12Z</time></trkpt><trkpt lat="24.43426774445518" lon="120.77809079893682"><ele>282.0</ele><time>2026-03-22T03:08:13Z</time></trkpt><trkpt lat="24.434019551295734" lon="120.77808870583851"><ele>281.5</ele><time>2026-03-22T03:08:14Z</time></trkpt><trkpt lat="24.433773697256203" lon="120.77808787554949"><ele>281.0</ele><time>2026-03-22T03:08:15Z</time></trkpt><trkpt lat="24.433529679018942" lon="120.77808517724132"><ele>281.0</ele><time>2026-03-22T03:08:16Z</time></trkpt><trkpt lat="24.433288498525638" lon="120.77808013042501"><ele>281.0</ele><time>2026-03-22T03:08:17Z</time></trkpt><trkpt lat="24.43304869360027" lon="120.77807198697522"><ele>280.5</ele><time>2026-03-22T03:08:18Z</time></trkpt><trkpt lat="24.432810671923324" lon="120.77805775671138"><ele>280.0</ele><time>2026-03-22T03:08:19Z</time></trkpt><trkpt lat="24.43257146933403" lon="120.77804007331284"><ele>280.0</ele><time>2026-03-22T03:08:20Z</time></trkpt><trkpt lat="24.432331337340763" lon="120.77801842924839"><ele>280.0</ele><time>2026-03-22T03:08:21Z</time></trkpt><trkpt lat="24.43209065436094" lon="120.77799766625706"><ele>281.5</ele><time>2026-03-22T03:08:22Z</time></trkpt><trkpt lat="24.431851416550497" lon="120.77797085361561"><ele>283.0</ele><time>2026-03-22T03:08:23Z</time></trkpt><trkpt lat="24.431611328837175" lon="120.77793593804496"><ele>283.0</ele><time>2026-03-22T03:08:24Z</time></trkpt><trkpt lat="24.431372276743257" lon="120.77789477103461"><ele>283.0</ele><time>2026-03-22T03:08:25Z</time></trkpt><trkpt lat="24.431135309959668" lon="120.77784977490825"><ele>286.5</ele><time>2026-03-22T03:08:26Z</time></trkpt><trkpt lat="24.430902772270123" lon="120.77780279072027"><ele>290.0</ele><time>2026-03-22T03:08:27Z</time></trkpt><trkpt lat="24.43067221295032" lon="120.77774942741897"><ele>290.5</ele><time>2026-03-22T03:08:28Z</time></trkpt><trkpt lat="24.430442918421104" lon="120.77769389770943"><ele>291.0</ele><time>2026-03-22T03:08:29Z</time></trkpt><trkpt lat="24.430214797843878" lon="120.77763246617259"><ele>282.0</ele><time>2026-03-22T03:08:30Z</time></trkpt><trkpt lat="24.429987485468395" lon="120.77756634709384"><ele>273.0</ele><time>2026-03-22T03:08:31Z</time></trkpt><trkpt lat="24.429762071144705" lon="120.77749900622997"><ele>276.5</ele><time>2026-03-22T03:08:32Z</time></trkpt><trkpt lat="24.42953666682494" lon="120.77743055799527"><ele>280.0</ele><time>2026-03-22T03:08:33Z</time></trkpt><trkpt lat="24.4293109181022" lon="120.77736721907263"><ele>280.0</ele><time>2026-03-22T03:08:34Z</time></trkpt><trkpt lat="24.429086424186416" lon="120.77730533852399"><ele>280.0</ele><time>2026-03-22T03:08:35Z</time></trkpt><trkpt lat="24.4288619701193" lon="120.77723999280586"><ele>284.0</ele><time>2026-03-22T03:08:36Z</time></trkpt><trkpt lat="24.428636270742224" lon="120.77717189080633"><ele>288.0</ele><time>2026-03-22T03:08:37Z</time></trkpt><trkpt lat="24.42840751047604" lon="120.77710357832493"><ele>288.0</ele><time>2026-03-22T03:08:38Z</time></trkpt><trkpt lat="24.428175354571337" lon="120.7770386224627"><ele>288.0</ele><time>2026-03-22T03:08:39Z</time></trkpt><trkpt lat="24.427941028480472" lon="120.77697740568244"><ele>291.0</ele><time>2026-03-22T03:08:40Z</time></trkpt><trkpt lat="24.427702004587623" lon="120.77692140140046"><ele>294.0</ele><time>2026-03-22T03:08:41Z</time></trkpt><trkpt lat="24.427460967298614" lon="120.77687272617294"><ele>291.5</ele><time>2026-03-22T03:08:42Z</time></trkpt><trkpt lat="24.427215777619992" lon="120.77682721628479"><ele>289.0</ele><time>2026-03-22T03:08:43Z</time></trkpt><trkpt lat="24.42696705776139" lon="120.77678210691238"><ele>289.0</ele><time>2026-03-22T03:08:44Z</time></trkpt><trkpt lat="24.426714519749545" lon="120.77674223454223"><ele>289.0</ele><time>2026-03-22T03:08:45Z</time></trkpt><trkpt lat="24.42645696333787" lon="120.77670879456015"><ele>290.5</ele><time>2026-03-22T03:08:46Z</time></trkpt><trkpt lat="24.42619584766126" lon="120.77668183018748"><ele>292.0</ele><time>2026-03-22T03:08:47Z</time></trkpt><trkpt lat="24.425932517743732" lon="120.77666032032737"><ele>292.0</ele><time>2026-03-22T03:08:48Z</time></trkpt><trkpt lat="24.425670805894313" lon="120.77664598645705"><ele>292.0</ele><time>2026-03-22T03:08:49Z</time></trkpt><trkpt lat="24.425407485302767" lon="120.77663298702785"><ele>290.5</ele><time>2026-03-22T03:08:50Z</time></trkpt><trkpt lat="24.425144848346832" lon="120.77661811661764"><ele>289.0</ele><time>2026-03-22T03:08:51Z</time></trkpt><trkpt lat="24.424881575405543" lon="120.77660206073858"><ele>288.5</ele><time>2026-03-22T03:08:52Z</time></trkpt><trkpt lat="24.424619562907175" lon="120.7765845160565"><ele>288.0</ele><time>2026-03-22T03:08:53Z</time></trkpt><trkpt lat="24.424357130859068" lon="120.7765669935103"><ele>288.0</ele><time>2026-03-22T03:08:54Z</time></trkpt><trkpt lat="24.424095522105578" lon="120.77654977348695"><ele>288.0</ele><time>2026-03-22T03:08:55Z</time></trkpt><trkpt lat="24.42383478167222" lon="120.77652810340447"><ele>288.0</ele><time>2026-03-22T03:08:56Z</time></trkpt><trkpt lat="24.423574625259214" lon="120.7765034052756"><ele>288.0</ele><time>2026-03-22T03:08:57Z</time></trkpt><trkpt lat="24.423315211253012" lon="120.77647086880907"><ele>288.0</ele><time>2026-03-22T03:08:58Z</time></trkpt><trkpt lat="24.42305661575109" lon="120.77643221079495"><ele>288.0</ele><time>2026-03-22T03:08:59Z</time></trkpt><trkpt lat="24.422799964995246" lon="120.77638387687932"><ele>291.0</ele><time>2026-03-22T03:09:00Z</time></trkpt><trkpt lat="24.42254413548435" lon="120.7763277374251"><ele>294.0</ele><time>2026-03-22T03:09:01Z</time></trkpt><trkpt lat="24.4222893533658" lon="120.77626528519073"><ele>293.5</ele><time>2026-03-22T03:09:02Z</time></trkpt><trkpt lat="24.422039477062455" lon="120.77619624615973"><ele>293.0</ele><time>2026-03-22T03:09:03Z</time></trkpt><trkpt lat="24.421794266923794" lon="120.77612219842618"><ele>293.0</ele><time>2026-03-22T03:09:04Z</time></trkpt><trkpt lat="24.421550968369207" lon="120.77604543738364"><ele>293.0</ele><time>2026-03-22T03:09:05Z</time></trkpt><trkpt lat="24.421307124124816" lon="120.7759651064424"><ele>284.0</ele><time>2026-03-22T03:09:06Z</time></trkpt><trkpt lat="24.421064155082707" lon="120.77588239569026"><ele>275.0</ele><time>2026-03-22T03:09:07Z</time></trkpt><trkpt lat="24.420821091041034" lon="120.77579709478393"><ele>275.0</ele><time>2026-03-22T03:09:08Z</time></trkpt><trkpt lat="24.42057825156435" lon="120.77570887975783"><ele>275.0</ele><time>2026-03-22T03:09:09Z</time></trkpt><trkpt lat="24.420333819429256" lon="120.77562518667987"><ele>276.5</ele><time>2026-03-22T03:09:10Z</time></trkpt><trkpt lat="24.420089158974108" lon="120.77554497966217"><ele>278.0</ele><time>2026-03-22T03:09:11Z</time></trkpt><trkpt lat="24.41984371563187" lon="120.77546897860171"><ele>282.5</ele><time>2026-03-22T03:09:12Z</time></trkpt><trkpt lat="24.419602598770226" lon="120.77539878426607"><ele>287.0</ele><time>2026-03-22T03:09:13Z</time></trkpt><trkpt lat="24.41936491687598" lon="120.77533276552225"><ele>287.0</ele><time>2026-03-22T03:09:14Z</time></trkpt><trkpt lat="24.419129897815118" lon="120.7752723770725"><ele>287.0</ele><time>2026-03-22T03:09:15Z</time></trkpt><trkpt lat="24.418894258933253" lon="120.77521684216339"><ele>280.0</ele><time>2026-03-22T03:09:16Z</time></trkpt><trkpt lat="24.41865804237714" lon="120.77516825819112"><ele>273.0</ele><time>2026-03-22T03:09:17Z</time></trkpt><trkpt lat="24.418421211266025" lon="120.77512331300693"><ele>273.0</ele><time>2026-03-22T03:09:18Z</time></trkpt><trkpt lat="24.41818252922794" lon="120.77507945132747"><ele>273.0</ele><time>2026-03-22T03:09:19Z</time></trkpt><trkpt lat="24.417940900027553" lon="120.77503665532035"><ele>271.0</ele><time>2026-03-22T03:09:20Z</time></trkpt><trkpt lat="24.417697411634794" lon="120.77499403055589"><ele>269.0</ele><time>2026-03-22T03:09:21Z</time></trkpt><trkpt lat="24.41745213503095" lon="120.77495318920612"><ele>269.0</ele><time>2026-03-22T03:09:22Z</time></trkpt><trkpt lat="24.41720839282508" lon="120.77491368704506"><ele>269.0</ele><time>2026-03-22T03:09:23Z</time></trkpt><trkpt lat="24.416966795985218" lon="120.77487390936885"><ele>267.5</ele><time>2026-03-22T03:09:24Z</time></trkpt><trkpt lat="24.416727303205057" lon="120.77483408376754"><ele>266.0</ele><time>2026-03-22T03:09:25Z</time></trkpt><trkpt lat="24.41649201113386" lon="120.77479127727005"><ele>268.0</ele><time>2026-03-22T03:09:26Z</time></trkpt><trkpt lat="24.41625921767908" lon="120.7747463572711"><ele>270.0</ele><time>2026-03-22T03:09:27Z</time></trkpt><trkpt lat="24.416027196353085" lon="120.77469965876465"><ele>270.0</ele><time>2026-03-22T03:09:28Z</time></trkpt><trkpt lat="24.415796054537115" lon="120.77464791023078"><ele>270.0</ele><time>2026-03-22T03:09:29Z</time></trkpt><trkpt lat="24.415567240482563" lon="120.77459430534647"><ele>269.5</ele><time>2026-03-22T03:09:30Z</time></trkpt><trkpt lat="24.41534009584895" lon="120.77453715994294"><ele>269.0</ele><time>2026-03-22T03:09:31Z</time></trkpt><trkpt lat="24.415113027896275" lon="120.77447614723445"><ele>269.0</ele><time>2026-03-22T03:09:32Z</time></trkpt><trkpt lat="24.41488691378234" lon="120.77441204796028"><ele>269.0</ele><time>2026-03-22T03:09:33Z</time></trkpt><trkpt lat="24.41466208914266" lon="120.77434388871816"><ele>271.5</ele><time>2026-03-22T03:09:34Z</time></trkpt><trkpt lat="24.414436749640746" lon="120.77427211922677"><ele>274.0</ele><time>2026-03-22T03:09:35Z</time></trkpt><trkpt lat="24.414212354001666" lon="120.77419801466407"><ele>274.0</ele><time>2026-03-22T03:09:36Z</time></trkpt><trkpt lat="24.413987624110995" lon="120.7741175170033"><ele>274.0</ele><time>2026-03-22T03:09:37Z</time></trkpt><trkpt lat="24.41376322674257" lon="120.77403392332307"><ele>276.0</ele><time>2026-03-22T03:09:38Z</time></trkpt><trkpt lat="24.413538350074703" lon="120.77394823073456"><ele>278.0</ele><time>2026-03-22T03:09:39Z</time></trkpt><trkpt lat="24.413313734988776" lon="120.77385685684268"><ele>278.0</ele><time>2026-03-22T03:09:40Z</time></trkpt><trkpt lat="24.41308995736" lon="120.77376110765417"><ele>278.0</ele><time>2026-03-22T03:09:41Z</time></trkpt><trkpt lat="24.41286570099617" lon="120.77366131238033"><ele>278.0</ele><time>2026-03-22T03:09:42Z</time></trkpt><trkpt lat="24.412641680647113" lon="120.77355675320516"><ele>278.0</ele><time>2026-03-22T03:09:43Z</time></trkpt><trkpt lat="24.412418696339703" lon="120.77344841620669"><ele>278.0</ele><time>2026-03-22T03:09:44Z</time></trkpt><trkpt lat="24.41219572271198" lon="120.77333391069241"><ele>278.0</ele><time>2026-03-22T03:09:45Z</time></trkpt><trkpt lat="24.411972769254522" lon="120.77321677089299"><ele>280.0</ele><time>2026-03-22T03:09:46Z</time></trkpt><trkpt lat="24.41175038393846" lon="120.77309576011987"><ele>282.0</ele><time>2026-03-22T03:09:47Z</time></trkpt><trkpt lat="24.411530286283718" lon="120.77297075679124"><ele>284.0</ele><time>2026-03-22T03:09:48Z</time></trkpt><trkpt lat="24.41131482919884" lon="120.77284508346523"><ele>286.0</ele><time>2026-03-22T03:09:49Z</time></trkpt><trkpt lat="24.41110283475351" lon="120.77271654431509"><ele>285.0</ele><time>2026-03-22T03:09:50Z</time></trkpt><trkpt lat="24.41089405473886" lon="120.7725844843605"><ele>284.0</ele><time>2026-03-22T03:09:51Z</time></trkpt><trkpt lat="24.4106872544255" lon="120.77244784051997"><ele>289.0</ele><time>2026-03-22T03:09:52Z</time></trkpt><trkpt lat="24.41048127158758" lon="120.7723088282465"><ele>294.0</ele><time>2026-03-22T03:09:53Z</time></trkpt><trkpt lat="24.410277119810736" lon="120.77216750809416"><ele>294.0</ele><time>2026-03-22T03:09:54Z</time></trkpt><trkpt lat="24.410077463494805" lon="120.77202540873846"><ele>294.0</ele><time>2026-03-22T03:09:55Z</time></trkpt><trkpt lat="24.40988000930029" lon="120.77187986388971"><ele>294.5</ele><time>2026-03-22T03:09:56Z</time></trkpt><trkpt lat="24.40968526155017" lon="120.77172961884585"><ele>295.0</ele><time>2026-03-22T03:09:57Z</time></trkpt><trkpt lat="24.409490372280377" lon="120.77157574893828"><ele>295.0</ele><time>2026-03-22T03:09:58Z</time></trkpt><trkpt lat="24.409296061568448" lon="120.77141889171153"><ele>295.0</ele><time>2026-03-22T03:09:59Z</time></trkpt><trkpt lat="24.40910246989016" lon="120.771258031838"><ele>295.0</ele><time>2026-03-22T03:10:00Z</time></trkpt><trkpt lat="24.408912012810333" lon="120.77109311271379"><ele>295.0</ele><time>2026-03-22T03:10:01Z</time></trkpt><trkpt lat="24.408722561877912" lon="120.7709230961422"><ele>297.0</ele><time>2026-03-22T03:10:02Z</time></trkpt><trkpt lat="24.40853584698163" lon="120.7707510762207"><ele>299.0</ele><time>2026-03-22T03:10:03Z</time></trkpt><trkpt lat="24.408350955510116" lon="120.77057609577174"><ele>299.0</ele><time>2026-03-22T03:10:04Z</time></trkpt><trkpt lat="24.408169462581505" lon="120.7703981483562"><ele>299.0</ele><time>2026-03-22T03:10:05Z</time></trkpt><trkpt lat="24.40799077399791" lon="120.77021846680638"><ele>299.0</ele><time>2026-03-22T03:10:06Z</time></trkpt><trkpt lat="24.407814267910183" lon="120.77003559342499"><ele>299.0</ele><time>2026-03-22T03:10:07Z</time></trkpt><trkpt lat="24.407638864242113" lon="120.76985228703012"><ele>299.0</ele><time>2026-03-22T03:10:08Z</time></trkpt><trkpt lat="24.407465104493326" lon="120.76966708444067"><ele>299.0</ele><time>2026-03-22T03:10:09Z</time></trkpt><trkpt lat="24.407291347698795" lon="120.76948151406155"><ele>299.5</ele><time>2026-03-22T03:10:10Z</time></trkpt><trkpt lat="24.407118537491396" lon="120.7692950233909"><ele>300.0</ele><time>2026-03-22T03:10:11Z</time></trkpt><trkpt lat="24.406947065680576" lon="120.76910794708196"><ele>300.0</ele><time>2026-03-22T03:10:12Z</time></trkpt><trkpt lat="24.406776349783254" lon="120.76891889317103"><ele>300.0</ele><time>2026-03-22T03:10:13Z</time></trkpt><trkpt lat="24.406606567743456" lon="120.76872943053954"><ele>300.0</ele><time>2026-03-22T03:10:14Z</time></trkpt><trkpt lat="24.406438203065232" lon="120.7685378973427"><ele>300.0</ele><time>2026-03-22T03:10:15Z</time></trkpt><trkpt lat="24.406269848010375" lon="120.7683456943453"><ele>300.0</ele><time>2026-03-22T03:10:16Z</time></trkpt><trkpt lat="24.406101645367514" lon="120.7681525388486"><ele>300.0</ele><time>2026-03-22T03:10:17Z</time></trkpt><trkpt lat="24.405933352657286" lon="120.76795896084322"><ele>300.0</ele><time>2026-03-22T03:10:18Z</time></trkpt><trkpt lat="24.405764535103447" lon="120.76776457200111"><ele>300.0</ele><time>2026-03-22T03:10:19Z</time></trkpt><trkpt lat="24.405593892765342" lon="120.76757086167488"><ele>304.0</ele><time>2026-03-22T03:10:20Z</time></trkpt><trkpt lat="24.405419000559302" lon="120.76738105573861"><ele>308.0</ele><time>2026-03-22T03:10:21Z</time></trkpt><trkpt lat="24.40524229712909" lon="120.76719258259384"><ele>308.0</ele><time>2026-03-22T03:10:22Z</time></trkpt><trkpt lat="24.405064112123107" lon="120.76700357409595"><ele>308.0</ele><time>2026-03-22T03:10:23Z</time></trkpt><trkpt lat="24.404883799170094" lon="120.76681541245286"><ele>310.0</ele><time>2026-03-22T03:10:24Z</time></trkpt><trkpt lat="24.40470101884755" lon="120.76662788346844"><ele>312.0</ele><time>2026-03-22T03:10:25Z</time></trkpt><trkpt lat="24.404516070591683" lon="120.7664417770398"><ele>312.5</ele><time>2026-03-22T03:10:26Z</time></trkpt><trkpt lat="24.40432834661687" lon="120.76625739020696"><ele>313.0</ele><time>2026-03-22T03:10:27Z</time></trkpt><trkpt lat="24.40413673095286" lon="120.76607655908876"><ele>316.5</ele><time>2026-03-22T03:10:28Z</time></trkpt><trkpt lat="24.40394153428442" lon="120.76589896236922"><ele>320.0</ele><time>2026-03-22T03:10:29Z</time></trkpt><trkpt lat="24.40374447416374" lon="120.76572306491232"><ele>320.0</ele><time>2026-03-22T03:10:30Z</time></trkpt><trkpt lat="24.40354550970931" lon="120.76554783552791"><ele>320.0</ele><time>2026-03-22T03:10:31Z</time></trkpt><trkpt lat="24.40334331004354" lon="120.76537461759573"><ele>320.0</ele><time>2026-03-22T03:10:32Z</time></trkpt><trkpt lat="24.403140746679522" lon="120.76520376763825"><ele>320.0</ele><time>2026-03-22T03:10:33Z</time></trkpt><trkpt lat="24.40293295095889" lon="120.76503451845629"><ele>325.0</ele><time>2026-03-22T03:10:34Z</time></trkpt><trkpt lat="24.402723713120963" lon="120.7648665704089"><ele>330.0</ele><time>2026-03-22T03:10:35Z</time></trkpt><trkpt lat="24.40251214934105" lon="120.76470152013776"><ele>330.0</ele><time>2026-03-22T03:10:36Z</time></trkpt><trkpt lat="24.402296687982023" lon="120.76453797196359"><ele>330.0</ele><time>2026-03-22T03:10:37Z</time></trkpt><trkpt lat="24.402080119961038" lon="120.76437603512342"><ele>333.0</ele><time>2026-03-22T03:10:38Z</time></trkpt><trkpt lat="24.40186106999206" lon="120.76421780585477"><ele>336.0</ele><time>2026-03-22T03:10:39Z</time></trkpt><trkpt lat="24.40163917322495" lon="120.7640612002242"><ele>336.0</ele><time>2026-03-22T03:10:40Z</time></trkpt><trkpt lat="24.40141587246209" lon="120.76390568648709"><ele>336.0</ele><time>2026-03-22T03:10:41Z</time></trkpt><trkpt lat="24.401190753612806" lon="120.76374991574053"><ele>337.0</ele><time>2026-03-22T03:10:42Z</time></trkpt><trkpt lat="24.400964489191374" lon="120.7635935636994"><ele>338.0</ele><time>2026-03-22T03:10:43Z</time></trkpt><trkpt lat="24.40073531466233" lon="120.76344054142385"><ele>341.0</ele><time>2026-03-22T03:10:44Z</time></trkpt><trkpt lat="24.40050019857849" lon="120.76328914376097"><ele>344.0</ele><time>2026-03-22T03:10:45Z</time></trkpt><trkpt lat="24.400263528798437" lon="120.76313762579319"><ele>344.0</ele><time>2026-03-22T03:10:46Z</time></trkpt><trkpt lat="24.400025421474258" lon="120.76298558312146"><ele>344.0</ele><time>2026-03-22T03:10:47Z</time></trkpt><trkpt lat="24.399785378148863" lon="120.76283703714054"><ele>346.0</ele><time>2026-03-22T03:10:48Z</time></trkpt><trkpt lat="24.39954496826935" lon="120.76268476820609"><ele>348.0</ele><time>2026-03-22T03:10:49Z</time></trkpt><trkpt lat="24.399304732210684" lon="120.76253242512725"><ele>348.0</ele><time>2026-03-22T03:10:50Z</time></trkpt><trkpt lat="24.399068897420957" lon="120.76237940287217"><ele>348.0</ele><time>2026-03-22T03:10:51Z</time></trkpt><trkpt lat="24.398835946618398" lon="120.76222714090528"><ele>348.0</ele><time>2026-03-22T03:10:52Z</time></trkpt><trkpt lat="24.398605571035983" lon="120.76207471334818"><ele>348.0</ele><time>2026-03-22T03:10:53Z</time></trkpt><trkpt lat="24.398376341042386" lon="120.7619187550592"><ele>348.0</ele><time>2026-03-22T03:10:54Z</time></trkpt><trkpt lat="24.398153647529355" lon="120.76176523488493"><ele>348.0</ele><time>2026-03-22T03:10:55Z</time></trkpt><trkpt lat="24.397930681939126" lon="120.76161531358409"><ele>348.0</ele><time>2026-03-22T03:10:56Z</time></trkpt><trkpt lat="24.397709236456425" lon="120.76146774336875"><ele>348.0</ele><time>2026-03-22T03:10:57Z</time></trkpt><trkpt lat="24.397488852101255" lon="120.76132134624402"><ele>348.0</ele><time>2026-03-22T03:10:58Z</time></trkpt><trkpt lat="24.397271609872067" lon="120.7611744092213"><ele>348.0</ele><time>2026-03-22T03:10:59Z</time></trkpt><trkpt lat="24.39704853751429" lon="120.76104818174373"><ele>350.5</ele><time>2026-03-22T03:11:00Z</time></trkpt><trkpt lat="24.39683747254839" lon="120.76090930083022"><ele>353.0</ele><time>2026-03-22T03:11:01Z</time></trkpt><trkpt lat="24.39662952818849" lon="120.76077210200107"><ele>353.0</ele><time>2026-03-22T03:11:02Z</time></trkpt><trkpt lat="24.39642599208578" lon="120.76063451063689"><ele>353.0</ele><time>2026-03-22T03:11:03Z</time></trkpt><trkpt lat="24.39622763586721" lon="120.76049748202122"><ele>353.0</ele><time>2026-03-22T03:11:04Z</time></trkpt><trkpt lat="24.396061475572775" lon="120.76031213535174"><ele>353.0</ele><time>2026-03-22T03:11:05Z</time></trkpt><trkpt lat="24.395878463501084" lon="120.76016713066105"><ele>354.0</ele><time>2026-03-22T03:11:06Z</time></trkpt><trkpt lat="24.395705879397056" lon="120.76001385700091"><ele>355.0</ele><time>2026-03-22T03:11:07Z</time></trkpt><trkpt lat="24.395542899543113" lon="120.75985302025335"><ele>356.0</ele><time>2026-03-22T03:11:08Z</time></trkpt><trkpt lat="24.395367825753258" lon="120.75971379333528"><ele>356.0</ele><time>2026-03-22T03:11:09Z</time></trkpt><trkpt lat="24.39522420656003" lon="120.75955333256478"><ele>356.0</ele><time>2026-03-22T03:11:10Z</time></trkpt><trkpt lat="24.395086441620943" lon="120.75940092451934"><ele>356.0</ele><time>2026-03-22T03:11:11Z</time></trkpt><trkpt lat="24.394952690107097" lon="120.75925817665889"><ele>357.33333333333337</ele><time>2026-03-22T03:11:12Z</time></trkpt><trkpt lat="24.394822603729686" lon="120.75912690474689"><ele>358.6666666666667</ele><time>2026-03-22T03:11:13Z</time></trkpt><trkpt lat="24.394694697365104" lon="120.75900721170585"><ele>360.0</ele><time>2026-03-22T03:11:14Z</time></trkpt><trkpt lat="24.394564743826056" lon="120.75889763756044"><ele>360.0</ele><time>2026-03-22T03:11:15Z</time></trkpt><trkpt lat="24.394431160428912" lon="120.75879905560029"><ele>360.0</ele><time>2026-03-22T03:11:16Z</time></trkpt><trkpt lat="24.394297365915214" lon="120.75870045528184"><ele>360.0</ele><time>2026-03-22T03:11:17Z</time></trkpt><trkpt lat="24.39416510789145" lon="120.75860416851654"><ele>361.5</ele><time>2026-03-22T03:11:18Z</time></trkpt><trkpt lat="24.394036162742385" lon="120.75851071431498"><ele>363.0</ele><time>2026-03-22T03:11:19Z</time></trkpt><trkpt lat="24.39391105799539" lon="120.75842087590608"><ele>364.5</ele><time>2026-03-22T03:11:20Z</time></trkpt><trkpt lat="24.393792716344475" lon="120.7583368414801"><ele>366.0</ele><time>2026-03-22T03:11:21Z</time></trkpt><trkpt lat="24.393684034664364" lon="120.75825998782638"><ele>366.0</ele><time>2026-03-22T03:11:22Z</time></trkpt><trkpt lat="24.393585802956427" lon="120.75819054221954"><ele>366.0</ele><time>2026-03-22T03:11:23Z</time></trkpt><trkpt lat="24.393497056636516" lon="120.75812780237698"><ele>366.0</ele><time>2026-03-22T03:11:24Z</time></trkpt><trkpt lat="24.393418841922433" lon="120.75807288631364"><ele>366.0</ele><time>2026-03-22T03:11:25Z</time></trkpt><trkpt lat="24.393348421624616" lon="120.75802375022708"><ele>366.0</ele><time>2026-03-22T03:11:26Z</time></trkpt><trkpt lat="24.393283561072653" lon="120.75797828761276"><ele>366.0</ele><time>2026-03-22T03:11:27Z</time></trkpt><trkpt lat="24.393223840667353" lon="120.75793619722425"><ele>366.0</ele><time>2026-03-22T03:11:28Z</time></trkpt><trkpt lat="24.39319979096998" lon="120.75785035016953"><ele>366.0</ele><time>2026-03-22T03:11:29Z</time></trkpt><trkpt lat="24.393190395846034" lon="120.75777117971359"><ele>366.0</ele><time>2026-03-22T03:11:31Z</time></trkpt><trkpt lat="24.393161457523306" lon="120.75770756738585"><ele>366.0</ele><time>2026-03-22T03:11:34Z</time></trkpt><trkpt lat="24.39317626004669" lon="120.7576259677423"><ele>366.0</ele><time>2026-03-22T03:11:42Z</time></trkpt><trkpt lat="24.393205374893956" lon="120.75753184102825"><ele>367.1666666666667</ele><time>2026-03-22T03:11:45Z</time></trkpt><trkpt lat="24.39322275090111" lon="120.75746032097447"><ele>368.3333333333333</ele><time>2026-03-22T03:11:47Z</time></trkpt><trkpt lat="24.393304597774232" lon="120.75743770375654"><ele>369.5</ele><time>2026-03-22T03:11:48Z</time></trkpt><trkpt lat="24.39337262048078" lon="120.75735883166638"><ele>370.66666666666663</ele><time>2026-03-22T03:11:50Z</time></trkpt><trkpt lat="24.39340160073588" lon="120.75727786306025"><ele>371.8333333333333</ele><time>2026-03-22T03:11:52Z</time></trkpt><trkpt lat="24.39344850118445" lon="120.75722289857232"><ele>373.0</ele><time>2026-03-22T03:11:54Z</time></trkpt><trkpt lat="24.393492508309926" lon="120.75717132489399"><ele>373.0</ele><time>2026-03-22T03:11:56Z</time></trkpt><trkpt lat="24.3935207419723" lon="120.75710926942504"><ele>373.0</ele><time>2026-03-22T03:11:58Z</time></trkpt><trkpt lat="24.393494468328495" lon="120.75702160391553"><ele>373.0</ele><time>2026-03-22T03:11:59Z</time></trkpt><trkpt lat="24.39340259650426" lon="120.75693914418547"><ele>373.0</ele><time>2026-03-22T03:12:01Z</time></trkpt><trkpt lat="24.393340096071285" lon="120.75688946425728"><ele>373.0</ele><time>2026-03-22T03:12:02Z</time></trkpt><trkpt lat="24.39326604320094" lon="120.75683524640543"><ele>373.0</ele><time>2026-03-22T03:12:03Z</time></trkpt><trkpt lat="24.39319308763316" lon="120.75678608712931"><ele>375.2</ele><time>2026-03-22T03:12:04Z</time></trkpt><trkpt lat="24.39311999595883" lon="120.75673558523769"><ele>377.4</ele><time>2026-03-22T03:12:05Z</time></trkpt><trkpt lat="24.393041307811394" lon="120.75668348189302"><ele>379.59999999999997</ele><time>2026-03-22T03:12:06Z</time></trkpt><trkpt lat="24.392955877271582" lon="120.75662665088366"><ele>381.79999999999995</ele><time>2026-03-22T03:12:07Z</time></trkpt><trkpt lat="24.392862747007594" lon="120.75656414357606"><ele>384.0</ele><time>2026-03-22T03:12:08Z</time></trkpt><trkpt lat="24.392760741101963" lon="120.75649757426099"><ele>384.0</ele><time>2026-03-22T03:12:09Z</time></trkpt><trkpt lat="24.39264994055606" lon="120.75642480202704"><ele>384.0</ele><time>2026-03-22T03:12:10Z</time></trkpt><trkpt lat="24.39253032727949" lon="120.75635084737029"><ele>384.0</ele><time>2026-03-22T03:12:11Z</time></trkpt><trkpt lat="24.392404853000503" lon="120.75627936961408"><ele>384.0</ele><time>2026-03-22T03:12:12Z</time></trkpt><trkpt lat="24.392280845507358" lon="120.75621628798017"><ele>384.5</ele><time>2026-03-22T03:12:13Z</time></trkpt><trkpt lat="24.392152594787643" lon="120.75616112891656"><ele>385.0</ele><time>2026-03-22T03:12:14Z</time></trkpt><trkpt lat="24.39201860500343" lon="120.75611187186465"><ele>385.5</ele><time>2026-03-22T03:12:15Z</time></trkpt><trkpt lat="24.391878359717726" lon="120.75606799471419"><ele>386.0</ele><time>2026-03-22T03:12:16Z</time></trkpt><trkpt lat="24.391733370011963" lon="120.75602860229695"><ele>386.0</ele><time>2026-03-22T03:12:17Z</time></trkpt><trkpt lat="24.391581914351615" lon="120.75599407078658"><ele>386.0</ele><time>2026-03-22T03:12:18Z</time></trkpt><trkpt lat="24.39142290563262" lon="120.7559624122361"><ele>386.0</ele><time>2026-03-22T03:12:19Z</time></trkpt><trkpt lat="24.391260251429514" lon="120.7559293536669"><ele>384.3333333333333</ele><time>2026-03-22T03:12:20Z</time></trkpt><trkpt lat="24.391100676711844" lon="120.75589485985682"><ele>382.66666666666663</ele><time>2026-03-22T03:12:21Z</time></trkpt><trkpt lat="24.390931979976283" lon="120.755859077181"><ele>381.0</ele><time>2026-03-22T03:12:22Z</time></trkpt><trkpt lat="24.390773311401528" lon="120.75580933702378"><ele>381.0</ele><time>2026-03-22T03:12:23Z</time></trkpt><trkpt lat="24.390611122691645" lon="120.75577378781504"><ele>381.0</ele><time>2026-03-22T03:12:24Z</time></trkpt><trkpt lat="24.390452513749114" lon="120.75575550727135"><ele>381.0</ele><time>2026-03-22T03:12:25Z</time></trkpt><trkpt lat="24.39029755789588" lon="120.75570467956516"><ele>378.3333333333333</ele><time>2026-03-22T03:12:26Z</time></trkpt><trkpt lat="24.390136486109334" lon="120.7556528434826"><ele>375.66666666666663</ele><time>2026-03-22T03:12:27Z</time></trkpt><trkpt lat="24.389976889118426" lon="120.75559473611503"><ele>373.0</ele><time>2026-03-22T03:12:28Z</time></trkpt><trkpt lat="24.38981908413137" lon="120.75552998038005"><ele>370.66666666666663</ele><time>2026-03-22T03:12:29Z</time></trkpt><trkpt lat="24.389664169686668" lon="120.75545673754449"><ele>368.3333333333333</ele><time>2026-03-22T03:12:30Z</time></trkpt><trkpt lat="24.38950924978844" lon="120.7553786552602"><ele>366.0</ele><time>2026-03-22T03:12:31Z</time></trkpt><trkpt lat="24.389359535723997" lon="120.75529927943766"><ele>366.0</ele><time>2026-03-22T03:12:32Z</time></trkpt><trkpt lat="24.3892070641498" lon="120.7552202279016"><ele>366.0</ele><time>2026-03-22T03:12:33Z</time></trkpt><trkpt lat="24.38905797163375" lon="120.75513935995694"><ele>366.0</ele><time>2026-03-22T03:12:34Z</time></trkpt><trkpt lat="24.388904755669685" lon="120.75506000901716"><ele>367.0</ele><time>2026-03-22T03:12:35Z</time></trkpt><trkpt lat="24.388753517943396" lon="120.7549809547233"><ele>368.0</ele><time>2026-03-22T03:12:36Z</time></trkpt><trkpt lat="24.388599791433496" lon="120.75490330283442"><ele>369.0</ele><time>2026-03-22T03:12:37Z</time></trkpt><trkpt lat="24.388448321644315" lon="120.75482529743337"><ele>369.0</ele><time>2026-03-22T03:12:38Z</time></trkpt><trkpt lat="24.388298195369234" lon="120.75474192995557"><ele>369.0</ele><time>2026-03-22T03:12:39Z</time></trkpt><trkpt lat="24.388150417606333" lon="120.75465927794755"><ele>369.0</ele><time>2026-03-22T03:12:40Z</time></trkpt><trkpt lat="24.388005351040842" lon="120.75457046934466"><ele>369.0</ele><time>2026-03-22T03:12:41Z</time></trkpt><trkpt lat="24.387867975361406" lon="120.75446717002312"><ele>369.0</ele><time>2026-03-22T03:12:42Z</time></trkpt><trkpt lat="24.38773806463618" lon="120.75434980377547"><ele>369.0</ele><time>2026-03-22T03:12:43Z</time></trkpt><trkpt lat="24.387608989883923" lon="120.75422750730299"><ele>370.0</ele><time>2026-03-22T03:12:44Z</time></trkpt><trkpt lat="24.38748196581818" lon="120.75410962363323"><ele>371.0</ele><time>2026-03-22T03:12:45Z</time></trkpt><trkpt lat="24.387353323142158" lon="120.75399904749561"><ele>372.0</ele><time>2026-03-22T03:12:46Z</time></trkpt><trkpt lat="24.387221033784144" lon="120.75389373624051"><ele>370.0</ele><time>2026-03-22T03:12:47Z</time></trkpt><trkpt lat="24.38708501156692" lon="120.75379988089205"><ele>368.0</ele><time>2026-03-22T03:12:48Z</time></trkpt><trkpt lat="24.386939146244465" lon="120.75372197368145"><ele>366.0</ele><time>2026-03-22T03:12:49Z</time></trkpt><trkpt lat="24.386787741321683" lon="120.75366898187733"><ele>366.0</ele><time>2026-03-22T03:12:50Z</time></trkpt><trkpt lat="24.386634557751666" lon="120.75363004526568"><ele>366.0</ele><time>2026-03-22T03:12:51Z</time></trkpt><trkpt lat="24.386480590485785" lon="120.75359689503549"><ele>366.0</ele><time>2026-03-22T03:12:52Z</time></trkpt><trkpt lat="24.38632598876939" lon="120.75357057397528"><ele>365.6666666666667</ele><time>2026-03-22T03:12:53Z</time></trkpt><trkpt lat="24.386172464344654" lon="120.75353816729996"><ele>365.33333333333337</ele><time>2026-03-22T03:12:54Z</time></trkpt><trkpt lat="24.3860178168538" lon="120.75349857296088"><ele>365.0</ele><time>2026-03-22T03:12:55Z</time></trkpt><trkpt lat="24.385862050280487" lon="120.75345381570965"><ele>365.0</ele><time>2026-03-22T03:12:56Z</time></trkpt><trkpt lat="24.385709458707815" lon="120.75340181725875"><ele>365.0</ele><time>2026-03-22T03:12:57Z</time></trkpt><trkpt lat="24.385559211372264" lon="120.75334055131974"><ele>365.0</ele><time>2026-03-22T03:12:58Z</time></trkpt><trkpt lat="24.385410236124148" lon="120.75326944625112"><ele>363.33333333333337</ele><time>2026-03-22T03:12:59Z</time></trkpt><trkpt lat="24.385258955844474" lon="120.7531951727619"><ele>361.6666666666667</ele><time>2026-03-22T03:13:00Z</time></trkpt><trkpt lat="24.385106236028044" lon="120.75311551640279"><ele>360.0</ele><time>2026-03-22T03:13:01Z</time></trkpt><trkpt lat="24.38495216640523" lon="120.75303220524194"><ele>360.0</ele><time>2026-03-22T03:13:02Z</time></trkpt><trkpt lat="24.384798207190098" lon="120.75295119658088"><ele>360.0</ele><time>2026-03-22T03:13:03Z</time></trkpt><trkpt lat="24.38464591341821" lon="120.75287015318384"><ele>360.0</ele><time>2026-03-22T03:13:04Z</time></trkpt><trkpt lat="24.384493999390877" lon="120.75278936847798"><ele>359.6666666666667</ele><time>2026-03-22T03:13:05Z</time></trkpt><trkpt lat="24.384341667293373" lon="120.75271003861918"><ele>359.33333333333337</ele><time>2026-03-22T03:13:06Z</time></trkpt><trkpt lat="24.38418881864824" lon="120.75263062170194"><ele>359.0</ele><time>2026-03-22T03:13:07Z</time></trkpt><trkpt lat="24.384035962423514" lon="120.75255048017402"><ele>359.0</ele><time>2026-03-22T03:13:08Z</time></trkpt><trkpt lat="24.38388291728696" lon="120.75247012155478"><ele>359.0</ele><time>2026-03-22T03:13:09Z</time></trkpt><trkpt lat="24.38372969165405" lon="120.7523894111745"><ele>359.0</ele><time>2026-03-22T03:13:10Z</time></trkpt><trkpt lat="24.383576990341936" lon="120.75230955991795"><ele>357.33333333333337</ele><time>2026-03-22T03:13:11Z</time></trkpt><trkpt lat="24.383424227570913" lon="120.75223056490921"><ele>355.6666666666667</ele><time>2026-03-22T03:13:12Z</time></trkpt><trkpt lat="24.38327362853179" lon="120.75214976729174"><ele>354.0</ele><time>2026-03-22T03:13:13Z</time></trkpt><trkpt lat="24.383122291433782" lon="120.75206981307467"><ele>352.3333333333333</ele><time>2026-03-22T03:13:14Z</time></trkpt><trkpt lat="24.38296936355002" lon="120.75199001430879"><ele>350.66666666666663</ele><time>2026-03-22T03:13:15Z</time></trkpt><trkpt lat="24.38281615219559" lon="120.75190911929008"><ele>349.0</ele><time>2026-03-22T03:13:16Z</time></trkpt><trkpt lat="24.382664431316233" lon="120.75182748904795"><ele>349.0</ele><time>2026-03-22T03:13:17Z</time></trkpt><trkpt lat="24.382511309937946" lon="120.75174645169129"><ele>349.0</ele><time>2026-03-22T03:13:18Z</time></trkpt><trkpt lat="24.38235721840689" lon="120.75166435706785"><ele>349.0</ele><time>2026-03-22T03:13:19Z</time></trkpt><trkpt lat="24.38220390419934" lon="120.7515822997476"><ele>346.66666666666663</ele><time>2026-03-22T03:13:20Z</time></trkpt><trkpt lat="24.382049535241727" lon="120.75150052677212"><ele>344.3333333333333</ele><time>2026-03-22T03:13:21Z</time></trkpt><trkpt lat="24.38189580419988" lon="120.7514198041978"><ele>342.0</ele><time>2026-03-22T03:13:22Z</time></trkpt><trkpt lat="24.381740879140896" lon="120.75133713589267"><ele>342.0</ele><time>2026-03-22T03:13:23Z</time></trkpt><trkpt lat="24.38158486551271" lon="120.75125571876995"><ele>342.0</ele><time>2026-03-22T03:13:24Z</time></trkpt><trkpt lat="24.381429706812458" lon="120.75117411954822"><ele>342.0</ele><time>2026-03-22T03:13:25Z</time></trkpt><trkpt lat="24.38127368024951" lon="120.75109355561544"><ele>340.6666666666667</ele><time>2026-03-22T03:13:26Z</time></trkpt><trkpt lat="24.38111647091573" lon="120.75101392789391"><ele>339.33333333333337</ele><time>2026-03-22T03:13:27Z</time></trkpt><trkpt lat="24.380959922280628" lon="120.75093608471876"><ele>338.0</ele><time>2026-03-22T03:13:28Z</time></trkpt><trkpt lat="24.380804740660217" lon="120.75085865912426"><ele>338.0</ele><time>2026-03-22T03:13:29Z</time></trkpt><trkpt lat="24.380650253481992" lon="120.75078153417785"><ele>338.0</ele><time>2026-03-22T03:13:30Z</time></trkpt><trkpt lat="24.380500259574177" lon="120.75070642966675"><ele>338.0</ele><time>2026-03-22T03:13:31Z</time></trkpt><trkpt lat="24.38035705956833" lon="120.75063545254409"><ele>336.25</ele><time>2026-03-22T03:13:32Z</time></trkpt><trkpt lat="24.38022450515375" lon="120.75056740173558"><ele>334.5</ele><time>2026-03-22T03:13:33Z</time></trkpt><trkpt lat="24.380099837616932" lon="120.75050503437043"><ele>332.75</ele><time>2026-03-22T03:13:34Z</time></trkpt><trkpt lat="24.379982475659364" lon="120.75044621018127"><ele>331.0</ele><time>2026-03-22T03:13:35Z</time></trkpt><trkpt lat="24.37987148833927" lon="120.75038993789589"><ele>331.0</ele><time>2026-03-22T03:13:36Z</time></trkpt><trkpt lat="24.37976823329205" lon="120.75033709844801"><ele>331.0</ele><time>2026-03-22T03:13:37Z</time></trkpt><trkpt lat="24.37967233688636" lon="120.75028856216649"><ele>331.0</ele><time>2026-03-22T03:13:38Z</time></trkpt><trkpt lat="24.3795828336797" lon="120.75024536714302"><ele>331.0</ele><time>2026-03-22T03:13:39Z</time></trkpt><trkpt lat="24.379498185936267" lon="120.75020537080397"><ele>331.0</ele><time>2026-03-22T03:13:40Z</time></trkpt><trkpt lat="24.37941934834414" lon="120.7501699397617"><ele>331.16666666666663</ele><time>2026-03-22T03:13:41Z</time></trkpt><trkpt lat="24.37934681235712" lon="120.7501385416432"><ele>331.3333333333333</ele><time>2026-03-22T03:13:42Z</time></trkpt><trkpt lat="24.379277230350993" lon="120.7501094759816"><ele>331.5</ele><time>2026-03-22T03:13:43Z</time></trkpt><trkpt lat="24.37921284222625" lon="120.75008330006487"><ele>331.6666666666667</ele><time>2026-03-22T03:13:44Z</time></trkpt><trkpt lat="24.379153826426837" lon="120.75005909858277"><ele>331.83333333333337</ele><time>2026-03-22T03:13:45Z</time></trkpt><trkpt lat="24.3790502150018" lon="120.75001676347603"><ele>332.0</ele><time>2026-03-22T03:13:47Z</time></trkpt><trkpt lat="24.37895151675397" lon="120.74997739614689"><ele>332.0</ele><time>2026-03-22T03:13:49Z</time></trkpt><trkpt lat="24.37885524583098" lon="120.74993944014936"><ele>332.0</ele><time>2026-03-22T03:13:51Z</time></trkpt><trkpt lat="24.37876188980845" lon="120.74990349884997"><ele>332.0</ele><time>2026-03-22T03:13:53Z</time></trkpt><trkpt lat="24.378669639832978" lon="120.74986694740666"><ele>332.0</ele><time>2026-03-22T03:13:55Z</time></trkpt><trkpt lat="24.37857987103556" lon="120.74983177382808"><ele>332.0</ele><time>2026-03-22T03:13:57Z</time></trkpt><trkpt lat="24.378492753780943" lon="120.74979582990127"><ele>330.0</ele><time>2026-03-22T03:13:59Z</time></trkpt><trkpt lat="24.37842350864262" lon="120.74977090814401"><ele>328.0</ele><time>2026-03-22T03:14:01Z</time></trkpt><trkpt lat="24.378346396032885" lon="120.7497386963286"><ele>326.0</ele><time>2026-03-22T03:14:15.999Z</time></trkpt><trkpt lat="24.378281759291678" lon="120.74970967072393"><ele>324.0</ele><time>2026-03-22T03:14:17.999Z</time></trkpt><trkpt lat="24.378191503528644" lon="120.74966615935693"><ele>322.0</ele><time>2026-03-22T03:14:19.999Z</time></trkpt><trkpt lat="24.37813179576501" lon="120.74963781031268"><ele>320.0</ele><time>2026-03-22T03:14:20.999Z</time></trkpt><trkpt lat="24.378070048989045" lon="120.74960627564116"><ele>319.4</ele><time>2026-03-22T03:14:21.999Z</time></trkpt><trkpt lat="24.378000430526967" lon="120.7495661376825"><ele>318.8</ele><time>2026-03-22T03:14:22.999Z</time></trkpt><trkpt lat="24.377923457426604" lon="120.7495197875216"><ele>318.2</ele><time>2026-03-22T03:14:23.999Z</time></trkpt><trkpt lat="24.377830566321148" lon="120.74946823148554"><ele>317.6</ele><time>2026-03-22T03:14:24.999Z</time></trkpt><trkpt lat="24.377745670997008" lon="120.74941237065137"><ele>317.0</ele><time>2026-03-22T03:14:25.999Z</time></trkpt><trkpt lat="24.37765413282742" lon="120.74936905254911"><ele>317.0</ele><time>2026-03-22T03:14:26.999Z</time></trkpt><trkpt lat="24.37756524552934" lon="120.74932042864886"><ele>317.0</ele><time>2026-03-22T03:14:27.999Z</time></trkpt><trkpt lat="24.37747220864007" lon="120.74927986164882"><ele>317.0</ele><time>2026-03-22T03:14:28.999Z</time></trkpt><trkpt lat="24.377375607811985" lon="120.74924050242825"><ele>317.0</ele><time>2026-03-22T03:14:29.999Z</time></trkpt><trkpt lat="24.37728116567256" lon="120.74919296872419"><ele>317.0</ele><time>2026-03-22T03:14:30.999Z</time></trkpt><trkpt lat="24.377180779822055" lon="120.74913510152565"><ele>315.5</ele><time>2026-03-22T03:14:31.999Z</time></trkpt><trkpt lat="24.377072374916324" lon="120.74907882325863"><ele>314.0</ele><time>2026-03-22T03:14:32.999Z</time></trkpt><trkpt lat="24.37695665078588" lon="120.74902409259941"><ele>312.5</ele><time>2026-03-22T03:14:33.999Z</time></trkpt><trkpt lat="24.376833932960395" lon="120.74896413152764"><ele>311.0</ele><time>2026-03-22T03:14:34.999Z</time></trkpt><trkpt lat="24.376709774247633" lon="120.74890438677083"><ele>311.0</ele><time>2026-03-22T03:14:35.999Z</time></trkpt><trkpt lat="24.37658315588239" lon="120.74884471491491"><ele>311.0</ele><time>2026-03-22T03:14:36.999Z</time></trkpt><trkpt lat="24.376452623460168" lon="120.74878673180103"><ele>311.0</ele><time>2026-03-22T03:14:37.999Z</time></trkpt><trkpt lat="24.376321209332044" lon="120.74872873868138"><ele>311.0</ele><time>2026-03-22T03:14:38.999Z</time></trkpt><trkpt lat="24.376183941206097" lon="120.74867563904097"><ele>310.33333333333337</ele><time>2026-03-22T03:14:39.999Z</time></trkpt><trkpt lat="24.376046660315936" lon="120.74861923629585"><ele>309.6666666666667</ele><time>2026-03-22T03:14:40.999Z</time></trkpt><trkpt lat="24.375905246025965" lon="120.74856437726088"><ele>309.0</ele><time>2026-03-22T03:14:41.999Z</time></trkpt><trkpt lat="24.375618786791943" lon="120.74845135303681"><ele>307.3333333333333</ele><time>2026-03-22T03:14:43.999Z</time></trkpt><trkpt lat="24.375470558490832" lon="120.74839335979915"><ele>305.66666666666663</ele><time>2026-03-22T03:14:44.999Z</time></trkpt><trkpt lat="24.375321717693282" lon="120.74833216949074"><ele>304.0</ele><time>2026-03-22T03:14:45.999Z</time></trkpt><trkpt lat="24.375175439315633" lon="120.74827262185788"><ele>304.0</ele><time>2026-03-22T03:14:46.999Z</time></trkpt><trkpt lat="24.37502782878368" lon="120.74820957692502"><ele>304.0</ele><time>2026-03-22T03:14:47.999Z</time></trkpt><trkpt lat="24.37487887912096" lon="120.7481495848689"><ele>304.0</ele><time>2026-03-22T03:14:48.999Z</time></trkpt><trkpt lat="24.374730254360255" lon="120.74808520964334"><ele>302.3333333333333</ele><time>2026-03-22T03:14:49.999Z</time></trkpt><trkpt lat="24.374584357298644" lon="120.74802160758534"><ele>300.6666666666667</ele><time>2026-03-22T03:14:50.999Z</time></trkpt><trkpt lat="24.374439973190874" lon="120.74795707583957"><ele>299.0</ele><time>2026-03-22T03:14:51.999Z</time></trkpt><trkpt lat="24.37429385387563" lon="120.74788984828214"><ele>299.0</ele><time>2026-03-22T03:14:52.999Z</time></trkpt><trkpt lat="24.374148739536675" lon="120.7478223014266"><ele>299.0</ele><time>2026-03-22T03:14:53.999Z</time></trkpt><trkpt lat="24.3740044858703" lon="120.74775176392235"><ele>299.0</ele><time>2026-03-22T03:14:54.999Z</time></trkpt><trkpt lat="24.373857688607156" lon="120.7476795264772"><ele>298.6666666666667</ele><time>2026-03-22T03:14:55.999Z</time></trkpt><trkpt lat="24.373710578122804" lon="120.74761216383192"><ele>298.3333333333333</ele><time>2026-03-22T03:14:56.999Z</time></trkpt><trkpt lat="24.37356266810885" lon="120.74754232952436"><ele>298.0</ele><time>2026-03-22T03:14:57.999Z</time></trkpt><trkpt lat="24.373415107130857" lon="120.7474670660586"><ele>298.0</ele><time>2026-03-22T03:14:58.999Z</time></trkpt><trkpt lat="24.373265603609163" lon="120.74738878156717"><ele>298.0</ele><time>2026-03-22T03:14:59.999Z</time></trkpt><trkpt lat="24.373114896645053" lon="120.74730946481803"><ele>298.0</ele><time>2026-03-22T03:15:00.999Z</time></trkpt><trkpt lat="24.37296391587812" lon="120.74722883406687"><ele>297.0</ele><time>2026-03-22T03:15:01.999Z</time></trkpt><trkpt lat="24.37281211479547" lon="120.74714738509778"><ele>296.0</ele><time>2026-03-22T03:15:02.999Z</time></trkpt><trkpt lat="24.37266158299115" lon="120.74706333255871"><ele>295.0</ele><time>2026-03-22T03:15:03.999Z</time></trkpt><trkpt lat="24.37250955953238" lon="120.74697680059055"><ele>295.0</ele><time>2026-03-22T03:15:04.999Z</time></trkpt><trkpt lat="24.372354838347686" lon="120.74688828415255"><ele>295.0</ele><time>2026-03-22T03:15:05.999Z</time></trkpt><trkpt lat="24.372199925575813" lon="120.74680143000691"><ele>295.0</ele><time>2026-03-22T03:15:06.999Z</time></trkpt><trkpt lat="24.372045623622352" lon="120.74671309355698"><ele>292.3333333333333</ele><time>2026-03-22T03:15:07.999Z</time></trkpt><trkpt lat="24.371891585089386" lon="120.74662337991474"><ele>289.6666666666667</ele><time>2026-03-22T03:15:08.999Z</time></trkpt><trkpt lat="24.371736473388445" lon="120.74653393194036"><ele>287.0</ele><time>2026-03-22T03:15:09.999Z</time></trkpt><trkpt lat="24.371581915552916" lon="120.74644615347623"><ele>287.0</ele><time>2026-03-22T03:15:10.999Z</time></trkpt><trkpt lat="24.371427015031973" lon="120.74635834988071"><ele>287.0</ele><time>2026-03-22T03:15:11.999Z</time></trkpt><trkpt lat="24.37127444303778" lon="120.74626810511705"><ele>287.0</ele><time>2026-03-22T03:15:12.999Z</time></trkpt><trkpt lat="24.371122289303642" lon="120.74617869392148"><ele>286.0</ele><time>2026-03-22T03:15:13.999Z</time></trkpt><trkpt lat="24.37097001954349" lon="120.74608958081366"><ele>285.0</ele><time>2026-03-22T03:15:14.999Z</time></trkpt><trkpt lat="24.37081751752821" lon="120.74599988059654"><ele>284.0</ele><time>2026-03-22T03:15:15.999Z</time></trkpt><trkpt lat="24.37066658920716" lon="120.74590772314279"><ele>282.0</ele><time>2026-03-22T03:15:16.999Z</time></trkpt><trkpt lat="24.37051813191068" lon="120.74581254718474"><ele>280.0</ele><time>2026-03-22T03:15:17.999Z</time></trkpt><trkpt lat="24.370369943669967" lon="120.74571385169172"><ele>278.0</ele><time>2026-03-22T03:15:18.999Z</time></trkpt><trkpt lat="24.370223490153712" lon="120.74561483685478"><ele>278.0</ele><time>2026-03-22T03:15:19.999Z</time></trkpt><trkpt lat="24.370075378895482" lon="120.74551403677685"><ele>278.0</ele><time>2026-03-22T03:15:20.999Z</time></trkpt><trkpt lat="24.369933919264316" lon="120.74540994588646"><ele>278.0</ele><time>2026-03-22T03:15:21.999Z</time></trkpt><trkpt lat="24.369787062528257" lon="120.745307165406"><ele>278.0</ele><time>2026-03-22T03:15:22.999Z</time></trkpt><trkpt lat="24.36964233978429" lon="120.74520550560113"><ele>278.0</ele><time>2026-03-22T03:15:23.999Z</time></trkpt><trkpt lat="24.369496536004032" lon="120.74510048091392"><ele>278.0</ele><time>2026-03-22T03:15:24.999Z</time></trkpt><trkpt lat="24.36934909609583" lon="120.74499567441397"><ele>278.0</ele><time>2026-03-22T03:15:25.999Z</time></trkpt><trkpt lat="24.369200856966934" lon="120.74488961202071"><ele>278.0</ele><time>2026-03-22T03:15:26.999Z</time></trkpt><trkpt lat="24.369049952101452" lon="120.74478429744596"><ele>278.0</ele><time>2026-03-22T03:15:27.999Z</time></trkpt><trkpt lat="24.368896952797463" lon="120.74467681409423"><ele>277.0</ele><time>2026-03-22T03:15:28.999Z</time></trkpt><trkpt lat="24.368744394541878" lon="120.74456731527383"><ele>276.0</ele><time>2026-03-22T03:15:29.999Z</time></trkpt><trkpt lat="24.368593603082573" lon="120.74445783982483"><ele>275.0</ele><time>2026-03-22T03:15:30.999Z</time></trkpt><trkpt lat="24.368447916038537" lon="120.74435713486125"><ele>275.0</ele><time>2026-03-22T03:15:31.999Z</time></trkpt><trkpt lat="24.36830495345206" lon="120.7442561609506"><ele>275.0</ele><time>2026-03-22T03:15:32.999Z</time></trkpt><trkpt lat="24.368165681469947" lon="120.74416049805889"><ele>275.0</ele><time>2026-03-22T03:15:33.999Z</time></trkpt><trkpt lat="24.36802998705735" lon="120.74406452052744"><ele>271.0</ele><time>2026-03-22T03:15:34.999Z</time></trkpt><trkpt lat="24.367898062373087" lon="120.74397035600877"><ele>267.0</ele><time>2026-03-22T03:15:35.999Z</time></trkpt><trkpt lat="24.367765396085144" lon="120.7438664724352"><ele>263.0</ele><time>2026-03-22T03:15:36.999Z</time></trkpt><trkpt lat="24.367627535607046" lon="120.74377138645914"><ele>263.0</ele><time>2026-03-22T03:15:37.999Z</time></trkpt><trkpt lat="24.36749367138672" lon="120.74366963134166"><ele>263.0</ele><time>2026-03-22T03:15:38.999Z</time></trkpt><trkpt lat="24.367352975820456" lon="120.74356467745608"><ele>263.0</ele><time>2026-03-22T03:15:39.999Z</time></trkpt><trkpt lat="24.367214321188776" lon="120.7434565804236"><ele>261.6666666666667</ele><time>2026-03-22T03:15:40.999Z</time></trkpt><trkpt lat="24.36707575417495" lon="120.74334311567485"><ele>260.3333333333333</ele><time>2026-03-22T03:15:41.999Z</time></trkpt><trkpt lat="24.36693638551734" lon="120.74322886510048"><ele>259.0</ele><time>2026-03-22T03:15:42.999Z</time></trkpt><trkpt lat="24.36679540406455" lon="120.74311060992312"><ele>259.0</ele><time>2026-03-22T03:15:43.999Z</time></trkpt><trkpt lat="24.366653335390396" lon="120.74299110243741"><ele>259.0</ele><time>2026-03-22T03:15:44.999Z</time></trkpt><trkpt lat="24.36651073326971" lon="120.74286844713079"><ele>259.0</ele><time>2026-03-22T03:15:45.999Z</time></trkpt><trkpt lat="24.366363195996627" lon="120.74274804417661"><ele>257.0</ele><time>2026-03-22T03:15:46.999Z</time></trkpt><trkpt lat="24.366215443945965" lon="120.74262603330972"><ele>255.0</ele><time>2026-03-22T03:15:47.999Z</time></trkpt><trkpt lat="24.366068132278702" lon="120.74250447094326"><ele>253.0</ele><time>2026-03-22T03:15:48.999Z</time></trkpt><trkpt lat="24.365929956669127" lon="120.7423892885549"><ele>253.0</ele><time>2026-03-22T03:15:49.999Z</time></trkpt><trkpt lat="24.365798904518417" lon="120.74227582921733"><ele>253.0</ele><time>2026-03-22T03:15:50.999Z</time></trkpt><trkpt lat="24.36567118838497" lon="120.74217036931711"><ele>253.0</ele><time>2026-03-22T03:15:51.999Z</time></trkpt><trkpt lat="24.36554818532551" lon="120.74207101746917"><ele>253.0</ele><time>2026-03-22T03:15:52.999Z</time></trkpt><trkpt lat="24.365435600138838" lon="120.74198043272702"><ele>253.0</ele><time>2026-03-22T03:15:53.999Z</time></trkpt><trkpt lat="24.365322290655673" lon="120.7418832439957"><ele>253.0</ele><time>2026-03-22T03:15:54.999Z</time></trkpt><trkpt lat="24.365208486256943" lon="120.74178578546467"><ele>253.0</ele><time>2026-03-22T03:15:55.999Z</time></trkpt><trkpt lat="24.36509090495979" lon="120.74168752561651"><ele>252.0</ele><time>2026-03-22T03:15:56.999Z</time></trkpt><trkpt lat="24.364971956418213" lon="120.74158562592324"><ele>251.0</ele><time>2026-03-22T03:15:57.999Z</time></trkpt><trkpt lat="24.364849840544128" lon="120.74148336416653"><ele>250.0</ele><time>2026-03-22T03:15:58.999Z</time></trkpt><trkpt lat="24.364724429298303" lon="120.74137921090589"><ele>248.66666666666666</ele><time>2026-03-22T03:15:59.999Z</time></trkpt><trkpt lat="24.364596996862936" lon="120.74127284237086"><ele>247.33333333333331</ele><time>2026-03-22T03:16:00.999Z</time></trkpt><trkpt lat="24.364467772818838" lon="120.74116161217256"><ele>246.0</ele><time>2026-03-22T03:16:01.999Z</time></trkpt><trkpt lat="24.3643384226698" lon="120.74104965006428"><ele>245.66666666666669</ele><time>2026-03-22T03:16:02.999Z</time></trkpt><trkpt lat="24.36420537482271" lon="120.74093643112121"><ele>245.33333333333334</ele><time>2026-03-22T03:16:03.999Z</time></trkpt><trkpt lat="24.36407085272998" lon="120.74082055029568"><ele>245.0</ele><time>2026-03-22T03:16:04.999Z</time></trkpt><trkpt lat="24.363934523783037" lon="120.74070426230516"><ele>242.33333333333334</ele><time>2026-03-22T03:16:05.999Z</time></trkpt><trkpt lat="24.363795245449765" lon="120.74058759370608"><ele>239.66666666666669</ele><time>2026-03-22T03:16:06.999Z</time></trkpt><trkpt lat="24.363656860468527" lon="120.74046986640593"><ele>237.0</ele><time>2026-03-22T03:16:07.999Z</time></trkpt><trkpt lat="24.363518422330316" lon="120.74035068704399"><ele>237.0</ele><time>2026-03-22T03:16:08.999Z</time></trkpt><trkpt lat="24.363380532254" lon="120.740226578533"><ele>237.0</ele><time>2026-03-22T03:16:09.999Z</time></trkpt><trkpt lat="24.363241866903024" lon="120.74010075504758"><ele>237.0</ele><time>2026-03-22T03:16:10.999Z</time></trkpt><trkpt lat="24.363102058314162" lon="120.7399766810721"><ele>234.0</ele><time>2026-03-22T03:16:11.999Z</time></trkpt><trkpt lat="24.36295985912223" lon="120.73985107903914"><ele>231.0</ele><time>2026-03-22T03:16:12.999Z</time></trkpt><trkpt lat="24.362817133639364" lon="120.7397280639325"><ele>228.0</ele><time>2026-03-22T03:16:13.999Z</time></trkpt><trkpt lat="24.362673533109444" lon="120.739604708871"><ele>228.0</ele><time>2026-03-22T03:16:14.999Z</time></trkpt><trkpt lat="24.362528397442386" lon="120.73948013193971"><ele>228.0</ele><time>2026-03-22T03:16:15.999Z</time></trkpt><trkpt lat="24.362386407941848" lon="120.73935477344811"><ele>228.0</ele><time>2026-03-22T03:16:16.999Z</time></trkpt><trkpt lat="24.362249056588826" lon="120.73923730876294"><ele>226.33333333333331</ele><time>2026-03-22T03:16:17.999Z</time></trkpt><trkpt lat="24.36211871333091" lon="120.73913548697512"><ele>224.66666666666666</ele><time>2026-03-22T03:16:18.999Z</time></trkpt><trkpt lat="24.361988995166573" lon="120.73905181148706"><ele>223.0</ele><time>2026-03-22T03:16:19.999Z</time></trkpt><trkpt lat="24.361854137147628" lon="120.7389878439102"><ele>223.0</ele><time>2026-03-22T03:16:20.999Z</time></trkpt><trkpt lat="24.361702427019512" lon="120.73893714782281"><ele>223.0</ele><time>2026-03-22T03:16:21.999Z</time></trkpt><trkpt lat="24.36154950565743" lon="120.73890914494746"><ele>223.0</ele><time>2026-03-22T03:16:22.999Z</time></trkpt><trkpt lat="24.36139540818983" lon="120.73888950006689"><ele>220.66666666666666</ele><time>2026-03-22T03:16:23.999Z</time></trkpt><trkpt lat="24.36121967699833" lon="120.73891123183498"><ele>218.33333333333331</ele><time>2026-03-22T03:16:25.071Z</time></trkpt><trkpt lat="24.361055918320453" lon="120.73893846532576"><ele>216.0</ele><time>2026-03-22T03:16:26.06Z</time></trkpt><trkpt lat="24.360898152306117" lon="120.73895623879211"><ele>216.0</ele><time>2026-03-22T03:16:27.049Z</time></trkpt><trkpt lat="24.360734203375024" lon="120.73898585722098"><ele>216.0</ele><time>2026-03-22T03:16:28.042Z</time></trkpt><trkpt lat="24.36056704463343" lon="120.73900109174653"><ele>216.0</ele><time>2026-03-22T03:16:29.038Z</time></trkpt><trkpt lat="24.360396712283094" lon="120.73900147843203"><ele>214.66666666666669</ele><time>2026-03-22T03:16:30.037Z</time></trkpt><trkpt lat="24.360223073866532" lon="120.73899164396775"><ele>213.33333333333334</ele><time>2026-03-22T03:16:31.036Z</time></trkpt><trkpt lat="24.360059265023562" lon="120.7389381400987"><ele>212.0</ele><time>2026-03-22T03:16:32.03Z</time></trkpt><trkpt lat="24.359905828444557" lon="120.73886075819118"><ele>192.0</ele><time>2026-03-22T03:16:33.03Z</time></trkpt><trkpt lat="24.339416686475843" lon="120.73161579879363"><ele>193.0</ele><time>2026-03-22T03:18:51.634Z</time></trkpt><trkpt lat="24.33814260368645" lon="120.73154759260557"><ele>191.0</ele><time>2026-03-22T03:18:58.757Z</time></trkpt><trkpt lat="24.337257535066254" lon="120.73113903156654"><ele>193.0</ele><time>2026-03-22T03:19:06.792Z</time></trkpt><trkpt lat="24.335427361653036" lon="120.73042357577764"><ele>192.0</ele><time>2026-03-22T03:19:22.292Z</time></trkpt><trkpt lat="24.335009997592294" lon="120.73012497186228"><ele>192.0</ele><time>2026-03-22T03:19:47.999Z</time></trkpt><trkpt lat="24.334946636094944" lon="120.73011755080431"><ele>192.0</ele><time>2026-03-22T03:19:53.999Z</time></trkpt><trkpt lat="24.33498110710461" lon="120.7300502243125"><ele>192.0</ele><time>2026-03-22T03:19:59.999Z</time></trkpt><trkpt lat="24.334952211616134" lon="120.72997122401699"><ele>192.0</ele><time>2026-03-22T03:20:01.999Z</time></trkpt><trkpt lat="24.335109296873682" lon="120.7300355870689"><ele>192.0</ele><time>2026-03-22T03:20:08.999Z</time></trkpt><trkpt lat="24.335183837123434" lon="120.73005836694215"><ele>191.99999999999997</ele><time>2026-03-22T03:20:12.999Z</time></trkpt><trkpt lat="24.33524576496677" lon="120.73007958265836"><ele>192.0</ele><time>2026-03-22T03:20:15.999Z</time></trkpt><trkpt lat="24.33530749256999" lon="120.73009925267299"><ele>192.0</ele><time>2026-03-22T03:20:18.999Z</time></trkpt><trkpt lat="24.335356817583413" lon="120.73014670082438"><ele>192.0</ele><time>2026-03-22T03:20:21.999Z</time></trkpt><trkpt lat="24.335343738591046" lon="120.73005850142421"><ele>192.0</ele><time>2026-03-22T03:20:46.999Z</time></trkpt><trkpt lat="24.335328787560762" lon="120.72998422187085"><ele>191.99999999999997</ele><time>2026-03-22T03:20:52.999Z</time></trkpt><trkpt lat="24.335302082003224" lon="120.7300467964237"><ele>192.0</ele><time>2026-03-22T03:21:56.999Z</time></trkpt><trkpt lat="24.335253373063747" lon="120.73009410895123"><ele>191.99999999999997</ele><time>2026-03-22T03:22:17.999Z</time></trkpt><trkpt lat="24.33518883493569" lon="120.73009672546996"><ele>192.0</ele><time>2026-03-22T03:22:26Z</time></trkpt><trkpt lat="24.33512378131137" lon="120.7300865251353"><ele>192.0</ele><time>2026-03-22T03:22:33Z</time></trkpt><trkpt lat="24.335061929531005" lon="120.73005848280769"><ele>192.0</ele><time>2026-03-22T03:22:42Z</time></trkpt><trkpt lat="24.334998200765163" lon="120.73006278273775"><ele>192.0</ele><time>2026-03-22T03:22:55Z</time></trkpt><trkpt lat="24.334929463860075" lon="120.73005615973658"><ele>191.99999999999997</ele><time>2026-03-22T03:23:16Z</time></trkpt><trkpt lat="24.334877196963415" lon="120.72998998303032"><ele>192.0</ele><time>2026-03-22T03:23:37Z</time></trkpt><trkpt lat="24.33489509223358" lon="120.72992173761462"><ele>192.0</ele><time>2026-03-22T03:23:46Z</time></trkpt><trkpt lat="24.334942614627497" lon="120.72987181272553"><ele>192.0</ele><time>2026-03-22T03:23:51Z</time></trkpt><trkpt lat="24.334973205191847" lon="120.72980267177275"><ele>192.0</ele><time>2026-03-22T03:24:02Z</time></trkpt><trkpt lat="24.33500218733662" lon="120.72973826641955"><ele>192.0</ele><time>2026-03-22T03:24:08Z</time></trkpt><trkpt lat="24.33501134922412" lon="120.7296621573362"><ele>192.0</ele><time>2026-03-22T03:24:37Z</time></trkpt><trkpt lat="24.33501560042258" lon="120.729509973237"><ele>192.0</ele><time>2026-03-22T03:25:53Z</time></trkpt><trkpt lat="24.335046946189795" lon="120.72943087815526"><ele>192.0</ele><time>2026-03-22T03:26:07Z</time></trkpt><trkpt lat="24.33511960731471" lon="120.7293841754336"><ele>192.0</ele><time>2026-03-22T03:26:12Z</time></trkpt><trkpt lat="24.335179903955545" lon="120.72936205140992"><ele>192.0</ele><time>2026-03-22T03:26:15Z</time></trkpt><trkpt lat="24.3351888693354" lon="120.72944381188059"><ele>192.0</ele><time>2026-03-22T03:26:27Z</time></trkpt><trkpt lat="24.33519651532801" lon="120.72932150748443"><ele>192.0</ele><time>2026-03-22T03:27:06.034Z</time></trkpt><trkpt lat="24.33513582135511" lon="120.729348335756"><ele>192.0</ele><time>2026-03-22T03:27:36Z</time></trkpt><trkpt lat="24.335118225737446" lon="120.72942544376934"><ele>191.99999999999997</ele><time>2026-03-22T03:27:46Z</time></trkpt><trkpt lat="24.335109642090966" lon="120.72949530722586"><ele>192.0</ele><time>2026-03-22T03:27:58Z</time></trkpt><trkpt lat="24.335074057294218" lon="120.7294301196256"><ele>192.0</ele><time>2026-03-22T03:32:05Z</time></trkpt><trkpt lat="24.33508386559574" lon="120.72950570102374"><ele>192.0</ele><time>2026-03-22T03:41:53Z</time></trkpt><trkpt lat="24.335114361890422" lon="120.72944056320051"><ele>192.0</ele><time>2026-03-22T03:54:33.001Z</time></trkpt><trkpt lat="24.335151617046428" lon="120.72937307208741"><ele>191.99999999999997</ele><time>2026-03-22T03:54:39.001Z</time></trkpt><trkpt lat="24.335151968157515" lon="120.72930000783401"><ele>192.0</ele><time>2026-03-22T03:54:45.001Z</time></trkpt><trkpt lat="24.33513115617392" lon="120.72923466822219"><ele>191.85714285714283</ele><time>2026-03-22T03:54:55.001Z</time></trkpt><trkpt lat="24.335064245933918" lon="120.72923732188838"><ele>191.71428571428572</ele><time>2026-03-22T03:55:02.001Z</time></trkpt><trkpt lat="24.33501247959199" lon="120.72919359925653"><ele>191.57142857142856</ele><time>2026-03-22T03:55:22.001Z</time></trkpt><trkpt lat="24.334991378880243" lon="120.7291253875628"><ele>191.42857142857142</ele><time>2026-03-22T03:55:32.001Z</time></trkpt><trkpt lat="24.334925767282712" lon="120.72914379417854"><ele>191.28571428571428</ele><time>2026-03-22T03:55:56.001Z</time></trkpt><trkpt lat="24.334867768701738" lon="120.72910972189173"><ele>191.14285714285714</ele><time>2026-03-22T03:56:19.001Z</time></trkpt><trkpt lat="24.334815457014177" lon="120.72906653119624"><ele>191.0</ele><time>2026-03-22T03:56:37.001Z</time></trkpt><trkpt lat="24.334772717765418" lon="120.72912491702787"><ele>191.0</ele><time>2026-03-22T03:57:21Z</time></trkpt><trkpt lat="24.334752286379484" lon="120.72904829333741"><ele>191.0</ele><time>2026-03-22T03:57:44.999Z</time></trkpt><trkpt lat="24.334766727390647" lon="120.72897621819665"><ele>191.0</ele><time>2026-03-22T03:57:52.999Z</time></trkpt><trkpt lat="24.334810618851566" lon="120.72890120344286"><ele>191.0</ele><time>2026-03-22T03:58:04.999Z</time></trkpt><trkpt lat="24.3348353448473" lon="120.72883651906265"><ele>191.0</ele><time>2026-03-22T03:58:10.999Z</time></trkpt><trkpt lat="24.33486088791491" lon="120.72877149232986"><ele>191.0</ele><time>2026-03-22T03:58:21Z</time></trkpt><trkpt lat="24.334802825312035" lon="120.72873514544708"><ele>191.0</ele><time>2026-03-22T04:00:42.999Z</time></trkpt><trkpt lat="24.334799380459806" lon="120.728663740332"><ele>191.0</ele><time>2026-03-22T04:01:13.999Z</time></trkpt><trkpt lat="24.33480723052939" lon="120.72858916587688"><ele>191.0</ele><time>2026-03-22T04:01:37Z</time></trkpt><trkpt lat="24.33481664967599" lon="120.72851958356287"><ele>191.0</ele><time>2026-03-22T04:01:46Z</time></trkpt><trkpt lat="24.334816000820396" lon="120.72844934902135"><ele>191.0</ele><time>2026-03-22T04:01:53.997Z</time></trkpt><trkpt lat="24.33481815165415" lon="120.72837081092803"><ele>191.0</ele><time>2026-03-22T04:02:00.997Z</time></trkpt><trkpt lat="24.334864644200366" lon="120.72830147894076"><ele>191.0</ele><time>2026-03-22T04:02:09.998Z</time></trkpt><trkpt lat="24.334924415352635" lon="120.72826036157485"><ele>191.0</ele><time>2026-03-22T04:02:15.998Z</time></trkpt><trkpt lat="24.334983581288338" lon="120.72823603690969"><ele>190.71428571428572</ele><time>2026-03-22T04:02:24.999Z</time></trkpt><trkpt lat="24.3350449981717" lon="120.72826016952014"><ele>190.42857142857142</ele><time>2026-03-22T04:02:31.999Z</time></trkpt><trkpt lat="24.334981639655176" lon="120.7282885663286"><ele>190.14285714285714</ele><time>2026-03-22T04:02:55.999Z</time></trkpt><trkpt lat="24.33497418203905" lon="120.72836263918596"><ele>189.85714285714286</ele><time>2026-03-22T04:03:50Z</time></trkpt><trkpt lat="24.335040558948503" lon="120.72837360711667"><ele>189.57142857142856</ele><time>2026-03-22T04:04:53Z</time></trkpt><trkpt lat="24.335056162441273" lon="120.72828848705358"><ele>189.28571428571428</ele><time>2026-03-22T04:05:07Z</time></trkpt><trkpt lat="24.335099357968538" lon="120.72823702251593"><ele>189.0</ele><time>2026-03-22T04:05:26.001Z</time></trkpt><trkpt lat="24.335160641389898" lon="120.72825393497989"><ele>189.0</ele><time>2026-03-22T04:06:08.998Z</time></trkpt><trkpt lat="24.335099507884753" lon="120.72823125780769"><ele>189.0</ele><time>2026-03-22T04:06:56Z</time></trkpt><trkpt lat="24.3350933036801" lon="120.72816046532425"><ele>189.0</ele><time>2026-03-22T04:07:22.001Z</time></trkpt><trkpt lat="24.335035035427914" lon="120.72813132628022"><ele>189.0</ele><time>2026-03-22T04:07:29.001Z</time></trkpt><trkpt lat="24.334968258253973" lon="120.7281434957002"><ele>189.0</ele><time>2026-03-22T04:07:37.001Z</time></trkpt><trkpt lat="24.33503806066686" lon="120.72812449614106"><ele>189.0</ele><time>2026-03-22T04:08:24.999Z</time></trkpt><trkpt lat="24.335081147395403" lon="120.72807060900378"><ele>189.0</ele><time>2026-03-22T04:08:31Z</time></trkpt><trkpt lat="24.335123003869597" lon="120.72801351952226"><ele>189.0</ele><time>2026-03-22T04:08:37Z</time></trkpt><trkpt lat="24.33512854273672" lon="120.72793911347287"><ele>189.0</ele><time>2026-03-22T04:09:35.001Z</time></trkpt><trkpt lat="24.335173245816556" lon="120.72788670019291"><ele>189.0</ele><time>2026-03-22T04:09:42.001Z</time></trkpt><trkpt lat="24.335202375128215" lon="120.72782223136826"><ele>189.0</ele><time>2026-03-22T04:09:50.002Z</time></trkpt><trkpt lat="24.335269579585365" lon="120.72782442739425"><ele>189.0</ele><time>2026-03-22T04:12:33Z</time></trkpt><trkpt lat="24.3353323048423" lon="120.72785211420883"><ele>189.0</ele><time>2026-03-22T04:12:44Z</time></trkpt><trkpt lat="24.33538792203802" lon="120.72789910508702"><ele>189.0</ele><time>2026-03-22T04:14:07.002Z</time></trkpt><trkpt lat="24.335458477762067" lon="120.72790747191428"><ele>189.0</ele><time>2026-03-22T04:15:15.001Z</time></trkpt><trkpt lat="24.335523046774924" lon="120.72792718534537"><ele>189.0</ele><time>2026-03-22T04:15:21.001Z</time></trkpt><trkpt lat="24.335494235173282" lon="120.7280205909088"><ele>189.0</ele><time>2026-03-22T04:16:24.003Z</time></trkpt><trkpt lat="24.335450389844766" lon="120.72807423679131"><ele>189.0</ele><time>2026-03-22T04:16:36.999Z</time></trkpt><trkpt lat="24.335408720583402" lon="120.7281268530182"><ele>189.0</ele><time>2026-03-22T04:16:44Z</time></trkpt><trkpt lat="24.335377105458896" lon="120.72819245932304"><ele>189.0</ele><time>2026-03-22T04:16:55Z</time></trkpt><trkpt lat="24.335330812721764" lon="120.72825233174895"><ele>189.0</ele><time>2026-03-22T04:17:04Z</time></trkpt><trkpt lat="24.33526665501145" lon="120.72826411815471"><ele>189.0</ele><time>2026-03-22T04:17:18.001Z</time></trkpt><trkpt lat="24.33521057543905" lon="120.72829932111694"><ele>189.0</ele><time>2026-03-22T04:18:07.002Z</time></trkpt><trkpt lat="24.33514947047803" lon="120.72828063663093"><ele>189.0</ele><time>2026-03-22T04:18:13.003Z</time></trkpt><trkpt lat="24.335136341622686" lon="120.72835688423471"><ele>189.0</ele><time>2026-03-22T04:18:48Z</time></trkpt><trkpt lat="24.335202660045606" lon="120.72834510815383"><ele>189.0</ele><time>2026-03-22T04:18:52Z</time></trkpt><trkpt lat="24.33523672137509" lon="120.72828162545365"><ele>189.0</ele><time>2026-03-22T04:18:57.001Z</time></trkpt><trkpt lat="24.335296817432507" lon="120.72825484764853"><ele>189.0</ele><time>2026-03-22T04:19:57.002Z</time></trkpt><trkpt lat="24.335276228474463" lon="120.72832700295189"><ele>189.0</ele><time>2026-03-22T04:20:21.003Z</time></trkpt><trkpt lat="24.3352345939931" lon="120.72838159682442"><ele>189.0</ele><time>2026-03-22T04:20:33.003Z</time></trkpt><trkpt lat="24.335299388784943" lon="120.72841331922486"><ele>189.0</ele><time>2026-03-22T04:20:46.001Z</time></trkpt><trkpt lat="24.335362149462814" lon="120.72843078901872"><ele>189.0</ele><time>2026-03-22T04:20:54.001Z</time></trkpt><trkpt lat="24.335343600798527" lon="120.72850376916405"><ele>189.0</ele><time>2026-03-22T04:21:00.001Z</time></trkpt><trkpt lat="24.335325086849743" lon="120.72857820361692"><ele>189.0</ele><time>2026-03-22T04:21:09.001Z</time></trkpt><trkpt lat="24.335261753458546" lon="120.72862530437061"><ele>189.0</ele><time>2026-03-22T04:21:24.001Z</time></trkpt><trkpt lat="24.335220197315813" lon="120.72868984290274"><ele>189.28571428571428</ele><time>2026-03-22T04:21:31.002Z</time></trkpt><trkpt lat="24.335231972861624" lon="120.72875789281734"><ele>189.57142857142856</ele><time>2026-03-22T04:21:42.002Z</time></trkpt><trkpt lat="24.33520663121824" lon="120.72883485153514"><ele>189.85714285714286</ele><time>2026-03-22T04:21:49.002Z</time></trkpt><trkpt lat="24.335215771675173" lon="120.72890361585097"><ele>190.14285714285714</ele><time>2026-03-22T04:21:58.002Z</time></trkpt><trkpt lat="24.335219063569397" lon="120.7289759955317"><ele>190.42857142857142</ele><time>2026-03-22T04:22:05.003Z</time></trkpt><trkpt lat="24.335218961123296" lon="120.72904675410767"><ele>190.71428571428572</ele><time>2026-03-22T04:22:13.003Z</time></trkpt><trkpt lat="24.335159136851342" lon="120.72909451945878"><ele>191.0</ele><time>2026-03-22T04:22:39.004Z</time></trkpt><trkpt lat="24.33509447626249" lon="120.72909075051037"><ele>191.0</ele><time>2026-03-22T04:22:48.002Z</time></trkpt><trkpt lat="24.33507096531723" lon="120.72915710805596"><ele>191.0</ele><time>2026-03-22T04:22:58.002Z</time></trkpt><trkpt lat="24.335052275478716" lon="120.72922689170723"><ele>191.0</ele><time>2026-03-22T04:23:04.002Z</time></trkpt><trkpt lat="24.33511019142503" lon="120.72926980693035"><ele>191.0</ele><time>2026-03-22T04:23:09.002Z</time></trkpt><trkpt lat="24.335177757088548" lon="120.72929351895034"><ele>191.0</ele><time>2026-03-22T04:23:14.002Z</time></trkpt><trkpt lat="24.335205880136854" lon="120.72936072239708"><ele>191.0</ele><time>2026-03-22T04:23:49.002Z</time></trkpt><trkpt lat="24.335083391960115" lon="120.7293554761852"><ele>191.20000000000002</ele><time>2026-03-22T04:24:40.004Z</time></trkpt><trkpt lat="24.334923369601324" lon="120.72940779484429"><ele>191.4</ele><time>2026-03-22T04:24:42.004Z</time></trkpt><trkpt lat="24.334979493643544" lon="120.72948607387518"><ele>191.6</ele><time>2026-03-22T04:25:13.002Z</time></trkpt><trkpt lat="24.334997033037254" lon="120.72956726258356"><ele>191.8</ele><time>2026-03-22T04:25:17.002Z</time></trkpt><trkpt lat="24.33498808645651" lon="120.72964301252605"><ele>192.0</ele><time>2026-03-22T04:25:22.002Z</time></trkpt><trkpt lat="24.33497444719318" lon="120.72971397317544"><ele>191.99999999999997</ele><time>2026-03-22T04:25:29.002Z</time></trkpt><trkpt lat="24.33495424226213" lon="120.72978143642462"><ele>192.0</ele><time>2026-03-22T04:25:36.002Z</time></trkpt><trkpt lat="24.33491454320068" lon="120.72985336888284"><ele>192.0</ele><time>2026-03-22T04:25:43.002Z</time></trkpt><trkpt lat="24.334896177608815" lon="120.72992172741864"><ele>192.0</ele><time>2026-03-22T04:25:50.002Z</time></trkpt><trkpt lat="24.334934235992097" lon="120.7299781277815"><ele>192.0</ele><time>2026-03-22T04:25:57.002Z</time></trkpt><trkpt lat="24.334995216391345" lon="120.72994537374205"><ele>191.99999999999997</ele><time>2026-03-22T04:26:09.003Z</time></trkpt><trkpt lat="24.33505720406456" lon="120.72995843523634"><ele>192.0</ele><time>2026-03-22T04:26:14.003Z</time></trkpt><trkpt lat="24.33513497873645" lon="120.72997989550348"><ele>191.99999999999997</ele><time>2026-03-22T04:26:20.003Z</time></trkpt><trkpt lat="24.33519263739725" lon="120.7300231806517"><ele>192.0</ele><time>2026-03-22T04:26:27.003Z</time></trkpt><trkpt lat="24.335255795008056" lon="120.73004228299568"><ele>192.0</ele><time>2026-03-22T04:26:33.003Z</time></trkpt><trkpt lat="24.33531420180268" lon="120.73001392046356"><ele>192.0</ele><time>2026-03-22T04:26:41.003Z</time></trkpt><trkpt lat="24.33530461597601" lon="120.73009299796249"><ele>192.0</ele><time>2026-03-22T04:33:56Z</time></trkpt><trkpt lat="24.33532057444049" lon="120.73017453192891"><ele>191.99999999999997</ele><time>2026-03-22T04:34:00Z</time></trkpt><trkpt lat="24.3353172540954" lon="120.73024857142804"><ele>192.0</ele><time>2026-03-22T04:34:02Z</time></trkpt><trkpt lat="24.335287462209273" lon="120.73032717543298"><ele>192.2</ele><time>2026-03-22T04:34:04Z</time></trkpt><trkpt lat="24.33525466954998" lon="120.73042618338471"><ele>192.39999999999998</ele><time>2026-03-22T04:34:06.001Z</time></trkpt><trkpt lat="24.335199133950905" lon="120.73051723045234"><ele>192.60000000000002</ele><time>2026-03-22T04:34:08.001Z</time></trkpt><trkpt lat="24.33512936352321" lon="120.73055737035848"><ele>192.8</ele><time>2026-03-22T04:34:10.001Z</time></trkpt><trkpt lat="24.335021757565354" lon="120.73055977063147"><ele>193.0</ele><time>2026-03-22T04:34:12.001Z</time></trkpt><trkpt lat="24.334902438998466" lon="120.7305236168934"><ele>193.0</ele><time>2026-03-22T04:34:14.001Z</time></trkpt><trkpt lat="24.33478119291706" lon="120.7304781944811"><ele>193.0</ele><time>2026-03-22T04:34:16.001Z</time></trkpt><trkpt lat="24.334708410636875" lon="120.73046274237323"><ele>193.0</ele><time>2026-03-22T04:34:17.001Z</time></trkpt><trkpt lat="24.33462119401187" lon="120.73043700459912"><ele>193.0</ele><time>2026-03-22T04:34:18.001Z</time></trkpt><trkpt lat="24.334536369282613" lon="120.730412368113"><ele>193.0</ele><time>2026-03-22T04:34:19.001Z</time></trkpt><trkpt lat="24.334445186861537" lon="120.73038777189988"><ele>193.2</ele><time>2026-03-22T04:34:20.001Z</time></trkpt><trkpt lat="24.334349960118548" lon="120.73036266530322"><ele>193.4</ele><time>2026-03-22T04:34:21.001Z</time></trkpt><trkpt lat="24.334253982849095" lon="120.73034102441001"><ele>193.6</ele><time>2026-03-22T04:34:22.001Z</time></trkpt><trkpt lat="24.334158500757365" lon="120.73031876617134"><ele>193.79999999999998</ele><time>2026-03-22T04:34:23.001Z</time></trkpt><trkpt lat="24.33405978644921" lon="120.7302983278131"><ele>194.0</ele><time>2026-03-22T04:34:24.001Z</time></trkpt><trkpt lat="24.333957857331797" lon="120.73028270895695"><ele>194.25</ele><time>2026-03-22T04:34:25.001Z</time></trkpt><trkpt lat="24.333747281418557" lon="120.73023024839063"><ele>194.5</ele><time>2026-03-22T04:34:27.001Z</time></trkpt><trkpt lat="24.333638314377634" lon="120.73020455364146"><ele>194.75</ele><time>2026-03-22T04:34:28.001Z</time></trkpt><trkpt lat="24.33352757217217" lon="120.73017555281743"><ele>195.0</ele><time>2026-03-22T04:34:29.001Z</time></trkpt><trkpt lat="24.3334144907711" lon="120.7301479662438"><ele>195.0</ele><time>2026-03-22T04:34:30.001Z</time></trkpt><trkpt lat="24.333299091824234" lon="120.73011901718336"><ele>195.0</ele><time>2026-03-22T04:34:31.001Z</time></trkpt><trkpt lat="24.333180078129843" lon="120.73009127753093"><ele>195.0</ele><time>2026-03-22T04:34:32.001Z</time></trkpt><trkpt lat="24.333059602301166" lon="120.73006000088257"><ele>195.0</ele><time>2026-03-22T04:34:33.001Z</time></trkpt><trkpt lat="24.332935411525817" lon="120.73003143319869"><ele>195.0</ele><time>2026-03-22T04:34:34.001Z</time></trkpt><trkpt lat="24.332810068607188" lon="120.73000097073043"><ele>195.0</ele><time>2026-03-22T04:34:35.001Z</time></trkpt><trkpt lat="24.332683034640947" lon="120.72996939067005"><ele>195.0</ele><time>2026-03-22T04:34:36.001Z</time></trkpt><trkpt lat="24.332555262375813" lon="120.72993789713728"><ele>195.0</ele><time>2026-03-22T04:34:37.001Z</time></trkpt><trkpt lat="24.33242980867368" lon="120.72990852948328"><ele>195.0</ele><time>2026-03-22T04:34:38.001Z</time></trkpt><trkpt lat="24.332301649481693" lon="120.72987569155453"><ele>195.0</ele><time>2026-03-22T04:34:39.001Z</time></trkpt><trkpt lat="24.332171454698653" lon="120.72984927856373"><ele>195.0</ele><time>2026-03-22T04:34:40.001Z</time></trkpt><trkpt lat="24.332040413837046" lon="120.72981892247833"><ele>195.0</ele><time>2026-03-22T04:34:41.001Z</time></trkpt><trkpt lat="24.331907700192918" lon="120.72978276776728"><ele>194.75</ele><time>2026-03-22T04:34:42.001Z</time></trkpt><trkpt lat="24.331774640291275" lon="120.7297486784697"><ele>194.5</ele><time>2026-03-22T04:34:43.001Z</time></trkpt><trkpt lat="24.331640444351113" lon="120.72971205666396"><ele>194.25</ele><time>2026-03-22T04:34:44.001Z</time></trkpt><trkpt lat="24.33150339989114" lon="120.72967774085488"><ele>194.0</ele><time>2026-03-22T04:34:45.001Z</time></trkpt><trkpt lat="24.331368191769286" lon="120.7296468365915"><ele>194.0</ele><time>2026-03-22T04:34:46.001Z</time></trkpt><trkpt lat="24.331230805124218" lon="120.72961511710696"><ele>194.0</ele><time>2026-03-22T04:34:47.001Z</time></trkpt><trkpt lat="24.33109065652098" lon="120.72957966068216"><ele>194.0</ele><time>2026-03-22T04:34:48.001Z</time></trkpt><trkpt lat="24.33095231581928" lon="120.72954606440018"><ele>194.0</ele><time>2026-03-22T04:34:49.001Z</time></trkpt><trkpt lat="24.330813443107" lon="120.72951517133832"><ele>194.0</ele><time>2026-03-22T04:34:50.001Z</time></trkpt><trkpt lat="24.33067368443878" lon="120.72948381434394"><ele>194.0</ele><time>2026-03-22T04:34:51.001Z</time></trkpt><trkpt lat="24.33053334229224" lon="120.72945030172755"><ele>194.0</ele><time>2026-03-22T04:34:52.001Z</time></trkpt><trkpt lat="24.330391316720032" lon="120.72941475637047"><ele>194.0</ele><time>2026-03-22T04:34:53.001Z</time></trkpt><trkpt lat="24.330247668733378" lon="120.72937997908062"><ele>193.5</ele><time>2026-03-22T04:34:54.001Z</time></trkpt><trkpt lat="24.330103826784395" lon="120.7293433262401"><ele>193.0</ele><time>2026-03-22T04:34:55.001Z</time></trkpt><trkpt lat="24.329960792737015" lon="120.72930586654594"><ele>192.5</ele><time>2026-03-22T04:34:56.001Z</time></trkpt><trkpt lat="24.329817598796055" lon="120.72926965502428"><ele>192.0</ele><time>2026-03-22T04:34:57.001Z</time></trkpt><trkpt lat="24.32967311082098" lon="120.7292331651527"><ele>191.75</ele><time>2026-03-22T04:34:58.001Z</time></trkpt><trkpt lat="24.32952778493607" lon="120.7291957957477"><ele>191.5</ele><time>2026-03-22T04:34:59.001Z</time></trkpt><trkpt lat="24.329382354668535" lon="120.72915906418889"><ele>191.25</ele><time>2026-03-22T04:35:00.001Z</time></trkpt><trkpt lat="24.329236082193983" lon="120.72912369221619"><ele>191.0</ele><time>2026-03-22T04:35:01.001Z</time></trkpt><trkpt lat="24.329093417258747" lon="120.72908865002579"><ele>191.0</ele><time>2026-03-22T04:35:02.001Z</time></trkpt><trkpt lat="24.32894824708283" lon="120.72905295762409"><ele>191.0</ele><time>2026-03-22T04:35:03.001Z</time></trkpt><trkpt lat="24.32865388431583" lon="120.72898418906752"><ele>192.0</ele><time>2026-03-22T04:35:05.001Z</time></trkpt><trkpt lat="24.328510298257807" lon="120.72895112042154"><ele>193.0</ele><time>2026-03-22T04:35:06.001Z</time></trkpt><trkpt lat="24.328365792167126" lon="120.72891657593895"><ele>194.0</ele><time>2026-03-22T04:35:07.001Z</time></trkpt><trkpt lat="24.328219371343224" lon="120.728882296335"><ele>195.0</ele><time>2026-03-22T04:35:08.001Z</time></trkpt><trkpt lat="24.32807202969222" lon="120.7288449204327"><ele>194.0</ele><time>2026-03-22T04:35:09.001Z</time></trkpt><trkpt lat="24.327923200466778" lon="120.72881200021361"><ele>193.0</ele><time>2026-03-22T04:35:10.001Z</time></trkpt><trkpt lat="24.327774489745984" lon="120.7287772494744"><ele>192.0</ele><time>2026-03-22T04:35:11.002Z</time></trkpt><trkpt lat="24.327625609554794" lon="120.72874160576771"><ele>192.0</ele><time>2026-03-22T04:35:12.002Z</time></trkpt><trkpt lat="24.327474957619458" lon="120.7287048149187"><ele>192.0</ele><time>2026-03-22T04:35:13.002Z</time></trkpt><trkpt lat="24.327323479180155" lon="120.72866620539514"><ele>192.0</ele><time>2026-03-22T04:35:14.002Z</time></trkpt><trkpt lat="24.32717292076121" lon="120.72862851345754"><ele>192.0</ele><time>2026-03-22T04:35:15.002Z</time></trkpt><trkpt lat="24.327021442260605" lon="120.7285902308672"><ele>192.0</ele><time>2026-03-22T04:35:16.002Z</time></trkpt><trkpt lat="24.3268691281752" lon="120.72855254375335"><ele>192.0</ele><time>2026-03-22T04:35:17.002Z</time></trkpt><trkpt lat="24.326716618802344" lon="120.72851252713123"><ele>192.0</ele><time>2026-03-22T04:35:18.002Z</time></trkpt><trkpt lat="24.326564956645903" lon="120.72847173212499"><ele>192.0</ele><time>2026-03-22T04:35:19.002Z</time></trkpt><trkpt lat="24.326415180877692" lon="120.72842795849411"><ele>192.0</ele><time>2026-03-22T04:35:20.002Z</time></trkpt><trkpt lat="24.326270356738302" lon="120.72838157387973"><ele>192.0</ele><time>2026-03-22T04:35:21.002Z</time></trkpt><trkpt lat="24.326129309001487" lon="120.72832774916195"><ele>192.0</ele><time>2026-03-22T04:35:22.002Z</time></trkpt><trkpt lat="24.32599739847553" lon="120.7282563634953"><ele>192.0</ele><time>2026-03-22T04:35:23.002Z</time></trkpt><trkpt lat="24.32586193015433" lon="120.72819195102461"><ele>192.0</ele><time>2026-03-22T04:35:24Z</time></trkpt><trkpt lat="24.325743779830105" lon="120.72808409148912"><ele>192.0</ele><time>2026-03-22T04:35:25Z</time></trkpt><trkpt lat="24.32565730873028" lon="120.72795378024492"><ele>192.0</ele><time>2026-03-22T04:35:26Z</time></trkpt><trkpt lat="24.32558838796193" lon="120.72782032570264"><ele>192.0</ele><time>2026-03-22T04:35:27Z</time></trkpt><trkpt lat="24.325535470637377" lon="120.72767642900058"><ele>192.0</ele><time>2026-03-22T04:35:28Z</time></trkpt><trkpt lat="24.325490554269308" lon="120.72753062592139"><ele>193.5</ele><time>2026-03-22T04:35:29Z</time></trkpt><trkpt lat="24.325445505405877" lon="120.72738591847025"><ele>195.0</ele><time>2026-03-22T04:35:30Z</time></trkpt><trkpt lat="24.325400580007678" lon="120.72723899988367"><ele>196.5</ele><time>2026-03-22T04:35:31Z</time></trkpt><trkpt lat="24.325358988815925" lon="120.7270905347782"><ele>198.0</ele><time>2026-03-22T04:35:32Z</time></trkpt><trkpt lat="24.32532631290941" lon="120.72693664936577"><ele>201.5</ele><time>2026-03-22T04:35:33Z</time></trkpt><trkpt lat="24.32530355830486" lon="120.72678244014747"><ele>205.0</ele><time>2026-03-22T04:35:34Z</time></trkpt><trkpt lat="24.325300301807577" lon="120.72662582743101"><ele>208.5</ele><time>2026-03-22T04:35:35Z</time></trkpt><trkpt lat="24.325371024295873" lon="120.72647551922319"><ele>212.0</ele><time>2026-03-22T04:35:36Z</time></trkpt><trkpt lat="24.32540961899817" lon="120.7263262724582"><ele>212.0</ele><time>2026-03-22T04:35:37Z</time></trkpt><trkpt lat="24.325455842454407" lon="120.72618569532177"><ele>212.0</ele><time>2026-03-22T04:35:38Z</time></trkpt><trkpt lat="24.3255083963586" lon="120.72604412608014"><ele>212.0</ele><time>2026-03-22T04:35:39Z</time></trkpt><trkpt lat="24.32554630732416" lon="120.7258934856793"><ele>212.0</ele><time>2026-03-22T04:35:40Z</time></trkpt><trkpt lat="24.325601988437324" lon="120.72575133189964"><ele>213.0</ele><time>2026-03-22T04:35:41Z</time></trkpt><trkpt lat="24.32565646137025" lon="120.72561056586864"><ele>214.0</ele><time>2026-03-22T04:35:42Z</time></trkpt><trkpt lat="24.325710467661573" lon="120.72547156380713"><ele>215.0</ele><time>2026-03-22T04:35:43Z</time></trkpt><trkpt lat="24.3257640544217" lon="120.72533206794273"><ele>216.0</ele><time>2026-03-22T04:35:44Z</time></trkpt><trkpt lat="24.32581708793801" lon="120.72519487493363"><ele>216.0</ele><time>2026-03-22T04:35:45Z</time></trkpt><trkpt lat="24.325868554021618" lon="120.7250604441837"><ele>216.0</ele><time>2026-03-22T04:35:46Z</time></trkpt><trkpt lat="24.32592152992468" lon="120.72492855839032"><ele>216.0</ele><time>2026-03-22T04:35:47Z</time></trkpt><trkpt lat="24.325982589671817" lon="120.7248041864285"><ele>216.0</ele><time>2026-03-22T04:35:48Z</time></trkpt><trkpt lat="24.32603043694851" lon="120.72467555769472"><ele>216.0</ele><time>2026-03-22T04:35:49Z</time></trkpt><trkpt lat="24.326046305931843" lon="120.7245426634001"><ele>216.00000000000003</ele><time>2026-03-22T04:35:50Z</time></trkpt><trkpt lat="24.326065933745127" lon="120.7244190522237"><ele>216.00000000000003</ele><time>2026-03-22T04:35:51Z</time></trkpt><trkpt lat="24.326076886090956" lon="120.72430322598335"><ele>216.0</ele><time>2026-03-22T04:35:52Z</time></trkpt><trkpt lat="24.326075822271502" lon="120.72419574230818"><ele>216.0</ele><time>2026-03-22T04:35:53Z</time></trkpt><trkpt lat="24.32605691751906" lon="120.72408641836935"><ele>217.4</ele><time>2026-03-22T04:35:54Z</time></trkpt><trkpt lat="24.326025947811946" lon="120.72398637022413"><ele>218.8</ele><time>2026-03-22T04:35:55Z</time></trkpt><trkpt lat="24.32598422584264" lon="120.72388071916566"><ele>220.20000000000002</ele><time>2026-03-22T04:35:56Z</time></trkpt><trkpt lat="24.325931986310607" lon="120.72378858385298"><ele>221.60000000000002</ele><time>2026-03-22T04:35:57Z</time></trkpt><trkpt lat="24.325867285184106" lon="120.723699904224"><ele>223.0</ele><time>2026-03-22T04:35:58Z</time></trkpt><trkpt lat="24.325787695825568" lon="120.72361795952754"><ele>224.0</ele><time>2026-03-22T04:35:59Z</time></trkpt><trkpt lat="24.32570000855097" lon="120.72354929022457"><ele>225.0</ele><time>2026-03-22T04:36:00Z</time></trkpt><trkpt lat="24.325601715413313" lon="120.72349335972737"><ele>226.0</ele><time>2026-03-22T04:36:01Z</time></trkpt><trkpt lat="24.325494334805754" lon="120.72345410808653"><ele>227.0</ele><time>2026-03-22T04:36:02Z</time></trkpt><trkpt lat="24.32537948329529" lon="120.72342482008698"><ele>227.5</ele><time>2026-03-22T04:36:03Z</time></trkpt><trkpt lat="24.32525593400343" lon="120.72341646111774"><ele>228.0</ele><time>2026-03-22T04:36:04Z</time></trkpt><trkpt lat="24.32512839594825" lon="120.72341397301331"><ele>228.5</ele><time>2026-03-22T04:36:05Z</time></trkpt><trkpt lat="24.324998443703073" lon="120.72341565527596"><ele>229.0</ele><time>2026-03-22T04:36:06Z</time></trkpt><trkpt lat="24.324863653053416" lon="120.72341809039072"><ele>229.0</ele><time>2026-03-22T04:36:07Z</time></trkpt><trkpt lat="24.324729712430173" lon="120.72342051015032"><ele>229.0</ele><time>2026-03-22T04:36:08Z</time></trkpt><trkpt lat="24.324600127677062" lon="120.72342489578377"><ele>229.0</ele><time>2026-03-22T04:36:09Z</time></trkpt><trkpt lat="24.324466867683963" lon="120.72342967741675"><ele>229.0</ele><time>2026-03-22T04:36:10Z</time></trkpt><trkpt lat="24.32433909070005" lon="120.72343724758902"><ele>230.0</ele><time>2026-03-22T04:36:11Z</time></trkpt><trkpt lat="24.324219980181923" lon="120.72344638650704"><ele>231.0</ele><time>2026-03-22T04:36:12Z</time></trkpt><trkpt lat="24.32410440054404" lon="120.72345940127245"><ele>232.0</ele><time>2026-03-22T04:36:13Z</time></trkpt><trkpt lat="24.323982513548184" lon="120.72346591040228"><ele>233.0</ele><time>2026-03-22T04:36:14.001Z</time></trkpt><trkpt lat="24.32386151520252" lon="120.72349686680573"><ele>233.5</ele><time>2026-03-22T04:36:15.001Z</time></trkpt><trkpt lat="24.323743439431304" lon="120.72352405596156"><ele>234.0</ele><time>2026-03-22T04:36:16.001Z</time></trkpt><trkpt lat="24.323626836350538" lon="120.72356497472107"><ele>234.5</ele><time>2026-03-22T04:36:17.001Z</time></trkpt><trkpt lat="24.323510228345924" lon="120.7236154042295"><ele>235.0</ele><time>2026-03-22T04:36:18.001Z</time></trkpt><trkpt lat="24.323400939328113" lon="120.72367150922209"><ele>235.25</ele><time>2026-03-22T04:36:19.001Z</time></trkpt><trkpt lat="24.323291963539646" lon="120.72372848022741"><ele>235.5</ele><time>2026-03-22T04:36:20.001Z</time></trkpt><trkpt lat="24.32317469179979" lon="120.72379652709311"><ele>235.75</ele><time>2026-03-22T04:36:21.001Z</time></trkpt><trkpt lat="24.323067877148443" lon="120.72387199971988"><ele>236.0</ele><time>2026-03-22T04:36:22.001Z</time></trkpt><trkpt lat="24.322961646106208" lon="120.72394500081046"><ele>236.0</ele><time>2026-03-22T04:36:23.001Z</time></trkpt><trkpt lat="24.32285714602155" lon="120.72401398675532"><ele>236.0</ele><time>2026-03-22T04:36:24.001Z</time></trkpt><trkpt lat="24.322755225694834" lon="120.72409571821463"><ele>236.0</ele><time>2026-03-22T04:36:25.001Z</time></trkpt><trkpt lat="24.322652924694996" lon="120.72417226851375"><ele>236.0</ele><time>2026-03-22T04:36:26.001Z</time></trkpt><trkpt lat="24.322555582165883" lon="120.72424545989176"><ele>236.0</ele><time>2026-03-22T04:36:27.001Z</time></trkpt><trkpt lat="24.322462797113314" lon="120.7243183887451"><ele>236.00000000000003</ele><time>2026-03-22T04:36:28.001Z</time></trkpt><trkpt lat="24.322373053012605" lon="120.72438426275954"><ele>236.00000000000003</ele><time>2026-03-22T04:36:29.001Z</time></trkpt><trkpt lat="24.322287243302647" lon="120.72445193898825"><ele>236.0</ele><time>2026-03-22T04:36:30.001Z</time></trkpt><trkpt lat="24.32220505931974" lon="120.7245118719939"><ele>236.0</ele><time>2026-03-22T04:36:31.001Z</time></trkpt><trkpt lat="24.322128125321957" lon="120.72455567540248"><ele>236.16666666666669</ele><time>2026-03-22T04:36:32.001Z</time></trkpt><trkpt lat="24.322067752864626" lon="120.72459582032447"><ele>236.33333333333334</ele><time>2026-03-22T04:36:33.001Z</time></trkpt><trkpt lat="24.32199736072701" lon="120.7246429973242"><ele>236.5</ele><time>2026-03-22T04:36:35.001Z</time></trkpt><trkpt lat="24.32194012880816" lon="120.72467562904863"><ele>236.66666666666669</ele><time>2026-03-22T04:36:39.001Z</time></trkpt><trkpt lat="24.32187546715672" lon="120.72475058207789"><ele>236.83333333333334</ele><time>2026-03-22T04:37:27.002Z</time></trkpt><trkpt lat="24.321812921011514" lon="120.72479769084948"><ele>237.0</ele><time>2026-03-22T04:37:29.002Z</time></trkpt><trkpt lat="24.32173046856401" lon="120.72483836189524"><ele>237.0</ele><time>2026-03-22T04:37:30.999Z</time></trkpt><trkpt lat="24.321618759107682" lon="120.72483977063389"><ele>237.0</ele><time>2026-03-22T04:37:32.999Z</time></trkpt><trkpt lat="24.321522473107134" lon="120.72478328094387"><ele>237.0</ele><time>2026-03-22T04:37:34.999Z</time></trkpt><trkpt lat="24.321458201086255" lon="120.72474571440073"><ele>237.0</ele><time>2026-03-22T04:37:35.999Z</time></trkpt><trkpt lat="24.321411373113126" lon="120.72468491256505"><ele>237.0</ele><time>2026-03-22T04:37:36.999Z</time></trkpt><trkpt lat="24.321366393254518" lon="120.72462429315135"><ele>237.0</ele><time>2026-03-22T04:37:38Z</time></trkpt><trkpt lat="24.3213517450291" lon="120.72448826773908"><ele>236.8</ele><time>2026-03-22T04:37:38.999Z</time></trkpt><trkpt lat="24.321352871443096" lon="120.72439317953994"><ele>236.6</ele><time>2026-03-22T04:37:39.999Z</time></trkpt><trkpt lat="24.321354737004484" lon="120.72429254080885"><ele>236.40000000000003</ele><time>2026-03-22T04:37:41Z</time></trkpt><trkpt lat="24.32135676893555" lon="120.72418604212767"><ele>236.20000000000002</ele><time>2026-03-22T04:37:42Z</time></trkpt><trkpt lat="24.32135985159193" lon="120.72407827444795"><ele>236.0</ele><time>2026-03-22T04:37:43Z</time></trkpt><trkpt lat="24.32136486320042" lon="120.72396102608239"><ele>236.0</ele><time>2026-03-22T04:37:44Z</time></trkpt><trkpt lat="24.321370744479754" lon="120.72383822648906"><ele>236.0</ele><time>2026-03-22T04:37:45Z</time></trkpt><trkpt lat="24.321379281193842" lon="120.72371073972852"><ele>236.0</ele><time>2026-03-22T04:37:46Z</time></trkpt><trkpt lat="24.321391824231192" lon="120.72358200242351"><ele>236.0</ele><time>2026-03-22T04:37:47Z</time></trkpt><trkpt lat="24.32149419841903" lon="120.72347008523386"><ele>235.75</ele><time>2026-03-22T04:37:48Z</time></trkpt><trkpt lat="24.321509447298265" lon="120.72334642838415"><ele>235.5</ele><time>2026-03-22T04:37:49Z</time></trkpt><trkpt lat="24.321526595608134" lon="120.7232238337046"><ele>235.25</ele><time>2026-03-22T04:37:50Z</time></trkpt><trkpt lat="24.321546934736695" lon="120.7231016840877"><ele>235.0</ele><time>2026-03-22T04:37:51Z</time></trkpt><trkpt lat="24.321575176813358" lon="120.7229802202555"><ele>235.0</ele><time>2026-03-22T04:37:52Z</time></trkpt><trkpt lat="24.321605626398" lon="120.72286039533957"><ele>235.0</ele><time>2026-03-22T04:37:53Z</time></trkpt><trkpt lat="24.32163827680356" lon="120.7227400130549"><ele>235.0</ele><time>2026-03-22T04:37:54Z</time></trkpt><trkpt lat="24.32167155859958" lon="120.72262062930358"><ele>235.0</ele><time>2026-03-22T04:37:55Z</time></trkpt><trkpt lat="24.321701220972955" lon="120.72250303620623"><ele>234.6</ele><time>2026-03-22T04:37:56Z</time></trkpt><trkpt lat="24.321731544177887" lon="120.7223832793452"><ele>234.2</ele><time>2026-03-22T04:37:57Z</time></trkpt><trkpt lat="24.321761163423634" lon="120.7222650537983"><ele>233.8</ele><time>2026-03-22T04:37:58Z</time></trkpt><trkpt lat="24.321791334171916" lon="120.72214697241184"><ele>233.4</ele><time>2026-03-22T04:37:59Z</time></trkpt><trkpt lat="24.32182129140912" lon="120.72202931161027"><ele>233.0</ele><time>2026-03-22T04:38:00Z</time></trkpt><trkpt lat="24.321850757742073" lon="120.72191255701301"><ele>232.25</ele><time>2026-03-22T04:38:01Z</time></trkpt><trkpt lat="24.32187957452838" lon="120.72179593844146"><ele>231.5</ele><time>2026-03-22T04:38:02Z</time></trkpt><trkpt lat="24.321911128206988" lon="120.72167630075465"><ele>230.75</ele><time>2026-03-22T04:38:03Z</time></trkpt><trkpt lat="24.32194316506796" lon="120.72155119051357"><ele>230.0</ele><time>2026-03-22T04:38:04Z</time></trkpt><trkpt lat="24.32197629894902" lon="120.72141788801926"><ele>230.0</ele><time>2026-03-22T04:38:05Z</time></trkpt><trkpt lat="24.322013345946356" lon="120.72127892954681"><ele>230.0</ele><time>2026-03-22T04:38:06Z</time></trkpt><trkpt lat="24.32205046802852" lon="120.721137622581"><ele>230.0</ele><time>2026-03-22T04:38:07Z</time></trkpt><trkpt lat="24.322085041599358" lon="120.72099375064236"><ele>230.0</ele><time>2026-03-22T04:38:08Z</time></trkpt><trkpt lat="24.322122264979882" lon="120.72084716009998"><ele>229.5</ele><time>2026-03-22T04:38:09Z</time></trkpt><trkpt lat="24.322162126525228" lon="120.72069126818191"><ele>229.0</ele><time>2026-03-22T04:38:10Z</time></trkpt><trkpt lat="24.322202011642396" lon="120.72053421295384"><ele>228.5</ele><time>2026-03-22T04:38:11Z</time></trkpt><trkpt lat="24.32224169290698" lon="120.72037316763826"><ele>228.0</ele><time>2026-03-22T04:38:12Z</time></trkpt><trkpt lat="24.32228033661178" lon="120.72020977306262"><ele>227.66666666666669</ele><time>2026-03-22T04:38:13Z</time></trkpt><trkpt lat="24.32224970846254" lon="120.72002258547876"><ele>227.33333333333334</ele><time>2026-03-22T04:38:14Z</time></trkpt><trkpt lat="24.32229058826726" lon="120.71985431289538"><ele>227.0</ele><time>2026-03-22T04:38:15Z</time></trkpt><trkpt lat="24.322330518360502" lon="120.71968531644609"><ele>227.0</ele><time>2026-03-22T04:38:16Z</time></trkpt><trkpt lat="24.322367120945543" lon="120.71951875030462"><ele>227.0</ele><time>2026-03-22T04:38:17Z</time></trkpt><trkpt lat="24.322396130103765" lon="120.71935476826908"><ele>227.0</ele><time>2026-03-22T04:38:18Z</time></trkpt><trkpt lat="24.32241853920368" lon="120.71918902693854"><ele>227.33333333333334</ele><time>2026-03-22T04:38:19Z</time></trkpt><trkpt lat="24.32242899612675" lon="120.71902262014697"><ele>227.66666666666669</ele><time>2026-03-22T04:38:20Z</time></trkpt><trkpt lat="24.32242484340721" lon="120.71885453152123"><ele>228.0</ele><time>2026-03-22T04:38:21Z</time></trkpt><trkpt lat="24.322412629955434" lon="120.71868171646643"><ele>227.0</ele><time>2026-03-22T04:38:22Z</time></trkpt><trkpt lat="24.32239373663373" lon="120.71851611556936"><ele>226.0</ele><time>2026-03-22T04:38:23Z</time></trkpt><trkpt lat="24.322363643950453" lon="120.71835423787957"><ele>225.0</ele><time>2026-03-22T04:38:24Z</time></trkpt><trkpt lat="24.322326943094335" lon="120.71818743994582"><ele>225.0</ele><time>2026-03-22T04:38:25Z</time></trkpt><trkpt lat="24.32227955653451" lon="120.71802520361189"><ele>225.0</ele><time>2026-03-22T04:38:26Z</time></trkpt><trkpt lat="24.32222181266653" lon="120.71786095741126"><ele>225.0</ele><time>2026-03-22T04:38:27Z</time></trkpt><trkpt lat="24.32214930629808" lon="120.71769239586028"><ele>224.0</ele><time>2026-03-22T04:38:28Z</time></trkpt><trkpt lat="24.322077034128185" lon="120.71751894488561"><ele>223.0</ele><time>2026-03-22T04:38:29Z</time></trkpt><trkpt lat="24.32200711383692" lon="120.71734855655286"><ele>222.0</ele><time>2026-03-22T04:38:30Z</time></trkpt><trkpt lat="24.321932484748817" lon="120.71717347115056"><ele>222.0</ele><time>2026-03-22T04:38:31Z</time></trkpt><trkpt lat="24.321856052768975" lon="120.71699342947043"><ele>222.0</ele><time>2026-03-22T04:38:32.001Z</time></trkpt><trkpt lat="24.321778605270943" lon="120.7168109955251"><ele>222.0</ele><time>2026-03-22T04:38:33.001Z</time></trkpt><trkpt lat="24.32169915928465" lon="120.71662385401044"><ele>221.66666666666669</ele><time>2026-03-22T04:38:34.001Z</time></trkpt><trkpt lat="24.321621548738502" lon="120.71644046739783"><ele>221.33333333333334</ele><time>2026-03-22T04:38:35.001Z</time></trkpt><trkpt lat="24.32154405871498" lon="120.71625723323298"><ele>221.0</ele><time>2026-03-22T04:38:36.001Z</time></trkpt><trkpt lat="24.321467897551315" lon="120.7160782901085"><ele>221.0</ele><time>2026-03-22T04:38:37.001Z</time></trkpt><trkpt lat="24.321392120039256" lon="120.71589975447658"><ele>221.0</ele><time>2026-03-22T04:38:38.001Z</time></trkpt><trkpt lat="24.32131855274456" lon="120.71572508603346"><ele>221.0</ele><time>2026-03-22T04:38:39.001Z</time></trkpt><trkpt lat="24.321244741692812" lon="120.71554987706203"><ele>221.0</ele><time>2026-03-22T04:38:40.001Z</time></trkpt><trkpt lat="24.3211677594055" lon="120.71536839904144"><ele>221.0</ele><time>2026-03-22T04:38:41.001Z</time></trkpt><trkpt lat="24.32109257335563" lon="120.71518995343894"><ele>221.0</ele><time>2026-03-22T04:38:42.001Z</time></trkpt><trkpt lat="24.3210175445984" lon="120.71501482085543"><ele>220.66666666666669</ele><time>2026-03-22T04:38:43.001Z</time></trkpt><trkpt lat="24.320940800521637" lon="120.7148354481355"><ele>220.33333333333331</ele><time>2026-03-22T04:38:44.001Z</time></trkpt><trkpt lat="24.320864241968724" lon="120.71465616810586"><ele>220.0</ele><time>2026-03-22T04:38:45.001Z</time></trkpt><trkpt lat="24.320787381324998" lon="120.71447559149179"><ele>219.66666666666666</ele><time>2026-03-22T04:38:46.001Z</time></trkpt><trkpt lat="24.32071277952152" lon="120.71430032174298"><ele>219.33333333333331</ele><time>2026-03-22T04:38:47.001Z</time></trkpt><trkpt lat="24.320638421821183" lon="120.71412604137656"><ele>219.0</ele><time>2026-03-22T04:38:48.001Z</time></trkpt><trkpt lat="24.320560828577378" lon="120.71394402005866"><ele>219.0</ele><time>2026-03-22T04:38:49.001Z</time></trkpt><trkpt lat="24.320485952531925" lon="120.71376781379993"><ele>219.0</ele><time>2026-03-22T04:38:50.001Z</time></trkpt><trkpt lat="24.320411689573106" lon="120.71359305044167"><ele>219.0</ele><time>2026-03-22T04:38:51.001Z</time></trkpt><trkpt lat="24.320335581202134" lon="120.71341545701678"><ele>218.0</ele><time>2026-03-22T04:38:52.001Z</time></trkpt><trkpt lat="24.320260256230505" lon="120.71323840939075"><ele>217.0</ele><time>2026-03-22T04:38:53.001Z</time></trkpt><trkpt lat="24.320186611490872" lon="120.71306305505642"><ele>216.0</ele><time>2026-03-22T04:38:54.001Z</time></trkpt><trkpt lat="24.32011349618953" lon="120.71288969329164"><ele>216.0</ele><time>2026-03-22T04:38:55.001Z</time></trkpt><trkpt lat="24.32004038041395" lon="120.71271569458305"><ele>216.0</ele><time>2026-03-22T04:38:56.001Z</time></trkpt><trkpt lat="24.319967511457126" lon="120.712543013333"><ele>216.0</ele><time>2026-03-22T04:38:57.001Z</time></trkpt><trkpt lat="24.319895101248786" lon="120.71237143052848"><ele>216.0</ele><time>2026-03-22T04:38:58.001Z</time></trkpt><trkpt lat="24.319822850470565" lon="120.71220022548916"><ele>216.0</ele><time>2026-03-22T04:38:59.001Z</time></trkpt><trkpt lat="24.31975146578234" lon="120.71203107277383"><ele>216.0</ele><time>2026-03-22T04:39:00.001Z</time></trkpt><trkpt lat="24.31967965847158" lon="120.71186188639096"><ele>215.66666666666669</ele><time>2026-03-22T04:39:01.001Z</time></trkpt><trkpt lat="24.319607717620343" lon="120.71169335049817"><ele>215.33333333333334</ele><time>2026-03-22T04:39:02.001Z</time></trkpt><trkpt lat="24.3195378620031" lon="120.71152598474896"><ele>215.0</ele><time>2026-03-22T04:39:03.001Z</time></trkpt><trkpt lat="24.319466976065975" lon="120.71135857669144"><ele>215.0</ele><time>2026-03-22T04:39:04.001Z</time></trkpt><trkpt lat="24.31939636221177" lon="120.71119203828022"><ele>215.0</ele><time>2026-03-22T04:39:05.001Z</time></trkpt><trkpt lat="24.319327865804553" lon="120.71102698037085"><ele>215.0</ele><time>2026-03-22T04:39:06.001Z</time></trkpt><trkpt lat="24.319257327127314" lon="120.71086208632214"><ele>213.33333333333334</ele><time>2026-03-22T04:39:07.001Z</time></trkpt><trkpt lat="24.319187543397554" lon="120.71069562007482"><ele>211.66666666666669</ele><time>2026-03-22T04:39:08.001Z</time></trkpt><trkpt lat="24.319116747101504" lon="120.71052729507701"><ele>210.0</ele><time>2026-03-22T04:39:09.001Z</time></trkpt><trkpt lat="24.319046837466647" lon="120.71036107822181"><ele>209.33333333333331</ele><time>2026-03-22T04:39:10.001Z</time></trkpt><trkpt lat="24.318976021158903" lon="120.71019270564125"><ele>208.66666666666666</ele><time>2026-03-22T04:39:11.001Z</time></trkpt><trkpt lat="24.318905723389573" lon="120.71002556595435"><ele>208.0</ele><time>2026-03-22T04:39:12.001Z</time></trkpt><trkpt lat="24.318835690145047" lon="120.70985905519242"><ele>208.0</ele><time>2026-03-22T04:39:13.001Z</time></trkpt><trkpt lat="24.31876671265509" lon="120.70969505459284"><ele>208.0</ele><time>2026-03-22T04:39:14.001Z</time></trkpt><trkpt lat="24.31869993991948" lon="120.70953591503132"><ele>208.0</ele><time>2026-03-22T04:39:15.001Z</time></trkpt><trkpt lat="24.318634195813416" lon="120.70937879037443"><ele>208.33333333333331</ele><time>2026-03-22T04:39:16.001Z</time></trkpt><trkpt lat="24.318568731763502" lon="120.70922368712704"><ele>208.66666666666669</ele><time>2026-03-22T04:39:17.001Z</time></trkpt><trkpt lat="24.318504974760984" lon="120.70907243869534"><ele>209.0</ele><time>2026-03-22T04:39:18.001Z</time></trkpt><trkpt lat="24.31844150964837" lon="120.70892179018739"><ele>209.0</ele><time>2026-03-22T04:39:19.001Z</time></trkpt><trkpt lat="24.318377434694227" lon="120.70876957963601"><ele>209.0</ele><time>2026-03-22T04:39:20.001Z</time></trkpt><trkpt lat="24.31831218635234" lon="120.70861501687781"><ele>209.0</ele><time>2026-03-22T04:39:21.001Z</time></trkpt><trkpt lat="24.31824872762002" lon="120.70845359038906"><ele>208.66666666666669</ele><time>2026-03-22T04:39:22.001Z</time></trkpt><trkpt lat="24.31817992247505" lon="120.70830047452789"><ele>208.33333333333331</ele><time>2026-03-22T04:39:23.001Z</time></trkpt><trkpt lat="24.318128123203586" lon="120.70814162289845"><ele>208.0</ele><time>2026-03-22T04:39:24.001Z</time></trkpt><trkpt lat="24.31806260024518" lon="120.70799064492353"><ele>208.0</ele><time>2026-03-22T04:39:25.001Z</time></trkpt><trkpt lat="24.31799984365979" lon="120.70783815735717"><ele>208.0</ele><time>2026-03-22T04:39:26.001Z</time></trkpt><trkpt lat="24.317932415093207" lon="120.70768281257408"><ele>208.0</ele><time>2026-03-22T04:39:27.001Z</time></trkpt><trkpt lat="24.317864262987484" lon="120.70752336140077"><ele>208.0</ele><time>2026-03-22T04:39:28.001Z</time></trkpt><trkpt lat="24.317797614979444" lon="120.70736686387683"><ele>208.0</ele><time>2026-03-22T04:39:29.002Z</time></trkpt><trkpt lat="24.317730567990605" lon="120.70721212752687"><ele>208.0</ele><time>2026-03-22T04:39:30.002Z</time></trkpt><trkpt lat="24.31766522355856" lon="120.70706065876651"><ele>207.5</ele><time>2026-03-22T04:39:31.002Z</time></trkpt><trkpt lat="24.31760115396576" lon="120.70690991823605"><ele>207.0</ele><time>2026-03-22T04:39:32.002Z</time></trkpt><trkpt lat="24.317515816074682" lon="120.70677365644366"><ele>206.5</ele><time>2026-03-22T04:39:33.002Z</time></trkpt><trkpt lat="24.31746787511876" lon="120.70662295578843"><ele>206.0</ele><time>2026-03-22T04:39:34.002Z</time></trkpt><trkpt lat="24.317393095264798" lon="120.70648661840562"><ele>206.0</ele><time>2026-03-22T04:39:34.999Z</time></trkpt><trkpt lat="24.317312411672038" lon="120.70635637573007"><ele>206.0</ele><time>2026-03-22T04:39:35.999Z</time></trkpt><trkpt lat="24.317228214167383" lon="120.70623542318134"><ele>206.0</ele><time>2026-03-22T04:39:36.999Z</time></trkpt><trkpt lat="24.3171378349705" lon="120.70612207544646"><ele>206.0</ele><time>2026-03-22T04:39:37.999Z</time></trkpt><trkpt lat="24.317047953276177" lon="120.70603486866446"><ele>206.00000000000003</ele><time>2026-03-22T04:39:38.999Z</time></trkpt><trkpt lat="24.316937834297757" lon="120.70598700164544"><ele>206.0</ele><time>2026-03-22T04:39:39.999Z</time></trkpt><trkpt lat="24.31685929593287" lon="120.70591983555019"><ele>206.0</ele><time>2026-03-22T04:39:40.999Z</time></trkpt><trkpt lat="24.31679009319591" lon="120.70586926468462"><ele>206.0</ele><time>2026-03-22T04:39:41.999Z</time></trkpt><trkpt lat="24.31672589804415" lon="120.7058262065514"><ele>206.00000000000003</ele><time>2026-03-22T04:39:42.999Z</time></trkpt><trkpt lat="24.316665747473145" lon="120.70578817748728"><ele>206.0</ele><time>2026-03-22T04:39:43.999Z</time></trkpt><trkpt lat="24.3165745331413" lon="120.7057164356244"><ele>206.00000000000003</ele><time>2026-03-22T04:39:45.999Z</time></trkpt><trkpt lat="24.316501978706896" lon="120.70567206869052"><ele>206.0</ele><time>2026-03-22T04:39:47.999Z</time></trkpt><trkpt lat="24.31644410915222" lon="120.70564148494532"><ele>206.0</ele><time>2026-03-22T04:40:06Z</time></trkpt><trkpt lat="24.316361853062947" lon="120.70559786479106"><ele>206.0</ele><time>2026-03-22T04:40:09Z</time></trkpt><trkpt lat="24.31629425631938" lon="120.70556258947978"><ele>206.00000000000003</ele><time>2026-03-22T04:40:11Z</time></trkpt><trkpt lat="24.316200003580473" lon="120.70551095595762"><ele>206.0</ele><time>2026-03-22T04:40:13Z</time></trkpt><trkpt lat="24.31609279742595" lon="120.7054727579859"><ele>206.0</ele><time>2026-03-22T04:40:15Z</time></trkpt><trkpt lat="24.315978019828904" lon="120.70541072391869"><ele>206.0</ele><time>2026-03-22T04:40:17Z</time></trkpt><trkpt lat="24.31590570576262" lon="120.70537257206927"><ele>206.0</ele><time>2026-03-22T04:40:18Z</time></trkpt><trkpt lat="24.315831251951565" lon="120.70533329118899"><ele>206.0</ele><time>2026-03-22T04:40:19Z</time></trkpt><trkpt lat="24.315752246761473" lon="120.70529160916743"><ele>206.0</ele><time>2026-03-22T04:40:20Z</time></trkpt><trkpt lat="24.3156757090483" lon="120.70525122892651"><ele>205.8</ele><time>2026-03-22T04:40:21Z</time></trkpt><trkpt lat="24.315587717981266" lon="120.70520480604908"><ele>205.60000000000002</ele><time>2026-03-22T04:40:22Z</time></trkpt><trkpt lat="24.31550153170869" lon="120.70515933503107"><ele>205.4</ele><time>2026-03-22T04:40:23Z</time></trkpt><trkpt lat="24.31542499847943" lon="120.70509358095667"><ele>205.2</ele><time>2026-03-22T04:40:24Z</time></trkpt><trkpt lat="24.31532865438008" lon="120.70505807345201"><ele>205.0</ele><time>2026-03-22T04:40:25Z</time></trkpt><trkpt lat="24.315241207162703" lon="120.70498887136957"><ele>205.5</ele><time>2026-03-22T04:40:26Z</time></trkpt><trkpt lat="24.315145202463842" lon="120.70493447146382"><ele>206.0</ele><time>2026-03-22T04:40:27Z</time></trkpt><trkpt lat="24.31504067912619" lon="120.70487943059479"><ele>206.5</ele><time>2026-03-22T04:40:28Z</time></trkpt><trkpt lat="24.314932729844124" lon="120.70482545563257"><ele>207.0</ele><time>2026-03-22T04:40:29Z</time></trkpt><trkpt lat="24.314821832876714" lon="120.70477278989634"><ele>207.0</ele><time>2026-03-22T04:40:30Z</time></trkpt><trkpt lat="24.314701084898193" lon="120.7047181612815"><ele>207.0</ele><time>2026-03-22T04:40:31Z</time></trkpt><trkpt lat="24.314580005928207" lon="120.70466646632487"><ele>207.0</ele><time>2026-03-22T04:40:32Z</time></trkpt><trkpt lat="24.31444776281252" lon="120.70463785321662"><ele>207.0</ele><time>2026-03-22T04:40:33.001Z</time></trkpt><trkpt lat="24.314319179176636" lon="120.70459994112674"><ele>207.0</ele><time>2026-03-22T04:40:34.001Z</time></trkpt><trkpt lat="24.31423951996219" lon="120.70457773291926"><ele>207.0</ele><time>2026-03-22T04:40:35.001Z</time></trkpt><trkpt lat="24.31404943990009" lon="120.70451651607895"><ele>207.0</ele><time>2026-03-22T04:40:36.001Z</time></trkpt><trkpt lat="24.313912574735465" lon="120.7044863056213"><ele>207.0</ele><time>2026-03-22T04:40:37.001Z</time></trkpt><trkpt lat="24.3137699859198" lon="120.70448516560161"><ele>206.75</ele><time>2026-03-22T04:40:38.001Z</time></trkpt><trkpt lat="24.313627575203693" lon="120.70446941969085"><ele>206.5</ele><time>2026-03-22T04:40:39.001Z</time></trkpt><trkpt lat="24.313485210676234" lon="120.70445326925544"><ele>206.25</ele><time>2026-03-22T04:40:40.001Z</time></trkpt><trkpt lat="24.31334538215062" lon="120.70443740651758"><ele>206.0</ele><time>2026-03-22T04:40:41.001Z</time></trkpt><trkpt lat="24.313206254772123" lon="120.70442089717149"><ele>205.25</ele><time>2026-03-22T04:40:42.001Z</time></trkpt><trkpt lat="24.31306993348274" lon="120.70440448967638"><ele>204.5</ele><time>2026-03-22T04:40:43.001Z</time></trkpt><trkpt lat="24.312939147863847" lon="120.70440099471631"><ele>203.75</ele><time>2026-03-22T04:40:44.001Z</time></trkpt><trkpt lat="24.312816629638917" lon="120.70439287088807"><ele>203.0</ele><time>2026-03-22T04:40:45.001Z</time></trkpt><trkpt lat="24.312702684437483" lon="120.70438531550259"><ele>203.0</ele><time>2026-03-22T04:40:46.001Z</time></trkpt><trkpt lat="24.312601825900224" lon="120.70438109141088"><ele>203.0</ele><time>2026-03-22T04:40:47.001Z</time></trkpt><trkpt lat="24.31250599774866" lon="120.70428023373141"><ele>203.0</ele><time>2026-03-22T04:40:48.001Z</time></trkpt><trkpt lat="24.312412560813677" lon="120.70423820256845"><ele>203.0</ele><time>2026-03-22T04:40:49.001Z</time></trkpt><trkpt lat="24.312341505182072" lon="120.70417043162549"><ele>203.0</ele><time>2026-03-22T04:40:50.001Z</time></trkpt><trkpt lat="24.312280618694118" lon="120.70409376617819"><ele>202.8</ele><time>2026-03-22T04:40:51.001Z</time></trkpt><trkpt lat="24.31222050029874" lon="120.70401996282233"><ele>202.60000000000002</ele><time>2026-03-22T04:40:52.001Z</time></trkpt><trkpt lat="24.312176484589635" lon="120.70393293122089"><ele>202.39999999999998</ele><time>2026-03-22T04:40:53.001Z</time></trkpt><trkpt lat="24.31214303364598" lon="120.70384207581488"><ele>202.2</ele><time>2026-03-22T04:40:54.001Z</time></trkpt><trkpt lat="24.312129075531953" lon="120.70374563303854"><ele>202.0</ele><time>2026-03-22T04:40:55.001Z</time></trkpt><trkpt lat="24.312117330036955" lon="120.70364075874349"><ele>201.75</ele><time>2026-03-22T04:40:56.001Z</time></trkpt><trkpt lat="24.312114083816045" lon="120.70351932158799"><ele>201.5</ele><time>2026-03-22T04:40:57.001Z</time></trkpt><trkpt lat="24.312132279611248" lon="120.70339273575293"><ele>201.25</ele><time>2026-03-22T04:40:58.001Z</time></trkpt><trkpt lat="24.312149712847365" lon="120.70327124734075"><ele>201.0</ele><time>2026-03-22T04:40:59.001Z</time></trkpt><trkpt lat="24.31216918999187" lon="120.70313800059455"><ele>201.0</ele><time>2026-03-22T04:41:00.001Z</time></trkpt><trkpt lat="24.312189829124055" lon="120.70300394174109"><ele>201.0</ele><time>2026-03-22T04:41:01.001Z</time></trkpt><trkpt lat="24.312200777958157" lon="120.70286188190006"><ele>201.0</ele><time>2026-03-22T04:41:02.001Z</time></trkpt><trkpt lat="24.31222728673497" lon="120.7027182196925"><ele>201.0</ele><time>2026-03-22T04:41:03.001Z</time></trkpt><trkpt lat="24.31225035968932" lon="120.70257827730319"><ele>202.25</ele><time>2026-03-22T04:41:04.001Z</time></trkpt><trkpt lat="24.312257437352176" lon="120.70244862746092"><ele>203.5</ele><time>2026-03-22T04:41:05.001Z</time></trkpt><trkpt lat="24.312283688163077" lon="120.70229472248886"><ele>204.75</ele><time>2026-03-22T04:41:06.001Z</time></trkpt><trkpt lat="24.31231351376844" lon="120.7021420228064"><ele>206.0</ele><time>2026-03-22T04:41:07.001Z</time></trkpt><trkpt lat="24.31236313345094" lon="120.70196620380051"><ele>205.75</ele><time>2026-03-22T04:41:08.001Z</time></trkpt><trkpt lat="24.312398420039884" lon="120.70180501818545"><ele>205.5</ele><time>2026-03-22T04:41:09.001Z</time></trkpt><trkpt lat="24.312432489804014" lon="120.70164713671706"><ele>205.25</ele><time>2026-03-22T04:41:10.001Z</time></trkpt><trkpt lat="24.31246429956088" lon="120.70149096005062"><ele>205.0</ele><time>2026-03-22T04:41:11.001Z</time></trkpt><trkpt lat="24.312471822208355" lon="120.70133916567407"><ele>205.0</ele><time>2026-03-22T04:41:12.001Z</time></trkpt><trkpt lat="24.312495103144975" lon="120.70119024215857"><ele>205.0</ele><time>2026-03-22T04:41:13.001Z</time></trkpt><trkpt lat="24.312513839227343" lon="120.70104294796846"><ele>205.0</ele><time>2026-03-22T04:41:14.001Z</time></trkpt><trkpt lat="24.312537726318055" lon="120.70089377261708"><ele>205.0</ele><time>2026-03-22T04:41:15.001Z</time></trkpt><trkpt lat="24.312562544134927" lon="120.7007430731664"><ele>203.75</ele><time>2026-03-22T04:41:16.001Z</time></trkpt><trkpt lat="24.31258670847723" lon="120.70059072168984"><ele>202.5</ele><time>2026-03-22T04:41:17.001Z</time></trkpt><trkpt lat="24.312612127251214" lon="120.70043907221246"><ele>201.25</ele><time>2026-03-22T04:41:18.001Z</time></trkpt><trkpt lat="24.312637287942323" lon="120.70028570031283"><ele>200.0</ele><time>2026-03-22T04:41:19.001Z</time></trkpt><trkpt lat="24.312662708657932" lon="120.70013014889268"><ele>199.33333333333334</ele><time>2026-03-22T04:41:20.001Z</time></trkpt><trkpt lat="24.312688922070496" lon="120.69997034705248"><ele>198.66666666666669</ele><time>2026-03-22T04:41:21.001Z</time></trkpt><trkpt lat="24.312716079508316" lon="120.69980770932497"><ele>198.0</ele><time>2026-03-22T04:41:22.001Z</time></trkpt><trkpt lat="24.3127581977463" lon="120.6996469856815"><ele>198.0</ele><time>2026-03-22T04:41:23.002Z</time></trkpt><trkpt lat="24.312768799795023" lon="120.6994773763731"><ele>198.0</ele><time>2026-03-22T04:41:24.002Z</time></trkpt><trkpt lat="24.312796089442998" lon="120.6993084659776"><ele>198.0</ele><time>2026-03-22T04:41:25.002Z</time></trkpt><trkpt lat="24.312823515394943" lon="120.69913708049248"><ele>196.66666666666669</ele><time>2026-03-22T04:41:26.002Z</time></trkpt><trkpt lat="24.31285100085633" lon="120.69896459165341"><ele>195.33333333333334</ele><time>2026-03-22T04:41:27.002Z</time></trkpt><trkpt lat="24.3128784690077" lon="120.69879145371657"><ele>194.0</ele><time>2026-03-22T04:41:28.002Z</time></trkpt><trkpt lat="24.312905788752644" lon="120.69861886381162"><ele>194.33333333333334</ele><time>2026-03-22T04:41:29.002Z</time></trkpt><trkpt lat="24.312933365214267" lon="120.69844582697962"><ele>194.66666666666669</ele><time>2026-03-22T04:41:30.002Z</time></trkpt><trkpt lat="24.312959516782424" lon="120.69828125145533"><ele>195.0</ele><time>2026-03-22T04:41:31.002Z</time></trkpt><trkpt lat="24.31298401046353" lon="120.69812710925561"><ele>195.0</ele><time>2026-03-22T04:41:32.002Z</time></trkpt><trkpt lat="24.313006944081707" lon="120.69798278489056"><ele>195.0</ele><time>2026-03-22T04:41:33.002Z</time></trkpt><trkpt lat="24.31302682090956" lon="120.69785769730915"><ele>195.0</ele><time>2026-03-22T04:41:34.002Z</time></trkpt><trkpt lat="24.313044777058714" lon="120.69774469670841"><ele>195.0</ele><time>2026-03-22T04:41:35.002Z</time></trkpt><trkpt lat="24.31306034212341" lon="120.69764674356493"><ele>195.0</ele><time>2026-03-22T04:41:36.002Z</time></trkpt><trkpt lat="24.31307458119675" lon="120.69755713513979"><ele>195.33333333333334</ele><time>2026-03-22T04:41:37.002Z</time></trkpt><trkpt lat="24.3130888709823" lon="120.69747589300593"><ele>195.66666666666669</ele><time>2026-03-22T04:41:38.002Z</time></trkpt><trkpt lat="24.313101589950605" lon="120.69740496590462"><ele>196.0</ele><time>2026-03-22T04:41:39.002Z</time></trkpt><trkpt lat="24.31312359400453" lon="120.69728471642955"><ele>196.33333333333334</ele><time>2026-03-22T04:41:40.999Z</time></trkpt><trkpt lat="24.313143980189608" lon="120.69717330842154"><ele>196.66666666666669</ele><time>2026-03-22T04:41:42.999Z</time></trkpt><trkpt lat="24.313159090571784" lon="120.69709073200228"><ele>197.0</ele><time>2026-03-22T04:41:44.999Z</time></trkpt><trkpt lat="24.313344018453588" lon="120.69709453230331"><ele>197.0</ele><time>2026-03-22T04:41:47.999Z</time></trkpt><trkpt lat="24.313466496659178" lon="120.69710249589447"><ele>197.0</ele><time>2026-03-22T04:41:49.999Z</time></trkpt><trkpt lat="24.31358493344626" lon="120.69713067207573"><ele>197.0</ele><time>2026-03-22T04:41:51.999Z</time></trkpt><trkpt lat="24.313655219962655" lon="120.69714739325347"><ele>197.0</ele><time>2026-03-22T04:41:52.999Z</time></trkpt><trkpt lat="24.313734165934264" lon="120.6971664185683"><ele>197.0</ele><time>2026-03-22T04:41:53.999Z</time></trkpt><trkpt lat="24.3138231723816" lon="120.69719046627242"><ele>196.8</ele><time>2026-03-22T04:41:54.999Z</time></trkpt><trkpt lat="24.313913797113216" lon="120.69721543910278"><ele>196.6</ele><time>2026-03-22T04:41:55.999Z</time></trkpt><trkpt lat="24.31400538932428" lon="120.69724510207745"><ele>196.4</ele><time>2026-03-22T04:41:57Z</time></trkpt><trkpt lat="24.31410276034784" lon="120.6972801339456"><ele>196.20000000000002</ele><time>2026-03-22T04:41:58Z</time></trkpt><trkpt lat="24.314195167714907" lon="120.69731688217676"><ele>196.0</ele><time>2026-03-22T04:41:59Z</time></trkpt><trkpt lat="24.314288718574087" lon="120.69735397283905"><ele>196.0</ele><time>2026-03-22T04:42:00Z</time></trkpt><trkpt lat="24.31437592730285" lon="120.69741148700433"><ele>196.0</ele><time>2026-03-22T04:42:01Z</time></trkpt><trkpt lat="24.314468975480462" lon="120.69746096018629"><ele>196.0</ele><time>2026-03-22T04:42:02Z</time></trkpt><trkpt lat="24.31456657335069" lon="120.69749492620475"><ele>196.0</ele><time>2026-03-22T04:42:03Z</time></trkpt><trkpt lat="24.314648450141156" lon="120.6975426448406"><ele>196.0</ele><time>2026-03-22T04:42:04Z</time></trkpt><trkpt lat="24.31468452176216" lon="120.69767529059936"><ele>196.8</ele><time>2026-03-22T04:42:05Z</time></trkpt><trkpt lat="24.31472846754676" lon="120.6977681853585"><ele>197.60000000000002</ele><time>2026-03-22T04:42:06Z</time></trkpt><trkpt lat="24.314757468123805" lon="120.69786939291872"><ele>198.4</ele><time>2026-03-22T04:42:07Z</time></trkpt><trkpt lat="24.314761802388205" lon="120.6979769563452"><ele>199.2</ele><time>2026-03-22T04:42:08Z</time></trkpt><trkpt lat="24.31474946187106" lon="120.69808950325206"><ele>200.0</ele><time>2026-03-22T04:42:09Z</time></trkpt><trkpt lat="24.314717325230475" lon="120.6982002910351"><ele>200.5</ele><time>2026-03-22T04:42:10Z</time></trkpt><trkpt lat="24.31466826775447" lon="120.6983100905295"><ele>201.0</ele><time>2026-03-22T04:42:11Z</time></trkpt><trkpt lat="24.31463200022913" lon="120.6984349487522"><ele>201.5</ele><time>2026-03-22T04:42:12Z</time></trkpt><trkpt lat="24.3145588242962" lon="120.69854885477896"><ele>202.0</ele><time>2026-03-22T04:42:13Z</time></trkpt><trkpt lat="24.31449530798499" lon="120.69867446004744"><ele>202.0</ele><time>2026-03-22T04:42:14Z</time></trkpt><trkpt lat="24.314423320043012" lon="120.69880374638716"><ele>202.0</ele><time>2026-03-22T04:42:15Z</time></trkpt><trkpt lat="24.314354464642395" lon="120.69893260797933"><ele>202.0</ele><time>2026-03-22T04:42:16Z</time></trkpt><trkpt lat="24.31428581924906" lon="120.69906263507502"><ele>202.0</ele><time>2026-03-22T04:42:17Z</time></trkpt><trkpt lat="24.31421257409124" lon="120.69919723087801"><ele>202.0</ele><time>2026-03-22T04:42:18Z</time></trkpt><trkpt lat="24.314139270845214" lon="120.69933579004388"><ele>202.0</ele><time>2026-03-22T04:42:19Z</time></trkpt><trkpt lat="24.314067553613448" lon="120.69948089604503"><ele>202.0</ele><time>2026-03-22T04:42:20Z</time></trkpt><trkpt lat="24.313988268557768" lon="120.699627192151"><ele>201.66666666666666</ele><time>2026-03-22T04:42:21Z</time></trkpt><trkpt lat="24.313908642970333" lon="120.69977784647924"><ele>201.33333333333331</ele><time>2026-03-22T04:42:22Z</time></trkpt><trkpt lat="24.31382674921598" lon="120.69993199630224"><ele>201.0</ele><time>2026-03-22T04:42:23Z</time></trkpt><trkpt lat="24.313746836472813" lon="120.70008333542933"><ele>201.0</ele><time>2026-03-22T04:42:24Z</time></trkpt><trkpt lat="24.31368276718602" lon="120.70024144028388"><ele>201.0</ele><time>2026-03-22T04:42:25Z</time></trkpt><trkpt lat="24.313609094093465" lon="120.70038785469568"><ele>201.0</ele><time>2026-03-22T04:42:26Z</time></trkpt><trkpt lat="24.313536013662684" lon="120.70053228670409"><ele>201.0</ele><time>2026-03-22T04:42:27Z</time></trkpt><trkpt lat="24.31340312528594" lon="120.70063790850529"><ele>201.0</ele><time>2026-03-22T04:42:28Z</time></trkpt><trkpt lat="24.313297986145653" lon="120.70075814032737"><ele>201.0</ele><time>2026-03-22T04:42:29Z</time></trkpt><trkpt lat="24.313179719742283" lon="120.70086886269634"><ele>200.66666666666669</ele><time>2026-03-22T04:42:30.001Z</time></trkpt><trkpt lat="24.313050360929832" lon="120.70096229656029"><ele>200.33333333333334</ele><time>2026-03-22T04:42:31.001Z</time></trkpt><trkpt lat="24.31291517477098" lon="120.70104742483039"><ele>200.0</ele><time>2026-03-22T04:42:32.001Z</time></trkpt><trkpt lat="24.312767071719296" lon="120.70110744301938"><ele>201.66666666666669</ele><time>2026-03-22T04:42:33.001Z</time></trkpt><trkpt lat="24.312618821833727" lon="120.7011481639645"><ele>203.33333333333331</ele><time>2026-03-22T04:42:34.001Z</time></trkpt><trkpt lat="24.31246562632625" lon="120.70116906475425"><ele>205.0</ele><time>2026-03-22T04:42:35.001Z</time></trkpt><trkpt lat="24.31230567834021" lon="120.70117412150834"><ele>203.66666666666666</ele><time>2026-03-22T04:42:36.001Z</time></trkpt><trkpt lat="24.31213915233699" lon="120.70116191518441"><ele>202.33333333333331</ele><time>2026-03-22T04:42:37.001Z</time></trkpt><trkpt lat="24.311975311993923" lon="120.7011264553396"><ele>201.0</ele><time>2026-03-22T04:42:38.001Z</time></trkpt><trkpt lat="24.311806532116705" lon="120.70108183641211"><ele>200.66666666666669</ele><time>2026-03-22T04:42:39.001Z</time></trkpt><trkpt lat="24.311640713888657" lon="120.70103018218853"><ele>200.33333333333334</ele><time>2026-03-22T04:42:40.001Z</time></trkpt><trkpt lat="24.31149704876008" lon="120.70095722095101"><ele>200.0</ele><time>2026-03-22T04:42:41.001Z</time></trkpt><trkpt lat="24.311334407260368" lon="120.70088910035278"><ele>199.33333333333334</ele><time>2026-03-22T04:42:42.001Z</time></trkpt><trkpt lat="24.311177821363078" lon="120.70082391075633"><ele>198.66666666666669</ele><time>2026-03-22T04:42:43.001Z</time></trkpt><trkpt lat="24.3109955857332" lon="120.70074617421325"><ele>198.0</ele><time>2026-03-22T04:42:44.001Z</time></trkpt><trkpt lat="24.310825170398235" lon="120.70067056862676"><ele>198.0</ele><time>2026-03-22T04:42:45.001Z</time></trkpt><trkpt lat="24.310646865123516" lon="120.70059206455534"><ele>198.0</ele><time>2026-03-22T04:42:46.001Z</time></trkpt><trkpt lat="24.310452324426635" lon="120.70050910711139"><ele>198.0</ele><time>2026-03-22T04:42:47.001Z</time></trkpt><trkpt lat="24.310261484561895" lon="120.70042714127037"><ele>198.0</ele><time>2026-03-22T04:42:48.001Z</time></trkpt><trkpt lat="24.310068898629726" lon="120.7003433428883"><ele>198.0</ele><time>2026-03-22T04:42:49.001Z</time></trkpt><trkpt lat="24.309871691337264" lon="120.70026254713743"><ele>198.0</ele><time>2026-03-22T04:42:50.001Z</time></trkpt><trkpt lat="24.309667668732757" lon="120.70020068460498"><ele>197.66666666666669</ele><time>2026-03-22T04:42:51.001Z</time></trkpt><trkpt lat="24.309467700494693" lon="120.70012130354532"><ele>197.33333333333334</ele><time>2026-03-22T04:42:52.001Z</time></trkpt><trkpt lat="24.30927173158184" lon="120.7000425139333"><ele>197.0</ele><time>2026-03-22T04:42:53.001Z</time></trkpt><trkpt lat="24.3090654461834" lon="120.69995688288242"><ele>197.33333333333334</ele><time>2026-03-22T04:42:54.001Z</time></trkpt><trkpt lat="24.308863814345244" lon="120.6998791970374"><ele>197.66666666666669</ele><time>2026-03-22T04:42:55.001Z</time></trkpt><trkpt lat="24.308659875146944" lon="120.69979384695115"><ele>198.0</ele><time>2026-03-22T04:42:56.001Z</time></trkpt><trkpt lat="24.30845276555669" lon="120.69970695396557"><ele>198.0</ele><time>2026-03-22T04:42:57.001Z</time></trkpt><trkpt lat="24.308237859055048" lon="120.6996219565966"><ele>198.0</ele><time>2026-03-22T04:42:58.001Z</time></trkpt><trkpt lat="24.30801922474635" lon="120.69953577094971"><ele>198.0</ele><time>2026-03-22T04:42:59.001Z</time></trkpt><trkpt lat="24.307799392772523" lon="120.69944864664025"><ele>198.0</ele><time>2026-03-22T04:43:00.001Z</time></trkpt><trkpt lat="24.307577533948844" lon="120.69935938514483"><ele>198.0</ele><time>2026-03-22T04:43:01.001Z</time></trkpt><trkpt lat="24.307351165024794" lon="120.69926912629444"><ele>198.0</ele><time>2026-03-22T04:43:02.001Z</time></trkpt><trkpt lat="24.307122557538186" lon="120.69917817682683"><ele>197.5</ele><time>2026-03-22T04:43:03.001Z</time></trkpt><trkpt lat="24.30689108645455" lon="120.69908742622702"><ele>197.0</ele><time>2026-03-22T04:43:04.001Z</time></trkpt><trkpt lat="24.306658059780357" lon="120.69899833011057"><ele>197.0</ele><time>2026-03-22T04:43:05.001Z</time></trkpt><trkpt lat="24.306423454086467" lon="120.6989094649167"><ele>197.0</ele><time>2026-03-22T04:43:06.001Z</time></trkpt><trkpt lat="24.306185925617527" lon="120.69881847142045"><ele>196.5</ele><time>2026-03-22T04:43:07.001Z</time></trkpt><trkpt lat="24.305946551015204" lon="120.69872916643106"><ele>196.0</ele><time>2026-03-22T04:43:08.001Z</time></trkpt><trkpt lat="24.305707278515357" lon="120.6986396103957"><ele>197.5</ele><time>2026-03-22T04:43:09.001Z</time></trkpt><trkpt lat="24.30546315119587" lon="120.6985548227666"><ele>199.0</ele><time>2026-03-22T04:43:10.001Z</time></trkpt><trkpt lat="24.305219942711215" lon="120.6984715797594"><ele>199.0</ele><time>2026-03-22T04:43:11.001Z</time></trkpt><trkpt lat="24.30497915461068" lon="120.69838805071151"><ele>199.0</ele><time>2026-03-22T04:43:12.001Z</time></trkpt><trkpt lat="24.304737685685733" lon="120.69830410465306"><ele>196.5</ele><time>2026-03-22T04:43:13.001Z</time></trkpt><trkpt lat="24.304497722211984" lon="120.69822234378552"><ele>194.0</ele><time>2026-03-22T04:43:14.001Z</time></trkpt><trkpt lat="24.304256343296498" lon="120.69814233896396"><ele>194.0</ele><time>2026-03-22T04:43:15.001Z</time></trkpt><trkpt lat="24.30401578305749" lon="120.69806402864072"><ele>194.0</ele><time>2026-03-22T04:43:16.002Z</time></trkpt><trkpt lat="24.30377296879685" lon="120.69798490894662"><ele>195.5</ele><time>2026-03-22T04:43:17.002Z</time></trkpt><trkpt lat="24.303529810840185" lon="120.6979063939437"><ele>197.0</ele><time>2026-03-22T04:43:18.002Z</time></trkpt><trkpt lat="24.30328591231316" lon="120.69782961797327"><ele>194.0</ele><time>2026-03-22T04:43:19.002Z</time></trkpt><trkpt lat="24.303038746794957" lon="120.6977533273476"><ele>191.0</ele><time>2026-03-22T04:43:20.002Z</time></trkpt><trkpt lat="24.302789561144337" lon="120.69767762128642"><ele>191.0</ele><time>2026-03-22T04:43:21.002Z</time></trkpt><trkpt lat="24.302538607352798" lon="120.69760258140072"><ele>191.0</ele><time>2026-03-22T04:43:22.002Z</time></trkpt><trkpt lat="24.302286482144737" lon="120.69752636060365"><ele>192.5</ele><time>2026-03-22T04:43:23.002Z</time></trkpt><trkpt lat="24.30203418618788" lon="120.69745011735738"><ele>194.0</ele><time>2026-03-22T04:43:24.002Z</time></trkpt><trkpt lat="24.301780795229554" lon="120.69737196541092"><ele>194.0</ele><time>2026-03-22T04:43:25.002Z</time></trkpt><trkpt lat="24.30152768653167" lon="120.69729877922165"><ele>194.0</ele><time>2026-03-22T04:43:26.002Z</time></trkpt><trkpt lat="24.301272919850234" lon="120.6972239916706"><ele>195.0</ele><time>2026-03-22T04:43:27.002Z</time></trkpt><trkpt lat="24.301015883707336" lon="120.69715290373014"><ele>196.0</ele><time>2026-03-22T04:43:28.002Z</time></trkpt><trkpt lat="24.300758674291473" lon="120.69708175792142"><ele>194.5</ele><time>2026-03-22T04:43:29.002Z</time></trkpt><trkpt lat="24.300501718245943" lon="120.69701025188543"><ele>193.0</ele><time>2026-03-22T04:43:30.002Z</time></trkpt><trkpt lat="24.300243746125236" lon="120.6969399291398"><ele>193.5</ele><time>2026-03-22T04:43:31.002Z</time></trkpt><trkpt lat="24.299986128970513" lon="120.69687236809618"><ele>194.0</ele><time>2026-03-22T04:43:32.002Z</time></trkpt><trkpt lat="24.299728126450564" lon="120.69680744283093"><ele>194.0</ele><time>2026-03-22T04:43:33.002Z</time></trkpt><trkpt lat="24.29947031251432" lon="120.6967403962018"><ele>194.0</ele><time>2026-03-22T04:43:34.002Z</time></trkpt><trkpt lat="24.299212882710425" lon="120.69667305068005"><ele>194.0</ele><time>2026-03-22T04:43:35.002Z</time></trkpt><trkpt lat="24.298955705933857" lon="120.69660766184765"><ele>194.0</ele><time>2026-03-22T04:43:36.002Z</time></trkpt><trkpt lat="24.29869784902773" lon="120.69654555668353"><ele>194.5</ele><time>2026-03-22T04:43:37.002Z</time></trkpt><trkpt lat="24.298440542465645" lon="120.69648587214478"><ele>195.0</ele><time>2026-03-22T04:43:38.002Z</time></trkpt><trkpt lat="24.298182844493443" lon="120.69642576570295"><ele>194.0</ele><time>2026-03-22T04:43:39.002Z</time></trkpt><trkpt lat="24.29792782930948" lon="120.69636564750272"><ele>193.0</ele><time>2026-03-22T04:43:40.002Z</time></trkpt><trkpt lat="24.297670658332283" lon="120.69630736374579"><ele>193.0</ele><time>2026-03-22T04:43:41.002Z</time></trkpt><trkpt lat="24.29741334726545" lon="120.6962496967031"><ele>193.0</ele><time>2026-03-22T04:43:42.002Z</time></trkpt><trkpt lat="24.29715586141723" lon="120.69619398566032"><ele>194.0</ele><time>2026-03-22T04:43:43.002Z</time></trkpt><trkpt lat="24.296900945582394" lon="120.69614033431309"><ele>195.0</ele><time>2026-03-22T04:43:44.002Z</time></trkpt><trkpt lat="24.29664457270582" lon="120.69608561561415"><ele>193.5</ele><time>2026-03-22T04:43:45.002Z</time></trkpt><trkpt lat="24.29639526974489" lon="120.69597743439924"><ele>192.0</ele><time>2026-03-22T04:43:46.002Z</time></trkpt><trkpt lat="24.2961354260597" lon="120.69598097172788"><ele>192.0</ele><time>2026-03-22T04:43:46.999Z</time></trkpt><trkpt lat="24.29562194919144" lon="120.69588401481246"><ele>192.5</ele><time>2026-03-22T04:43:48.999Z</time></trkpt><trkpt lat="24.295393933476852" lon="120.69585593240045"><ele>193.0</ele><time>2026-03-22T04:43:49.999Z</time></trkpt><trkpt lat="24.29510318934598" lon="120.6957870190497"><ele>193.0</ele><time>2026-03-22T04:43:50.999Z</time></trkpt><trkpt lat="24.294843560221157" lon="120.69573902208337"><ele>193.0</ele><time>2026-03-22T04:43:51.999Z</time></trkpt><trkpt lat="24.29458493701437" lon="120.69569385215685"><ele>193.0</ele><time>2026-03-22T04:43:52.999Z</time></trkpt><trkpt lat="24.294325598094463" lon="120.69564978202521"><ele>193.0</ele><time>2026-03-22T04:43:53.999Z</time></trkpt><trkpt lat="24.294066338104493" lon="120.69560580943384"><ele>193.0</ele><time>2026-03-22T04:43:54.999Z</time></trkpt><trkpt lat="24.29380730325918" lon="120.69556219570308"><ele>193.0</ele><time>2026-03-22T04:43:55.999Z</time></trkpt><trkpt lat="24.293547910994324" lon="120.69551700828418"><ele>193.0</ele><time>2026-03-22T04:43:56.999Z</time></trkpt><trkpt lat="24.29328799252395" lon="120.69547436353484"><ele>193.0</ele><time>2026-03-22T04:43:57.999Z</time></trkpt><trkpt lat="24.29302715367868" lon="120.69543623335605"><ele>192.5</ele><time>2026-03-22T04:43:58.999Z</time></trkpt><trkpt lat="24.29276609917823" lon="120.6953985040228"><ele>192.0</ele><time>2026-03-22T04:43:59.999Z</time></trkpt><trkpt lat="24.292504175355834" lon="120.69536139074097"><ele>191.0</ele><time>2026-03-22T04:44:00.999Z</time></trkpt><trkpt lat="24.292242411188735" lon="120.69532406714113"><ele>190.0</ele><time>2026-03-22T04:44:01.999Z</time></trkpt><trkpt lat="24.29171424711232" lon="120.69525173895124"><ele>192.5</ele><time>2026-03-22T04:44:04Z</time></trkpt><trkpt lat="24.291449614818266" lon="120.6952179998174"><ele>195.0</ele><time>2026-03-22T04:44:05Z</time></trkpt><trkpt lat="24.291182718199362" lon="120.6951853636478"><ele>195.5</ele><time>2026-03-22T04:44:06Z</time></trkpt><trkpt lat="24.290915213711123" lon="120.6951538334889"><ele>196.0</ele><time>2026-03-22T04:44:07Z</time></trkpt><trkpt lat="24.290650659922193" lon="120.69512099689358"><ele>194.0</ele><time>2026-03-22T04:44:08Z</time></trkpt><trkpt lat="24.290383809437504" lon="120.6950873148852"><ele>192.0</ele><time>2026-03-22T04:44:09Z</time></trkpt><trkpt lat="24.290114612870966" lon="120.69505740025232"><ele>192.0</ele><time>2026-03-22T04:44:10Z</time></trkpt><trkpt lat="24.289847175801054" lon="120.69502367840386"><ele>192.0</ele><time>2026-03-22T04:44:11Z</time></trkpt><trkpt lat="24.289581191715595" lon="120.69499269436757"><ele>194.0</ele><time>2026-03-22T04:44:12Z</time></trkpt><trkpt lat="24.289314531340267" lon="120.69496096626929"><ele>196.0</ele><time>2026-03-22T04:44:13Z</time></trkpt><trkpt lat="24.289046132860026" lon="120.69492785401076"><ele>192.5</ele><time>2026-03-22T04:44:14Z</time></trkpt><trkpt lat="24.28877787348553" lon="120.69489332104105"><ele>189.0</ele><time>2026-03-22T04:44:15Z</time></trkpt><trkpt lat="24.28851014358372" lon="120.6948574353736"><ele>189.0</ele><time>2026-03-22T04:44:16Z</time></trkpt><trkpt lat="24.288242259237308" lon="120.694821887194"><ele>189.0</ele><time>2026-03-22T04:44:17Z</time></trkpt><trkpt lat="24.28797343699145" lon="120.69478765361077"><ele>183.0</ele><time>2026-03-22T04:44:18Z</time></trkpt><trkpt lat="24.287705113949755" lon="120.69475439039283"><ele>177.0</ele><time>2026-03-22T04:44:19Z</time></trkpt><trkpt lat="24.287435705053888" lon="120.69472076493156"><ele>175.0</ele><time>2026-03-22T04:44:20Z</time></trkpt><trkpt lat="24.287168383573103" lon="120.69469127291389"><ele>173.0</ele><time>2026-03-22T04:44:21Z</time></trkpt><trkpt lat="24.28690124606125" lon="120.6946613325443"><ele>173.0</ele><time>2026-03-22T04:44:22Z</time></trkpt><trkpt lat="24.28663630433534" lon="120.69462935640092"><ele>173.0</ele><time>2026-03-22T04:44:23Z</time></trkpt><trkpt lat="24.286371967969124" lon="120.69459712909014"><ele>174.0</ele><time>2026-03-22T04:44:24Z</time></trkpt><trkpt lat="24.286109679132522" lon="120.69456742844454"><ele>175.0</ele><time>2026-03-22T04:44:25Z</time></trkpt><trkpt lat="24.2858488112016" lon="120.69453380889551"><ele>174.5</ele><time>2026-03-22T04:44:26Z</time></trkpt><trkpt lat="24.28558896109725" lon="120.69450006730787"><ele>174.0</ele><time>2026-03-22T04:44:27Z</time></trkpt><trkpt lat="24.28532938961254" lon="120.69446664722427"><ele>174.0</ele><time>2026-03-22T04:44:28Z</time></trkpt><trkpt lat="24.285068187878604" lon="120.69443599515081"><ele>174.0</ele><time>2026-03-22T04:44:29Z</time></trkpt><trkpt lat="24.284805926158402" lon="120.69440717571821"><ele>172.5</ele><time>2026-03-22T04:44:30Z</time></trkpt><trkpt lat="24.284544154707117" lon="120.69437712463714"><ele>171.0</ele><time>2026-03-22T04:44:31Z</time></trkpt><trkpt lat="24.2842823289557" lon="120.69434744194837"><ele>171.0</ele><time>2026-03-22T04:44:32Z</time></trkpt><trkpt lat="24.28402029381149" lon="120.69431608105182"><ele>171.0</ele><time>2026-03-22T04:44:33Z</time></trkpt><trkpt lat="24.283756471891696" lon="120.69428401901278"><ele>172.0</ele><time>2026-03-22T04:44:34Z</time></trkpt><trkpt lat="24.283492305856175" lon="120.69425082228614"><ele>173.0</ele><time>2026-03-22T04:44:35.001Z</time></trkpt><trkpt lat="24.283227709953437" lon="120.69421769050633"><ele>173.5</ele><time>2026-03-22T04:44:36.001Z</time></trkpt><trkpt lat="24.28296238443965" lon="120.69418544536013"><ele>174.0</ele><time>2026-03-22T04:44:37.001Z</time></trkpt><trkpt lat="24.28269743810665" lon="120.69415207274182"><ele>174.0</ele><time>2026-03-22T04:44:38.001Z</time></trkpt><trkpt lat="24.282431721363995" lon="120.69411989682408"><ele>174.0</ele><time>2026-03-22T04:44:39.001Z</time></trkpt><trkpt lat="24.282167831950886" lon="120.69409005657002"><ele>174.5</ele><time>2026-03-22T04:44:40.001Z</time></trkpt><trkpt lat="24.281904612959732" lon="120.69405687818838"><ele>175.0</ele><time>2026-03-22T04:44:41.001Z</time></trkpt><trkpt lat="24.28163983310881" lon="120.69402348944045"><ele>174.5</ele><time>2026-03-22T04:44:42.001Z</time></trkpt><trkpt lat="24.281375774154412" lon="120.69399267156848"><ele>174.0</ele><time>2026-03-22T04:44:43.001Z</time></trkpt><trkpt lat="24.28111325712453" lon="120.69396308933557"><ele>174.0</ele><time>2026-03-22T04:44:44.001Z</time></trkpt><trkpt lat="24.28084939960583" lon="120.6939353699431"><ele>174.0</ele><time>2026-03-22T04:44:45.001Z</time></trkpt><trkpt lat="24.280585309872517" lon="120.69390310373502"><ele>176.0</ele><time>2026-03-22T04:44:46.001Z</time></trkpt><trkpt lat="24.280322496568814" lon="120.69386842751126"><ele>178.0</ele><time>2026-03-22T04:44:47.001Z</time></trkpt><trkpt lat="24.280060393049517" lon="120.69383631065753"><ele>178.0</ele><time>2026-03-22T04:44:48.001Z</time></trkpt><trkpt lat="24.279798029275494" lon="120.69380701781"><ele>178.0</ele><time>2026-03-22T04:44:49.001Z</time></trkpt><trkpt lat="24.279536824858933" lon="120.69377498636935"><ele>179.0</ele><time>2026-03-22T04:44:50.001Z</time></trkpt><trkpt lat="24.279325257203876" lon="120.69380976838211"><ele>180.0</ele><time>2026-03-22T04:44:51.001Z</time></trkpt><trkpt lat="24.279014634442795" lon="120.6937167184723"><ele>179.5</ele><time>2026-03-22T04:44:52.001Z</time></trkpt><trkpt lat="24.278754252602027" lon="120.69368646793994"><ele>179.0</ele><time>2026-03-22T04:44:53.001Z</time></trkpt><trkpt lat="24.2784947856312" lon="120.69365482480818"><ele>179.0</ele><time>2026-03-22T04:44:54.001Z</time></trkpt><trkpt lat="24.27823648339265" lon="120.69362477710693"><ele>179.0</ele><time>2026-03-22T04:44:55.001Z</time></trkpt><trkpt lat="24.27797587537372" lon="120.69359578532423"><ele>178.5</ele><time>2026-03-22T04:44:56.001Z</time></trkpt><trkpt lat="24.277718347284225" lon="120.6935694940988"><ele>178.0</ele><time>2026-03-22T04:44:57.001Z</time></trkpt><trkpt lat="24.277460454738417" lon="120.69353858935227"><ele>178.0</ele><time>2026-03-22T04:44:58.001Z</time></trkpt><trkpt lat="24.27720216427157" lon="120.69350950772699"><ele>178.0</ele><time>2026-03-22T04:44:59.001Z</time></trkpt><trkpt lat="24.276944497754098" lon="120.69347704973546"><ele>178.0</ele><time>2026-03-22T04:45:00.001Z</time></trkpt><trkpt lat="24.276685387011593" lon="120.69344873712951"><ele>178.0</ele><time>2026-03-22T04:45:01.001Z</time></trkpt><trkpt lat="24.27647136344759" lon="120.69346807940397"><ele>178.0</ele><time>2026-03-22T04:45:02.001Z</time></trkpt><trkpt lat="24.2761704100089" lon="120.6933837793355"><ele>178.0</ele><time>2026-03-22T04:45:03.001Z</time></trkpt><trkpt lat="24.275911243383376" lon="120.69335043019407"><ele>178.0</ele><time>2026-03-22T04:45:04.001Z</time></trkpt><trkpt lat="24.27565092499789" lon="120.69332012022323"><ele>178.0</ele><time>2026-03-22T04:45:05.001Z</time></trkpt><trkpt lat="24.275391344778537" lon="120.69329072540879"><ele>177.5</ele><time>2026-03-22T04:45:06.001Z</time></trkpt><trkpt lat="24.275130523022273" lon="120.6932640479191"><ele>177.0</ele><time>2026-03-22T04:45:07.001Z</time></trkpt><trkpt lat="24.27486922281816" lon="120.69323289682917"><ele>176.0</ele><time>2026-03-22T04:45:08.001Z</time></trkpt><trkpt lat="24.27460828044491" lon="120.69320008532259"><ele>175.0</ele><time>2026-03-22T04:45:09.001Z</time></trkpt><trkpt lat="24.274340868132374" lon="120.69316734497447"><ele>175.0</ele><time>2026-03-22T04:45:10.001Z</time></trkpt><trkpt lat="24.27407660691392" lon="120.69314161913617"><ele>175.0</ele><time>2026-03-22T04:45:11.001Z</time></trkpt><trkpt lat="24.27381160453642" lon="120.69311310432465"><ele>177.5</ele><time>2026-03-22T04:45:12.001Z</time></trkpt><trkpt lat="24.27354504800999" lon="120.69308351544211"><ele>180.0</ele><time>2026-03-22T04:45:13.001Z</time></trkpt><trkpt lat="24.2732795192872" lon="120.69304947012644"><ele>180.0</ele><time>2026-03-22T04:45:14.001Z</time></trkpt><trkpt lat="24.27301389632584" lon="120.69301852893192"><ele>180.0</ele><time>2026-03-22T04:45:15.001Z</time></trkpt><trkpt lat="24.272750980904654" lon="120.69298637772908"><ele>180.0</ele><time>2026-03-22T04:45:16.001Z</time></trkpt><trkpt lat="24.272487577025217" lon="120.69295588261912"><ele>180.0</ele><time>2026-03-22T04:45:17.002Z</time></trkpt><trkpt lat="24.27222291668301" lon="120.69292471221519"><ele>179.0</ele><time>2026-03-22T04:45:18.002Z</time></trkpt><trkpt lat="24.271960671371396" lon="120.69288832531143"><ele>178.0</ele><time>2026-03-22T04:45:19.002Z</time></trkpt><trkpt lat="24.271697447665385" lon="120.69285430214946"><ele>180.5</ele><time>2026-03-22T04:45:20.002Z</time></trkpt><trkpt lat="24.27143675961146" lon="120.69282155182067"><ele>183.0</ele><time>2026-03-22T04:45:21.002Z</time></trkpt><trkpt lat="24.271174219323537" lon="120.6927845192426"><ele>181.5</ele><time>2026-03-22T04:45:22.002Z</time></trkpt><trkpt lat="24.270924010757827" lon="120.69275372242289"><ele>180.0</ele><time>2026-03-22T04:45:23.002Z</time></trkpt><trkpt lat="24.27065850016506" lon="120.6927232255889"><ele>180.0</ele><time>2026-03-22T04:45:24.002Z</time></trkpt><trkpt lat="24.27013819717816" lon="120.69264822269696"><ele>180.0</ele><time>2026-03-22T04:45:26.002Z</time></trkpt><trkpt lat="24.269878208312484" lon="120.69261792748298"><ele>180.0</ele><time>2026-03-22T04:45:27.002Z</time></trkpt><trkpt lat="24.269624845117065" lon="120.69258855184833"><ele>178.5</ele><time>2026-03-22T04:45:28.002Z</time></trkpt><trkpt lat="24.269358435161006" lon="120.69256531883418"><ele>177.0</ele><time>2026-03-22T04:45:29.002Z</time></trkpt><trkpt lat="24.26908931747517" lon="120.69253934728142"><ele>177.0</ele><time>2026-03-22T04:45:30.002Z</time></trkpt><trkpt lat="24.268822126936467" lon="120.69251449780454"><ele>177.0</ele><time>2026-03-22T04:45:31.002Z</time></trkpt><trkpt lat="24.268560038688168" lon="120.69249065996691"><ele>177.0</ele><time>2026-03-22T04:45:32.002Z</time></trkpt><trkpt lat="24.268299881866135" lon="120.69246404675802"><ele>177.0</ele><time>2026-03-22T04:45:33.002Z</time></trkpt><trkpt lat="24.268037932303915" lon="120.6924339276805"><ele>172.0</ele><time>2026-03-22T04:45:34.002Z</time></trkpt><trkpt lat="24.267252727569574" lon="120.69233653888425"><ele>172.0</ele><time>2026-03-22T04:45:37.002Z</time></trkpt><trkpt lat="24.266989480613155" lon="120.69230586615033"><ele>172.0</ele><time>2026-03-22T04:45:38.002Z</time></trkpt><trkpt lat="24.266725502689344" lon="120.69227287762071"><ele>172.0</ele><time>2026-03-22T04:45:39.002Z</time></trkpt><trkpt lat="24.266461883166603" lon="120.69224095774145"><ele>172.0</ele><time>2026-03-22T04:45:40.002Z</time></trkpt><trkpt lat="24.266197614583778" lon="120.69220993067185"><ele>174.5</ele><time>2026-03-22T04:45:41.002Z</time></trkpt><trkpt lat="24.265932911305022" lon="120.6921790793997"><ele>177.0</ele><time>2026-03-22T04:45:42.002Z</time></trkpt><trkpt lat="24.265668196918295" lon="120.69214669481086"><ele>178.0</ele><time>2026-03-22T04:45:43.002Z</time></trkpt><trkpt lat="24.26540339644424" lon="120.69212058170054"><ele>179.0</ele><time>2026-03-22T04:45:44.002Z</time></trkpt><trkpt lat="24.265139912736316" lon="120.69209168785918"><ele>179.0</ele><time>2026-03-22T04:45:45.002Z</time></trkpt><trkpt lat="24.26487248964883" lon="120.69206407567788"><ele>179.0</ele><time>2026-03-22T04:45:46.002Z</time></trkpt><trkpt lat="24.264609077788613" lon="120.69203453701923"><ele>179.0</ele><time>2026-03-22T04:45:47.002Z</time></trkpt><trkpt lat="24.264345595765203" lon="120.69200461794054"><ele>179.0</ele><time>2026-03-22T04:45:48.002Z</time></trkpt><trkpt lat="24.264086862102626" lon="120.6919797585488"><ele>177.5</ele><time>2026-03-22T04:45:49.002Z</time></trkpt><trkpt lat="24.263824656169902" lon="120.69195017063345"><ele>176.0</ele><time>2026-03-22T04:45:50.002Z</time></trkpt><trkpt lat="24.263563559752637" lon="120.69192098905404"><ele>176.0</ele><time>2026-03-22T04:45:51.002Z</time></trkpt><trkpt lat="24.26330346850602" lon="120.69188271480823"><ele>176.0</ele><time>2026-03-22T04:45:52.002Z</time></trkpt><trkpt lat="24.263044002879823" lon="120.69185150192419"><ele>176.0</ele><time>2026-03-22T04:45:52.999Z</time></trkpt><trkpt lat="24.262786682651313" lon="120.69182044048611"><ele>176.0</ele><time>2026-03-22T04:45:53.999Z</time></trkpt><trkpt lat="24.26252810760631" lon="120.69178980884404"><ele>176.0</ele><time>2026-03-22T04:45:54.999Z</time></trkpt><trkpt lat="24.26226735533524" lon="120.69175804511022"><ele>176.0</ele><time>2026-03-22T04:45:55.999Z</time></trkpt><trkpt lat="24.262005569864943" lon="120.69172697545805"><ele>176.0</ele><time>2026-03-22T04:45:56.999Z</time></trkpt><trkpt lat="24.26175138534476" lon="120.69169640460208"><ele>176.0</ele><time>2026-03-22T04:45:57.999Z</time></trkpt><trkpt lat="24.261497254693577" lon="120.69166494101223"><ele>176.5</ele><time>2026-03-22T04:45:58.999Z</time></trkpt><trkpt lat="24.26124219911377" lon="120.69162982243094"><ele>177.0</ele><time>2026-03-22T04:45:59.999Z</time></trkpt><trkpt lat="24.260988959306808" lon="120.6916016591703"><ele>177.0</ele><time>2026-03-22T04:46:00.999Z</time></trkpt><trkpt lat="24.260736234211564" lon="120.69158091603379"><ele>177.0</ele><time>2026-03-22T04:46:01.999Z</time></trkpt><trkpt lat="24.26048251902783" lon="120.69155382783687"><ele>175.5</ele><time>2026-03-22T04:46:02.999Z</time></trkpt><trkpt lat="24.260226763909213" lon="120.69152405923222"><ele>174.0</ele><time>2026-03-22T04:46:03.999Z</time></trkpt><trkpt lat="24.259974563751186" lon="120.69149574461493"><ele>175.5</ele><time>2026-03-22T04:46:04.999Z</time></trkpt><trkpt lat="24.259725898602916" lon="120.69146608780501"><ele>177.0</ele><time>2026-03-22T04:46:05.999Z</time></trkpt><trkpt lat="24.25947961079023" lon="120.69143671126389"><ele>177.0</ele><time>2026-03-22T04:46:06.999Z</time></trkpt><trkpt lat="24.259231686018953" lon="120.69140679095815"><ele>177.0</ele><time>2026-03-22T04:46:07.999Z</time></trkpt><trkpt lat="24.258985203206596" lon="120.69137498886268"><ele>178.0</ele><time>2026-03-22T04:46:08.999Z</time></trkpt><trkpt lat="24.258739889737505" lon="120.6913461556676"><ele>179.0</ele><time>2026-03-22T04:46:09.999Z</time></trkpt><trkpt lat="24.2584950797833" lon="120.69131518625036"><ele>179.0</ele><time>2026-03-22T04:46:11Z</time></trkpt><trkpt lat="24.25825156705866" lon="120.69128662435418"><ele>179.0</ele><time>2026-03-22T04:46:12Z</time></trkpt><trkpt lat="24.258008462058502" lon="120.69125978865267"><ele>181.0</ele><time>2026-03-22T04:46:13Z</time></trkpt><trkpt lat="24.257766230882122" lon="120.69123307675652"><ele>183.0</ele><time>2026-03-22T04:46:14Z</time></trkpt><trkpt lat="24.257526156399905" lon="120.69120588357622"><ele>183.0</ele><time>2026-03-22T04:46:15Z</time></trkpt><trkpt lat="24.25728623696308" lon="120.69117707085324"><ele>183.0</ele><time>2026-03-22T04:46:16Z</time></trkpt><trkpt lat="24.257045743270623" lon="120.69114943670046"><ele>187.0</ele><time>2026-03-22T04:46:17Z</time></trkpt><trkpt lat="24.256804373274544" lon="120.69112050490568"><ele>191.0</ele><time>2026-03-22T04:46:18Z</time></trkpt><trkpt lat="24.25656510372831" lon="120.69109083754809"><ele>187.5</ele><time>2026-03-22T04:46:19Z</time></trkpt><trkpt lat="24.256324931923853" lon="120.69106040797654"><ele>184.0</ele><time>2026-03-22T04:46:20Z</time></trkpt><trkpt lat="24.256085665656766" lon="120.69103140669162"><ele>184.0</ele><time>2026-03-22T04:46:21Z</time></trkpt><trkpt lat="24.255846069979487" lon="120.69100236929111"><ele>184.0</ele><time>2026-03-22T04:46:22Z</time></trkpt><trkpt lat="24.255605554695258" lon="120.6909737708619"><ele>185.0</ele><time>2026-03-22T04:46:23Z</time></trkpt><trkpt lat="24.255364903843866" lon="120.69094611481833"><ele>186.0</ele><time>2026-03-22T04:46:24Z</time></trkpt><trkpt lat="24.255124989279388" lon="120.69091658021722"><ele>186.0</ele><time>2026-03-22T04:46:25Z</time></trkpt><trkpt lat="24.254885016901824" lon="120.69088719372674"><ele>186.0</ele><time>2026-03-22T04:46:26Z</time></trkpt><trkpt lat="24.254644336365942" lon="120.69085914225279"><ele>187.0</ele><time>2026-03-22T04:46:27Z</time></trkpt><trkpt lat="24.25440382086242" lon="120.69082965545674"><ele>188.0</ele><time>2026-03-22T04:46:28Z</time></trkpt><trkpt lat="24.25416315790444" lon="120.6907985550791"><ele>189.0</ele><time>2026-03-22T04:46:29Z</time></trkpt><trkpt lat="24.253922028107937" lon="120.69076917484867"><ele>190.0</ele><time>2026-03-22T04:46:30Z</time></trkpt><trkpt lat="24.25368063292138" lon="120.6907408614455"><ele>190.0</ele><time>2026-03-22T04:46:31Z</time></trkpt><trkpt lat="24.253439966228285" lon="120.69070994488595"><ele>190.0</ele><time>2026-03-22T04:46:32Z</time></trkpt><trkpt lat="24.25319798860013" lon="120.6906792859059"><ele>189.0</ele><time>2026-03-22T04:46:33Z</time></trkpt><trkpt lat="24.25295553781886" lon="120.69064888007769"><ele>188.0</ele><time>2026-03-22T04:46:34Z</time></trkpt><trkpt lat="24.252712742399666" lon="120.69061847410481"><ele>188.0</ele><time>2026-03-22T04:46:35Z</time></trkpt><trkpt lat="24.252470547906228" lon="120.69058835642281"><ele>188.0</ele><time>2026-03-22T04:46:36Z</time></trkpt><trkpt lat="24.252225971567544" lon="120.69055759055674"><ele>186.5</ele><time>2026-03-22T04:46:37Z</time></trkpt><trkpt lat="24.25198167816154" lon="120.69052705238322"><ele>185.0</ele><time>2026-03-22T04:46:38Z</time></trkpt><trkpt lat="24.25173583476996" lon="120.69049779028985"><ele>185.0</ele><time>2026-03-22T04:46:39.001Z</time></trkpt><trkpt lat="24.251489925005497" lon="120.69046640854027"><ele>185.0</ele><time>2026-03-22T04:46:40.001Z</time></trkpt><trkpt lat="24.25124218567374" lon="120.69043531162002"><ele>186.0</ele><time>2026-03-22T04:46:41.001Z</time></trkpt><trkpt lat="24.250993322956873" lon="120.69040508008354"><ele>187.0</ele><time>2026-03-22T04:46:42.001Z</time></trkpt><trkpt lat="24.250743360230143" lon="120.69037579023212"><ele>188.0</ele><time>2026-03-22T04:46:43.001Z</time></trkpt><trkpt lat="24.250492035877546" lon="120.69034672517573"><ele>189.0</ele><time>2026-03-22T04:46:44.001Z</time></trkpt><trkpt lat="24.25023966847599" lon="120.69031705085894"><ele>189.0</ele><time>2026-03-22T04:46:45.001Z</time></trkpt><trkpt lat="24.249985901210742" lon="120.69028615361344"><ele>189.0</ele><time>2026-03-22T04:46:46.001Z</time></trkpt><trkpt lat="24.249732081482893" lon="120.69025508836121"><ele>188.5</ele><time>2026-03-22T04:46:47.001Z</time></trkpt><trkpt lat="24.249479762179128" lon="120.6902246412145"><ele>188.0</ele><time>2026-03-22T04:46:48.001Z</time></trkpt><trkpt lat="24.249228565253397" lon="120.69019531873522"><ele>188.0</ele><time>2026-03-22T04:46:49.001Z</time></trkpt><trkpt lat="24.248978482528692" lon="120.69016621215164"><ele>188.0</ele><time>2026-03-22T04:46:50.001Z</time></trkpt><trkpt lat="24.248729779802876" lon="120.69013568399194"><ele>188.0</ele><time>2026-03-22T04:46:51.001Z</time></trkpt><trkpt lat="24.2484819792631" lon="120.6901068784093"><ele>188.0</ele><time>2026-03-22T04:46:52.001Z</time></trkpt><trkpt lat="24.248235859205494" lon="120.69007591177905"><ele>187.0</ele><time>2026-03-22T04:46:53.001Z</time></trkpt><trkpt lat="24.247991890477014" lon="120.69004354372609"><ele>186.0</ele><time>2026-03-22T04:46:54.001Z</time></trkpt><trkpt lat="24.247752277384045" lon="120.69001168613998"><ele>186.0</ele><time>2026-03-22T04:46:55.001Z</time></trkpt><trkpt lat="24.247515127136023" lon="120.68998185798407"><ele>186.0</ele><time>2026-03-22T04:46:56.001Z</time></trkpt><trkpt lat="24.24727995365699" lon="120.68995215168944"><ele>186.0</ele><time>2026-03-22T04:46:57.001Z</time></trkpt><trkpt lat="24.247049276376167" lon="120.68992319207925"><ele>186.0</ele><time>2026-03-22T04:46:58.001Z</time></trkpt><trkpt lat="24.24682471983825" lon="120.68989596988497"><ele>186.0</ele><time>2026-03-22T04:46:59.001Z</time></trkpt><trkpt lat="24.246641584270424" lon="120.68990396323501"><ele>186.0</ele><time>2026-03-22T04:47:00.001Z</time></trkpt><trkpt lat="24.245774604699196" lon="120.689759048917"><ele>185.66666666666666</ele><time>2026-03-22T04:47:04.001Z</time></trkpt><trkpt lat="24.245562548029113" lon="120.68973139994522"><ele>185.33333333333331</ele><time>2026-03-22T04:47:05.001Z</time></trkpt><trkpt lat="24.24535022331374" lon="120.68970192138849"><ele>185.0</ele><time>2026-03-22T04:47:06.001Z</time></trkpt><trkpt lat="24.245137906297206" lon="120.6896709240996"><ele>185.0</ele><time>2026-03-22T04:47:07.001Z</time></trkpt><trkpt lat="24.244922038083274" lon="120.6896396214615"><ele>185.0</ele><time>2026-03-22T04:47:08.001Z</time></trkpt><trkpt lat="24.24470452680162" lon="120.68960739457958"><ele>185.0</ele><time>2026-03-22T04:47:09.001Z</time></trkpt><trkpt lat="24.24448400095755" lon="120.68957562912479"><ele>183.0</ele><time>2026-03-22T04:47:10.001Z</time></trkpt><trkpt lat="24.244260530796133" lon="120.68954287946502"><ele>181.0</ele><time>2026-03-22T04:47:11.001Z</time></trkpt><trkpt lat="24.244035447304803" lon="120.68951002011828"><ele>180.5</ele><time>2026-03-22T04:47:12.001Z</time></trkpt><trkpt lat="24.24380848503679" lon="120.68947532985348"><ele>180.0</ele><time>2026-03-22T04:47:13.001Z</time></trkpt><trkpt lat="24.24357943929864" lon="120.68943948250447"><ele>181.0</ele><time>2026-03-22T04:47:14.001Z</time></trkpt><trkpt lat="24.24334835483245" lon="120.68940377640124"><ele>182.0</ele><time>2026-03-22T04:47:15.001Z</time></trkpt><trkpt lat="24.243116365106147" lon="120.6893669704021"><ele>182.0</ele><time>2026-03-22T04:47:16.001Z</time></trkpt><trkpt lat="24.2428819686189" lon="120.689329103994"><ele>182.0</ele><time>2026-03-22T04:47:17.001Z</time></trkpt><trkpt lat="24.24264656199544" lon="120.68929228338362"><ele>182.0</ele><time>2026-03-22T04:47:18.002Z</time></trkpt><trkpt lat="24.24240908828975" lon="120.68925409182877"><ele>182.0</ele><time>2026-03-22T04:47:19.002Z</time></trkpt><trkpt lat="24.24217117220747" lon="120.68921416521076"><ele>180.0</ele><time>2026-03-22T04:47:20.002Z</time></trkpt><trkpt lat="24.24193129576221" lon="120.68917565877668"><ele>178.0</ele><time>2026-03-22T04:47:21.002Z</time></trkpt><trkpt lat="24.24169060942962" lon="120.6891354201392"><ele>180.5</ele><time>2026-03-22T04:47:22.002Z</time></trkpt><trkpt lat="24.241451381777175" lon="120.68909355252359"><ele>183.0</ele><time>2026-03-22T04:47:23.002Z</time></trkpt><trkpt lat="24.241214177676255" lon="120.68905166148183"><ele>183.0</ele><time>2026-03-22T04:47:24.002Z</time></trkpt><trkpt lat="24.240980099278964" lon="120.68900702106336"><ele>183.0</ele><time>2026-03-22T04:47:25.002Z</time></trkpt><trkpt lat="24.24074741197177" lon="120.68896324953718"><ele>183.0</ele><time>2026-03-22T04:47:26.002Z</time></trkpt><trkpt lat="24.2405141562343" lon="120.68892087050652"><ele>183.0</ele><time>2026-03-22T04:47:27.002Z</time></trkpt><trkpt lat="24.240280651039615" lon="120.68887727841256"><ele>183.0</ele><time>2026-03-22T04:47:28.002Z</time></trkpt><trkpt lat="24.240045825291272" lon="120.68883307897705"><ele>183.0</ele><time>2026-03-22T04:47:29.002Z</time></trkpt><trkpt lat="24.239832097540052" lon="120.6887767482899"><ele>182.0</ele><time>2026-03-22T04:47:30.002Z</time></trkpt><trkpt lat="24.239337449475965" lon="120.68869098299106"><ele>182.0</ele><time>2026-03-22T04:47:32.002Z</time></trkpt><trkpt lat="24.23910037859648" lon="120.68864233319717"><ele>182.0</ele><time>2026-03-22T04:47:33.002Z</time></trkpt><trkpt lat="24.238863752860514" lon="120.68859422185953"><ele>182.0</ele><time>2026-03-22T04:47:34.002Z</time></trkpt><trkpt lat="24.238629360672633" lon="120.68854522349135"><ele>182.0</ele><time>2026-03-22T04:47:35.002Z</time></trkpt><trkpt lat="24.2383967665706" lon="120.68849397744852"><ele>182.0</ele><time>2026-03-22T04:47:36.002Z</time></trkpt><trkpt lat="24.23816521379951" lon="120.68844209097078"><ele>182.0</ele><time>2026-03-22T04:47:37.002Z</time></trkpt><trkpt lat="24.237934170538797" lon="120.68838945306086"><ele>182.5</ele><time>2026-03-22T04:47:38.002Z</time></trkpt><trkpt lat="24.237701044467308" lon="120.68833578048205"><ele>183.0</ele><time>2026-03-22T04:47:39.002Z</time></trkpt><trkpt lat="24.23746812170349" lon="120.68828317297996"><ele>182.5</ele><time>2026-03-22T04:47:40.002Z</time></trkpt><trkpt lat="24.237236301729343" lon="120.6882302409301"><ele>182.0</ele><time>2026-03-22T04:47:41.002Z</time></trkpt><trkpt lat="24.23700468698238" lon="120.68817492766964"><ele>182.0</ele><time>2026-03-22T04:47:42.002Z</time></trkpt><trkpt lat="24.236773634468758" lon="120.68811805718684"><ele>182.0</ele><time>2026-03-22T04:47:43.002Z</time></trkpt><trkpt lat="24.236543756994326" lon="120.68806017636459"><ele>181.5</ele><time>2026-03-22T04:47:44.002Z</time></trkpt><trkpt lat="24.236314828020824" lon="120.68800304173485"><ele>181.0</ele><time>2026-03-22T04:47:45.002Z</time></trkpt><trkpt lat="24.236085120660956" lon="120.68794497323664"><ele>181.0</ele><time>2026-03-22T04:47:46.002Z</time></trkpt><trkpt lat="24.235855026970437" lon="120.6878851879283"><ele>181.0</ele><time>2026-03-22T04:47:47.002Z</time></trkpt><trkpt lat="24.23562303256741" lon="120.68782254951836"><ele>179.0</ele><time>2026-03-22T04:47:48.002Z</time></trkpt><trkpt lat="24.23539259427884" lon="120.68775738331644"><ele>177.0</ele><time>2026-03-22T04:47:49.002Z</time></trkpt><trkpt lat="24.235160436057964" lon="120.68769099597637"><ele>177.0</ele><time>2026-03-22T04:47:50.002Z</time></trkpt><trkpt lat="24.23492853369331" lon="120.68762381567355"><ele>177.0</ele><time>2026-03-22T04:47:51.002Z</time></trkpt><trkpt lat="24.234697077562025" lon="120.68755730683262"><ele>175.5</ele><time>2026-03-22T04:47:52.002Z</time></trkpt><trkpt lat="24.234465609323316" lon="120.68749104309641"><ele>174.0</ele><time>2026-03-22T04:47:53.002Z</time></trkpt><trkpt lat="24.23423575364831" lon="120.68742390840643"><ele>174.0</ele><time>2026-03-22T04:47:54.002Z</time></trkpt><trkpt lat="24.23400696859039" lon="120.68735492103673"><ele>174.0</ele><time>2026-03-22T04:47:55.002Z</time></trkpt><trkpt lat="24.23377832275399" lon="120.68728201887772"><ele>175.5</ele><time>2026-03-22T04:47:56.002Z</time></trkpt><trkpt lat="24.233551306249197" lon="120.68720928571081"><ele>177.0</ele><time>2026-03-22T04:47:57.002Z</time></trkpt><trkpt lat="24.23332325134337" lon="120.68713214870567"><ele>176.5</ele><time>2026-03-22T04:47:58.002Z</time></trkpt><trkpt lat="24.233094283343082" lon="120.68704846789097"><ele>176.0</ele><time>2026-03-22T04:47:58.999Z</time></trkpt><trkpt lat="24.232860705993716" lon="120.68696188380741"><ele>173.5</ele><time>2026-03-22T04:47:59.999Z</time></trkpt><trkpt lat="24.232621578670553" lon="120.68687631416157"><ele>171.0</ele><time>2026-03-22T04:48:00.999Z</time></trkpt><trkpt lat="24.232377193857435" lon="120.68678973230938"><ele>170.0</ele><time>2026-03-22T04:48:01.999Z</time></trkpt><trkpt lat="24.232128936803296" lon="120.68669939718274"><ele>169.0</ele><time>2026-03-22T04:48:02.999Z</time></trkpt><trkpt lat="24.231876522481542" lon="120.68660649196285"><ele>169.0</ele><time>2026-03-22T04:48:03.999Z</time></trkpt><trkpt lat="24.23161898562618" lon="120.68651140870492"><ele>169.0</ele><time>2026-03-22T04:48:04.999Z</time></trkpt><trkpt lat="24.2313583452893" lon="120.68641326505373"><ele>169.0</ele><time>2026-03-22T04:48:05.999Z</time></trkpt><trkpt lat="24.231098712850276" lon="120.68631268535043"><ele>169.0</ele><time>2026-03-22T04:48:06.999Z</time></trkpt><trkpt lat="24.230839441881017" lon="120.68621234180885"><ele>170.0</ele><time>2026-03-22T04:48:07.999Z</time></trkpt><trkpt lat="24.230581503335642" lon="120.68611072764067"><ele>171.0</ele><time>2026-03-22T04:48:08.999Z</time></trkpt><trkpt lat="24.230324506809723" lon="120.68600887184274"><ele>171.0</ele><time>2026-03-22T04:48:09.999Z</time></trkpt><trkpt lat="24.230068096113794" lon="120.68590689897012"><ele>171.0</ele><time>2026-03-22T04:48:10.999Z</time></trkpt><trkpt lat="24.22981257119461" lon="120.68580685865192"><ele>171.5</ele><time>2026-03-22T04:48:11.999Z</time></trkpt><trkpt lat="24.22955808593233" lon="120.68570650243456"><ele>172.0</ele><time>2026-03-22T04:48:12.999Z</time></trkpt><trkpt lat="24.229305205211716" lon="120.68560314186576"><ele>172.0</ele><time>2026-03-22T04:48:13.999Z</time></trkpt><trkpt lat="24.229054636853814" lon="120.68549609338775"><ele>172.0</ele><time>2026-03-22T04:48:14.999Z</time></trkpt><trkpt lat="24.22880712714083" lon="120.6853838963448"><ele>171.0</ele><time>2026-03-22T04:48:16Z</time></trkpt><trkpt lat="24.22856163826942" lon="120.6852694145136"><ele>170.0</ele><time>2026-03-22T04:48:17Z</time></trkpt><trkpt lat="24.22831776346634" lon="120.68515450007327"><ele>171.0</ele><time>2026-03-22T04:48:18Z</time></trkpt><trkpt lat="24.228074944234077" lon="120.68503768685935"><ele>172.0</ele><time>2026-03-22T04:48:19Z</time></trkpt><trkpt lat="24.227837093713628" lon="120.68491960915763"><ele>172.0</ele><time>2026-03-22T04:48:20Z</time></trkpt><trkpt lat="24.22760567151847" lon="120.68480303073235"><ele>172.0</ele><time>2026-03-22T04:48:21Z</time></trkpt><trkpt lat="24.227381857896194" lon="120.68468926577417"><ele>171.0</ele><time>2026-03-22T04:48:22Z</time></trkpt><trkpt lat="24.2271653227196" lon="120.68457638250186"><ele>170.0</ele><time>2026-03-22T04:48:23Z</time></trkpt><trkpt lat="24.226949774432686" lon="120.68446231141077"><ele>168.0</ele><time>2026-03-22T04:48:24Z</time></trkpt><trkpt lat="24.226736213966348" lon="120.68434710855573"><ele>166.0</ele><time>2026-03-22T04:48:25Z</time></trkpt><trkpt lat="24.22652477978798" lon="120.68423015299948"><ele>165.0</ele><time>2026-03-22T04:48:26Z</time></trkpt><trkpt lat="24.22631355509967" lon="120.68411164498069"><ele>164.0</ele><time>2026-03-22T04:48:27Z</time></trkpt><trkpt lat="24.226100631982323" lon="120.68399094229808"><ele>164.0</ele><time>2026-03-22T04:48:28Z</time></trkpt><trkpt lat="24.225885745485957" lon="120.68386729109777"><ele>164.0</ele><time>2026-03-22T04:48:29Z</time></trkpt><trkpt lat="24.225669346665242" lon="120.68374079649013"><ele>165.0</ele><time>2026-03-22T04:48:30Z</time></trkpt><trkpt lat="24.225455326543152" lon="120.68361335864037"><ele>166.0</ele><time>2026-03-22T04:48:31Z</time></trkpt><trkpt lat="24.225242896849203" lon="120.68348427162019"><ele>166.0</ele><time>2026-03-22T04:48:32Z</time></trkpt><trkpt lat="24.2250316358355" lon="120.68335492031103"><ele>166.0</ele><time>2026-03-22T04:48:33Z</time></trkpt><trkpt lat="24.22482039820537" lon="120.68322319717207"><ele>166.0</ele><time>2026-03-22T04:48:34Z</time></trkpt><trkpt lat="24.2246077138662" lon="120.6830908994363"><ele>166.0</ele><time>2026-03-22T04:48:35Z</time></trkpt><trkpt lat="24.224395903112114" lon="120.68295482440224"><ele>166.0</ele><time>2026-03-22T04:48:36Z</time></trkpt><trkpt lat="24.224185265439186" lon="120.6828155564455"><ele>166.0</ele><time>2026-03-22T04:48:37Z</time></trkpt><trkpt lat="24.2239754697344" lon="120.68267672266354"><ele>165.0</ele><time>2026-03-22T04:48:38Z</time></trkpt><trkpt lat="24.223768461352908" lon="120.68253663898099"><ele>164.0</ele><time>2026-03-22T04:48:39Z</time></trkpt><trkpt lat="24.223561982969354" lon="120.68239604375334"><ele>164.0</ele><time>2026-03-22T04:48:40Z</time></trkpt><trkpt lat="24.22335682012697" lon="120.68225373197258"><ele>164.0</ele><time>2026-03-22T04:48:41Z</time></trkpt><trkpt lat="24.22315412582235" lon="120.6821099807581"><ele>164.0</ele><time>2026-03-22T04:48:42Z</time></trkpt><trkpt lat="24.222953588085478" lon="120.68196429924073"><ele>164.0</ele><time>2026-03-22T04:48:43Z</time></trkpt><trkpt lat="24.2227530037198" lon="120.68182037300173"><ele>161.5</ele><time>2026-03-22T04:48:44Z</time></trkpt><trkpt lat="24.22255344566104" lon="120.68167374579694"><ele>159.0</ele><time>2026-03-22T04:48:45.001Z</time></trkpt><trkpt lat="24.222353056727304" lon="120.68152346213421"><ele>158.5</ele><time>2026-03-22T04:48:46.001Z</time></trkpt><trkpt lat="24.22215341188625" lon="120.68137100791172"><ele>158.0</ele><time>2026-03-22T04:48:47.001Z</time></trkpt><trkpt lat="24.221955396180793" lon="120.68121955667026"><ele>157.5</ele><time>2026-03-22T04:48:48.001Z</time></trkpt><trkpt lat="24.221759466230512" lon="120.68106639599976"><ele>157.0</ele><time>2026-03-22T04:48:49.001Z</time></trkpt><trkpt lat="24.22156447188876" lon="120.6809108339519"><ele>157.0</ele><time>2026-03-22T04:48:50.001Z</time></trkpt><trkpt lat="24.221371635408467" lon="120.68075387038795"><ele>157.0</ele><time>2026-03-22T04:48:51.001Z</time></trkpt><trkpt lat="24.221179546805196" lon="120.68059751922344"><ele>157.0</ele><time>2026-03-22T04:48:52.001Z</time></trkpt><trkpt lat="24.22098909742672" lon="120.68044077007904"><ele>157.0</ele><time>2026-03-22T04:48:53.001Z</time></trkpt><trkpt lat="24.220799107127025" lon="120.68028390705211"><ele>156.5</ele><time>2026-03-22T04:48:54.001Z</time></trkpt><trkpt lat="24.22061078141254" lon="120.68012576385902"><ele>156.0</ele><time>2026-03-22T04:48:55.001Z</time></trkpt><trkpt lat="24.22042451902357" lon="120.6799658123922"><ele>156.0</ele><time>2026-03-22T04:48:56.001Z</time></trkpt><trkpt lat="24.220240236277046" lon="120.67980471694663"><ele>156.0</ele><time>2026-03-22T04:48:57.001Z</time></trkpt><trkpt lat="24.22005706670351" lon="120.67964265536513"><ele>156.0</ele><time>2026-03-22T04:48:58.001Z</time></trkpt><trkpt lat="24.219875509915276" lon="120.67947895205255"><ele>156.0</ele><time>2026-03-22T04:48:59.001Z</time></trkpt><trkpt lat="24.219695477107578" lon="120.67931525275169"><ele>157.5</ele><time>2026-03-22T04:49:00.001Z</time></trkpt><trkpt lat="24.219516493459768" lon="120.679151043519"><ele>159.0</ele><time>2026-03-22T04:49:01.001Z</time></trkpt><trkpt lat="24.219338900051472" lon="120.67898529637982"><ele>159.0</ele><time>2026-03-22T04:49:02.001Z</time></trkpt><trkpt lat="24.21916308609453" lon="120.67881828525681"><ele>159.0</ele><time>2026-03-22T04:49:03.001Z</time></trkpt><trkpt lat="24.218988815049233" lon="120.67865030935549"><ele>157.5</ele><time>2026-03-22T04:49:04.001Z</time></trkpt><trkpt lat="24.21881413063648" lon="120.67848030764675"><ele>156.0</ele><time>2026-03-22T04:49:05.001Z</time></trkpt><trkpt lat="24.218639130717456" lon="120.67830723763993"><ele>156.0</ele><time>2026-03-22T04:49:06.001Z</time></trkpt><trkpt lat="24.218462786118984" lon="120.67813082661246"><ele>156.0</ele><time>2026-03-22T04:49:07.001Z</time></trkpt><trkpt lat="24.21828540603211" lon="120.67795086406838"><ele>155.5</ele><time>2026-03-22T04:49:08.001Z</time></trkpt><trkpt lat="24.218107061925206" lon="120.67776836179182"><ele>155.0</ele><time>2026-03-22T04:49:09.001Z</time></trkpt><trkpt lat="24.217928915305233" lon="120.67758424356826"><ele>155.0</ele><time>2026-03-22T04:49:10.001Z</time></trkpt><trkpt lat="24.21775263188045" lon="120.67739946832677"><ele>155.0</ele><time>2026-03-22T04:49:11.001Z</time></trkpt><trkpt lat="24.21757700132004" lon="120.6772138414867"><ele>155.0</ele><time>2026-03-22T04:49:12.001Z</time></trkpt><trkpt lat="24.217402748982426" lon="120.67702851548727"><ele>155.0</ele><time>2026-03-22T04:49:13.001Z</time></trkpt><trkpt lat="24.217230338943104" lon="120.67684141979048"><ele>154.0</ele><time>2026-03-22T04:49:14.001Z</time></trkpt><trkpt lat="24.21706171886038" lon="120.67665239626362"><ele>153.0</ele><time>2026-03-22T04:49:15.001Z</time></trkpt><trkpt lat="24.216898641592675" lon="120.6764676656801"><ele>153.0</ele><time>2026-03-22T04:49:16.001Z</time></trkpt><trkpt lat="24.216740816510562" lon="120.6762878500463"><ele>153.0</ele><time>2026-03-22T04:49:17.001Z</time></trkpt><trkpt lat="24.21658691915617" lon="120.6761116896221"><ele>151.33333333333334</ele><time>2026-03-22T04:49:18.001Z</time></trkpt><trkpt lat="24.21643615083666" lon="120.67593731560598"><ele>149.66666666666669</ele><time>2026-03-22T04:49:19.001Z</time></trkpt><trkpt lat="24.216288358176506" lon="120.67576365614453"><ele>148.0</ele><time>2026-03-22T04:49:20.001Z</time></trkpt><trkpt lat="24.21613855984038" lon="120.6755862644251"><ele>148.0</ele><time>2026-03-22T04:49:21.001Z</time></trkpt><trkpt lat="24.215989102830655" lon="120.67540817805273"><ele>148.0</ele><time>2026-03-22T04:49:22.002Z</time></trkpt><trkpt lat="24.21583950233781" lon="120.67522708752999"><ele>148.0</ele><time>2026-03-22T04:49:23.002Z</time></trkpt><trkpt lat="24.2156936214744" lon="120.67503329881937"><ele>150.5</ele><time>2026-03-22T04:49:24.002Z</time></trkpt><trkpt lat="24.215546470306" lon="120.67483746931666"><ele>153.0</ele><time>2026-03-22T04:49:25.002Z</time></trkpt><trkpt lat="24.21539936793595" lon="120.67463837164323"><ele>151.5</ele><time>2026-03-22T04:49:26.002Z</time></trkpt><trkpt lat="24.21524960008306" lon="120.67443758854344"><ele>150.0</ele><time>2026-03-22T04:49:27.002Z</time></trkpt><trkpt lat="24.21509831796986" lon="120.67423523794196"><ele>150.0</ele><time>2026-03-22T04:49:28.002Z</time></trkpt><trkpt lat="24.214947807493896" lon="120.67403369135933"><ele>150.0</ele><time>2026-03-22T04:49:29.002Z</time></trkpt><trkpt lat="24.214797388183964" lon="120.67383289362444"><ele>150.0</ele><time>2026-03-22T04:49:30.002Z</time></trkpt><trkpt lat="24.214644928891413" lon="120.67363376399551"><ele>150.0</ele><time>2026-03-22T04:49:31.002Z</time></trkpt><trkpt lat="24.21449121917471" lon="120.67343363594948"><ele>148.5</ele><time>2026-03-22T04:49:32.002Z</time></trkpt><trkpt lat="24.214335946624" lon="120.67323220947154"><ele>147.0</ele><time>2026-03-22T04:49:33.002Z</time></trkpt><trkpt lat="24.2141789334326" lon="120.67302705507974"><ele>147.0</ele><time>2026-03-22T04:49:34.002Z</time></trkpt><trkpt lat="24.214026923242333" lon="120.67281269491461"><ele>147.0</ele><time>2026-03-22T04:49:35.002Z</time></trkpt><trkpt lat="24.21387863517838" lon="120.67258909312835"><ele>146.5</ele><time>2026-03-22T04:49:36.002Z</time></trkpt><trkpt lat="24.213731385606884" lon="120.67235675535126"><ele>146.0</ele><time>2026-03-22T04:49:37.002Z</time></trkpt><trkpt lat="24.21358043205961" lon="120.67212077940262"><ele>144.5</ele><time>2026-03-22T04:49:38.002Z</time></trkpt><trkpt lat="24.213425681183022" lon="120.6718825044298"><ele>143.0</ele><time>2026-03-22T04:49:39.002Z</time></trkpt><trkpt lat="24.21326993870233" lon="120.6716376176415"><ele>146.5</ele><time>2026-03-22T04:49:40.002Z</time></trkpt><trkpt lat="24.213112264120436" lon="120.67139281799247"><ele>150.0</ele><time>2026-03-22T04:49:41.002Z</time></trkpt><trkpt lat="24.212957644400465" lon="120.6711423605522"><ele>147.5</ele><time>2026-03-22T04:49:42.002Z</time></trkpt><trkpt lat="24.212801057471157" lon="120.67088997120021"><ele>145.0</ele><time>2026-03-22T04:49:43.002Z</time></trkpt><trkpt lat="24.21264437198015" lon="120.67063598694573"><ele>145.0</ele><time>2026-03-22T04:49:44.002Z</time></trkpt><trkpt lat="24.212489805102678" lon="120.67037726437164"><ele>145.0</ele><time>2026-03-22T04:49:45.002Z</time></trkpt><trkpt lat="24.212335220403794" lon="120.67011705724421"><ele>143.5</ele><time>2026-03-22T04:49:46.002Z</time></trkpt><trkpt lat="24.21218355212289" lon="120.66985342989894"><ele>142.0</ele><time>2026-03-22T04:49:47.002Z</time></trkpt><trkpt lat="24.212035155982335" lon="120.66959028588626"><ele>141.0</ele><time>2026-03-22T04:49:48.002Z</time></trkpt><trkpt lat="24.21188596063035" lon="120.66932951950844"><ele>140.0</ele><time>2026-03-22T04:49:49.002Z</time></trkpt><trkpt lat="24.211738919479732" lon="120.6690680658823"><ele>140.0</ele><time>2026-03-22T04:49:50.002Z</time></trkpt><trkpt lat="24.211590998558826" lon="120.66880959426064"><ele>140.0</ele><time>2026-03-22T04:49:51.002Z</time></trkpt><trkpt lat="24.211443276809394" lon="120.66855377843743"><ele>139.0</ele><time>2026-03-22T04:49:52.002Z</time></trkpt><trkpt lat="24.211296754599292" lon="120.66829871083478"><ele>138.0</ele><time>2026-03-22T04:49:53.002Z</time></trkpt><trkpt lat="24.211156024650748" lon="120.66804153417937"><ele>138.0</ele><time>2026-03-22T04:49:54.002Z</time></trkpt><trkpt lat="24.211018874411277" lon="120.6677817861877"><ele>138.0</ele><time>2026-03-22T04:49:55.002Z</time></trkpt><trkpt lat="24.21088236821582" lon="120.66752005272919"><ele>137.0</ele><time>2026-03-22T04:49:56.002Z</time></trkpt><trkpt lat="24.21074526843065" lon="120.66725753158308"><ele>136.0</ele><time>2026-03-22T04:49:57.002Z</time></trkpt><trkpt lat="24.210610659520885" lon="120.66699311289922"><ele>137.0</ele><time>2026-03-22T04:49:58.002Z</time></trkpt><trkpt lat="24.210477790229625" lon="120.6667285809728"><ele>138.0</ele><time>2026-03-22T04:49:59.002Z</time></trkpt><trkpt lat="24.210347167486116" lon="120.66646461254864"><ele>138.0</ele><time>2026-03-22T04:50:00.003Z</time></trkpt><trkpt lat="24.210218034234266" lon="120.66620074342843"><ele>138.0</ele><time>2026-03-22T04:50:01.003Z</time></trkpt><trkpt lat="24.21009021090008" lon="120.66593697743386"><ele>138.5</ele><time>2026-03-22T04:50:02.003Z</time></trkpt><trkpt lat="24.20996299133428" lon="120.66567414116417"><ele>139.0</ele><time>2026-03-22T04:50:03.003Z</time></trkpt><trkpt lat="24.20983481971911" lon="120.66541099254755"><ele>137.5</ele><time>2026-03-22T04:50:04.003Z</time></trkpt><trkpt lat="24.20970753697629" lon="120.66514575246808"><ele>136.0</ele><time>2026-03-22T04:50:05Z</time></trkpt><trkpt lat="24.209582722173582" lon="120.66487967291215"><ele>136.0</ele><time>2026-03-22T04:50:06Z</time></trkpt><trkpt lat="24.20945850724327" lon="120.66461418356309"><ele>136.0</ele><time>2026-03-22T04:50:07Z</time></trkpt><trkpt lat="24.2093328179888" lon="120.66434787628761"><ele>136.0</ele><time>2026-03-22T04:50:08Z</time></trkpt><trkpt lat="24.209207157724492" lon="120.66407967475716"><ele>136.0</ele><time>2026-03-22T04:50:09Z</time></trkpt><trkpt lat="24.209082317482803" lon="120.66380946898235"><ele>136.5</ele><time>2026-03-22T04:50:10Z</time></trkpt><trkpt lat="24.20895760460514" lon="120.66353765013949"><ele>137.0</ele><time>2026-03-22T04:50:11Z</time></trkpt><trkpt lat="24.208833665255604" lon="120.66326498173109"><ele>137.0</ele><time>2026-03-22T04:50:12Z</time></trkpt><trkpt lat="24.208709759341758" lon="120.66299217055004"><ele>137.0</ele><time>2026-03-22T04:50:13Z</time></trkpt><trkpt lat="24.20858516819446" lon="120.66271951299436"><ele>136.0</ele><time>2026-03-22T04:50:14Z</time></trkpt><trkpt lat="24.20846238109775" lon="120.66244471079511"><ele>135.0</ele><time>2026-03-22T04:50:15Z</time></trkpt><trkpt lat="24.208342922341817" lon="120.66216594329174"><ele>134.0</ele><time>2026-03-22T04:50:16Z</time></trkpt><trkpt lat="24.208225884622347" lon="120.66188633534153"><ele>133.0</ele><time>2026-03-22T04:50:17Z</time></trkpt><trkpt lat="24.208109435677514" lon="120.66160788781308"><ele>133.0</ele><time>2026-03-22T04:50:18Z</time></trkpt><trkpt lat="24.20799406653681" lon="120.66133182821498"><ele>133.0</ele><time>2026-03-22T04:50:19Z</time></trkpt><trkpt lat="24.20788056066225" lon="120.66105651809369"><ele>131.5</ele><time>2026-03-22T04:50:20Z</time></trkpt><trkpt lat="24.207763792268246" lon="120.66078530387017"><ele>130.0</ele><time>2026-03-22T04:50:21Z</time></trkpt><trkpt lat="24.207646395311855" lon="120.66051715899125"><ele>129.5</ele><time>2026-03-22T04:50:22Z</time></trkpt><trkpt lat="24.207526088631646" lon="120.66025064033155"><ele>129.0</ele><time>2026-03-22T04:50:23Z</time></trkpt><trkpt lat="24.207403270397673" lon="120.65998541332353"><ele>128.5</ele><time>2026-03-22T04:50:24Z</time></trkpt><trkpt lat="24.207280764345327" lon="120.65972118242946"><ele>128.0</ele><time>2026-03-22T04:50:25Z</time></trkpt><trkpt lat="24.20716152744107" lon="120.65945797711545"><ele>126.5</ele><time>2026-03-22T04:50:26Z</time></trkpt><trkpt lat="24.207041478536393" lon="120.65919730373086"><ele>125.0</ele><time>2026-03-22T04:50:27Z</time></trkpt><trkpt lat="24.206922821657635" lon="120.65893762887487"><ele>125.0</ele><time>2026-03-22T04:50:28Z</time></trkpt><trkpt lat="24.206806476423335" lon="120.65867728953245"><ele>125.0</ele><time>2026-03-22T04:50:29Z</time></trkpt><trkpt lat="24.206690117608087" lon="120.6584196843634"><ele>127.5</ele><time>2026-03-22T04:50:30Z</time></trkpt><trkpt lat="24.20657331331425" lon="120.65816417296975"><ele>130.0</ele><time>2026-03-22T04:50:31Z</time></trkpt><trkpt lat="24.206454678947523" lon="120.65791101807571"><ele>130.0</ele><time>2026-03-22T04:50:32Z</time></trkpt><trkpt lat="24.206335522355392" lon="120.65766107813886"><ele>130.0</ele><time>2026-03-22T04:50:33Z</time></trkpt><trkpt lat="24.20621893843826" lon="120.65741159318058"><ele>130.0</ele><time>2026-03-22T04:50:34Z</time></trkpt><trkpt lat="24.206102075280405" lon="120.65716244314162"><ele>130.0</ele><time>2026-03-22T04:50:35Z</time></trkpt><trkpt lat="24.205984925012196" lon="120.65691353705647"><ele>130.0</ele><time>2026-03-22T04:50:36Z</time></trkpt><trkpt lat="24.20586592386765" lon="120.65666582816796"><ele>130.0</ele><time>2026-03-22T04:50:37Z</time></trkpt><trkpt lat="24.205743172931108" lon="120.65642077695571"><ele>130.0</ele><time>2026-03-22T04:50:38Z</time></trkpt><trkpt lat="24.205622034476917" lon="120.65617653084277"><ele>130.0</ele><time>2026-03-22T04:50:39Z</time></trkpt><trkpt lat="24.205506015945815" lon="120.6559289366302"><ele>130.0</ele><time>2026-03-22T04:50:40Z</time></trkpt><trkpt lat="24.205387096706982" lon="120.65568227284528"><ele>130.0</ele><time>2026-03-22T04:50:41.001Z</time></trkpt><trkpt lat="24.205267043898104" lon="120.6554366495389"><ele>130.5</ele><time>2026-03-22T04:50:42.001Z</time></trkpt><trkpt lat="24.205143705829034" lon="120.65519201681234"><ele>131.0</ele><time>2026-03-22T04:50:43.001Z</time></trkpt><trkpt lat="24.205018062534204" lon="120.6549484634163"><ele>131.0</ele><time>2026-03-22T04:50:44.001Z</time></trkpt><trkpt lat="24.204892657076055" lon="120.6547042226485"><ele>131.0</ele><time>2026-03-22T04:50:45.001Z</time></trkpt><trkpt lat="24.204767726442853" lon="120.65446211159394"><ele>128.5</ele><time>2026-03-22T04:50:46.001Z</time></trkpt><trkpt lat="24.204642395804022" lon="120.65422108946132"><ele>126.0</ele><time>2026-03-22T04:50:47.001Z</time></trkpt><trkpt lat="24.20451618657573" lon="120.65398079111472"><ele>126.0</ele><time>2026-03-22T04:50:48.001Z</time></trkpt><trkpt lat="24.20438785005029" lon="120.65374303760616"><ele>126.0</ele><time>2026-03-22T04:50:49.001Z</time></trkpt><trkpt lat="24.204260947637565" lon="120.65350577874095"><ele>126.0</ele><time>2026-03-22T04:50:50.001Z</time></trkpt><trkpt lat="24.20413481691036" lon="120.65326805447906"><ele>126.0</ele><time>2026-03-22T04:50:51.001Z</time></trkpt><trkpt lat="24.2040066769111" lon="120.65303311500436"><ele>125.5</ele><time>2026-03-22T04:50:52.001Z</time></trkpt><trkpt lat="24.203878961159226" lon="120.65279836898719"><ele>125.0</ele><time>2026-03-22T04:50:53.001Z</time></trkpt><trkpt lat="24.203749072114622" lon="120.65256645393906"><ele>125.0</ele><time>2026-03-22T04:50:54.001Z</time></trkpt><trkpt lat="24.20361899509649" lon="120.65233593320629"><ele>125.0</ele><time>2026-03-22T04:50:55.001Z</time></trkpt><trkpt lat="24.203487739092107" lon="120.65210667390214"><ele>123.5</ele><time>2026-03-22T04:50:56.001Z</time></trkpt><trkpt lat="24.203356317458002" lon="120.65187745692225"><ele>122.0</ele><time>2026-03-22T04:50:57.001Z</time></trkpt><trkpt lat="24.203224897470562" lon="120.65164908584015"><ele>120.0</ele><time>2026-03-22T04:50:58.001Z</time></trkpt><trkpt lat="24.203090820649173" lon="120.65142314678405"><ele>118.0</ele><time>2026-03-22T04:50:59.001Z</time></trkpt><trkpt lat="24.20295679719681" lon="120.6512017410774"><ele>120.5</ele><time>2026-03-22T04:51:00.001Z</time></trkpt><trkpt lat="24.202825956683064" lon="120.65098675970545"><ele>123.0</ele><time>2026-03-22T04:51:01.001Z</time></trkpt><trkpt lat="24.202694954646237" lon="120.6507755192357"><ele>123.0</ele><time>2026-03-22T04:51:02.001Z</time></trkpt><trkpt lat="24.20256444190249" lon="120.6505676967071"><ele>123.0</ele><time>2026-03-22T04:51:03.001Z</time></trkpt><trkpt lat="24.202434786207288" lon="120.65036223956653"><ele>121.0</ele><time>2026-03-22T04:51:04.001Z</time></trkpt><trkpt lat="24.20230641549737" lon="120.65015686208078"><ele>119.0</ele><time>2026-03-22T04:51:05.001Z</time></trkpt><trkpt lat="24.20217349645029" lon="120.64995391867251"><ele>119.0</ele><time>2026-03-22T04:51:06.001Z</time></trkpt><trkpt lat="24.202041986478424" lon="120.64975083563994"><ele>119.0</ele><time>2026-03-22T04:51:07.001Z</time></trkpt><trkpt lat="24.201907660529756" lon="120.64954645076897"><ele>118.5</ele><time>2026-03-22T04:51:08.001Z</time></trkpt><trkpt lat="24.20177202624788" lon="120.64934094334492"><ele>118.0</ele><time>2026-03-22T04:51:09.001Z</time></trkpt><trkpt lat="24.20163361938793" lon="120.64913671503105"><ele>117.5</ele><time>2026-03-22T04:51:10.001Z</time></trkpt><trkpt lat="24.201493303384165" lon="120.64893521734568"><ele>117.0</ele><time>2026-03-22T04:51:11.001Z</time></trkpt><trkpt lat="24.201350353245637" lon="120.64873612866714"><ele>115.5</ele><time>2026-03-22T04:51:12.001Z</time></trkpt><trkpt lat="24.201203787357986" lon="120.6485395681496"><ele>114.0</ele><time>2026-03-22T04:51:13.001Z</time></trkpt><trkpt lat="24.2010550895342" lon="120.64834139780908"><ele>114.0</ele><time>2026-03-22T04:51:14.001Z</time></trkpt><trkpt lat="24.20090816384448" lon="120.64813905818494"><ele>114.0</ele><time>2026-03-22T04:51:15.001Z</time></trkpt><trkpt lat="24.200761640191846" lon="120.64793373942929"><ele>113.5</ele><time>2026-03-22T04:51:16.001Z</time></trkpt><trkpt lat="24.20061406174861" lon="120.64772852446214"><ele>113.0</ele><time>2026-03-22T04:51:17.001Z</time></trkpt><trkpt lat="24.200462980586927" lon="120.6475238196722"><ele>113.0</ele><time>2026-03-22T04:51:18.002Z</time></trkpt><trkpt lat="24.200309034323865" lon="120.647318358996"><ele>113.0</ele><time>2026-03-22T04:51:19.002Z</time></trkpt><trkpt lat="24.200153207703433" lon="120.64711750186011"><ele>113.0</ele><time>2026-03-22T04:51:20.002Z</time></trkpt><trkpt lat="24.200000254890316" lon="120.64691741532802"><ele>113.0</ele><time>2026-03-22T04:51:21.002Z</time></trkpt><trkpt lat="24.19984476305371" lon="120.64671720371292"><ele>113.0</ele><time>2026-03-22T04:51:22.002Z</time></trkpt><trkpt lat="24.19968814843647" lon="120.64651741328771"><ele>113.0</ele><time>2026-03-22T04:51:23.002Z</time></trkpt><trkpt lat="24.199530294331034" lon="120.6463204426511"><ele>113.0</ele><time>2026-03-22T04:51:24.002Z</time></trkpt><trkpt lat="24.199371515664925" lon="120.64612442705693"><ele>113.0</ele><time>2026-03-22T04:51:25.002Z</time></trkpt><trkpt lat="24.19921226230474" lon="120.64593054222235"><ele>113.0</ele><time>2026-03-22T04:51:26.002Z</time></trkpt><trkpt lat="24.19905196724282" lon="120.64574043931201"><ele>113.0</ele><time>2026-03-22T04:51:27.002Z</time></trkpt><trkpt lat="24.198890365242214" lon="120.64555157404057"><ele>113.0</ele><time>2026-03-22T04:51:28.002Z</time></trkpt><trkpt lat="24.19872872749653" lon="120.64536441076217"><ele>113.0</ele><time>2026-03-22T04:51:29.002Z</time></trkpt><trkpt lat="24.198567027216058" lon="120.6451792311503"><ele>113.0</ele><time>2026-03-22T04:51:30.002Z</time></trkpt><trkpt lat="24.198404591922447" lon="120.64499643336451"><ele>113.0</ele><time>2026-03-22T04:51:31.002Z</time></trkpt><trkpt lat="24.198242482993784" lon="120.64481482838438"><ele>111.5</ele><time>2026-03-22T04:51:32.002Z</time></trkpt><trkpt lat="24.198080885064975" lon="120.6446354666172"><ele>110.0</ele><time>2026-03-22T04:51:33.002Z</time></trkpt><trkpt lat="24.197917785774713" lon="120.64445589337703"><ele>110.0</ele><time>2026-03-22T04:51:34.002Z</time></trkpt><trkpt lat="24.197752370468" lon="120.64427625129531"><ele>110.0</ele><time>2026-03-22T04:51:35.002Z</time></trkpt><trkpt lat="24.197582536810753" lon="120.64409829693165"><ele>110.0</ele><time>2026-03-22T04:51:36.002Z</time></trkpt><trkpt lat="24.19741159662713" lon="120.64391868727176"><ele>110.0</ele><time>2026-03-22T04:51:37.002Z</time></trkpt><trkpt lat="24.197235611850502" lon="120.64374155112971"><ele>110.5</ele><time>2026-03-22T04:51:38.002Z</time></trkpt><trkpt lat="24.19705909040132" lon="120.6435621766392"><ele>111.0</ele><time>2026-03-22T04:51:39.002Z</time></trkpt><trkpt lat="24.19687998097887" lon="120.64338282779573"><ele>111.0</ele><time>2026-03-22T04:51:40.002Z</time></trkpt><trkpt lat="24.196697980325244" lon="120.64320436252606"><ele>111.0</ele><time>2026-03-22T04:51:41.002Z</time></trkpt><trkpt lat="24.19651397875915" lon="120.64302610848647"><ele>109.5</ele><time>2026-03-22T04:51:42.002Z</time></trkpt><trkpt lat="24.196327664022228" lon="120.64284841822123"><ele>108.0</ele><time>2026-03-22T04:51:43.002Z</time></trkpt><trkpt lat="24.19613914546424" lon="120.64267046796758"><ele>108.0</ele><time>2026-03-22T04:51:44.002Z</time></trkpt><trkpt lat="24.19594767936513" lon="120.64249240875321"><ele>108.0</ele><time>2026-03-22T04:51:45.002Z</time></trkpt><trkpt lat="24.195753760812625" lon="120.64231526839316"><ele>107.5</ele><time>2026-03-22T04:51:46.002Z</time></trkpt><trkpt lat="24.195557378715776" lon="120.6421395429229"><ele>107.0</ele><time>2026-03-22T04:51:47.002Z</time></trkpt><trkpt lat="24.195358546636655" lon="120.64196414996367"><ele>107.0</ele><time>2026-03-22T04:51:48.002Z</time></trkpt><trkpt lat="24.195156977122597" lon="120.64178849429855"><ele>107.0</ele><time>2026-03-22T04:51:49.002Z</time></trkpt><trkpt lat="24.194952634768846" lon="120.64161383525658"><ele>105.5</ele><time>2026-03-22T04:51:50.002Z</time></trkpt><trkpt lat="24.194745865290255" lon="120.64143961455211"><ele>104.0</ele><time>2026-03-22T04:51:51.002Z</time></trkpt><trkpt lat="24.19453699417351" lon="120.64126569100188"><ele>105.0</ele><time>2026-03-22T04:51:52.002Z</time></trkpt><trkpt lat="24.194326318983066" lon="120.64109373730768"><ele>106.0</ele><time>2026-03-22T04:51:53.002Z</time></trkpt><trkpt lat="24.19411532889121" lon="120.6409230424548"><ele>106.0</ele><time>2026-03-22T04:51:54.002Z</time></trkpt><trkpt lat="24.19390457551194" lon="120.64075470825264"><ele>106.0</ele><time>2026-03-22T04:51:55.002Z</time></trkpt><trkpt lat="24.19369259506669" lon="120.64058747744699"><ele>106.0</ele><time>2026-03-22T04:51:56.003Z</time></trkpt><trkpt lat="24.193478835275634" lon="120.64042447855307"><ele>106.0</ele><time>2026-03-22T04:51:57.003Z</time></trkpt><trkpt lat="24.193264911642096" lon="120.64026261144501"><ele>105.0</ele><time>2026-03-22T04:51:58.003Z</time></trkpt><trkpt lat="24.193049264943564" lon="120.64010215755478"><ele>104.0</ele><time>2026-03-22T04:51:59.003Z</time></trkpt><trkpt lat="24.192832570165503" lon="120.63993944503727"><ele>104.0</ele><time>2026-03-22T04:52:00.003Z</time></trkpt><trkpt lat="24.192614827320536" lon="120.63977291312966"><ele>104.0</ele><time>2026-03-22T04:52:01.003Z</time></trkpt><trkpt lat="24.192394716460512" lon="120.63960606748353"><ele>103.0</ele><time>2026-03-22T04:52:02.003Z</time></trkpt><trkpt lat="24.192170888965578" lon="120.63944036616378"><ele>102.0</ele><time>2026-03-22T04:52:03.003Z</time></trkpt><trkpt lat="24.191941743433354" lon="120.63928001014999"><ele>102.0</ele><time>2026-03-22T04:52:04.003Z</time></trkpt><trkpt lat="24.191708326642424" lon="120.6391244974173"><ele>102.0</ele><time>2026-03-22T04:52:05.003Z</time></trkpt><trkpt lat="24.191471384057483" lon="120.6389700390405"><ele>101.5</ele><time>2026-03-22T04:52:06.003Z</time></trkpt><trkpt lat="24.1912325833975" lon="120.63881728031681"><ele>101.0</ele><time>2026-03-22T04:52:07.003Z</time></trkpt><trkpt lat="24.190992988565448" lon="120.63866697961124"><ele>100.5</ele><time>2026-03-22T04:52:08.003Z</time></trkpt><trkpt lat="24.190753251331838" lon="120.63851835727989"><ele>100.0</ele><time>2026-03-22T04:52:09.003Z</time></trkpt><trkpt lat="24.190512740954524" lon="120.63837052710949"><ele>100.0</ele><time>2026-03-22T04:52:10.003Z</time></trkpt><trkpt lat="24.190270644850965" lon="120.63822454974412"><ele>100.0</ele><time>2026-03-22T04:52:11.002Z</time></trkpt><trkpt lat="24.19002616383761" lon="120.63808161858903"><ele>100.0</ele><time>2026-03-22T04:52:12.002Z</time></trkpt><trkpt lat="24.18977913719494" lon="120.6379415284537"><ele>100.0</ele><time>2026-03-22T04:52:13.002Z</time></trkpt><trkpt lat="24.189531350179205" lon="120.63780344832317"><ele>98.5</ele><time>2026-03-22T04:52:14.002Z</time></trkpt><trkpt lat="24.189283745794718" lon="120.63766721650032"><ele>97.0</ele><time>2026-03-22T04:52:15.002Z</time></trkpt><trkpt lat="24.18903596258754" lon="120.63753517078831"><ele>97.5</ele><time>2026-03-22T04:52:16.002Z</time></trkpt><trkpt lat="24.18878994305336" lon="120.63740620649527"><ele>98.0</ele><time>2026-03-22T04:52:17.002Z</time></trkpt><trkpt lat="24.18854369437914" lon="120.6372802075556"><ele>98.0</ele><time>2026-03-22T04:52:18.002Z</time></trkpt><trkpt lat="24.188305249657606" lon="120.6371559569507"><ele>98.0</ele><time>2026-03-22T04:52:19.002Z</time></trkpt><trkpt lat="24.18807167161384" lon="120.63703622632973"><ele>97.5</ele><time>2026-03-22T04:52:20.002Z</time></trkpt><trkpt lat="24.18783763916565" lon="120.63692319984203"><ele>97.0</ele><time>2026-03-22T04:52:21.002Z</time></trkpt><trkpt lat="24.187600266710874" lon="120.63681535329498"><ele>97.0</ele><time>2026-03-22T04:52:22.002Z</time></trkpt><trkpt lat="24.187360854712807" lon="120.63671029173558"><ele>97.0</ele><time>2026-03-22T04:52:23.002Z</time></trkpt><trkpt lat="24.187119484905175" lon="120.63660696046476"><ele>96.5</ele><time>2026-03-22T04:52:24.002Z</time></trkpt><trkpt lat="24.186875329206135" lon="120.63650256481645"><ele>96.0</ele><time>2026-03-22T04:52:25.002Z</time></trkpt><trkpt lat="24.186629709325775" lon="120.63639620256103"><ele>96.5</ele><time>2026-03-22T04:52:26.002Z</time></trkpt><trkpt lat="24.186381043307637" lon="120.63628970541808"><ele>97.0</ele><time>2026-03-22T04:52:27.002Z</time></trkpt><trkpt lat="24.186128897828713" lon="120.63618366180107"><ele>97.0</ele><time>2026-03-22T04:52:28.002Z</time></trkpt><trkpt lat="24.185874361557985" lon="120.63607720960317"><ele>97.0</ele><time>2026-03-22T04:52:29.002Z</time></trkpt><trkpt lat="24.185616539252322" lon="120.63597209932084"><ele>97.0</ele><time>2026-03-22T04:52:30.002Z</time></trkpt><trkpt lat="24.185356170757576" lon="120.63586821000963"><ele>97.0</ele><time>2026-03-22T04:52:31.002Z</time></trkpt><trkpt lat="24.185094115912968" lon="120.63576401420718"><ele>99.0</ele><time>2026-03-22T04:52:32.002Z</time></trkpt><trkpt lat="24.18482895595481" lon="120.63565863557618"><ele>101.0</ele><time>2026-03-22T04:52:33.002Z</time></trkpt><trkpt lat="24.184561023134616" lon="120.63555532142873"><ele>101.0</ele><time>2026-03-22T04:52:34.002Z</time></trkpt><trkpt lat="24.184292219838557" lon="120.6354519555954"><ele>101.0</ele><time>2026-03-22T04:52:35.002Z</time></trkpt><trkpt lat="24.184024055536636" lon="120.6353506161903"><ele>98.0</ele><time>2026-03-22T04:52:36.002Z</time></trkpt><trkpt lat="24.18375567793765" lon="120.63524771368361"><ele>95.0</ele><time>2026-03-22T04:52:37.002Z</time></trkpt><trkpt lat="24.183487011538816" lon="120.63514536166896"><ele>95.0</ele><time>2026-03-22T04:52:38.002Z</time></trkpt><trkpt lat="24.18321763837075" lon="120.63504305489106"><ele>95.0</ele><time>2026-03-22T04:52:39.002Z</time></trkpt><trkpt lat="24.18294839358527" lon="120.63493966997765"><ele>96.5</ele><time>2026-03-22T04:52:40.002Z</time></trkpt><trkpt lat="24.18267809957104" lon="120.63483595319474"><ele>98.0</ele><time>2026-03-22T04:52:41.002Z</time></trkpt><trkpt lat="24.182408137342907" lon="120.634730537649"><ele>95.5</ele><time>2026-03-22T04:52:42.002Z</time></trkpt><trkpt lat="24.182136619597237" lon="120.63462611734288"><ele>93.0</ele><time>2026-03-22T04:52:43.002Z</time></trkpt><trkpt lat="24.18186613570966" lon="120.63451970700994"><ele>93.5</ele><time>2026-03-22T04:52:44.002Z</time></trkpt><trkpt lat="24.181595386217154" lon="120.63441071780329"><ele>94.0</ele><time>2026-03-22T04:52:45.002Z</time></trkpt><trkpt lat="24.181327252526284" lon="120.63429937751498"><ele>94.0</ele><time>2026-03-22T04:52:46.002Z</time></trkpt><trkpt lat="24.181062079379966" lon="120.63418327713026"><ele>94.0</ele><time>2026-03-22T04:52:47.002Z</time></trkpt><trkpt lat="24.180800880391473" lon="120.63406313771294"><ele>93.0</ele><time>2026-03-22T04:52:48.002Z</time></trkpt><trkpt lat="24.180539388325737" lon="120.63394348631782"><ele>92.0</ele><time>2026-03-22T04:52:49.002Z</time></trkpt><trkpt lat="24.18027904926159" lon="120.63382805142736"><ele>92.0</ele><time>2026-03-22T04:52:50.002Z</time></trkpt><trkpt lat="24.180020784743654" lon="120.63371003235285"><ele>92.0</ele><time>2026-03-22T04:52:51.002Z</time></trkpt><trkpt lat="24.17976332347596" lon="120.63359139228714"><ele>91.5</ele><time>2026-03-22T04:52:52.002Z</time></trkpt><trkpt lat="24.17950877130087" lon="120.6334719861854"><ele>91.0</ele><time>2026-03-22T04:52:53.002Z</time></trkpt><trkpt lat="24.179257036906307" lon="120.63334937717154"><ele>91.0</ele><time>2026-03-22T04:52:54.002Z</time></trkpt><trkpt lat="24.17900664801703" lon="120.63322436445839"><ele>91.0</ele><time>2026-03-22T04:52:55.002Z</time></trkpt><trkpt lat="24.178755990322703" lon="120.63309634120286"><ele>91.0</ele><time>2026-03-22T04:52:56.002Z</time></trkpt><trkpt lat="24.178504001153772" lon="120.63296921139703"><ele>91.0</ele><time>2026-03-22T04:52:57.002Z</time></trkpt><trkpt lat="24.178251923656866" lon="120.63283513455114"><ele>90.5</ele><time>2026-03-22T04:52:58.002Z</time></trkpt><trkpt lat="24.178000635809408" lon="120.63269695069907"><ele>90.0</ele><time>2026-03-22T04:52:59.002Z</time></trkpt><trkpt lat="24.17774915349879" lon="120.63255437259508"><ele>90.0</ele><time>2026-03-22T04:53:00.002Z</time></trkpt><trkpt lat="24.177498691848744" lon="120.63240644655477"><ele>90.0</ele><time>2026-03-22T04:53:01.002Z</time></trkpt><trkpt lat="24.177249257372882" lon="120.63225407255523"><ele>90.0</ele><time>2026-03-22T04:53:02.002Z</time></trkpt><trkpt lat="24.176999929394242" lon="120.63209761631522"><ele>90.0</ele><time>2026-03-22T04:53:03.002Z</time></trkpt><trkpt lat="24.176752995402175" lon="120.63193727959336"><ele>91.5</ele><time>2026-03-22T04:53:04.002Z</time></trkpt><trkpt lat="24.176509965399898" lon="120.6317771694341"><ele>93.0</ele><time>2026-03-22T04:53:05.002Z</time></trkpt><trkpt lat="24.176267261647222" lon="120.63161355384487"><ele>93.0</ele><time>2026-03-22T04:53:06.002Z</time></trkpt><trkpt lat="24.176026997108707" lon="120.63144590202796"><ele>93.0</ele><time>2026-03-22T04:53:07.002Z</time></trkpt><trkpt lat="24.175791000801308" lon="120.63127570561738"><ele>90.5</ele><time>2026-03-22T04:53:08.002Z</time></trkpt><trkpt lat="24.175557462856197" lon="120.63110280476047"><ele>88.0</ele><time>2026-03-22T04:53:09.002Z</time></trkpt><trkpt lat="24.175327573287436" lon="120.63092863131288"><ele>88.0</ele><time>2026-03-22T04:53:10.002Z</time></trkpt><trkpt lat="24.175100843496327" lon="120.63075154049099"><ele>88.0</ele><time>2026-03-22T04:53:11.002Z</time></trkpt><trkpt lat="24.174877254881046" lon="120.63057213769623"><ele>87.5</ele><time>2026-03-22T04:53:12.002Z</time></trkpt><trkpt lat="24.17465660869316" lon="120.63039147462229"><ele>87.0</ele><time>2026-03-22T04:53:13.002Z</time></trkpt><trkpt lat="24.174440561784472" lon="120.63020755326292"><ele>87.0</ele><time>2026-03-22T04:53:14.002Z</time></trkpt><trkpt lat="24.17422712531482" lon="120.63002125897695"><ele>87.0</ele><time>2026-03-22T04:53:15.002Z</time></trkpt><trkpt lat="24.174015044156505" lon="120.62983336523669"><ele>86.5</ele><time>2026-03-22T04:53:16.002Z</time></trkpt><trkpt lat="24.173803388510446" lon="120.6296439943222"><ele>86.0</ele><time>2026-03-22T04:53:17.002Z</time></trkpt><trkpt lat="24.17359365519722" lon="120.62945444624133"><ele>85.0</ele><time>2026-03-22T04:53:18.002Z</time></trkpt><trkpt lat="24.173386464495355" lon="120.62926333400739"><ele>84.0</ele><time>2026-03-22T04:53:19.002Z</time></trkpt><trkpt lat="24.173181591980544" lon="120.62907013173019"><ele>84.0</ele><time>2026-03-22T04:53:20.002Z</time></trkpt><trkpt lat="24.172979435824157" lon="120.62887484515096"><ele>84.0</ele><time>2026-03-22T04:53:21.002Z</time></trkpt><trkpt lat="24.172781550300645" lon="120.62868074241408"><ele>84.0</ele><time>2026-03-22T04:53:22.003Z</time></trkpt><trkpt lat="24.17258864959552" lon="120.62849148465182"><ele>84.0</ele><time>2026-03-22T04:53:23.003Z</time></trkpt><trkpt lat="24.172401259105406" lon="120.62830778697396"><ele>83.5</ele><time>2026-03-22T04:53:24.003Z</time></trkpt><trkpt lat="24.17221525489902" lon="120.62812702595012"><ele>83.0</ele><time>2026-03-22T04:53:25.003Z</time></trkpt><trkpt lat="24.1720300167066" lon="120.6279461296351"><ele>81.5</ele><time>2026-03-22T04:53:26.003Z</time></trkpt><trkpt lat="24.171846420229443" lon="120.62776609647783"><ele>80.0</ele><time>2026-03-22T04:53:27.003Z</time></trkpt><trkpt lat="24.17166488225496" lon="120.6275870346395"><ele>80.5</ele><time>2026-03-22T04:53:28.003Z</time></trkpt><trkpt lat="24.171483675788025" lon="120.62740688754533"><ele>81.0</ele><time>2026-03-22T04:53:29.003Z</time></trkpt><trkpt lat="24.171300839646555" lon="120.62722690764438"><ele>81.0</ele><time>2026-03-22T04:53:30.003Z</time></trkpt><trkpt lat="24.171119074462116" lon="120.6270493661875"><ele>81.0</ele><time>2026-03-22T04:53:31.003Z</time></trkpt><trkpt lat="24.170938832780635" lon="120.62687402403073"><ele>81.5</ele><time>2026-03-22T04:53:32.003Z</time></trkpt><trkpt lat="24.170763092099197" lon="120.62670358632387"><ele>82.0</ele><time>2026-03-22T04:53:33.003Z</time></trkpt><trkpt lat="24.170579237203714" lon="120.62655429687926"><ele>82.0</ele><time>2026-03-22T04:53:34.003Z</time></trkpt><trkpt lat="24.170423377854636" lon="120.62638100205514"><ele>82.0</ele><time>2026-03-22T04:53:35.003Z</time></trkpt><trkpt lat="24.170254080186538" lon="120.62622150025169"><ele>82.0</ele><time>2026-03-22T04:53:36.003Z</time></trkpt><trkpt lat="24.17008231697637" lon="120.62606255142536"><ele>80.0</ele><time>2026-03-22T04:53:37.003Z</time></trkpt><trkpt lat="24.169908326968365" lon="120.62590385929"><ele>78.0</ele><time>2026-03-22T04:53:38.003Z</time></trkpt><trkpt lat="24.169732211433555" lon="120.62574505348556"><ele>78.0</ele><time>2026-03-22T04:53:39.003Z</time></trkpt><trkpt lat="24.16955339155076" lon="120.62558523650956"><ele>78.0</ele><time>2026-03-22T04:53:40.003Z</time></trkpt><trkpt lat="24.16937242371146" lon="120.62542580504959"><ele>79.5</ele><time>2026-03-22T04:53:41.003Z</time></trkpt><trkpt lat="24.169187792017954" lon="120.62526627026398"><ele>81.0</ele><time>2026-03-22T04:53:42.003Z</time></trkpt><trkpt lat="24.168999489318445" lon="120.62510917658187"><ele>81.0</ele><time>2026-03-22T04:53:43.003Z</time></trkpt><trkpt lat="24.16880793379401" lon="120.62495144384361"><ele>81.0</ele><time>2026-03-22T04:53:44.003Z</time></trkpt><trkpt lat="24.16861372146227" lon="120.62479560092643"><ele>81.0</ele><time>2026-03-22T04:53:45.003Z</time></trkpt><trkpt lat="24.168417277166245" lon="120.62463981007153"><ele>81.0</ele><time>2026-03-22T04:53:46.003Z</time></trkpt><trkpt lat="24.168216749457613" lon="120.62448527941125"><ele>80.5</ele><time>2026-03-22T04:53:47.003Z</time></trkpt><trkpt lat="24.168013574216285" lon="120.62433218597505"><ele>80.0</ele><time>2026-03-22T04:53:48.003Z</time></trkpt><trkpt lat="24.167806533449916" lon="120.62417964213428"><ele>80.0</ele><time>2026-03-22T04:53:49.003Z</time></trkpt><trkpt lat="24.16759609596075" lon="120.62402909550609"><ele>80.0</ele><time>2026-03-22T04:53:50.003Z</time></trkpt><trkpt lat="24.16738377652535" lon="120.62388341885111"><ele>79.5</ele><time>2026-03-22T04:53:51.003Z</time></trkpt><trkpt lat="24.16716989407213" lon="120.62374137626317"><ele>79.0</ele><time>2026-03-22T04:53:52.003Z</time></trkpt><trkpt lat="24.166953725094054" lon="120.62359875869967"><ele>78.5</ele><time>2026-03-22T04:53:53.003Z</time></trkpt><trkpt lat="24.166735997638817" lon="120.6234557688207"><ele>78.0</ele><time>2026-03-22T04:53:54.003Z</time></trkpt><trkpt lat="24.166514533741555" lon="120.62331555668908"><ele>78.0</ele><time>2026-03-22T04:53:55.003Z</time></trkpt><trkpt lat="24.16628950838645" lon="120.62317749413603"><ele>78.0</ele><time>2026-03-22T04:53:56.003Z</time></trkpt><trkpt lat="24.166061397559712" lon="120.62304053658646"><ele>78.0</ele><time>2026-03-22T04:53:57.003Z</time></trkpt><trkpt lat="24.16583136946736" lon="120.62290693896279"><ele>78.0</ele><time>2026-03-22T04:53:58.003Z</time></trkpt><trkpt lat="24.165602842164212" lon="120.6227779612986"><ele>74.5</ele><time>2026-03-22T04:53:59.003Z</time></trkpt><trkpt lat="24.165371574129264" lon="120.62264909073099"><ele>71.0</ele><time>2026-03-22T04:54:00.003Z</time></trkpt><trkpt lat="24.165140440894387" lon="120.62252397736627"><ele>71.0</ele><time>2026-03-22T04:54:01.003Z</time></trkpt><trkpt lat="24.16490857194761" lon="120.6224027978916"><ele>71.0</ele><time>2026-03-22T04:54:02.003Z</time></trkpt><trkpt lat="24.16467627710708" lon="120.62228562241287"><ele>70.0</ele><time>2026-03-22T04:54:03.003Z</time></trkpt><trkpt lat="24.164443347595377" lon="120.62217176421662"><ele>69.0</ele><time>2026-03-22T04:54:04.004Z</time></trkpt><trkpt lat="24.164212370873045" lon="120.62206134254038"><ele>69.0</ele><time>2026-03-22T04:54:05.004Z</time></trkpt><trkpt lat="24.163982930644906" lon="120.62195425686971"><ele>69.0</ele><time>2026-03-22T04:54:06.004Z</time></trkpt><trkpt lat="24.16375721814555" lon="120.6218524615268"><ele>69.0</ele><time>2026-03-22T04:54:07.004Z</time></trkpt><trkpt lat="24.16353504826653" lon="120.62175189918348"><ele>69.0</ele><time>2026-03-22T04:54:08.004Z</time></trkpt><trkpt lat="24.16331392505982" lon="120.62164809980906"><ele>70.5</ele><time>2026-03-22T04:54:09.004Z</time></trkpt><trkpt lat="24.163095149378712" lon="120.62154181881054"><ele>72.0</ele><time>2026-03-22T04:54:10.004Z</time></trkpt><trkpt lat="24.16287130898493" lon="120.62144600680831"><ele>72.0</ele><time>2026-03-22T04:54:11.004Z</time></trkpt><trkpt lat="24.162643259209297" lon="120.62135987174022"><ele>72.0</ele><time>2026-03-22T04:54:12.004Z</time></trkpt><trkpt lat="24.162412626583" lon="120.62127354556559"><ele>71.5</ele><time>2026-03-22T04:54:13.004Z</time></trkpt><trkpt lat="24.162182523051264" lon="120.62119323653891"><ele>71.0</ele><time>2026-03-22T04:54:14.004Z</time></trkpt><trkpt lat="24.16195192163811" lon="120.6211136836637"><ele>71.0</ele><time>2026-03-22T04:54:15.004Z</time></trkpt><trkpt lat="24.161719522185855" lon="120.6210351040507"><ele>71.0</ele><time>2026-03-22T04:54:16.004Z</time></trkpt><trkpt lat="24.161485048825813" lon="120.62096035920257"><ele>69.5</ele><time>2026-03-22T04:54:17.003Z</time></trkpt><trkpt lat="24.161247495763366" lon="120.62089078314676"><ele>68.0</ele><time>2026-03-22T04:54:18.003Z</time></trkpt><trkpt lat="24.16100791136294" lon="120.62082278128361"><ele>68.0</ele><time>2026-03-22T04:54:19.003Z</time></trkpt><trkpt lat="24.160770983587064" lon="120.62075885159481"><ele>68.0</ele><time>2026-03-22T04:54:20.003Z</time></trkpt><trkpt lat="24.160535136282448" lon="120.62069605545314"><ele>66.5</ele><time>2026-03-22T04:54:21.003Z</time></trkpt><trkpt lat="24.160299347434073" lon="120.62063564677696"><ele>65.0</ele><time>2026-03-22T04:54:22.003Z</time></trkpt><trkpt lat="24.16006507249246" lon="120.62057671907269"><ele>67.0</ele><time>2026-03-22T04:54:23.003Z</time></trkpt><trkpt lat="24.159832713832603" lon="120.62052134897824"><ele>69.0</ele><time>2026-03-22T04:54:24.003Z</time></trkpt><trkpt lat="24.159601206344067" lon="120.62047065105362"><ele>69.0</ele><time>2026-03-22T04:54:25.003Z</time></trkpt><trkpt lat="24.15937122175778" lon="120.62042343502527"><ele>69.0</ele><time>2026-03-22T04:54:26.003Z</time></trkpt><trkpt lat="24.159143379366704" lon="120.62037783990588"><ele>69.0</ele><time>2026-03-22T04:54:27.003Z</time></trkpt><trkpt lat="24.158917315223015" lon="120.62033399173117"><ele>69.0</ele><time>2026-03-22T04:54:28.003Z</time></trkpt><trkpt lat="24.15869326934187" lon="120.62028908208917"><ele>69.0</ele><time>2026-03-22T04:54:29.003Z</time></trkpt><trkpt lat="24.1584715785056" lon="120.62024557427958"><ele>69.0</ele><time>2026-03-22T04:54:30.003Z</time></trkpt><trkpt lat="24.15825117433681" lon="120.62020316307968"><ele>69.0</ele><time>2026-03-22T04:54:31.003Z</time></trkpt><trkpt lat="24.15803211374307" lon="120.62016667883377"><ele>67.66666666666667</ele><time>2026-03-22T04:54:32.003Z</time></trkpt><trkpt lat="24.1578138283745" lon="120.62013524618708"><ele>66.33333333333334</ele><time>2026-03-22T04:54:33.003Z</time></trkpt><trkpt lat="24.157597258327684" lon="120.62010295798923"><ele>65.0</ele><time>2026-03-22T04:54:34.002Z</time></trkpt><trkpt lat="24.157381139860505" lon="120.6200709730189"><ele>65.66666666666667</ele><time>2026-03-22T04:54:35.002Z</time></trkpt><trkpt lat="24.157167364099077" lon="120.6200364648875"><ele>66.33333333333333</ele><time>2026-03-22T04:54:36.002Z</time></trkpt><trkpt lat="24.15695449683131" lon="120.61999848656185"><ele>67.0</ele><time>2026-03-22T04:54:37.002Z</time></trkpt><trkpt lat="24.156745091525362" lon="120.61995754407234"><ele>67.0</ele><time>2026-03-22T04:54:38.002Z</time></trkpt><trkpt lat="24.15653843760935" lon="120.61991316472603"><ele>67.0</ele><time>2026-03-22T04:54:39.002Z</time></trkpt><trkpt lat="24.15633574092422" lon="120.61986585826465"><ele>67.0</ele><time>2026-03-22T04:54:40.002Z</time></trkpt><trkpt lat="24.156135245228796" lon="120.61981956304332"><ele>65.66666666666666</ele><time>2026-03-22T04:54:41.002Z</time></trkpt><trkpt lat="24.155937971185594" lon="120.61977195591366"><ele>64.33333333333333</ele><time>2026-03-22T04:54:42.002Z</time></trkpt><trkpt lat="24.155746715311423" lon="120.61972001817838"><ele>63.0</ele><time>2026-03-22T04:54:43.002Z</time></trkpt><trkpt lat="24.15556377565375" lon="120.61966126098132"><ele>63.0</ele><time>2026-03-22T04:54:44.002Z</time></trkpt><trkpt lat="24.155397835135105" lon="120.61959012390022"><ele>63.0</ele><time>2026-03-22T04:54:45.002Z</time></trkpt><trkpt lat="24.155253198118846" lon="120.61950646545507"><ele>63.0</ele><time>2026-03-22T04:54:46.002Z</time></trkpt><trkpt lat="24.155128226634424" lon="120.61941045583953"><ele>63.0</ele><time>2026-03-22T04:54:47.002Z</time></trkpt><trkpt lat="24.15501574869277" lon="120.61929671015753"><ele>63.0</ele><time>2026-03-22T04:54:48.002Z</time></trkpt><trkpt lat="24.154918585081983" lon="120.61916448033953"><ele>63.0</ele><time>2026-03-22T04:54:49.002Z</time></trkpt><trkpt lat="24.154829931041668" lon="120.61901701039683"><ele>63.66666666666667</ele><time>2026-03-22T04:54:50.002Z</time></trkpt><trkpt lat="24.154743785706543" lon="120.61886455859404"><ele>64.33333333333334</ele><time>2026-03-22T04:54:51.002Z</time></trkpt><trkpt lat="24.154651989702923" lon="120.61871317125897"><ele>65.0</ele><time>2026-03-22T04:54:52.002Z</time></trkpt><trkpt lat="24.154551710213536" lon="120.6185651790119"><ele>65.0</ele><time>2026-03-22T04:54:53.002Z</time></trkpt><trkpt lat="24.154439155362137" lon="120.61842693489332"><ele>65.0</ele><time>2026-03-22T04:54:54.002Z</time></trkpt><trkpt lat="24.154317199585833" lon="120.61830065583457"><ele>65.0</ele><time>2026-03-22T04:54:55.002Z</time></trkpt><trkpt lat="24.154199490089617" lon="120.61818944728394"><ele>65.0</ele><time>2026-03-22T04:54:56.002Z</time></trkpt><trkpt lat="24.154091880218093" lon="120.61808335625437"><ele>65.0</ele><time>2026-03-22T04:54:57.002Z</time></trkpt><trkpt lat="24.15399875767691" lon="120.61798121358626"><ele>65.0</ele><time>2026-03-22T04:54:58.002Z</time></trkpt><trkpt lat="24.15392159529122" lon="120.61788212817267"><ele>65.0</ele><time>2026-03-22T04:54:59.002Z</time></trkpt><trkpt lat="24.153863024034695" lon="120.6177840679462"><ele>65.2</ele><time>2026-03-22T04:55:00.002Z</time></trkpt><trkpt lat="24.153817993175874" lon="120.61768668448612"><ele>65.4</ele><time>2026-03-22T04:55:01.002Z</time></trkpt><trkpt lat="24.153776723467722" lon="120.61758691809551"><ele>65.6</ele><time>2026-03-22T04:55:02.002Z</time></trkpt><trkpt lat="24.153744467992123" lon="120.61748545586143"><ele>65.8</ele><time>2026-03-22T04:55:03.002Z</time></trkpt><trkpt lat="24.153718972046565" lon="120.6173933349509"><ele>66.0</ele><time>2026-03-22T04:55:04.002Z</time></trkpt><trkpt lat="24.15370242425502" lon="120.61732016380859"><ele>66.0</ele><time>2026-03-22T04:55:05.002Z</time></trkpt><trkpt lat="24.15368676306664" lon="120.61722696932277"><ele>66.0</ele><time>2026-03-22T04:55:07.002Z</time></trkpt><trkpt lat="24.15368263758215" lon="120.6171486122565"><ele>66.0</ele><time>2026-03-22T04:55:32.003Z</time></trkpt><trkpt lat="24.153687424901275" lon="120.61706493546113"><ele>66.0</ele><time>2026-03-22T04:55:36.003Z</time></trkpt><trkpt lat="24.15367957534801" lon="120.61698607174876"><ele>66.0</ele><time>2026-03-22T04:56:31.003Z</time></trkpt><trkpt lat="24.153681058066464" lon="120.6168973064726"><ele>66.0</ele><time>2026-03-22T04:56:33.003Z</time></trkpt><trkpt lat="24.153680884212235" lon="120.61680237377321"><ele>66.39999999999999</ele><time>2026-03-22T04:56:35.003Z</time></trkpt><trkpt lat="24.15367293104204" lon="120.61673237177762"><ele>66.8</ele><time>2026-03-22T04:56:36.003Z</time></trkpt><trkpt lat="24.15366558487168" lon="120.61661120522099"><ele>67.19999999999999</ele><time>2026-03-22T04:56:38.003Z</time></trkpt><trkpt lat="24.153578608365923" lon="120.61656562981175"><ele>67.6</ele><time>2026-03-22T04:56:39.002Z</time></trkpt><trkpt lat="24.153493636214623" lon="120.61650819543289"><ele>68.0</ele><time>2026-03-22T04:56:41.002Z</time></trkpt><trkpt lat="24.15340711908315" lon="120.61648198723744"><ele>68.0</ele><time>2026-03-22T04:56:43.002Z</time></trkpt><trkpt lat="24.153337773043503" lon="120.6164547720524"><ele>68.0</ele><time>2026-03-22T04:56:45.002Z</time></trkpt><trkpt lat="24.153264832950523" lon="120.61642616556334"><ele>68.0</ele><time>2026-03-22T04:56:48.002Z</time></trkpt><trkpt lat="24.153204879388564" lon="120.61640183563206"><ele>68.0</ele><time>2026-03-22T04:57:02.002Z</time></trkpt><trkpt lat="24.153121006667515" lon="120.61637037511255"><ele>68.0</ele><time>2026-03-22T04:57:04.002Z</time></trkpt><trkpt lat="24.153008030210128" lon="120.61632939684989"><ele>68.0</ele><time>2026-03-22T04:57:06.002Z</time></trkpt><trkpt lat="24.15293777611427" lon="120.61630683291962"><ele>68.0</ele><time>2026-03-22T04:57:07.002Z</time></trkpt><trkpt lat="24.152871255597884" lon="120.61628601547692"><ele>68.0</ele><time>2026-03-22T04:57:08.002Z</time></trkpt><trkpt lat="24.15280007401222" lon="120.61625334216521"><ele>68.0</ele><time>2026-03-22T04:57:09.002Z</time></trkpt><trkpt lat="24.152718126117186" lon="120.61622393881031"><ele>68.0</ele><time>2026-03-22T04:57:10.002Z</time></trkpt><trkpt lat="24.152637404308535" lon="120.6161949547223"><ele>68.0</ele><time>2026-03-22T04:57:11.002Z</time></trkpt><trkpt lat="24.152571285064493" lon="120.61616707509167"><ele>68.0</ele><time>2026-03-22T04:57:12.002Z</time></trkpt><trkpt lat="24.152449777296116" lon="120.61612658067656"><ele>69.0</ele><time>2026-03-22T04:57:14.002Z</time></trkpt><trkpt lat="24.152336543489238" lon="120.61608933012614"><ele>70.0</ele><time>2026-03-22T04:57:16.002Z</time></trkpt><trkpt lat="24.15227237036839" lon="120.61606382009043"><ele>71.0</ele><time>2026-03-22T04:57:17.002Z</time></trkpt><trkpt lat="24.15219979305915" lon="120.61603375215509"><ele>72.0</ele><time>2026-03-22T04:57:18.002Z</time></trkpt><trkpt lat="24.152113262434508" lon="120.61600395040651"><ele>73.0</ele><time>2026-03-22T04:57:19.002Z</time></trkpt><trkpt lat="24.152021636260873" lon="120.61597344405126"><ele>73.0</ele><time>2026-03-22T04:57:20.002Z</time></trkpt><trkpt lat="24.151921387476218" lon="120.61594728177647"><ele>73.0</ele><time>2026-03-22T04:57:21.002Z</time></trkpt><trkpt lat="24.151827805237634" lon="120.61592779588572"><ele>73.0</ele><time>2026-03-22T04:57:22.002Z</time></trkpt><trkpt lat="24.15173042897161" lon="120.61591103264752"><ele>73.0</ele><time>2026-03-22T04:57:23.002Z</time></trkpt><trkpt lat="24.151620380585374" lon="120.61588624590698"><ele>73.0</ele><time>2026-03-22T04:57:24.002Z</time></trkpt><trkpt lat="24.151505265429456" lon="120.61586498876288"><ele>71.6</ele><time>2026-03-22T04:57:25.002Z</time></trkpt><trkpt lat="24.15140051064845" lon="120.61584551311009"><ele>70.19999999999999</ele><time>2026-03-22T04:57:26.002Z</time></trkpt><trkpt lat="24.151293881223936" lon="120.61582639163464"><ele>68.8</ele><time>2026-03-22T04:57:27.002Z</time></trkpt><trkpt lat="24.1511927180742" lon="120.61582039309187"><ele>67.39999999999999</ele><time>2026-03-22T04:57:28.002Z</time></trkpt><trkpt lat="24.151083795113394" lon="120.6158016140564"><ele>66.0</ele><time>2026-03-22T04:57:29.002Z</time></trkpt><trkpt lat="24.150982675631322" lon="120.61578079469564"><ele>66.0</ele><time>2026-03-22T04:57:30.002Z</time></trkpt><trkpt lat="24.15087955012365" lon="120.61576237967405"><ele>66.0</ele><time>2026-03-22T04:57:31.002Z</time></trkpt><trkpt lat="24.15077277968348" lon="120.61575230258141"><ele>66.0</ele><time>2026-03-22T04:57:32.002Z</time></trkpt><trkpt lat="24.150669985180343" lon="120.61574221399617"><ele>66.0</ele><time>2026-03-22T04:57:33.002Z</time></trkpt><trkpt lat="24.150573468412453" lon="120.61572987042473"><ele>66.0</ele><time>2026-03-22T04:57:34.002Z</time></trkpt><trkpt lat="24.150484879817824" lon="120.61571194437857"><ele>66.6</ele><time>2026-03-22T04:57:35.002Z</time></trkpt><trkpt lat="24.150403811775405" lon="120.61570000116001"><ele>67.19999999999999</ele><time>2026-03-22T04:57:36.002Z</time></trkpt><trkpt lat="24.150332978061062" lon="120.61568896829097"><ele>67.80000000000001</ele><time>2026-03-22T04:57:37.002Z</time></trkpt><trkpt lat="24.15023083940355" lon="120.61567186661824"><ele>68.4</ele><time>2026-03-22T04:57:39.003Z</time></trkpt><trkpt lat="24.150138368783782" lon="120.6156537306912"><ele>69.0</ele><time>2026-03-22T04:57:41.003Z</time></trkpt><trkpt lat="24.15001678556946" lon="120.61563164539196"><ele>69.0</ele><time>2026-03-22T04:57:43.003Z</time></trkpt><trkpt lat="24.149943230729995" lon="120.61562256349647"><ele>69.0</ele><time>2026-03-22T04:57:44.003Z</time></trkpt><trkpt lat="24.149854716148727" lon="120.61560628614654"><ele>69.0</ele><time>2026-03-22T04:57:45.003Z</time></trkpt><trkpt lat="24.149765095851556" lon="120.6155879273881"><ele>69.0</ele><time>2026-03-22T04:57:46.003Z</time></trkpt><trkpt lat="24.14967265824895" lon="120.6155742675267"><ele>69.0</ele><time>2026-03-22T04:57:47.003Z</time></trkpt><trkpt lat="24.14957866253988" lon="120.61555266728485"><ele>69.0</ele><time>2026-03-22T04:57:48.003Z</time></trkpt><trkpt lat="24.14948782181977" lon="120.61553333423709"><ele>69.60000000000001</ele><time>2026-03-22T04:57:49.003Z</time></trkpt><trkpt lat="24.14939527615122" lon="120.61551031684277"><ele>70.2</ele><time>2026-03-22T04:57:50.003Z</time></trkpt><trkpt lat="24.149298190134274" lon="120.6154814857371"><ele>70.80000000000001</ele><time>2026-03-22T04:57:51.003Z</time></trkpt><trkpt lat="24.149198105112507" lon="120.6154539617527"><ele>71.4</ele><time>2026-03-22T04:57:52.003Z</time></trkpt><trkpt lat="24.149095980669752" lon="120.61543234263976"><ele>72.0</ele><time>2026-03-22T04:57:53.003Z</time></trkpt><trkpt lat="24.148990435685757" lon="120.61541248374527"><ele>72.0</ele><time>2026-03-22T04:57:54.003Z</time></trkpt><trkpt lat="24.14888505142126" lon="120.6153911246396"><ele>72.0</ele><time>2026-03-22T04:57:55.003Z</time></trkpt><trkpt lat="24.14878312018401" lon="120.6153719733614"><ele>72.0</ele><time>2026-03-22T04:57:56.003Z</time></trkpt><trkpt lat="24.148680848802986" lon="120.61535423564399"><ele>72.0</ele><time>2026-03-22T04:57:57.003Z</time></trkpt><trkpt lat="24.148577387807286" lon="120.61533171760951"><ele>72.0</ele><time>2026-03-22T04:57:58.003Z</time></trkpt><trkpt lat="24.148475596837425" lon="120.61531430624021"><ele>72.0</ele><time>2026-03-22T04:57:59.003Z</time></trkpt><trkpt lat="24.14838216923572" lon="120.61529622092479"><ele>72.0</ele><time>2026-03-22T04:58:00.003Z</time></trkpt><trkpt lat="24.14829251230884" lon="120.61527724946419"><ele>72.0</ele><time>2026-03-22T04:58:01.003Z</time></trkpt><trkpt lat="24.148200911751353" lon="120.61526199177841"><ele>72.0</ele><time>2026-03-22T04:58:02.003Z</time></trkpt><trkpt lat="24.148110829286246" lon="120.61524762391824"><ele>72.0</ele><time>2026-03-22T04:58:03.003Z</time></trkpt><trkpt lat="24.14801794615754" lon="120.61523732069915"><ele>71.0</ele><time>2026-03-22T04:58:04.003Z</time></trkpt><trkpt lat="24.147912078739136" lon="120.6152125103484"><ele>70.0</ele><time>2026-03-22T04:58:05.003Z</time></trkpt><trkpt lat="24.147801253654016" lon="120.61519230566749"><ele>69.0</ele><time>2026-03-22T04:58:06.003Z</time></trkpt><trkpt lat="24.147703403261694" lon="120.61517723939035"><ele>68.0</ele><time>2026-03-22T04:58:07.003Z</time></trkpt><trkpt lat="24.14760411433759" lon="120.61516542771702"><ele>67.0</ele><time>2026-03-22T04:58:08.003Z</time></trkpt><trkpt lat="24.147501588973814" lon="120.61515337723691"><ele>67.0</ele><time>2026-03-22T04:58:09.003Z</time></trkpt><trkpt lat="24.14739253621687" lon="120.6151377415341"><ele>67.0</ele><time>2026-03-22T04:58:10.003Z</time></trkpt><trkpt lat="24.147284616069214" lon="120.61511886327814"><ele>67.0</ele><time>2026-03-22T04:58:11.003Z</time></trkpt><trkpt lat="24.147177048878785" lon="120.61510389477073"><ele>67.0</ele><time>2026-03-22T04:58:12.003Z</time></trkpt><trkpt lat="24.14706783136174" lon="120.61508911983793"><ele>67.0</ele><time>2026-03-22T04:58:13.003Z</time></trkpt><trkpt lat="24.146966008680806" lon="120.61507644092164"><ele>67.0</ele><time>2026-03-22T04:58:14.003Z</time></trkpt><trkpt lat="24.14685869521273" lon="120.61506232143624"><ele>67.0</ele><time>2026-03-22T04:58:15.003Z</time></trkpt><trkpt lat="24.14675651166398" lon="120.61504850438398"><ele>67.0</ele><time>2026-03-22T04:58:16.003Z</time></trkpt><trkpt lat="24.14665259009892" lon="120.61502874964461"><ele>67.0</ele><time>2026-03-22T04:58:17.003Z</time></trkpt><trkpt lat="24.146550050561512" lon="120.61501096274759"><ele>67.0</ele><time>2026-03-22T04:58:18.003Z</time></trkpt><trkpt lat="24.146454863553547" lon="120.61499795103106"><ele>66.66666666666666</ele><time>2026-03-22T04:58:19.003Z</time></trkpt><trkpt lat="24.146363248556142" lon="120.61498192704131"><ele>66.33333333333333</ele><time>2026-03-22T04:58:20.003Z</time></trkpt><trkpt lat="24.14627479434314" lon="120.61496595424497"><ele>66.0</ele><time>2026-03-22T04:58:21.003Z</time></trkpt><trkpt lat="24.14618505595654" lon="120.61495154204614"><ele>65.66666666666667</ele><time>2026-03-22T04:58:22.003Z</time></trkpt><trkpt lat="24.14610049942606" lon="120.61493933240156"><ele>65.33333333333334</ele><time>2026-03-22T04:58:23.003Z</time></trkpt><trkpt lat="24.14603196781981" lon="120.61492757555483"><ele>65.0</ele><time>2026-03-22T04:58:24.003Z</time></trkpt><trkpt lat="24.145918572000113" lon="120.61490771675656"><ele>65.0</ele><time>2026-03-22T04:58:26.003Z</time></trkpt><trkpt lat="24.14582254792589" lon="120.61488979335056"><ele>65.0</ele><time>2026-03-22T04:58:28.003Z</time></trkpt><trkpt lat="24.14574297154367" lon="120.61487221035077"><ele>65.0</ele><time>2026-03-22T04:58:30.002Z</time></trkpt><trkpt lat="24.145660345891276" lon="120.61486276249882"><ele>65.0</ele><time>2026-03-22T04:58:45.002Z</time></trkpt><trkpt lat="24.145585455646902" lon="120.61485409446951"><ele>65.0</ele><time>2026-03-22T04:58:47.002Z</time></trkpt><trkpt lat="24.14548777028008" lon="120.61485155804333"><ele>65.0</ele><time>2026-03-22T04:58:49.002Z</time></trkpt><trkpt lat="24.145370820856183" lon="120.61484934889037"><ele>64.8</ele><time>2026-03-22T04:58:51.002Z</time></trkpt><trkpt lat="24.14530613791025" lon="120.614837593444"><ele>64.6</ele><time>2026-03-22T04:58:52.001Z</time></trkpt><trkpt lat="24.14518382735763" lon="120.61479604770052"><ele>64.4</ele><time>2026-03-22T04:58:54.001Z</time></trkpt><trkpt lat="24.145097010292314" lon="120.6147782178516"><ele>64.2</ele><time>2026-03-22T04:58:55.001Z</time></trkpt><trkpt lat="24.14500463210701" lon="120.61476019374506"><ele>64.0</ele><time>2026-03-22T04:58:56.001Z</time></trkpt><trkpt lat="24.144906581614755" lon="120.61474425725918"><ele>63.2</ele><time>2026-03-22T04:58:57.001Z</time></trkpt><trkpt lat="24.14480657176694" lon="120.61472924062815"><ele>62.400000000000006</ele><time>2026-03-22T04:58:58.001Z</time></trkpt><trkpt lat="24.14470236270236" lon="120.61471424985055"><ele>61.6</ele><time>2026-03-22T04:58:59.001Z</time></trkpt><trkpt lat="24.144592973032225" lon="120.614689459618"><ele>60.8</ele><time>2026-03-22T04:59:00.001Z</time></trkpt><trkpt lat="24.144482272949386" lon="120.61465245384485"><ele>60.0</ele><time>2026-03-22T04:59:01.001Z</time></trkpt><trkpt lat="24.14437278007336" lon="120.61459753806672"><ele>60.0</ele><time>2026-03-22T04:59:02.001Z</time></trkpt><trkpt lat="24.14426814342306" lon="120.61452716103193"><ele>60.0</ele><time>2026-03-22T04:59:03.001Z</time></trkpt><trkpt lat="24.144143245493392" lon="120.61447721545761"><ele>60.0</ele><time>2026-03-22T04:59:04.001Z</time></trkpt><trkpt lat="24.144026747492077" lon="120.61441089752995"><ele>60.0</ele><time>2026-03-22T04:59:05.001Z</time></trkpt><trkpt lat="24.14391316582837" lon="120.61432649452182"><ele>60.75</ele><time>2026-03-22T04:59:06.001Z</time></trkpt><trkpt lat="24.14379337656661" lon="120.61426644202326"><ele>61.5</ele><time>2026-03-22T04:59:07.001Z</time></trkpt><trkpt lat="24.14367016845152" lon="120.61420895297302"><ele>62.25</ele><time>2026-03-22T04:59:08.001Z</time></trkpt><trkpt lat="24.14353876846157" lon="120.61415808927447"><ele>63.0</ele><time>2026-03-22T04:59:09.001Z</time></trkpt><trkpt lat="24.14341208707385" lon="120.61409864092693"><ele>63.0</ele><time>2026-03-22T04:59:10.001Z</time></trkpt><trkpt lat="24.14328817588177" lon="120.61403943258401"><ele>63.0</ele><time>2026-03-22T04:59:11.001Z</time></trkpt><trkpt lat="24.14316694371891" lon="120.61397369824859"><ele>63.0</ele><time>2026-03-22T04:59:12.001Z</time></trkpt><trkpt lat="24.14304593582226" lon="120.6139111514919"><ele>63.0</ele><time>2026-03-22T04:59:13.001Z</time></trkpt><trkpt lat="24.142928508101352" lon="120.61384811155936"><ele>61.75</ele><time>2026-03-22T04:59:14.001Z</time></trkpt><trkpt lat="24.14280934575958" lon="120.61378828107918"><ele>60.5</ele><time>2026-03-22T04:59:15.001Z</time></trkpt><trkpt lat="24.142687421624302" lon="120.6137386125686"><ele>59.25</ele><time>2026-03-22T04:59:16.001Z</time></trkpt><trkpt lat="24.142562305967783" lon="120.61369896834478"><ele>58.0</ele><time>2026-03-22T04:59:17.001Z</time></trkpt><trkpt lat="24.142435485966597" lon="120.61366464565297"><ele>58.75</ele><time>2026-03-22T04:59:18.001Z</time></trkpt><trkpt lat="24.142308474712262" lon="120.61363580989826"><ele>59.5</ele><time>2026-03-22T04:59:19.001Z</time></trkpt><trkpt lat="24.142182440459578" lon="120.61359879122305"><ele>60.25</ele><time>2026-03-22T04:59:20.001Z</time></trkpt><trkpt lat="24.142055432569407" lon="120.61356486931547"><ele>61.0</ele><time>2026-03-22T04:59:21.001Z</time></trkpt><trkpt lat="24.141930996117132" lon="120.6135270997648"><ele>61.0</ele><time>2026-03-22T04:59:22.001Z</time></trkpt><trkpt lat="24.141808544509654" lon="120.61349141808576"><ele>61.0</ele><time>2026-03-22T04:59:23.001Z</time></trkpt><trkpt lat="24.141682244876428" lon="120.61345887772993"><ele>61.0</ele><time>2026-03-22T04:59:24.002Z</time></trkpt><trkpt lat="24.141562938945313" lon="120.61343098083748"><ele>61.0</ele><time>2026-03-22T04:59:25.002Z</time></trkpt><trkpt lat="24.141440039748673" lon="120.61340519994957"><ele>61.5</ele><time>2026-03-22T04:59:26.002Z</time></trkpt><trkpt lat="24.14132058336778" lon="120.61336796032555"><ele>62.0</ele><time>2026-03-22T04:59:27.002Z</time></trkpt><trkpt lat="24.14120306575085" lon="120.61333307899818"><ele>62.5</ele><time>2026-03-22T04:59:28.002Z</time></trkpt><trkpt lat="24.14109783006813" lon="120.61330055416033"><ele>63.0</ele><time>2026-03-22T04:59:29.002Z</time></trkpt><trkpt lat="24.140998557813766" lon="120.61327184276792"><ele>63.0</ele><time>2026-03-22T04:59:30.002Z</time></trkpt><trkpt lat="24.14090961286578" lon="120.61324573068406"><ele>63.0</ele><time>2026-03-22T04:59:31.002Z</time></trkpt><trkpt lat="24.140825557218573" lon="120.61322083180713"><ele>63.0</ele><time>2026-03-22T04:59:32.002Z</time></trkpt><trkpt lat="24.140749551601445" lon="120.61319760769513"><ele>63.0</ele><time>2026-03-22T04:59:33.002Z</time></trkpt><trkpt lat="24.140681649905865" lon="120.61318347631097"><ele>63.0</ele><time>2026-03-22T04:59:34.002Z</time></trkpt><trkpt lat="24.14061991990621" lon="120.6131670584528"><ele>63.0</ele><time>2026-03-22T04:59:35.002Z</time></trkpt><trkpt lat="24.140500184310064" lon="120.61313696670699"><ele>62.833333333333336</ele><time>2026-03-22T04:59:37.002Z</time></trkpt><trkpt lat="24.14040899681601" lon="120.61311501629196"><ele>62.66666666666667</ele><time>2026-03-22T04:59:39.002Z</time></trkpt><trkpt lat="24.140341303170803" lon="120.61309595564893"><ele>62.5</ele><time>2026-03-22T04:59:42.002Z</time></trkpt><trkpt lat="24.140254717204986" lon="120.61304955978608"><ele>62.333333333333336</ele><time>2026-03-22T05:00:56.002Z</time></trkpt><trkpt lat="24.14017865237738" lon="120.61302858714355"><ele>62.16666666666667</ele><time>2026-03-22T05:00:58.001Z</time></trkpt><trkpt lat="24.140111718007773" lon="120.61302298599993"><ele>62.0</ele><time>2026-03-22T05:00:59.001Z</time></trkpt><trkpt lat="24.140044582851793" lon="120.61300783310553"><ele>62.0</ele><time>2026-03-22T05:01:00.001Z</time></trkpt><trkpt lat="24.139972989900876" lon="120.61299183660547"><ele>62.00000000000001</ele><time>2026-03-22T05:01:01.001Z</time></trkpt><trkpt lat="24.139896522481788" lon="120.61297590153681"><ele>62.0</ele><time>2026-03-22T05:01:02.001Z</time></trkpt><trkpt lat="24.13982374824988" lon="120.61295723826206"><ele>62.0</ele><time>2026-03-22T05:01:03.001Z</time></trkpt><trkpt lat="24.13975347570299" lon="120.61294055174024"><ele>62.00000000000001</ele><time>2026-03-22T05:01:04.001Z</time></trkpt><trkpt lat="24.13968253035286" lon="120.61292595054812"><ele>62.0</ele><time>2026-03-22T05:01:05.001Z</time></trkpt><trkpt lat="24.139611177304285" lon="120.61290730034179"><ele>62.0</ele><time>2026-03-22T05:01:06.001Z</time></trkpt><trkpt lat="24.139539366497715" lon="120.61289279383313"><ele>62.00000000000001</ele><time>2026-03-22T05:01:07.001Z</time></trkpt><trkpt lat="24.13947058113051" lon="120.61288034279343"><ele>62.0</ele><time>2026-03-22T05:01:08.001Z</time></trkpt><trkpt lat="24.13939990465133" lon="120.61288181708296"><ele>62.0</ele><time>2026-03-22T05:01:09.001Z</time></trkpt><trkpt lat="24.13929606899308" lon="120.61284577633691"><ele>62.0</ele><time>2026-03-22T05:01:11.001Z</time></trkpt><trkpt lat="24.139207702571486" lon="120.61282292366991"><ele>62.00000000000001</ele><time>2026-03-22T05:01:13.001Z</time></trkpt><trkpt lat="24.139150416310454" lon="120.61278735071728"><ele>62.0</ele><time>2026-03-22T05:01:16.001Z</time></trkpt><trkpt lat="24.139075117878026" lon="120.61276441861438"><ele>61.833333333333336</ele><time>2026-03-22T05:01:20.001Z</time></trkpt><trkpt lat="24.139018997041042" lon="120.61272548565746"><ele>61.66666666666667</ele><time>2026-03-22T05:01:28.001Z</time></trkpt><trkpt lat="24.138944560268012" lon="120.61268604723685"><ele>61.5</ele><time>2026-03-22T05:01:30.001Z</time></trkpt><trkpt lat="24.138844170534213" lon="120.61266420709542"><ele>61.33333333333333</ele><time>2026-03-22T05:01:32.001Z</time></trkpt><trkpt lat="24.138778206080293" lon="120.61264134728914"><ele>61.166666666666664</ele><time>2026-03-22T05:01:33.001Z</time></trkpt><trkpt lat="24.138700985087482" lon="120.61261467635882"><ele>61.0</ele><time>2026-03-22T05:01:34.001Z</time></trkpt><trkpt lat="24.138614898509605" lon="120.61257733460353"><ele>61.0</ele><time>2026-03-22T05:01:35.001Z</time></trkpt><trkpt lat="24.138534979101596" lon="120.61254012070383"><ele>60.99999999999999</ele><time>2026-03-22T05:01:36.001Z</time></trkpt><trkpt lat="24.13845135122282" lon="120.6125014140956"><ele>60.99999999999999</ele><time>2026-03-22T05:01:37.001Z</time></trkpt><trkpt lat="24.13836323666712" lon="120.612442559843"><ele>61.0</ele><time>2026-03-22T05:01:38.002Z</time></trkpt><trkpt lat="24.138259695238787" lon="120.61240121423133"><ele>61.0</ele><time>2026-03-22T05:01:39.002Z</time></trkpt><trkpt lat="24.138159006443324" lon="120.61235990630725"><ele>59.75</ele><time>2026-03-22T05:01:40.002Z</time></trkpt><trkpt lat="24.13806047223543" lon="120.61231560194284"><ele>58.5</ele><time>2026-03-22T05:01:41.002Z</time></trkpt><trkpt lat="24.137954365718095" lon="120.61227096053446"><ele>57.25</ele><time>2026-03-22T05:01:42.002Z</time></trkpt><trkpt lat="24.137843447544704" lon="120.61222586535438"><ele>56.0</ele><time>2026-03-22T05:01:43.002Z</time></trkpt><trkpt lat="24.137726748821045" lon="120.61218392368016"><ele>56.0</ele><time>2026-03-22T05:01:44.002Z</time></trkpt><trkpt lat="24.137602233055464" lon="120.61214527127781"><ele>56.0</ele><time>2026-03-22T05:01:45.002Z</time></trkpt><trkpt lat="24.137473506704264" lon="120.61211495007753"><ele>56.0</ele><time>2026-03-22T05:01:46.002Z</time></trkpt><trkpt lat="24.137349021960983" lon="120.61207849488164"><ele>56.0</ele><time>2026-03-22T05:01:47.002Z</time></trkpt><trkpt lat="24.13720535898146" lon="120.61203648778168"><ele>56.25</ele><time>2026-03-22T05:01:48.002Z</time></trkpt><trkpt lat="24.137071848234527" lon="120.6120066401262"><ele>56.5</ele><time>2026-03-22T05:01:49.002Z</time></trkpt><trkpt lat="24.1369372202501" lon="120.61197031815055"><ele>56.75</ele><time>2026-03-22T05:01:50.002Z</time></trkpt><trkpt lat="24.13680482614127" lon="120.61193040554168"><ele>57.0</ele><time>2026-03-22T05:01:51.002Z</time></trkpt><trkpt lat="24.136667971095125" lon="120.61189277653577"><ele>59.0</ele><time>2026-03-22T05:01:52.002Z</time></trkpt><trkpt lat="24.13652929237103" lon="120.61185517203275"><ele>61.0</ele><time>2026-03-22T05:01:53.002Z</time></trkpt><trkpt lat="24.13639092165461" lon="120.61183672987205"><ele>63.0</ele><time>2026-03-22T05:01:54.002Z</time></trkpt><trkpt lat="24.136257832922652" lon="120.61180385443247"><ele>65.0</ele><time>2026-03-22T05:01:55.002Z</time></trkpt><trkpt lat="24.136124439447162" lon="120.61175346802604"><ele>65.0</ele><time>2026-03-22T05:01:56.002Z</time></trkpt><trkpt lat="24.13598622516121" lon="120.6117233356977"><ele>65.0</ele><time>2026-03-22T05:01:57.002Z</time></trkpt><trkpt lat="24.135850400685772" lon="120.61169823648557"><ele>65.0</ele><time>2026-03-22T05:01:58.002Z</time></trkpt><trkpt lat="24.13572170820291" lon="120.61165267537747"><ele>65.0</ele><time>2026-03-22T05:01:59.002Z</time></trkpt><trkpt lat="24.135588832519076" lon="120.61162250135591"><ele>65.5</ele><time>2026-03-22T05:02:00.002Z</time></trkpt><trkpt lat="24.13545452697604" lon="120.61158849103045"><ele>66.0</ele><time>2026-03-22T05:02:01.002Z</time></trkpt><trkpt lat="24.1353153506328" lon="120.61155818931914"><ele>66.5</ele><time>2026-03-22T05:02:02.002Z</time></trkpt><trkpt lat="24.13517440214622" lon="120.6115266350048"><ele>67.0</ele><time>2026-03-22T05:02:03.002Z</time></trkpt><trkpt lat="24.13503961149243" lon="120.6114894375819"><ele>67.0</ele><time>2026-03-22T05:02:04.002Z</time></trkpt><trkpt lat="24.134904402034024" lon="120.61145327229502"><ele>67.0</ele><time>2026-03-22T05:02:05.002Z</time></trkpt><trkpt lat="24.134770225900038" lon="120.61141255099663"><ele>67.0</ele><time>2026-03-22T05:02:06.002Z</time></trkpt><trkpt lat="24.134628435199712" lon="120.61137346887945"><ele>67.0</ele><time>2026-03-22T05:02:07.002Z</time></trkpt><trkpt lat="24.134492402482092" lon="120.61133083513971"><ele>64.0</ele><time>2026-03-22T05:02:08.002Z</time></trkpt><trkpt lat="24.134351456604083" lon="120.61129905293186"><ele>61.0</ele><time>2026-03-22T05:02:09.002Z</time></trkpt><trkpt lat="24.134215958208568" lon="120.61126142452316"><ele>58.0</ele><time>2026-03-22T05:02:10.002Z</time></trkpt><trkpt lat="24.134080238391345" lon="120.61122384989888"><ele>55.0</ele><time>2026-03-22T05:02:11.002Z</time></trkpt><trkpt lat="24.133945562216546" lon="120.61118766927622"><ele>57.75</ele><time>2026-03-22T05:02:12.002Z</time></trkpt><trkpt lat="24.133809631687704" lon="120.61115439778843"><ele>60.5</ele><time>2026-03-22T05:02:13.002Z</time></trkpt><trkpt lat="24.133674403179736" lon="120.61112162227273"><ele>63.25</ele><time>2026-03-22T05:02:14.002Z</time></trkpt><trkpt lat="24.133539595866385" lon="120.61108301354264"><ele>66.0</ele><time>2026-03-22T05:02:15.002Z</time></trkpt><trkpt lat="24.133402052916125" lon="120.61105670879626"><ele>66.0</ele><time>2026-03-22T05:02:16.002Z</time></trkpt><trkpt lat="24.13326576324655" lon="120.61102297148312"><ele>66.0</ele><time>2026-03-22T05:02:17.002Z</time></trkpt><trkpt lat="24.133142213143664" lon="120.61098613129857"><ele>66.0</ele><time>2026-03-22T05:02:18.002Z</time></trkpt><trkpt lat="24.133005490399697" lon="120.6109500784586"><ele>66.0</ele><time>2026-03-22T05:02:19.002Z</time></trkpt><trkpt lat="24.132872673558264" lon="120.61091980132132"><ele>64.25</ele><time>2026-03-22T05:02:20.002Z</time></trkpt><trkpt lat="24.1327430762861" lon="120.61088474764799"><ele>62.5</ele><time>2026-03-22T05:02:21.002Z</time></trkpt><trkpt lat="24.132610621431475" lon="120.6108497248206"><ele>60.75</ele><time>2026-03-22T05:02:22.002Z</time></trkpt><trkpt lat="24.132490915231994" lon="120.61081528348657"><ele>59.0</ele><time>2026-03-22T05:02:23.002Z</time></trkpt><trkpt lat="24.13238442181038" lon="120.61077720269991"><ele>58.0</ele><time>2026-03-22T05:02:24.002Z</time></trkpt><trkpt lat="24.132297538620755" lon="120.61073029394458"><ele>57.00000000000001</ele><time>2026-03-22T05:02:25.002Z</time></trkpt><trkpt lat="24.132234183756935" lon="120.6106892842149"><ele>56.00000000000001</ele><time>2026-03-22T05:02:26.002Z</time></trkpt><trkpt lat="24.13214259832764" lon="120.61065692436591"><ele>55.0</ele><time>2026-03-22T05:02:28.002Z</time></trkpt><trkpt lat="24.13221850093004" lon="120.61047778677114"><ele>54.0</ele><time>2026-03-22T05:02:34.002Z</time></trkpt><trkpt lat="24.132333813167147" lon="120.61042908989718"><ele>55.0</ele><time>2026-03-22T05:02:36.002Z</time></trkpt><trkpt lat="24.13245328582897" lon="120.61038770685211"><ele>56.00000000000001</ele><time>2026-03-22T05:02:38.002Z</time></trkpt><trkpt lat="24.132521919518563" lon="120.61036911198961"><ele>57.00000000000001</ele><time>2026-03-22T05:02:39.002Z</time></trkpt><trkpt lat="24.132599156212944" lon="120.61035021995227"><ele>58.0</ele><time>2026-03-22T05:02:40.002Z</time></trkpt><trkpt lat="24.132687534289122" lon="120.61033089702737"><ele>59.0</ele><time>2026-03-22T05:02:41.002Z</time></trkpt><trkpt lat="24.132781308582377" lon="120.61030752175957"><ele>60.2</ele><time>2026-03-22T05:02:42.002Z</time></trkpt><trkpt lat="24.13288134980959" lon="120.6102900599912"><ele>61.400000000000006</ele><time>2026-03-22T05:02:43.002Z</time></trkpt><trkpt lat="24.132971097751202" lon="120.61027615966158"><ele>62.6</ele><time>2026-03-22T05:02:44.002Z</time></trkpt><trkpt lat="24.133060310627418" lon="120.61028113842211"><ele>63.8</ele><time>2026-03-22T05:02:45.002Z</time></trkpt><trkpt lat="24.133158785986563" lon="120.61027792886026"><ele>65.0</ele><time>2026-03-22T05:02:46.002Z</time></trkpt><trkpt lat="24.133262138988172" lon="120.61025965195105"><ele>65.5</ele><time>2026-03-22T05:02:47.002Z</time></trkpt><trkpt lat="24.133355823999857" lon="120.6102797256974"><ele>66.0</ele><time>2026-03-22T05:02:48.002Z</time></trkpt><trkpt lat="24.13343269531672" lon="120.61028258323486"><ele>66.5</ele><time>2026-03-22T05:02:49.001Z</time></trkpt><trkpt lat="24.13351602069912" lon="120.6102856806965"><ele>67.0</ele><time>2026-03-22T05:02:50.001Z</time></trkpt><trkpt lat="24.13360023319837" lon="120.61027745349341"><ele>67.5</ele><time>2026-03-22T05:02:51.001Z</time></trkpt><trkpt lat="24.133673457013852" lon="120.6103105698748"><ele>68.0</ele><time>2026-03-22T05:02:52.001Z</time></trkpt><trkpt lat="24.133742082267343" lon="120.61032407937121"><ele>67.99999999999999</ele><time>2026-03-22T05:02:53.001Z</time></trkpt><trkpt lat="24.133820099025286" lon="120.61033950029272"><ele>68.0</ele><time>2026-03-22T05:02:55.001Z</time></trkpt><trkpt lat="24.133897232491254" lon="120.61033077850863"><ele>68.0</ele><time>2026-03-22T05:03:46.001Z</time></trkpt><trkpt lat="24.133832426218035" lon="120.61032662522405"><ele>68.0</ele><time>2026-03-22T05:04:02.001Z</time></trkpt><trkpt lat="24.13377123407178" lon="120.61028010749898"><ele>68.0</ele><time>2026-03-22T05:04:10.001Z</time></trkpt><trkpt lat="24.13376281970647" lon="120.6102019070081"><ele>67.99999999999999</ele><time>2026-03-22T05:04:19.001Z</time></trkpt><trkpt lat="24.133787446265423" lon="120.61013486275502"><ele>68.0</ele><time>2026-03-22T05:04:28.001Z</time></trkpt><trkpt lat="24.13384141002692" lon="120.61007374211869"><ele>67.99999999999999</ele><time>2026-03-22T05:05:04.001Z</time></trkpt><trkpt lat="24.133907060307326" lon="120.61010113461622"><ele>68.0</ele><time>2026-03-22T05:05:17.001Z</time></trkpt><trkpt lat="24.133869567205032" lon="120.6100434448324"><ele>68.0</ele><time>2026-03-22T05:05:45.001Z</time></trkpt><trkpt lat="24.13390014721812" lon="120.60997559268537"><ele>68.0</ele><time>2026-03-22T05:05:54.001Z</time></trkpt><trkpt lat="24.13390978743406" lon="120.60989729888182"><ele>68.0</ele><time>2026-03-22T05:06:01.001Z</time></trkpt><trkpt lat="24.133864295039228" lon="120.60984461190844"><ele>67.99999999999999</ele><time>2026-03-22T05:06:12.001Z</time></trkpt><trkpt lat="24.133800811657473" lon="120.60984168572294"><ele>68.0</ele><time>2026-03-22T05:06:20.001Z</time></trkpt><trkpt lat="24.133742065646167" lon="120.60987374676273"><ele>68.0</ele><time>2026-03-22T05:06:35.001Z</time></trkpt><trkpt lat="24.133679849055493" lon="120.60985583419014"><ele>68.0</ele><time>2026-03-22T05:06:42.001Z</time></trkpt><trkpt lat="24.13362458075339" lon="120.60990118166661"><ele>68.0</ele><time>2026-03-22T05:07:01Z</time></trkpt><trkpt lat="24.13368264257707" lon="120.60985248154792"><ele>68.0</ele><time>2026-03-22T05:07:58Z</time></trkpt><trkpt lat="24.133745934989953" lon="120.60985088938048"><ele>68.0</ele><time>2026-03-22T05:08:07Z</time></trkpt><trkpt lat="24.133855049260568" lon="120.60981472582279"><ele>68.0</ele><time>2026-03-22T05:08:44.001Z</time></trkpt><trkpt lat="24.13393808522008" lon="120.60981947084201"><ele>68.0</ele><time>2026-03-22T05:08:51.001Z</time></trkpt><trkpt lat="24.13398693662832" lon="120.60987930120872"><ele>68.0</ele><time>2026-03-22T05:10:16.999Z</time></trkpt><trkpt lat="24.134034651486687" lon="120.60982219736806"><ele>68.0</ele><time>2026-03-22T05:10:22.999Z</time></trkpt><trkpt lat="24.1340296517108" lon="120.60975206957247"><ele>68.0</ele><time>2026-03-22T05:10:26.999Z</time></trkpt><trkpt lat="24.134050072749723" lon="120.60965288477388"><ele>68.0</ele><time>2026-03-22T05:10:31.999Z</time></trkpt><trkpt lat="24.133963065992432" lon="120.60970859933052"><ele>68.0</ele><time>2026-03-22T05:10:35.999Z</time></trkpt><trkpt lat="24.13409171942664" lon="120.60969042398163"><ele>68.0</ele><time>2026-03-22T05:10:41.999Z</time></trkpt><trkpt lat="24.1339746780149" lon="120.60975387085358"><ele>68.0</ele><time>2026-03-22T05:11:03.472Z</time></trkpt><trkpt lat="24.133984908767264" lon="120.60983607114757"><ele>68.0</ele><time>2026-03-22T05:11:48.997Z</time></trkpt><trkpt lat="24.133922688774938" lon="120.60981790632358"><ele>68.0</ele><time>2026-03-22T05:11:56.998Z</time></trkpt><trkpt lat="24.13385303357157" lon="120.60983251339741"><ele>68.0</ele><time>2026-03-22T05:12:29.999Z</time></trkpt><trkpt lat="24.133785348423306" lon="120.60981351390542"><ele>68.0</ele><time>2026-03-22T05:12:47Z</time></trkpt><trkpt lat="24.13375007972882" lon="120.60975569161585"><ele>67.99999999999999</ele><time>2026-03-22T05:12:55Z</time></trkpt><trkpt lat="24.133737114178533" lon="120.60968144794857"><ele>68.0</ele><time>2026-03-22T05:13:01Z</time></trkpt><trkpt lat="24.133667801340703" lon="120.60965900883653"><ele>68.0</ele><time>2026-03-22T05:13:21Z</time></trkpt><trkpt lat="24.13359206379149" lon="120.60965784033893"><ele>68.0</ele><time>2026-03-22T05:13:28Z</time></trkpt><trkpt lat="24.133536375147536" lon="120.60969999900647"><ele>68.0</ele><time>2026-03-22T05:13:33Z</time></trkpt><trkpt lat="24.133497948908133" lon="120.6097687437527"><ele>67.99999999999999</ele><time>2026-03-22T05:14:04.999Z</time></trkpt><trkpt lat="24.133470686432144" lon="120.60983217417076"><ele>68.0</ele><time>2026-03-22T05:14:12.999Z</time></trkpt><trkpt lat="24.133521790519968" lon="120.60976446620964"><ele>68.0</ele><time>2026-03-22T05:14:28Z</time></trkpt><trkpt lat="24.133577386918496" lon="120.60970609763994"><ele>68.0</ele><time>2026-03-22T05:14:34Z</time></trkpt><trkpt lat="24.133644638394788" lon="120.60970843922101"><ele>68.0</ele><time>2026-03-22T05:14:58Z</time></trkpt><trkpt lat="24.133680903730273" lon="120.60964393101492"><ele>68.0</ele><time>2026-03-22T05:15:16Z</time></trkpt><trkpt lat="24.133775262588948" lon="120.60967222228798"><ele>68.0</ele><time>2026-03-22T05:15:45.001Z</time></trkpt><trkpt lat="24.133798347670577" lon="120.60976208047926"><ele>68.0</ele><time>2026-03-22T05:15:48.001Z</time></trkpt><trkpt lat="24.1338602525935" lon="120.6098161731197"><ele>67.99999999999999</ele><time>2026-03-22T05:15:56.996Z</time></trkpt><trkpt lat="24.1339263740395" lon="120.60981152454379"><ele>68.0</ele><time>2026-03-22T05:16:04.997Z</time></trkpt><trkpt lat="24.13392065352498" lon="120.6098843965536"><ele>68.0</ele><time>2026-03-22T05:16:09.997Z</time></trkpt><trkpt lat="24.13390692941297" lon="120.60995264353215"><ele>68.0</ele><time>2026-03-22T05:16:19.998Z</time></trkpt><trkpt lat="24.13388261918119" lon="120.61002484237423"><ele>68.0</ele><time>2026-03-22T05:16:30.999Z</time></trkpt><trkpt lat="24.133852764693806" lon="120.61008952044278"><ele>67.99999999999999</ele><time>2026-03-22T05:16:41.999Z</time></trkpt><trkpt lat="24.13380089337488" lon="120.61013413822266"><ele>68.0</ele><time>2026-03-22T05:16:48.999Z</time></trkpt><trkpt lat="24.133786283170974" lon="120.61020987565738"><ele>68.0</ele><time>2026-03-22T05:17:05Z</time></trkpt><trkpt lat="24.133789438662" lon="120.61028238359576"><ele>68.0</ele><time>2026-03-22T05:17:11Z</time></trkpt><trkpt lat="24.13384468357031" lon="120.61032163372771"><ele>68.0</ele><time>2026-03-22T05:17:31Z</time></trkpt><trkpt lat="24.13391601695657" lon="120.61035179000733"><ele>68.0</ele><time>2026-03-22T05:21:46.002Z</time></trkpt><trkpt lat="24.133979691392984" lon="120.61036509789528"><ele>68.0</ele><time>2026-03-22T05:21:50.002Z</time></trkpt><trkpt lat="24.13412921515333" lon="120.61035488898447"><ele>68.0</ele><time>2026-03-22T05:24:45Z</time></trkpt><trkpt lat="24.13422208427854" lon="120.61036815893353"><ele>66.5</ele><time>2026-03-22T05:24:48Z</time></trkpt><trkpt lat="24.13430967941262" lon="120.61037434732691"><ele>65.0</ele><time>2026-03-22T05:24:52Z</time></trkpt><trkpt lat="24.13439063021904" lon="120.61038783638767"><ele>63.5</ele><time>2026-03-22T05:25:04.001Z</time></trkpt><trkpt lat="24.134610868702907" lon="120.61039346023156"><ele>62.0</ele><time>2026-03-22T05:25:09.001Z</time></trkpt><trkpt lat="24.1346752759025" lon="120.61038746146363"><ele>62.00000000000001</ele><time>2026-03-22T05:25:10.001Z</time></trkpt><trkpt lat="24.134739488151933" lon="120.6103796785875"><ele>62.0</ele><time>2026-03-22T05:25:11.001Z</time></trkpt><trkpt lat="24.13480461258843" lon="120.61037649276531"><ele>62.0</ele><time>2026-03-22T05:25:12.001Z</time></trkpt><trkpt lat="24.134878037512195" lon="120.61038028604034"><ele>62.0</ele><time>2026-03-22T05:25:13.001Z</time></trkpt><trkpt lat="24.134963874146425" lon="120.61038210176713"><ele>62.00000000000001</ele><time>2026-03-22T05:25:14.001Z</time></trkpt><trkpt lat="24.135064460388467" lon="120.61038233409444"><ele>62.0</ele><time>2026-03-22T05:25:15.001Z</time></trkpt><trkpt lat="24.13516052387465" lon="120.61037941782826"><ele>62.8</ele><time>2026-03-22T05:25:16.001Z</time></trkpt><trkpt lat="24.135255854728523" lon="120.61038068098368"><ele>63.6</ele><time>2026-03-22T05:25:17.001Z</time></trkpt><trkpt lat="24.13536404287961" lon="120.61037185510204"><ele>64.39999999999999</ele><time>2026-03-22T05:25:18.001Z</time></trkpt><trkpt lat="24.13546186111847" lon="120.61037741347066"><ele>65.2</ele><time>2026-03-22T05:25:19.001Z</time></trkpt><trkpt lat="24.135564529903174" lon="120.6103710463993"><ele>66.0</ele><time>2026-03-22T05:25:20.001Z</time></trkpt><trkpt lat="24.135668977226" lon="120.61036752371815"><ele>66.5</ele><time>2026-03-22T05:25:21.001Z</time></trkpt><trkpt lat="24.135781114378123" lon="120.61037672783276"><ele>67.0</ele><time>2026-03-22T05:25:22.001Z</time></trkpt><trkpt lat="24.13590207183393" lon="120.61037662813573"><ele>67.5</ele><time>2026-03-22T05:25:23.001Z</time></trkpt><trkpt lat="24.136020592596243" lon="120.61037352581592"><ele>68.0</ele><time>2026-03-22T05:25:24.001Z</time></trkpt><trkpt lat="24.13614371368117" lon="120.61037466908442"><ele>68.0</ele><time>2026-03-22T05:25:25.001Z</time></trkpt><trkpt lat="24.136257154740324" lon="120.61038102077674"><ele>68.0</ele><time>2026-03-22T05:25:26.002Z</time></trkpt><trkpt lat="24.136366168977723" lon="120.61039403654118"><ele>68.0</ele><time>2026-03-22T05:25:27.002Z</time></trkpt><trkpt lat="24.13647806506548" lon="120.61040249654214"><ele>68.0</ele><time>2026-03-22T05:25:28.002Z</time></trkpt><trkpt lat="24.13657833422443" lon="120.61039965225747"><ele>68.0</ele><time>2026-03-22T05:25:29.002Z</time></trkpt><trkpt lat="24.136667945396045" lon="120.61035579599631"><ele>68.25</ele><time>2026-03-22T05:25:30.002Z</time></trkpt><trkpt lat="24.136765580775965" lon="120.61031801252115"><ele>68.5</ele><time>2026-03-22T05:25:31.002Z</time></trkpt><trkpt lat="24.136871023587684" lon="120.61027673536981"><ele>68.75</ele><time>2026-03-22T05:25:32.002Z</time></trkpt><trkpt lat="24.136982700772453" lon="120.61023632246875"><ele>69.0</ele><time>2026-03-22T05:25:33.002Z</time></trkpt><trkpt lat="24.137095623238615" lon="120.61019444904328"><ele>69.0</ele><time>2026-03-22T05:25:34.002Z</time></trkpt><trkpt lat="24.13720582804567" lon="120.61015358336161"><ele>69.0</ele><time>2026-03-22T05:25:35.002Z</time></trkpt><trkpt lat="24.13731586282493" lon="120.6101127807302"><ele>69.0</ele><time>2026-03-22T05:25:36.002Z</time></trkpt><trkpt lat="24.13742859274957" lon="120.61008855591126"><ele>69.0</ele><time>2026-03-22T05:25:37.002Z</time></trkpt><trkpt lat="24.1375293314783" lon="120.61004651240218"><ele>70.0</ele><time>2026-03-22T05:25:38.002Z</time></trkpt><trkpt lat="24.13763063644579" lon="120.6100143480889"><ele>71.0</ele><time>2026-03-22T05:25:39.002Z</time></trkpt><trkpt lat="24.137725508726827" lon="120.60997801943306"><ele>72.0</ele><time>2026-03-22T05:25:40.002Z</time></trkpt><trkpt lat="24.137797331626444" lon="120.60993375615544"><ele>73.0</ele><time>2026-03-22T05:25:41.002Z</time></trkpt><trkpt lat="24.137860295125108" lon="120.60991012315273"><ele>74.0</ele><time>2026-03-22T05:25:42.002Z</time></trkpt><trkpt lat="24.137945229989075" lon="120.6098782582739"><ele>75.0</ele><time>2026-03-22T05:25:44.002Z</time></trkpt><trkpt lat="24.13807355591469" lon="120.61001548190485"><ele>75.0</ele><time>2026-03-22T05:25:57.002Z</time></trkpt><trkpt lat="24.138135267092416" lon="120.61009968076208"><ele>75.0</ele><time>2026-03-22T05:25:59.002Z</time></trkpt><trkpt lat="24.138229774487233" lon="120.61019436259065"><ele>75.0</ele><time>2026-03-22T05:26:01.003Z</time></trkpt><trkpt lat="24.138291865652644" lon="120.61020828000439"><ele>75.0</ele><time>2026-03-22T05:26:02.003Z</time></trkpt><trkpt lat="24.13836652854217" lon="120.61025442956525"><ele>75.0</ele><time>2026-03-22T05:26:04.003Z</time></trkpt><trkpt lat="24.13845114771183" lon="120.61026769059815"><ele>74.16666666666667</ele><time>2026-03-22T05:26:15.003Z</time></trkpt><trkpt lat="24.138442292314732" lon="120.61036165288198"><ele>73.33333333333333</ele><time>2026-03-22T05:26:16.003Z</time></trkpt><trkpt lat="24.138443778641587" lon="120.6104620767146"><ele>72.5</ele><time>2026-03-22T05:26:18.003Z</time></trkpt><trkpt lat="24.13844038953668" lon="120.61057061697724"><ele>71.66666666666666</ele><time>2026-03-22T05:26:20.003Z</time></trkpt><trkpt lat="24.138436657921527" lon="120.61066798790758"><ele>70.83333333333333</ele><time>2026-03-22T05:26:22.003Z</time></trkpt><trkpt lat="24.138433373037923" lon="120.61075564176524"><ele>70.0</ele><time>2026-03-22T05:26:24.001Z</time></trkpt><trkpt lat="24.138430295248277" lon="120.61084597183475"><ele>70.0</ele><time>2026-03-22T05:26:26.001Z</time></trkpt><trkpt lat="24.1384269841383" lon="120.61093866584042"><ele>70.0</ele><time>2026-03-22T05:26:28.001Z</time></trkpt><trkpt lat="24.13842412146185" lon="120.61104901562867"><ele>70.0</ele><time>2026-03-22T05:26:30.001Z</time></trkpt><trkpt lat="24.13842074010753" lon="120.61117424845528"><ele>70.0</ele><time>2026-03-22T05:26:32.001Z</time></trkpt><trkpt lat="24.1384186455519" lon="120.61130219226821"><ele>70.0</ele><time>2026-03-22T05:26:34.001Z</time></trkpt><trkpt lat="24.138414932487475" lon="120.6114382931835"><ele>67.5</ele><time>2026-03-22T05:26:36.001Z</time></trkpt><trkpt lat="24.138414148248184" lon="120.61157327544662"><ele>65.0</ele><time>2026-03-22T05:26:38.001Z</time></trkpt><trkpt lat="24.138407764729017" lon="120.6117084214346"><ele>62.5</ele><time>2026-03-22T05:26:40.001Z</time></trkpt><trkpt lat="24.13840486201073" lon="120.61184183797401"><ele>60.0</ele><time>2026-03-22T05:26:42.001Z</time></trkpt><trkpt lat="24.13840165466526" lon="120.61197539897056"><ele>60.2</ele><time>2026-03-22T05:26:44.001Z</time></trkpt><trkpt lat="24.138397373765585" lon="120.61210957230483"><ele>60.4</ele><time>2026-03-22T05:26:46.001Z</time></trkpt><trkpt lat="24.138394537115307" lon="120.61224711162691"><ele>60.599999999999994</ele><time>2026-03-22T05:26:48.001Z</time></trkpt><trkpt lat="24.138395098339533" lon="120.61231884260273"><ele>60.8</ele><time>2026-03-22T05:26:49.001Z</time></trkpt><trkpt lat="24.138394755809976" lon="120.61239718501494"><ele>61.0</ele><time>2026-03-22T05:26:50.001Z</time></trkpt><trkpt lat="24.138395817371382" lon="120.61248185638973"><ele>60.99999999999999</ele><time>2026-03-22T05:26:51.001Z</time></trkpt><trkpt lat="24.138413018423908" lon="120.61256659117318"><ele>61.0</ele><time>2026-03-22T05:26:52.001Z</time></trkpt><trkpt lat="24.13844466260891" lon="120.61265051907122"><ele>61.0</ele><time>2026-03-22T05:26:53.001Z</time></trkpt><trkpt lat="24.138526894790616" lon="120.61270784214176"><ele>61.0</ele><time>2026-03-22T05:26:54.001Z</time></trkpt><trkpt lat="24.13857348268847" lon="120.61279022714093"><ele>60.99999999999999</ele><time>2026-03-22T05:26:55.001Z</time></trkpt><trkpt lat="24.13861810207945" lon="120.6128691310905"><ele>61.0</ele><time>2026-03-22T05:26:56.001Z</time></trkpt><trkpt lat="24.13866096450278" lon="120.61294749162367"><ele>60.166666666666664</ele><time>2026-03-22T05:26:57.001Z</time></trkpt><trkpt lat="24.138700216278178" lon="120.61302295632866"><ele>59.33333333333333</ele><time>2026-03-22T05:26:58.001Z</time></trkpt><trkpt lat="24.138738917642566" lon="120.6130973628165"><ele>58.5</ele><time>2026-03-22T05:26:59.001Z</time></trkpt><trkpt lat="24.138776503269447" lon="120.61316962421688"><ele>57.66666666666667</ele><time>2026-03-22T05:27:00.001Z</time></trkpt><trkpt lat="24.13881156401002" lon="120.61324112125233"><ele>56.833333333333336</ele><time>2026-03-22T05:27:01.001Z</time></trkpt><trkpt lat="24.138842404469855" lon="120.61330487523463"><ele>56.0</ele><time>2026-03-22T05:27:02.001Z</time></trkpt><trkpt lat="24.13889199821481" lon="120.61341230175626"><ele>56.0</ele><time>2026-03-22T05:27:04.001Z</time></trkpt><trkpt lat="24.138924102120065" lon="120.61349427335456"><ele>55.99999999999999</ele><time>2026-03-22T05:27:06.001Z</time></trkpt><trkpt lat="24.138950693633518" lon="120.61356385756272"><ele>55.99999999999999</ele><time>2026-03-22T05:27:10.002Z</time></trkpt><trkpt lat="24.138980686280615" lon="120.61366343093428"><ele>56.0</ele><time>2026-03-22T05:27:46.003Z</time></trkpt><trkpt lat="24.138992675385325" lon="120.61376015539295"><ele>56.0</ele><time>2026-03-22T05:27:48.003Z</time></trkpt><trkpt lat="24.139027018364168" lon="120.613890105185"><ele>55.50000000000001</ele><time>2026-03-22T05:27:50.003Z</time></trkpt><trkpt lat="24.139039065241853" lon="120.61396188919744"><ele>55.0</ele><time>2026-03-22T05:27:51.003Z</time></trkpt><trkpt lat="24.139049235737744" lon="120.61403772235167"><ele>54.5</ele><time>2026-03-22T05:27:52.003Z</time></trkpt><trkpt lat="24.13907939950464" lon="120.61412413643689"><ele>54.0</ele><time>2026-03-22T05:27:53.003Z</time></trkpt><trkpt lat="24.13909230925233" lon="120.61422976303065"><ele>53.50000000000001</ele><time>2026-03-22T05:27:54.003Z</time></trkpt><trkpt lat="24.139106952663916" lon="120.61434504275309"><ele>53.0</ele><time>2026-03-22T05:27:55.003Z</time></trkpt><trkpt lat="24.13911920498422" lon="120.61446265984179"><ele>53.25</ele><time>2026-03-22T05:27:56.003Z</time></trkpt><trkpt lat="24.13913203314632" lon="120.61457973472031"><ele>53.5</ele><time>2026-03-22T05:27:57.003Z</time></trkpt><trkpt lat="24.139130323605045" lon="120.6147048938617"><ele>53.75</ele><time>2026-03-22T05:27:58.003Z</time></trkpt><trkpt lat="24.13914742947408" lon="120.61483667792133"><ele>54.0</ele><time>2026-03-22T05:27:59.003Z</time></trkpt><trkpt lat="24.13916644900187" lon="120.61497624538627"><ele>54.0</ele><time>2026-03-22T05:28:00.003Z</time></trkpt><trkpt lat="24.139185173600985" lon="120.61512446703851"><ele>54.0</ele><time>2026-03-22T05:28:01.003Z</time></trkpt><trkpt lat="24.139205397490045" lon="120.6152724645331"><ele>54.0</ele><time>2026-03-22T05:28:02.003Z</time></trkpt><trkpt lat="24.139225102406066" lon="120.61542224454602"><ele>54.0</ele><time>2026-03-22T05:28:03.003Z</time></trkpt><trkpt lat="24.139245479487148" lon="120.61557598100201"><ele>53.5</ele><time>2026-03-22T05:28:04.003Z</time></trkpt><trkpt lat="24.13926553890486" lon="120.61573383917305"><ele>53.0</ele><time>2026-03-22T05:28:05.003Z</time></trkpt><trkpt lat="24.139287387157847" lon="120.61589664423012"><ele>52.5</ele><time>2026-03-22T05:28:06.003Z</time></trkpt><trkpt lat="24.139309257184582" lon="120.6160612106176"><ele>52.0</ele><time>2026-03-22T05:28:07.003Z</time></trkpt><trkpt lat="24.139329411974813" lon="120.61622687761887"><ele>52.0</ele><time>2026-03-22T05:28:08.003Z</time></trkpt><trkpt lat="24.139348290766872" lon="120.61638933587284"><ele>52.0</ele><time>2026-03-22T05:28:09.003Z</time></trkpt><trkpt lat="24.13936857165182" lon="120.61654923701893"><ele>52.0</ele><time>2026-03-22T05:28:10.003Z</time></trkpt><trkpt lat="24.139389601254916" lon="120.61671105112212"><ele>52.0</ele><time>2026-03-22T05:28:11.003Z</time></trkpt><trkpt lat="24.139424421534358" lon="120.61687446312776"><ele>52.666666666666664</ele><time>2026-03-22T05:28:12.003Z</time></trkpt><trkpt lat="24.139446646303906" lon="120.61704535371544"><ele>53.33333333333333</ele><time>2026-03-22T05:28:13.003Z</time></trkpt><trkpt lat="24.139469494046175" lon="120.61721948204195"><ele>54.0</ele><time>2026-03-22T05:28:14.003Z</time></trkpt><trkpt lat="24.139490842034835" lon="120.6173941808581"><ele>54.0</ele><time>2026-03-22T05:28:15.003Z</time></trkpt><trkpt lat="24.13951230231629" lon="120.61756724494177"><ele>54.0</ele><time>2026-03-22T05:28:16.003Z</time></trkpt><trkpt lat="24.139534841658335" lon="120.61773967974666"><ele>54.0</ele><time>2026-03-22T05:28:17.003Z</time></trkpt><trkpt lat="24.139556943439384" lon="120.61791064976883"><ele>55.33333333333333</ele><time>2026-03-22T05:28:18.003Z</time></trkpt><trkpt lat="24.139579690318033" lon="120.61808250033766"><ele>56.666666666666664</ele><time>2026-03-22T05:28:19.003Z</time></trkpt><trkpt lat="24.139602154340825" lon="120.61825580434328"><ele>58.0</ele><time>2026-03-22T05:28:20.003Z</time></trkpt><trkpt lat="24.139626860162345" lon="120.61842909914733"><ele>58.0</ele><time>2026-03-22T05:28:21.004Z</time></trkpt><trkpt lat="24.13965127891632" lon="120.61859670879431"><ele>58.0</ele><time>2026-03-22T05:28:22.004Z</time></trkpt><trkpt lat="24.139671221688484" lon="120.61876760695645"><ele>58.0</ele><time>2026-03-22T05:28:23.004Z</time></trkpt><trkpt lat="24.139692575053534" lon="120.618950572458"><ele>57.666666666666664</ele><time>2026-03-22T05:28:24.004Z</time></trkpt><trkpt lat="24.13971768110355" lon="120.6191391638468"><ele>57.33333333333333</ele><time>2026-03-22T05:28:25.004Z</time></trkpt><trkpt lat="24.139743059221225" lon="120.6193284785056"><ele>57.0</ele><time>2026-03-22T05:28:26.004Z</time></trkpt><trkpt lat="24.139766311381813" lon="120.61951810788827"><ele>54.66666666666667</ele><time>2026-03-22T05:28:27.004Z</time></trkpt><trkpt lat="24.139790166048638" lon="120.61970613027823"><ele>52.333333333333336</ele><time>2026-03-22T05:28:28.004Z</time></trkpt><trkpt lat="24.139814147343518" lon="120.61989047978429"><ele>50.0</ele><time>2026-03-22T05:28:29.004Z</time></trkpt><trkpt lat="24.139836627601895" lon="120.62006991404569"><ele>50.0</ele><time>2026-03-22T05:28:30.003Z</time></trkpt><trkpt lat="24.139857466581276" lon="120.6202441202013"><ele>50.0</ele><time>2026-03-22T05:28:31.003Z</time></trkpt><trkpt lat="24.139877695155672" lon="120.62041251279857"><ele>50.0</ele><time>2026-03-22T05:28:32.003Z</time></trkpt><trkpt lat="24.139896829937623" lon="120.62057486121168"><ele>50.25</ele><time>2026-03-22T05:28:33.003Z</time></trkpt><trkpt lat="24.139914386523337" lon="120.62073093817365"><ele>50.5</ele><time>2026-03-22T05:28:34.003Z</time></trkpt><trkpt lat="24.1399310807979" lon="120.62088117562415"><ele>50.75</ele><time>2026-03-22T05:28:35.003Z</time></trkpt><trkpt lat="24.139946464564034" lon="120.62102548940476"><ele>51.0</ele><time>2026-03-22T05:28:36.003Z</time></trkpt><trkpt lat="24.139960185749036" lon="120.62116877209232"><ele>51.5</ele><time>2026-03-22T05:28:37.003Z</time></trkpt><trkpt lat="24.139996420031306" lon="120.62131098811759"><ele>52.0</ele><time>2026-03-22T05:28:38.003Z</time></trkpt><trkpt lat="24.14001371186374" lon="120.62145599536028"><ele>52.5</ele><time>2026-03-22T05:28:39.003Z</time></trkpt><trkpt lat="24.140044178763254" lon="120.62159489296693"><ele>53.0</ele><time>2026-03-22T05:28:40.003Z</time></trkpt><trkpt lat="24.140077499091134" lon="120.62172624523852"><ele>53.0</ele><time>2026-03-22T05:28:41.003Z</time></trkpt><trkpt lat="24.140114128345136" lon="120.62184059805934"><ele>53.0</ele><time>2026-03-22T05:28:42.003Z</time></trkpt><trkpt lat="24.14015469928956" lon="120.6219534283051"><ele>53.0</ele><time>2026-03-22T05:28:43.003Z</time></trkpt><trkpt lat="24.140196239514715" lon="120.62206506412018"><ele>53.0</ele><time>2026-03-22T05:28:44.003Z</time></trkpt><trkpt lat="24.140237915275762" lon="120.62217394475931"><ele>53.0</ele><time>2026-03-22T05:28:45.003Z</time></trkpt><trkpt lat="24.140278095063124" lon="120.62227891709244"><ele>53.0</ele><time>2026-03-22T05:28:46.003Z</time></trkpt><trkpt lat="24.140316921371934" lon="120.62238310011298"><ele>53.0</ele><time>2026-03-22T05:28:47.002Z</time></trkpt><trkpt lat="24.140355150792406" lon="120.62248581423025"><ele>53.0</ele><time>2026-03-22T05:28:48.002Z</time></trkpt><trkpt lat="24.14039198623335" lon="120.6225874139982"><ele>53.0</ele><time>2026-03-22T05:28:49.002Z</time></trkpt><trkpt lat="24.14042837850286" lon="120.62268777468609"><ele>53.0</ele><time>2026-03-22T05:28:50.002Z</time></trkpt><trkpt lat="24.140462652408374" lon="120.62278891296681"><ele>53.2</ele><time>2026-03-22T05:28:51.002Z</time></trkpt><trkpt lat="24.140495521170486" lon="120.62288390626331"><ele>53.4</ele><time>2026-03-22T05:28:52.002Z</time></trkpt><trkpt lat="24.14052781761429" lon="120.62297798760522"><ele>53.60000000000001</ele><time>2026-03-22T05:28:53.002Z</time></trkpt><trkpt lat="24.14055851302546" lon="120.62306740523906"><ele>53.800000000000004</ele><time>2026-03-22T05:28:54.002Z</time></trkpt><trkpt lat="24.140570990380745" lon="120.62317675213708"><ele>54.0</ele><time>2026-03-22T05:28:55.002Z</time></trkpt><trkpt lat="24.140584789793337" lon="120.62327925947974"><ele>54.0</ele><time>2026-03-22T05:28:56.002Z</time></trkpt><trkpt lat="24.14058602646504" lon="120.62338869630422"><ele>54.00000000000001</ele><time>2026-03-22T05:28:57.002Z</time></trkpt><trkpt lat="24.14062101641851" lon="120.62349041042876"><ele>54.00000000000001</ele><time>2026-03-22T05:28:58.002Z</time></trkpt><trkpt lat="24.140655517301656" lon="120.62358397602452"><ele>54.0</ele><time>2026-03-22T05:28:59.002Z</time></trkpt><trkpt lat="24.140691053573605" lon="120.62368627283797"><ele>54.0</ele><time>2026-03-22T05:29:00.002Z</time></trkpt><trkpt lat="24.140726884899305" lon="120.62379020978685"><ele>54.0</ele><time>2026-03-22T05:29:01.002Z</time></trkpt><trkpt lat="24.140762666738155" lon="120.62389562281747"><ele>54.00000000000001</ele><time>2026-03-22T05:29:02.002Z</time></trkpt><trkpt lat="24.14079005685583" lon="120.62400090639065"><ele>54.00000000000001</ele><time>2026-03-22T05:29:03.002Z</time></trkpt><trkpt lat="24.140804122704274" lon="120.62410890311172"><ele>54.0</ele><time>2026-03-22T05:29:04.002Z</time></trkpt><trkpt lat="24.14080473352584" lon="120.62421924770999"><ele>54.0</ele><time>2026-03-22T05:29:05.002Z</time></trkpt><trkpt lat="24.140788332324835" lon="120.6243275708077"><ele>54.0</ele><time>2026-03-22T05:29:06.002Z</time></trkpt><trkpt lat="24.140768803746546" lon="120.62443844318828"><ele>54.00000000000001</ele><time>2026-03-22T05:29:07.002Z</time></trkpt><trkpt lat="24.140751700034052" lon="120.62455186429048"><ele>54.00000000000001</ele><time>2026-03-22T05:29:08.002Z</time></trkpt><trkpt lat="24.140734979473702" lon="120.62466404511004"><ele>54.0</ele><time>2026-03-22T05:29:09.002Z</time></trkpt><trkpt lat="24.140717246488713" lon="120.62477197275093"><ele>54.0</ele><time>2026-03-22T05:29:10.002Z</time></trkpt><trkpt lat="24.14069863282491" lon="120.6248777701778"><ele>54.2</ele><time>2026-03-22T05:29:11.002Z</time></trkpt><trkpt lat="24.140679674649597" lon="120.62498171537105"><ele>54.400000000000006</ele><time>2026-03-22T05:29:12.002Z</time></trkpt><trkpt lat="24.140661764061186" lon="120.62508532985467"><ele>54.6</ele><time>2026-03-22T05:29:13.002Z</time></trkpt><trkpt lat="24.14064452808075" lon="120.62518347798057"><ele>54.8</ele><time>2026-03-22T05:29:14.002Z</time></trkpt><trkpt lat="24.140628884913124" lon="120.62526214442732"><ele>55.0</ele><time>2026-03-22T05:29:15.002Z</time></trkpt><trkpt lat="24.140607333697318" lon="120.62536717180438"><ele>55.2</ele><time>2026-03-22T05:29:17.002Z</time></trkpt><trkpt lat="24.14059215252884" lon="120.62544232277652"><ele>55.4</ele><time>2026-03-22T05:30:35.004Z</time></trkpt><trkpt lat="24.140573606510554" lon="120.62554126464721"><ele>55.599999999999994</ele><time>2026-03-22T05:30:38.004Z</time></trkpt><trkpt lat="24.140558703491354" lon="120.62562203800346"><ele>55.8</ele><time>2026-03-22T05:30:40.003Z</time></trkpt><trkpt lat="24.140538882824302" lon="120.62574078294305"><ele>56.0</ele><time>2026-03-22T05:30:42.003Z</time></trkpt><trkpt lat="24.14052007870359" lon="120.62586008235247"><ele>56.00000000000001</ele><time>2026-03-22T05:30:44.003Z</time></trkpt><trkpt lat="24.14050981505233" lon="120.62592857564829"><ele>56.0</ele><time>2026-03-22T05:30:45.003Z</time></trkpt><trkpt lat="24.140498636473957" lon="120.62600613985485"><ele>56.0</ele><time>2026-03-22T05:30:46.003Z</time></trkpt><trkpt lat="24.140485833817202" lon="120.6260923774655"><ele>56.0</ele><time>2026-03-22T05:30:47.003Z</time></trkpt><trkpt lat="24.140469649393726" lon="120.62618718539399"><ele>56.00000000000001</ele><time>2026-03-22T05:30:48.003Z</time></trkpt><trkpt lat="24.140448716460643" lon="120.6262867320357"><ele>56.0</ele><time>2026-03-22T05:30:49.003Z</time></trkpt><trkpt lat="24.140449452789777" lon="120.62639443049585"><ele>56.0</ele><time>2026-03-22T05:30:50.003Z</time></trkpt><trkpt lat="24.14043377005724" lon="120.62649746732859"><ele>55.99999999999999</ele><time>2026-03-22T05:30:51.003Z</time></trkpt><trkpt lat="24.140418224258347" lon="120.62659960453706"><ele>55.99999999999999</ele><time>2026-03-22T05:30:52.003Z</time></trkpt><trkpt lat="24.140402270796503" lon="120.62670442012919"><ele>56.0</ele><time>2026-03-22T05:30:53.003Z</time></trkpt><trkpt lat="24.140385358350056" lon="120.62681553633942"><ele>56.0</ele><time>2026-03-22T05:30:54.003Z</time></trkpt><trkpt lat="24.140367195480003" lon="120.62693486793265"><ele>55.0</ele><time>2026-03-22T05:30:55.003Z</time></trkpt><trkpt lat="24.140347889650005" lon="120.62706170886611"><ele>54.0</ele><time>2026-03-22T05:30:56.003Z</time></trkpt><trkpt lat="24.140327186301693" lon="120.62719773161639"><ele>53.0</ele><time>2026-03-22T05:30:57.003Z</time></trkpt><trkpt lat="24.140305322005595" lon="120.62734138187591"><ele>52.0</ele><time>2026-03-22T05:30:58.003Z</time></trkpt><trkpt lat="24.14028259962836" lon="120.62749066980277"><ele>52.0</ele><time>2026-03-22T05:30:59.003Z</time></trkpt><trkpt lat="24.140260130558286" lon="120.6276382934907"><ele>52.0</ele><time>2026-03-22T05:31:00.003Z</time></trkpt><trkpt lat="24.14023821823207" lon="120.62778398081501"><ele>52.0</ele><time>2026-03-22T05:31:01.003Z</time></trkpt><trkpt lat="24.140216903211382" lon="120.62792690752211"><ele>52.0</ele><time>2026-03-22T05:31:02.002Z</time></trkpt><trkpt lat="24.140195726164816" lon="120.62806762311081"><ele>53.0</ele><time>2026-03-22T05:31:03.002Z</time></trkpt><trkpt lat="24.140175184787093" lon="120.62820357818201"><ele>54.0</ele><time>2026-03-22T05:31:04.002Z</time></trkpt><trkpt lat="24.14015549518743" lon="120.62833389583275"><ele>55.0</ele><time>2026-03-22T05:31:05.002Z</time></trkpt><trkpt lat="24.140137267080675" lon="120.62846387003768"><ele>56.0</ele><time>2026-03-22T05:31:06.002Z</time></trkpt><trkpt lat="24.140099783672675" lon="120.62859825362798"><ele>56.0</ele><time>2026-03-22T05:31:07.002Z</time></trkpt><trkpt lat="24.14005447321505" lon="120.62872956240957"><ele>56.0</ele><time>2026-03-22T05:31:08.002Z</time></trkpt><trkpt lat="24.139997441670076" lon="120.62886313822658"><ele>56.0</ele><time>2026-03-22T05:31:09.002Z</time></trkpt><trkpt lat="24.1399363432303" lon="120.62899589551402"><ele>56.0</ele><time>2026-03-22T05:31:10.002Z</time></trkpt><trkpt lat="24.139863132196083" lon="120.62912457389609"><ele>56.0</ele><time>2026-03-22T05:31:11.002Z</time></trkpt><trkpt lat="24.13978948852952" lon="120.62924944182623"><ele>56.0</ele><time>2026-03-22T05:31:12.002Z</time></trkpt><trkpt lat="24.13971021203236" lon="120.6293752954751"><ele>56.0</ele><time>2026-03-22T05:31:13.002Z</time></trkpt><trkpt lat="24.139626287427813" lon="120.62950333898522"><ele>56.0</ele><time>2026-03-22T05:31:14.002Z</time></trkpt><trkpt lat="24.139536542864036" lon="120.62963148575479"><ele>56.0</ele><time>2026-03-22T05:31:15.002Z</time></trkpt><trkpt lat="24.139448693732263" lon="120.62976369438346"><ele>56.0</ele><time>2026-03-22T05:31:16.002Z</time></trkpt><trkpt lat="24.139360409783606" lon="120.62989418708602"><ele>56.0</ele><time>2026-03-22T05:31:17.002Z</time></trkpt><trkpt lat="24.13927078587107" lon="120.63002107545873"><ele>56.0</ele><time>2026-03-22T05:31:18.002Z</time></trkpt><trkpt lat="24.13918248256825" lon="120.63014609412902"><ele>56.0</ele><time>2026-03-22T05:31:19.002Z</time></trkpt><trkpt lat="24.139096015131717" lon="120.63026978287775"><ele>56.0</ele><time>2026-03-22T05:31:20.002Z</time></trkpt><trkpt lat="24.139009909967136" lon="120.63039329082336"><ele>56.0</ele><time>2026-03-22T05:31:21.002Z</time></trkpt><trkpt lat="24.13892337048968" lon="120.63051742174139"><ele>56.0</ele><time>2026-03-22T05:31:22.002Z</time></trkpt><trkpt lat="24.138838020562915" lon="120.63063984648089"><ele>55.25</ele><time>2026-03-22T05:31:23.002Z</time></trkpt><trkpt lat="24.13875480659027" lon="120.63076120717827"><ele>54.5</ele><time>2026-03-22T05:31:24.002Z</time></trkpt><trkpt lat="24.138674547696656" lon="120.63087806794368"><ele>53.75</ele><time>2026-03-22T05:31:25.002Z</time></trkpt><trkpt lat="24.13859746072575" lon="120.63099031024588"><ele>53.0</ele><time>2026-03-22T05:31:26.002Z</time></trkpt><trkpt lat="24.138523412744128" lon="120.63109812765403"><ele>53.75</ele><time>2026-03-22T05:31:27.002Z</time></trkpt><trkpt lat="24.138449346803945" lon="120.63120597119823"><ele>54.5</ele><time>2026-03-22T05:31:28.002Z</time></trkpt><trkpt lat="24.13837379688807" lon="120.6313162125378"><ele>55.25</ele><time>2026-03-22T05:31:29.002Z</time></trkpt><trkpt lat="24.13828393096445" lon="120.63141759827812"><ele>56.0</ele><time>2026-03-22T05:31:30.002Z</time></trkpt><trkpt lat="24.13820684548133" lon="120.63153135541131"><ele>56.5</ele><time>2026-03-22T05:31:31.002Z</time></trkpt><trkpt lat="24.138129480617252" lon="120.63164666666009"><ele>57.0</ele><time>2026-03-22T05:31:32.003Z</time></trkpt><trkpt lat="24.138048246996906" lon="120.63176237024929"><ele>57.5</ele><time>2026-03-22T05:31:33.003Z</time></trkpt><trkpt lat="24.13798123311305" lon="120.631890590544"><ele>58.0</ele><time>2026-03-22T05:31:34.003Z</time></trkpt><trkpt lat="24.137900936312203" lon="120.63200844839444"><ele>56.75</ele><time>2026-03-22T05:31:35.003Z</time></trkpt><trkpt lat="24.137821104794877" lon="120.63212509211847"><ele>55.5</ele><time>2026-03-22T05:31:36.003Z</time></trkpt><trkpt lat="24.137741884162327" lon="120.63224023057431"><ele>54.25</ele><time>2026-03-22T05:31:37.003Z</time></trkpt><trkpt lat="24.13766182999808" lon="120.63235650867388"><ele>53.0</ele><time>2026-03-22T05:31:38.003Z</time></trkpt><trkpt lat="24.13757941779511" lon="120.63247609514553"><ele>53.0</ele><time>2026-03-22T05:31:39.003Z</time></trkpt><trkpt lat="24.137483316589037" lon="120.63259075386905"><ele>53.0</ele><time>2026-03-22T05:31:40.003Z</time></trkpt><trkpt lat="24.137398861905602" lon="120.63272215378356"><ele>53.0</ele><time>2026-03-22T05:31:41.003Z</time></trkpt><trkpt lat="24.137308554304624" lon="120.63285460131495"><ele>53.0</ele><time>2026-03-22T05:31:42.003Z</time></trkpt><trkpt lat="24.137213821910848" lon="120.63298852525918"><ele>53.333333333333336</ele><time>2026-03-22T05:31:43.003Z</time></trkpt><trkpt lat="24.137116034571413" lon="120.63312444222645"><ele>53.66666666666667</ele><time>2026-03-22T05:31:44.003Z</time></trkpt><trkpt lat="24.13703615094376" lon="120.63327133431818"><ele>54.0</ele><time>2026-03-22T05:31:45.003Z</time></trkpt><trkpt lat="24.136944292690345" lon="120.63340700118192"><ele>54.0</ele><time>2026-03-22T05:31:46.003Z</time></trkpt><trkpt lat="24.13685312034727" lon="120.63354102751681"><ele>54.0</ele><time>2026-03-22T05:31:47.003Z</time></trkpt><trkpt lat="24.136762600186387" lon="120.63367409512064"><ele>54.0</ele><time>2026-03-22T05:31:48.003Z</time></trkpt><trkpt lat="24.136672973728842" lon="120.63380584931222"><ele>54.5</ele><time>2026-03-22T05:31:49.003Z</time></trkpt><trkpt lat="24.13658345573603" lon="120.63393413116172"><ele>55.0</ele><time>2026-03-22T05:31:50.003Z</time></trkpt><trkpt lat="24.136502740309517" lon="120.63406516539244"><ele>55.5</ele><time>2026-03-22T05:31:51.003Z</time></trkpt><trkpt lat="24.136431731659897" lon="120.63419940402517"><ele>56.0</ele><time>2026-03-22T05:31:52.003Z</time></trkpt><trkpt lat="24.13637687447943" lon="120.63433293829567"><ele>56.25</ele><time>2026-03-22T05:31:53.003Z</time></trkpt><trkpt lat="24.136331064224652" lon="120.6344696949718"><ele>56.5</ele><time>2026-03-22T05:31:54.003Z</time></trkpt><trkpt lat="24.13629308850193" lon="120.63460715435859"><ele>56.75</ele><time>2026-03-22T05:31:55.003Z</time></trkpt><trkpt lat="24.13625441245251" lon="120.63474319233264"><ele>57.0</ele><time>2026-03-22T05:31:56.003Z</time></trkpt><trkpt lat="24.136216439084663" lon="120.63487831007343"><ele>56.75</ele><time>2026-03-22T05:31:57.003Z</time></trkpt><trkpt lat="24.13617836513163" lon="120.63501158215777"><ele>56.5</ele><time>2026-03-22T05:31:58.003Z</time></trkpt><trkpt lat="24.136140520911027" lon="120.63514225712508"><ele>56.25</ele><time>2026-03-22T05:31:59.003Z</time></trkpt><trkpt lat="24.13610369696577" lon="120.63527169846631"><ele>56.0</ele><time>2026-03-22T05:32:00.003Z</time></trkpt><trkpt lat="24.13606852844832" lon="120.63539858013597"><ele>56.0</ele><time>2026-03-22T05:32:01.003Z</time></trkpt><trkpt lat="24.13603446232115" lon="120.6355214846014"><ele>55.99999999999999</ele><time>2026-03-22T05:32:02.003Z</time></trkpt><trkpt lat="24.136000713550025" lon="120.63563853488982"><ele>55.99999999999999</ele><time>2026-03-22T05:32:03.003Z</time></trkpt><trkpt lat="24.135969412384807" lon="120.63574704561633"><ele>56.0</ele><time>2026-03-22T05:32:04.003Z</time></trkpt><trkpt lat="24.135940475692205" lon="120.63584924577253"><ele>56.0</ele><time>2026-03-22T05:32:05.003Z</time></trkpt><trkpt lat="24.135913401898467" lon="120.6359456400406"><ele>56.00000000000001</ele><time>2026-03-22T05:32:06.003Z</time></trkpt><trkpt lat="24.13588952287563" lon="120.63603065955876"><ele>56.0</ele><time>2026-03-22T05:32:07.003Z</time></trkpt><trkpt lat="24.135868453316647" lon="120.63610567636216"><ele>56.0</ele><time>2026-03-22T05:32:08.003Z</time></trkpt><trkpt lat="24.135835196291815" lon="120.63623090658302"><ele>56.0</ele><time>2026-03-22T05:32:10.003Z</time></trkpt><trkpt lat="24.13579411155611" lon="120.63632337476666"><ele>56.00000000000001</ele><time>2026-03-22T05:32:12.003Z</time></trkpt><trkpt lat="24.135789638460615" lon="120.636400710027"><ele>56.0</ele><time>2026-03-22T05:32:15.003Z</time></trkpt><trkpt lat="24.13575467106001" lon="120.63649276377815"><ele>56.199999999999996</ele><time>2026-03-22T05:33:47.002Z</time></trkpt><trkpt lat="24.135731533115944" lon="120.63656613414626"><ele>56.39999999999999</ele><time>2026-03-22T05:33:49.002Z</time></trkpt><trkpt lat="24.135708652113063" lon="120.63665393084565"><ele>56.6</ele><time>2026-03-22T05:33:51.002Z</time></trkpt><trkpt lat="24.135679258959026" lon="120.63677439812639"><ele>56.8</ele><time>2026-03-22T05:33:53.002Z</time></trkpt><trkpt lat="24.135649979103942" lon="120.6368987969605"><ele>57.0</ele><time>2026-03-22T05:33:55.002Z</time></trkpt><trkpt lat="24.13562884461797" lon="120.63698018916486"><ele>57.666666666666664</ele><time>2026-03-22T05:33:56.002Z</time></trkpt><trkpt lat="24.135607479817164" lon="120.63705884590938"><ele>58.33333333333333</ele><time>2026-03-22T05:33:57.002Z</time></trkpt><trkpt lat="24.135585625494777" lon="120.63713922898854"><ele>59.0</ele><time>2026-03-22T05:33:58.002Z</time></trkpt><trkpt lat="24.135565024244123" lon="120.63722361819259"><ele>59.666666666666664</ele><time>2026-03-22T05:33:59.002Z</time></trkpt><trkpt lat="24.13554484719939" lon="120.63730567705076"><ele>60.33333333333333</ele><time>2026-03-22T05:34:00.002Z</time></trkpt><trkpt lat="24.135522278335937" lon="120.63738528613091"><ele>61.0</ele><time>2026-03-22T05:34:01.002Z</time></trkpt><trkpt lat="24.135499040620573" lon="120.63747502073966"><ele>60.99999999999999</ele><time>2026-03-22T05:34:02.002Z</time></trkpt><trkpt lat="24.135470522273977" lon="120.63757462039666"><ele>61.0</ele><time>2026-03-22T05:34:03.002Z</time></trkpt><trkpt lat="24.135446749250264" lon="120.63766364653587"><ele>61.0</ele><time>2026-03-22T05:34:04.002Z</time></trkpt><trkpt lat="24.135426527975845" lon="120.63774750914256"><ele>61.0</ele><time>2026-03-22T05:34:05.002Z</time></trkpt><trkpt lat="24.135402834564967" lon="120.63782607711202"><ele>60.99999999999999</ele><time>2026-03-22T05:34:06.002Z</time></trkpt><trkpt lat="24.135383544624144" lon="120.63789792757626"><ele>61.0</ele><time>2026-03-22T05:34:07.002Z</time></trkpt><trkpt lat="24.135357230958164" lon="120.63799425166779"><ele>61.4</ele><time>2026-03-22T05:34:09.002Z</time></trkpt><trkpt lat="24.13533874237345" lon="120.63807159541795"><ele>61.8</ele><time>2026-03-22T05:34:11.002Z</time></trkpt><trkpt lat="24.13530539047088" lon="120.63815281970962"><ele>62.199999999999996</ele><time>2026-03-22T05:34:15.002Z</time></trkpt><trkpt lat="24.135281884761355" lon="120.63823202851424"><ele>62.599999999999994</ele><time>2026-03-22T05:34:17.002Z</time></trkpt><trkpt lat="24.135249209909347" lon="120.63832871728208"><ele>63.0</ele><time>2026-03-22T05:34:19.002Z</time></trkpt><trkpt lat="24.13520856882751" lon="120.63846331392168"><ele>63.0</ele><time>2026-03-22T05:34:21.002Z</time></trkpt><trkpt lat="24.135182312761234" lon="120.63857032161415"><ele>63.0</ele><time>2026-03-22T05:34:22.002Z</time></trkpt><trkpt lat="24.135156496085315" lon="120.63866043470475"><ele>63.0</ele><time>2026-03-22T05:34:23.002Z</time></trkpt><trkpt lat="24.135128889930197" lon="120.63875222224709"><ele>63.0</ele><time>2026-03-22T05:34:24.003Z</time></trkpt><trkpt lat="24.13510094402224" lon="120.6388490234878"><ele>63.0</ele><time>2026-03-22T05:34:25.003Z</time></trkpt><trkpt lat="24.1350655145445" lon="120.63896193496296"><ele>62.75</ele><time>2026-03-22T05:34:26.003Z</time></trkpt><trkpt lat="24.135029007723833" lon="120.63908166986126"><ele>62.5</ele><time>2026-03-22T05:34:27.003Z</time></trkpt><trkpt lat="24.134995084377287" lon="120.63921572613425"><ele>62.25</ele><time>2026-03-22T05:34:28.003Z</time></trkpt><trkpt lat="24.13496039394438" lon="120.63935608341959"><ele>62.0</ele><time>2026-03-22T05:34:29.003Z</time></trkpt><trkpt lat="24.13492771271908" lon="120.63949020126132"><ele>62.0</ele><time>2026-03-22T05:34:30.003Z</time></trkpt><trkpt lat="24.134894751218425" lon="120.63961193546315"><ele>62.0</ele><time>2026-03-22T05:34:31.003Z</time></trkpt><trkpt lat="24.134874271517468" lon="120.63975636648296"><ele>62.0</ele><time>2026-03-22T05:34:32.003Z</time></trkpt><trkpt lat="24.13485409374071" lon="120.63988730113101"><ele>62.0</ele><time>2026-03-22T05:34:33.003Z</time></trkpt><trkpt lat="24.13484560335479" lon="120.64001307239765"><ele>62.0</ele><time>2026-03-22T05:34:34.003Z</time></trkpt><trkpt lat="24.134840781535406" lon="120.64014484492537"><ele>62.0</ele><time>2026-03-22T05:34:35.003Z</time></trkpt><trkpt lat="24.134836480947516" lon="120.64027613683787"><ele>62.0</ele><time>2026-03-22T05:34:36.003Z</time></trkpt><trkpt lat="24.134834737697606" lon="120.64040312277172"><ele>62.0</ele><time>2026-03-22T05:34:37.003Z</time></trkpt><trkpt lat="24.13483139515804" lon="120.64052768270382"><ele>62.0</ele><time>2026-03-22T05:34:38.003Z</time></trkpt><trkpt lat="24.134826442965544" lon="120.64064681883053"><ele>62.0</ele><time>2026-03-22T05:34:39.003Z</time></trkpt><trkpt lat="24.134822392085272" lon="120.64075737803279"><ele>62.0</ele><time>2026-03-22T05:34:40.003Z</time></trkpt><trkpt lat="24.134818788942304" lon="120.64086010797692"><ele>62.0</ele><time>2026-03-22T05:34:41.003Z</time></trkpt><trkpt lat="24.134816082443628" lon="120.64094826030528"><ele>62.0</ele><time>2026-03-22T05:34:42.003Z</time></trkpt><trkpt lat="24.13481124706255" lon="120.64102911091734"><ele>62.0</ele><time>2026-03-22T05:34:43.003Z</time></trkpt><trkpt lat="24.134806962098963" lon="120.6411132562033"><ele>62.00000000000001</ele><time>2026-03-22T05:34:44.003Z</time></trkpt><trkpt lat="24.134802528652965" lon="120.64119472914383"><ele>62.0</ele><time>2026-03-22T05:34:45.003Z</time></trkpt><trkpt lat="24.13479769251316" lon="120.64127280124093"><ele>62.0</ele><time>2026-03-22T05:34:46.003Z</time></trkpt><trkpt lat="24.134804394836284" lon="120.64134867174744"><ele>62.00000000000001</ele><time>2026-03-22T05:34:47.003Z</time></trkpt><trkpt lat="24.134808872558853" lon="120.64142953180685"><ele>62.0</ele><time>2026-03-22T05:34:48.001Z</time></trkpt><trkpt lat="24.13480750486554" lon="120.64151348574967"><ele>62.0</ele><time>2026-03-22T05:34:49.001Z</time></trkpt><trkpt lat="24.13480564245562" lon="120.64159701947416"><ele>61.400000000000006</ele><time>2026-03-22T05:34:50.001Z</time></trkpt><trkpt lat="24.134803393757604" lon="120.64169005797258"><ele>60.800000000000004</ele><time>2026-03-22T05:34:51.001Z</time></trkpt><trkpt lat="24.134799271393934" lon="120.64178973555235"><ele>60.2</ele><time>2026-03-22T05:34:52.001Z</time></trkpt><trkpt lat="24.134778643417054" lon="120.64189203716926"><ele>59.6</ele><time>2026-03-22T05:34:53.001Z</time></trkpt><trkpt lat="24.13477576895289" lon="120.64199934448146"><ele>59.0</ele><time>2026-03-22T05:34:54.001Z</time></trkpt><trkpt lat="24.13477509029049" lon="120.64210494100624"><ele>59.00000000000001</ele><time>2026-03-22T05:34:55.001Z</time></trkpt><trkpt lat="24.13477097432763" lon="120.64220827873157"><ele>59.0</ele><time>2026-03-22T05:34:56.001Z</time></trkpt><trkpt lat="24.13476869626474" lon="120.64230863097103"><ele>59.0</ele><time>2026-03-22T05:34:57.001Z</time></trkpt><trkpt lat="24.134765010582623" lon="120.6424056982739"><ele>59.0</ele><time>2026-03-22T05:34:58.001Z</time></trkpt><trkpt lat="24.13476184943269" lon="120.6424966424193"><ele>59.00000000000001</ele><time>2026-03-22T05:34:59.001Z</time></trkpt><trkpt lat="24.134758282413134" lon="120.64257665976626"><ele>59.0</ele><time>2026-03-22T05:35:00.001Z</time></trkpt><trkpt lat="24.134755215311195" lon="120.64264597092104"><ele>59.0</ele><time>2026-03-22T05:35:01.001Z</time></trkpt><trkpt lat="24.134750878552182" lon="120.64275436941048"><ele>59.00000000000001</ele><time>2026-03-22T05:35:03.001Z</time></trkpt><trkpt lat="24.13474745390126" lon="120.64285426950076"><ele>59.00000000000001</ele><time>2026-03-22T05:35:05.001Z</time></trkpt><trkpt lat="24.13474432101172" lon="120.64296611361613"><ele>59.0</ele><time>2026-03-22T05:35:07.001Z</time></trkpt><trkpt lat="24.134739742453732" lon="120.64310263805677"><ele>59.0</ele><time>2026-03-22T05:35:09.001Z</time></trkpt><trkpt lat="24.134736007694766" lon="120.6432251852606"><ele>59.833333333333336</ele><time>2026-03-22T05:35:11.001Z</time></trkpt><trkpt lat="24.134732487080313" lon="120.64333376134734"><ele>60.66666666666667</ele><time>2026-03-22T05:35:13.001Z</time></trkpt><trkpt lat="24.134729624652344" lon="120.64341756637513"><ele>61.5</ele><time>2026-03-22T05:35:15.001Z</time></trkpt><trkpt lat="24.13472423052707" lon="120.6434936025185"><ele>62.33333333333333</ele><time>2026-03-22T05:35:18.001Z</time></trkpt><trkpt lat="24.134737023729844" lon="120.64359384560233"><ele>63.166666666666664</ele><time>2026-03-22T05:36:22.001Z</time></trkpt><trkpt lat="24.134732543312985" lon="120.64368810007181"><ele>64.0</ele><time>2026-03-22T05:36:24.001Z</time></trkpt><trkpt lat="24.134721724136178" lon="120.64378029482745"><ele>64.0</ele><time>2026-03-22T05:36:26.001Z</time></trkpt><trkpt lat="24.13471820474724" lon="120.64385673049652"><ele>63.99999999999999</ele><time>2026-03-22T05:36:27.001Z</time></trkpt><trkpt lat="24.134717115388543" lon="120.6439267204078"><ele>64.0</ele><time>2026-03-22T05:36:28.001Z</time></trkpt><trkpt lat="24.13471097349273" lon="120.64399582489276"><ele>64.0</ele><time>2026-03-22T05:36:29.001Z</time></trkpt><trkpt lat="24.13470711955635" lon="120.64406812036118"><ele>63.99999999999999</ele><time>2026-03-22T05:36:30.001Z</time></trkpt><trkpt lat="24.13470306199629" lon="120.64415440489313"><ele>64.0</ele><time>2026-03-22T05:36:31.001Z</time></trkpt><trkpt lat="24.134698814554095" lon="120.64425029442417"><ele>64.0</ele><time>2026-03-22T05:36:32.001Z</time></trkpt><trkpt lat="24.134693558365644" lon="120.64433651831524"><ele>64.0</ele><time>2026-03-22T05:36:33.001Z</time></trkpt><trkpt lat="24.134691105940743" lon="120.64444527640234"><ele>64.0</ele><time>2026-03-22T05:36:34.001Z</time></trkpt><trkpt lat="24.134685819508015" lon="120.64455547916367"><ele>64.0</ele><time>2026-03-22T05:36:35.001Z</time></trkpt><trkpt lat="24.1346850245985" lon="120.64466505022828"><ele>64.0</ele><time>2026-03-22T05:36:36.001Z</time></trkpt><trkpt lat="24.134682577560966" lon="120.64477016986534"><ele>64.0</ele><time>2026-03-22T05:36:37.001Z</time></trkpt><trkpt lat="24.1346757583607" lon="120.64486557089876"><ele>64.0</ele><time>2026-03-22T05:36:38.001Z</time></trkpt><trkpt lat="24.13467259526204" lon="120.64499448540755"><ele>64.0</ele><time>2026-03-22T05:36:39.001Z</time></trkpt><trkpt lat="24.134668720410424" lon="120.6451286812812"><ele>64.0</ele><time>2026-03-22T05:36:40.001Z</time></trkpt><trkpt lat="24.134664905160644" lon="120.64525806673952"><ele>64.0</ele><time>2026-03-22T05:36:41.001Z</time></trkpt><trkpt lat="24.134659441766203" lon="120.64538631374892"><ele>64.0</ele><time>2026-03-22T05:36:42.001Z</time></trkpt><trkpt lat="24.134653051382895" lon="120.64551035857073"><ele>64.0</ele><time>2026-03-22T05:36:43.001Z</time></trkpt><trkpt lat="24.134646180123976" lon="120.64562967670096"><ele>64.0</ele><time>2026-03-22T05:36:44.001Z</time></trkpt><trkpt lat="24.1346407546897" lon="120.64575088494995"><ele>64.0</ele><time>2026-03-22T05:36:45.001Z</time></trkpt><trkpt lat="24.13464969559928" lon="120.64588049711703"><ele>64.0</ele><time>2026-03-22T05:36:46.001Z</time></trkpt><trkpt lat="24.13464743999754" lon="120.64601069438585"><ele>64.0</ele><time>2026-03-22T05:36:47.001Z</time></trkpt><trkpt lat="24.134644472133935" lon="120.64614289487496"><ele>64.0</ele><time>2026-03-22T05:36:48.001Z</time></trkpt><trkpt lat="24.134640353938057" lon="120.64626993362573"><ele>64.0</ele><time>2026-03-22T05:36:49.001Z</time></trkpt><trkpt lat="24.134632631212753" lon="120.64639783138378"><ele>64.0</ele><time>2026-03-22T05:36:50.001Z</time></trkpt><trkpt lat="24.134634179188904" lon="120.64652297181344"><ele>64.0</ele><time>2026-03-22T05:36:51.001Z</time></trkpt><trkpt lat="24.134636067251996" lon="120.64663785104992"><ele>64.0</ele><time>2026-03-22T05:36:52.001Z</time></trkpt><trkpt lat="24.13464396509323" lon="120.64678350076308"><ele>64.0</ele><time>2026-03-22T05:36:53.001Z</time></trkpt><trkpt lat="24.134648559528507" lon="120.6468915830075"><ele>65.0</ele><time>2026-03-22T05:36:53.999Z</time></trkpt><trkpt lat="24.13465526489276" lon="120.64703617412758"><ele>66.0</ele><time>2026-03-22T05:36:54.999Z</time></trkpt><trkpt lat="24.13466253261386" lon="120.64717842001615"><ele>67.0</ele><time>2026-03-22T05:36:55.999Z</time></trkpt><trkpt lat="24.13466959576609" lon="120.64731666133386"><ele>68.0</ele><time>2026-03-22T05:36:56.999Z</time></trkpt><trkpt lat="24.134676483418744" lon="120.64744962594594"><ele>68.0</ele><time>2026-03-22T05:36:57.999Z</time></trkpt><trkpt lat="24.13466865557494" lon="120.64758469369676"><ele>68.0</ele><time>2026-03-22T05:36:58.999Z</time></trkpt><trkpt lat="24.134679244183474" lon="120.64772294017318"><ele>68.0</ele><time>2026-03-22T05:36:59.999Z</time></trkpt><trkpt lat="24.13468530221317" lon="120.64785936972929"><ele>68.0</ele><time>2026-03-22T05:37:00.999Z</time></trkpt><trkpt lat="24.134696470986555" lon="120.64799275308228"><ele>68.0</ele><time>2026-03-22T05:37:01.999Z</time></trkpt><trkpt lat="24.13470090199528" lon="120.64812319898297"><ele>68.0</ele><time>2026-03-22T05:37:02.999Z</time></trkpt><trkpt lat="24.134706010886912" lon="120.64825339221734"><ele>68.0</ele><time>2026-03-22T05:37:03.999Z</time></trkpt><trkpt lat="24.134710880202416" lon="120.64838192859959"><ele>68.0</ele><time>2026-03-22T05:37:04.999Z</time></trkpt><trkpt lat="24.13472199798002" lon="120.64850727813554"><ele>67.2</ele><time>2026-03-22T05:37:05.999Z</time></trkpt><trkpt lat="24.134723309803654" lon="120.64863206117752"><ele>66.4</ele><time>2026-03-22T05:37:06.999Z</time></trkpt><trkpt lat="24.13473012753852" lon="120.64875660028225"><ele>65.60000000000001</ele><time>2026-03-22T05:37:07.999Z</time></trkpt><trkpt lat="24.13473483530295" lon="120.64887831216288"><ele>64.8</ele><time>2026-03-22T05:37:08.999Z</time></trkpt><trkpt lat="24.13473899909371" lon="120.64899401292229"><ele>64.0</ele><time>2026-03-22T05:37:09.999Z</time></trkpt><trkpt lat="24.134742901215045" lon="120.64910202231162"><ele>63.99999999999999</ele><time>2026-03-22T05:37:10.999Z</time></trkpt><trkpt lat="24.13474803847967" lon="120.6492064677824"><ele>64.0</ele><time>2026-03-22T05:37:11.999Z</time></trkpt><trkpt lat="24.134751898856003" lon="120.64930208641637"><ele>64.0</ele><time>2026-03-22T05:37:12.999Z</time></trkpt><trkpt lat="24.134755648710808" lon="120.64938884943881"><ele>64.0</ele><time>2026-03-22T05:37:13.999Z</time></trkpt><trkpt lat="24.134758812722776" lon="120.64946862231201"><ele>63.99999999999999</ele><time>2026-03-22T05:37:14.999Z</time></trkpt><trkpt lat="24.134763252536665" lon="120.64959132316908"><ele>64.0</ele><time>2026-03-22T05:37:16.999Z</time></trkpt><trkpt lat="24.134766835461782" lon="120.64966667474249"><ele>63.800000000000004</ele><time>2026-03-22T05:37:18.999Z</time></trkpt><trkpt lat="24.134786190758394" lon="120.64975026387997"><ele>63.60000000000001</ele><time>2026-03-22T05:37:50Z</time></trkpt><trkpt lat="24.13479204266422" lon="120.64983371785743"><ele>63.4</ele><time>2026-03-22T05:37:52Z</time></trkpt><trkpt lat="24.134799124212737" lon="120.6499407968366"><ele>63.2</ele><time>2026-03-22T05:37:54Z</time></trkpt><trkpt lat="24.13481073821281" lon="120.65001875143552"><ele>63.0</ele><time>2026-03-22T05:37:56Z</time></trkpt><trkpt lat="24.134953055435535" lon="120.65000344550674"><ele>64.6</ele><time>2026-03-22T05:37:57Z</time></trkpt><trkpt lat="24.135072884347593" lon="120.65000213398149"><ele>66.19999999999999</ele><time>2026-03-22T05:37:59Z</time></trkpt><trkpt lat="24.135152841809145" lon="120.65000125885126"><ele>67.8</ele><time>2026-03-22T05:38:00Z</time></trkpt><trkpt lat="24.135249993075305" lon="120.65000019553068"><ele>69.39999999999999</ele><time>2026-03-22T05:38:01Z</time></trkpt><trkpt lat="24.135370320647247" lon="120.64999887855774"><ele>71.0</ele><time>2026-03-22T05:38:02Z</time></trkpt><trkpt lat="24.135477018968142" lon="120.6499993005156"><ele>71.0</ele><time>2026-03-22T05:38:03Z</time></trkpt><trkpt lat="24.1355853294986" lon="120.64999930051707"><ele>71.0</ele><time>2026-03-22T05:38:04Z</time></trkpt><trkpt lat="24.135693890586847" lon="120.64999930051859"><ele>71.0</ele><time>2026-03-22T05:38:05Z</time></trkpt><trkpt lat="24.135800326573992" lon="120.64999930052228"><ele>71.0</ele><time>2026-03-22T05:38:06Z</time></trkpt><trkpt lat="24.13590483089426" lon="120.64999930052299"><ele>71.0</ele><time>2026-03-22T05:38:07Z</time></trkpt><trkpt lat="24.136007915163002" lon="120.64999675097363"><ele>71.5</ele><time>2026-03-22T05:38:08Z</time></trkpt><trkpt lat="24.136106860749337" lon="120.64999612558418"><ele>72.0</ele><time>2026-03-22T05:38:09Z</time></trkpt><trkpt lat="24.13620417823064" lon="120.64999551048665"><ele>72.5</ele><time>2026-03-22T05:38:10Z</time></trkpt><trkpt lat="24.136288261232014" lon="120.64999468986778"><ele>73.0</ele><time>2026-03-22T05:38:11Z</time></trkpt><trkpt lat="24.136362463357827" lon="120.64999379748902"><ele>73.5</ele><time>2026-03-22T05:38:12Z</time></trkpt><trkpt lat="24.136430111307742" lon="120.64999298393758"><ele>74.0</ele><time>2026-03-22T05:38:13Z</time></trkpt><trkpt lat="24.136533839082468" lon="120.64999173647053"><ele>73.75</ele><time>2026-03-22T05:38:15Z</time></trkpt><trkpt lat="24.1365863917887" lon="120.65023409943359"><ele>73.5</ele><time>2026-03-22T05:38:19Z</time></trkpt><trkpt lat="24.13653453251565" lon="120.65034889977575"><ele>73.25</ele><time>2026-03-22T05:38:21Z</time></trkpt><trkpt lat="24.136514732234847" lon="120.6504385834194"><ele>73.0</ele><time>2026-03-22T05:38:22Z</time></trkpt><trkpt lat="24.136475792524113" lon="120.65052700939637"><ele>73.0</ele><time>2026-03-22T05:38:23Z</time></trkpt><trkpt lat="24.13644085293813" lon="120.65061055385154"><ele>73.0</ele><time>2026-03-22T05:38:24Z</time></trkpt><trkpt lat="24.136408608971674" lon="120.65069429534532"><ele>73.0</ele><time>2026-03-22T05:38:25Z</time></trkpt><trkpt lat="24.136384320860785" lon="120.65077619596208"><ele>73.0</ele><time>2026-03-22T05:38:26Z</time></trkpt><trkpt lat="24.136357703016014" lon="120.6508504438114"><ele>73.0</ele><time>2026-03-22T05:38:27Z</time></trkpt><trkpt lat="24.136332852795853" lon="120.650916616012"><ele>73.0</ele><time>2026-03-22T05:38:28Z</time></trkpt><trkpt lat="24.136297012451767" lon="120.65102671042266"><ele>73.0</ele><time>2026-03-22T05:38:30Z</time></trkpt><trkpt lat="24.13627328003994" lon="120.65109504121651"><ele>73.0</ele><time>2026-03-22T05:38:32Z</time></trkpt><trkpt lat="24.136247440063524" lon="120.65116716922608"><ele>73.0</ele><time>2026-03-22T05:38:43.001Z</time></trkpt><trkpt lat="24.13622691035334" lon="120.65123356311962"><ele>73.0</ele><time>2026-03-22T05:38:45.001Z</time></trkpt><trkpt lat="24.13620288957101" lon="120.6513109068747"><ele>73.0</ele><time>2026-03-22T05:38:47.001Z</time></trkpt><trkpt lat="24.136165748676916" lon="120.65143341055467"><ele>73.0</ele><time>2026-03-22T05:38:49.001Z</time></trkpt><trkpt lat="24.136129050753766" lon="120.65155976585058"><ele>72.66666666666666</ele><time>2026-03-22T05:38:51.001Z</time></trkpt><trkpt lat="24.13610818214367" lon="120.65163709432485"><ele>72.33333333333333</ele><time>2026-03-22T05:38:52.001Z</time></trkpt><trkpt lat="24.136085026357712" lon="120.65172024842767"><ele>72.0</ele><time>2026-03-22T05:38:53.001Z</time></trkpt><trkpt lat="24.13606012945246" lon="120.6518063294182"><ele>71.66666666666667</ele><time>2026-03-22T05:38:54.001Z</time></trkpt><trkpt lat="24.13603603733003" lon="120.65188456899716"><ele>71.33333333333334</ele><time>2026-03-22T05:38:55.001Z</time></trkpt><trkpt lat="24.136012876833885" lon="120.65196247560147"><ele>71.0</ele><time>2026-03-22T05:38:56.001Z</time></trkpt><trkpt lat="24.13599007545578" lon="120.65203887912287"><ele>71.0</ele><time>2026-03-22T05:38:57.001Z</time></trkpt><trkpt lat="24.135969597056608" lon="120.65210787772665"><ele>71.0</ele><time>2026-03-22T05:38:58.001Z</time></trkpt><trkpt lat="24.13594904213472" lon="120.65217602319834"><ele>71.0</ele><time>2026-03-22T05:38:59.001Z</time></trkpt><trkpt lat="24.13592834844088" lon="120.65224830177496"><ele>71.0</ele><time>2026-03-22T05:39:00Z</time></trkpt><trkpt lat="24.135908553707722" lon="120.65231963389695"><ele>71.0</ele><time>2026-03-22T05:39:01Z</time></trkpt><trkpt lat="24.13588759184254" lon="120.65238722282615"><ele>71.0</ele><time>2026-03-22T05:39:02Z</time></trkpt><trkpt lat="24.13586819128265" lon="120.65245947471143"><ele>71.0</ele><time>2026-03-22T05:39:03Z</time></trkpt><trkpt lat="24.13584727521967" lon="120.65253456684471"><ele>71.0</ele><time>2026-03-22T05:39:04Z</time></trkpt><trkpt lat="24.135828648037513" lon="120.6526143650369"><ele>71.0</ele><time>2026-03-22T05:39:05Z</time></trkpt><trkpt lat="24.135805624062012" lon="120.65269318172541"><ele>71.0</ele><time>2026-03-22T05:39:06Z</time></trkpt><trkpt lat="24.13577823154342" lon="120.65277760984226"><ele>71.0</ele><time>2026-03-22T05:39:07Z</time></trkpt><trkpt lat="24.135750172921185" lon="120.65286600802038"><ele>71.0</ele><time>2026-03-22T05:39:08Z</time></trkpt><trkpt lat="24.135721630582662" lon="120.65296187229099"><ele>71.0</ele><time>2026-03-22T05:39:09Z</time></trkpt><trkpt lat="24.13569020441017" lon="120.65305428277817"><ele>70.66666666666667</ele><time>2026-03-22T05:39:10Z</time></trkpt><trkpt lat="24.13566342646938" lon="120.65314627665373"><ele>70.33333333333334</ele><time>2026-03-22T05:39:11Z</time></trkpt><trkpt lat="24.135634084056935" lon="120.65323258895904"><ele>70.0</ele><time>2026-03-22T05:39:12Z</time></trkpt><trkpt lat="24.13560130201964" lon="120.65331448852373"><ele>69.66666666666667</ele><time>2026-03-22T05:39:13Z</time></trkpt><trkpt lat="24.135572792404897" lon="120.65340747139994"><ele>69.33333333333333</ele><time>2026-03-22T05:39:14Z</time></trkpt><trkpt lat="24.135549248407983" lon="120.65351450525895"><ele>69.0</ele><time>2026-03-22T05:39:15Z</time></trkpt><trkpt lat="24.135521283708766" lon="120.65361876920998"><ele>68.60000000000001</ele><time>2026-03-22T05:39:16Z</time></trkpt><trkpt lat="24.1354919097999" lon="120.65372054051258"><ele>68.2</ele><time>2026-03-22T05:39:17Z</time></trkpt><trkpt lat="24.13545961233426" lon="120.65383142565034"><ele>67.80000000000001</ele><time>2026-03-22T05:39:18Z</time></trkpt><trkpt lat="24.135424740202584" lon="120.65394821449044"><ele>67.4</ele><time>2026-03-22T05:39:19Z</time></trkpt><trkpt lat="24.135388434564906" lon="120.6540712666283"><ele>67.0</ele><time>2026-03-22T05:39:20Z</time></trkpt><trkpt lat="24.135350339582175" lon="120.65419587473454"><ele>67.0</ele><time>2026-03-22T05:39:21Z</time></trkpt><trkpt lat="24.13531434458393" lon="120.65431812731549"><ele>67.0</ele><time>2026-03-22T05:39:22Z</time></trkpt><trkpt lat="24.13527269744879" lon="120.65443701608973"><ele>67.0</ele><time>2026-03-22T05:39:23Z</time></trkpt><trkpt lat="24.13523436784375" lon="120.65455934229018"><ele>67.0</ele><time>2026-03-22T05:39:24Z</time></trkpt><trkpt lat="24.135187082005533" lon="120.65467963374832"><ele>67.25</ele><time>2026-03-22T05:39:25Z</time></trkpt><trkpt lat="24.135148426551467" lon="120.65479899458111"><ele>67.5</ele><time>2026-03-22T05:39:26Z</time></trkpt><trkpt lat="24.135108318276778" lon="120.65491565717763"><ele>67.75</ele><time>2026-03-22T05:39:27Z</time></trkpt><trkpt lat="24.13506380964679" lon="120.65503196290115"><ele>68.0</ele><time>2026-03-22T05:39:28Z</time></trkpt><trkpt lat="24.13501601526283" lon="120.65514369027213"><ele>68.0</ele><time>2026-03-22T05:39:29Z</time></trkpt><trkpt lat="24.134961864602115" lon="120.65525243937371"><ele>68.0</ele><time>2026-03-22T05:39:30Z</time></trkpt><trkpt lat="24.134904117334788" lon="120.65536014219786"><ele>68.0</ele><time>2026-03-22T05:39:31Z</time></trkpt><trkpt lat="24.134843514589136" lon="120.65546992814632"><ele>68.0</ele><time>2026-03-22T05:39:32Z</time></trkpt><trkpt lat="24.134782328316803" lon="120.65557641391261"><ele>69.0</ele><time>2026-03-22T05:39:33Z</time></trkpt><trkpt lat="24.134722238108377" lon="120.6556762512912"><ele>70.0</ele><time>2026-03-22T05:39:34Z</time></trkpt><trkpt lat="24.13466320487858" lon="120.65577893349347"><ele>71.0</ele><time>2026-03-22T05:39:35Z</time></trkpt><trkpt lat="24.134605261424262" lon="120.65588103384891"><ele>72.0</ele><time>2026-03-22T05:39:36Z</time></trkpt><trkpt lat="24.13454871546069" lon="120.65597819853122"><ele>73.0</ele><time>2026-03-22T05:39:37Z</time></trkpt><trkpt lat="24.134498262641507" lon="120.65606386595208"><ele>73.66666666666666</ele><time>2026-03-22T05:39:38Z</time></trkpt><trkpt lat="24.13444553653834" lon="120.6561356510603"><ele>74.33333333333333</ele><time>2026-03-22T05:39:39Z</time></trkpt><trkpt lat="24.134395424352387" lon="120.65620666058781"><ele>75.0</ele><time>2026-03-22T05:39:40Z</time></trkpt><trkpt lat="24.134349045742674" lon="120.65627943350978"><ele>75.66666666666667</ele><time>2026-03-22T05:39:41Z</time></trkpt><trkpt lat="24.134305394018924" lon="120.6563536096988"><ele>76.33333333333334</ele><time>2026-03-22T05:39:42Z</time></trkpt><trkpt lat="24.13425840403551" lon="120.65643293411269"><ele>77.0</ele><time>2026-03-22T05:39:43Z</time></trkpt><trkpt lat="24.13421148471997" lon="120.65651246037395"><ele>77.0</ele><time>2026-03-22T05:39:44Z</time></trkpt><trkpt lat="24.134162527493768" lon="120.65659545062871"><ele>77.0</ele><time>2026-03-22T05:39:45Z</time></trkpt><trkpt lat="24.134112830456633" lon="120.65667361678553"><ele>77.0</ele><time>2026-03-22T05:39:46Z</time></trkpt><trkpt lat="24.13406648432907" lon="120.6567528410996"><ele>77.0</ele><time>2026-03-22T05:39:47Z</time></trkpt><trkpt lat="24.134018414693312" lon="120.65684273593489"><ele>77.0</ele><time>2026-03-22T05:39:48Z</time></trkpt><trkpt lat="24.133971429943397" lon="120.65692687929041"><ele>77.0</ele><time>2026-03-22T05:39:49Z</time></trkpt><trkpt lat="24.133925386977158" lon="120.65701502313787"><ele>75.83333333333334</ele><time>2026-03-22T05:39:50Z</time></trkpt><trkpt lat="24.133885570354167" lon="120.65710547404208"><ele>74.66666666666667</ele><time>2026-03-22T05:39:51Z</time></trkpt><trkpt lat="24.13383798184909" lon="120.65718343488588"><ele>73.5</ele><time>2026-03-22T05:39:52Z</time></trkpt><trkpt lat="24.13380292681514" lon="120.65727116838573"><ele>72.33333333333333</ele><time>2026-03-22T05:39:53Z</time></trkpt><trkpt lat="24.133773764520424" lon="120.6573603599153"><ele>71.16666666666666</ele><time>2026-03-22T05:39:54Z</time></trkpt><trkpt lat="24.133753026022323" lon="120.65745102558377"><ele>70.0</ele><time>2026-03-22T05:39:55Z</time></trkpt><trkpt lat="24.1337384018024" lon="120.6575472545433"><ele>70.0</ele><time>2026-03-22T05:39:56Z</time></trkpt><trkpt lat="24.13372025138289" lon="120.65764307387072"><ele>70.0</ele><time>2026-03-22T05:39:57Z</time></trkpt><trkpt lat="24.133702885745507" lon="120.65773078466658"><ele>70.0</ele><time>2026-03-22T05:39:58Z</time></trkpt><trkpt lat="24.133685071589646" lon="120.65781594374059"><ele>70.0</ele><time>2026-03-22T05:39:59Z</time></trkpt><trkpt lat="24.133672281057645" lon="120.65790315739986"><ele>70.0</ele><time>2026-03-22T05:40:00Z</time></trkpt><trkpt lat="24.13366026580031" lon="120.65799273775637"><ele>70.0</ele><time>2026-03-22T05:40:01Z</time></trkpt><trkpt lat="24.13364546706504" lon="120.65809006254571"><ele>69.8</ele><time>2026-03-22T05:40:02Z</time></trkpt><trkpt lat="24.133627928225625" lon="120.65818830317974"><ele>69.6</ele><time>2026-03-22T05:40:03Z</time></trkpt><trkpt lat="24.133609467361243" lon="120.65828844878713"><ele>69.4</ele><time>2026-03-22T05:40:04Z</time></trkpt><trkpt lat="24.13359479112582" lon="120.65838971433682"><ele>69.2</ele><time>2026-03-22T05:40:05Z</time></trkpt><trkpt lat="24.13357743110457" lon="120.65849007535776"><ele>69.0</ele><time>2026-03-22T05:40:06Z</time></trkpt><trkpt lat="24.13355694418901" lon="120.65859565899545"><ele>69.0</ele><time>2026-03-22T05:40:07Z</time></trkpt><trkpt lat="24.133533230341527" lon="120.65870507047411"><ele>69.0</ele><time>2026-03-22T05:40:08Z</time></trkpt><trkpt lat="24.13351838196982" lon="120.65881484470644"><ele>69.0</ele><time>2026-03-22T05:40:09Z</time></trkpt><trkpt lat="24.133500747773112" lon="120.6589251409044"><ele>69.0</ele><time>2026-03-22T05:40:10Z</time></trkpt><trkpt lat="24.133483205631286" lon="120.65903061563456"><ele>69.0</ele><time>2026-03-22T05:40:11.001Z</time></trkpt><trkpt lat="24.133464436087404" lon="120.6591341136222"><ele>69.0</ele><time>2026-03-22T05:40:12.001Z</time></trkpt><trkpt lat="24.133439053622826" lon="120.65923381369082"><ele>69.0</ele><time>2026-03-22T05:40:13.001Z</time></trkpt><trkpt lat="24.133403593911265" lon="120.6593292272349"><ele>69.0</ele><time>2026-03-22T05:40:14.001Z</time></trkpt><trkpt lat="24.133363006473203" lon="120.6594103854284"><ele>69.0</ele><time>2026-03-22T05:40:15.001Z</time></trkpt><trkpt lat="24.133321524397303" lon="120.65949992734275"><ele>69.0</ele><time>2026-03-22T05:40:16.001Z</time></trkpt><trkpt lat="24.13328210634463" lon="120.65959038449311"><ele>69.16666666666667</ele><time>2026-03-22T05:40:17.001Z</time></trkpt><trkpt lat="24.13323683810602" lon="120.65968763795632"><ele>69.33333333333333</ele><time>2026-03-22T05:40:18.001Z</time></trkpt><trkpt lat="24.133183873738016" lon="120.65974300569273"><ele>69.5</ele><time>2026-03-22T05:40:19.001Z</time></trkpt><trkpt lat="24.1331412711579" lon="120.65982950468549"><ele>69.66666666666666</ele><time>2026-03-22T05:40:20.001Z</time></trkpt><trkpt lat="24.13310624783903" lon="120.65991618385061"><ele>69.83333333333333</ele><time>2026-03-22T05:40:21.001Z</time></trkpt><trkpt lat="24.133065805660184" lon="120.65999418235215"><ele>70.0</ele><time>2026-03-22T05:40:22.001Z</time></trkpt><trkpt lat="24.13301712048456" lon="120.6600780824194"><ele>70.0</ele><time>2026-03-22T05:40:23.001Z</time></trkpt><trkpt lat="24.132970955467798" lon="120.66017044849208"><ele>70.0</ele><time>2026-03-22T05:40:24.001Z</time></trkpt><trkpt lat="24.132910099784752" lon="120.6602474702064"><ele>70.0</ele><time>2026-03-22T05:40:25.001Z</time></trkpt><trkpt lat="24.132864314903554" lon="120.6603306503312"><ele>70.0</ele><time>2026-03-22T05:40:26.001Z</time></trkpt><trkpt lat="24.13281748675409" lon="120.6604131968455"><ele>70.0</ele><time>2026-03-22T05:40:27.001Z</time></trkpt><trkpt lat="24.132767462053803" lon="120.66050251939774"><ele>70.66666666666666</ele><time>2026-03-22T05:40:28.001Z</time></trkpt><trkpt lat="24.13272191632972" lon="120.6605832450834"><ele>71.33333333333333</ele><time>2026-03-22T05:40:29.001Z</time></trkpt><trkpt lat="24.132678526897795" lon="120.66065911627992"><ele>72.0</ele><time>2026-03-22T05:40:30.001Z</time></trkpt><trkpt lat="24.132636323048057" lon="120.66073966270473"><ele>72.66666666666667</ele><time>2026-03-22T05:40:31.001Z</time></trkpt><trkpt lat="24.13259893074325" lon="120.66081656709588"><ele>73.33333333333334</ele><time>2026-03-22T05:40:32.001Z</time></trkpt><trkpt lat="24.132565489569817" lon="120.66087696639539"><ele>74.0</ele><time>2026-03-22T05:40:33.001Z</time></trkpt><trkpt lat="24.132519012271025" lon="120.66096509802556"><ele>74.0</ele><time>2026-03-22T05:40:35.001Z</time></trkpt><trkpt lat="24.132470931935295" lon="120.6610622160804"><ele>74.0</ele><time>2026-03-22T05:40:37.001Z</time></trkpt><trkpt lat="24.132437943475196" lon="120.66114027186181"><ele>74.0</ele><time>2026-03-22T05:40:39.001Z</time></trkpt><trkpt lat="24.132393952415402" lon="120.6611909553579"><ele>74.0</ele><time>2026-03-22T05:40:42.001Z</time></trkpt><trkpt lat="24.13235763926147" lon="120.66125411206774"><ele>74.0</ele><time>2026-03-22T05:41:55.001Z</time></trkpt><trkpt lat="24.13231758007144" lon="120.66132049289823"><ele>74.0</ele><time>2026-03-22T05:41:57.001Z</time></trkpt><trkpt lat="24.13227078233349" lon="120.66140532300643"><ele>73.0</ele><time>2026-03-22T05:41:59.001Z</time></trkpt><trkpt lat="24.132211834040245" lon="120.66151314562623"><ele>72.0</ele><time>2026-03-22T05:42:01.001Z</time></trkpt><trkpt lat="24.132155009164183" lon="120.66163606629739"><ele>71.0</ele><time>2026-03-22T05:42:03.001Z</time></trkpt><trkpt lat="24.132133604473015" lon="120.66171172133659"><ele>70.0</ele><time>2026-03-22T05:42:04.001Z</time></trkpt><trkpt lat="24.132118534957954" lon="120.66179218239101"><ele>69.0</ele><time>2026-03-22T05:42:05.001Z</time></trkpt><trkpt lat="24.132110346004545" lon="120.66188368521513"><ele>69.0</ele><time>2026-03-22T05:42:06.001Z</time></trkpt><trkpt lat="24.132110880453954" lon="120.66197613627595"><ele>69.0</ele><time>2026-03-22T05:42:07.001Z</time></trkpt><trkpt lat="24.132108614967514" lon="120.6620739082202"><ele>69.0</ele><time>2026-03-22T05:42:08.001Z</time></trkpt><trkpt lat="24.13210732980639" lon="120.66217628641947"><ele>69.0</ele><time>2026-03-22T05:42:09.001Z</time></trkpt><trkpt lat="24.13210616182537" lon="120.66227717981752"><ele>69.0</ele><time>2026-03-22T05:42:10.001Z</time></trkpt><trkpt lat="24.13211128450206" lon="120.66237844651411"><ele>69.0</ele><time>2026-03-22T05:42:11.001Z</time></trkpt><trkpt lat="24.132117344671332" lon="120.66248243310828"><ele>69.0</ele><time>2026-03-22T05:42:12.001Z</time></trkpt><trkpt lat="24.132120596069413" lon="120.66258954169656"><ele>69.0</ele><time>2026-03-22T05:42:13.001Z</time></trkpt><trkpt lat="24.132118229433335" lon="120.66269639449557"><ele>69.0</ele><time>2026-03-22T05:42:14.001Z</time></trkpt><trkpt lat="24.132118822709685" lon="120.66280810449113"><ele>69.0</ele><time>2026-03-22T05:42:15.001Z</time></trkpt><trkpt lat="24.132113893596493" lon="120.66292005438221"><ele>69.0</ele><time>2026-03-22T05:42:16.001Z</time></trkpt><trkpt lat="24.13211390249644" lon="120.66303531246254"><ele>69.0</ele><time>2026-03-22T05:42:17.001Z</time></trkpt><trkpt lat="24.13211547525869" lon="120.66314550728292"><ele>69.0</ele><time>2026-03-22T05:42:18.001Z</time></trkpt><trkpt lat="24.132111795354486" lon="120.66325368773023"><ele>69.0</ele><time>2026-03-22T05:42:19.001Z</time></trkpt><trkpt lat="24.13211392725636" lon="120.66336250128596"><ele>69.0</ele><time>2026-03-22T05:42:20.001Z</time></trkpt><trkpt lat="24.132118034267755" lon="120.66347338762883"><ele>69.0</ele><time>2026-03-22T05:42:21.001Z</time></trkpt><trkpt lat="24.132119610439695" lon="120.66357924857098"><ele>69.0</ele><time>2026-03-22T05:42:22.001Z</time></trkpt><trkpt lat="24.132112100341505" lon="120.6636800175145"><ele>69.0</ele><time>2026-03-22T05:42:23.001Z</time></trkpt><trkpt lat="24.132112796616298" lon="120.66378432354803"><ele>69.0</ele><time>2026-03-22T05:42:24.001Z</time></trkpt><trkpt lat="24.13211073743637" lon="120.66388923964699"><ele>69.0</ele><time>2026-03-22T05:42:25.001Z</time></trkpt><trkpt lat="24.13211367485044" lon="120.66399660476222"><ele>69.33333333333333</ele><time>2026-03-22T05:42:26.001Z</time></trkpt><trkpt lat="24.132118855025073" lon="120.66410313749982"><ele>69.66666666666667</ele><time>2026-03-22T05:42:27.001Z</time></trkpt><trkpt lat="24.13212179337102" lon="120.66420811238345"><ele>70.0</ele><time>2026-03-22T05:42:28.001Z</time></trkpt><trkpt lat="24.13212163285373" lon="120.66430450942578"><ele>70.33333333333334</ele><time>2026-03-22T05:42:29.001Z</time></trkpt><trkpt lat="24.13212335511718" lon="120.66439708180374"><ele>70.66666666666667</ele><time>2026-03-22T05:42:30.001Z</time></trkpt><trkpt lat="24.132122002215446" lon="120.66448873124014"><ele>71.0</ele><time>2026-03-22T05:42:31.001Z</time></trkpt><trkpt lat="24.132119185469463" lon="120.66457790957264"><ele>71.16666666666667</ele><time>2026-03-22T05:42:32.001Z</time></trkpt><trkpt lat="24.132119998083862" lon="120.66466425306602"><ele>71.33333333333334</ele><time>2026-03-22T05:42:33.001Z</time></trkpt><trkpt lat="24.132119777854818" lon="120.66474865849646"><ele>71.5</ele><time>2026-03-22T05:42:34.001Z</time></trkpt><trkpt lat="24.13211878997126" lon="120.66483578352937"><ele>71.66666666666667</ele><time>2026-03-22T05:42:35.001Z</time></trkpt><trkpt lat="24.132118263551227" lon="120.6649254110366"><ele>71.83333333333333</ele><time>2026-03-22T05:42:36.001Z</time></trkpt><trkpt lat="24.132117312681967" lon="120.66502029057507"><ele>72.0</ele><time>2026-03-22T05:42:37.001Z</time></trkpt><trkpt lat="24.13211661787405" lon="120.66510930943451"><ele>72.0</ele><time>2026-03-22T05:42:38.001Z</time></trkpt><trkpt lat="24.13211281555117" lon="120.66519617596364"><ele>72.0</ele><time>2026-03-22T05:42:39.001Z</time></trkpt><trkpt lat="24.132111325223295" lon="120.6652826718463"><ele>72.0</ele><time>2026-03-22T05:42:40.001Z</time></trkpt><trkpt lat="24.13210851318524" lon="120.66536776057232"><ele>72.0</ele><time>2026-03-22T05:42:41.001Z</time></trkpt><trkpt lat="24.132113893012978" lon="120.66544784709234"><ele>72.0</ele><time>2026-03-22T05:42:42.001Z</time></trkpt><trkpt lat="24.132112984505397" lon="120.66553087521854"><ele>72.0</ele><time>2026-03-22T05:42:43.001Z</time></trkpt><trkpt lat="24.13211312238398" lon="120.66560842146382"><ele>71.83333333333333</ele><time>2026-03-22T05:42:44.001Z</time></trkpt><trkpt lat="24.13211441493104" lon="120.6656820905492"><ele>71.66666666666667</ele><time>2026-03-22T05:42:45.001Z</time></trkpt><trkpt lat="24.132108696627085" lon="120.66581824713793"><ele>71.5</ele><time>2026-03-22T05:42:47.001Z</time></trkpt><trkpt lat="24.132110494998884" lon="120.66594947113423"><ele>71.33333333333334</ele><time>2026-03-22T05:42:49.001Z</time></trkpt><trkpt lat="24.132111623498936" lon="120.6660189944621"><ele>71.16666666666667</ele><time>2026-03-22T05:42:50.001Z</time></trkpt><trkpt lat="24.132114813483337" lon="120.6660956363993"><ele>71.0</ele><time>2026-03-22T05:42:51.001Z</time></trkpt><trkpt lat="24.132115442047027" lon="120.66617331975827"><ele>70.5</ele><time>2026-03-22T05:42:52.001Z</time></trkpt><trkpt lat="24.13211782825403" lon="120.66625438925806"><ele>70.0</ele><time>2026-03-22T05:42:53.001Z</time></trkpt><trkpt lat="24.13211778413447" lon="120.66633425026112"><ele>69.5</ele><time>2026-03-22T05:42:54.001Z</time></trkpt><trkpt lat="24.13211755403723" lon="120.66642682304487"><ele>69.0</ele><time>2026-03-22T05:42:55.001Z</time></trkpt><trkpt lat="24.132115403489088" lon="120.66651661795989"><ele>68.5</ele><time>2026-03-22T05:42:56.001Z</time></trkpt><trkpt lat="24.13211269545063" lon="120.66660378394376"><ele>68.0</ele><time>2026-03-22T05:42:57.001Z</time></trkpt><trkpt lat="24.13211489720346" lon="120.66669151834458"><ele>68.0</ele><time>2026-03-22T05:42:58.001Z</time></trkpt><trkpt lat="24.132118302068573" lon="120.6667758091732"><ele>68.0</ele><time>2026-03-22T05:42:59.001Z</time></trkpt><trkpt lat="24.132115606314148" lon="120.66686310138356"><ele>68.0</ele><time>2026-03-22T05:43:00.001Z</time></trkpt><trkpt lat="24.13211321817877" lon="120.66695348413957"><ele>68.0</ele><time>2026-03-22T05:43:01.001Z</time></trkpt><trkpt lat="24.132108991093308" lon="120.66704661936215"><ele>68.0</ele><time>2026-03-22T05:43:02.001Z</time></trkpt><trkpt lat="24.132105878508007" lon="120.66715438198437"><ele>68.0</ele><time>2026-03-22T05:43:03.001Z</time></trkpt><trkpt lat="24.13210331508252" lon="120.66727262244459"><ele>68.8</ele><time>2026-03-22T05:43:04.001Z</time></trkpt><trkpt lat="24.132102183775718" lon="120.66739127009546"><ele>69.6</ele><time>2026-03-22T05:43:05.001Z</time></trkpt><trkpt lat="24.13209889839214" lon="120.6675079661344"><ele>70.4</ele><time>2026-03-22T05:43:06.001Z</time></trkpt><trkpt lat="24.132092824119947" lon="120.66763168235968"><ele>71.2</ele><time>2026-03-22T05:43:07.001Z</time></trkpt><trkpt lat="24.132084989431103" lon="120.66775753111872"><ele>72.0</ele><time>2026-03-22T05:43:08.001Z</time></trkpt><trkpt lat="24.132073818234996" lon="120.6678793454041"><ele>72.4</ele><time>2026-03-22T05:43:09.001Z</time></trkpt><trkpt lat="24.132064640709157" lon="120.66799835773543"><ele>72.80000000000001</ele><time>2026-03-22T05:43:10.001Z</time></trkpt><trkpt lat="24.132054641597712" lon="120.6681158553392"><ele>73.2</ele><time>2026-03-22T05:43:11.001Z</time></trkpt><trkpt lat="24.13204427755967" lon="120.66822999293261"><ele>73.60000000000001</ele><time>2026-03-22T05:43:12.001Z</time></trkpt><trkpt lat="24.132036710942806" lon="120.66834329418352"><ele>74.0</ele><time>2026-03-22T05:43:13.001Z</time></trkpt><trkpt lat="24.13203490337541" lon="120.66845288079311"><ele>74.0</ele><time>2026-03-22T05:43:14.001Z</time></trkpt><trkpt lat="24.13204181762774" lon="120.66856166445923"><ele>74.0</ele><time>2026-03-22T05:43:15.001Z</time></trkpt><trkpt lat="24.13205479133849" lon="120.66866472271494"><ele>74.0</ele><time>2026-03-22T05:43:16.001Z</time></trkpt><trkpt lat="24.13207453284707" lon="120.66876163754408"><ele>74.0</ele><time>2026-03-22T05:43:17.001Z</time></trkpt><trkpt lat="24.13212840657069" lon="120.66884288291551"><ele>74.0</ele><time>2026-03-22T05:43:18.001Z</time></trkpt><trkpt lat="24.13217461280698" lon="120.6689307844845"><ele>73.8</ele><time>2026-03-22T05:43:19.001Z</time></trkpt><trkpt lat="24.132221393563665" lon="120.66901565558395"><ele>73.60000000000001</ele><time>2026-03-22T05:43:20.001Z</time></trkpt><trkpt lat="24.132277811708224" lon="120.66909684217454"><ele>73.4</ele><time>2026-03-22T05:43:21.001Z</time></trkpt><trkpt lat="24.132343517125573" lon="120.66917207739897"><ele>73.2</ele><time>2026-03-22T05:43:22.001Z</time></trkpt><trkpt lat="24.132412934144757" lon="120.66924463050809"><ele>73.0</ele><time>2026-03-22T05:43:23.001Z</time></trkpt><trkpt lat="24.132486105431923" lon="120.66932096258166"><ele>73.0</ele><time>2026-03-22T05:43:24.001Z</time></trkpt><trkpt lat="24.132561905753924" lon="120.66939739633976"><ele>73.0</ele><time>2026-03-22T05:43:25.001Z</time></trkpt><trkpt lat="24.132637489954003" lon="120.6694736121502"><ele>73.0</ele><time>2026-03-22T05:43:26.001Z</time></trkpt><trkpt lat="24.132713357724455" lon="120.6695501142934"><ele>73.0</ele><time>2026-03-22T05:43:27.001Z</time></trkpt><trkpt lat="24.132783734454883" lon="120.66962401920304"><ele>73.0</ele><time>2026-03-22T05:43:28.001Z</time></trkpt><trkpt lat="24.132856208014555" lon="120.66969921662822"><ele>73.8</ele><time>2026-03-22T05:43:29.001Z</time></trkpt><trkpt lat="24.13292923885971" lon="120.6697749924421"><ele>74.6</ele><time>2026-03-22T05:43:30.001Z</time></trkpt><trkpt lat="24.13300107647969" lon="120.66985109281093"><ele>75.4</ele><time>2026-03-22T05:43:31.001Z</time></trkpt><trkpt lat="24.133073816910983" lon="120.6699292985157"><ele>76.2</ele><time>2026-03-22T05:43:32.001Z</time></trkpt><trkpt lat="24.133144158072508" lon="120.66999808701321"><ele>77.0</ele><time>2026-03-22T05:43:33.001Z</time></trkpt><trkpt lat="24.1332157004134" lon="120.67007164248417"><ele>77.2</ele><time>2026-03-22T05:43:34.001Z</time></trkpt><trkpt lat="24.133288376579856" lon="120.67014636367047"><ele>77.4</ele><time>2026-03-22T05:43:35.001Z</time></trkpt><trkpt lat="24.133351164450193" lon="120.67022939908314"><ele>77.6</ele><time>2026-03-22T05:43:36.001Z</time></trkpt><trkpt lat="24.133427006949205" lon="120.67029611982453"><ele>77.8</ele><time>2026-03-22T05:43:37.001Z</time></trkpt><trkpt lat="24.13350106759765" lon="120.67036411860201"><ele>78.0</ele><time>2026-03-22T05:43:38.001Z</time></trkpt><trkpt lat="24.133580083049246" lon="120.67043590796594"><ele>77.25</ele><time>2026-03-22T05:43:39.001Z</time></trkpt><trkpt lat="24.133662689836605" lon="120.6705155752583"><ele>76.5</ele><time>2026-03-22T05:43:40.001Z</time></trkpt><trkpt lat="24.13374865614769" lon="120.67060113178084"><ele>75.75</ele><time>2026-03-22T05:43:41.001Z</time></trkpt><trkpt lat="24.133829218701" lon="120.67068803695959"><ele>75.0</ele><time>2026-03-22T05:43:42.001Z</time></trkpt><trkpt lat="24.133910701055576" lon="120.67077372971802"><ele>75.0</ele><time>2026-03-22T05:43:43.001Z</time></trkpt><trkpt lat="24.133993425211973" lon="120.67086115433"><ele>75.0</ele><time>2026-03-22T05:43:44.001Z</time></trkpt><trkpt lat="24.134076044715226" lon="120.67094770863733"><ele>75.0</ele><time>2026-03-22T05:43:45.001Z</time></trkpt><trkpt lat="24.134156980771404" lon="120.67103067537832"><ele>75.0</ele><time>2026-03-22T05:43:46.001Z</time></trkpt><trkpt lat="24.134232999015218" lon="120.67111313973712"><ele>75.0</ele><time>2026-03-22T05:43:47.001Z</time></trkpt><trkpt lat="24.134312701516365" lon="120.67119448278264"><ele>74.8</ele><time>2026-03-22T05:43:48.001Z</time></trkpt><trkpt lat="24.134389596605953" lon="120.67127416127668"><ele>74.6</ele><time>2026-03-22T05:43:49.001Z</time></trkpt><trkpt lat="24.134467639330733" lon="120.67135058196472"><ele>74.4</ele><time>2026-03-22T05:43:50.001Z</time></trkpt><trkpt lat="24.134543348219967" lon="120.67142626004657"><ele>74.2</ele><time>2026-03-22T05:43:51.001Z</time></trkpt><trkpt lat="24.13461540103418" lon="120.67149794206095"><ele>74.0</ele><time>2026-03-22T05:43:52.001Z</time></trkpt><trkpt lat="24.134680519821604" lon="120.67157368924606"><ele>74.0</ele><time>2026-03-22T05:43:53.001Z</time></trkpt><trkpt lat="24.13474245385875" lon="120.67164187685664"><ele>74.0</ele><time>2026-03-22T05:43:54.001Z</time></trkpt><trkpt lat="24.13479938409891" lon="120.67169910075697"><ele>74.0</ele><time>2026-03-22T05:43:55.001Z</time></trkpt><trkpt lat="24.13484702828173" lon="120.67174734353935"><ele>74.0</ele><time>2026-03-22T05:43:56.001Z</time></trkpt><trkpt lat="24.13489130528186" lon="120.67180103594416"><ele>74.0</ele><time>2026-03-22T05:43:58.001Z</time></trkpt><trkpt lat="24.134947448568663" lon="120.67186079454699"><ele>74.0</ele><time>2026-03-22T05:44:10.001Z</time></trkpt><trkpt lat="24.134987358316074" lon="120.67192307585017"><ele>74.0</ele><time>2026-03-22T05:44:13.001Z</time></trkpt><trkpt lat="24.13506259545949" lon="120.67198187802963"><ele>74.4</ele><time>2026-03-22T05:44:16.001Z</time></trkpt><trkpt lat="24.135120990649046" lon="120.67204261449014"><ele>74.80000000000001</ele><time>2026-03-22T05:44:18.001Z</time></trkpt><trkpt lat="24.13519610286201" lon="120.67212018454764"><ele>75.19999999999999</ele><time>2026-03-22T05:44:20.001Z</time></trkpt><trkpt lat="24.13528499570998" lon="120.67221209914119"><ele>75.6</ele><time>2026-03-22T05:44:22.001Z</time></trkpt><trkpt lat="24.135365966194563" lon="120.67229515049966"><ele>76.0</ele><time>2026-03-22T05:44:24.001Z</time></trkpt><trkpt lat="24.135431179192427" lon="120.67236223374232"><ele>76.0</ele><time>2026-03-22T05:44:26.001Z</time></trkpt><trkpt lat="24.135500596127503" lon="120.67243118846079"><ele>76.0</ele><time>2026-03-22T05:44:28.001Z</time></trkpt><trkpt lat="24.135588003008497" lon="120.67251559956523"><ele>76.0</ele><time>2026-03-22T05:44:30.001Z</time></trkpt><trkpt lat="24.13563876799542" lon="120.67256459874697"><ele>76.0</ele><time>2026-03-22T05:44:31.001Z</time></trkpt><trkpt lat="24.135693310768552" lon="120.67261700527644"><ele>76.0</ele><time>2026-03-22T05:44:32.001Z</time></trkpt><trkpt lat="24.135750494500375" lon="120.67267707310266"><ele>76.0</ele><time>2026-03-22T05:44:33.001Z</time></trkpt><trkpt lat="24.135810469721186" lon="120.67274478793465"><ele>77.33333333333333</ele><time>2026-03-22T05:44:34.001Z</time></trkpt><trkpt lat="24.13586924258051" lon="120.67281464783089"><ele>78.66666666666666</ele><time>2026-03-22T05:44:35.001Z</time></trkpt><trkpt lat="24.135928602859092" lon="120.6728894476379"><ele>80.0</ele><time>2026-03-22T05:44:36.001Z</time></trkpt><trkpt lat="24.13598545149067" lon="120.67295621795887"><ele>81.33333333333333</ele><time>2026-03-22T05:44:37.001Z</time></trkpt><trkpt lat="24.13604616887188" lon="120.67302101947655"><ele>82.66666666666667</ele><time>2026-03-22T05:44:38.001Z</time></trkpt><trkpt lat="24.13610903387242" lon="120.67308247767835"><ele>84.0</ele><time>2026-03-22T05:44:39.001Z</time></trkpt><trkpt lat="24.1361796580667" lon="120.67314083660436"><ele>84.0</ele><time>2026-03-22T05:44:40.001Z</time></trkpt><trkpt lat="24.136252148399414" lon="120.67321075382641"><ele>84.0</ele><time>2026-03-22T05:44:41.001Z</time></trkpt><trkpt lat="24.136322537942018" lon="120.67328438494393"><ele>84.0</ele><time>2026-03-22T05:44:42.001Z</time></trkpt><trkpt lat="24.136402643997375" lon="120.6733624707357"><ele>84.0</ele><time>2026-03-22T05:44:43.001Z</time></trkpt><trkpt lat="24.136479622496122" lon="120.6734397566321"><ele>84.0</ele><time>2026-03-22T05:44:44.001Z</time></trkpt><trkpt lat="24.13655048647209" lon="120.6735145260619"><ele>83.2</ele><time>2026-03-22T05:44:45.001Z</time></trkpt><trkpt lat="24.136619858737433" lon="120.67358630171856"><ele>82.4</ele><time>2026-03-22T05:44:46.001Z</time></trkpt><trkpt lat="24.136684425879587" lon="120.67365536491025"><ele>81.6</ele><time>2026-03-22T05:44:47.001Z</time></trkpt><trkpt lat="24.136750991007265" lon="120.67372446774509"><ele>80.8</ele><time>2026-03-22T05:44:48.001Z</time></trkpt><trkpt lat="24.136815549056642" lon="120.67379265695729"><ele>80.0</ele><time>2026-03-22T05:44:49.001Z</time></trkpt><trkpt lat="24.13688122053368" lon="120.6738619726036"><ele>80.0</ele><time>2026-03-22T05:44:50.001Z</time></trkpt><trkpt lat="24.136948831492617" lon="120.67393292910124"><ele>80.0</ele><time>2026-03-22T05:44:51.001Z</time></trkpt><trkpt lat="24.137018371906525" lon="120.67400537494198"><ele>80.0</ele><time>2026-03-22T05:44:52.001Z</time></trkpt><trkpt lat="24.13708717097586" lon="120.67407693798295"><ele>80.0</ele><time>2026-03-22T05:44:53.001Z</time></trkpt><trkpt lat="24.137156299858038" lon="120.6741453850714"><ele>80.0</ele><time>2026-03-22T05:44:54.001Z</time></trkpt><trkpt lat="24.137226957876763" lon="120.67421689475843"><ele>80.0</ele><time>2026-03-22T05:44:55.001Z</time></trkpt><trkpt lat="24.13729393911374" lon="120.67428463591763"><ele>80.0</ele><time>2026-03-22T05:44:56.001Z</time></trkpt><trkpt lat="24.13735768346807" lon="120.6743490662822"><ele>80.0</ele><time>2026-03-22T05:44:57.001Z</time></trkpt><trkpt lat="24.137416185661863" lon="120.67441249573967"><ele>80.0</ele><time>2026-03-22T05:44:58.001Z</time></trkpt><trkpt lat="24.137478232251297" lon="120.6744776294689"><ele>80.0</ele><time>2026-03-22T05:44:59.001Z</time></trkpt><trkpt lat="24.1375415589234" lon="120.6745438264478"><ele>80.0</ele><time>2026-03-22T05:45:00.001Z</time></trkpt><trkpt lat="24.13760195995528" lon="120.67460696519169"><ele>80.5</ele><time>2026-03-22T05:45:01.001Z</time></trkpt><trkpt lat="24.13766302205879" lon="120.67467079498219"><ele>81.0</ele><time>2026-03-22T05:45:02.001Z</time></trkpt><trkpt lat="24.13771953614201" lon="120.67473013918666"><ele>81.5</ele><time>2026-03-22T05:45:03.001Z</time></trkpt><trkpt lat="24.137771602102177" lon="120.67478481439085"><ele>82.0</ele><time>2026-03-22T05:45:04.001Z</time></trkpt><trkpt lat="24.137858930802768" lon="120.67487651954522"><ele>82.5</ele><time>2026-03-22T05:45:06.001Z</time></trkpt><trkpt lat="24.137920585722306" lon="120.67494126417448"><ele>83.0</ele><time>2026-03-22T05:45:09.001Z</time></trkpt><trkpt lat="24.137986306374007" lon="120.67501027835621"><ele>83.0</ele><time>2026-03-22T05:45:13.002Z</time></trkpt><trkpt lat="24.13787026863448" lon="120.67505419448581"><ele>83.0</ele><time>2026-03-22T05:46:03.001Z</time></trkpt><trkpt lat="24.13797853098535" lon="120.67505996666985"><ele>83.0</ele><time>2026-03-22T05:46:17.001Z</time></trkpt><trkpt lat="24.13804338759444" lon="120.67507876403407"><ele>83.0</ele><time>2026-03-22T05:46:32.001Z</time></trkpt><trkpt lat="24.13799668726315" lon="120.67513018733435"><ele>83.0</ele><time>2026-03-22T05:46:43.001Z</time></trkpt><trkpt lat="24.138007722223897" lon="120.67521392263332"><ele>83.0</ele><time>2026-03-22T05:46:46.001Z</time></trkpt><trkpt lat="24.137948601925522" lon="120.67526067439324"><ele>83.28571428571428</ele><time>2026-03-22T05:46:53.001Z</time></trkpt><trkpt lat="24.13789561011237" lon="120.6753010872492"><ele>83.57142857142858</ele><time>2026-03-22T05:46:59.001Z</time></trkpt><trkpt lat="24.13783098606214" lon="120.67535939428178"><ele>83.85714285714286</ele><time>2026-03-22T05:47:09.001Z</time></trkpt><trkpt lat="24.13774076671573" lon="120.67540985977529"><ele>84.14285714285714</ele><time>2026-03-22T05:47:15.001Z</time></trkpt><trkpt lat="24.13767736256977" lon="120.67540835539481"><ele>84.42857142857142</ele><time>2026-03-22T05:47:17.001Z</time></trkpt><trkpt lat="24.137613334322758" lon="120.6754126963651"><ele>84.71428571428572</ele><time>2026-03-22T05:47:22.001Z</time></trkpt><trkpt lat="24.137597845207463" lon="120.67548731615051"><ele>85.0</ele><time>2026-03-22T05:47:39Z</time></trkpt><trkpt lat="24.137622317500227" lon="120.67556054786009"><ele>85.0</ele><time>2026-03-22T05:47:56Z</time></trkpt><trkpt lat="24.13756820937349" lon="120.67551284042935"><ele>85.0</ele><time>2026-03-22T05:50:04.999Z</time></trkpt><trkpt lat="24.137630254846595" lon="120.67547217222139"><ele>85.0</ele><time>2026-03-22T05:51:23Z</time></trkpt><trkpt lat="24.13766843513736" lon="120.67541625823759"><ele>85.0</ele><time>2026-03-22T05:51:31Z</time></trkpt><trkpt lat="24.137734054832293" lon="120.67539777445765"><ele>85.0</ele><time>2026-03-22T05:51:35.998Z</time></trkpt><trkpt lat="24.137776237890826" lon="120.67532999872805"><ele>85.0</ele><time>2026-03-22T05:51:44.998Z</time></trkpt><trkpt lat="24.1378656077854" lon="120.67530779760779"><ele>85.0</ele><time>2026-03-22T05:51:58.999Z</time></trkpt><trkpt lat="24.137917778603722" lon="120.675259122653"><ele>84.66666666666666</ele><time>2026-03-22T05:52:02.999Z</time></trkpt><trkpt lat="24.13795204147391" lon="120.67516058787845"><ele>84.33333333333333</ele><time>2026-03-22T05:52:06.999Z</time></trkpt><trkpt lat="24.138020019895542" lon="120.67516370706998"><ele>84.0</ele><time>2026-03-22T05:52:38Z</time></trkpt><trkpt lat="24.138096719671005" lon="120.67516389204614"><ele>83.66666666666667</ele><time>2026-03-22T05:52:46Z</time></trkpt><trkpt lat="24.138144621584438" lon="120.67523399473339"><ele>83.33333333333334</ele><time>2026-03-22T05:52:49Z</time></trkpt><trkpt lat="24.138240599145714" lon="120.67531203859579"><ele>83.0</ele><time>2026-03-22T05:52:51Z</time></trkpt><trkpt lat="24.138283280158245" lon="120.6753822127717"><ele>82.85714285714285</ele><time>2026-03-22T05:53:00Z</time></trkpt><trkpt lat="24.13832981045537" lon="120.67543392246166"><ele>82.71428571428572</ele><time>2026-03-22T05:53:05Z</time></trkpt><trkpt lat="24.13838269112456" lon="120.675489850273"><ele>82.57142857142857</ele><time>2026-03-22T05:53:22.001Z</time></trkpt><trkpt lat="24.13842967342869" lon="120.6755399510614"><ele>82.42857142857142</ele><time>2026-03-22T05:53:30.001Z</time></trkpt><trkpt lat="24.138476805521957" lon="120.67559021085923"><ele>82.28571428571428</ele><time>2026-03-22T05:53:36.001Z</time></trkpt><trkpt lat="24.13852457745204" lon="120.67564105688405"><ele>82.14285714285714</ele><time>2026-03-22T05:53:44.999Z</time></trkpt><trkpt lat="24.138571313674305" lon="120.6756908005235"><ele>82.0</ele><time>2026-03-22T05:53:50.999Z</time></trkpt><trkpt lat="24.138620616908224" lon="120.67574327635545"><ele>81.99999999999999</ele><time>2026-03-22T05:53:55.999Z</time></trkpt><trkpt lat="24.13866997693329" lon="120.67579581263108"><ele>82.0</ele><time>2026-03-22T05:54:00.999Z</time></trkpt><trkpt lat="24.138718942922747" lon="120.67584663187048"><ele>82.0</ele><time>2026-03-22T05:54:07Z</time></trkpt><trkpt lat="24.13876749965994" lon="120.67589575699287"><ele>82.0</ele><time>2026-03-22T05:54:13Z</time></trkpt><trkpt lat="24.13882389609818" lon="120.67595240850187"><ele>82.0</ele><time>2026-03-22T05:54:20Z</time></trkpt><trkpt lat="24.13887840526661" lon="120.67600716425981"><ele>81.99999999999999</ele><time>2026-03-22T05:54:28Z</time></trkpt><trkpt lat="24.138924928021606" lon="120.67605389742114"><ele>82.0</ele><time>2026-03-22T05:54:34Z</time></trkpt><trkpt lat="24.13897662875022" lon="120.67610583195606"><ele>81.83333333333333</ele><time>2026-03-22T05:54:40Z</time></trkpt><trkpt lat="24.13895484560829" lon="120.67618658922169"><ele>81.66666666666666</ele><time>2026-03-22T05:54:44Z</time></trkpt><trkpt lat="24.139018449781545" lon="120.67615852148998"><ele>81.5</ele><time>2026-03-22T05:55:17.001Z</time></trkpt><trkpt lat="24.13904808611636" lon="120.67622641689384"><ele>81.33333333333333</ele><time>2026-03-22T05:56:38Z</time></trkpt><trkpt lat="24.139120123768517" lon="120.67628589444385"><ele>81.16666666666667</ele><time>2026-03-22T05:56:41Z</time></trkpt><trkpt lat="24.13917510450984" lon="120.67633735534213"><ele>81.0</ele><time>2026-03-22T05:56:43Z</time></trkpt><trkpt lat="24.139227691812376" lon="120.67639416495498"><ele>81.66666666666667</ele><time>2026-03-22T05:56:45Z</time></trkpt><trkpt lat="24.13928009132437" lon="120.67644979661638"><ele>82.33333333333333</ele><time>2026-03-22T05:56:47Z</time></trkpt><trkpt lat="24.139344982895885" lon="120.67650286847675"><ele>83.0</ele><time>2026-03-22T05:56:49.001Z</time></trkpt><trkpt lat="24.13941987934906" lon="120.67658342358533"><ele>83.66666666666666</ele><time>2026-03-22T05:56:51.001Z</time></trkpt><trkpt lat="24.139465635781143" lon="120.67663417485338"><ele>84.33333333333333</ele><time>2026-03-22T05:56:52.001Z</time></trkpt><trkpt lat="24.139579340432697" lon="120.6766472084604"><ele>85.0</ele><time>2026-03-22T05:56:54.001Z</time></trkpt><trkpt lat="24.139658620506488" lon="120.67672816164381"><ele>85.0</ele><time>2026-03-22T05:56:56.001Z</time></trkpt><trkpt lat="24.139705456783112" lon="120.6767759865192"><ele>85.0</ele><time>2026-03-22T05:56:57.001Z</time></trkpt><trkpt lat="24.13979587364556" lon="120.67686305827691"><ele>85.0</ele><time>2026-03-22T05:56:59.001Z</time></trkpt><trkpt lat="24.139845287845898" lon="120.67691191818271"><ele>85.0</ele><time>2026-03-22T05:57:00.001Z</time></trkpt><trkpt lat="24.139898763211065" lon="120.67696479377636"><ele>85.0</ele><time>2026-03-22T05:57:01.001Z</time></trkpt><trkpt lat="24.1399632270604" lon="120.67703025173272"><ele>85.0</ele><time>2026-03-22T05:57:02.001Z</time></trkpt><trkpt lat="24.140016533532954" lon="120.67708750442472"><ele>85.2</ele><time>2026-03-22T05:57:03.001Z</time></trkpt><trkpt lat="24.14007139984228" lon="120.6771464324302"><ele>85.4</ele><time>2026-03-22T05:57:04.001Z</time></trkpt><trkpt lat="24.140143691416096" lon="120.67722407567732"><ele>85.6</ele><time>2026-03-22T05:57:05.001Z</time></trkpt><trkpt lat="24.140210148331825" lon="120.67729545244333"><ele>85.8</ele><time>2026-03-22T05:57:06.001Z</time></trkpt><trkpt lat="24.14028220946086" lon="120.67736372653022"><ele>86.0</ele><time>2026-03-22T05:57:07.001Z</time></trkpt><trkpt lat="24.140348867229363" lon="120.67742775227416"><ele>86.0</ele><time>2026-03-22T05:57:08.001Z</time></trkpt><trkpt lat="24.140419297990526" lon="120.67749540202442"><ele>86.0</ele><time>2026-03-22T05:57:09.001Z</time></trkpt><trkpt lat="24.140487709383432" lon="120.6775649647707"><ele>86.0</ele><time>2026-03-22T05:57:10.001Z</time></trkpt><trkpt lat="24.140549334323953" lon="120.67763256548893"><ele>86.0</ele><time>2026-03-22T05:57:11.001Z</time></trkpt><trkpt lat="24.1406114248952" lon="120.67769837829391"><ele>86.0</ele><time>2026-03-22T05:57:12.001Z</time></trkpt><trkpt lat="24.14067383124457" lon="120.67776662406845"><ele>86.0</ele><time>2026-03-22T05:57:13.001Z</time></trkpt><trkpt lat="24.140735807737773" lon="120.67783383949994"><ele>87.4</ele><time>2026-03-22T05:57:14.001Z</time></trkpt><trkpt lat="24.1408000227143" lon="120.67790348265666"><ele>88.8</ele><time>2026-03-22T05:57:15.001Z</time></trkpt><trkpt lat="24.14086427102962" lon="120.67797316189842"><ele>90.2</ele><time>2026-03-22T05:57:16.001Z</time></trkpt><trkpt lat="24.140930595292954" lon="120.67804509260237"><ele>91.60000000000001</ele><time>2026-03-22T05:57:17.001Z</time></trkpt><trkpt lat="24.140994778218985" lon="120.67811470134298"><ele>93.0</ele><time>2026-03-22T05:57:18.001Z</time></trkpt><trkpt lat="24.14106505202207" lon="120.67818299101705"><ele>93.0</ele><time>2026-03-22T05:57:19.001Z</time></trkpt><trkpt lat="24.141135211082858" lon="120.67825462510397"><ele>93.0</ele><time>2026-03-22T05:57:20.001Z</time></trkpt><trkpt lat="24.14120347966748" lon="120.67832476618742"><ele>93.0</ele><time>2026-03-22T05:57:21.001Z</time></trkpt><trkpt lat="24.14128021205931" lon="120.67840360325559"><ele>93.0</ele><time>2026-03-22T05:57:22.001Z</time></trkpt><trkpt lat="24.14134420313862" lon="120.6784719708253"><ele>93.0</ele><time>2026-03-22T05:57:23.001Z</time></trkpt><trkpt lat="24.1414000652214" lon="120.67853233380542"><ele>93.0</ele><time>2026-03-22T05:57:24.001Z</time></trkpt><trkpt lat="24.141452786292533" lon="120.67858930270093"><ele>93.0</ele><time>2026-03-22T05:57:25.001Z</time></trkpt><trkpt lat="24.141500511599364" lon="120.67864087351053"><ele>93.0</ele><time>2026-03-22T05:57:26.001Z</time></trkpt><trkpt lat="24.141576541112087" lon="120.67872302935645"><ele>93.0</ele><time>2026-03-22T05:57:28.001Z</time></trkpt><trkpt lat="24.141631759971457" lon="120.67876480606854"><ele>93.0</ele><time>2026-03-22T05:57:30.001Z</time></trkpt><trkpt lat="24.1415250949427" lon="120.67894303299784"><ele>92.80000000000001</ele><time>2026-03-22T05:57:34.001Z</time></trkpt><trkpt lat="24.141454179570236" lon="120.6790207805139"><ele>92.6</ele><time>2026-03-22T05:57:36.001Z</time></trkpt><trkpt lat="24.141388602650828" lon="120.67909573063639"><ele>92.4</ele><time>2026-03-22T05:57:38.001Z</time></trkpt><trkpt lat="24.141324041967707" lon="120.67916933249222"><ele>92.19999999999999</ele><time>2026-03-22T05:57:40.001Z</time></trkpt><trkpt lat="24.14125369515159" lon="120.67923097582754"><ele>92.0</ele><time>2026-03-22T05:57:42.001Z</time></trkpt><trkpt lat="24.141186321848885" lon="120.67931232024493"><ele>92.0</ele><time>2026-03-22T05:57:44.001Z</time></trkpt><trkpt lat="24.14110262819876" lon="120.67939808157979"><ele>92.0</ele><time>2026-03-22T05:57:46.002Z</time></trkpt><trkpt lat="24.14103948847686" lon="120.67952549171467"><ele>92.0</ele><time>2026-03-22T05:57:48.002Z</time></trkpt><trkpt lat="24.140973327097008" lon="120.67959931406747"><ele>92.0</ele><time>2026-03-22T05:57:50.002Z</time></trkpt><trkpt lat="24.140918959695668" lon="120.6796552221598"><ele>92.0</ele><time>2026-03-22T05:57:52.002Z</time></trkpt><trkpt lat="24.140860246226445" lon="120.67972016365238"><ele>91.83333333333334</ele><time>2026-03-22T05:57:54Z</time></trkpt><trkpt lat="24.140797469043072" lon="120.67978769408407"><ele>91.66666666666667</ele><time>2026-03-22T05:57:56Z</time></trkpt><trkpt lat="24.140743598487052" lon="120.67984026061218"><ele>91.5</ele><time>2026-03-22T05:57:58Z</time></trkpt><trkpt lat="24.140689874661657" lon="120.67989820539081"><ele>91.33333333333333</ele><time>2026-03-22T05:58:00Z</time></trkpt><trkpt lat="24.140641658781057" lon="120.67999584452325"><ele>91.16666666666666</ele><time>2026-03-22T05:58:02Z</time></trkpt><trkpt lat="24.14056973557828" lon="120.68007077710334"><ele>91.0</ele><time>2026-03-22T05:58:04Z</time></trkpt><trkpt lat="24.140502675181448" lon="120.68014865646018"><ele>90.6</ele><time>2026-03-22T05:58:06Z</time></trkpt><trkpt lat="24.14043945802798" lon="120.68022362593796"><ele>90.19999999999999</ele><time>2026-03-22T05:58:08Z</time></trkpt><trkpt lat="24.140382448698816" lon="120.6803006290763"><ele>89.80000000000001</ele><time>2026-03-22T05:58:10Z</time></trkpt><trkpt lat="24.140320295149472" lon="120.68037519620721"><ele>89.4</ele><time>2026-03-22T05:58:12Z</time></trkpt><trkpt lat="24.140259246592613" lon="120.68045297285606"><ele>89.0</ele><time>2026-03-22T05:58:14Z</time></trkpt><trkpt lat="24.140218869278343" lon="120.68053651210825"><ele>89.0</ele><time>2026-03-22T05:58:16Z</time></trkpt><trkpt lat="24.140159813053756" lon="120.68063587914246"><ele>89.0</ele><time>2026-03-22T05:58:18Z</time></trkpt><trkpt lat="24.140019405331437" lon="120.68069357016964"><ele>89.0</ele><time>2026-03-22T05:58:19Z</time></trkpt><trkpt lat="24.139930171489443" lon="120.68078447185253"><ele>89.0</ele><time>2026-03-22T05:58:21Z</time></trkpt><trkpt lat="24.139822769491676" lon="120.68089903254389"><ele>89.0</ele><time>2026-03-22T05:58:22Z</time></trkpt><trkpt lat="24.13976289619612" lon="120.68096876148415"><ele>89.0</ele><time>2026-03-22T05:58:23Z</time></trkpt><trkpt lat="24.139707444959367" lon="120.68103333982"><ele>89.0</ele><time>2026-03-22T05:58:24Z</time></trkpt><trkpt lat="24.139642285386742" lon="120.68110608099171"><ele>89.0</ele><time>2026-03-22T05:58:25Z</time></trkpt><trkpt lat="24.139592266784078" lon="120.68116229997916"><ele>89.0</ele><time>2026-03-22T05:58:26Z</time></trkpt><trkpt lat="24.13953487945005" lon="120.68122680109278"><ele>89.0</ele><time>2026-03-22T05:58:27Z</time></trkpt><trkpt lat="24.139482879293155" lon="120.68128524725314"><ele>89.0</ele><time>2026-03-22T05:58:28Z</time></trkpt><trkpt lat="24.139432423686227" lon="120.68134197715432"><ele>89.0</ele><time>2026-03-22T05:58:29Z</time></trkpt><trkpt lat="24.13935360368573" lon="120.68142953445192"><ele>89.0</ele><time>2026-03-22T05:58:31Z</time></trkpt><trkpt lat="24.139275183024868" lon="120.68152142086835"><ele>89.0</ele><time>2026-03-22T05:58:33Z</time></trkpt><trkpt lat="24.139226849210484" lon="120.68157840952341"><ele>89.0</ele><time>2026-03-22T05:58:34Z</time></trkpt><trkpt lat="24.139180647109836" lon="120.68163288476914"><ele>89.0</ele><time>2026-03-22T05:58:35Z</time></trkpt><trkpt lat="24.139135986994273" lon="120.68168554190952"><ele>89.0</ele><time>2026-03-22T05:58:36Z</time></trkpt><trkpt lat="24.139089678585137" lon="120.68174014248116"><ele>89.0</ele><time>2026-03-22T05:58:37Z</time></trkpt><trkpt lat="24.139042833049597" lon="120.68179537639013"><ele>89.0</ele><time>2026-03-22T05:58:38Z</time></trkpt><trkpt lat="24.138954540010236" lon="120.68189947876333"><ele>89.0</ele><time>2026-03-22T05:58:40Z</time></trkpt><trkpt lat="24.13890995672224" lon="120.68195204360241"><ele>89.0</ele><time>2026-03-22T05:58:41Z</time></trkpt><trkpt lat="24.138864458231712" lon="120.68200223720564"><ele>89.0</ele><time>2026-03-22T05:58:42Z</time></trkpt><trkpt lat="24.138785709627527" lon="120.68209611166412"><ele>88.5</ele><time>2026-03-22T05:58:44Z</time></trkpt><trkpt lat="24.138725659581265" lon="120.6821897099224"><ele>88.0</ele><time>2026-03-22T05:58:46Z</time></trkpt><trkpt lat="24.13866880845632" lon="120.6822632982145"><ele>87.5</ele><time>2026-03-22T05:58:48Z</time></trkpt><trkpt lat="24.138603368426104" lon="120.68228897392864"><ele>87.0</ele><time>2026-03-22T05:58:50Z</time></trkpt><trkpt lat="24.13856504918052" lon="120.68235388726343"><ele>86.5</ele><time>2026-03-22T05:58:52Z</time></trkpt><trkpt lat="24.13852060485838" lon="120.68240966840938"><ele>86.0</ele><time>2026-03-22T05:58:54Z</time></trkpt><trkpt lat="24.138464162628303" lon="120.68248678593754"><ele>86.0</ele><time>2026-03-22T05:58:56.001Z</time></trkpt><trkpt lat="24.138375374954368" lon="120.68257113200268"><ele>86.0</ele><time>2026-03-22T05:58:58.001Z</time></trkpt><trkpt lat="24.138284142899746" lon="120.68265974452656"><ele>86.0</ele><time>2026-03-22T05:59:00.001Z</time></trkpt><trkpt lat="24.138217933579455" lon="120.68274736471568"><ele>86.0</ele><time>2026-03-22T05:59:02.001Z</time></trkpt><trkpt lat="24.138162190517882" lon="120.68281964448938"><ele>86.0</ele><time>2026-03-22T05:59:04.001Z</time></trkpt><trkpt lat="24.138093675536666" lon="120.68288924032505"><ele>86.33333333333334</ele><time>2026-03-22T05:59:06.001Z</time></trkpt><trkpt lat="24.13802617855951" lon="120.6829637349266"><ele>86.66666666666667</ele><time>2026-03-22T05:59:08.001Z</time></trkpt><trkpt lat="24.137979586166527" lon="120.6830132307866"><ele>87.0</ele><time>2026-03-22T05:59:09.001Z</time></trkpt><trkpt lat="24.13793822537969" lon="120.68307575940366"><ele>87.33333333333333</ele><time>2026-03-22T05:59:11.001Z</time></trkpt><trkpt lat="24.13789363626648" lon="120.6831285985512"><ele>87.66666666666666</ele><time>2026-03-22T05:59:46.001Z</time></trkpt><trkpt lat="24.13785591654234" lon="120.68318487383343"><ele>88.0</ele><time>2026-03-22T05:59:58.002Z</time></trkpt><trkpt lat="24.13779756134813" lon="120.68327068080727"><ele>88.0</ele><time>2026-03-22T06:00:00Z</time></trkpt><trkpt lat="24.13774425271019" lon="120.68337857233952"><ele>88.0</ele><time>2026-03-22T06:00:02Z</time></trkpt><trkpt lat="24.137716914531886" lon="120.68344341498366"><ele>88.0</ele><time>2026-03-22T06:00:03Z</time></trkpt><trkpt lat="24.137658287346092" lon="120.68355244612299"><ele>88.0</ele><time>2026-03-22T06:00:05Z</time></trkpt><trkpt lat="24.137623659531528" lon="120.68364625807193"><ele>88.0</ele><time>2026-03-22T06:00:07Z</time></trkpt><trkpt lat="24.137568770928933" lon="120.68372008740434"><ele>88.0</ele><time>2026-03-22T06:00:10Z</time></trkpt><trkpt lat="24.13758722830592" lon="120.6836516728301"><ele>88.0</ele><time>2026-03-22T06:01:22.001Z</time></trkpt><trkpt lat="24.13762727578123" lon="120.68359010811504"><ele>88.0</ele><time>2026-03-22T06:01:29.001Z</time></trkpt><trkpt lat="24.13767421025728" lon="120.68351627400529"><ele>88.0</ele><time>2026-03-22T06:01:38.001Z</time></trkpt><trkpt lat="24.137806533972217" lon="120.68346820114483"><ele>88.0</ele><time>2026-03-22T06:02:11Z</time></trkpt><trkpt lat="24.137901618811863" lon="120.68345467878926"><ele>88.0</ele><time>2026-03-22T06:03:39.001Z</time></trkpt><trkpt lat="24.137909660115067" lon="120.68338426364518"><ele>88.0</ele><time>2026-03-22T06:03:51.002Z</time></trkpt><trkpt lat="24.137863712901172" lon="120.68332269245647"><ele>88.0</ele><time>2026-03-22T06:03:59.002Z</time></trkpt><trkpt lat="24.137980010309168" lon="120.68325622131627"><ele>88.0</ele><time>2026-03-22T06:04:46.001Z</time></trkpt><trkpt lat="24.138024115908877" lon="120.683187014699"><ele>88.0</ele><time>2026-03-22T06:05:05.001Z</time></trkpt><trkpt lat="24.13807671485826" lon="120.68311598329204"><ele>88.0</ele><time>2026-03-22T06:05:11.001Z</time></trkpt><trkpt lat="24.138108117284023" lon="120.68303889626266"><ele>88.0</ele><time>2026-03-22T06:05:17.001Z</time></trkpt><trkpt lat="24.138173082635152" lon="120.68300204601006"><ele>88.0</ele><time>2026-03-22T06:05:22.001Z</time></trkpt><trkpt lat="24.138145559481963" lon="120.68293673237456"><ele>88.0</ele><time>2026-03-22T06:05:28.001Z</time></trkpt><trkpt lat="24.13818293462344" lon="120.6828782425264"><ele>88.0</ele><time>2026-03-22T06:05:36.001Z</time></trkpt><trkpt lat="24.13822497871168" lon="120.68282354303123"><ele>88.0</ele><time>2026-03-22T06:05:45.001Z</time></trkpt><trkpt lat="24.138276810046737" lon="120.68276840504325"><ele>88.0</ele><time>2026-03-22T06:06:02.002Z</time></trkpt><trkpt lat="24.138327810941828" lon="120.68270879401858"><ele>88.0</ele><time>2026-03-22T06:06:09.002Z</time></trkpt><trkpt lat="24.13838666180991" lon="120.68264258239583"><ele>87.71428571428572</ele><time>2026-03-22T06:06:17.002Z</time></trkpt><trkpt lat="24.138430904879" lon="120.6825905496008"><ele>87.42857142857143</ele><time>2026-03-22T06:06:22.999Z</time></trkpt><trkpt lat="24.138463575452295" lon="120.68252174187799"><ele>87.14285714285714</ele><time>2026-03-22T06:06:27.999Z</time></trkpt><trkpt lat="24.138515133311152" lon="120.68245995412516"><ele>86.85714285714286</ele><time>2026-03-22T06:06:32.999Z</time></trkpt><trkpt lat="24.138553436955192" lon="120.68240452738911"><ele>86.57142857142857</ele><time>2026-03-22T06:06:37.999Z</time></trkpt><trkpt lat="24.13859578442861" lon="120.68233878103165"><ele>86.28571428571429</ele><time>2026-03-22T06:06:44.999Z</time></trkpt><trkpt lat="24.138671413029382" lon="120.6823232556558"><ele>86.0</ele><time>2026-03-22T06:06:51Z</time></trkpt><trkpt lat="24.13871866540399" lon="120.6822724842811"><ele>86.0</ele><time>2026-03-22T06:07:17Z</time></trkpt><trkpt lat="24.138774220211456" lon="120.6822087113407"><ele>86.0</ele><time>2026-03-22T06:07:22Z</time></trkpt><trkpt lat="24.138819041768723" lon="120.68215725946607"><ele>86.0</ele><time>2026-03-22T06:07:28Z</time></trkpt><trkpt lat="24.138849010953226" lon="120.68207849341708"><ele>86.0</ele><time>2026-03-22T06:07:36Z</time></trkpt><trkpt lat="24.138915804839627" lon="120.68204618253883"><ele>86.0</ele><time>2026-03-22T06:07:52.001Z</time></trkpt><trkpt lat="24.13895936761067" lon="120.68199617555901"><ele>86.0</ele><time>2026-03-22T06:08:09.001Z</time></trkpt><trkpt lat="24.138706254979354" lon="120.68193860359297"><ele>88.0</ele><time>2026-03-22T06:10:05.001Z</time></trkpt><trkpt lat="24.139069768405346" lon="120.6819757592927"><ele>90.0</ele><time>2026-03-22T06:10:09.001Z</time></trkpt><trkpt lat="24.139149512592088" lon="120.6820078997686"><ele>90.0</ele><time>2026-03-22T06:22:20.729Z</time></trkpt><trkpt lat="24.139245967347335" lon="120.68208913080488"><ele>90.0</ele><time>2026-03-22T06:22:33.539Z</time></trkpt><trkpt lat="24.13914660841042" lon="120.68200635179272"><ele>90.0</ele><time>2026-03-22T06:24:15.735Z</time></trkpt><trkpt lat="24.139091571467475" lon="120.68196124726957"><ele>90.0</ele><time>2026-03-22T06:24:21.748Z</time></trkpt></trkseg><trkseg><trkpt lat="24.139062872225217" lon="120.68193000865348"><ele>88.57142857142857</ele><time>2026-03-22T06:34:42.362Z</time></trkpt><trkpt lat="24.138997633411652" lon="120.68192418692168"><ele>88.14285714285714</ele><time>2026-03-22T06:34:49.363Z</time></trkpt><trkpt lat="24.138922885255646" lon="120.681929863662"><ele>87.71428571428572</ele><time>2026-03-22T06:34:55.334Z</time></trkpt><trkpt lat="24.138865163078673" lon="120.68195940690231"><ele>87.28571428571428</ele><time>2026-03-22T06:35:00.334Z</time></trkpt><trkpt lat="24.13882620933906" lon="120.68202361029194"><ele>86.85714285714286</ele><time>2026-03-22T06:35:08.334Z</time></trkpt><trkpt lat="24.13875783340137" lon="120.68205817130774"><ele>86.42857142857143</ele><time>2026-03-22T06:35:12.334Z</time></trkpt><trkpt lat="24.138713638923598" lon="120.68213167455588"><ele>86.0</ele><time>2026-03-22T06:35:17.334Z</time></trkpt><trkpt lat="24.138678042539787" lon="120.68219060700281"><ele>86.0</ele><time>2026-03-22T06:35:21.334Z</time></trkpt><trkpt lat="24.138638969621756" lon="120.68227968512761"><ele>86.0</ele><time>2026-03-22T06:35:27.335Z</time></trkpt><trkpt lat="24.138567047788964" lon="120.68242556880259"><ele>86.0</ele><time>2026-03-22T06:35:33.335Z</time></trkpt><trkpt lat="24.138514409871377" lon="120.68248475210879"><ele>86.0</ele><time>2026-03-22T06:35:38.992Z</time></trkpt><trkpt lat="24.138453455054837" lon="120.6825209048178"><ele>86.0</ele><time>2026-03-22T06:35:45.992Z</time></trkpt><trkpt lat="24.138408168935783" lon="120.68257755191915"><ele>86.00000000000001</ele><time>2026-03-22T06:35:51.992Z</time></trkpt><trkpt lat="24.138348776456173" lon="120.68262387589297"><ele>86.0</ele><time>2026-03-22T06:35:55.992Z</time></trkpt><trkpt lat="24.138298160138767" lon="120.68266998823086"><ele>86.0</ele><time>2026-03-22T06:36:00.992Z</time></trkpt><trkpt lat="24.138253796437994" lon="120.68273723029525"><ele>86.0</ele><time>2026-03-22T06:36:05.992Z</time></trkpt><trkpt lat="24.13819438039147" lon="120.68277319697974"><ele>86.0</ele><time>2026-03-22T06:36:11.992Z</time></trkpt><trkpt lat="24.138145166405668" lon="120.68282348403912"><ele>86.00000000000001</ele><time>2026-03-22T06:36:15.992Z</time></trkpt><trkpt lat="24.138089566461055" lon="120.68286688598661"><ele>86.0</ele><time>2026-03-22T06:36:20.993Z</time></trkpt><trkpt lat="24.13804747555689" lon="120.68293635876327"><ele>86.28571428571429</ele><time>2026-03-22T06:36:25.993Z</time></trkpt><trkpt lat="24.138008092715946" lon="120.68300030000267"><ele>86.57142857142857</ele><time>2026-03-22T06:36:32.993Z</time></trkpt><trkpt lat="24.137994177244348" lon="120.68306766797357"><ele>86.85714285714286</ele><time>2026-03-22T06:37:34Z</time></trkpt><trkpt lat="24.13795330213103" lon="120.68314374263159"><ele>87.14285714285714</ele><time>2026-03-22T06:37:38Z</time></trkpt><trkpt lat="24.137909641903477" lon="120.68319519642186"><ele>87.42857142857143</ele><time>2026-03-22T06:37:43Z</time></trkpt><trkpt lat="24.13786295088312" lon="120.68324798866695"><ele>87.71428571428572</ele><time>2026-03-22T06:37:50.001Z</time></trkpt><trkpt lat="24.137824621235307" lon="120.683303255564"><ele>88.0</ele><time>2026-03-22T06:38:38.002Z</time></trkpt><trkpt lat="24.13779195847173" lon="120.68336948724087"><ele>88.0</ele><time>2026-03-22T06:38:45.003Z</time></trkpt><trkpt lat="24.13776661782715" lon="120.68343626499929"><ele>88.0</ele><time>2026-03-22T06:38:57.003Z</time></trkpt><trkpt lat="24.1377046427099" lon="120.6834540501751"><ele>88.0</ele><time>2026-03-22T06:39:26Z</time></trkpt><trkpt lat="24.137640380584504" lon="120.68348222302882"><ele>88.0</ele><time>2026-03-22T06:39:34Z</time></trkpt><trkpt lat="24.137629713439626" lon="120.68355110978071"><ele>88.0</ele><time>2026-03-22T06:39:39Z</time></trkpt><trkpt lat="24.13759034449912" lon="120.68360650501428"><ele>88.0</ele><time>2026-03-22T06:39:44.001Z</time></trkpt><trkpt lat="24.13754512502486" lon="120.68365654411645"><ele>88.0</ele><time>2026-03-22T06:39:50.001Z</time></trkpt><trkpt lat="24.137509202850822" lon="120.68372773908048"><ele>87.5</ele><time>2026-03-22T06:42:34.016Z</time></trkpt><trkpt lat="24.137545730966835" lon="120.68379245151732"><ele>87.0</ele><time>2026-03-22T06:42:41.024Z</time></trkpt><trkpt lat="24.137567910641522" lon="120.68387115672964"><ele>86.5</ele><time>2026-03-22T06:42:50.023Z</time></trkpt><trkpt lat="24.13751572290713" lon="120.68391684456275"><ele>86.0</ele><time>2026-03-22T06:43:00.001Z</time></trkpt><trkpt lat="24.13770300447923" lon="120.68408679251927"><ele>86.0</ele><time>2026-03-22T06:43:01.001Z</time></trkpt><trkpt lat="24.137745884028536" lon="120.68417715831941"><ele>86.0</ele><time>2026-03-22T06:43:02.001Z</time></trkpt><trkpt lat="24.137641921215522" lon="120.68415693793943"><ele>86.0</ele><time>2026-03-22T06:43:03.001Z</time></trkpt><trkpt lat="24.13759983829007" lon="120.68421353063191"><ele>86.0</ele><time>2026-03-22T06:43:07.001Z</time></trkpt><trkpt lat="24.137530968419462" lon="120.68422454850699"><ele>86.0</ele><time>2026-03-22T06:43:10.001Z</time></trkpt><trkpt lat="24.1374286862887" lon="120.68413483728165"><ele>86.0</ele><time>2026-03-22T06:43:11.001Z</time></trkpt><trkpt lat="24.137344454830433" lon="120.684126217997"><ele>86.0</ele><time>2026-03-22T06:43:14.001Z</time></trkpt><trkpt lat="24.137286655657874" lon="120.68415478819868"><ele>86.0</ele><time>2026-03-22T06:43:20.001Z</time></trkpt><trkpt lat="24.13734280936651" lon="120.68420454180745"><ele>86.0</ele><time>2026-03-22T06:43:37.002Z</time></trkpt><trkpt lat="24.13740641409049" lon="120.68425179506676"><ele>86.0</ele><time>2026-03-22T06:43:42.002Z</time></trkpt><trkpt lat="24.13748353992912" lon="120.68427678792747"><ele>86.0</ele><time>2026-03-22T06:43:50.002Z</time></trkpt><trkpt lat="24.13755588764399" lon="120.68429618091795"><ele>86.00000000000001</ele><time>2026-03-22T06:43:57.002Z</time></trkpt><trkpt lat="24.137612974832216" lon="120.68432535214436"><ele>86.0</ele><time>2026-03-22T06:44:06.002Z</time></trkpt><trkpt lat="24.13765884646917" lon="120.68438030144185"><ele>86.0</ele><time>2026-03-22T06:44:13.002Z</time></trkpt><trkpt lat="24.13770363367576" lon="120.68443166613432"><ele>86.0</ele><time>2026-03-22T06:44:21.003Z</time></trkpt><trkpt lat="24.137720304531953" lon="120.68453920754253"><ele>86.0</ele><time>2026-03-22T06:45:40.001Z</time></trkpt><trkpt lat="24.137751596178127" lon="120.68461412456577"><ele>86.00000000000001</ele><time>2026-03-22T06:45:48.001Z</time></trkpt><trkpt lat="24.137795305522552" lon="120.68468383377689"><ele>86.0</ele><time>2026-03-22T06:45:53.001Z</time></trkpt><trkpt lat="24.13779433145877" lon="120.68475634610937"><ele>85.66666666666667</ele><time>2026-03-22T06:45:59.002Z</time></trkpt><trkpt lat="24.13781305529368" lon="120.68484320120226"><ele>85.33333333333334</ele><time>2026-03-22T06:46:04.002Z</time></trkpt><trkpt lat="24.137841755477066" lon="120.68490602937172"><ele>85.0</ele><time>2026-03-22T06:46:08.002Z</time></trkpt><trkpt lat="24.13785057414399" lon="120.68498425318873"><ele>84.66666666666667</ele><time>2026-03-22T06:46:13.002Z</time></trkpt><trkpt lat="24.137764053105236" lon="120.68500258988317"><ele>84.33333333333333</ele><time>2026-03-22T06:46:23.002Z</time></trkpt><trkpt lat="24.13783158363935" lon="120.68493054307109"><ele>84.0</ele><time>2026-03-22T06:50:36.001Z</time></trkpt><trkpt lat="24.13790230182746" lon="120.68488416225159"><ele>84.0</ele><time>2026-03-22T06:50:41.001Z</time></trkpt><trkpt lat="24.13795105604673" lon="120.68480116863151"><ele>84.0</ele><time>2026-03-22T06:50:50.002Z</time></trkpt><trkpt lat="24.137981383496378" lon="120.68472796794228"><ele>84.0</ele><time>2026-03-22T06:50:57.002Z</time></trkpt><trkpt lat="24.137998109115326" lon="120.68465297943128"><ele>84.0</ele><time>2026-03-22T06:51:01.002Z</time></trkpt><trkpt lat="24.137937774824085" lon="120.68462164451043"><ele>84.0</ele><time>2026-03-22T06:51:06.002Z</time></trkpt><trkpt lat="24.137858321818783" lon="120.68462580004977"><ele>84.0</ele><time>2026-03-22T06:51:15.001Z</time></trkpt><trkpt lat="24.13780854586047" lon="120.68458005028825"><ele>84.0</ele><time>2026-03-22T06:51:21.001Z</time></trkpt><trkpt lat="24.137819932331467" lon="120.68450148065091"><ele>84.0</ele><time>2026-03-22T06:51:26.001Z</time></trkpt><trkpt lat="24.13786413584809" lon="120.68444111303198"><ele>84.0</ele><time>2026-03-22T06:51:30.001Z</time></trkpt><trkpt lat="24.13792210875814" lon="120.68439379742357"><ele>84.0</ele><time>2026-03-22T06:51:37.001Z</time></trkpt><trkpt lat="24.137978474315393" lon="120.6843474399648"><ele>84.0</ele><time>2026-03-22T06:51:42.001Z</time></trkpt><trkpt lat="24.13804174054509" lon="120.68444598613647"><ele>84.0</ele><time>2026-03-22T06:53:32.001Z</time></trkpt><trkpt lat="24.13809838672063" lon="120.68440286081555"><ele>84.0</ele><time>2026-03-22T06:53:58.001Z</time></trkpt><trkpt lat="24.13802642904061" lon="120.68444292216824"><ele>84.0</ele><time>2026-03-22T06:54:05.001Z</time></trkpt><trkpt lat="24.138003287667395" lon="120.68453450542961"><ele>84.0</ele><time>2026-03-22T06:54:06.001Z</time></trkpt><trkpt lat="24.137984320300834" lon="120.68461599008843"><ele>84.0</ele><time>2026-03-22T06:54:08.001Z</time></trkpt><trkpt lat="24.137909845894473" lon="120.68457583293292"><ele>84.0</ele><time>2026-03-22T06:54:13.001Z</time></trkpt><trkpt lat="24.13788185268569" lon="120.68450768984573"><ele>84.0</ele><time>2026-03-22T06:54:15.001Z</time></trkpt><trkpt lat="24.137854397511816" lon="120.6844407146812"><ele>84.0</ele><time>2026-03-22T06:54:19.001Z</time></trkpt><trkpt lat="24.137750799117715" lon="120.68439946127606"><ele>84.28571428571429</ele><time>2026-03-22T06:54:28.001Z</time></trkpt><trkpt lat="24.13769294942003" lon="120.68432104197163"><ele>84.57142857142857</ele><time>2026-03-22T06:54:31.001Z</time></trkpt><trkpt lat="24.137639967638112" lon="120.68427899985018"><ele>84.85714285714286</ele><time>2026-03-22T06:54:35.001Z</time></trkpt><trkpt lat="24.137598260996292" lon="120.6842208568458"><ele>85.14285714285714</ele><time>2026-03-22T06:54:37.001Z</time></trkpt><trkpt lat="24.137571005238787" lon="120.68414223415122"><ele>85.42857142857143</ele><time>2026-03-22T06:54:42.001Z</time></trkpt><trkpt lat="24.137503592266707" lon="120.6841558305605"><ele>85.71428571428572</ele><time>2026-03-22T06:54:48.001Z</time></trkpt><trkpt lat="24.13743675166067" lon="120.68418958942816"><ele>86.0</ele><time>2026-03-22T06:54:52.001Z</time></trkpt><trkpt lat="24.137380872105343" lon="120.68422984017826"><ele>86.00000000000001</ele><time>2026-03-22T06:55:00.001Z</time></trkpt><trkpt lat="24.13737116867081" lon="120.68415907099721"><ele>86.0</ele><time>2026-03-22T06:55:46Z</time></trkpt><trkpt lat="24.13731004624805" lon="120.68412838823093"><ele>86.0</ele><time>2026-03-22T06:55:55Z</time></trkpt><trkpt lat="24.137361575981302" lon="120.68407038765542"><ele>86.0</ele><time>2026-03-22T06:56:06Z</time></trkpt><trkpt lat="24.13740883899178" lon="120.68402410246503"><ele>86.0</ele><time>2026-03-22T06:56:15Z</time></trkpt><trkpt lat="24.13744251984435" lon="120.68396433586963"><ele>86.00000000000001</ele><time>2026-03-22T06:56:18Z</time></trkpt><trkpt lat="24.137501245610963" lon="120.68392995936276"><ele>86.0</ele><time>2026-03-22T06:56:22Z</time></trkpt><trkpt lat="24.137542083600355" lon="120.68387693092154"><ele>86.0</ele><time>2026-03-22T06:56:29.001Z</time></trkpt><trkpt lat="24.13756976311497" lon="120.68381298208688"><ele>86.0</ele><time>2026-03-22T06:56:36.001Z</time></trkpt><trkpt lat="24.137593609294715" lon="120.68369432575177"><ele>86.0</ele><time>2026-03-22T07:00:52.001Z</time></trkpt><trkpt lat="24.13755265845565" lon="120.6836368535349"><ele>86.0</ele><time>2026-03-22T07:01:36.001Z</time></trkpt><trkpt lat="24.13755896344224" lon="120.68371758673783"><ele>86.0</ele><time>2026-03-22T07:02:04Z</time></trkpt><trkpt lat="24.137484456600422" lon="120.68376852148238"><ele>86.0</ele><time>2026-03-22T07:02:07Z</time></trkpt><trkpt lat="24.137433702375926" lon="120.6838144012571"><ele>86.0</ele><time>2026-03-22T07:02:11Z</time></trkpt><trkpt lat="24.13742250055445" lon="120.68390169791171"><ele>86.0</ele><time>2026-03-22T07:02:26Z</time></trkpt><trkpt lat="24.13738719702359" lon="120.68398178474415"><ele>86.0</ele><time>2026-03-22T07:02:29Z</time></trkpt><trkpt lat="24.13735509830292" lon="120.68404440424587"><ele>86.0</ele><time>2026-03-22T07:02:31Z</time></trkpt><trkpt lat="24.1372863039704" lon="120.68411986229435"><ele>86.0</ele><time>2026-03-22T07:02:34Z</time></trkpt><trkpt lat="24.137253108602554" lon="120.68418772808559"><ele>86.0</ele><time>2026-03-22T07:02:36Z</time></trkpt><trkpt lat="24.137224908040487" lon="120.68425125377561"><ele>85.71428571428572</ele><time>2026-03-22T07:02:39Z</time></trkpt><trkpt lat="24.137183403398065" lon="120.68432018719011"><ele>85.42857142857143</ele><time>2026-03-22T07:02:44Z</time></trkpt><trkpt lat="24.13715058181588" lon="120.68439194313312"><ele>85.14285714285714</ele><time>2026-03-22T07:02:48Z</time></trkpt><trkpt lat="24.137162820805894" lon="120.6844663249255"><ele>84.85714285714286</ele><time>2026-03-22T07:03:25.001Z</time></trkpt><trkpt lat="24.137222292918764" lon="120.68452946161626"><ele>84.57142857142857</ele><time>2026-03-22T07:03:29.001Z</time></trkpt><trkpt lat="24.137289255688664" lon="120.6845705221915"><ele>84.28571428571429</ele><time>2026-03-22T07:03:31.001Z</time></trkpt><trkpt lat="24.13734815719468" lon="120.68461531905936"><ele>84.0</ele><time>2026-03-22T07:03:33.001Z</time></trkpt><trkpt lat="24.13739512861194" lon="120.684666945275"><ele>84.0</ele><time>2026-03-22T07:03:35.001Z</time></trkpt><trkpt lat="24.137439590002955" lon="120.68473551719588"><ele>84.0</ele><time>2026-03-22T07:03:38.001Z</time></trkpt><trkpt lat="24.137489725114204" lon="120.68482009239956"><ele>84.0</ele><time>2026-03-22T07:03:40.001Z</time></trkpt><trkpt lat="24.137542200660782" lon="120.68490748641784"><ele>84.0</ele><time>2026-03-22T07:03:42.001Z</time></trkpt><trkpt lat="24.137593472882592" lon="120.68499461953854"><ele>84.0</ele><time>2026-03-22T07:03:44.001Z</time></trkpt><trkpt lat="24.137647979403184" lon="120.68508295100449"><ele>84.0</ele><time>2026-03-22T07:03:46.001Z</time></trkpt><trkpt lat="24.137709016307507" lon="120.68515749146538"><ele>84.0</ele><time>2026-03-22T07:03:47.999Z</time></trkpt><trkpt lat="24.137778577726785" lon="120.68521188228308"><ele>84.0</ele><time>2026-03-22T07:03:49.999Z</time></trkpt><trkpt lat="24.137875706500548" lon="120.68528991252643"><ele>84.0</ele><time>2026-03-22T07:03:51.999Z</time></trkpt><trkpt lat="24.13793334045303" lon="120.68533815928416"><ele>84.0</ele><time>2026-03-22T07:03:52.999Z</time></trkpt><trkpt lat="24.137994006552844" lon="120.68538564693861"><ele>84.0</ele><time>2026-03-22T07:03:53.999Z</time></trkpt><trkpt lat="24.138056269700158" lon="120.68543177188228"><ele>84.0</ele><time>2026-03-22T07:03:54.999Z</time></trkpt><trkpt lat="24.13810751128462" lon="120.68548855039265"><ele>84.0</ele><time>2026-03-22T07:03:55.999Z</time></trkpt><trkpt lat="24.138164714605605" lon="120.68554563414189"><ele>84.0</ele><time>2026-03-22T07:03:56.999Z</time></trkpt><trkpt lat="24.13822987446022" lon="120.68558939153411"><ele>84.0</ele><time>2026-03-22T07:03:57.999Z</time></trkpt><trkpt lat="24.13829746265343" lon="120.68563835847388"><ele>84.0</ele><time>2026-03-22T07:03:58.999Z</time></trkpt><trkpt lat="24.1383646853974" lon="120.685690355298"><ele>84.0</ele><time>2026-03-22T07:03:59.999Z</time></trkpt><trkpt lat="24.138431674710915" lon="120.68574692758818"><ele>83.66666666666667</ele><time>2026-03-22T07:04:00.999Z</time></trkpt><trkpt lat="24.138501011777628" lon="120.68580918032933"><ele>83.33333333333333</ele><time>2026-03-22T07:04:01.999Z</time></trkpt><trkpt lat="24.138570480245104" lon="120.68587412215587"><ele>83.0</ele><time>2026-03-22T07:04:02.999Z</time></trkpt><trkpt lat="24.138643539305527" lon="120.68592758274372"><ele>82.66666666666666</ele><time>2026-03-22T07:04:03.999Z</time></trkpt><trkpt lat="24.138717627899656" lon="120.68598686130068"><ele>82.33333333333333</ele><time>2026-03-22T07:04:04.999Z</time></trkpt><trkpt lat="24.13879001050915" lon="120.68603384763468"><ele>82.0</ele><time>2026-03-22T07:04:05.999Z</time></trkpt><trkpt lat="24.138867163802736" lon="120.6860696626129"><ele>82.0</ele><time>2026-03-22T07:04:06.999Z</time></trkpt><trkpt lat="24.138946160000046" lon="120.68609482060502"><ele>82.0</ele><time>2026-03-22T07:04:07.999Z</time></trkpt><trkpt lat="24.139034329831418" lon="120.68609847006717"><ele>82.0</ele><time>2026-03-22T07:04:08.999Z</time></trkpt><trkpt lat="24.139122132118153" lon="120.68610828028847"><ele>82.0</ele><time>2026-03-22T07:04:09.999Z</time></trkpt><trkpt lat="24.139209081300617" lon="120.68611478230432"><ele>82.0</ele><time>2026-03-22T07:04:10.999Z</time></trkpt><trkpt lat="24.139294137701466" lon="120.68611842004944"><ele>82.0</ele><time>2026-03-22T07:04:11.999Z</time></trkpt><trkpt lat="24.139375939904173" lon="120.68611983572639"><ele>81.99999999999999</ele><time>2026-03-22T07:04:12.999Z</time></trkpt><trkpt lat="24.13945525430299" lon="120.68610388734542"><ele>82.0</ele><time>2026-03-22T07:04:13.999Z</time></trkpt><trkpt lat="24.139532807273127" lon="120.68610536195865"><ele>82.0</ele><time>2026-03-22T07:04:14.999Z</time></trkpt><trkpt lat="24.13960767597193" lon="120.68610689109165"><ele>82.0</ele><time>2026-03-22T07:04:15.999Z</time></trkpt><trkpt lat="24.139677729494327" lon="120.68609955418461"><ele>82.0</ele><time>2026-03-22T07:04:16.999Z</time></trkpt><trkpt lat="24.139748828970745" lon="120.68609049778458"><ele>81.99999999999999</ele><time>2026-03-22T07:04:17.999Z</time></trkpt><trkpt lat="24.139805801301794" lon="120.68604530779007"><ele>82.0</ele><time>2026-03-22T07:04:18.999Z</time></trkpt><trkpt lat="24.13988253192862" lon="120.68603722642057"><ele>82.0</ele><time>2026-03-22T07:04:20Z</time></trkpt><trkpt lat="24.139985677172362" lon="120.6860312904622"><ele>82.0</ele><time>2026-03-22T07:04:22Z</time></trkpt><trkpt lat="24.140048693615704" lon="120.68602751714916"><ele>82.0</ele><time>2026-03-22T07:04:24Z</time></trkpt><trkpt lat="24.140120958658972" lon="120.68621582570297"><ele>82.0</ele><time>2026-03-22T07:04:26Z</time></trkpt><trkpt lat="24.140105657866123" lon="120.68631649193445"><ele>82.0</ele><time>2026-03-22T07:04:28Z</time></trkpt><trkpt lat="24.140105501171767" lon="120.68643326727572"><ele>82.0</ele><time>2026-03-22T07:04:30Z</time></trkpt><trkpt lat="24.14009975976097" lon="120.6865478810235"><ele>82.0</ele><time>2026-03-22T07:04:32Z</time></trkpt><trkpt lat="24.140092970828423" lon="120.68665714501915"><ele>82.0</ele><time>2026-03-22T07:04:34Z</time></trkpt><trkpt lat="24.140091762193112" lon="120.68675824936837"><ele>82.0</ele><time>2026-03-22T07:04:36Z</time></trkpt><trkpt lat="24.140091325063096" lon="120.68685746738649"><ele>82.0</ele><time>2026-03-22T07:04:38Z</time></trkpt><trkpt lat="24.140088244044502" lon="120.68695429195866"><ele>82.33333333333333</ele><time>2026-03-22T07:04:40Z</time></trkpt><trkpt lat="24.140087336453373" lon="120.68703995036456"><ele>82.66666666666666</ele><time>2026-03-22T07:04:42Z</time></trkpt><trkpt lat="24.140084580937945" lon="120.68711364627892"><ele>83.0</ele><time>2026-03-22T07:04:44Z</time></trkpt><trkpt lat="24.14008181797099" lon="120.68720688056972"><ele>83.33333333333333</ele><time>2026-03-22T07:04:47Z</time></trkpt><trkpt lat="24.140088597470083" lon="120.6873100678161"><ele>83.66666666666667</ele><time>2026-03-22T07:05:12Z</time></trkpt><trkpt lat="24.140086278815975" lon="120.68738498140443"><ele>84.0</ele><time>2026-03-22T07:05:14Z</time></trkpt><trkpt lat="24.140083823621794" lon="120.68746430660279"><ele>84.0</ele><time>2026-03-22T07:05:16Z</time></trkpt><trkpt lat="24.140080176056692" lon="120.68758215622164"><ele>84.0</ele><time>2026-03-22T07:05:18Z</time></trkpt><trkpt lat="24.140075977819347" lon="120.68770540434127"><ele>84.0</ele><time>2026-03-22T07:05:20.001Z</time></trkpt><trkpt lat="24.140070925403492" lon="120.68784869403318"><ele>84.0</ele><time>2026-03-22T07:05:22.001Z</time></trkpt><trkpt lat="24.14007062671817" lon="120.68793254005467"><ele>84.0</ele><time>2026-03-22T07:05:23.001Z</time></trkpt><trkpt lat="24.140069127148845" lon="120.68802256328533"><ele>83.80000000000001</ele><time>2026-03-22T07:05:24.001Z</time></trkpt><trkpt lat="24.140067510682716" lon="120.68811960420147"><ele>83.60000000000001</ele><time>2026-03-22T07:05:25.001Z</time></trkpt><trkpt lat="24.140065795531964" lon="120.68822256930682"><ele>83.4</ele><time>2026-03-22T07:05:26.001Z</time></trkpt><trkpt lat="24.140061033210664" lon="120.68833181578404"><ele>83.2</ele><time>2026-03-22T07:05:27.001Z</time></trkpt><trkpt lat="24.140057599565164" lon="120.68843938434824"><ele>83.0</ele><time>2026-03-22T07:05:28.001Z</time></trkpt><trkpt lat="24.140054540155763" lon="120.68854566118549"><ele>84.0</ele><time>2026-03-22T07:05:29.001Z</time></trkpt><trkpt lat="24.140051238177495" lon="120.68865671949044"><ele>85.0</ele><time>2026-03-22T07:05:30.001Z</time></trkpt><trkpt lat="24.140047573101267" lon="120.68877033685304"><ele>86.0</ele><time>2026-03-22T07:05:31.001Z</time></trkpt><trkpt lat="24.140043775381642" lon="120.68888806615712"><ele>87.0</ele><time>2026-03-22T07:05:32.001Z</time></trkpt><trkpt lat="24.14003985205143" lon="120.68900968943316"><ele>88.0</ele><time>2026-03-22T07:05:33.001Z</time></trkpt><trkpt lat="24.140036150062176" lon="120.68912984119994"><ele>88.0</ele><time>2026-03-22T07:05:34.001Z</time></trkpt><trkpt lat="24.140032597901705" lon="120.68924742499196"><ele>88.0</ele><time>2026-03-22T07:05:35.001Z</time></trkpt><trkpt lat="24.140029377334088" lon="120.68936263028412"><ele>88.0</ele><time>2026-03-22T07:05:36.001Z</time></trkpt><trkpt lat="24.140028024698797" lon="120.68947331976102"><ele>88.0</ele><time>2026-03-22T07:05:37.001Z</time></trkpt><trkpt lat="24.140026775881307" lon="120.68958740629307"><ele>88.0</ele><time>2026-03-22T07:05:38.001Z</time></trkpt><trkpt lat="24.140025377346884" lon="120.68970722361964"><ele>87.2</ele><time>2026-03-22T07:05:39.001Z</time></trkpt><trkpt lat="24.140023930300295" lon="120.68983119710614"><ele>86.4</ele><time>2026-03-22T07:05:40.001Z</time></trkpt><trkpt lat="24.140008155756657" lon="120.68995179623357"><ele>85.60000000000001</ele><time>2026-03-22T07:05:41.001Z</time></trkpt><trkpt lat="24.140004633382663" lon="120.69006337405551"><ele>84.80000000000001</ele><time>2026-03-22T07:05:42.001Z</time></trkpt><trkpt lat="24.14000320275432" lon="120.69017371636447"><ele>84.0</ele><time>2026-03-22T07:05:43.001Z</time></trkpt><trkpt lat="24.14000318483372" lon="120.6902809815873"><ele>84.0</ele><time>2026-03-22T07:05:44.001Z</time></trkpt><trkpt lat="24.139999695778698" lon="120.69038433857953"><ele>84.0</ele><time>2026-03-22T07:05:45.001Z</time></trkpt><trkpt lat="24.140013004249376" lon="120.69048644335801"><ele>84.0</ele><time>2026-03-22T07:05:46.001Z</time></trkpt><trkpt lat="24.14001042027313" lon="120.69057840918211"><ele>84.0</ele><time>2026-03-22T07:05:47.001Z</time></trkpt><trkpt lat="24.139994546671534" lon="120.69064866930793"><ele>84.0</ele><time>2026-03-22T07:05:48.001Z</time></trkpt><trkpt lat="24.139993998043145" lon="120.69072667229982"><ele>84.0</ele><time>2026-03-22T07:05:50.001Z</time></trkpt><trkpt lat="24.139991092858374" lon="120.69080415750702"><ele>84.0</ele><time>2026-03-22T07:06:28.998Z</time></trkpt><trkpt lat="24.13998925161985" lon="120.69087986290337"><ele>84.0</ele><time>2026-03-22T07:06:30.998Z</time></trkpt><trkpt lat="24.13998787323748" lon="120.69096244238499"><ele>84.0</ele><time>2026-03-22T07:06:32.998Z</time></trkpt><trkpt lat="24.139983211960473" lon="120.6910840998609"><ele>84.0</ele><time>2026-03-22T07:06:34.998Z</time></trkpt><trkpt lat="24.139980227029593" lon="120.69120761973147"><ele>84.0</ele><time>2026-03-22T07:06:36.998Z</time></trkpt><trkpt lat="24.13997726074639" lon="120.69134659193642"><ele>83.0</ele><time>2026-03-22T07:06:38.999Z</time></trkpt><trkpt lat="24.139977442661777" lon="120.69141666563867"><ele>82.0</ele><time>2026-03-22T07:06:39.999Z</time></trkpt><trkpt lat="24.13997783966014" lon="120.69154278650745"><ele>81.0</ele><time>2026-03-22T07:06:41.999Z</time></trkpt><trkpt lat="24.139978221169468" lon="120.69165692276658"><ele>80.0</ele><time>2026-03-22T07:06:43.999Z</time></trkpt><trkpt lat="24.13998072723092" lon="120.69177948598286"><ele>79.0</ele><time>2026-03-22T07:06:45.999Z</time></trkpt><trkpt lat="24.139970212175005" lon="120.69187900529826"><ele>79.66666666666666</ele><time>2026-03-22T07:06:47.999Z</time></trkpt><trkpt lat="24.139967915360394" lon="120.69196150529098"><ele>80.33333333333333</ele><time>2026-03-22T07:06:50.999Z</time></trkpt><trkpt lat="24.13996687920795" lon="120.69203437725872"><ele>81.0</ele><time>2026-03-22T07:07:23Z</time></trkpt><trkpt lat="24.13996382040047" lon="120.6921101875564"><ele>81.66666666666667</ele><time>2026-03-22T07:07:25Z</time></trkpt><trkpt lat="24.139960829773045" lon="120.69219609152115"><ele>82.33333333333334</ele><time>2026-03-22T07:07:27Z</time></trkpt><trkpt lat="24.139965947430614" lon="120.69231406772863"><ele>83.0</ele><time>2026-03-22T07:07:29Z</time></trkpt><trkpt lat="24.139990029127354" lon="120.69243780757358"><ele>83.0</ele><time>2026-03-22T07:07:31Z</time></trkpt><trkpt lat="24.140034331961967" lon="120.69256731508361"><ele>83.0</ele><time>2026-03-22T07:07:33Z</time></trkpt><trkpt lat="24.140065048919723" lon="120.69263633983398"><ele>83.0</ele><time>2026-03-22T07:07:34Z</time></trkpt><trkpt lat="24.14009802972253" lon="120.69270965677393"><ele>83.0</ele><time>2026-03-22T07:07:35Z</time></trkpt><trkpt lat="24.140130147671215" lon="120.6927806716086"><ele>83.0</ele><time>2026-03-22T07:07:36Z</time></trkpt><trkpt lat="24.140159781015903" lon="120.69285034419438"><ele>83.0</ele><time>2026-03-22T07:07:37Z</time></trkpt><trkpt lat="24.140190481949737" lon="120.69292170237051"><ele>82.85714285714285</ele><time>2026-03-22T07:07:38Z</time></trkpt><trkpt lat="24.140222202140937" lon="120.69299549476855"><ele>82.71428571428572</ele><time>2026-03-22T07:07:39Z</time></trkpt><trkpt lat="24.140252458074563" lon="120.69306719808999"><ele>82.57142857142857</ele><time>2026-03-22T07:07:40Z</time></trkpt><trkpt lat="24.140282247271397" lon="120.69313531870563"><ele>82.42857142857142</ele><time>2026-03-22T07:07:41Z</time></trkpt><trkpt lat="24.140311940905946" lon="120.69320613290388"><ele>82.28571428571428</ele><time>2026-03-22T07:07:42Z</time></trkpt><trkpt lat="24.140345044413756" lon="120.6932856480005"><ele>82.14285714285714</ele><time>2026-03-22T07:07:43Z</time></trkpt><trkpt lat="24.140378931609597" lon="120.69336408906977"><ele>82.0</ele><time>2026-03-22T07:07:44Z</time></trkpt><trkpt lat="24.14041069213022" lon="120.69343743863806"><ele>81.99999999999999</ele><time>2026-03-22T07:07:45Z</time></trkpt><trkpt lat="24.14044237519805" lon="120.69351067065767"><ele>82.0</ele><time>2026-03-22T07:07:46Z</time></trkpt><trkpt lat="24.1404731812561" lon="120.69357979031619"><ele>82.0</ele><time>2026-03-22T07:07:47Z</time></trkpt><trkpt lat="24.14050407905882" lon="120.69364492460096"><ele>82.0</ele><time>2026-03-22T07:07:48Z</time></trkpt><trkpt lat="24.140533099485403" lon="120.69370717706892"><ele>82.0</ele><time>2026-03-22T07:07:49Z</time></trkpt><trkpt lat="24.140561263948467" lon="120.69377151721302"><ele>81.99999999999999</ele><time>2026-03-22T07:07:50Z</time></trkpt><trkpt lat="24.140610177615788" lon="120.69386217879746"><ele>82.0</ele><time>2026-03-22T07:07:52Z</time></trkpt><trkpt lat="24.140647835129364" lon="120.69393489596244"><ele>81.83333333333333</ele><time>2026-03-22T07:07:55Z</time></trkpt><trkpt lat="24.140699332821104" lon="120.69398757645662"><ele>81.66666666666666</ele><time>2026-03-22T07:09:14Z</time></trkpt><trkpt lat="24.140735768456068" lon="120.69405500051019"><ele>81.5</ele><time>2026-03-22T07:09:16Z</time></trkpt><trkpt lat="24.140775592535878" lon="120.69412866688322"><ele>81.33333333333333</ele><time>2026-03-22T07:09:18Z</time></trkpt><trkpt lat="24.140836414993373" lon="120.69422968846577"><ele>81.16666666666667</ele><time>2026-03-22T07:09:20.001Z</time></trkpt><trkpt lat="24.140899295476128" lon="120.69433500829948"><ele>81.0</ele><time>2026-03-22T07:09:22.001Z</time></trkpt><trkpt lat="24.14097377352644" lon="120.6944481585587"><ele>81.5</ele><time>2026-03-22T07:09:24.001Z</time></trkpt><trkpt lat="24.14102014155739" lon="120.69450936354451"><ele>82.0</ele><time>2026-03-22T07:09:25.001Z</time></trkpt><trkpt lat="24.141067939255876" lon="120.69457549215801"><ele>82.5</ele><time>2026-03-22T07:09:26.001Z</time></trkpt><trkpt lat="24.141118911694793" lon="120.69464513139081"><ele>83.0</ele><time>2026-03-22T07:09:27.001Z</time></trkpt><trkpt lat="24.141173615034806" lon="120.69471616870969"><ele>83.5</ele><time>2026-03-22T07:09:28.001Z</time></trkpt><trkpt lat="24.141232286140816" lon="120.69478815419848"><ele>84.0</ele><time>2026-03-22T07:09:29.001Z</time></trkpt><trkpt lat="24.141288093685112" lon="120.6948585909565"><ele>84.0</ele><time>2026-03-22T07:09:30.001Z</time></trkpt><trkpt lat="24.141345009986217" lon="120.69492132093775"><ele>84.0</ele><time>2026-03-22T07:09:31.001Z</time></trkpt><trkpt lat="24.141395002694278" lon="120.69498480220203"><ele>84.0</ele><time>2026-03-22T07:09:32.001Z</time></trkpt><trkpt lat="24.141446192209273" lon="120.69504065787716"><ele>84.0</ele><time>2026-03-22T07:09:33.001Z</time></trkpt><trkpt lat="24.141493138329775" lon="120.69509732872847"><ele>84.0</ele><time>2026-03-22T07:09:34.001Z</time></trkpt><trkpt lat="24.1415389981567" lon="120.69514907020205"><ele>84.0</ele><time>2026-03-22T07:09:35.001Z</time></trkpt><trkpt lat="24.14158742512363" lon="120.69519955480608"><ele>84.0</ele><time>2026-03-22T07:09:36.001Z</time></trkpt><trkpt lat="24.14163408069845" lon="120.69524642677784"><ele>84.33333333333333</ele><time>2026-03-22T07:09:37.001Z</time></trkpt><trkpt lat="24.141685765985773" lon="120.69528763450286"><ele>84.66666666666667</ele><time>2026-03-22T07:09:38.001Z</time></trkpt><trkpt lat="24.141740770405658" lon="120.69533235626189"><ele>85.0</ele><time>2026-03-22T07:09:39.001Z</time></trkpt><trkpt lat="24.14179307641787" lon="120.69537806921942"><ele>85.33333333333334</ele><time>2026-03-22T07:09:40.001Z</time></trkpt><trkpt lat="24.14184321531799" lon="120.69542127644328"><ele>85.66666666666667</ele><time>2026-03-22T07:09:41.001Z</time></trkpt><trkpt lat="24.14193968259943" lon="120.69549747527888"><ele>86.0</ele><time>2026-03-22T07:09:43.001Z</time></trkpt><trkpt lat="24.142024961917336" lon="120.69556700607949"><ele>86.0</ele><time>2026-03-22T07:09:45.001Z</time></trkpt><trkpt lat="24.14210440848018" lon="120.69562919011908"><ele>86.0</ele><time>2026-03-22T07:09:47.001Z</time></trkpt><trkpt lat="24.142178757464336" lon="120.69568927018558"><ele>86.0</ele><time>2026-03-22T07:09:49.001Z</time></trkpt><trkpt lat="24.14223907699707" lon="120.69573496130168"><ele>86.0</ele><time>2026-03-22T07:09:51.001Z</time></trkpt><trkpt lat="24.142289677152952" lon="120.69577620516742"><ele>86.0</ele><time>2026-03-22T07:09:54.001Z</time></trkpt><trkpt lat="24.14234055798828" lon="120.69581917532938"><ele>86.0</ele><time>2026-03-22T07:10:28Z</time></trkpt><trkpt lat="24.142395617874634" lon="120.6958647025553"><ele>86.19999999999999</ele><time>2026-03-22T07:10:30Z</time></trkpt><trkpt lat="24.14245493577267" lon="120.69590978790241"><ele>86.39999999999999</ele><time>2026-03-22T07:10:32Z</time></trkpt><trkpt lat="24.142525675139318" lon="120.69596303869947"><ele>86.6</ele><time>2026-03-22T07:10:34Z</time></trkpt><trkpt lat="24.14260097534149" lon="120.69601323508486"><ele>86.8</ele><time>2026-03-22T07:10:36Z</time></trkpt><trkpt lat="24.14268092002757" lon="120.69609317676802"><ele>87.0</ele><time>2026-03-22T07:10:38.001Z</time></trkpt><trkpt lat="24.14274811503174" lon="120.69619755685915"><ele>87.0</ele><time>2026-03-22T07:10:40.001Z</time></trkpt><trkpt lat="24.14276805564445" lon="120.69626314947656"><ele>87.0</ele><time>2026-03-22T07:10:41.001Z</time></trkpt><trkpt lat="24.142842805556832" lon="120.6962972089205"><ele>87.0</ele><time>2026-03-22T07:10:42.001Z</time></trkpt><trkpt lat="24.14290457586398" lon="120.69633825090932"><ele>87.0</ele><time>2026-03-22T07:10:43.001Z</time></trkpt><trkpt lat="24.1429725270109" lon="120.6963751830502"><ele>87.0</ele><time>2026-03-22T07:10:44.001Z</time></trkpt><trkpt lat="24.143046253313404" lon="120.69641266875685"><ele>87.0</ele><time>2026-03-22T07:10:45.001Z</time></trkpt><trkpt lat="24.14312526975015" lon="120.69645053976085"><ele>87.0</ele><time>2026-03-22T07:10:46.001Z</time></trkpt><trkpt lat="24.143210062045107" lon="120.69648546661334"><ele>87.0</ele><time>2026-03-22T07:10:47.001Z</time></trkpt><trkpt lat="24.143298974268077" lon="120.69651928260991"><ele>87.0</ele><time>2026-03-22T07:10:48.001Z</time></trkpt><trkpt lat="24.143389526515264" lon="120.6965524606562"><ele>87.0</ele><time>2026-03-22T07:10:49.001Z</time></trkpt><trkpt lat="24.1434758428657" lon="120.69659502417778"><ele>87.0</ele><time>2026-03-22T07:10:50.001Z</time></trkpt><trkpt lat="24.14355960308682" lon="120.69662694468639"><ele>87.6</ele><time>2026-03-22T07:10:51.001Z</time></trkpt><trkpt lat="24.143645115257073" lon="120.69665804271344"><ele>88.19999999999999</ele><time>2026-03-22T07:10:52.001Z</time></trkpt><trkpt lat="24.14373299002887" lon="120.69668963281406"><ele>88.8</ele><time>2026-03-22T07:10:53.001Z</time></trkpt><trkpt lat="24.143822611932233" lon="120.69671983199217"><ele>89.4</ele><time>2026-03-22T07:10:54.001Z</time></trkpt><trkpt lat="24.14391052063068" lon="120.6967477510222"><ele>90.0</ele><time>2026-03-22T07:10:55.001Z</time></trkpt><trkpt lat="24.143998180831076" lon="120.69677441349438"><ele>90.33333333333333</ele><time>2026-03-22T07:10:56.001Z</time></trkpt><trkpt lat="24.144083408011564" lon="120.69679655146437"><ele>90.66666666666667</ele><time>2026-03-22T07:10:57.001Z</time></trkpt><trkpt lat="24.14416603570512" lon="120.69681467626515"><ele>91.0</ele><time>2026-03-22T07:10:58.001Z</time></trkpt><trkpt lat="24.14424580570321" lon="120.69682905584915"><ele>91.33333333333334</ele><time>2026-03-22T07:10:59.001Z</time></trkpt><trkpt lat="24.144321708764647" lon="120.6968416551332"><ele>91.66666666666667</ele><time>2026-03-22T07:11:00.001Z</time></trkpt><trkpt lat="24.14439575198092" lon="120.69685231632484"><ele>92.0</ele><time>2026-03-22T07:11:01.001Z</time></trkpt><trkpt lat="24.144461613150675" lon="120.69686049040266"><ele>92.0</ele><time>2026-03-22T07:11:02.001Z</time></trkpt><trkpt lat="24.144548658785823" lon="120.69687359761781"><ele>92.0</ele><time>2026-03-22T07:11:04.001Z</time></trkpt><trkpt lat="24.144612913037193" lon="120.69690463475622"><ele>92.0</ele><time>2026-03-22T07:11:09.001Z</time></trkpt><trkpt lat="24.144645694981367" lon="120.69699742637954"><ele>92.0</ele><time>2026-03-22T07:11:14.001Z</time></trkpt><trkpt lat="24.144645694987464" lon="120.6970932482918"><ele>92.0</ele><time>2026-03-22T07:11:26.002Z</time></trkpt><trkpt lat="24.14464569498483" lon="120.69716507937281"><ele>92.0</ele><time>2026-03-22T07:11:28.002Z</time></trkpt><trkpt lat="24.144646207462458" lon="120.6972580601468"><ele>92.0</ele><time>2026-03-22T07:11:30.002Z</time></trkpt><trkpt lat="24.144646894996576" lon="120.69739927542479"><ele>92.0</ele><time>2026-03-22T07:11:33.002Z</time></trkpt><trkpt lat="24.14464689499463" lon="120.69747502657813"><ele>92.0</ele><time>2026-03-22T07:11:34.002Z</time></trkpt><trkpt lat="24.144652890677943" lon="120.6975753386341"><ele>92.0</ele><time>2026-03-22T07:11:35.002Z</time></trkpt><trkpt lat="24.14465299499498" lon="120.6976932761662"><ele>92.0</ele><time>2026-03-22T07:11:36.002Z</time></trkpt><trkpt lat="24.144652690055143" lon="120.69780525926947"><ele>91.8</ele><time>2026-03-22T07:11:37.002Z</time></trkpt><trkpt lat="24.144652245471804" lon="120.6979295209112"><ele>91.6</ele><time>2026-03-22T07:11:38.002Z</time></trkpt><trkpt lat="24.144651827158416" lon="120.69804644219036"><ele>91.39999999999999</ele><time>2026-03-22T07:11:39.002Z</time></trkpt><trkpt lat="24.144652025755484" lon="120.6981566315187"><ele>91.19999999999999</ele><time>2026-03-22T07:11:40.002Z</time></trkpt><trkpt lat="24.144652286444813" lon="120.69827083469247"><ele>91.0</ele><time>2026-03-22T07:11:41.002Z</time></trkpt><trkpt lat="24.144638377213433" lon="120.69838677846761"><ele>91.0</ele><time>2026-03-22T07:11:42.002Z</time></trkpt><trkpt lat="24.144639458110177" lon="120.69850610997507"><ele>91.0</ele><time>2026-03-22T07:11:43.002Z</time></trkpt><trkpt lat="24.14464394784417" lon="120.69863152631932"><ele>91.0</ele><time>2026-03-22T07:11:44.002Z</time></trkpt><trkpt lat="24.144643728061876" lon="120.69875199684186"><ele>91.0</ele><time>2026-03-22T07:11:45.002Z</time></trkpt><trkpt lat="24.144643570515672" lon="120.69887524075652"><ele>91.0</ele><time>2026-03-22T07:11:46.002Z</time></trkpt><trkpt lat="24.144645706165267" lon="120.6990026596833"><ele>91.4</ele><time>2026-03-22T07:11:47.002Z</time></trkpt><trkpt lat="24.144648253595616" lon="120.6991264616164"><ele>91.8</ele><time>2026-03-22T07:11:48.002Z</time></trkpt><trkpt lat="24.144652605361227" lon="120.69924795441703"><ele>92.2</ele><time>2026-03-22T07:11:49.002Z</time></trkpt><trkpt lat="24.144657301121295" lon="120.69935830787333"><ele>92.60000000000001</ele><time>2026-03-22T07:11:50.002Z</time></trkpt><trkpt lat="24.144658443161926" lon="120.69946147786094"><ele>93.0</ele><time>2026-03-22T07:11:51.002Z</time></trkpt><trkpt lat="24.144652971980683" lon="120.69955671279365"><ele>92.0</ele><time>2026-03-22T07:11:52.002Z</time></trkpt><trkpt lat="24.144647523598724" lon="120.69966670455793"><ele>91.0</ele><time>2026-03-22T07:11:53.002Z</time></trkpt><trkpt lat="24.144640132697152" lon="120.69977980577542"><ele>90.0</ele><time>2026-03-22T07:11:54.002Z</time></trkpt><trkpt lat="24.14463137486752" lon="120.69989651886706"><ele>89.0</ele><time>2026-03-22T07:11:55.002Z</time></trkpt><trkpt lat="24.144621892397222" lon="120.70001172127013"><ele>88.0</ele><time>2026-03-22T07:11:56.002Z</time></trkpt><trkpt lat="24.144612754078622" lon="120.70013265893395"><ele>87.4</ele><time>2026-03-22T07:11:57.002Z</time></trkpt><trkpt lat="24.144603684009823" lon="120.7002559888079"><ele>86.80000000000001</ele><time>2026-03-22T07:11:58.002Z</time></trkpt><trkpt lat="24.144596042770548" lon="120.70038171149143"><ele>86.2</ele><time>2026-03-22T07:11:59.002Z</time></trkpt><trkpt lat="24.14458764339584" lon="120.70049974177256"><ele>85.6</ele><time>2026-03-22T07:12:00.002Z</time></trkpt><trkpt lat="24.144578920987325" lon="120.70061716774393"><ele>85.0</ele><time>2026-03-22T07:12:01.003Z</time></trkpt><trkpt lat="24.144569529975662" lon="120.70073351775555"><ele>85.0</ele><time>2026-03-22T07:12:02.003Z</time></trkpt><trkpt lat="24.144560152803273" lon="120.70084709614741"><ele>85.0</ele><time>2026-03-22T07:12:03.003Z</time></trkpt><trkpt lat="24.144551519096975" lon="120.70096008811637"><ele>85.0</ele><time>2026-03-22T07:12:04.003Z</time></trkpt><trkpt lat="24.14456635453733" lon="120.70107091046499"><ele>85.0</ele><time>2026-03-22T07:12:05.003Z</time></trkpt><trkpt lat="24.144561699226923" lon="120.70118003276288"><ele>85.0</ele><time>2026-03-22T07:12:06.003Z</time></trkpt><trkpt lat="24.14454214083241" lon="120.70128650337641"><ele>86.2</ele><time>2026-03-22T07:12:07.003Z</time></trkpt><trkpt lat="24.144540797042364" lon="120.70139507722455"><ele>87.4</ele><time>2026-03-22T07:12:08.003Z</time></trkpt><trkpt lat="24.144536490256876" lon="120.70150707674745"><ele>88.6</ele><time>2026-03-22T07:12:09.003Z</time></trkpt><trkpt lat="24.144535236742907" lon="120.70161499806434"><ele>89.8</ele><time>2026-03-22T07:12:10.003Z</time></trkpt><trkpt lat="24.144531547520245" lon="120.70172249510301"><ele>91.0</ele><time>2026-03-22T07:12:11.001Z</time></trkpt><trkpt lat="24.14452944717189" lon="120.70182986633895"><ele>91.8</ele><time>2026-03-22T07:12:12.001Z</time></trkpt><trkpt lat="24.144526486619938" lon="120.70193851067668"><ele>92.6</ele><time>2026-03-22T07:12:13.001Z</time></trkpt><trkpt lat="24.1445244152053" lon="120.70204659863415"><ele>93.4</ele><time>2026-03-22T07:12:14.001Z</time></trkpt><trkpt lat="24.144519451159777" lon="120.70215481366596"><ele>94.2</ele><time>2026-03-22T07:12:15.001Z</time></trkpt><trkpt lat="24.14451488453836" lon="120.70226202476813"><ele>95.0</ele><time>2026-03-22T07:12:16.001Z</time></trkpt><trkpt lat="24.14451095569398" lon="120.7023595863452"><ele>95.0</ele><time>2026-03-22T07:12:17.001Z</time></trkpt><trkpt lat="24.14450922777136" lon="120.70244183007853"><ele>95.0</ele><time>2026-03-22T07:12:18.001Z</time></trkpt><trkpt lat="24.14450630597216" lon="120.70251637936575"><ele>95.0</ele><time>2026-03-22T07:12:19.001Z</time></trkpt><trkpt lat="24.14450321155593" lon="120.70262759768327"><ele>95.0</ele><time>2026-03-22T07:12:21.001Z</time></trkpt><trkpt lat="24.144498876015376" lon="120.70270645404638"><ele>95.0</ele><time>2026-03-22T07:12:24.001Z</time></trkpt><trkpt lat="24.144521338457707" lon="120.7027812276907"><ele>95.0</ele><time>2026-03-22T07:12:54.001Z</time></trkpt><trkpt lat="24.14451811238795" lon="120.7028815585742"><ele>94.8</ele><time>2026-03-22T07:12:57.001Z</time></trkpt><trkpt lat="24.144526711214787" lon="120.70296747902727"><ele>94.6</ele><time>2026-03-22T07:12:59.001Z</time></trkpt><trkpt lat="24.14451742936205" lon="120.70308761871044"><ele>94.4</ele><time>2026-03-22T07:13:01.001Z</time></trkpt><trkpt lat="24.144510434391172" lon="120.7032050221232"><ele>94.2</ele><time>2026-03-22T07:13:03.001Z</time></trkpt><trkpt lat="24.144502356585463" lon="120.70333967058427"><ele>94.0</ele><time>2026-03-22T07:13:05.001Z</time></trkpt><trkpt lat="24.144500071564938" lon="120.70341684769446"><ele>94.0</ele><time>2026-03-22T07:13:06.001Z</time></trkpt><trkpt lat="24.14449899939031" lon="120.70350034966415"><ele>94.0</ele><time>2026-03-22T07:13:07.001Z</time></trkpt><trkpt lat="24.14449734218787" lon="120.70358934585694"><ele>94.0</ele><time>2026-03-22T07:13:08.001Z</time></trkpt><trkpt lat="24.144495658611937" lon="120.70368166666286"><ele>94.0</ele><time>2026-03-22T07:13:09.001Z</time></trkpt><trkpt lat="24.144492672889292" lon="120.70378101421892"><ele>94.0</ele><time>2026-03-22T07:13:10.001Z</time></trkpt><trkpt lat="24.144488004485158" lon="120.70388274686506"><ele>94.0</ele><time>2026-03-22T07:13:11.001Z</time></trkpt><trkpt lat="24.144488537611696" lon="120.70399084666042"><ele>94.16666666666666</ele><time>2026-03-22T07:13:12.001Z</time></trkpt><trkpt lat="24.14448835902198" lon="120.70409417288964"><ele>94.33333333333333</ele><time>2026-03-22T07:13:13.001Z</time></trkpt><trkpt lat="24.14448611259126" lon="120.70419155589275"><ele>94.5</ele><time>2026-03-22T07:13:14.001Z</time></trkpt><trkpt lat="24.14448453883708" lon="120.7042914544676"><ele>94.66666666666667</ele><time>2026-03-22T07:13:15.001Z</time></trkpt><trkpt lat="24.144481469289495" lon="120.70438671313129"><ele>94.83333333333334</ele><time>2026-03-22T07:13:16.001Z</time></trkpt><trkpt lat="24.144479121786027" lon="120.7044829998233"><ele>95.0</ele><time>2026-03-22T07:13:17.001Z</time></trkpt><trkpt lat="24.144477149879766" lon="120.70458675563324"><ele>94.6</ele><time>2026-03-22T07:13:18.001Z</time></trkpt><trkpt lat="24.144475446080836" lon="120.70469296143357"><ele>94.2</ele><time>2026-03-22T07:13:19.002Z</time></trkpt><trkpt lat="24.144471759341826" lon="120.70480501021173"><ele>93.80000000000001</ele><time>2026-03-22T07:13:20.002Z</time></trkpt><trkpt lat="24.1444699513355" lon="120.70491631575928"><ele>93.4</ele><time>2026-03-22T07:13:21.002Z</time></trkpt><trkpt lat="24.144466928263533" lon="120.7050261702484"><ele>93.0</ele><time>2026-03-22T07:13:22.002Z</time></trkpt><trkpt lat="24.144459728118477" lon="120.70513003195893"><ele>93.0</ele><time>2026-03-22T07:13:23.002Z</time></trkpt><trkpt lat="24.14445436122029" lon="120.70523636129184"><ele>93.0</ele><time>2026-03-22T07:13:24.002Z</time></trkpt><trkpt lat="24.144445319193824" lon="120.70534389833587"><ele>93.0</ele><time>2026-03-22T07:13:25.002Z</time></trkpt><trkpt lat="24.144445465392074" lon="120.70545265882552"><ele>93.0</ele><time>2026-03-22T07:13:26.002Z</time></trkpt><trkpt lat="24.144442859800296" lon="120.70555842170373"><ele>93.0</ele><time>2026-03-22T07:13:27.002Z</time></trkpt><trkpt lat="24.14444026752073" lon="120.7056616411763"><ele>93.33333333333333</ele><time>2026-03-22T07:13:28.002Z</time></trkpt><trkpt lat="24.144436122933868" lon="120.70576048164135"><ele>93.66666666666667</ele><time>2026-03-22T07:13:29.002Z</time></trkpt><trkpt lat="24.144431576658402" lon="120.70585786109773"><ele>94.0</ele><time>2026-03-22T07:13:30.002Z</time></trkpt><trkpt lat="24.144428810846648" lon="120.70595050561784"><ele>94.33333333333334</ele><time>2026-03-22T07:13:31.002Z</time></trkpt><trkpt lat="24.144428431077746" lon="120.70604457741632"><ele>94.66666666666667</ele><time>2026-03-22T07:13:32.002Z</time></trkpt><trkpt lat="24.14442702977086" lon="120.70614202460666"><ele>95.0</ele><time>2026-03-22T07:13:33.002Z</time></trkpt><trkpt lat="24.144424865968357" lon="120.70624455533763"><ele>96.0</ele><time>2026-03-22T07:13:34.002Z</time></trkpt><trkpt lat="24.14442157912372" lon="120.70635293978857"><ele>97.0</ele><time>2026-03-22T07:13:35.002Z</time></trkpt><trkpt lat="24.144419789925482" lon="120.70646370693146"><ele>98.0</ele><time>2026-03-22T07:13:36.002Z</time></trkpt><trkpt lat="24.14441627190773" lon="120.70657462188123"><ele>99.0</ele><time>2026-03-22T07:13:37.002Z</time></trkpt><trkpt lat="24.144416790446186" lon="120.70668394443798"><ele>100.0</ele><time>2026-03-22T07:13:38.002Z</time></trkpt><trkpt lat="24.144417489843672" lon="120.70679178518348"><ele>100.0</ele><time>2026-03-22T07:13:39.002Z</time></trkpt><trkpt lat="24.144417628940147" lon="120.70689852596998"><ele>100.0</ele><time>2026-03-22T07:13:40.002Z</time></trkpt><trkpt lat="24.144416088616822" lon="120.70700320148474"><ele>100.0</ele><time>2026-03-22T07:13:41.002Z</time></trkpt><trkpt lat="24.14441327477054" lon="120.70710869993341"><ele>100.0</ele><time>2026-03-22T07:13:42.002Z</time></trkpt><trkpt lat="24.14440972236841" lon="120.70721296494224"><ele>100.0</ele><time>2026-03-22T07:13:43.002Z</time></trkpt><trkpt lat="24.1444057663006" lon="120.70731487419728"><ele>99.8</ele><time>2026-03-22T07:13:44.002Z</time></trkpt><trkpt lat="24.14440447077702" lon="120.70742060474052"><ele>99.6</ele><time>2026-03-22T07:13:45.002Z</time></trkpt><trkpt lat="24.14440630013192" lon="120.70752622059157"><ele>99.4</ele><time>2026-03-22T07:13:46.002Z</time></trkpt><trkpt lat="24.14440807168767" lon="120.70762711172014"><ele>99.2</ele><time>2026-03-22T07:13:47.002Z</time></trkpt><trkpt lat="24.144410951234654" lon="120.7077266271826"><ele>99.0</ele><time>2026-03-22T07:13:48.002Z</time></trkpt><trkpt lat="24.144412547906793" lon="120.70782423266782"><ele>99.0</ele><time>2026-03-22T07:13:49.002Z</time></trkpt><trkpt lat="24.144412782934992" lon="120.70792153157961"><ele>99.0</ele><time>2026-03-22T07:13:50.002Z</time></trkpt><trkpt lat="24.144412889334713" lon="120.70801696719909"><ele>99.0</ele><time>2026-03-22T07:13:51.002Z</time></trkpt><trkpt lat="24.144412186366388" lon="120.70811139144548"><ele>99.0</ele><time>2026-03-22T07:13:52.002Z</time></trkpt><trkpt lat="24.144412870980126" lon="120.70820234934723"><ele>99.0</ele><time>2026-03-22T07:13:53.002Z</time></trkpt><trkpt lat="24.14441532356278" lon="120.70829366065878"><ele>99.0</ele><time>2026-03-22T07:13:54.002Z</time></trkpt><trkpt lat="24.144416886401697" lon="120.70838112063595"><ele>99.0</ele><time>2026-03-22T07:13:55.002Z</time></trkpt><trkpt lat="24.1444168827423" lon="120.70846283785993"><ele>99.0</ele><time>2026-03-22T07:13:56.002Z</time></trkpt><trkpt lat="24.144415477513512" lon="120.70853203713487"><ele>99.0</ele><time>2026-03-22T07:13:57.002Z</time></trkpt><trkpt lat="24.144414738196858" lon="120.70866608368814"><ele>99.0</ele><time>2026-03-22T07:13:59.002Z</time></trkpt><trkpt lat="24.14441227297311" lon="120.70874563249969"><ele>99.0</ele><time>2026-03-22T07:14:01.002Z</time></trkpt><trkpt lat="24.144415458602637" lon="120.7088255732986"><ele>99.0</ele><time>2026-03-22T07:14:04.003Z</time></trkpt><trkpt lat="24.14442932891555" lon="120.70891590597748"><ele>98.2</ele><time>2026-03-22T07:14:47.001Z</time></trkpt><trkpt lat="24.144428776076403" lon="120.70902550328867"><ele>97.4</ele><time>2026-03-22T07:14:49.001Z</time></trkpt><trkpt lat="24.144434190560172" lon="120.7091344888953"><ele>96.6</ele><time>2026-03-22T07:14:51.001Z</time></trkpt><trkpt lat="24.144418356031423" lon="120.7092700914388"><ele>95.8</ele><time>2026-03-22T07:14:53.001Z</time></trkpt><trkpt lat="24.144396743928553" lon="120.70938264577957"><ele>95.0</ele><time>2026-03-22T07:14:55.001Z</time></trkpt><trkpt lat="24.1443956080727" lon="120.70948871980254"><ele>95.0</ele><time>2026-03-22T07:14:57.001Z</time></trkpt><trkpt lat="24.144411895098386" lon="120.70961293277131"><ele>95.0</ele><time>2026-03-22T07:14:59.001Z</time></trkpt><trkpt lat="24.144411895096297" lon="120.70973249821267"><ele>95.0</ele><time>2026-03-22T07:15:01.001Z</time></trkpt><trkpt lat="24.144410714086742" lon="120.70986837937649"><ele>95.0</ele><time>2026-03-22T07:15:03.001Z</time></trkpt><trkpt lat="24.144410019776533" lon="120.7099467783918"><ele>95.0</ele><time>2026-03-22T07:15:04.001Z</time></trkpt><trkpt lat="24.14441069508514" lon="120.71001777844843"><ele>95.0</ele><time>2026-03-22T07:15:05.001Z</time></trkpt><trkpt lat="24.144410695081913" lon="120.71008829405962"><ele>95.0</ele><time>2026-03-22T07:15:06.001Z</time></trkpt><trkpt lat="24.14441069507731" lon="120.71022594415435"><ele>95.0</ele><time>2026-03-22T07:15:08.001Z</time></trkpt><trkpt lat="24.144410695078122" lon="120.71030170170012"><ele>95.0</ele><time>2026-03-22T07:15:09.001Z</time></trkpt><trkpt lat="24.144410339087266" lon="120.71038888706629"><ele>95.0</ele><time>2026-03-22T07:15:10.001Z</time></trkpt><trkpt lat="24.14440985778622" lon="120.71048216072411"><ele>95.0</ele><time>2026-03-22T07:15:11.002Z</time></trkpt><trkpt lat="24.144393292076288" lon="120.7105700639276"><ele>95.16666666666667</ele><time>2026-03-22T07:15:12.002Z</time></trkpt><trkpt lat="24.144395828479116" lon="120.71066167481368"><ele>95.33333333333334</ele><time>2026-03-22T07:15:13.002Z</time></trkpt><trkpt lat="24.144397671666912" lon="120.71074931941986"><ele>95.5</ele><time>2026-03-22T07:15:14.002Z</time></trkpt><trkpt lat="24.14439842532901" lon="120.71082073806892"><ele>95.66666666666667</ele><time>2026-03-22T07:15:15.002Z</time></trkpt><trkpt lat="24.14440114424714" lon="120.71089552436523"><ele>95.83333333333333</ele><time>2026-03-22T07:15:16.002Z</time></trkpt><trkpt lat="24.144401635614223" lon="120.71096608850402"><ele>96.0</ele><time>2026-03-22T07:15:17.002Z</time></trkpt><trkpt lat="24.144400522165224" lon="120.71109273496944"><ele>95.5</ele><time>2026-03-22T07:15:19.002Z</time></trkpt><trkpt lat="24.144402111095193" lon="120.71120416866688"><ele>95.0</ele><time>2026-03-22T07:15:21.002Z</time></trkpt><trkpt lat="24.144413460291783" lon="120.71128353673019"><ele>94.5</ele><time>2026-03-22T07:15:23.002Z</time></trkpt><trkpt lat="24.144406617349553" lon="120.71138808515687"><ele>94.0</ele><time>2026-03-22T07:15:43.002Z</time></trkpt><trkpt lat="24.144404901223513" lon="120.71147598811768"><ele>93.5</ele><time>2026-03-22T07:15:46.002Z</time></trkpt><trkpt lat="24.1444034703177" lon="120.71155084509353"><ele>93.0</ele><time>2026-03-22T07:15:49.002Z</time></trkpt><trkpt lat="24.144401833211674" lon="120.71162855696925"><ele>93.0</ele><time>2026-03-22T07:15:55.002Z</time></trkpt><trkpt lat="24.144403740247466" lon="120.71170779849174"><ele>93.0</ele><time>2026-03-22T07:16:14.003Z</time></trkpt><trkpt lat="24.144401945512495" lon="120.71178653738187"><ele>93.0</ele><time>2026-03-22T07:16:16.003Z</time></trkpt><trkpt lat="24.144404181563196" lon="120.7118708767784"><ele>93.0</ele><time>2026-03-22T07:16:18.003Z</time></trkpt><trkpt lat="24.144407091311034" lon="120.7119709132764"><ele>93.0</ele><time>2026-03-22T07:16:20.003Z</time></trkpt><trkpt lat="24.1444172625202" lon="120.71206562975908"><ele>93.0</ele><time>2026-03-22T07:16:22.003Z</time></trkpt><trkpt lat="24.144445430300355" lon="120.71215668643693"><ele>93.75</ele><time>2026-03-22T07:16:24.001Z</time></trkpt><trkpt lat="24.144449789235473" lon="120.7122290045007"><ele>94.5</ele><time>2026-03-22T07:16:29.001Z</time></trkpt><trkpt lat="24.144660611115274" lon="120.71228291639443"><ele>95.25</ele><time>2026-03-22T07:16:44.001Z</time></trkpt><trkpt lat="24.144735954664306" lon="120.71232381833147"><ele>96.0</ele><time>2026-03-22T07:16:46.001Z</time></trkpt><trkpt lat="24.144838364023478" lon="120.71237891128364"><ele>96.0</ele><time>2026-03-22T07:16:48.001Z</time></trkpt><trkpt lat="24.14494238825311" lon="120.71243715756006"><ele>96.0</ele><time>2026-03-22T07:16:50.001Z</time></trkpt><trkpt lat="24.1450021478919" lon="120.71247283120908"><ele>96.0</ele><time>2026-03-22T07:16:51.001Z</time></trkpt><trkpt lat="24.14506660150416" lon="120.71251002714385"><ele>96.0</ele><time>2026-03-22T07:16:52.001Z</time></trkpt><trkpt lat="24.145137564787603" lon="120.71254900298926"><ele>96.0</ele><time>2026-03-22T07:16:53.001Z</time></trkpt><trkpt lat="24.145210610140595" lon="120.71258914820848"><ele>96.0</ele><time>2026-03-22T07:16:54.001Z</time></trkpt><trkpt lat="24.145278382033833" lon="120.71262760152422"><ele>96.0</ele><time>2026-03-22T07:16:55.001Z</time></trkpt><trkpt lat="24.145348147982663" lon="120.71266524150033"><ele>96.0</ele><time>2026-03-22T07:16:56.001Z</time></trkpt><trkpt lat="24.145425275603117" lon="120.71270546190418"><ele>96.0</ele><time>2026-03-22T07:16:57.001Z</time></trkpt><trkpt lat="24.145503771177538" lon="120.71274757833142"><ele>96.0</ele><time>2026-03-22T07:16:58.001Z</time></trkpt><trkpt lat="24.145582679360583" lon="120.7127887276431"><ele>96.0</ele><time>2026-03-22T07:16:59.001Z</time></trkpt><trkpt lat="24.145659902263787" lon="120.7128289840576"><ele>96.0</ele><time>2026-03-22T07:17:00.001Z</time></trkpt><trkpt lat="24.145735676739832" lon="120.71286905587502"><ele>96.66666666666667</ele><time>2026-03-22T07:17:01.001Z</time></trkpt><trkpt lat="24.1458179220729" lon="120.71291190487565"><ele>97.33333333333334</ele><time>2026-03-22T07:17:02.001Z</time></trkpt><trkpt lat="24.145899934885907" lon="120.71295382724176"><ele>98.0</ele><time>2026-03-22T07:17:03.001Z</time></trkpt><trkpt lat="24.145975903786525" lon="120.7129945118154"><ele>98.66666666666667</ele><time>2026-03-22T07:17:04.001Z</time></trkpt><trkpt lat="24.146047738500744" lon="120.71303196513013"><ele>99.33333333333334</ele><time>2026-03-22T07:17:05.001Z</time></trkpt><trkpt lat="24.146118836236255" lon="120.71307150542103"><ele>100.0</ele><time>2026-03-22T07:17:06.001Z</time></trkpt><trkpt lat="24.146196331826836" lon="120.71311225074301"><ele>100.0</ele><time>2026-03-22T07:17:07.001Z</time></trkpt><trkpt lat="24.146276677674106" lon="120.7131555181177"><ele>100.0</ele><time>2026-03-22T07:17:08.001Z</time></trkpt><trkpt lat="24.146366520510295" lon="120.71318119896769"><ele>100.0</ele><time>2026-03-22T07:17:09.001Z</time></trkpt><trkpt lat="24.14644428303968" lon="120.71324669763924"><ele>100.0</ele><time>2026-03-22T07:17:10.001Z</time></trkpt><trkpt lat="24.146530242102692" lon="120.71329319893668"><ele>100.0</ele><time>2026-03-22T07:17:11.001Z</time></trkpt><trkpt lat="24.146621365681828" lon="120.71333955178143"><ele>99.4</ele><time>2026-03-22T07:17:12.001Z</time></trkpt><trkpt lat="24.1467102779483" lon="120.71338792423113"><ele>98.8</ele><time>2026-03-22T07:17:13.001Z</time></trkpt><trkpt lat="24.146800370793716" lon="120.7134270712119"><ele>98.19999999999999</ele><time>2026-03-22T07:17:14.001Z</time></trkpt><trkpt lat="24.14689332448163" lon="120.71347596056415"><ele>97.6</ele><time>2026-03-22T07:17:15.001Z</time></trkpt><trkpt lat="24.146992666726252" lon="120.71352350539473"><ele>97.0</ele><time>2026-03-22T07:17:16.001Z</time></trkpt><trkpt lat="24.147096854952853" lon="120.7135775588619"><ele>97.0</ele><time>2026-03-22T07:17:17.001Z</time></trkpt><trkpt lat="24.14719846618104" lon="120.71362844940789"><ele>97.0</ele><time>2026-03-22T07:17:18.001Z</time></trkpt><trkpt lat="24.147297230064" lon="120.71368027970489"><ele>97.0</ele><time>2026-03-22T07:17:19.001Z</time></trkpt><trkpt lat="24.147399462967716" lon="120.71373282729377"><ele>97.0</ele><time>2026-03-22T07:17:20.001Z</time></trkpt><trkpt lat="24.1474908184737" lon="120.71378906649112"><ele>97.0</ele><time>2026-03-22T07:17:21.001Z</time></trkpt><trkpt lat="24.147587440032463" lon="120.71384150375482"><ele>96.25</ele><time>2026-03-22T07:17:22.001Z</time></trkpt><trkpt lat="24.14769291803295" lon="120.71389598608701"><ele>95.5</ele><time>2026-03-22T07:17:23.001Z</time></trkpt><trkpt lat="24.14780473437157" lon="120.71395241603108"><ele>94.75</ele><time>2026-03-22T07:17:24.002Z</time></trkpt><trkpt lat="24.147911917448692" lon="120.71401127689106"><ele>94.0</ele><time>2026-03-22T07:17:25.002Z</time></trkpt><trkpt lat="24.148020906391896" lon="120.71406763493354"><ele>94.0</ele><time>2026-03-22T07:17:26.002Z</time></trkpt><trkpt lat="24.148128694978634" lon="120.71411780558793"><ele>94.0</ele><time>2026-03-22T07:17:27.002Z</time></trkpt><trkpt lat="24.148236970184623" lon="120.71417378855305"><ele>94.0</ele><time>2026-03-22T07:17:28.002Z</time></trkpt><trkpt lat="24.14834729615352" lon="120.71422617718403"><ele>94.0</ele><time>2026-03-22T07:17:29.002Z</time></trkpt><trkpt lat="24.14845757816241" lon="120.71428581196548"><ele>94.5</ele><time>2026-03-22T07:17:30.002Z</time></trkpt><trkpt lat="24.14856900829404" lon="120.71434276386384"><ele>95.0</ele><time>2026-03-22T07:17:31.002Z</time></trkpt><trkpt lat="24.148678744079863" lon="120.71439941279813"><ele>95.5</ele><time>2026-03-22T07:17:32.002Z</time></trkpt><trkpt lat="24.148791552211254" lon="120.71445695543098"><ele>96.0</ele><time>2026-03-22T07:17:33.002Z</time></trkpt><trkpt lat="24.148900245788425" lon="120.71450861571331"><ele>96.0</ele><time>2026-03-22T07:17:34.002Z</time></trkpt><trkpt lat="24.149011616223206" lon="120.7145603036339"><ele>96.0</ele><time>2026-03-22T07:17:35.002Z</time></trkpt><trkpt lat="24.149124108635128" lon="120.71461862404774"><ele>96.0</ele><time>2026-03-22T07:17:36.002Z</time></trkpt><trkpt lat="24.149231638483872" lon="120.7146662379373"><ele>96.0</ele><time>2026-03-22T07:17:37.002Z</time></trkpt><trkpt lat="24.14933805203346" lon="120.7147085375762"><ele>96.4</ele><time>2026-03-22T07:17:38.002Z</time></trkpt><trkpt lat="24.149440703262535" lon="120.71474305185161"><ele>96.8</ele><time>2026-03-22T07:17:39.002Z</time></trkpt><trkpt lat="24.149539820375995" lon="120.714783081771"><ele>97.2</ele><time>2026-03-22T07:17:40.002Z</time></trkpt><trkpt lat="24.14963330545273" lon="120.71482111360957"><ele>97.60000000000001</ele><time>2026-03-22T07:17:41.002Z</time></trkpt><trkpt lat="24.14972441797586" lon="120.71485824126232"><ele>98.0</ele><time>2026-03-22T07:17:42.002Z</time></trkpt><trkpt lat="24.14981918006381" lon="120.71489037646772"><ele>98.4</ele><time>2026-03-22T07:17:43.002Z</time></trkpt><trkpt lat="24.14991888371552" lon="120.7149236553639"><ele>98.80000000000001</ele><time>2026-03-22T07:17:44.002Z</time></trkpt><trkpt lat="24.15002002403974" lon="120.71495418194775"><ele>99.2</ele><time>2026-03-22T07:17:45.002Z</time></trkpt><trkpt lat="24.15012117941904" lon="120.71498297674735"><ele>99.6</ele><time>2026-03-22T07:17:46.002Z</time></trkpt><trkpt lat="24.15022324621278" lon="120.71501048412338"><ele>100.0</ele><time>2026-03-22T07:17:47.002Z</time></trkpt><trkpt lat="24.150330101258444" lon="120.715042093019"><ele>100.0</ele><time>2026-03-22T07:17:48.002Z</time></trkpt><trkpt lat="24.150444205485726" lon="120.71507521196459"><ele>100.0</ele><time>2026-03-22T07:17:49.002Z</time></trkpt><trkpt lat="24.15056413186392" lon="120.71511180043463"><ele>100.0</ele><time>2026-03-22T07:17:50.002Z</time></trkpt><trkpt lat="24.15069192963411" lon="120.71515165815651"><ele>100.0</ele><time>2026-03-22T07:17:51.002Z</time></trkpt><trkpt lat="24.150822115060983" lon="120.71519576253593"><ele>101.0</ele><time>2026-03-22T07:17:52.002Z</time></trkpt><trkpt lat="24.15095008646598" lon="120.71524088270431"><ele>102.0</ele><time>2026-03-22T07:17:53.002Z</time></trkpt><trkpt lat="24.151080161021262" lon="120.7152905024977"><ele>103.0</ele><time>2026-03-22T07:17:54.002Z</time></trkpt><trkpt lat="24.15121272693456" lon="120.71534295916875"><ele>104.0</ele><time>2026-03-22T07:17:55.002Z</time></trkpt><trkpt lat="24.151346492190886" lon="120.71540184914991"><ele>104.0</ele><time>2026-03-22T07:17:56.002Z</time></trkpt><trkpt lat="24.151485210953393" lon="120.7154658598899"><ele>104.0</ele><time>2026-03-22T07:17:57.002Z</time></trkpt><trkpt lat="24.15162557216648" lon="120.7155353643302"><ele>104.0</ele><time>2026-03-22T07:17:58.002Z</time></trkpt><trkpt lat="24.15176897375655" lon="120.71561156340877"><ele>103.66666666666666</ele><time>2026-03-22T07:17:59.002Z</time></trkpt><trkpt lat="24.151911715633343" lon="120.71569543206212"><ele>103.33333333333334</ele><time>2026-03-22T07:18:00.002Z</time></trkpt><trkpt lat="24.15205893957223" lon="120.71578338050575"><ele>103.0</ele><time>2026-03-22T07:18:01.002Z</time></trkpt><trkpt lat="24.15220415432413" lon="120.71587612346838"><ele>103.0</ele><time>2026-03-22T07:18:02.002Z</time></trkpt><trkpt lat="24.152354767453918" lon="120.71596838523497"><ele>103.0</ele><time>2026-03-22T07:18:03.002Z</time></trkpt><trkpt lat="24.152509737446657" lon="120.71606593613224"><ele>103.0</ele><time>2026-03-22T07:18:04.002Z</time></trkpt><trkpt lat="24.15266086188251" lon="120.71616316987316"><ele>107.33333333333334</ele><time>2026-03-22T07:18:05.002Z</time></trkpt><trkpt lat="24.152809674882022" lon="120.71625889879071"><ele>111.66666666666666</ele><time>2026-03-22T07:18:06.002Z</time></trkpt><trkpt lat="24.15296253598216" lon="120.71635978001682"><ele>116.0</ele><time>2026-03-22T07:18:07.002Z</time></trkpt><trkpt lat="24.153119031896022" lon="120.71646153954426"><ele>112.66666666666666</ele><time>2026-03-22T07:18:08.002Z</time></trkpt><trkpt lat="24.153267791805842" lon="120.71656159554333"><ele>109.33333333333334</ele><time>2026-03-22T07:18:09.002Z</time></trkpt><trkpt lat="24.153446073049327" lon="120.7166418293234"><ele>106.0</ele><time>2026-03-22T07:18:10.002Z</time></trkpt><trkpt lat="24.153621354847814" lon="120.71672901755512"><ele>106.0</ele><time>2026-03-22T07:18:11.002Z</time></trkpt><trkpt lat="24.153796869398644" lon="120.71681013711003"><ele>106.0</ele><time>2026-03-22T07:18:12.002Z</time></trkpt><trkpt lat="24.153976432829204" lon="120.71688662332699"><ele>106.0</ele><time>2026-03-22T07:18:13.002Z</time></trkpt><trkpt lat="24.154159539107475" lon="120.71695857582726"><ele>107.66666666666667</ele><time>2026-03-22T07:18:14.002Z</time></trkpt><trkpt lat="24.154347121519525" lon="120.71702203939772"><ele>109.33333333333334</ele><time>2026-03-22T07:18:15.002Z</time></trkpt><trkpt lat="24.15453925285419" lon="120.7170752020906"><ele>111.0</ele><time>2026-03-22T07:18:16.002Z</time></trkpt><trkpt lat="24.154728286472242" lon="120.71712259431084"><ele>110.33333333333334</ele><time>2026-03-22T07:18:17.002Z</time></trkpt><trkpt lat="24.154915486937572" lon="120.71716420821903"><ele>109.66666666666667</ele><time>2026-03-22T07:18:18.002Z</time></trkpt><trkpt lat="24.155100647852365" lon="120.71720007214014"><ele>109.0</ele><time>2026-03-22T07:18:19.002Z</time></trkpt><trkpt lat="24.15528372801678" lon="120.71723941936473"><ele>109.0</ele><time>2026-03-22T07:18:20.002Z</time></trkpt><trkpt lat="24.15546496263525" lon="120.71726839398117"><ele>109.0</ele><time>2026-03-22T07:18:21.002Z</time></trkpt><trkpt lat="24.155640313479527" lon="120.71728895961886"><ele>109.0</ele><time>2026-03-22T07:18:22.002Z</time></trkpt><trkpt lat="24.155820205800115" lon="120.7173124045709"><ele>109.0</ele><time>2026-03-22T07:18:23.003Z</time></trkpt><trkpt lat="24.15600276731679" lon="120.71734286010127"><ele>109.0</ele><time>2026-03-22T07:18:24.003Z</time></trkpt><trkpt lat="24.156185024416626" lon="120.7173699615756"><ele>109.0</ele><time>2026-03-22T07:18:25.003Z</time></trkpt><trkpt lat="24.1563667157705" lon="120.71739722688318"><ele>108.66666666666667</ele><time>2026-03-22T07:18:26.003Z</time></trkpt><trkpt lat="24.156551684548198" lon="120.71742010539761"><ele>108.33333333333334</ele><time>2026-03-22T07:18:27.003Z</time></trkpt><trkpt lat="24.156735285276998" lon="120.71744459025327"><ele>108.0</ele><time>2026-03-22T07:18:28.003Z</time></trkpt><trkpt lat="24.15692164404858" lon="120.71747235379742"><ele>108.0</ele><time>2026-03-22T07:18:29.001Z</time></trkpt><trkpt lat="24.157107415998862" lon="120.71749949723622"><ele>108.0</ele><time>2026-03-22T07:18:30.001Z</time></trkpt><trkpt lat="24.157294328922173" lon="120.7175262760961"><ele>108.0</ele><time>2026-03-22T07:18:31.001Z</time></trkpt><trkpt lat="24.157482217024896" lon="120.71755200240578"><ele>109.33333333333334</ele><time>2026-03-22T07:18:32.001Z</time></trkpt><trkpt lat="24.157670024761927" lon="120.71758084002568"><ele>110.66666666666667</ele><time>2026-03-22T07:18:33.001Z</time></trkpt><trkpt lat="24.15785299632524" lon="120.71761061908907"><ele>112.0</ele><time>2026-03-22T07:18:34.001Z</time></trkpt><trkpt lat="24.15803352218157" lon="120.71764033935992"><ele>111.66666666666667</ele><time>2026-03-22T07:18:35.001Z</time></trkpt><trkpt lat="24.15821533735895" lon="120.7176743459376"><ele>111.33333333333334</ele><time>2026-03-22T07:18:36.001Z</time></trkpt><trkpt lat="24.15839750148976" lon="120.71771362916894"><ele>111.0</ele><time>2026-03-22T07:18:37.001Z</time></trkpt><trkpt lat="24.158579861105665" lon="120.71775876854703"><ele>111.66666666666666</ele><time>2026-03-22T07:18:38.001Z</time></trkpt><trkpt lat="24.15876341613467" lon="120.71781070270106"><ele>112.33333333333333</ele><time>2026-03-22T07:18:39.001Z</time></trkpt><trkpt lat="24.158944906728262" lon="120.7178701548564"><ele>113.0</ele><time>2026-03-22T07:18:40.001Z</time></trkpt><trkpt lat="24.159127634977274" lon="120.7179335543833"><ele>113.33333333333333</ele><time>2026-03-22T07:18:41.001Z</time></trkpt><trkpt lat="24.159310619549032" lon="120.71800229021626"><ele>113.66666666666666</ele><time>2026-03-22T07:18:42.001Z</time></trkpt><trkpt lat="24.159493580565773" lon="120.71807147975046"><ele>114.0</ele><time>2026-03-22T07:18:43.001Z</time></trkpt><trkpt lat="24.159677650823827" lon="120.71814096128469"><ele>114.0</ele><time>2026-03-22T07:18:44.001Z</time></trkpt><trkpt lat="24.159861847618178" lon="120.71820976567909"><ele>114.0</ele><time>2026-03-22T07:18:45.001Z</time></trkpt><trkpt lat="24.160047196993563" lon="120.71828090838348"><ele>114.0</ele><time>2026-03-22T07:18:46.001Z</time></trkpt><trkpt lat="24.160231962586682" lon="120.71834970761854"><ele>115.33333333333334</ele><time>2026-03-22T07:18:47.001Z</time></trkpt><trkpt lat="24.160416544636284" lon="120.71842209210038"><ele>116.66666666666667</ele><time>2026-03-22T07:18:48.001Z</time></trkpt><trkpt lat="24.160601029022907" lon="120.71849271376887"><ele>118.0</ele><time>2026-03-22T07:18:49.001Z</time></trkpt><trkpt lat="24.16078480956581" lon="120.71856020878"><ele>117.66666666666667</ele><time>2026-03-22T07:18:50.001Z</time></trkpt><trkpt lat="24.16096861602722" lon="120.71862873012186"><ele>117.33333333333334</ele><time>2026-03-22T07:18:51.001Z</time></trkpt><trkpt lat="24.16115170784727" lon="120.71869612582748"><ele>117.0</ele><time>2026-03-22T07:18:52.001Z</time></trkpt><trkpt lat="24.161334191766187" lon="120.71876490658678"><ele>117.0</ele><time>2026-03-22T07:18:53.001Z</time></trkpt><trkpt lat="24.161515426725533" lon="120.71883377252482"><ele>117.0</ele><time>2026-03-22T07:18:54.001Z</time></trkpt><trkpt lat="24.16169580783243" lon="120.71890102627184"><ele>117.0</ele><time>2026-03-22T07:18:55.001Z</time></trkpt><trkpt lat="24.16187635134926" lon="120.71896883956528"><ele>117.66666666666666</ele><time>2026-03-22T07:18:56.001Z</time></trkpt><trkpt lat="24.162057488385685" lon="120.71903769292341"><ele>118.33333333333333</ele><time>2026-03-22T07:18:57.001Z</time></trkpt><trkpt lat="24.162237224034758" lon="120.71910745586979"><ele>119.0</ele><time>2026-03-22T07:18:58.001Z</time></trkpt><trkpt lat="24.16241647763697" lon="120.7191790617032"><ele>119.66666666666666</ele><time>2026-03-22T07:18:59.001Z</time></trkpt><trkpt lat="24.162595677526678" lon="120.71925260279927"><ele>120.33333333333334</ele><time>2026-03-22T07:19:00.001Z</time></trkpt><trkpt lat="24.162772651110572" lon="120.71933055710959"><ele>121.0</ele><time>2026-03-22T07:19:01.001Z</time></trkpt><trkpt lat="24.16294980490718" lon="120.7194140460712"><ele>121.33333333333334</ele><time>2026-03-22T07:19:02.001Z</time></trkpt><trkpt lat="24.1631256697678" lon="120.7195015390477"><ele>121.66666666666666</ele><time>2026-03-22T07:19:03.001Z</time></trkpt><trkpt lat="24.163299003841637" lon="120.71959373364139"><ele>122.0</ele><time>2026-03-22T07:19:04.001Z</time></trkpt><trkpt lat="24.163471893042075" lon="120.71968677030864"><ele>122.66666666666666</ele><time>2026-03-22T07:19:05.001Z</time></trkpt><trkpt lat="24.16364498012343" lon="120.71978316310542"><ele>123.33333333333334</ele><time>2026-03-22T07:19:06.001Z</time></trkpt><trkpt lat="24.163822289116577" lon="120.71988500271502"><ele>124.0</ele><time>2026-03-22T07:19:07.001Z</time></trkpt><trkpt lat="24.164001319725298" lon="120.71998909065256"><ele>124.0</ele><time>2026-03-22T07:19:08.001Z</time></trkpt><trkpt lat="24.164185022535122" lon="120.72009551730469"><ele>124.0</ele><time>2026-03-22T07:19:09.001Z</time></trkpt><trkpt lat="24.16437240398356" lon="120.72020018418281"><ele>124.0</ele><time>2026-03-22T07:19:10.001Z</time></trkpt><trkpt lat="24.164561901352155" lon="120.72030332591599"><ele>124.66666666666667</ele><time>2026-03-22T07:19:11.001Z</time></trkpt><trkpt lat="24.164755474997765" lon="120.72040435738624"><ele>125.33333333333334</ele><time>2026-03-22T07:19:12.001Z</time></trkpt><trkpt lat="24.16495059298557" lon="120.72049954438413"><ele>126.0</ele><time>2026-03-22T07:19:13.001Z</time></trkpt><trkpt lat="24.165145753699008" lon="120.72058397524968"><ele>126.0</ele><time>2026-03-22T07:19:14.001Z</time></trkpt><trkpt lat="24.16534283054663" lon="120.72065541972026"><ele>126.0</ele><time>2026-03-22T07:19:15.001Z</time></trkpt><trkpt lat="24.16554588447815" lon="120.72072031333182"><ele>126.0</ele><time>2026-03-22T07:19:16.001Z</time></trkpt><trkpt lat="24.16575237344193" lon="120.72077538081494"><ele>125.66666666666666</ele><time>2026-03-22T07:19:17.001Z</time></trkpt><trkpt lat="24.16595930900643" lon="120.72082222908585"><ele>125.33333333333333</ele><time>2026-03-22T07:19:18.001Z</time></trkpt><trkpt lat="24.16616429457115" lon="120.72085865851201"><ele>125.0</ele><time>2026-03-22T07:19:19.001Z</time></trkpt><trkpt lat="24.166367113105732" lon="120.72088342574841"><ele>125.33333333333333</ele><time>2026-03-22T07:19:20.001Z</time></trkpt><trkpt lat="24.16656850497317" lon="120.72090251831587"><ele>125.66666666666666</ele><time>2026-03-22T07:19:21.001Z</time></trkpt><trkpt lat="24.16676857960802" lon="120.72091726788312"><ele>126.0</ele><time>2026-03-22T07:19:22.001Z</time></trkpt><trkpt lat="24.166965115817618" lon="120.72092656800451"><ele>126.0</ele><time>2026-03-22T07:19:23.001Z</time></trkpt><trkpt lat="24.16716449735549" lon="120.72093672498778"><ele>126.0</ele><time>2026-03-22T07:19:24.001Z</time></trkpt><trkpt lat="24.167361319804378" lon="120.72094515919225"><ele>126.0</ele><time>2026-03-22T07:19:25.001Z</time></trkpt><trkpt lat="24.167557596013157" lon="120.72095025228252"><ele>127.0</ele><time>2026-03-22T07:19:26.001Z</time></trkpt><trkpt lat="24.167749765555563" lon="120.72095271249472"><ele>128.0</ele><time>2026-03-22T07:19:27.001Z</time></trkpt><trkpt lat="24.167945384198415" lon="120.7209533133728"><ele>129.0</ele><time>2026-03-22T07:19:28.001Z</time></trkpt><trkpt lat="24.16813840454449" lon="120.72095321561392"><ele>129.33333333333334</ele><time>2026-03-22T07:19:29.001Z</time></trkpt><trkpt lat="24.168332116925136" lon="120.72095082193705"><ele>129.66666666666669</ele><time>2026-03-22T07:19:30.001Z</time></trkpt><trkpt lat="24.168524651883903" lon="120.72094891583383"><ele>130.0</ele><time>2026-03-22T07:19:31.001Z</time></trkpt><trkpt lat="24.16871572439058" lon="120.72094858483516"><ele>130.0</ele><time>2026-03-22T07:19:32.001Z</time></trkpt><trkpt lat="24.168904849451767" lon="120.72094901655618"><ele>130.0</ele><time>2026-03-22T07:19:33.001Z</time></trkpt><trkpt lat="24.169095380304373" lon="120.72094931028037"><ele>130.0</ele><time>2026-03-22T07:19:34.001Z</time></trkpt><trkpt lat="24.16928227524192" lon="120.72094807282583"><ele>130.33333333333334</ele><time>2026-03-22T07:19:35.001Z</time></trkpt><trkpt lat="24.16947079699289" lon="120.72094771318827"><ele>130.66666666666666</ele><time>2026-03-22T07:19:36.001Z</time></trkpt><trkpt lat="24.169656400342692" lon="120.72094676209629"><ele>131.0</ele><time>2026-03-22T07:19:37.001Z</time></trkpt><trkpt lat="24.169840801325208" lon="120.72094634139349"><ele>130.66666666666666</ele><time>2026-03-22T07:19:38.001Z</time></trkpt><trkpt lat="24.17001965924966" lon="120.72094611644734"><ele>130.33333333333334</ele><time>2026-03-22T07:19:39.001Z</time></trkpt><trkpt lat="24.170200524488212" lon="120.72094645523518"><ele>130.0</ele><time>2026-03-22T07:19:40.001Z</time></trkpt><trkpt lat="24.170377838799798" lon="120.72094543597277"><ele>130.0</ele><time>2026-03-22T07:19:41.001Z</time></trkpt><trkpt lat="24.170557489798348" lon="120.72094570886414"><ele>130.0</ele><time>2026-03-22T07:19:42.001Z</time></trkpt><trkpt lat="24.170738106682276" lon="120.720945954872"><ele>130.0</ele><time>2026-03-22T07:19:43.001Z</time></trkpt><trkpt lat="24.170919428144675" lon="120.72094603227222"><ele>131.66666666666669</ele><time>2026-03-22T07:19:44.001Z</time></trkpt><trkpt lat="24.17109812436011" lon="120.720946941146"><ele>133.33333333333334</ele><time>2026-03-22T07:19:45.001Z</time></trkpt><trkpt lat="24.17127640211772" lon="120.72094841339258"><ele>135.0</ele><time>2026-03-22T07:19:46.001Z</time></trkpt><trkpt lat="24.171453893553576" lon="120.72094798401478"><ele>135.66666666666666</ele><time>2026-03-22T07:19:47.001Z</time></trkpt><trkpt lat="24.171637636958256" lon="120.72094823530075"><ele>136.33333333333331</ele><time>2026-03-22T07:19:48.001Z</time></trkpt><trkpt lat="24.171818859979552" lon="120.72094750591089"><ele>137.0</ele><time>2026-03-22T07:19:49.001Z</time></trkpt><trkpt lat="24.172000499634727" lon="120.72094777171107"><ele>137.0</ele><time>2026-03-22T07:19:50.001Z</time></trkpt><trkpt lat="24.17218531219856" lon="120.72094909332837"><ele>137.0</ele><time>2026-03-22T07:19:51.001Z</time></trkpt><trkpt lat="24.172372922389528" lon="120.72094977268364"><ele>137.0</ele><time>2026-03-22T07:19:52.001Z</time></trkpt><trkpt lat="24.172563345084853" lon="120.72094942715107"><ele>135.33333333333331</ele><time>2026-03-22T07:19:53.001Z</time></trkpt><trkpt lat="24.172756288644514" lon="120.72094930136349"><ele>133.66666666666666</ele><time>2026-03-22T07:19:54.001Z</time></trkpt><trkpt lat="24.172949658083486" lon="120.720949822327"><ele>132.0</ele><time>2026-03-22T07:19:55.001Z</time></trkpt><trkpt lat="24.173143673027987" lon="120.7209519471979"><ele>133.0</ele><time>2026-03-22T07:19:56.001Z</time></trkpt><trkpt lat="24.173337350386504" lon="120.72095366712722"><ele>134.0</ele><time>2026-03-22T07:19:57.001Z</time></trkpt><trkpt lat="24.173527433577686" lon="120.72095488122913"><ele>135.0</ele><time>2026-03-22T07:19:58.001Z</time></trkpt><trkpt lat="24.173716113927178" lon="120.72095653960885"><ele>135.0</ele><time>2026-03-22T07:19:59.001Z</time></trkpt><trkpt lat="24.173907387788393" lon="120.72095714654074"><ele>135.0</ele><time>2026-03-22T07:20:00.001Z</time></trkpt><trkpt lat="24.17409898273404" lon="120.72095746156539"><ele>135.0</ele><time>2026-03-22T07:20:01.001Z</time></trkpt><trkpt lat="24.174291677979372" lon="120.7209588921428"><ele>134.66666666666666</ele><time>2026-03-22T07:20:02.001Z</time></trkpt><trkpt lat="24.174485362483228" lon="120.72095927704727"><ele>134.33333333333331</ele><time>2026-03-22T07:20:03.001Z</time></trkpt><trkpt lat="24.174682096001614" lon="120.72096154969866"><ele>134.0</ele><time>2026-03-22T07:20:04.001Z</time></trkpt><trkpt lat="24.17488170001419" lon="120.72095804690116"><ele>135.0</ele><time>2026-03-22T07:20:05.002Z</time></trkpt><trkpt lat="24.175083972194177" lon="120.72095646071126"><ele>136.0</ele><time>2026-03-22T07:20:06.002Z</time></trkpt><trkpt lat="24.175284950948026" lon="120.72095404092906"><ele>137.0</ele><time>2026-03-22T07:20:07.002Z</time></trkpt><trkpt lat="24.175488922116482" lon="120.72095506252205"><ele>138.0</ele><time>2026-03-22T07:20:08.002Z</time></trkpt><trkpt lat="24.175694542243892" lon="120.72096363618672"><ele>139.0</ele><time>2026-03-22T07:20:09.002Z</time></trkpt><trkpt lat="24.17589682017768" lon="120.72097941827882"><ele>140.0</ele><time>2026-03-22T07:20:10.002Z</time></trkpt><trkpt lat="24.176102843102786" lon="120.7210052656662"><ele>140.0</ele><time>2026-03-22T07:20:11.002Z</time></trkpt><trkpt lat="24.17631092787092" lon="120.72103263223693"><ele>140.0</ele><time>2026-03-22T07:20:12.002Z</time></trkpt><trkpt lat="24.17651848039779" lon="120.72106417020467"><ele>140.0</ele><time>2026-03-22T07:20:13.002Z</time></trkpt><trkpt lat="24.176727831232274" lon="120.72109699638399"><ele>141.33333333333331</ele><time>2026-03-22T07:20:14.002Z</time></trkpt><trkpt lat="24.176936145690735" lon="120.7211294314977"><ele>142.66666666666666</ele><time>2026-03-22T07:20:15.002Z</time></trkpt><trkpt lat="24.17714161113884" lon="120.72116062933954"><ele>144.0</ele><time>2026-03-22T07:20:16.002Z</time></trkpt><trkpt lat="24.177346461517836" lon="120.721188062058"><ele>143.0</ele><time>2026-03-22T07:20:17.002Z</time></trkpt><trkpt lat="24.177553051132108" lon="120.72121496313169"><ele>142.0</ele><time>2026-03-22T07:20:18.002Z</time></trkpt><trkpt lat="24.17775979373811" lon="120.72124110995159"><ele>141.0</ele><time>2026-03-22T07:20:19.002Z</time></trkpt><trkpt lat="24.17796019368517" lon="120.72126752688297"><ele>141.0</ele><time>2026-03-22T07:20:20.002Z</time></trkpt><trkpt lat="24.178159004757774" lon="120.72129063970307"><ele>141.0</ele><time>2026-03-22T07:20:21.002Z</time></trkpt><trkpt lat="24.17835346098576" lon="120.72131216344162"><ele>141.0</ele><time>2026-03-22T07:20:22.002Z</time></trkpt><trkpt lat="24.178547244313634" lon="120.72133854268792"><ele>140.66666666666666</ele><time>2026-03-22T07:20:23.002Z</time></trkpt><trkpt lat="24.178744857057975" lon="120.72136410480189"><ele>140.33333333333331</ele><time>2026-03-22T07:20:24.002Z</time></trkpt><trkpt lat="24.178937695765143" lon="120.72138543797429"><ele>140.0</ele><time>2026-03-22T07:20:25.002Z</time></trkpt><trkpt lat="24.179128409666784" lon="120.72140685103443"><ele>140.0</ele><time>2026-03-22T07:20:26.002Z</time></trkpt><trkpt lat="24.179317810848087" lon="120.72142838799861"><ele>140.0</ele><time>2026-03-22T07:20:27.002Z</time></trkpt><trkpt lat="24.179509620552203" lon="120.72145061097198"><ele>140.0</ele><time>2026-03-22T07:20:28.002Z</time></trkpt><trkpt lat="24.17970252436361" lon="120.7214722870575"><ele>140.66666666666666</ele><time>2026-03-22T07:20:29.002Z</time></trkpt><trkpt lat="24.17989404867123" lon="120.72149446529187"><ele>141.33333333333334</ele><time>2026-03-22T07:20:30.002Z</time></trkpt><trkpt lat="24.180083985389242" lon="120.7215159320616"><ele>142.0</ele><time>2026-03-22T07:20:31.002Z</time></trkpt><trkpt lat="24.180274190827227" lon="120.72153846751974"><ele>142.0</ele><time>2026-03-22T07:20:32.002Z</time></trkpt><trkpt lat="24.180463537155514" lon="120.72156058102458"><ele>142.0</ele><time>2026-03-22T07:20:33.002Z</time></trkpt><trkpt lat="24.180648097591636" lon="120.72158188822607"><ele>142.0</ele><time>2026-03-22T07:20:34.002Z</time></trkpt><trkpt lat="24.180806907030707" lon="120.72160319503395"><ele>142.5</ele><time>2026-03-22T07:20:35.001Z</time></trkpt><trkpt lat="24.180964540634925" lon="120.72162164126073"><ele>143.0</ele><time>2026-03-22T07:20:36.001Z</time></trkpt><trkpt lat="24.18110341263848" lon="120.72163609390374"><ele>143.5</ele><time>2026-03-22T07:20:37.001Z</time></trkpt><trkpt lat="24.181228687518516" lon="120.72164947941633"><ele>144.0</ele><time>2026-03-22T07:20:38.001Z</time></trkpt><trkpt lat="24.181340143731752" lon="120.7216621784237"><ele>144.0</ele><time>2026-03-22T07:20:39.001Z</time></trkpt><trkpt lat="24.1814431753826" lon="120.72167641532761"><ele>144.0</ele><time>2026-03-22T07:20:40.001Z</time></trkpt><trkpt lat="24.181548961721443" lon="120.72168896461623"><ele>144.0</ele><time>2026-03-22T07:20:41.001Z</time></trkpt><trkpt lat="24.18165292874408" lon="120.72170264987435"><ele>144.0</ele><time>2026-03-22T07:20:42.001Z</time></trkpt><trkpt lat="24.181756076044685" lon="120.72171510297774"><ele>144.0</ele><time>2026-03-22T07:20:43.001Z</time></trkpt><trkpt lat="24.18186046006187" lon="120.72172654502937"><ele>143.8</ele><time>2026-03-22T07:20:44.001Z</time></trkpt><trkpt lat="24.181966804380846" lon="120.72174062016336"><ele>143.60000000000002</ele><time>2026-03-22T07:20:45.001Z</time></trkpt><trkpt lat="24.182073734761993" lon="120.72175330948907"><ele>143.4</ele><time>2026-03-22T07:20:46.001Z</time></trkpt><trkpt lat="24.182183737657176" lon="120.72176700260374"><ele>143.20000000000002</ele><time>2026-03-22T07:20:47.001Z</time></trkpt><trkpt lat="24.1822972777219" lon="120.72177990758627"><ele>143.0</ele><time>2026-03-22T07:20:48.001Z</time></trkpt><trkpt lat="24.182413465552504" lon="120.7217933768248"><ele>143.75</ele><time>2026-03-22T07:20:49.001Z</time></trkpt><trkpt lat="24.182531827721583" lon="120.72180656353854"><ele>144.5</ele><time>2026-03-22T07:20:50.001Z</time></trkpt><trkpt lat="24.182652290127372" lon="120.72181977365928"><ele>145.25</ele><time>2026-03-22T07:20:51.001Z</time></trkpt><trkpt lat="24.182775860927862" lon="120.72183357531557"><ele>146.0</ele><time>2026-03-22T07:20:52.001Z</time></trkpt><trkpt lat="24.182900229331928" lon="120.72184712953961"><ele>146.0</ele><time>2026-03-22T07:20:53.001Z</time></trkpt><trkpt lat="24.183022709059507" lon="120.72185993490712"><ele>146.0</ele><time>2026-03-22T07:20:54.001Z</time></trkpt><trkpt lat="24.183142933054473" lon="120.72187264441301"><ele>146.0</ele><time>2026-03-22T07:20:55.001Z</time></trkpt><trkpt lat="24.183268406761474" lon="120.72188596665333"><ele>146.0</ele><time>2026-03-22T07:20:56.001Z</time></trkpt><trkpt lat="24.18339861314539" lon="120.72190025021683"><ele>146.5</ele><time>2026-03-22T07:20:57.001Z</time></trkpt><trkpt lat="24.18353263266547" lon="120.72191568999718"><ele>147.0</ele><time>2026-03-22T07:20:58.001Z</time></trkpt><trkpt lat="24.18367039034314" lon="120.72193234466982"><ele>147.5</ele><time>2026-03-22T07:20:59.001Z</time></trkpt><trkpt lat="24.183805787331945" lon="120.72194775268169"><ele>148.0</ele><time>2026-03-22T07:21:00.001Z</time></trkpt><trkpt lat="24.18393951775318" lon="120.72196314073727"><ele>148.5</ele><time>2026-03-22T07:21:01.001Z</time></trkpt><trkpt lat="24.18407625231982" lon="120.72198054131714"><ele>149.0</ele><time>2026-03-22T07:21:02.001Z</time></trkpt><trkpt lat="24.184216739880018" lon="120.72199736342392"><ele>149.5</ele><time>2026-03-22T07:21:03.001Z</time></trkpt><trkpt lat="24.184359982602814" lon="120.72201580750729"><ele>150.0</ele><time>2026-03-22T07:21:04.001Z</time></trkpt><trkpt lat="24.18450717314372" lon="120.72203462762378"><ele>150.0</ele><time>2026-03-22T07:21:05.001Z</time></trkpt><trkpt lat="24.18465756077551" lon="120.72205313225099"><ele>150.0</ele><time>2026-03-22T07:21:06.001Z</time></trkpt><trkpt lat="24.184810076665354" lon="120.72207247871205"><ele>150.0</ele><time>2026-03-22T07:21:07.001Z</time></trkpt><trkpt lat="24.184964954993568" lon="120.7220924680198"><ele>150.66666666666666</ele><time>2026-03-22T07:21:08.001Z</time></trkpt><trkpt lat="24.18512272116449" lon="120.72211073147618"><ele>151.33333333333331</ele><time>2026-03-22T07:21:09.001Z</time></trkpt><trkpt lat="24.18528228774694" lon="120.7221303076567"><ele>152.0</ele><time>2026-03-22T07:21:10.001Z</time></trkpt><trkpt lat="24.185441922175116" lon="120.7221512325307"><ele>152.0</ele><time>2026-03-22T07:21:11.001Z</time></trkpt><trkpt lat="24.185597394336334" lon="120.72216941799509"><ele>152.0</ele><time>2026-03-22T07:21:12.001Z</time></trkpt><trkpt lat="24.185749013935364" lon="120.72218793956304"><ele>152.0</ele><time>2026-03-22T07:21:13.001Z</time></trkpt><trkpt lat="24.185897468349268" lon="120.72220508697734"><ele>152.5</ele><time>2026-03-22T07:21:14.001Z</time></trkpt><trkpt lat="24.186038923869315" lon="120.722221208193"><ele>153.0</ele><time>2026-03-22T07:21:15.001Z</time></trkpt><trkpt lat="24.18617468423638" lon="120.72223745046259"><ele>153.5</ele><time>2026-03-22T07:21:16.001Z</time></trkpt><trkpt lat="24.186308696185506" lon="120.722254029476"><ele>154.0</ele><time>2026-03-22T07:21:17.001Z</time></trkpt><trkpt lat="24.186443670284614" lon="120.72227208523441"><ele>154.75</ele><time>2026-03-22T07:21:18.001Z</time></trkpt><trkpt lat="24.186575101028186" lon="120.7222890322702"><ele>155.5</ele><time>2026-03-22T07:21:19.001Z</time></trkpt><trkpt lat="24.186704566467967" lon="120.72230534685507"><ele>156.25</ele><time>2026-03-22T07:21:20.001Z</time></trkpt><trkpt lat="24.186835174581834" lon="120.72232111526436"><ele>157.0</ele><time>2026-03-22T07:21:21.001Z</time></trkpt><trkpt lat="24.186965829968923" lon="120.72233795692372"><ele>157.0</ele><time>2026-03-22T07:21:22.001Z</time></trkpt><trkpt lat="24.187093219651825" lon="120.72235455848117"><ele>157.0</ele><time>2026-03-22T07:21:23.001Z</time></trkpt><trkpt lat="24.18722100806032" lon="120.72237068792695"><ele>157.0</ele><time>2026-03-22T07:21:24.001Z</time></trkpt><trkpt lat="24.18735037384734" lon="120.72238625030631"><ele>157.0</ele><time>2026-03-22T07:21:25.001Z</time></trkpt><trkpt lat="24.187480817125884" lon="120.7224014912284"><ele>157.75</ele><time>2026-03-22T07:21:26.001Z</time></trkpt><trkpt lat="24.187613628303357" lon="120.72241559709322"><ele>158.5</ele><time>2026-03-22T07:21:27.001Z</time></trkpt><trkpt lat="24.1877484857017" lon="120.72243047280747"><ele>159.25</ele><time>2026-03-22T07:21:28.001Z</time></trkpt><trkpt lat="24.18788430908639" lon="120.72244368629099"><ele>160.0</ele><time>2026-03-22T07:21:29.001Z</time></trkpt><trkpt lat="24.188017278197016" lon="120.7224564851142"><ele>160.0</ele><time>2026-03-22T07:21:30.001Z</time></trkpt><trkpt lat="24.18814612918138" lon="120.72246715496951"><ele>160.0</ele><time>2026-03-22T07:21:31.001Z</time></trkpt><trkpt lat="24.18827261247545" lon="120.7224779171955"><ele>160.0</ele><time>2026-03-22T07:21:32.001Z</time></trkpt><trkpt lat="24.188397143310883" lon="120.72248722481693"><ele>160.0</ele><time>2026-03-22T07:21:33.001Z</time></trkpt><trkpt lat="24.188518064637464" lon="120.7224948251631"><ele>160.5</ele><time>2026-03-22T07:21:34.001Z</time></trkpt><trkpt lat="24.188635555235628" lon="120.7225028095305"><ele>161.0</ele><time>2026-03-22T07:21:35.001Z</time></trkpt><trkpt lat="24.18874983444219" lon="120.72251011134944"><ele>161.5</ele><time>2026-03-22T07:21:36.001Z</time></trkpt><trkpt lat="24.188860840392998" lon="120.72251625899042"><ele>162.0</ele><time>2026-03-22T07:21:37.001Z</time></trkpt><trkpt lat="24.18896976449727" lon="120.72252235550876"><ele>162.75</ele><time>2026-03-22T07:21:38.001Z</time></trkpt><trkpt lat="24.189076763522873" lon="120.72252743100441"><ele>163.5</ele><time>2026-03-22T07:21:39.001Z</time></trkpt><trkpt lat="24.18918574476428" lon="120.72253155860744"><ele>164.25</ele><time>2026-03-22T07:21:40.001Z</time></trkpt><trkpt lat="24.189299883588028" lon="120.72253538127153"><ele>165.0</ele><time>2026-03-22T07:21:41.001Z</time></trkpt><trkpt lat="24.189419463311957" lon="120.72253870104963"><ele>165.0</ele><time>2026-03-22T07:21:42.001Z</time></trkpt><trkpt lat="24.189536695152505" lon="120.72254106174151"><ele>165.0</ele><time>2026-03-22T07:21:43.001Z</time></trkpt><trkpt lat="24.189651521357273" lon="120.72254359226521"><ele>165.0</ele><time>2026-03-22T07:21:44.001Z</time></trkpt><trkpt lat="24.189764485262128" lon="120.72254652241146"><ele>165.0</ele><time>2026-03-22T07:21:45.001Z</time></trkpt><trkpt lat="24.189876077175345" lon="120.72254789490177"><ele>165.0</ele><time>2026-03-22T07:21:46.001Z</time></trkpt><trkpt lat="24.189990470542977" lon="120.72254875067087"><ele>165.0</ele><time>2026-03-22T07:21:47.001Z</time></trkpt><trkpt lat="24.19010776968938" lon="120.72254863060206"><ele>165.0</ele><time>2026-03-22T07:21:48.001Z</time></trkpt><trkpt lat="24.19022754733451" lon="120.72255010805283"><ele>165.0</ele><time>2026-03-22T07:21:49.001Z</time></trkpt><trkpt lat="24.190349254043785" lon="120.72255132929024"><ele>165.0</ele><time>2026-03-22T07:21:50.001Z</time></trkpt><trkpt lat="24.19047328042818" lon="120.72255291659552"><ele>165.0</ele><time>2026-03-22T07:21:51.001Z</time></trkpt><trkpt lat="24.190598930831847" lon="120.72255432953472"><ele>165.0</ele><time>2026-03-22T07:21:52.001Z</time></trkpt><trkpt lat="24.19072630375432" lon="120.72255517380522"><ele>165.0</ele><time>2026-03-22T07:21:53.001Z</time></trkpt><trkpt lat="24.190854463096017" lon="120.72255539496304"><ele>164.5</ele><time>2026-03-22T07:21:54.001Z</time></trkpt><trkpt lat="24.19098303405548" lon="120.72255587497797"><ele>164.0</ele><time>2026-03-22T07:21:55.001Z</time></trkpt><trkpt lat="24.19110976568485" lon="120.72255700653373"><ele>163.5</ele><time>2026-03-22T07:21:56.001Z</time></trkpt><trkpt lat="24.19123701816507" lon="120.72255714824976"><ele>163.0</ele><time>2026-03-22T07:21:57.001Z</time></trkpt><trkpt lat="24.19136728697358" lon="120.72255777193114"><ele>163.0</ele><time>2026-03-22T07:21:58.001Z</time></trkpt><trkpt lat="24.191500945626345" lon="120.72255632978765"><ele>163.0</ele><time>2026-03-22T07:21:59.001Z</time></trkpt><trkpt lat="24.19163606516642" lon="120.72255077857567"><ele>163.0</ele><time>2026-03-22T07:22:00.001Z</time></trkpt><trkpt lat="24.191767078884492" lon="120.72254102893666"><ele>163.0</ele><time>2026-03-22T07:22:01.001Z</time></trkpt><trkpt lat="24.191896267791677" lon="120.72252823821954"><ele>163.25</ele><time>2026-03-22T07:22:02.001Z</time></trkpt><trkpt lat="24.192024266843102" lon="120.72251303490968"><ele>163.5</ele><time>2026-03-22T07:22:03.001Z</time></trkpt><trkpt lat="24.192154035112587" lon="120.72249578310405"><ele>163.75</ele><time>2026-03-22T07:22:04.001Z</time></trkpt><trkpt lat="24.19228322685388" lon="120.72247428854875"><ele>164.0</ele><time>2026-03-22T07:22:05.001Z</time></trkpt><trkpt lat="24.192408431687767" lon="120.72245078513009"><ele>164.0</ele><time>2026-03-22T07:22:06.001Z</time></trkpt><trkpt lat="24.192532745529505" lon="120.7224258462364"><ele>164.0</ele><time>2026-03-22T07:22:07.001Z</time></trkpt><trkpt lat="24.192659168408465" lon="120.72239674678823"><ele>164.0</ele><time>2026-03-22T07:22:08.001Z</time></trkpt><trkpt lat="24.19278767138607" lon="120.722363404811"><ele>164.0</ele><time>2026-03-22T07:22:09.001Z</time></trkpt><trkpt lat="24.192914501773725" lon="120.72232765233595"><ele>164.0</ele><time>2026-03-22T07:22:10.001Z</time></trkpt><trkpt lat="24.193036000102804" lon="120.72229013425658"><ele>164.0</ele><time>2026-03-22T07:22:11.002Z</time></trkpt><trkpt lat="24.193154290716393" lon="120.72225007536069"><ele>164.0</ele><time>2026-03-22T07:22:12.002Z</time></trkpt><trkpt lat="24.193271492964076" lon="120.722208365976"><ele>164.0</ele><time>2026-03-22T07:22:13.002Z</time></trkpt><trkpt lat="24.193389688869964" lon="120.72216290826421"><ele>164.25</ele><time>2026-03-22T07:22:14.002Z</time></trkpt><trkpt lat="24.193510479943534" lon="120.72211265369597"><ele>164.5</ele><time>2026-03-22T07:22:15.002Z</time></trkpt><trkpt lat="24.193633147993296" lon="120.72205810246393"><ele>164.75</ele><time>2026-03-22T07:22:16.002Z</time></trkpt><trkpt lat="24.19375217002258" lon="120.7220010825704"><ele>165.0</ele><time>2026-03-22T07:22:17.002Z</time></trkpt><trkpt lat="24.193869629810244" lon="120.72194169764181"><ele>164.75</ele><time>2026-03-22T07:22:18.002Z</time></trkpt><trkpt lat="24.1939882874117" lon="120.7218790499721"><ele>164.5</ele><time>2026-03-22T07:22:19.002Z</time></trkpt><trkpt lat="24.19410306509973" lon="120.721814773308"><ele>164.25</ele><time>2026-03-22T07:22:20.002Z</time></trkpt><trkpt lat="24.19421759924071" lon="120.72174581907477"><ele>164.0</ele><time>2026-03-22T07:22:21.002Z</time></trkpt><trkpt lat="24.194333803015695" lon="120.72167292266536"><ele>163.5</ele><time>2026-03-22T07:22:22.002Z</time></trkpt><trkpt lat="24.194450589768866" lon="120.7215951871909"><ele>163.0</ele><time>2026-03-22T07:22:23.002Z</time></trkpt><trkpt lat="24.194564259340186" lon="120.72151547753874"><ele>162.5</ele><time>2026-03-22T07:22:24.002Z</time></trkpt><trkpt lat="24.19467913079921" lon="120.72143171488315"><ele>162.0</ele><time>2026-03-22T07:22:25.002Z</time></trkpt><trkpt lat="24.194796088721553" lon="120.72134216928521"><ele>163.0</ele><time>2026-03-22T07:22:26.002Z</time></trkpt><trkpt lat="24.19491577894087" lon="120.72124499484454"><ele>164.0</ele><time>2026-03-22T07:22:27.002Z</time></trkpt><trkpt lat="24.195034908516202" lon="120.72114362044893"><ele>165.0</ele><time>2026-03-22T07:22:28.002Z</time></trkpt><trkpt lat="24.195150333043205" lon="120.72103893068615"><ele>165.0</ele><time>2026-03-22T07:22:29.002Z</time></trkpt><trkpt lat="24.195262727627835" lon="120.72093212759808"><ele>165.0</ele><time>2026-03-22T07:22:30.002Z</time></trkpt><trkpt lat="24.195374392771022" lon="120.72082143956985"><ele>165.0</ele><time>2026-03-22T07:22:31.002Z</time></trkpt><trkpt lat="24.195487351266404" lon="120.72070640828169"><ele>165.0</ele><time>2026-03-22T07:22:32.002Z</time></trkpt><trkpt lat="24.19559812181548" lon="120.72059113252838"><ele>165.0</ele><time>2026-03-22T07:22:33.002Z</time></trkpt><trkpt lat="24.19570811292914" lon="120.7204777492836"><ele>165.0</ele><time>2026-03-22T07:22:34.002Z</time></trkpt><trkpt lat="24.195818100058258" lon="120.72036516544718"><ele>165.5</ele><time>2026-03-22T07:22:35.002Z</time></trkpt><trkpt lat="24.195927906784" lon="120.72025454157748"><ele>166.0</ele><time>2026-03-22T07:22:36.002Z</time></trkpt><trkpt lat="24.196036336186612" lon="120.72014262901018"><ele>166.5</ele><time>2026-03-22T07:22:37.002Z</time></trkpt><trkpt lat="24.19614031325602" lon="120.72003060834695"><ele>167.0</ele><time>2026-03-22T07:22:38.002Z</time></trkpt><trkpt lat="24.196238560624895" lon="120.71992086144238"><ele>167.0</ele><time>2026-03-22T07:22:39.002Z</time></trkpt><trkpt lat="24.196333139590973" lon="120.71981497867299"><ele>167.0</ele><time>2026-03-22T07:22:40.002Z</time></trkpt><trkpt lat="24.196424921116783" lon="120.71971434861554"><ele>167.0</ele><time>2026-03-22T07:22:41.001Z</time></trkpt><trkpt lat="24.196513563284288" lon="120.71961944982176"><ele>167.0</ele><time>2026-03-22T07:22:42.001Z</time></trkpt><trkpt lat="24.19659712141908" lon="120.71953026963425"><ele>167.0</ele><time>2026-03-22T07:22:43.001Z</time></trkpt><trkpt lat="24.19666927108297" lon="120.7194529428726"><ele>167.0</ele><time>2026-03-22T07:22:44.001Z</time></trkpt><trkpt lat="24.19673198451633" lon="120.71938443638071"><ele>167.0</ele><time>2026-03-22T07:22:45.001Z</time></trkpt><trkpt lat="24.19678607322904" lon="120.71932472106627"><ele>167.0</ele><time>2026-03-22T07:22:46.001Z</time></trkpt><trkpt lat="24.19683537912849" lon="120.71926999977315"><ele>167.0</ele><time>2026-03-22T07:22:47.001Z</time></trkpt><trkpt lat="24.196884086841113" lon="120.71921335192867"><ele>167.0</ele><time>2026-03-22T07:22:48.001Z</time></trkpt><trkpt lat="24.196930149745402" lon="120.71915938961986"><ele>166.57142857142856</ele><time>2026-03-22T07:22:49.001Z</time></trkpt><trkpt lat="24.196978513694244" lon="120.7191016063438"><ele>166.14285714285714</ele><time>2026-03-22T07:22:50.001Z</time></trkpt><trkpt lat="24.197026301343037" lon="120.7190445720416"><ele>165.71428571428572</ele><time>2026-03-22T07:22:51.001Z</time></trkpt><trkpt lat="24.197071407221866" lon="120.71899033972751"><ele>165.28571428571428</ele><time>2026-03-22T07:22:52.001Z</time></trkpt><trkpt lat="24.197115091764644" lon="120.71893761214072"><ele>164.85714285714286</ele><time>2026-03-22T07:22:53.001Z</time></trkpt><trkpt lat="24.197158310628804" lon="120.71888521971826"><ele>164.42857142857142</ele><time>2026-03-22T07:22:54.001Z</time></trkpt><trkpt lat="24.19720168027306" lon="120.71883204358987"><ele>164.0</ele><time>2026-03-22T07:22:55.001Z</time></trkpt><trkpt lat="24.197283927305726" lon="120.71873229429535"><ele>164.2</ele><time>2026-03-22T07:22:57.001Z</time></trkpt><trkpt lat="24.19736184327502" lon="120.71863664879893"><ele>164.39999999999998</ele><time>2026-03-22T07:22:59.001Z</time></trkpt><trkpt lat="24.197448643001586" lon="120.71852947112316"><ele>164.6</ele><time>2026-03-22T07:23:01.001Z</time></trkpt><trkpt lat="24.197497452222137" lon="120.71846928424321"><ele>164.8</ele><time>2026-03-22T07:23:02.001Z</time></trkpt><trkpt lat="24.197550422821667" lon="120.71840348518735"><ele>165.0</ele><time>2026-03-22T07:23:03.001Z</time></trkpt><trkpt lat="24.197608959344066" lon="120.71833043541405"><ele>165.0</ele><time>2026-03-22T07:23:04.001Z</time></trkpt><trkpt lat="24.197673588069613" lon="120.71825000224433"><ele>165.0</ele><time>2026-03-22T07:23:05.001Z</time></trkpt><trkpt lat="24.197740955215682" lon="120.71816544526213"><ele>165.0</ele><time>2026-03-22T07:23:06.001Z</time></trkpt><trkpt lat="24.197808462724144" lon="120.71808186496418"><ele>165.0</ele><time>2026-03-22T07:23:07.001Z</time></trkpt><trkpt lat="24.197878923344444" lon="120.7179954587167"><ele>165.0</ele><time>2026-03-22T07:23:08.001Z</time></trkpt><trkpt lat="24.19795533043442" lon="120.71790205064693"><ele>165.0</ele><time>2026-03-22T07:23:09.001Z</time></trkpt><trkpt lat="24.198039510748043" lon="120.71780215424157"><ele>165.0</ele><time>2026-03-22T07:23:10.001Z</time></trkpt><trkpt lat="24.198133879793563" lon="120.71769897228764"><ele>165.0</ele><time>2026-03-22T07:23:11.001Z</time></trkpt><trkpt lat="24.198238990112273" lon="120.71759074510543"><ele>165.0</ele><time>2026-03-22T07:23:12.001Z</time></trkpt><trkpt lat="24.198352958551183" lon="120.7174785670184"><ele>165.0</ele><time>2026-03-22T07:23:13.001Z</time></trkpt><trkpt lat="24.19847132217428" lon="120.71736114616897"><ele>165.0</ele><time>2026-03-22T07:23:14.001Z</time></trkpt><trkpt lat="24.198591042635705" lon="120.71724909853026"><ele>165.0</ele><time>2026-03-22T07:23:15.001Z</time></trkpt><trkpt lat="24.198712977876948" lon="120.71713791105626"><ele>165.0</ele><time>2026-03-22T07:23:16.001Z</time></trkpt><trkpt lat="24.19883989526606" lon="120.71702815567821"><ele>165.0</ele><time>2026-03-22T07:23:17.001Z</time></trkpt><trkpt lat="24.198972763674984" lon="120.71691606123763"><ele>165.0</ele><time>2026-03-22T07:23:18.001Z</time></trkpt><trkpt lat="24.199108450618617" lon="120.7168063080341"><ele>163.66666666666666</ele><time>2026-03-22T07:23:19.001Z</time></trkpt><trkpt lat="24.199247485260027" lon="120.71669744844212"><ele>162.33333333333331</ele><time>2026-03-22T07:23:20.001Z</time></trkpt><trkpt lat="24.199388692569723" lon="120.71659107724352"><ele>161.0</ele><time>2026-03-22T07:23:21.001Z</time></trkpt><trkpt lat="24.19953613249378" lon="120.71649064859547"><ele>161.0</ele><time>2026-03-22T07:23:22.001Z</time></trkpt><trkpt lat="24.19968596605576" lon="120.71639487225126"><ele>161.0</ele><time>2026-03-22T07:23:23.001Z</time></trkpt><trkpt lat="24.199840412404953" lon="120.71630616984612"><ele>161.0</ele><time>2026-03-22T07:23:24.001Z</time></trkpt><trkpt lat="24.199999830369105" lon="120.71622328386758"><ele>161.33333333333331</ele><time>2026-03-22T07:23:25.001Z</time></trkpt><trkpt lat="24.20016309958625" lon="120.71615121567186"><ele>161.66666666666666</ele><time>2026-03-22T07:23:26.001Z</time></trkpt><trkpt lat="24.20033046892764" lon="120.71608741354439"><ele>162.0</ele><time>2026-03-22T07:23:27.001Z</time></trkpt><trkpt lat="24.200501774700072" lon="120.71603241566059"><ele>162.33333333333334</ele><time>2026-03-22T07:23:28.001Z</time></trkpt><trkpt lat="24.200676937616336" lon="120.71598913617183"><ele>162.66666666666669</ele><time>2026-03-22T07:23:29.001Z</time></trkpt><trkpt lat="24.20085128453929" lon="120.71595339525469"><ele>163.0</ele><time>2026-03-22T07:23:30.001Z</time></trkpt><trkpt lat="24.201028311990648" lon="120.71592585279858"><ele>163.0</ele><time>2026-03-22T07:23:31.001Z</time></trkpt><trkpt lat="24.201209529145977" lon="120.71590840224363"><ele>163.0</ele><time>2026-03-22T07:23:32.001Z</time></trkpt><trkpt lat="24.201395419347687" lon="120.71590077658443"><ele>163.0</ele><time>2026-03-22T07:23:33.001Z</time></trkpt><trkpt lat="24.201584192459407" lon="120.71590524910562"><ele>162.0</ele><time>2026-03-22T07:23:34.001Z</time></trkpt><trkpt lat="24.201775816903613" lon="120.7159198329006"><ele>161.0</ele><time>2026-03-22T07:23:35.001Z</time></trkpt><trkpt lat="24.201969057714276" lon="120.71595016586159"><ele>160.0</ele><time>2026-03-22T07:23:36.001Z</time></trkpt><trkpt lat="24.2021638468529" lon="120.71599184344434"><ele>160.0</ele><time>2026-03-22T07:23:37.001Z</time></trkpt><trkpt lat="24.202358800938587" lon="120.71604750084443"><ele>160.0</ele><time>2026-03-22T07:23:38.001Z</time></trkpt><trkpt lat="24.202553236521634" lon="120.71611586551046"><ele>160.0</ele><time>2026-03-22T07:23:39.001Z</time></trkpt><trkpt lat="24.202748047906002" lon="120.71619221525533"><ele>162.0</ele><time>2026-03-22T07:23:40.001Z</time></trkpt><trkpt lat="24.202940768315575" lon="120.71628132389914"><ele>164.0</ele><time>2026-03-22T07:23:41.001Z</time></trkpt><trkpt lat="24.203134209001053" lon="120.71637743192751"><ele>166.0</ele><time>2026-03-22T07:23:42.001Z</time></trkpt><trkpt lat="24.203329336828688" lon="120.71647690018308"><ele>166.0</ele><time>2026-03-22T07:23:43.001Z</time></trkpt><trkpt lat="24.20352714461835" lon="120.71657648812364"><ele>166.0</ele><time>2026-03-22T07:23:44.001Z</time></trkpt><trkpt lat="24.203726502700093" lon="120.71667492299517"><ele>166.0</ele><time>2026-03-22T07:23:45.001Z</time></trkpt><trkpt lat="24.20392658811363" lon="120.71676841300652"><ele>166.33333333333334</ele><time>2026-03-22T07:23:46.001Z</time></trkpt><trkpt lat="24.20412818881823" lon="120.71685642221335"><ele>166.66666666666666</ele><time>2026-03-22T07:23:47.001Z</time></trkpt><trkpt lat="24.204334929989148" lon="120.71693543292406"><ele>167.0</ele><time>2026-03-22T07:23:48.001Z</time></trkpt><trkpt lat="24.20454604893485" lon="120.71700497939271"><ele>167.66666666666666</ele><time>2026-03-22T07:23:49.001Z</time></trkpt><trkpt lat="24.204760575366794" lon="120.7170655002594"><ele>168.33333333333334</ele><time>2026-03-22T07:23:50.001Z</time></trkpt><trkpt lat="24.204978388589353" lon="120.71711633933978"><ele>169.0</ele><time>2026-03-22T07:23:51.001Z</time></trkpt><trkpt lat="24.205195616456965" lon="120.71715745569288"><ele>169.33333333333334</ele><time>2026-03-22T07:23:52.001Z</time></trkpt><trkpt lat="24.205412670760314" lon="120.7171894434269"><ele>169.66666666666666</ele><time>2026-03-22T07:23:53.001Z</time></trkpt><trkpt lat="24.20563069614381" lon="120.71721171544029"><ele>170.0</ele><time>2026-03-22T07:23:54.001Z</time></trkpt><trkpt lat="24.205849698345023" lon="120.71722579576159"><ele>169.33333333333331</ele><time>2026-03-22T07:23:55.001Z</time></trkpt><trkpt lat="24.20606952133857" lon="120.71723048044745"><ele>168.66666666666666</ele><time>2026-03-22T07:23:56.001Z</time></trkpt><trkpt lat="24.20628975985492" lon="120.71722468044322"><ele>168.0</ele><time>2026-03-22T07:23:57.001Z</time></trkpt><trkpt lat="24.206510208266447" lon="120.71721011290116"><ele>168.0</ele><time>2026-03-22T07:23:58.001Z</time></trkpt><trkpt lat="24.206729739694094" lon="120.71718780868162"><ele>168.0</ele><time>2026-03-22T07:23:59.001Z</time></trkpt><trkpt lat="24.206948822684307" lon="120.71715856501179"><ele>168.0</ele><time>2026-03-22T07:24:00.001Z</time></trkpt><trkpt lat="24.207169894361215" lon="120.71712772730366"><ele>167.66666666666666</ele><time>2026-03-22T07:24:01.001Z</time></trkpt><trkpt lat="24.207392257810596" lon="120.71709915481144"><ele>167.33333333333331</ele><time>2026-03-22T07:24:02.001Z</time></trkpt><trkpt lat="24.20761544531182" lon="120.71706964978715"><ele>167.0</ele><time>2026-03-22T07:24:03.001Z</time></trkpt><trkpt lat="24.20784258327392" lon="120.71705911451181"><ele>167.0</ele><time>2026-03-22T07:24:04.001Z</time></trkpt><trkpt lat="24.208067593754606" lon="120.71703140797166"><ele>167.0</ele><time>2026-03-22T07:24:05.001Z</time></trkpt><trkpt lat="24.208293885827526" lon="120.71700529727056"><ele>169.0</ele><time>2026-03-22T07:24:06.001Z</time></trkpt><trkpt lat="24.208522517225077" lon="120.71698090506189"><ele>171.0</ele><time>2026-03-22T07:24:07.001Z</time></trkpt><trkpt lat="24.20875235560357" lon="120.71696126382184"><ele>171.0</ele><time>2026-03-22T07:24:08.001Z</time></trkpt><trkpt lat="24.208982943630737" lon="120.71694306149962"><ele>171.0</ele><time>2026-03-22T07:24:09.001Z</time></trkpt><trkpt lat="24.209213926212467" lon="120.71692844292144"><ele>172.0</ele><time>2026-03-22T07:24:10.001Z</time></trkpt><trkpt lat="24.209446541792374" lon="120.71691946533656"><ele>173.0</ele><time>2026-03-22T07:24:11.001Z</time></trkpt><trkpt lat="24.209679075160743" lon="120.71691571228595"><ele>174.0</ele><time>2026-03-22T07:24:12.001Z</time></trkpt><trkpt lat="24.209912177291194" lon="120.71692342383197"><ele>175.0</ele><time>2026-03-22T07:24:13.001Z</time></trkpt><trkpt lat="24.210147974211484" lon="120.71692665863957"><ele>175.0</ele><time>2026-03-22T07:24:14.001Z</time></trkpt><trkpt lat="24.210383296601325" lon="120.71693212214203"><ele>175.0</ele><time>2026-03-22T07:24:15.001Z</time></trkpt><trkpt lat="24.210620038588583" lon="120.71694506007233"><ele>175.0</ele><time>2026-03-22T07:24:16.001Z</time></trkpt><trkpt lat="24.210858079740355" lon="120.7169599846559"><ele>175.0</ele><time>2026-03-22T07:24:17.001Z</time></trkpt><trkpt lat="24.211101745139903" lon="120.7168997633319"><ele>175.0</ele><time>2026-03-22T07:24:18.001Z</time></trkpt><trkpt lat="24.2113408358107" lon="120.71691494527394"><ele>175.0</ele><time>2026-03-22T07:24:19.001Z</time></trkpt><trkpt lat="24.21158091203345" lon="120.71693442171139"><ele>178.0</ele><time>2026-03-22T07:24:20.001Z</time></trkpt><trkpt lat="24.211821926290686" lon="120.71695719305916"><ele>181.0</ele><time>2026-03-22T07:24:21.001Z</time></trkpt><trkpt lat="24.212063107237835" lon="120.71698517434527"><ele>181.0</ele><time>2026-03-22T07:24:22.001Z</time></trkpt><trkpt lat="24.212307039063898" lon="120.71701543000158"><ele>181.0</ele><time>2026-03-22T07:24:23.001Z</time></trkpt><trkpt lat="24.21254701294881" lon="120.71704834081201"><ele>179.5</ele><time>2026-03-22T07:24:24.001Z</time></trkpt><trkpt lat="24.21278857653123" lon="120.71708438175787"><ele>178.0</ele><time>2026-03-22T07:24:25.001Z</time></trkpt><trkpt lat="24.213030252581333" lon="120.71712342597675"><ele>176.5</ele><time>2026-03-22T07:24:26.001Z</time></trkpt><trkpt lat="24.21327140991067" lon="120.71716999914436"><ele>175.0</ele><time>2026-03-22T07:24:27.001Z</time></trkpt><trkpt lat="24.21351122967795" lon="120.71721969102244"><ele>175.0</ele><time>2026-03-22T07:24:28.001Z</time></trkpt><trkpt lat="24.213749978869664" lon="120.71727248161625"><ele>175.0</ele><time>2026-03-22T07:24:29.001Z</time></trkpt><trkpt lat="24.21398828101828" lon="120.71732805660511"><ele>175.5</ele><time>2026-03-22T07:24:30.001Z</time></trkpt><trkpt lat="24.214225708552256" lon="120.71738876812996"><ele>176.0</ele><time>2026-03-22T07:24:31.001Z</time></trkpt><trkpt lat="24.214461759761345" lon="120.71745077975577"><ele>176.0</ele><time>2026-03-22T07:24:32.001Z</time></trkpt><trkpt lat="24.214695546896138" lon="120.7175160622474"><ele>176.0</ele><time>2026-03-22T07:24:33.001Z</time></trkpt><trkpt lat="24.214925239465195" lon="120.71758464835713"><ele>177.0</ele><time>2026-03-22T07:24:34.001Z</time></trkpt><trkpt lat="24.215152074807044" lon="120.71765550934093"><ele>178.0</ele><time>2026-03-22T07:24:35.001Z</time></trkpt><trkpt lat="24.215379612648935" lon="120.71773007080533"><ele>179.5</ele><time>2026-03-22T07:24:36.001Z</time></trkpt><trkpt lat="24.215605268502344" lon="120.71780918561161"><ele>181.0</ele><time>2026-03-22T07:24:37.001Z</time></trkpt><trkpt lat="24.215830502475907" lon="120.7178911835557"><ele>181.0</ele><time>2026-03-22T07:24:38.001Z</time></trkpt><trkpt lat="24.216055158620435" lon="120.71797742126049"><ele>181.0</ele><time>2026-03-22T07:24:39.001Z</time></trkpt><trkpt lat="24.21627960687439" lon="120.71806467291296"><ele>181.0</ele><time>2026-03-22T07:24:40.001Z</time></trkpt><trkpt lat="24.216501911754225" lon="120.7181557996432"><ele>181.0</ele><time>2026-03-22T07:24:41.001Z</time></trkpt><trkpt lat="24.216723007902452" lon="120.71825131484422"><ele>181.0</ele><time>2026-03-22T07:24:42.001Z</time></trkpt><trkpt lat="24.216938385588673" lon="120.71834999298783"><ele>181.0</ele><time>2026-03-22T07:24:43.001Z</time></trkpt><trkpt lat="24.21714934049658" lon="120.7184539575529"><ele>182.5</ele><time>2026-03-22T07:24:44.001Z</time></trkpt><trkpt lat="24.21735496601149" lon="120.71856375973908"><ele>184.0</ele><time>2026-03-22T07:24:45.001Z</time></trkpt><trkpt lat="24.217557594453353" lon="120.71867904764778"><ele>184.0</ele><time>2026-03-22T07:24:46.001Z</time></trkpt><trkpt lat="24.217757884318782" lon="120.71879992264589"><ele>184.0</ele><time>2026-03-22T07:24:47.001Z</time></trkpt><trkpt lat="24.217956320071693" lon="120.71892807532186"><ele>184.5</ele><time>2026-03-22T07:24:48.001Z</time></trkpt><trkpt lat="24.21815324603169" lon="120.71906103317082"><ele>185.0</ele><time>2026-03-22T07:24:49.001Z</time></trkpt><trkpt lat="24.218347751989658" lon="120.71920042442906"><ele>185.0</ele><time>2026-03-22T07:24:50.001Z</time></trkpt><trkpt lat="24.218539740010616" lon="120.71934532570461"><ele>185.0</ele><time>2026-03-22T07:24:51.001Z</time></trkpt><trkpt lat="24.21872759594518" lon="120.71949529253595"><ele>184.0</ele><time>2026-03-22T07:24:52.001Z</time></trkpt><trkpt lat="24.218906932445854" lon="120.7196487322131"><ele>183.0</ele><time>2026-03-22T07:24:53.001Z</time></trkpt><trkpt lat="24.219082080031978" lon="120.71980563372195"><ele>182.66666666666666</ele><time>2026-03-22T07:24:54.001Z</time></trkpt><trkpt lat="24.21925200003344" lon="120.71996240511778"><ele>182.33333333333331</ele><time>2026-03-22T07:24:55.001Z</time></trkpt><trkpt lat="24.219415758736982" lon="120.72012396469297"><ele>182.0</ele><time>2026-03-22T07:24:56.001Z</time></trkpt><trkpt lat="24.219573240035942" lon="120.7202899427891"><ele>183.33333333333331</ele><time>2026-03-22T07:24:57.001Z</time></trkpt><trkpt lat="24.21972962618391" lon="120.72045770631527"><ele>184.66666666666666</ele><time>2026-03-22T07:24:58.001Z</time></trkpt><trkpt lat="24.219881556466806" lon="120.72062994495958"><ele>186.0</ele><time>2026-03-22T07:24:59.001Z</time></trkpt><trkpt lat="24.22002808373815" lon="120.72080445559209"><ele>186.0</ele><time>2026-03-22T07:25:00.001Z</time></trkpt><trkpt lat="24.22016224778137" lon="120.72098266240147"><ele>186.0</ele><time>2026-03-22T07:25:01.001Z</time></trkpt><trkpt lat="24.220280646666826" lon="120.72116811146428"><ele>186.0</ele><time>2026-03-22T07:25:02.001Z</time></trkpt><trkpt lat="24.220383844099157" lon="120.7213620003901"><ele>187.0</ele><time>2026-03-22T07:25:03.001Z</time></trkpt><trkpt lat="24.220475782439898" lon="120.7215627200191"><ele>188.0</ele><time>2026-03-22T07:25:04.001Z</time></trkpt><trkpt lat="24.220559392797014" lon="120.72176748654839"><ele>189.0</ele><time>2026-03-22T07:25:05.001Z</time></trkpt><trkpt lat="24.2206377322272" lon="120.72197673285488"><ele>189.0</ele><time>2026-03-22T07:25:06.001Z</time></trkpt><trkpt lat="24.220705899352684" lon="120.72218891779782"><ele>189.0</ele><time>2026-03-22T07:25:07.001Z</time></trkpt><trkpt lat="24.220764298190595" lon="120.72240685229568"><ele>189.0</ele><time>2026-03-22T07:25:08.001Z</time></trkpt><trkpt lat="24.220811690194683" lon="120.72262808961486"><ele>189.33333333333334</ele><time>2026-03-22T07:25:09.001Z</time></trkpt><trkpt lat="24.220845782451576" lon="120.72285275499513"><ele>189.66666666666669</ele><time>2026-03-22T07:25:10.001Z</time></trkpt><trkpt lat="24.220868099092925" lon="120.7230785646796"><ele>190.0</ele><time>2026-03-22T07:25:11.001Z</time></trkpt><trkpt lat="24.22087809123988" lon="120.72330810311004"><ele>190.0</ele><time>2026-03-22T07:25:12.001Z</time></trkpt><trkpt lat="24.220875724920177" lon="120.72354059701073"><ele>190.0</ele><time>2026-03-22T07:25:13.001Z</time></trkpt><trkpt lat="24.220860338722808" lon="120.72377024051545"><ele>190.0</ele><time>2026-03-22T07:25:14.001Z</time></trkpt><trkpt lat="24.220835826863947" lon="120.72399786293049"><ele>191.33333333333334</ele><time>2026-03-22T07:25:15.001Z</time></trkpt><trkpt lat="24.220806550754634" lon="120.72422749479132"><ele>192.66666666666669</ele><time>2026-03-22T07:25:16.001Z</time></trkpt><trkpt lat="24.22076880774659" lon="120.7244553064794"><ele>194.0</ele><time>2026-03-22T07:25:17.001Z</time></trkpt><trkpt lat="24.220726299537617" lon="120.72468339137839"><ele>194.66666666666669</ele><time>2026-03-22T07:25:18.001Z</time></trkpt><trkpt lat="24.22067749475467" lon="120.72491047433077"><ele>195.33333333333331</ele><time>2026-03-22T07:25:19.001Z</time></trkpt><trkpt lat="24.22062752014847" lon="120.72513813623098"><ele>196.0</ele><time>2026-03-22T07:25:20.001Z</time></trkpt><trkpt lat="24.22057651964241" lon="120.72536639263674"><ele>197.33333333333331</ele><time>2026-03-22T07:25:21.001Z</time></trkpt><trkpt lat="24.22052554338811" lon="120.72559456068235"><ele>198.66666666666669</ele><time>2026-03-22T07:25:22.001Z</time></trkpt><trkpt lat="24.220473906967708" lon="120.72582146183129"><ele>200.0</ele><time>2026-03-22T07:25:23.001Z</time></trkpt><trkpt lat="24.2204233009617" lon="120.7260488891079"><ele>199.66666666666669</ele><time>2026-03-22T07:25:24.001Z</time></trkpt><trkpt lat="24.220376245060397" lon="120.72627796496526"><ele>199.33333333333331</ele><time>2026-03-22T07:25:25.001Z</time></trkpt><trkpt lat="24.220335418150793" lon="120.72650933655827"><ele>199.0</ele><time>2026-03-22T07:25:26.001Z</time></trkpt><trkpt lat="24.220303089406276" lon="120.72674504360525"><ele>202.0</ele><time>2026-03-22T07:25:27.001Z</time></trkpt><trkpt lat="24.220281496113245" lon="120.72698238102579"><ele>205.0</ele><time>2026-03-22T07:25:28.001Z</time></trkpt><trkpt lat="24.220271188747798" lon="120.72722320111203"><ele>208.0</ele><time>2026-03-22T07:25:29.001Z</time></trkpt><trkpt lat="24.2202738952988" lon="120.72746387195592"><ele>208.0</ele><time>2026-03-22T07:25:30.001Z</time></trkpt><trkpt lat="24.220289273261777" lon="120.72770286822842"><ele>208.0</ele><time>2026-03-22T07:25:31.001Z</time></trkpt><trkpt lat="24.22031747027596" lon="120.72794107018382"><ele>208.0</ele><time>2026-03-22T07:25:32.001Z</time></trkpt><trkpt lat="24.220358642293082" lon="120.72817761699869"><ele>214.33333333333331</ele><time>2026-03-22T07:25:33.001Z</time></trkpt><trkpt lat="24.220412992054975" lon="120.72841041255305"><ele>220.66666666666669</ele><time>2026-03-22T07:25:34.001Z</time></trkpt><trkpt lat="24.220477889584235" lon="120.7286404136545"><ele>227.0</ele><time>2026-03-22T07:25:35.001Z</time></trkpt><trkpt lat="24.220555636621175" lon="120.7288655227582"><ele>232.66666666666669</ele><time>2026-03-22T07:25:36.001Z</time></trkpt><trkpt lat="24.22064468354502" lon="120.72908416309033"><ele>238.33333333333331</ele><time>2026-03-22T07:25:37.001Z</time></trkpt><trkpt lat="24.220746259949525" lon="120.7292981608378"><ele>244.0</ele><time>2026-03-22T07:25:38.001Z</time></trkpt><trkpt lat="24.22085943427843" lon="120.72950570385744"><ele>250.0</ele><time>2026-03-22T07:25:39.001Z</time></trkpt><trkpt lat="24.22098414212567" lon="120.72970488341198"><ele>256.0</ele><time>2026-03-22T07:25:40.001Z</time></trkpt><trkpt lat="24.221120663482555" lon="120.72989395807804"><ele>262.0</ele><time>2026-03-22T07:25:41.001Z</time></trkpt><trkpt lat="24.22126895910538" lon="120.73007684381385"><ele>263.0</ele><time>2026-03-22T07:25:42.001Z</time></trkpt><trkpt lat="24.22142846252781" lon="120.73025152302274"><ele>264.0</ele><time>2026-03-22T07:25:43.001Z</time></trkpt><trkpt lat="24.221595639195574" lon="120.73041131258616"><ele>265.0</ele><time>2026-03-22T07:25:44.001Z</time></trkpt><trkpt lat="24.22177259101093" lon="120.73056320895006"><ele>265.5</ele><time>2026-03-22T07:25:45.001Z</time></trkpt><trkpt lat="24.221956668015537" lon="120.73070837198635"><ele>266.0</ele><time>2026-03-22T07:25:46.001Z</time></trkpt><trkpt lat="24.222147190304252" lon="120.73084682009075"><ele>267.0</ele><time>2026-03-22T07:25:47.001Z</time></trkpt><trkpt lat="24.22234244238291" lon="120.73098007684412"><ele>268.0</ele><time>2026-03-22T07:25:48.001Z</time></trkpt><trkpt lat="24.222543868635075" lon="120.7311075883917"><ele>268.0</ele><time>2026-03-22T07:25:49.001Z</time></trkpt><trkpt lat="24.22275001830033" lon="120.73123148844786"><ele>268.0</ele><time>2026-03-22T07:25:50.001Z</time></trkpt><trkpt lat="24.222957548817604" lon="120.73134502919747"><ele>269.0</ele><time>2026-03-22T07:25:51.001Z</time></trkpt><trkpt lat="24.22317280224503" lon="120.73145096466058"><ele>270.0</ele><time>2026-03-22T07:25:52.001Z</time></trkpt><trkpt lat="24.22339127576461" lon="120.7315458010899"><ele>270.0</ele><time>2026-03-22T07:25:53.001Z</time></trkpt><trkpt lat="24.223612047190887" lon="120.73163186589849"><ele>270.0</ele><time>2026-03-22T07:25:54.001Z</time></trkpt><trkpt lat="24.223836753065722" lon="120.73171124765734"><ele>271.0</ele><time>2026-03-22T07:25:55.001Z</time></trkpt><trkpt lat="24.22406670238631" lon="120.73178162452002"><ele>272.0</ele><time>2026-03-22T07:25:56.001Z</time></trkpt><trkpt lat="24.22430229203443" lon="120.73184261379444"><ele>275.5</ele><time>2026-03-22T07:25:57.001Z</time></trkpt><trkpt lat="24.224541026331575" lon="120.73189480796403"><ele>279.0</ele><time>2026-03-22T07:25:58.001Z</time></trkpt><trkpt lat="24.22478080620408" lon="120.73193638074116"><ele>276.0</ele><time>2026-03-22T07:25:59.001Z</time></trkpt><trkpt lat="24.225022406617633" lon="120.7319721305402"><ele>273.0</ele><time>2026-03-22T07:26:00.001Z</time></trkpt><trkpt lat="24.225267746074973" lon="120.73200368826201"><ele>273.0</ele><time>2026-03-22T07:26:01.001Z</time></trkpt><trkpt lat="24.225515152186684" lon="120.73203006883584"><ele>273.0</ele><time>2026-03-22T07:26:02.001Z</time></trkpt><trkpt lat="24.225764818836378" lon="120.7320549841599"><ele>265.0</ele><time>2026-03-22T07:26:03.001Z</time></trkpt><trkpt lat="24.226014335625187" lon="120.73207863845572"><ele>257.0</ele><time>2026-03-22T07:26:04.001Z</time></trkpt><trkpt lat="24.22626420997237" lon="120.73210325249056"><ele>252.0</ele><time>2026-03-22T07:26:05.001Z</time></trkpt><trkpt lat="24.226516060387095" lon="120.73212845468932"><ele>247.0</ele><time>2026-03-22T07:26:06.001Z</time></trkpt><trkpt lat="24.226768448422725" lon="120.73215296135655"><ele>247.0</ele><time>2026-03-22T07:26:07.001Z</time></trkpt><trkpt lat="24.227021164536964" lon="120.73217771411288"><ele>247.0</ele><time>2026-03-22T07:26:08.001Z</time></trkpt><trkpt lat="24.227274984787528" lon="120.73220466035674"><ele>247.5</ele><time>2026-03-22T07:26:09.001Z</time></trkpt><trkpt lat="24.227526785219002" lon="120.73223084334911"><ele>248.0</ele><time>2026-03-22T07:26:10.001Z</time></trkpt><trkpt lat="24.227780903647822" lon="120.73225765273334"><ele>248.0</ele><time>2026-03-22T07:26:11.001Z</time></trkpt><trkpt lat="24.228032115494045" lon="120.7322835492583"><ele>248.0</ele><time>2026-03-22T07:26:12.001Z</time></trkpt><trkpt lat="24.22828473600222" lon="120.73230784673677"><ele>249.0</ele><time>2026-03-22T07:26:13.001Z</time></trkpt><trkpt lat="24.22853663478774" lon="120.7323330058715"><ele>250.0</ele><time>2026-03-22T07:26:14.001Z</time></trkpt><trkpt lat="24.22878858815913" lon="120.73235695797571"><ele>249.5</ele><time>2026-03-22T07:26:15.001Z</time></trkpt><trkpt lat="24.229038610776392" lon="120.73238212399133"><ele>249.0</ele><time>2026-03-22T07:26:16.001Z</time></trkpt><trkpt lat="24.229288188741524" lon="120.7324079114253"><ele>249.0</ele><time>2026-03-22T07:26:17.001Z</time></trkpt><trkpt lat="24.229537962210877" lon="120.7324317468346"><ele>249.0</ele><time>2026-03-22T07:26:18.001Z</time></trkpt><trkpt lat="24.229787398753366" lon="120.73245765619768"><ele>250.5</ele><time>2026-03-22T07:26:19.001Z</time></trkpt><trkpt lat="24.23003668808845" lon="120.73248338695335"><ele>252.0</ele><time>2026-03-22T07:26:20.001Z</time></trkpt><trkpt lat="24.230285325825438" lon="120.73250951110164"><ele>252.0</ele><time>2026-03-22T07:26:21.001Z</time></trkpt><trkpt lat="24.230533401035807" lon="120.73253464491616"><ele>252.0</ele><time>2026-03-22T07:26:22.001Z</time></trkpt><trkpt lat="24.230779039335413" lon="120.73256088819582"><ele>245.5</ele><time>2026-03-22T07:26:23.001Z</time></trkpt><trkpt lat="24.231027088619776" lon="120.73259002253698"><ele>239.0</ele><time>2026-03-22T07:26:24.001Z</time></trkpt><trkpt lat="24.23127464657535" lon="120.73262285707439"><ele>242.0</ele><time>2026-03-22T07:26:25.001Z</time></trkpt><trkpt lat="24.231521345014933" lon="120.73266256218363"><ele>245.0</ele><time>2026-03-22T07:26:26.001Z</time></trkpt><trkpt lat="24.231767843851838" lon="120.73271178819685"><ele>247.0</ele><time>2026-03-22T07:26:27.001Z</time></trkpt><trkpt lat="24.232012220535736" lon="120.73276722754046"><ele>249.0</ele><time>2026-03-22T07:26:28.001Z</time></trkpt><trkpt lat="24.232255037032626" lon="120.73283279691125"><ele>254.5</ele><time>2026-03-22T07:26:29.001Z</time></trkpt><trkpt lat="24.232493271726778" lon="120.73291070007846"><ele>260.0</ele><time>2026-03-22T07:26:30.001Z</time></trkpt><trkpt lat="24.232728771209853" lon="120.73299790440085"><ele>260.0</ele><time>2026-03-22T07:26:31.001Z</time></trkpt><trkpt lat="24.232961775676518" lon="120.73309576499291"><ele>260.0</ele><time>2026-03-22T07:26:32.001Z</time></trkpt><trkpt lat="24.23319403968206" lon="120.73320460323285"><ele>258.0</ele><time>2026-03-22T07:26:33.001Z</time></trkpt><trkpt lat="24.233422979709474" lon="120.73332486173054"><ele>256.0</ele><time>2026-03-22T07:26:34.001Z</time></trkpt><trkpt lat="24.233650162656005" lon="120.733457771541"><ele>260.0</ele><time>2026-03-22T07:26:35.001Z</time></trkpt><trkpt lat="24.23387264190919" lon="120.73360680948585"><ele>264.0</ele><time>2026-03-22T07:26:36.001Z</time></trkpt><trkpt lat="24.234089626964085" lon="120.73376886912034"><ele>264.0</ele><time>2026-03-22T07:26:37.001Z</time></trkpt><trkpt lat="24.2343003748207" lon="120.73394752526593"><ele>264.0</ele><time>2026-03-22T07:26:38.001Z</time></trkpt><trkpt lat="24.234509984830922" lon="120.734131885949"><ele>264.0</ele><time>2026-03-22T07:26:39.001Z</time></trkpt><trkpt lat="24.234715918264158" lon="120.73432067287645"><ele>264.0</ele><time>2026-03-22T07:26:40.001Z</time></trkpt><trkpt lat="24.234916506632253" lon="120.7345101336152"><ele>263.5</ele><time>2026-03-22T07:26:41.001Z</time></trkpt><trkpt lat="24.2351092419389" lon="120.73470195311135"><ele>263.0</ele><time>2026-03-22T07:26:42.001Z</time></trkpt><trkpt lat="24.235296302452422" lon="120.73489640800292"><ele>263.0</ele><time>2026-03-22T07:26:43.001Z</time></trkpt><trkpt lat="24.23548056157028" lon="120.73509128361"><ele>263.0</ele><time>2026-03-22T07:26:44.001Z</time></trkpt><trkpt lat="24.235659149990585" lon="120.7352886996835"><ele>252.5</ele><time>2026-03-22T07:26:45.001Z</time></trkpt><trkpt lat="24.235833267556302" lon="120.73548422944306"><ele>242.0</ele><time>2026-03-22T07:26:46.001Z</time></trkpt><trkpt lat="24.236002551338046" lon="120.73567555166822"><ele>242.0</ele><time>2026-03-22T07:26:47.001Z</time></trkpt><trkpt lat="24.236166332250438" lon="120.73586563566337"><ele>242.0</ele><time>2026-03-22T07:26:48.001Z</time></trkpt><trkpt lat="24.236324919582742" lon="120.7360535844731"><ele>241.0</ele><time>2026-03-22T07:26:49.001Z</time></trkpt><trkpt lat="24.236479890452863" lon="120.73623861422091"><ele>240.0</ele><time>2026-03-22T07:26:50.001Z</time></trkpt><trkpt lat="24.236632417642156" lon="120.73642091689184"><ele>240.0</ele><time>2026-03-22T07:26:51.001Z</time></trkpt><trkpt lat="24.23678010393418" lon="120.73659865507766"><ele>240.0</ele><time>2026-03-22T07:26:52.001Z</time></trkpt><trkpt lat="24.236921982135847" lon="120.7367754965556"><ele>240.0</ele><time>2026-03-22T07:26:53.001Z</time></trkpt><trkpt lat="24.23705616315929" lon="120.73695193313803"><ele>241.66666666666669</ele><time>2026-03-22T07:26:54.001Z</time></trkpt><trkpt lat="24.2371818794625" lon="120.73712792686334"><ele>243.33333333333334</ele><time>2026-03-22T07:26:55.001Z</time></trkpt><trkpt lat="24.23730071004286" lon="120.73729783620827"><ele>245.0</ele><time>2026-03-22T07:26:56.001Z</time></trkpt><trkpt lat="24.2374145695804" lon="120.73746129036739"><ele>258.0</ele><time>2026-03-22T07:26:57.001Z</time></trkpt><trkpt lat="24.23752235060979" lon="120.73761787510739"><ele>271.0</ele><time>2026-03-22T07:26:58.001Z</time></trkpt><trkpt lat="24.237622113728776" lon="120.73776845320012"><ele>284.0</ele><time>2026-03-22T07:26:59.001Z</time></trkpt><trkpt lat="24.237715643713962" lon="120.7379116581592"><ele>291.0</ele><time>2026-03-22T07:27:00.001Z</time></trkpt><trkpt lat="24.23780541199145" lon="120.73805394822573"><ele>298.0</ele><time>2026-03-22T07:27:01.001Z</time></trkpt><trkpt lat="24.237893100542905" lon="120.73819216216508"><ele>305.0</ele><time>2026-03-22T07:27:02.001Z</time></trkpt><trkpt lat="24.23797831140945" lon="120.73832863329812"><ele>305.0</ele><time>2026-03-22T07:27:03.001Z</time></trkpt><trkpt lat="24.238060971459078" lon="120.73846212784504"><ele>305.0</ele><time>2026-03-22T07:27:04.001Z</time></trkpt><trkpt lat="24.238141206570237" lon="120.73859599146415"><ele>305.0</ele><time>2026-03-22T07:27:05.001Z</time></trkpt><trkpt lat="24.238216991414742" lon="120.73872652146352"><ele>305.0</ele><time>2026-03-22T07:27:06.001Z</time></trkpt><trkpt lat="24.23828883540687" lon="120.73885795081227"><ele>312.6666666666667</ele><time>2026-03-22T07:27:07.001Z</time></trkpt><trkpt lat="24.238397796739672" lon="120.73902490625512"><ele>320.3333333333333</ele><time>2026-03-22T07:27:08.001Z</time></trkpt><trkpt lat="24.238474120790528" lon="120.73915482600538"><ele>328.0</ele><time>2026-03-22T07:27:09.001Z</time></trkpt><trkpt lat="24.238550715690646" lon="120.73928596966918"><ele>323.25</ele><time>2026-03-22T07:27:10.001Z</time></trkpt><trkpt lat="24.238628268074585" lon="120.73942005953158"><ele>318.5</ele><time>2026-03-22T07:27:11.001Z</time></trkpt><trkpt lat="24.23870739794609" lon="120.73955771653925"><ele>313.75</ele><time>2026-03-22T07:27:12.001Z</time></trkpt><trkpt lat="24.238786491415624" lon="120.73969541137195"><ele>309.0</ele><time>2026-03-22T07:27:13.001Z</time></trkpt><trkpt lat="24.23886489657825" lon="120.73983353096543"><ele>309.0</ele><time>2026-03-22T07:27:14.001Z</time></trkpt><trkpt lat="24.23894438451851" lon="120.73997492266668"><ele>309.0</ele><time>2026-03-22T07:27:15.001Z</time></trkpt><trkpt lat="24.239024986353353" lon="120.74011786113482"><ele>309.0</ele><time>2026-03-22T07:27:16.001Z</time></trkpt><trkpt lat="24.239106954739967" lon="120.74026363062214"><ele>316.0</ele><time>2026-03-22T07:27:17.001Z</time></trkpt><trkpt lat="24.2391885247674" lon="120.74040912753854"><ele>323.0</ele><time>2026-03-22T07:27:18.001Z</time></trkpt><trkpt lat="24.239270814606847" lon="120.74055543059998"><ele>330.0</ele><time>2026-03-22T07:27:19.001Z</time></trkpt><trkpt lat="24.23935713394759" lon="120.7407077683373"><ele>330.0</ele><time>2026-03-22T07:27:20Z</time></trkpt><trkpt lat="24.239445711147713" lon="120.74086340791209"><ele>330.0</ele><time>2026-03-22T07:27:21Z</time></trkpt><trkpt lat="24.239537634487483" lon="120.74102389036528"><ele>330.0</ele><time>2026-03-22T07:27:22Z</time></trkpt><trkpt lat="24.23962947087411" lon="120.74118328019243"><ele>331.3333333333333</ele><time>2026-03-22T07:27:23Z</time></trkpt><trkpt lat="24.239721557995644" lon="120.74134186329671"><ele>332.66666666666663</ele><time>2026-03-22T07:27:24Z</time></trkpt><trkpt lat="24.23981772804753" lon="120.74150344151698"><ele>334.0</ele><time>2026-03-22T07:27:25Z</time></trkpt><trkpt lat="24.239915419952922" lon="120.74166363502113"><ele>339.66666666666663</ele><time>2026-03-22T07:27:26Z</time></trkpt><trkpt lat="24.240015041415084" lon="120.7418247830392"><ele>345.3333333333333</ele><time>2026-03-22T07:27:27Z</time></trkpt><trkpt lat="24.240115413294397" lon="120.74198360704082"><ele>351.0</ele><time>2026-03-22T07:27:28Z</time></trkpt><trkpt lat="24.240216426553225" lon="120.74213854784054"><ele>353.0</ele><time>2026-03-22T07:27:29Z</time></trkpt><trkpt lat="24.24031857475355" lon="120.74229108295403"><ele>355.0</ele><time>2026-03-22T07:27:30Z</time></trkpt><trkpt lat="24.240421428505297" lon="120.74244033472792"><ele>357.0</ele><time>2026-03-22T07:27:31Z</time></trkpt><trkpt lat="24.240525565059613" lon="120.74258938574211"><ele>359.3333333333333</ele><time>2026-03-22T07:27:32Z</time></trkpt><trkpt lat="24.240626776929908" lon="120.74273136655735"><ele>361.66666666666663</ele><time>2026-03-22T07:27:33Z</time></trkpt><trkpt lat="24.240733282236956" lon="120.74287669189133"><ele>364.0</ele><time>2026-03-22T07:27:34.026Z</time></trkpt><trkpt lat="24.24764505214826" lon="120.74842988057917"><ele>341.0</ele><time>2026-03-22T07:28:23.001Z</time></trkpt><trkpt lat="24.24780078492432" lon="120.74853543903107"><ele>318.0</ele><time>2026-03-22T07:28:24.001Z</time></trkpt><trkpt lat="24.24794933001376" lon="120.74864247591336"><ele>295.0</ele><time>2026-03-22T07:28:25.001Z</time></trkpt><trkpt lat="24.24809159125658" lon="120.7487483350012"><ele>303.0</ele><time>2026-03-22T07:28:26.001Z</time></trkpt><trkpt lat="24.248238013327498" lon="120.74888417605585"><ele>311.0</ele><time>2026-03-22T07:28:27.001Z</time></trkpt><trkpt lat="24.248385727158762" lon="120.74900339454109"><ele>319.0</ele><time>2026-03-22T07:28:28.001Z</time></trkpt><trkpt lat="24.24852613354835" lon="120.74912344461637"><ele>319.0</ele><time>2026-03-22T07:28:29.001Z</time></trkpt><trkpt lat="24.248665225032042" lon="120.74924480957442"><ele>319.0</ele><time>2026-03-22T07:28:30.001Z</time></trkpt><trkpt lat="24.248801376712482" lon="120.74936627334199"><ele>319.0</ele><time>2026-03-22T07:28:31.001Z</time></trkpt><trkpt lat="24.248933670447276" lon="120.74948803596635"><ele>336.0</ele><time>2026-03-22T07:28:32.001Z</time></trkpt><trkpt lat="24.2490633611866" lon="120.74961075114949"><ele>353.0</ele><time>2026-03-22T07:28:33.001Z</time></trkpt><trkpt lat="24.2491931129139" lon="120.74973638721889"><ele>370.0</ele><time>2026-03-22T07:28:34.001Z</time></trkpt><trkpt lat="24.249320900701395" lon="120.74986279782513"><ele>370.0</ele><time>2026-03-22T07:28:35.001Z</time></trkpt><trkpt lat="24.249451225772123" lon="120.74999282122536"><ele>370.0</ele><time>2026-03-22T07:28:36.001Z</time></trkpt><trkpt lat="24.249594514170493" lon="120.7501108595471"><ele>370.0</ele><time>2026-03-22T07:28:37.001Z</time></trkpt><trkpt lat="24.24971429724278" lon="120.75025770337386"><ele>376.0</ele><time>2026-03-22T07:28:38.001Z</time></trkpt><trkpt lat="24.24984639487755" lon="120.75039064862689"><ele>382.0</ele><time>2026-03-22T07:28:39.001Z</time></trkpt><trkpt lat="24.249978655152074" lon="120.75052620462398"><ele>388.0</ele><time>2026-03-22T07:28:40.001Z</time></trkpt><trkpt lat="24.250121820570634" lon="120.75064848711763"><ele>388.0</ele><time>2026-03-22T07:28:41.001Z</time></trkpt><trkpt lat="24.250249986466432" lon="120.75078950205716"><ele>388.0</ele><time>2026-03-22T07:28:42.001Z</time></trkpt><trkpt lat="24.25038061251651" lon="120.75093687873044"><ele>388.0</ele><time>2026-03-22T07:28:43.001Z</time></trkpt><trkpt lat="24.250513269118052" lon="120.75108922046819"><ele>374.6666666666667</ele><time>2026-03-22T07:28:44.001Z</time></trkpt><trkpt lat="24.250644804455185" lon="120.75124349399424"><ele>361.33333333333337</ele><time>2026-03-22T07:28:45.001Z</time></trkpt><trkpt lat="24.250775568936422" lon="120.7513978421434"><ele>348.0</ele><time>2026-03-22T07:28:46.001Z</time></trkpt><trkpt lat="24.25090651097707" lon="120.7515546934968"><ele>348.0</ele><time>2026-03-22T07:28:47.001Z</time></trkpt><trkpt lat="24.25103556229518" lon="120.75171114356914"><ele>348.0</ele><time>2026-03-22T07:28:48.001Z</time></trkpt><trkpt lat="24.25116437981229" lon="120.75187231665788"><ele>348.0</ele><time>2026-03-22T07:28:49.001Z</time></trkpt><trkpt lat="24.25129467858434" lon="120.75203523990609"><ele>348.6666666666667</ele><time>2026-03-22T07:28:50.001Z</time></trkpt><trkpt lat="24.25142959145946" lon="120.75220204371453"><ele>349.33333333333337</ele><time>2026-03-22T07:28:51.001Z</time></trkpt><trkpt lat="24.251563725240235" lon="120.7523688729784"><ele>350.0</ele><time>2026-03-22T07:28:52.001Z</time></trkpt><trkpt lat="24.25169846265032" lon="120.75253617350388"><ele>342.33333333333337</ele><time>2026-03-22T07:28:53.001Z</time></trkpt><trkpt lat="24.251713271123133" lon="120.7526078155936"><ele>334.6666666666667</ele><time>2026-03-22T07:28:54.001Z</time></trkpt><trkpt lat="24.251850133226945" lon="120.7527768216792"><ele>327.0</ele><time>2026-03-22T07:28:55.001Z</time></trkpt><trkpt lat="24.251981283525318" lon="120.75291918287499"><ele>327.0</ele><time>2026-03-22T07:28:56.001Z</time></trkpt><trkpt lat="24.252115578411242" lon="120.75301540559576"><ele>327.0</ele><time>2026-03-22T07:28:57.001Z</time></trkpt><trkpt lat="24.25224804327929" lon="120.75317271088824"><ele>327.0</ele><time>2026-03-22T07:28:58.001Z</time></trkpt><trkpt lat="24.252383771036733" lon="120.75332870594694"><ele>322.6666666666667</ele><time>2026-03-22T07:28:59.001Z</time></trkpt><trkpt lat="24.25252181773277" lon="120.75348712874685"><ele>318.33333333333337</ele><time>2026-03-22T07:29:00.001Z</time></trkpt><trkpt lat="24.252659821145535" lon="120.75364252219802"><ele>314.0</ele><time>2026-03-22T07:29:01.001Z</time></trkpt><trkpt lat="24.252797452766767" lon="120.7537929665669"><ele>314.0</ele><time>2026-03-22T07:29:02.001Z</time></trkpt><trkpt lat="24.25293847434285" lon="120.75394544937764"><ele>314.0</ele><time>2026-03-22T07:29:03.001Z</time></trkpt><trkpt lat="24.253080925057237" lon="120.75409341146981"><ele>314.0</ele><time>2026-03-22T07:29:04.001Z</time></trkpt><trkpt lat="24.253224600465067" lon="120.75423852252912"><ele>330.0</ele><time>2026-03-22T07:29:05.001Z</time></trkpt><trkpt lat="24.253370729369024" lon="120.7543803343778"><ele>346.0</ele><time>2026-03-22T07:29:06.001Z</time></trkpt><trkpt lat="24.25351879201521" lon="120.75451874204063"><ele>362.0</ele><time>2026-03-22T07:29:07.001Z</time></trkpt><trkpt lat="24.25366879906831" lon="120.75465346182496"><ele>362.0</ele><time>2026-03-22T07:29:08.001Z</time></trkpt><trkpt lat="24.253821373589673" lon="120.75478397785594"><ele>362.0</ele><time>2026-03-22T07:29:09.001Z</time></trkpt><trkpt lat="24.253977357670976" lon="120.7549104896819"><ele>362.0</ele><time>2026-03-22T07:29:10.001Z</time></trkpt><trkpt lat="24.25413451969703" lon="120.75503279778478"><ele>373.33333333333337</ele><time>2026-03-22T07:29:11.001Z</time></trkpt><trkpt lat="24.254292196090525" lon="120.7551524021439"><ele>384.6666666666667</ele><time>2026-03-22T07:29:12.001Z</time></trkpt><trkpt lat="24.25445153209852" lon="120.75526803903773"><ele>396.0</ele><time>2026-03-22T07:29:13.001Z</time></trkpt><trkpt lat="24.254671692106253" lon="120.75544835269103"><ele>400.33333333333337</ele><time>2026-03-22T07:29:14.001Z</time></trkpt><trkpt lat="24.254842977041772" lon="120.75555968688315"><ele>404.6666666666667</ele><time>2026-03-22T07:29:15Z</time></trkpt><trkpt lat="24.25500480544627" lon="120.75568531941354"><ele>409.0</ele><time>2026-03-22T07:29:16Z</time></trkpt><trkpt lat="24.255170112250582" lon="120.75580332277148"><ele>409.0</ele><time>2026-03-22T07:29:17Z</time></trkpt><trkpt lat="24.255339147171657" lon="120.75592028198365"><ele>409.0</ele><time>2026-03-22T07:29:18Z</time></trkpt><trkpt lat="24.25550630293321" lon="120.75603594096233"><ele>409.0</ele><time>2026-03-22T07:29:19Z</time></trkpt><trkpt lat="24.255685123641616" lon="120.75614538552409"><ele>396.6666666666667</ele><time>2026-03-22T07:29:20Z</time></trkpt><trkpt lat="24.25585980173798" lon="120.75624654075676"><ele>384.33333333333337</ele><time>2026-03-22T07:29:21Z</time></trkpt><trkpt lat="24.256033131806603" lon="120.7563471134453"><ele>372.0</ele><time>2026-03-22T07:29:22Z</time></trkpt><trkpt lat="24.2562230534872" lon="120.75644252415877"><ele>372.0</ele><time>2026-03-22T07:29:23Z</time></trkpt><trkpt lat="24.25640454488762" lon="120.75652782915381"><ele>372.0</ele><time>2026-03-22T07:29:24Z</time></trkpt><trkpt lat="24.256584859154874" lon="120.75661258088154"><ele>372.0</ele><time>2026-03-22T07:29:25Z</time></trkpt><trkpt lat="24.256781769848036" lon="120.7566945529647"><ele>376.0</ele><time>2026-03-22T07:29:26Z</time></trkpt><trkpt lat="24.256966656867448" lon="120.75676461297185"><ele>380.0</ele><time>2026-03-22T07:29:27Z</time></trkpt><trkpt lat="24.25715098870835" lon="120.75683444445657"><ele>384.0</ele><time>2026-03-22T07:29:28Z</time></trkpt><trkpt lat="24.257357635297875" lon="120.75690335003658"><ele>388.66666666666663</ele><time>2026-03-22T07:29:29Z</time></trkpt><trkpt lat="24.25754883615578" lon="120.7569532186229"><ele>393.3333333333333</ele><time>2026-03-22T07:29:30Z</time></trkpt><trkpt lat="24.257737522881303" lon="120.75700243147206"><ele>398.0</ele><time>2026-03-22T07:29:31Z</time></trkpt><trkpt lat="24.257961194242455" lon="120.75704166018076"><ele>396.0</ele><time>2026-03-22T07:29:32Z</time></trkpt><trkpt lat="24.258154228698995" lon="120.75706073547315"><ele>394.0</ele><time>2026-03-22T07:29:33Z</time></trkpt><trkpt lat="24.2583464139731" lon="120.75707972684546"><ele>392.0</ele><time>2026-03-22T07:29:34Z</time></trkpt><trkpt lat="24.258567270019537" lon="120.7570681067126"><ele>392.0</ele><time>2026-03-22T07:29:35Z</time></trkpt><trkpt lat="24.258761070328536" lon="120.75705744789036"><ele>392.0</ele><time>2026-03-22T07:29:36Z</time></trkpt><trkpt lat="24.258961799617882" lon="120.75703477156766"><ele>392.0</ele><time>2026-03-22T07:29:37Z</time></trkpt><trkpt lat="24.259150830801694" lon="120.75700749020947"><ele>377.66666666666663</ele><time>2026-03-22T07:29:38Z</time></trkpt><trkpt lat="24.259342822515794" lon="120.75697928802222"><ele>363.3333333333333</ele><time>2026-03-22T07:29:39Z</time></trkpt><trkpt lat="24.25953586213051" lon="120.75693435028867"><ele>349.0</ele><time>2026-03-22T07:29:40Z</time></trkpt><trkpt lat="24.25973627237307" lon="120.75693139510743"><ele>354.3333333333333</ele><time>2026-03-22T07:29:41Z</time></trkpt><trkpt lat="24.25993483149537" lon="120.75692198367949"><ele>359.6666666666667</ele><time>2026-03-22T07:29:42Z</time></trkpt><trkpt lat="24.26013828412961" lon="120.75690828086998"><ele>365.0</ele><time>2026-03-22T07:29:43.007Z</time></trkpt><trkpt lat="24.262080787728436" lon="120.7562718276182"><ele>403.0</ele><time>2026-03-22T07:29:46.102Z</time></trkpt><trkpt lat="24.262919412865944" lon="120.75590812790588"><ele>406.0</ele><time>2026-03-22T07:29:47.102Z</time></trkpt><trkpt lat="24.2637451344205" lon="120.75550301657846"><ele>411.0</ele><time>2026-03-22T07:29:48.104Z</time></trkpt><trkpt lat="24.264553429343763" lon="120.75506455329206"><ele>394.0</ele><time>2026-03-22T07:29:49.104Z</time></trkpt><trkpt lat="24.265320328690883" lon="120.75455106503163"><ele>333.0</ele><time>2026-03-22T07:29:50.102Z</time></trkpt><trkpt lat="24.265986320632543" lon="120.75388706109472"><ele>293.0</ele><time>2026-03-22T07:29:51.102Z</time></trkpt><trkpt lat="24.26660063921848" lon="120.75316278870513"><ele>276.0</ele><time>2026-03-22T07:29:52.104Z</time></trkpt><trkpt lat="24.26683186256178" lon="120.75208897360561"><ele>276.0</ele><time>2026-03-22T07:30:24Z</time></trkpt><trkpt lat="24.267274302651366" lon="120.75212471113257"><ele>276.0</ele><time>2026-03-22T07:30:25Z</time></trkpt><trkpt lat="24.26740085455567" lon="120.75192085541764"><ele>266.5</ele><time>2026-03-22T07:30:26Z</time></trkpt><trkpt lat="24.26752068196333" lon="120.7517065627401"><ele>257.0</ele><time>2026-03-22T07:30:27Z</time></trkpt><trkpt lat="24.267649991600344" lon="120.75149234865374"><ele>257.0</ele><time>2026-03-22T07:30:28Z</time></trkpt><trkpt lat="24.26777362398125" lon="120.75126984110952"><ele>257.0</ele><time>2026-03-22T07:30:29Z</time></trkpt><trkpt lat="24.267894712018936" lon="120.75104318472023"><ele>254.0</ele><time>2026-03-22T07:30:30Z</time></trkpt><trkpt lat="24.268015984134987" lon="120.75081565010093"><ele>251.0</ele><time>2026-03-22T07:30:31Z</time></trkpt><trkpt lat="24.268133102055774" lon="120.75058872568674"><ele>249.0</ele><time>2026-03-22T07:30:32Z</time></trkpt><trkpt lat="24.268249730258137" lon="120.75036222422843"><ele>247.0</ele><time>2026-03-22T07:30:33Z</time></trkpt><trkpt lat="24.26836462035299" lon="120.75013285536487"><ele>246.0</ele><time>2026-03-22T07:30:34Z</time></trkpt><trkpt lat="24.268476188131963" lon="120.74990048322246"><ele>245.0</ele><time>2026-03-22T07:30:35Z</time></trkpt><trkpt lat="24.268587326886887" lon="120.74966535863753"><ele>245.0</ele><time>2026-03-22T07:30:36Z</time></trkpt><trkpt lat="24.26869786529821" lon="120.74942842150308"><ele>245.0</ele><time>2026-03-22T07:30:37Z</time></trkpt><trkpt lat="24.26880512731758" lon="120.74918944109234"><ele>245.5</ele><time>2026-03-22T07:30:38Z</time></trkpt><trkpt lat="24.26891009642593" lon="120.74894889080727"><ele>246.0</ele><time>2026-03-22T07:30:39Z</time></trkpt><trkpt lat="24.269014310307323" lon="120.74870606945534"><ele>245.5</ele><time>2026-03-22T07:30:40Z</time></trkpt><trkpt lat="24.269120480788512" lon="120.74846001130436"><ele>245.0</ele><time>2026-03-22T07:30:41Z</time></trkpt><trkpt lat="24.269226662789983" lon="120.74821148510235"><ele>245.0</ele><time>2026-03-22T07:30:42Z</time></trkpt><trkpt lat="24.269330197764795" lon="120.7479606805311"><ele>245.0</ele><time>2026-03-22T07:30:43Z</time></trkpt><trkpt lat="24.269429539637493" lon="120.74770958522163"><ele>244.5</ele><time>2026-03-22T07:30:44Z</time></trkpt><trkpt lat="24.269524609665364" lon="120.74745892720749"><ele>244.0</ele><time>2026-03-22T07:30:45Z</time></trkpt><trkpt lat="24.269617397593823" lon="120.74720643570738"><ele>244.0</ele><time>2026-03-22T07:30:46Z</time></trkpt><trkpt lat="24.269705177800315" lon="120.74694925155093"><ele>244.0</ele><time>2026-03-22T07:30:47Z</time></trkpt><trkpt lat="24.269789985785444" lon="120.74668799623937"><ele>244.5</ele><time>2026-03-22T07:30:48Z</time></trkpt><trkpt lat="24.269872079262782" lon="120.74642626330136"><ele>245.0</ele><time>2026-03-22T07:30:49Z</time></trkpt><trkpt lat="24.269953267389127" lon="120.74616455412325"><ele>243.0</ele><time>2026-03-22T07:30:50Z</time></trkpt><trkpt lat="24.27003130461454" lon="120.74590310234555"><ele>241.0</ele><time>2026-03-22T07:30:51Z</time></trkpt><trkpt lat="24.270106540285838" lon="120.74564206414078"><ele>241.0</ele><time>2026-03-22T07:30:52Z</time></trkpt><trkpt lat="24.270179487867843" lon="120.74538049238032"><ele>241.0</ele><time>2026-03-22T07:30:53Z</time></trkpt><trkpt lat="24.270251675164612" lon="120.74511844566169"><ele>240.0</ele><time>2026-03-22T07:30:54Z</time></trkpt><trkpt lat="24.270323633441244" lon="120.74485651714075"><ele>239.0</ele><time>2026-03-22T07:30:55Z</time></trkpt><trkpt lat="24.270393951785472" lon="120.74459544556457"><ele>238.5</ele><time>2026-03-22T07:30:56Z</time></trkpt><trkpt lat="24.270463840389574" lon="120.74433361302334"><ele>238.0</ele><time>2026-03-22T07:30:57Z</time></trkpt><trkpt lat="24.27053450052479" lon="120.74406935254902"><ele>238.0</ele><time>2026-03-22T07:30:58Z</time></trkpt><trkpt lat="24.270605090524537" lon="120.74380184315798"><ele>238.0</ele><time>2026-03-22T07:30:59Z</time></trkpt><trkpt lat="24.27067566606004" lon="120.74353152572402"><ele>238.0</ele><time>2026-03-22T07:31:00Z</time></trkpt><trkpt lat="24.270745700048803" lon="120.74326016478345"><ele>238.0</ele><time>2026-03-22T07:31:01Z</time></trkpt><trkpt lat="24.270815255687783" lon="120.74298890779178"><ele>238.0</ele><time>2026-03-22T07:31:02Z</time></trkpt><trkpt lat="24.270886690363664" lon="120.74271798613263"><ele>238.0</ele><time>2026-03-22T07:31:03Z</time></trkpt><trkpt lat="24.270958730474785" lon="120.74244747261109"><ele>237.5</ele><time>2026-03-22T07:31:04Z</time></trkpt><trkpt lat="24.271030601856936" lon="120.74217697601549"><ele>237.0</ele><time>2026-03-22T07:31:05Z</time></trkpt><trkpt lat="24.271104011730987" lon="120.74190675340122"><ele>237.0</ele><time>2026-03-22T07:31:06Z</time></trkpt><trkpt lat="24.271178162050884" lon="120.74163619127766"><ele>237.0</ele><time>2026-03-22T07:31:07Z</time></trkpt><trkpt lat="24.271252671876734" lon="120.74136618785049"><ele>237.0</ele><time>2026-03-22T07:31:08Z</time></trkpt><trkpt lat="24.27132800726086" lon="120.74109681200284"><ele>237.0</ele><time>2026-03-22T07:31:09Z</time></trkpt><trkpt lat="24.271403862816868" lon="120.74082712759089"><ele>236.0</ele><time>2026-03-22T07:31:10Z</time></trkpt><trkpt lat="24.271480327143347" lon="120.74055855319519"><ele>235.0</ele><time>2026-03-22T07:31:11Z</time></trkpt><trkpt lat="24.271559306150255" lon="120.74029078252319"><ele>234.0</ele><time>2026-03-22T07:31:12Z</time></trkpt><trkpt lat="24.271640361762724" lon="120.74002312880286"><ele>233.0</ele><time>2026-03-22T07:31:13Z</time></trkpt><trkpt lat="24.27172241153711" lon="120.73975627829653"><ele>233.0</ele><time>2026-03-22T07:31:14Z</time></trkpt><trkpt lat="24.271804290997533" lon="120.73949114821922"><ele>233.0</ele><time>2026-03-22T07:31:15Z</time></trkpt><trkpt lat="24.271889807659477" lon="120.73922744578577"><ele>234.5</ele><time>2026-03-22T07:31:16Z</time></trkpt><trkpt lat="24.271975454247606" lon="120.73896397950821"><ele>236.0</ele><time>2026-03-22T07:31:17Z</time></trkpt><trkpt lat="24.27206385273866" lon="120.73870041881094"><ele>234.0</ele><time>2026-03-22T07:31:18Z</time></trkpt><trkpt lat="24.27215402526935" lon="120.73843985766916"><ele>232.0</ele><time>2026-03-22T07:31:19Z</time></trkpt><trkpt lat="24.272245149219412" lon="120.73818121638988"><ele>232.5</ele><time>2026-03-22T07:31:20Z</time></trkpt><trkpt lat="24.272339532245482" lon="120.7379252074896"><ele>233.0</ele><time>2026-03-22T07:31:21Z</time></trkpt><trkpt lat="24.272433641518447" lon="120.73766983019016"><ele>233.0</ele><time>2026-03-22T07:31:22Z</time></trkpt><trkpt lat="24.272528565799266" lon="120.73741619336407"><ele>233.0</ele><time>2026-03-22T07:31:23Z</time></trkpt><trkpt lat="24.272625316391885" lon="120.7371640624946"><ele>233.0</ele><time>2026-03-22T07:31:24Z</time></trkpt><trkpt lat="24.27272187689502" lon="120.73691334186556"><ele>233.0</ele><time>2026-03-22T07:31:25Z</time></trkpt><trkpt lat="24.2728195147646" lon="120.73666846297111"><ele>233.5</ele><time>2026-03-22T07:31:26Z</time></trkpt><trkpt lat="24.27291701874203" lon="120.73642513486524"><ele>234.0</ele><time>2026-03-22T07:31:27Z</time></trkpt><trkpt lat="24.2730171407168" lon="120.73618261344377"><ele>233.5</ele><time>2026-03-22T07:31:28Z</time></trkpt><trkpt lat="24.27311738442823" lon="120.73594078222702"><ele>233.0</ele><time>2026-03-22T07:31:29Z</time></trkpt><trkpt lat="24.27321983275596" lon="120.73570029861008"><ele>233.0</ele><time>2026-03-22T07:31:30Z</time></trkpt><trkpt lat="24.273324556138775" lon="120.73546153570595"><ele>233.0</ele><time>2026-03-22T07:31:31Z</time></trkpt><trkpt lat="24.27342993224807" lon="120.73522197085816"><ele>233.0</ele><time>2026-03-22T07:31:32Z</time></trkpt><trkpt lat="24.27353399601626" lon="120.73498203385283"><ele>233.0</ele><time>2026-03-22T07:31:33Z</time></trkpt><trkpt lat="24.273638795633573" lon="120.73474237684741"><ele>233.0</ele><time>2026-03-22T07:31:34Z</time></trkpt><trkpt lat="24.27374558392436" lon="120.7345034180822"><ele>233.0</ele><time>2026-03-22T07:31:35Z</time></trkpt><trkpt lat="24.27385540479615" lon="120.7342620416665"><ele>230.5</ele><time>2026-03-22T07:31:36Z</time></trkpt><trkpt lat="24.273966992102373" lon="120.7340189539252"><ele>228.0</ele><time>2026-03-22T07:31:37Z</time></trkpt><trkpt lat="24.274079944250555" lon="120.73377263151468"><ele>226.5</ele><time>2026-03-22T07:31:38Z</time></trkpt><trkpt lat="24.274195579837517" lon="120.73352428883916"><ele>225.0</ele><time>2026-03-22T07:31:39Z</time></trkpt><trkpt lat="24.274314000278174" lon="120.73327350841038"><ele>225.0</ele><time>2026-03-22T07:31:40Z</time></trkpt><trkpt lat="24.27443304197554" lon="120.7330196953268"><ele>225.0</ele><time>2026-03-22T07:31:41Z</time></trkpt><trkpt lat="24.274552702076225" lon="120.73276294125216"><ele>224.5</ele><time>2026-03-22T07:31:42Z</time></trkpt><trkpt lat="24.274674735005718" lon="120.7325053190834"><ele>224.0</ele><time>2026-03-22T07:31:43Z</time></trkpt><trkpt lat="24.27479600198898" lon="120.73224717930026"><ele>223.5</ele><time>2026-03-22T07:31:44Z</time></trkpt><trkpt lat="24.27491787681314" lon="120.73199403892838"><ele>223.0</ele><time>2026-03-22T07:31:45Z</time></trkpt><trkpt lat="24.275039300213084" lon="120.73174161385124"><ele>223.0</ele><time>2026-03-22T07:31:46Z</time></trkpt><trkpt lat="24.27515853209951" lon="120.73149083562859"><ele>223.0</ele><time>2026-03-22T07:31:47Z</time></trkpt><trkpt lat="24.275275905632263" lon="120.73123834757064"><ele>222.5</ele><time>2026-03-22T07:31:48Z</time></trkpt><trkpt lat="24.27539225210524" lon="120.73098573979404"><ele>222.0</ele><time>2026-03-22T07:31:49Z</time></trkpt><trkpt lat="24.275505587918577" lon="120.7307347370781"><ele>221.5</ele><time>2026-03-22T07:31:50Z</time></trkpt><trkpt lat="24.27561696351949" lon="120.73048917554544"><ele>221.0</ele><time>2026-03-22T07:31:51Z</time></trkpt><trkpt lat="24.275725856245007" lon="120.7302450548948"><ele>220.0</ele><time>2026-03-22T07:31:52Z</time></trkpt><trkpt lat="24.275833252585507" lon="120.72999747952038"><ele>219.0</ele><time>2026-03-22T07:31:53Z</time></trkpt><trkpt lat="24.27593994758861" lon="120.72974927776498"><ele>219.0</ele><time>2026-03-22T07:31:54Z</time></trkpt><trkpt lat="24.276044164292273" lon="120.72949863933096"><ele>219.0</ele><time>2026-03-22T07:31:55Z</time></trkpt><trkpt lat="24.276147415463473" lon="120.72924403002663"><ele>219.5</ele><time>2026-03-22T07:31:56Z</time></trkpt><trkpt lat="24.276250084911034" lon="120.72898622363027"><ele>220.0</ele><time>2026-03-22T07:31:57Z</time></trkpt><trkpt lat="24.27635083235497" lon="120.72872806920954"><ele>219.0</ele><time>2026-03-22T07:31:58Z</time></trkpt><trkpt lat="24.27644729756942" lon="120.72847201385481"><ele>218.0</ele><time>2026-03-22T07:31:59Z</time></trkpt><trkpt lat="24.276540422461892" lon="120.72821692868044"><ele>218.0</ele><time>2026-03-22T07:32:00Z</time></trkpt><trkpt lat="24.27662942170258" lon="120.72796326166969"><ele>218.0</ele><time>2026-03-22T07:32:01Z</time></trkpt><trkpt lat="24.27671495183358" lon="120.72770909895051"><ele>218.5</ele><time>2026-03-22T07:32:02Z</time></trkpt><trkpt lat="24.276798420819606" lon="120.72745873366996"><ele>219.0</ele><time>2026-03-22T07:32:03Z</time></trkpt><trkpt lat="24.276877116434118" lon="120.72721549197647"><ele>219.0</ele><time>2026-03-22T07:32:04Z</time></trkpt><trkpt lat="24.276952509531416" lon="120.72697355303735"><ele>219.0</ele><time>2026-03-22T07:32:05Z</time></trkpt><trkpt lat="24.277025885865402" lon="120.72673219672951"><ele>218.5</ele><time>2026-03-22T07:32:06Z</time></trkpt><trkpt lat="24.27709598858713" lon="120.72649090610378"><ele>218.0</ele><time>2026-03-22T07:32:07Z</time></trkpt><trkpt lat="24.277164230077318" lon="120.72624990372469"><ele>217.5</ele><time>2026-03-22T07:32:08Z</time></trkpt><trkpt lat="24.27722875263411" lon="120.72600670541327"><ele>217.0</ele><time>2026-03-22T07:32:09Z</time></trkpt><trkpt lat="24.27729269110685" lon="120.72576054140008"><ele>217.0</ele><time>2026-03-22T07:32:10Z</time></trkpt><trkpt lat="24.277354550953813" lon="120.72551545230851"><ele>217.0</ele><time>2026-03-22T07:32:11Z</time></trkpt><trkpt lat="24.277414571755063" lon="120.72527016068365"><ele>216.5</ele><time>2026-03-22T07:32:12Z</time></trkpt><trkpt lat="24.27747204424885" lon="120.72502408815575"><ele>216.0</ele><time>2026-03-22T07:32:13Z</time></trkpt><trkpt lat="24.277526177589248" lon="120.7247783873832"><ele>216.0</ele><time>2026-03-22T07:32:14Z</time></trkpt><trkpt lat="24.277579488678693" lon="120.72453399141442"><ele>216.0</ele><time>2026-03-22T07:32:15Z</time></trkpt><trkpt lat="24.277630910926046" lon="120.72428956801657"><ele>217.0</ele><time>2026-03-22T07:32:16Z</time></trkpt><trkpt lat="24.277679897125584" lon="120.72404483675201"><ele>218.0</ele><time>2026-03-22T07:32:17Z</time></trkpt><trkpt lat="24.277725389394757" lon="120.72380125286281"><ele>218.0</ele><time>2026-03-22T07:32:18Z</time></trkpt><trkpt lat="24.27776880406219" lon="120.72355728814122"><ele>218.0</ele><time>2026-03-22T07:32:19Z</time></trkpt><trkpt lat="24.277809243297806" lon="120.72331555663582"><ele>218.0</ele><time>2026-03-22T07:32:20Z</time></trkpt><trkpt lat="24.27784775087424" lon="120.72307380572138"><ele>218.0</ele><time>2026-03-22T07:32:21Z</time></trkpt><trkpt lat="24.277883631134387" lon="120.72283256044172"><ele>218.0</ele><time>2026-03-22T07:32:22Z</time></trkpt><trkpt lat="24.277917759074008" lon="120.72259087971881"><ele>217.66666666666669</ele><time>2026-03-22T07:32:23Z</time></trkpt><trkpt lat="24.27795073608147" lon="120.72235060384925"><ele>217.33333333333331</ele><time>2026-03-22T07:32:24Z</time></trkpt><trkpt lat="24.277981244582104" lon="120.72210983384464"><ele>217.0</ele><time>2026-03-22T07:32:25Z</time></trkpt><trkpt lat="24.278009067415923" lon="120.72186952631326"><ele>216.0</ele><time>2026-03-22T07:32:26Z</time></trkpt><trkpt lat="24.278034956951405" lon="120.7216292952927"><ele>215.0</ele><time>2026-03-22T07:32:27Z</time></trkpt><trkpt lat="24.27805926447812" lon="120.72138961941843"><ele>214.0</ele><time>2026-03-22T07:32:28Z</time></trkpt><trkpt lat="24.278081092475336" lon="120.72114953821024"><ele>213.0</ele><time>2026-03-22T07:32:29Z</time></trkpt><trkpt lat="24.27810163083188" lon="120.72091015187361"><ele>212.0</ele><time>2026-03-22T07:32:30Z</time></trkpt><trkpt lat="24.27811931993605" lon="120.72067105268945"><ele>211.0</ele><time>2026-03-22T07:32:31Z</time></trkpt><trkpt lat="24.2781344169" lon="120.72043231015189"><ele>210.66666666666666</ele><time>2026-03-22T07:32:32Z</time></trkpt><trkpt lat="24.27814885071473" lon="120.7201936113713"><ele>210.33333333333331</ele><time>2026-03-22T07:32:33Z</time></trkpt><trkpt lat="24.27816135215911" lon="120.7199558737133"><ele>210.0</ele><time>2026-03-22T07:32:34Z</time></trkpt><trkpt lat="24.278171500444284" lon="120.71971819824614"><ele>210.0</ele><time>2026-03-22T07:32:35Z</time></trkpt><trkpt lat="24.278179414856332" lon="120.71948075143787"><ele>210.0</ele><time>2026-03-22T07:32:36Z</time></trkpt><trkpt lat="24.27818549242997" lon="120.71924356643372"><ele>210.0</ele><time>2026-03-22T07:32:37Z</time></trkpt><trkpt lat="24.278189115629164" lon="120.71900666548873"><ele>209.66666666666669</ele><time>2026-03-22T07:32:38Z</time></trkpt><trkpt lat="24.278190017132268" lon="120.71876986815893"><ele>209.33333333333334</ele><time>2026-03-22T07:32:39Z</time></trkpt><trkpt lat="24.278190644052547" lon="120.7185416453195"><ele>209.0</ele><time>2026-03-22T07:32:40Z</time></trkpt><trkpt lat="24.278191198624093" lon="120.71833108648612"><ele>209.66666666666669</ele><time>2026-03-22T07:32:41Z</time></trkpt><trkpt lat="24.278190276779675" lon="120.71813162339585"><ele>210.33333333333331</ele><time>2026-03-22T07:32:42Z</time></trkpt><trkpt lat="24.278187674138806" lon="120.71793857166826"><ele>211.0</ele><time>2026-03-22T07:32:43Z</time></trkpt><trkpt lat="24.27818313689595" lon="120.7177405494469"><ele>210.66666666666666</ele><time>2026-03-22T07:32:44Z</time></trkpt><trkpt lat="24.27817820791175" lon="120.71753956766268"><ele>210.33333333333331</ele><time>2026-03-22T07:32:45Z</time></trkpt><trkpt lat="24.278169383613587" lon="120.71733493431456"><ele>210.0</ele><time>2026-03-22T07:32:46Z</time></trkpt><trkpt lat="24.27815919249937" lon="120.71713302374552"><ele>210.0</ele><time>2026-03-22T07:32:47Z</time></trkpt><trkpt lat="24.278148643432157" lon="120.71694537972144"><ele>210.0</ele><time>2026-03-22T07:32:48Z</time></trkpt><trkpt lat="24.278138507084336" lon="120.7167620477474"><ele>210.0</ele><time>2026-03-22T07:32:49Z</time></trkpt><trkpt lat="24.278127215406197" lon="120.71657729999241"><ele>209.33333333333331</ele><time>2026-03-22T07:32:50Z</time></trkpt><trkpt lat="24.278115389950376" lon="120.7163898726785"><ele>208.66666666666666</ele><time>2026-03-22T07:32:51Z</time></trkpt><trkpt lat="24.278100297423816" lon="120.7161976589041"><ele>208.0</ele><time>2026-03-22T07:32:52Z</time></trkpt><trkpt lat="24.27808401868975" lon="120.71599865654437"><ele>207.33333333333331</ele><time>2026-03-22T07:32:53Z</time></trkpt><trkpt lat="24.27806808105239" lon="120.71579973574792"><ele>206.66666666666669</ele><time>2026-03-22T07:32:54Z</time></trkpt><trkpt lat="24.278050470518075" lon="120.71559896485621"><ele>206.0</ele><time>2026-03-22T07:32:55Z</time></trkpt><trkpt lat="24.278030228147074" lon="120.71539314960019"><ele>206.0</ele><time>2026-03-22T07:32:56Z</time></trkpt><trkpt lat="24.278005559185473" lon="120.71517962747748"><ele>206.0</ele><time>2026-03-22T07:32:57Z</time></trkpt><trkpt lat="24.27797870815985" lon="120.71496099457146"><ele>206.0</ele><time>2026-03-22T07:32:58Z</time></trkpt><trkpt lat="24.27795051487847" lon="120.71473496909852"><ele>206.0</ele><time>2026-03-22T07:32:59Z</time></trkpt><trkpt lat="24.277920570933816" lon="120.714505705288"><ele>206.0</ele><time>2026-03-22T07:33:00Z</time></trkpt><trkpt lat="24.277888765615305" lon="120.71427789044652"><ele>206.0</ele><time>2026-03-22T07:33:01Z</time></trkpt><trkpt lat="24.277855516836123" lon="120.71404778408186"><ele>206.0</ele><time>2026-03-22T07:33:02Z</time></trkpt><trkpt lat="24.277820936282797" lon="120.71381254226435"><ele>206.0</ele><time>2026-03-22T07:33:03Z</time></trkpt><trkpt lat="24.277783474823032" lon="120.71357607296243"><ele>206.0</ele><time>2026-03-22T07:33:04Z</time></trkpt><trkpt lat="24.27774478831519" lon="120.7133406810963"><ele>205.66666666666669</ele><time>2026-03-22T07:33:05Z</time></trkpt><trkpt lat="24.277704259713264" lon="120.71310251385614"><ele>205.33333333333331</ele><time>2026-03-22T07:33:06Z</time></trkpt><trkpt lat="24.277661870593693" lon="120.71286336724688"><ele>205.0</ele><time>2026-03-22T07:33:07Z</time></trkpt><trkpt lat="24.27761734363746" lon="120.71262575201195"><ele>205.0</ele><time>2026-03-22T07:33:08Z</time></trkpt><trkpt lat="24.277570401328244" lon="120.7123900355777"><ele>205.0</ele><time>2026-03-22T07:33:09Z</time></trkpt><trkpt lat="24.277522264478417" lon="120.7121544451543"><ele>205.0</ele><time>2026-03-22T07:33:10Z</time></trkpt><trkpt lat="24.277472232704202" lon="120.71192063445652"><ele>203.33333333333331</ele><time>2026-03-22T07:33:11Z</time></trkpt><trkpt lat="24.277419605955988" lon="120.71168803918042"><ele>201.66666666666669</ele><time>2026-03-22T07:33:12Z</time></trkpt><trkpt lat="24.277365749390444" lon="120.71145628806379"><ele>200.0</ele><time>2026-03-22T07:33:13Z</time></trkpt><trkpt lat="24.277309805615655" lon="120.71122508059952"><ele>199.66666666666669</ele><time>2026-03-22T07:33:14Z</time></trkpt><trkpt lat="24.277252488550005" lon="120.71099576793023"><ele>199.33333333333331</ele><time>2026-03-22T07:33:15Z</time></trkpt><trkpt lat="24.27719477316913" lon="120.71076760097195"><ele>199.0</ele><time>2026-03-22T07:33:16Z</time></trkpt><trkpt lat="24.27713464452208" lon="120.7105400602001"><ele>199.0</ele><time>2026-03-22T07:33:17Z</time></trkpt><trkpt lat="24.277072967930636" lon="120.71031394720322"><ele>199.0</ele><time>2026-03-22T07:33:18Z</time></trkpt><trkpt lat="24.277009535274477" lon="120.71008856677575"><ele>199.0</ele><time>2026-03-22T07:33:19Z</time></trkpt><trkpt lat="24.276945147507135" lon="120.70986471427716"><ele>199.0</ele><time>2026-03-22T07:33:20Z</time></trkpt><trkpt lat="24.27687895703828" lon="120.70964127744035"><ele>199.0</ele><time>2026-03-22T07:33:21Z</time></trkpt><trkpt lat="24.276811601968795" lon="120.7094200200739"><ele>199.0</ele><time>2026-03-22T07:33:22Z</time></trkpt><trkpt lat="24.276743209591405" lon="120.70920063094512"><ele>199.0</ele><time>2026-03-22T07:33:23Z</time></trkpt><trkpt lat="24.27667462512717" lon="120.70898646279194"><ele>199.0</ele><time>2026-03-22T07:33:24Z</time></trkpt><trkpt lat="24.276606123947417" lon="120.70877747692339"><ele>199.0</ele><time>2026-03-22T07:33:25Z</time></trkpt><trkpt lat="24.276536422218523" lon="120.70857308354789"><ele>199.66666666666666</ele><time>2026-03-22T07:33:26Z</time></trkpt><trkpt lat="24.27646713397996" lon="120.70837443281816"><ele>200.33333333333331</ele><time>2026-03-22T07:33:27Z</time></trkpt><trkpt lat="24.27639938748728" lon="120.70818363969711"><ele>201.0</ele><time>2026-03-22T07:33:28Z</time></trkpt><trkpt lat="24.276333589329617" lon="120.70800114985963"><ele>201.0</ele><time>2026-03-22T07:33:29Z</time></trkpt><trkpt lat="24.2762727442717" lon="120.7078315119367"><ele>201.0</ele><time>2026-03-22T07:33:30Z</time></trkpt><trkpt lat="24.276217591951017" lon="120.7076789226762"><ele>201.0</ele><time>2026-03-22T07:33:31Z</time></trkpt><trkpt lat="24.276170532702096" lon="120.70755555099161"><ele>201.0</ele><time>2026-03-22T07:33:32Z</time></trkpt><trkpt lat="24.276133222729" lon="120.70745962382608"><ele>200.4</ele><time>2026-03-22T07:33:33Z</time></trkpt><trkpt lat="24.27609811742745" lon="120.70736791020136"><ele>199.8</ele><time>2026-03-22T07:33:34Z</time></trkpt><trkpt lat="24.276061748380528" lon="120.70727406374493"><ele>199.20000000000002</ele><time>2026-03-22T07:33:35Z</time></trkpt><trkpt lat="24.276024768095937" lon="120.70717760731148"><ele>198.60000000000002</ele><time>2026-03-22T07:33:36Z</time></trkpt><trkpt lat="24.275985635978593" lon="120.70707550335057"><ele>198.0</ele><time>2026-03-22T07:33:37Z</time></trkpt><trkpt lat="24.27594361376356" lon="120.70696691097716"><ele>197.75</ele><time>2026-03-22T07:33:38Z</time></trkpt><trkpt lat="24.275897233625443" lon="120.70685283611792"><ele>197.5</ele><time>2026-03-22T07:33:39Z</time></trkpt><trkpt lat="24.275846517127334" lon="120.70673282999577"><ele>197.25</ele><time>2026-03-22T07:33:40Z</time></trkpt><trkpt lat="24.275790232284706" lon="120.70660493489744"><ele>197.0</ele><time>2026-03-22T07:33:41Z</time></trkpt><trkpt lat="24.27573031382016" lon="120.70646991154993"><ele>197.0</ele><time>2026-03-22T07:33:42Z</time></trkpt><trkpt lat="24.275670670195748" lon="120.70633490374044"><ele>197.0</ele><time>2026-03-22T07:33:43Z</time></trkpt><trkpt lat="24.275610495539404" lon="120.70619750538656"><ele>197.0</ele><time>2026-03-22T07:33:44Z</time></trkpt><trkpt lat="24.275547901194795" lon="120.70605513742072"><ele>197.0</ele><time>2026-03-22T07:33:45Z</time></trkpt><trkpt lat="24.275482315030267" lon="120.70590648860774"><ele>196.33333333333334</ele><time>2026-03-22T07:33:46Z</time></trkpt><trkpt lat="24.27541317319283" lon="120.70575159405129"><ele>195.66666666666669</ele><time>2026-03-22T07:33:47Z</time></trkpt><trkpt lat="24.2753407263362" lon="120.70559224359883"><ele>195.0</ele><time>2026-03-22T07:33:48Z</time></trkpt><trkpt lat="24.275266702021476" lon="120.70543184227235"><ele>195.0</ele><time>2026-03-22T07:33:49Z</time></trkpt><trkpt lat="24.275192852466418" lon="120.70527235326246"><ele>195.0</ele><time>2026-03-22T07:33:50Z</time></trkpt><trkpt lat="24.275119047851852" lon="120.70511095570089"><ele>195.0</ele><time>2026-03-22T07:33:51Z</time></trkpt><trkpt lat="24.27504176392292" lon="120.70494628984399"><ele>195.33333333333331</ele><time>2026-03-22T07:33:52Z</time></trkpt><trkpt lat="24.27496313218209" lon="120.70478254799532"><ele>195.66666666666666</ele><time>2026-03-22T07:33:53Z</time></trkpt><trkpt lat="24.274883507675348" lon="120.7046160214588"><ele>196.0</ele><time>2026-03-22T07:33:54Z</time></trkpt><trkpt lat="24.274801660942867" lon="120.70444587726824"><ele>195.0</ele><time>2026-03-22T07:33:55Z</time></trkpt><trkpt lat="24.27472051506101" lon="120.70427600671559"><ele>194.0</ele><time>2026-03-22T07:33:56Z</time></trkpt><trkpt lat="24.274638951948134" lon="120.70410498993554"><ele>193.0</ele><time>2026-03-22T07:33:57Z</time></trkpt><trkpt lat="24.274555163980708" lon="120.70392817184428"><ele>193.0</ele><time>2026-03-22T07:33:58Z</time></trkpt><trkpt lat="24.274467922524824" lon="120.70374659305435"><ele>193.0</ele><time>2026-03-22T07:33:59Z</time></trkpt><trkpt lat="24.274378549939247" lon="120.70355905330132"><ele>193.0</ele><time>2026-03-22T07:34:00Z</time></trkpt><trkpt lat="24.274286258261885" lon="120.70336499560834"><ele>193.0</ele><time>2026-03-22T07:34:01Z</time></trkpt><trkpt lat="24.27419174954238" lon="120.70316554161474"><ele>193.0</ele><time>2026-03-22T07:34:02Z</time></trkpt><trkpt lat="24.274093002761028" lon="120.70296035348073"><ele>193.0</ele><time>2026-03-22T07:34:03Z</time></trkpt><trkpt lat="24.273991906104165" lon="120.7027485743136"><ele>192.33333333333331</ele><time>2026-03-22T07:34:04Z</time></trkpt><trkpt lat="24.27388916899543" lon="120.70253145602904"><ele>191.66666666666666</ele><time>2026-03-22T07:34:05Z</time></trkpt><trkpt lat="24.273789943998334" lon="120.70231339949392"><ele>191.0</ele><time>2026-03-22T07:34:06Z</time></trkpt><trkpt lat="24.273689519962073" lon="120.70209434473463"><ele>189.5</ele><time>2026-03-22T07:34:07Z</time></trkpt><trkpt lat="24.27358776375842" lon="120.7018713051882"><ele>188.0</ele><time>2026-03-22T07:34:08Z</time></trkpt><trkpt lat="24.27348461655164" lon="120.70164441150582"><ele>188.0</ele><time>2026-03-22T07:34:09Z</time></trkpt><trkpt lat="24.273381330269096" lon="120.70141232831062"><ele>188.0</ele><time>2026-03-22T07:34:10Z</time></trkpt><trkpt lat="24.273278166771835" lon="120.70117670659474"><ele>188.0</ele><time>2026-03-22T07:34:11Z</time></trkpt><trkpt lat="24.27317393523994" lon="120.7009354033702"><ele>188.0</ele><time>2026-03-22T07:34:12Z</time></trkpt><trkpt lat="24.27306958480022" lon="120.70068870555185"><ele>188.5</ele><time>2026-03-22T07:34:13Z</time></trkpt><trkpt lat="24.272965715662437" lon="120.700439436123"><ele>189.0</ele><time>2026-03-22T07:34:14Z</time></trkpt><trkpt lat="24.272860743371645" lon="120.70018894590454"><ele>187.5</ele><time>2026-03-22T07:34:15Z</time></trkpt><trkpt lat="24.272760529401552" lon="120.69993675627886"><ele>186.0</ele><time>2026-03-22T07:34:16Z</time></trkpt><trkpt lat="24.272661544207256" lon="120.69968402608993"><ele>186.0</ele><time>2026-03-22T07:34:17Z</time></trkpt><trkpt lat="24.272564707521383" lon="120.6994294451955"><ele>186.0</ele><time>2026-03-22T07:34:18Z</time></trkpt><trkpt lat="24.272470177786726" lon="120.69917422391956"><ele>186.0</ele><time>2026-03-22T07:34:19Z</time></trkpt><trkpt lat="24.27237589840128" lon="120.69891830137436"><ele>186.0</ele><time>2026-03-22T07:34:20Z</time></trkpt><trkpt lat="24.27228329074089" lon="120.69866104382962"><ele>185.0</ele><time>2026-03-22T07:34:21Z</time></trkpt><trkpt lat="24.272193262270378" lon="120.69840265263167"><ele>184.0</ele><time>2026-03-22T07:34:22Z</time></trkpt><trkpt lat="24.27210554083376" lon="120.69814276649895"><ele>184.0</ele><time>2026-03-22T07:34:23Z</time></trkpt><trkpt lat="24.272019591804813" lon="120.69788401786498"><ele>184.0</ele><time>2026-03-22T07:34:24Z</time></trkpt><trkpt lat="24.271938184293905" lon="120.697627486205"><ele>183.5</ele><time>2026-03-22T07:34:25Z</time></trkpt><trkpt lat="24.27185727103494" lon="120.6973692844563"><ele>183.0</ele><time>2026-03-22T07:34:26Z</time></trkpt><trkpt lat="24.27177914785888" lon="120.69711262952563"><ele>183.0</ele><time>2026-03-22T07:34:27Z</time></trkpt><trkpt lat="24.271704717488834" lon="120.69685889666131"><ele>183.0</ele><time>2026-03-22T07:34:28Z</time></trkpt><trkpt lat="24.271632125041293" lon="120.69661006661629"><ele>183.0</ele><time>2026-03-22T07:34:29Z</time></trkpt><trkpt lat="24.271561845142106" lon="120.69636062547222"><ele>183.0</ele><time>2026-03-22T07:34:30Z</time></trkpt><trkpt lat="24.271490871667954" lon="120.6961090899582"><ele>182.5</ele><time>2026-03-22T07:34:31Z</time></trkpt><trkpt lat="24.271423771808074" lon="120.69585287108724"><ele>182.0</ele><time>2026-03-22T07:34:32Z</time></trkpt><trkpt lat="24.271355210253745" lon="120.69559139722675"><ele>182.0</ele><time>2026-03-22T07:34:33Z</time></trkpt><trkpt lat="24.27128822847952" lon="120.69532532989165"><ele>182.0</ele><time>2026-03-22T07:34:34Z</time></trkpt><trkpt lat="24.27122473770755" lon="120.69505395452983"><ele>181.5</ele><time>2026-03-22T07:34:35Z</time></trkpt><trkpt lat="24.271161865951708" lon="120.69478315233732"><ele>181.0</ele><time>2026-03-22T07:34:36Z</time></trkpt><trkpt lat="24.271100362791646" lon="120.69451685630658"><ele>181.0</ele><time>2026-03-22T07:34:37Z</time></trkpt><trkpt lat="24.27104111439302" lon="120.69425421136626"><ele>181.0</ele><time>2026-03-22T07:34:38Z</time></trkpt><trkpt lat="24.270985364634118" lon="120.69399810656645"><ele>181.0</ele><time>2026-03-22T07:34:39Z</time></trkpt><trkpt lat="24.27093155965753" lon="120.69374003695184"><ele>181.0</ele><time>2026-03-22T07:34:40Z</time></trkpt><trkpt lat="24.270882017033166" lon="120.69347804339252"><ele>182.0</ele><time>2026-03-22T07:34:41Z</time></trkpt><trkpt lat="24.270839936944203" lon="120.69321103456957"><ele>183.0</ele><time>2026-03-22T07:34:42Z</time></trkpt><trkpt lat="24.270798139062904" lon="120.69293805679932"><ele>181.5</ele><time>2026-03-22T07:34:43Z</time></trkpt><trkpt lat="24.270752206480893" lon="120.69266553184129"><ele>180.0</ele><time>2026-03-22T07:34:44Z</time></trkpt><trkpt lat="24.27070588056063" lon="120.69236387293734"><ele>180.0</ele><time>2026-03-22T07:34:45Z</time></trkpt><trkpt lat="24.270666846703715" lon="120.69208333582141"><ele>180.0</ele><time>2026-03-22T07:34:46Z</time></trkpt><trkpt lat="24.27063028825575" lon="120.69179719683369"><ele>177.0</ele><time>2026-03-22T07:34:47Z</time></trkpt><trkpt lat="24.270584232144696" lon="120.69150878566045"><ele>174.0</ele><time>2026-03-22T07:34:48Z</time></trkpt><trkpt lat="24.27053380226748" lon="120.69122138101648"><ele>172.5</ele><time>2026-03-22T07:34:49Z</time></trkpt><trkpt lat="24.270484830283827" lon="120.69093626727218"><ele>171.0</ele><time>2026-03-22T07:34:50Z</time></trkpt><trkpt lat="24.270443852971283" lon="120.69065102984001"><ele>171.0</ele><time>2026-03-22T07:34:51Z</time></trkpt><trkpt lat="24.27040872267538" lon="120.6903659573468"><ele>171.0</ele><time>2026-03-22T07:34:52Z</time></trkpt><trkpt lat="24.270376847880332" lon="120.69008077922726"><ele>173.0</ele><time>2026-03-22T07:34:53Z</time></trkpt><trkpt lat="24.270349453246375" lon="120.68979618094139"><ele>175.0</ele><time>2026-03-22T07:34:54Z</time></trkpt><trkpt lat="24.270321046672798" lon="120.68951230537188"><ele>174.5</ele><time>2026-03-22T07:34:55Z</time></trkpt><trkpt lat="24.270298580550257" lon="120.68923124045196"><ele>174.0</ele><time>2026-03-22T07:34:56Z</time></trkpt><trkpt lat="24.270276288690123" lon="120.68894674368099"><ele>174.0</ele><time>2026-03-22T07:34:57Z</time></trkpt><trkpt lat="24.270256799827365" lon="120.68866413383266"><ele>174.0</ele><time>2026-03-22T07:34:58Z</time></trkpt><trkpt lat="24.27024136027867" lon="120.68838195061186"><ele>173.5</ele><time>2026-03-22T07:34:59Z</time></trkpt><trkpt lat="24.27022021436291" lon="120.68809828091446"><ele>173.0</ele><time>2026-03-22T07:35:00Z</time></trkpt><trkpt lat="24.27019342281613" lon="120.68780705031348"><ele>171.5</ele><time>2026-03-22T07:35:01Z</time></trkpt><trkpt lat="24.270193670566226" lon="120.68751851102662"><ele>170.0</ele><time>2026-03-22T07:35:02Z</time></trkpt><trkpt lat="24.270186783744712" lon="120.68723519475924"><ele>170.0</ele><time>2026-03-22T07:35:03Z</time></trkpt><trkpt lat="24.270181728689135" lon="120.68695121048906"><ele>170.0</ele><time>2026-03-22T07:35:04Z</time></trkpt><trkpt lat="24.270181338397858" lon="120.68666664994286"><ele>169.5</ele><time>2026-03-22T07:35:05Z</time></trkpt><trkpt lat="24.27018002750549" lon="120.68638244553411"><ele>169.0</ele><time>2026-03-22T07:35:06Z</time></trkpt><trkpt lat="24.27018038617072" lon="120.6860939078174"><ele>167.5</ele><time>2026-03-22T07:35:07Z</time></trkpt><trkpt lat="24.27018285881754" lon="120.68580614812136"><ele>166.0</ele><time>2026-03-22T07:35:08Z</time></trkpt><trkpt lat="24.270186921124143" lon="120.68551398516166"><ele>165.5</ele><time>2026-03-22T07:35:09Z</time></trkpt><trkpt lat="24.270193544414745" lon="120.68522039091862"><ele>165.0</ele><time>2026-03-22T07:35:10Z</time></trkpt><trkpt lat="24.27020313184654" lon="120.6849288902646"><ele>165.0</ele><time>2026-03-22T07:35:11Z</time></trkpt><trkpt lat="24.27021581530387" lon="120.68463733070608"><ele>165.0</ele><time>2026-03-22T07:35:12Z</time></trkpt><trkpt lat="24.270230390224143" lon="120.68434369052333"><ele>166.5</ele><time>2026-03-22T07:35:13Z</time></trkpt><trkpt lat="24.270246914234423" lon="120.68405358764218"><ele>168.0</ele><time>2026-03-22T07:35:14Z</time></trkpt><trkpt lat="24.270264698329854" lon="120.68376489453054"><ele>165.5</ele><time>2026-03-22T07:35:15Z</time></trkpt><trkpt lat="24.27028905721102" lon="120.68347716172495"><ele>163.0</ele><time>2026-03-22T07:35:16Z</time></trkpt><trkpt lat="24.270312206760376" lon="120.68319085060143"><ele>163.0</ele><time>2026-03-22T07:35:17Z</time></trkpt><trkpt lat="24.27033752985084" lon="120.68290871223965"><ele>163.0</ele><time>2026-03-22T07:35:18Z</time></trkpt><trkpt lat="24.27036554265397" lon="120.68262556077043"><ele>162.5</ele><time>2026-03-22T07:35:19Z</time></trkpt><trkpt lat="24.27039591128769" lon="120.68234280035335"><ele>162.0</ele><time>2026-03-22T07:35:20Z</time></trkpt><trkpt lat="24.270431369875624" lon="120.68206168318608"><ele>162.0</ele><time>2026-03-22T07:35:21Z</time></trkpt><trkpt lat="24.270470221635268" lon="120.68178650371341"><ele>162.0</ele><time>2026-03-22T07:35:22Z</time></trkpt><trkpt lat="24.270512077456317" lon="120.68152172610144"><ele>162.0</ele><time>2026-03-22T07:35:23Z</time></trkpt><trkpt lat="24.270554800348656" lon="120.68126258040331"><ele>162.0</ele><time>2026-03-22T07:35:24Z</time></trkpt><trkpt lat="24.270601738935135" lon="120.68100770949582"><ele>162.0</ele><time>2026-03-22T07:35:25Z</time></trkpt><trkpt lat="24.270652839555826" lon="120.68075308105873"><ele>162.0</ele><time>2026-03-22T07:35:26Z</time></trkpt><trkpt lat="24.270707951092337" lon="120.68050072013793"><ele>160.0</ele><time>2026-03-22T07:35:27Z</time></trkpt><trkpt lat="24.27076619919059" lon="120.68025021742635"><ele>158.0</ele><time>2026-03-22T07:35:28Z</time></trkpt><trkpt lat="24.27082647584607" lon="120.67999993844998"><ele>158.0</ele><time>2026-03-22T07:35:29Z</time></trkpt><trkpt lat="24.270892372246166" lon="120.67974871241012"><ele>158.0</ele><time>2026-03-22T07:35:30Z</time></trkpt><trkpt lat="24.270963232895284" lon="120.67950014962798"><ele>159.0</ele><time>2026-03-22T07:35:31Z</time></trkpt><trkpt lat="24.271037152236378" lon="120.67925359005889"><ele>160.0</ele><time>2026-03-22T07:35:32Z</time></trkpt><trkpt lat="24.271116234932126" lon="120.67900773590304"><ele>160.0</ele><time>2026-03-22T07:35:33Z</time></trkpt><trkpt lat="24.271199799262245" lon="120.67876133565233"><ele>160.0</ele><time>2026-03-22T07:35:34Z</time></trkpt><trkpt lat="24.271286970392016" lon="120.67852030469193"><ele>160.5</ele><time>2026-03-22T07:35:35Z</time></trkpt><trkpt lat="24.271377256006247" lon="120.6782806627752"><ele>161.0</ele><time>2026-03-22T07:35:36Z</time></trkpt><trkpt lat="24.27146867935999" lon="120.67804242024057"><ele>161.0</ele><time>2026-03-22T07:35:37Z</time></trkpt><trkpt lat="24.271561954515672" lon="120.67780957862489"><ele>161.0</ele><time>2026-03-22T07:35:38Z</time></trkpt><trkpt lat="24.271659149302646" lon="120.67757981240416"><ele>161.5</ele><time>2026-03-22T07:35:39Z</time></trkpt><trkpt lat="24.271761988522414" lon="120.67734887083755"><ele>162.0</ele><time>2026-03-22T07:35:40Z</time></trkpt><trkpt lat="24.271870702222586" lon="120.67711815195894"><ele>159.5</ele><time>2026-03-22T07:35:41Z</time></trkpt><trkpt lat="24.27198586846979" lon="120.67688633516718"><ele>157.0</ele><time>2026-03-22T07:35:42Z</time></trkpt><trkpt lat="24.27210450104971" lon="120.67665396002094"><ele>157.0</ele><time>2026-03-22T07:35:43Z</time></trkpt><trkpt lat="24.27222506764595" lon="120.67642674346239"><ele>157.0</ele><time>2026-03-22T07:35:44Z</time></trkpt><trkpt lat="24.272347001089884" lon="120.67620643169371"><ele>156.5</ele><time>2026-03-22T07:35:45Z</time></trkpt><trkpt lat="24.27247152846185" lon="120.67599249828481"><ele>156.0</ele><time>2026-03-22T07:35:46Z</time></trkpt><trkpt lat="24.272599198683885" lon="120.67577949117627"><ele>156.0</ele><time>2026-03-22T07:35:47Z</time></trkpt><trkpt lat="24.272732048652557" lon="120.67556402401888"><ele>156.0</ele><time>2026-03-22T07:35:48Z</time></trkpt><trkpt lat="24.272869632202113" lon="120.67534939564612"><ele>156.5</ele><time>2026-03-22T07:35:49Z</time></trkpt><trkpt lat="24.27301354997411" lon="120.6751343378201"><ele>157.0</ele><time>2026-03-22T07:35:50Z</time></trkpt><trkpt lat="24.273161008561015" lon="120.67491902292998"><ele>157.0</ele><time>2026-03-22T07:35:51Z</time></trkpt><trkpt lat="24.273310109398192" lon="120.6747063132494"><ele>157.0</ele><time>2026-03-22T07:35:52Z</time></trkpt><trkpt lat="24.273461476070356" lon="120.67449671682951"><ele>155.0</ele><time>2026-03-22T07:35:53Z</time></trkpt><trkpt lat="24.273617377992203" lon="120.67428511069238"><ele>153.0</ele><time>2026-03-22T07:35:54Z</time></trkpt><trkpt lat="24.27377831705546" lon="120.67407299029242"><ele>151.5</ele><time>2026-03-22T07:35:55Z</time></trkpt><trkpt lat="24.273943956886942" lon="120.67385959824558"><ele>150.0</ele><time>2026-03-22T07:35:56Z</time></trkpt><trkpt lat="24.274115122603405" lon="120.67364572268096"><ele>150.0</ele><time>2026-03-22T07:35:57Z</time></trkpt><trkpt lat="24.274290494637263" lon="120.67343044671055"><ele>150.0</ele><time>2026-03-22T07:35:58Z</time></trkpt><trkpt lat="24.274470357200695" lon="120.67321521446469"><ele>150.0</ele><time>2026-03-22T07:35:59Z</time></trkpt><trkpt lat="24.274655317317904" lon="120.67300053934417"><ele>150.0</ele><time>2026-03-22T07:36:00Z</time></trkpt><trkpt lat="24.27484344561959" lon="120.67278420015766"><ele>151.0</ele><time>2026-03-22T07:36:01Z</time></trkpt><trkpt lat="24.275037820435333" lon="120.67257095112825"><ele>152.0</ele><time>2026-03-22T07:36:02Z</time></trkpt><trkpt lat="24.275237891767976" lon="120.67235934477978"><ele>152.0</ele><time>2026-03-22T07:36:03Z</time></trkpt><trkpt lat="24.275439256697286" lon="120.6721499964117"><ele>152.0</ele><time>2026-03-22T07:36:04Z</time></trkpt><trkpt lat="24.27563652321243" lon="120.67194597788327"><ele>151.0</ele><time>2026-03-22T07:36:05Z</time></trkpt><trkpt lat="24.27583528186912" lon="120.671738512617"><ele>150.0</ele><time>2026-03-22T07:36:06Z</time></trkpt><trkpt lat="24.276032512575355" lon="120.67153087704172"><ele>150.0</ele><time>2026-03-22T07:36:07Z</time></trkpt><trkpt lat="24.27622841016248" lon="120.67132561266017"><ele>150.0</ele><time>2026-03-22T07:36:08Z</time></trkpt><trkpt lat="24.27642202692884" lon="120.6711208562527"><ele>147.5</ele><time>2026-03-22T07:36:09Z</time></trkpt><trkpt lat="24.27661542561426" lon="120.67091824828452"><ele>145.0</ele><time>2026-03-22T07:36:10Z</time></trkpt><trkpt lat="24.276808853951433" lon="120.6707179371083"><ele>145.0</ele><time>2026-03-22T07:36:11Z</time></trkpt><trkpt lat="24.277004694089765" lon="120.67052000314386"><ele>145.0</ele><time>2026-03-22T07:36:12Z</time></trkpt><trkpt lat="24.277200260039205" lon="120.67032170212997"><ele>146.5</ele><time>2026-03-22T07:36:13Z</time></trkpt><trkpt lat="24.27739388665014" lon="120.67012302055565"><ele>148.0</ele><time>2026-03-22T07:36:14Z</time></trkpt><trkpt lat="24.277586402659793" lon="120.66992434744385"><ele>148.0</ele><time>2026-03-22T07:36:15Z</time></trkpt><trkpt lat="24.277779718311116" lon="120.66972455860629"><ele>148.0</ele><time>2026-03-22T07:36:16Z</time></trkpt><trkpt lat="24.277973719006365" lon="120.66952319301714"><ele>147.5</ele><time>2026-03-22T07:36:17Z</time></trkpt><trkpt lat="24.27816841356441" lon="120.6693231120629"><ele>147.0</ele><time>2026-03-22T07:36:18Z</time></trkpt><trkpt lat="24.2783609939301" lon="120.66912017211773"><ele>147.0</ele><time>2026-03-22T07:36:19Z</time></trkpt><trkpt lat="24.278553123399725" lon="120.66891777903773"><ele>147.0</ele><time>2026-03-22T07:36:20Z</time></trkpt><trkpt lat="24.278747797230963" lon="120.66871577921947"><ele>146.0</ele><time>2026-03-22T07:36:21Z</time></trkpt><trkpt lat="24.278941791383026" lon="120.6685092633781"><ele>145.0</ele><time>2026-03-22T07:36:22Z</time></trkpt><trkpt lat="24.279136063595185" lon="120.66830031817764"><ele>145.0</ele><time>2026-03-22T07:36:23Z</time></trkpt><trkpt lat="24.27933109432852" lon="120.66809001644327"><ele>145.0</ele><time>2026-03-22T07:36:24Z</time></trkpt><trkpt lat="24.279526733999347" lon="120.66787886447347"><ele>145.5</ele><time>2026-03-22T07:36:25Z</time></trkpt><trkpt lat="24.279720597086502" lon="120.66766720636717"><ele>146.0</ele><time>2026-03-22T07:36:26Z</time></trkpt><trkpt lat="24.27991246212179" lon="120.66745432030726"><ele>150.0</ele><time>2026-03-22T07:36:27Z</time></trkpt><trkpt lat="24.280102812907394" lon="120.66724184340352"><ele>154.0</ele><time>2026-03-22T07:36:28Z</time></trkpt><trkpt lat="24.280291893975686" lon="120.66702877081514"><ele>150.5</ele><time>2026-03-22T07:36:29Z</time></trkpt><trkpt lat="24.28048257241803" lon="120.6668093728856"><ele>147.0</ele><time>2026-03-22T07:36:30Z</time></trkpt><trkpt lat="24.280672399085226" lon="120.66659103263189"><ele>146.5</ele><time>2026-03-22T07:36:31Z</time></trkpt><trkpt lat="24.280861770563405" lon="120.66636714928629"><ele>146.0</ele><time>2026-03-22T07:36:32Z</time></trkpt><trkpt lat="24.28105115350983" lon="120.66614101296881"><ele>143.5</ele><time>2026-03-22T07:36:33Z</time></trkpt><trkpt lat="24.281240771979604" lon="120.66591345202359"><ele>141.0</ele><time>2026-03-22T07:36:34Z</time></trkpt><trkpt lat="24.28142697214401" lon="120.66568711332349"><ele>141.0</ele><time>2026-03-22T07:36:35Z</time></trkpt><trkpt lat="24.28161247317902" lon="120.66545702394946"><ele>141.0</ele><time>2026-03-22T07:36:36Z</time></trkpt><trkpt lat="24.28179850565926" lon="120.66522365327714"><ele>139.5</ele><time>2026-03-22T07:36:37Z</time></trkpt><trkpt lat="24.281982876210694" lon="120.66498817611831"><ele>138.0</ele><time>2026-03-22T07:36:38Z</time></trkpt><trkpt lat="24.282163983240363" lon="120.66475302797524"><ele>138.0</ele><time>2026-03-22T07:36:39Z</time></trkpt><trkpt lat="24.282341586275628" lon="120.66452057500611"><ele>138.0</ele><time>2026-03-22T07:36:40Z</time></trkpt><trkpt lat="24.282515263627317" lon="120.66429114049954"><ele>138.0</ele><time>2026-03-22T07:36:41Z</time></trkpt><trkpt lat="24.282684097774993" lon="120.66406569579648"><ele>138.0</ele><time>2026-03-22T07:36:42Z</time></trkpt><trkpt lat="24.282850699742983" lon="120.66383884655545"><ele>137.5</ele><time>2026-03-22T07:36:43Z</time></trkpt><trkpt lat="24.283012805748168" lon="120.66360944469889"><ele>137.0</ele><time>2026-03-22T07:36:44Z</time></trkpt><trkpt lat="24.28316750343612" lon="120.6633751384591"><ele>137.0</ele><time>2026-03-22T07:36:45Z</time></trkpt><trkpt lat="24.283318714435115" lon="120.6631392157412"><ele>137.0</ele><time>2026-03-22T07:36:46Z</time></trkpt><trkpt lat="24.283470768961074" lon="120.66290560647808"><ele>137.0</ele><time>2026-03-22T07:36:47Z</time></trkpt><trkpt lat="24.28362419705134" lon="120.66267530741509"><ele>137.0</ele><time>2026-03-22T07:36:48Z</time></trkpt><trkpt lat="24.283779971567235" lon="120.66244794538503"><ele>137.0</ele><time>2026-03-22T07:36:49Z</time></trkpt><trkpt lat="24.283935346880636" lon="120.66222146688581"><ele>137.0</ele><time>2026-03-22T07:36:50Z</time></trkpt><trkpt lat="24.284088092534372" lon="120.66199404660037"><ele>135.5</ele><time>2026-03-22T07:36:51Z</time></trkpt><trkpt lat="24.284238430976778" lon="120.66176713814916"><ele>134.0</ele><time>2026-03-22T07:36:52Z</time></trkpt><trkpt lat="24.28438822250898" lon="120.66153903455661"><ele>134.0</ele><time>2026-03-22T07:36:53Z</time></trkpt><trkpt lat="24.284539294044908" lon="120.66131008134033"><ele>134.0</ele><time>2026-03-22T07:36:54Z</time></trkpt><trkpt lat="24.284695543068988" lon="120.66108297810668"><ele>134.5</ele><time>2026-03-22T07:36:55Z</time></trkpt><trkpt lat="24.284853273357797" lon="120.66085417917937"><ele>135.0</ele><time>2026-03-22T07:36:56Z</time></trkpt><trkpt lat="24.285007232816064" lon="120.6606208031546"><ele>135.0</ele><time>2026-03-22T07:36:57Z</time></trkpt><trkpt lat="24.28515595964893" lon="120.66038379168513"><ele>135.0</ele><time>2026-03-22T07:36:58Z</time></trkpt><trkpt lat="24.285298899487962" lon="120.66014451906405"><ele>134.0</ele><time>2026-03-22T07:36:59Z</time></trkpt><trkpt lat="24.28544059436701" lon="120.65990651154704"><ele>133.0</ele><time>2026-03-22T07:37:00Z</time></trkpt><trkpt lat="24.28558543215818" lon="120.65966872736426"><ele>132.5</ele><time>2026-03-22T07:37:01Z</time></trkpt><trkpt lat="24.285729379491013" lon="120.65942932152689"><ele>132.0</ele><time>2026-03-22T07:37:02Z</time></trkpt><trkpt lat="24.285873552923242" lon="120.6591887641935"><ele>132.0</ele><time>2026-03-22T07:37:03Z</time></trkpt><trkpt lat="24.286018379202538" lon="120.65894635383783"><ele>132.0</ele><time>2026-03-22T07:37:04Z</time></trkpt><trkpt lat="24.286161429190663" lon="120.6587017855594"><ele>131.5</ele><time>2026-03-22T07:37:05Z</time></trkpt><trkpt lat="24.28630365074816" lon="120.65845788779147"><ele>131.0</ele><time>2026-03-22T07:37:06Z</time></trkpt><trkpt lat="24.286444078844298" lon="120.65821521842122"><ele>131.5</ele><time>2026-03-22T07:37:07Z</time></trkpt><trkpt lat="24.28658430729632" lon="120.65797320098983"><ele>132.0</ele><time>2026-03-22T07:37:08Z</time></trkpt><trkpt lat="24.286721145346508" lon="120.65773081614446"><ele>132.0</ele><time>2026-03-22T07:37:09Z</time></trkpt><trkpt lat="24.28685847364274" lon="120.65749084498584"><ele>132.0</ele><time>2026-03-22T07:37:10Z</time></trkpt><trkpt lat="24.286995817365906" lon="120.65725157492409"><ele>132.0</ele><time>2026-03-22T07:37:11Z</time></trkpt><trkpt lat="24.287131624449163" lon="120.65701501737266"><ele>132.0</ele><time>2026-03-22T07:37:12Z</time></trkpt><trkpt lat="24.287264757272272" lon="120.65677850960387"><ele>130.0</ele><time>2026-03-22T07:37:13Z</time></trkpt><trkpt lat="24.28739676532446" lon="120.65654397141218"><ele>128.0</ele><time>2026-03-22T07:37:14Z</time></trkpt><trkpt lat="24.287525930323557" lon="120.65630941071166"><ele>127.5</ele><time>2026-03-22T07:37:15Z</time></trkpt><trkpt lat="24.2876550360892" lon="120.65607749945549"><ele>127.0</ele><time>2026-03-22T07:37:16Z</time></trkpt><trkpt lat="24.287784491586475" lon="120.6558461748321"><ele>127.0</ele><time>2026-03-22T07:37:17Z</time></trkpt><trkpt lat="24.287910458938846" lon="120.65561484887483"><ele>127.0</ele><time>2026-03-22T07:37:18Z</time></trkpt><trkpt lat="24.288036710439048" lon="120.6553848941488"><ele>126.0</ele><time>2026-03-22T07:37:19Z</time></trkpt><trkpt lat="24.288163297603788" lon="120.65515453374738"><ele>125.0</ele><time>2026-03-22T07:37:20Z</time></trkpt><trkpt lat="24.288292294897538" lon="120.65492420277515"><ele>125.0</ele><time>2026-03-22T07:37:21Z</time></trkpt><trkpt lat="24.288421534838147" lon="120.65469261932006"><ele>125.0</ele><time>2026-03-22T07:37:22Z</time></trkpt><trkpt lat="24.288550940489785" lon="120.65446079464984"><ele>124.5</ele><time>2026-03-22T07:37:23Z</time></trkpt><trkpt lat="24.288680349260773" lon="120.65422861918853"><ele>124.0</ele><time>2026-03-22T07:37:24Z</time></trkpt><trkpt lat="24.28880965204735" lon="120.65399601198212"><ele>123.0</ele><time>2026-03-22T07:37:25Z</time></trkpt><trkpt lat="24.288940660384274" lon="120.65376428442612"><ele>122.0</ele><time>2026-03-22T07:37:26Z</time></trkpt><trkpt lat="24.28906915380584" lon="120.65353013771572"><ele>122.0</ele><time>2026-03-22T07:37:27Z</time></trkpt><trkpt lat="24.28919638231128" lon="120.65329642662007"><ele>122.0</ele><time>2026-03-22T07:37:28Z</time></trkpt><trkpt lat="24.289325823211236" lon="120.65306387964496"><ele>122.0</ele><time>2026-03-22T07:37:29Z</time></trkpt><trkpt lat="24.289455533360428" lon="120.65283110805848"><ele>122.0</ele><time>2026-03-22T07:37:30Z</time></trkpt><trkpt lat="24.28958609990628" lon="120.6525996001964"><ele>122.5</ele><time>2026-03-22T07:37:31Z</time></trkpt><trkpt lat="24.28971801195323" lon="120.65236950272227"><ele>123.0</ele><time>2026-03-22T07:37:32Z</time></trkpt><trkpt lat="24.289851781480017" lon="120.65213956599318"><ele>121.0</ele><time>2026-03-22T07:37:33Z</time></trkpt><trkpt lat="24.289983896881623" lon="120.65190913745283"><ele>119.0</ele><time>2026-03-22T07:37:34Z</time></trkpt><trkpt lat="24.290117207097257" lon="120.6516791197763"><ele>119.0</ele><time>2026-03-22T07:37:35Z</time></trkpt><trkpt lat="24.29025210093971" lon="120.65145017554627"><ele>119.0</ele><time>2026-03-22T07:37:36Z</time></trkpt><trkpt lat="24.290388477801848" lon="120.65122200305507"><ele>119.5</ele><time>2026-03-22T07:37:37Z</time></trkpt><trkpt lat="24.290524196884586" lon="120.65099315988084"><ele>120.0</ele><time>2026-03-22T07:37:38Z</time></trkpt><trkpt lat="24.29066024944102" lon="120.65076503700296"><ele>120.0</ele><time>2026-03-22T07:37:39Z</time></trkpt><trkpt lat="24.29079795569716" lon="120.65053901904464"><ele>120.0</ele><time>2026-03-22T07:37:40Z</time></trkpt><trkpt lat="24.290936373994434" lon="120.650311901957"><ele>119.0</ele><time>2026-03-22T07:37:41Z</time></trkpt><trkpt lat="24.2910765093773" lon="120.65008731579607"><ele>118.0</ele><time>2026-03-22T07:37:42Z</time></trkpt><trkpt lat="24.29121923307824" lon="120.64986423260902"><ele>118.0</ele><time>2026-03-22T07:37:43Z</time></trkpt><trkpt lat="24.29136332543097" lon="120.6496422317251"><ele>118.0</ele><time>2026-03-22T07:37:44Z</time></trkpt><trkpt lat="24.29150823068139" lon="120.64942098852072"><ele>117.5</ele><time>2026-03-22T07:37:45Z</time></trkpt><trkpt lat="24.29165351933707" lon="120.64920043926803"><ele>117.0</ele><time>2026-03-22T07:37:46Z</time></trkpt><trkpt lat="24.291800815549983" lon="120.64898161010221"><ele>117.0</ele><time>2026-03-22T07:37:47Z</time></trkpt><trkpt lat="24.291949624664433" lon="120.64876370977578"><ele>117.0</ele><time>2026-03-22T07:37:48Z</time></trkpt><trkpt lat="24.292100679485163" lon="120.64854769968436"><ele>115.5</ele><time>2026-03-22T07:37:49Z</time></trkpt><trkpt lat="24.292252674231705" lon="120.64833273514013"><ele>114.0</ele><time>2026-03-22T07:37:50Z</time></trkpt><trkpt lat="24.292407816942458" lon="120.6481192721236"><ele>114.0</ele><time>2026-03-22T07:37:51Z</time></trkpt><trkpt lat="24.292564168811392" lon="120.6479077414409"><ele>114.0</ele><time>2026-03-22T07:37:52Z</time></trkpt><trkpt lat="24.292721899085766" lon="120.6476977172258"><ele>117.0</ele><time>2026-03-22T07:37:53Z</time></trkpt><trkpt lat="24.292881792823138" lon="120.6474892871493"><ele>120.0</ele><time>2026-03-22T07:37:54Z</time></trkpt><trkpt lat="24.29304425207977" lon="120.64728346337345"><ele>118.0</ele><time>2026-03-22T07:37:55Z</time></trkpt><trkpt lat="24.293209429721013" lon="120.64707877389992"><ele>116.0</ele><time>2026-03-22T07:37:56Z</time></trkpt><trkpt lat="24.293375210817167" lon="120.64687468691356"><ele>116.0</ele><time>2026-03-22T07:37:57Z</time></trkpt><trkpt lat="24.293543501245846" lon="120.6466720047035"><ele>116.0</ele><time>2026-03-22T07:37:58Z</time></trkpt><trkpt lat="24.293713547299912" lon="120.64646954349922"><ele>116.0</ele><time>2026-03-22T07:37:59Z</time></trkpt><trkpt lat="24.293884930296546" lon="120.6462686506136"><ele>116.0</ele><time>2026-03-22T07:38:00Z</time></trkpt><trkpt lat="24.294057714188128" lon="120.64606841606135"><ele>116.0</ele><time>2026-03-22T07:38:01Z</time></trkpt><trkpt lat="24.29423123997904" lon="120.64586964903623"><ele>116.0</ele><time>2026-03-22T07:38:02Z</time></trkpt><trkpt lat="24.294405448379347" lon="120.64567224067814"><ele>116.0</ele><time>2026-03-22T07:38:03Z</time></trkpt><trkpt lat="24.294581681600448" lon="120.64547758241105"><ele>116.0</ele><time>2026-03-22T07:38:04Z</time></trkpt><trkpt lat="24.294757514272007" lon="120.64528403861631"><ele>114.5</ele><time>2026-03-22T07:38:05Z</time></trkpt><trkpt lat="24.29493262158833" lon="120.64509123961547"><ele>113.0</ele><time>2026-03-22T07:38:06Z</time></trkpt><trkpt lat="24.295107189199644" lon="120.6448991703782"><ele>113.0</ele><time>2026-03-22T07:38:07Z</time></trkpt><trkpt lat="24.29528185369735" lon="120.64470754880934"><ele>113.0</ele><time>2026-03-22T07:38:08Z</time></trkpt><trkpt lat="24.295458111837885" lon="120.64451806007969"><ele>114.5</ele><time>2026-03-22T07:38:09Z</time></trkpt><trkpt lat="24.295635495042703" lon="120.64432840101247"><ele>116.0</ele><time>2026-03-22T07:38:10Z</time></trkpt><trkpt lat="24.295811387404502" lon="120.64413776136263"><ele>116.0</ele><time>2026-03-22T07:38:11Z</time></trkpt><trkpt lat="24.29598699919039" lon="120.64394601791709"><ele>116.0</ele><time>2026-03-22T07:38:12Z</time></trkpt><trkpt lat="24.296162431742154" lon="120.64375352795868"><ele>117.0</ele><time>2026-03-22T07:38:13Z</time></trkpt><trkpt lat="24.29633628942533" lon="120.64356016183754"><ele>118.0</ele><time>2026-03-22T07:38:14Z</time></trkpt><trkpt lat="24.296508716335904" lon="120.6433657754547"><ele>115.0</ele><time>2026-03-22T07:38:15Z</time></trkpt><trkpt lat="24.296680381268995" lon="120.64316992475743"><ele>112.0</ele><time>2026-03-22T07:38:16Z</time></trkpt><trkpt lat="24.29685022760814" lon="120.64297253192693"><ele>112.5</ele><time>2026-03-22T07:38:17Z</time></trkpt><trkpt lat="24.297019446614158" lon="120.6427739773396"><ele>113.0</ele><time>2026-03-22T07:38:18Z</time></trkpt><trkpt lat="24.29718722247412" lon="120.64257352206965"><ele>110.5</ele><time>2026-03-22T07:38:19Z</time></trkpt><trkpt lat="24.297353698888642" lon="120.64237118740219"><ele>108.0</ele><time>2026-03-22T07:38:20Z</time></trkpt><trkpt lat="24.29751781759101" lon="120.64216713341033"><ele>108.5</ele><time>2026-03-22T07:38:21Z</time></trkpt><trkpt lat="24.297679440800284" lon="120.6419597231439"><ele>109.0</ele><time>2026-03-22T07:38:22Z</time></trkpt><trkpt lat="24.29783584861099" lon="120.64174877323956"><ele>109.0</ele><time>2026-03-22T07:38:23Z</time></trkpt><trkpt lat="24.29799098506832" lon="120.64153677339151"><ele>109.0</ele><time>2026-03-22T07:38:24Z</time></trkpt><trkpt lat="24.298144190490472" lon="120.64132285322006"><ele>108.5</ele><time>2026-03-22T07:38:25Z</time></trkpt><trkpt lat="24.298294688959288" lon="120.64110633921842"><ele>108.0</ele><time>2026-03-22T07:38:26Z</time></trkpt><trkpt lat="24.298443333500348" lon="120.64088881636035"><ele>108.0</ele><time>2026-03-22T07:38:27Z</time></trkpt><trkpt lat="24.298591724378674" lon="120.64066979183487"><ele>108.0</ele><time>2026-03-22T07:38:28Z</time></trkpt><trkpt lat="24.298737979523967" lon="120.64044960868127"><ele>107.5</ele><time>2026-03-22T07:38:29Z</time></trkpt><trkpt lat="24.298881684251477" lon="120.64022760728456"><ele>107.0</ele><time>2026-03-22T07:38:30Z</time></trkpt><trkpt lat="24.299022786029553" lon="120.64000399861294"><ele>106.0</ele><time>2026-03-22T07:38:31Z</time></trkpt><trkpt lat="24.299162609049837" lon="120.63977863414503"><ele>105.0</ele><time>2026-03-22T07:38:32Z</time></trkpt><trkpt lat="24.299302262861723" lon="120.63955364559891"><ele>104.5</ele><time>2026-03-22T07:38:33Z</time></trkpt><trkpt lat="24.299439695837716" lon="120.63932681759852"><ele>104.0</ele><time>2026-03-22T07:38:34Z</time></trkpt><trkpt lat="24.299576204890524" lon="120.63909949701025"><ele>104.0</ele><time>2026-03-22T07:38:35Z</time></trkpt><trkpt lat="24.299712078684838" lon="120.63887123524903"><ele>104.0</ele><time>2026-03-22T07:38:36Z</time></trkpt><trkpt lat="24.299848371190212" lon="120.63864333316226"><ele>103.0</ele><time>2026-03-22T07:38:37Z</time></trkpt><trkpt lat="24.2999832921651" lon="120.6384145588751"><ele>102.0</ele><time>2026-03-22T07:38:38Z</time></trkpt><trkpt lat="24.300117224798328" lon="120.63818463947787"><ele>102.0</ele><time>2026-03-22T07:38:39Z</time></trkpt><trkpt lat="24.300250010084213" lon="120.63795482188347"><ele>102.0</ele><time>2026-03-22T07:38:40Z</time></trkpt><trkpt lat="24.300381556049057" lon="120.63772427732911"><ele>102.0</ele><time>2026-03-22T07:38:41Z</time></trkpt><trkpt lat="24.300511208427544" lon="120.637493650948"><ele>102.0</ele><time>2026-03-22T07:38:42Z</time></trkpt><trkpt lat="24.30064042802444" lon="120.63726247143101"><ele>102.0</ele><time>2026-03-22T07:38:43Z</time></trkpt><trkpt lat="24.300769239536375" lon="120.63703048519129"><ele>102.0</ele><time>2026-03-22T07:38:44Z</time></trkpt><trkpt lat="24.300898183342955" lon="120.63679823753986"><ele>101.0</ele><time>2026-03-22T07:38:45Z</time></trkpt><trkpt lat="24.30102656234701" lon="120.63656571403166"><ele>100.0</ele><time>2026-03-22T07:38:46Z</time></trkpt><trkpt lat="24.30115312160076" lon="120.6363313680732"><ele>100.5</ele><time>2026-03-22T07:38:47Z</time></trkpt><trkpt lat="24.3012791316951" lon="120.63609707404714"><ele>101.0</ele><time>2026-03-22T07:38:48Z</time></trkpt><trkpt lat="24.301405268613287" lon="120.63586325180376"><ele>100.5</ele><time>2026-03-22T07:38:49Z</time></trkpt><trkpt lat="24.301531588693937" lon="120.63562877958226"><ele>100.0</ele><time>2026-03-22T07:38:50Z</time></trkpt><trkpt lat="24.301657486016232" lon="120.63539437328016"><ele>99.0</ele><time>2026-03-22T07:38:51Z</time></trkpt><trkpt lat="24.301781940131942" lon="120.63515885537977"><ele>98.0</ele><time>2026-03-22T07:38:52Z</time></trkpt><trkpt lat="24.30190559291342" lon="120.63492285008296"><ele>98.0</ele><time>2026-03-22T07:38:53Z</time></trkpt><trkpt lat="24.302027871466866" lon="120.63468576348913"><ele>98.0</ele><time>2026-03-22T07:38:54Z</time></trkpt><trkpt lat="24.302149120181983" lon="120.63444835930318"><ele>98.0</ele><time>2026-03-22T07:38:55Z</time></trkpt><trkpt lat="24.302269488186038" lon="120.63421033029319"><ele>98.0</ele><time>2026-03-22T07:38:56Z</time></trkpt><trkpt lat="24.30238947385881" lon="120.63397100474452"><ele>98.0</ele><time>2026-03-22T07:38:57Z</time></trkpt><trkpt lat="24.3025095146577" lon="120.63373259930418"><ele>98.0</ele><time>2026-03-22T07:38:58Z</time></trkpt><trkpt lat="24.302628742873605" lon="120.63349379546707"><ele>96.5</ele><time>2026-03-22T07:38:59Z</time></trkpt><trkpt lat="24.30274729512278" lon="120.63325428641123"><ele>95.0</ele><time>2026-03-22T07:39:00Z</time></trkpt><trkpt lat="24.302864378288316" lon="120.63301489555248"><ele>94.5</ele><time>2026-03-22T07:39:01Z</time></trkpt><trkpt lat="24.302981414769246" lon="120.63277444560563"><ele>94.0</ele><time>2026-03-22T07:39:02Z</time></trkpt><trkpt lat="24.30309788744603" lon="120.63253353492311"><ele>94.0</ele><time>2026-03-22T07:39:03Z</time></trkpt><trkpt lat="24.303213921398275" lon="120.63229296062461"><ele>94.0</ele><time>2026-03-22T07:39:04Z</time></trkpt><trkpt lat="24.303329231432752" lon="120.63205205506354"><ele>95.0</ele><time>2026-03-22T07:39:05Z</time></trkpt><trkpt lat="24.303444001065138" lon="120.63181060881652"><ele>96.0</ele><time>2026-03-22T07:39:06Z</time></trkpt><trkpt lat="24.303557762431605" lon="120.63156874147126"><ele>96.0</ele><time>2026-03-22T07:39:07Z</time></trkpt><trkpt lat="24.30367117334587" lon="120.63132681771657"><ele>96.0</ele><time>2026-03-22T07:39:08Z</time></trkpt><trkpt lat="24.30378336418789" lon="120.63108427558824"><ele>95.0</ele><time>2026-03-22T07:39:09Z</time></trkpt><trkpt lat="24.303894708400833" lon="120.63084162877163"><ele>94.0</ele><time>2026-03-22T07:39:10Z</time></trkpt><trkpt lat="24.30400448533519" lon="120.63059887760379"><ele>94.0</ele><time>2026-03-22T07:39:11Z</time></trkpt><trkpt lat="24.30411352071307" lon="120.6303565504641"><ele>94.0</ele><time>2026-03-22T07:39:12Z</time></trkpt><trkpt lat="24.304221665902755" lon="120.63011450062692"><ele>95.0</ele><time>2026-03-22T07:39:13Z</time></trkpt><trkpt lat="24.304327636922228" lon="120.62987258602257"><ele>96.0</ele><time>2026-03-22T07:39:14Z</time></trkpt><trkpt lat="24.304432354306325" lon="120.62962940378473"><ele>95.5</ele><time>2026-03-22T07:39:15Z</time></trkpt><trkpt lat="24.304537263648584" lon="120.62938459345419"><ele>95.0</ele><time>2026-03-22T07:39:16Z</time></trkpt><trkpt lat="24.304640778027277" lon="120.62913867163275"><ele>95.0</ele><time>2026-03-22T07:39:17Z</time></trkpt><trkpt lat="24.304743306150353" lon="120.62889100447353"><ele>95.0</ele><time>2026-03-22T07:39:18Z</time></trkpt><trkpt lat="24.30484352523642" lon="120.6286417212181"><ele>93.0</ele><time>2026-03-22T07:39:19Z</time></trkpt><trkpt lat="24.30494246958697" lon="120.62839098385255"><ele>91.0</ele><time>2026-03-22T07:39:20Z</time></trkpt><trkpt lat="24.305038617918026" lon="120.62813985432494"><ele>91.0</ele><time>2026-03-22T07:39:21Z</time></trkpt><trkpt lat="24.30513565336922" lon="120.62788797334886"><ele>91.0</ele><time>2026-03-22T07:39:22Z</time></trkpt><trkpt lat="24.305230399297056" lon="120.62763663682787"><ele>92.0</ele><time>2026-03-22T07:39:23Z</time></trkpt><trkpt lat="24.305322793556837" lon="120.62738291388959"><ele>93.0</ele><time>2026-03-22T07:39:24Z</time></trkpt><trkpt lat="24.30541282629866" lon="120.62712881031365"><ele>93.5</ele><time>2026-03-22T07:39:25Z</time></trkpt><trkpt lat="24.305500884127405" lon="120.62687408850233"><ele>94.0</ele><time>2026-03-22T07:39:26Z</time></trkpt><trkpt lat="24.305587168272385" lon="120.62661885134501"><ele>92.5</ele><time>2026-03-22T07:39:27Z</time></trkpt><trkpt lat="24.305670207328163" lon="120.62636265801821"><ele>91.0</ele><time>2026-03-22T07:39:28Z</time></trkpt><trkpt lat="24.30574883191495" lon="120.62610688516901"><ele>89.5</ele><time>2026-03-22T07:39:29Z</time></trkpt><trkpt lat="24.30582321919448" lon="120.62585367660964"><ele>88.0</ele><time>2026-03-22T07:39:30Z</time></trkpt><trkpt lat="24.305894153930172" lon="120.62560260548979"><ele>88.0</ele><time>2026-03-22T07:39:31Z</time></trkpt><trkpt lat="24.30596314073142" lon="120.62535327256072"><ele>88.0</ele><time>2026-03-22T07:39:32Z</time></trkpt><trkpt lat="24.30603358162322" lon="120.62510427950964"><ele>88.5</ele><time>2026-03-22T07:39:33Z</time></trkpt><trkpt lat="24.30610342457234" lon="120.62485246337629"><ele>89.0</ele><time>2026-03-22T07:39:34Z</time></trkpt><trkpt lat="24.30617510955708" lon="120.62460148238026"><ele>88.5</ele><time>2026-03-22T07:39:35Z</time></trkpt><trkpt lat="24.30624491946417" lon="120.62434918155067"><ele>88.0</ele><time>2026-03-22T07:39:36Z</time></trkpt><trkpt lat="24.30631261988278" lon="120.62409611274109"><ele>88.0</ele><time>2026-03-22T07:39:37Z</time></trkpt><trkpt lat="24.306377331623068" lon="120.62384250887344"><ele>88.0</ele><time>2026-03-22T07:39:38Z</time></trkpt><trkpt lat="24.306438151414792" lon="120.62358822357191"><ele>86.5</ele><time>2026-03-22T07:39:39Z</time></trkpt><trkpt lat="24.306497500713455" lon="120.6233345099005"><ele>85.0</ele><time>2026-03-22T07:39:40Z</time></trkpt><trkpt lat="24.30655691446557" lon="120.62308034565761"><ele>85.0</ele><time>2026-03-22T07:39:41Z</time></trkpt><trkpt lat="24.306613809908303" lon="120.62282472535284"><ele>85.0</ele><time>2026-03-22T07:39:42Z</time></trkpt><trkpt lat="24.306670262750313" lon="120.62256750275928"><ele>84.5</ele><time>2026-03-22T07:39:43Z</time></trkpt><trkpt lat="24.306723834491336" lon="120.62230897628461"><ele>84.0</ele><time>2026-03-22T07:39:44Z</time></trkpt><trkpt lat="24.306775377765792" lon="120.62204985022699"><ele>83.5</ele><time>2026-03-22T07:39:45Z</time></trkpt><trkpt lat="24.306825943704666" lon="120.62179194140552"><ele>83.0</ele><time>2026-03-22T07:39:46Z</time></trkpt><trkpt lat="24.306875363355438" lon="120.6215360822227"><ele>83.0</ele><time>2026-03-22T07:39:47Z</time></trkpt><trkpt lat="24.306921059441013" lon="120.62127818730731"><ele>83.0</ele><time>2026-03-22T07:39:48Z</time></trkpt><trkpt lat="24.30696390201542" lon="120.62102044825609"><ele>82.0</ele><time>2026-03-22T07:39:49Z</time></trkpt><trkpt lat="24.307004701779032" lon="120.62076393366938"><ele>81.0</ele><time>2026-03-22T07:39:50Z</time></trkpt><trkpt lat="24.307043347682015" lon="120.6205083954701"><ele>80.5</ele><time>2026-03-22T07:39:51Z</time></trkpt><trkpt lat="24.307080571356202" lon="120.62025402954946"><ele>80.0</ele><time>2026-03-22T07:39:52Z</time></trkpt><trkpt lat="24.307117915715995" lon="120.62000113633171"><ele>80.0</ele><time>2026-03-22T07:39:53Z</time></trkpt><trkpt lat="24.307153614348877" lon="120.61974865340702"><ele>80.0</ele><time>2026-03-22T07:39:54Z</time></trkpt><trkpt lat="24.307187294173282" lon="120.61949756747497"><ele>80.0</ele><time>2026-03-22T07:39:55Z</time></trkpt><trkpt lat="24.307219121111086" lon="120.61924752874748"><ele>80.0</ele><time>2026-03-22T07:39:56Z</time></trkpt><trkpt lat="24.307249194987442" lon="120.61899856696516"><ele>79.0</ele><time>2026-03-22T07:39:57Z</time></trkpt><trkpt lat="24.307276849010414" lon="120.61875049883936"><ele>78.0</ele><time>2026-03-22T07:39:58Z</time></trkpt><trkpt lat="24.30730106348195" lon="120.61850297017725"><ele>77.5</ele><time>2026-03-22T07:39:59Z</time></trkpt><trkpt lat="24.30732297926277" lon="120.61825682127336"><ele>77.0</ele><time>2026-03-22T07:40:00Z</time></trkpt><trkpt lat="24.307343970142995" lon="120.61801159831195"><ele>77.0</ele><time>2026-03-22T07:40:01Z</time></trkpt><trkpt lat="24.30736457307399" lon="120.61776854625877"><ele>77.0</ele><time>2026-03-22T07:40:02Z</time></trkpt><trkpt lat="24.307383199501693" lon="120.61752967584566"><ele>77.0</ele><time>2026-03-22T07:40:03Z</time></trkpt><trkpt lat="24.307399717289428" lon="120.6172939096032"><ele>77.0</ele><time>2026-03-22T07:40:04Z</time></trkpt><trkpt lat="24.3074156675297" lon="120.61706319311536"><ele>77.0</ele><time>2026-03-22T07:40:05Z</time></trkpt><trkpt lat="24.307429849093804" lon="120.61683755600761"><ele>77.0</ele><time>2026-03-22T07:40:06Z</time></trkpt><trkpt lat="24.307441738725082" lon="120.6166118523017"><ele>77.0</ele><time>2026-03-22T07:40:07Z</time></trkpt><trkpt lat="24.30745222106865" lon="120.61638578884109"><ele>77.0</ele><time>2026-03-22T07:40:08Z</time></trkpt><trkpt lat="24.307463714034014" lon="120.6161572996355"><ele>77.0</ele><time>2026-03-22T07:40:09Z</time></trkpt><trkpt lat="24.30747274532137" lon="120.61592438310592"><ele>76.66666666666667</ele><time>2026-03-22T07:40:10Z</time></trkpt><trkpt lat="24.30747733123906" lon="120.61568585380078"><ele>76.33333333333333</ele><time>2026-03-22T07:40:11Z</time></trkpt><trkpt lat="24.307480722215242" lon="120.61544093205872"><ele>76.0</ele><time>2026-03-22T07:40:12Z</time></trkpt><trkpt lat="24.3074848092025" lon="120.61518885748859"><ele>76.0</ele><time>2026-03-22T07:40:13Z</time></trkpt><trkpt lat="24.307490428550402" lon="120.6149381970685"><ele>76.0</ele><time>2026-03-22T07:40:14Z</time></trkpt><trkpt lat="24.307495443905577" lon="120.61468668160413"><ele>75.5</ele><time>2026-03-22T07:40:15Z</time></trkpt><trkpt lat="24.30750079647497" lon="120.6144309980841"><ele>75.0</ele><time>2026-03-22T07:40:16Z</time></trkpt><trkpt lat="24.30750604897108" lon="120.61417073630123"><ele>75.0</ele><time>2026-03-22T07:40:17Z</time></trkpt><trkpt lat="24.307511924537515" lon="120.61390604153708"><ele>75.0</ele><time>2026-03-22T07:40:18Z</time></trkpt><trkpt lat="24.30751858870383" lon="120.61363650247793"><ele>74.5</ele><time>2026-03-22T07:40:19Z</time></trkpt><trkpt lat="24.307529366404648" lon="120.61336444539994"><ele>74.0</ele><time>2026-03-22T07:40:20Z</time></trkpt><trkpt lat="24.307536902510783" lon="120.61309104008572"><ele>74.0</ele><time>2026-03-22T07:40:21Z</time></trkpt><trkpt lat="24.307543986914663" lon="120.61282446073874"><ele>74.0</ele><time>2026-03-22T07:40:22Z</time></trkpt><trkpt lat="24.307547927673387" lon="120.61254975059781"><ele>73.5</ele><time>2026-03-22T07:40:23Z</time></trkpt><trkpt lat="24.307549199050396" lon="120.61227852910311"><ele>73.0</ele><time>2026-03-22T07:40:24Z</time></trkpt><trkpt lat="24.307547203621382" lon="120.6120098977607"><ele>71.5</ele><time>2026-03-22T07:40:25Z</time></trkpt><trkpt lat="24.307543824321634" lon="120.61174133799585"><ele>70.0</ele><time>2026-03-22T07:40:26Z</time></trkpt><trkpt lat="24.307538990476296" lon="120.61147195257854"><ele>70.0</ele><time>2026-03-22T07:40:27Z</time></trkpt><trkpt lat="24.307534452574572" lon="120.61120145655462"><ele>70.0</ele><time>2026-03-22T07:40:28Z</time></trkpt><trkpt lat="24.307530237428786" lon="120.61092945974876"><ele>74.0</ele><time>2026-03-22T07:40:29Z</time></trkpt><trkpt lat="24.307524450628474" lon="120.61065585307102"><ele>78.0</ele><time>2026-03-22T07:40:30Z</time></trkpt><trkpt lat="24.307515731533623" lon="120.61038328101723"><ele>76.5</ele><time>2026-03-22T07:40:31Z</time></trkpt><trkpt lat="24.307506850822698" lon="120.61011287258832"><ele>75.0</ele><time>2026-03-22T07:40:32Z</time></trkpt><trkpt lat="24.307497743278276" lon="120.60984334225996"><ele>75.0</ele><time>2026-03-22T07:40:33Z</time></trkpt><trkpt lat="24.307488355250033" lon="120.60957463512781"><ele>75.0</ele><time>2026-03-22T07:40:34Z</time></trkpt><trkpt lat="24.307477224073192" lon="120.60930825149065"><ele>73.0</ele><time>2026-03-22T07:40:35Z</time></trkpt><trkpt lat="24.307466307288575" lon="120.60904341231605"><ele>71.0</ele><time>2026-03-22T07:40:36Z</time></trkpt><trkpt lat="24.307454272444307" lon="120.60877804540482"><ele>69.0</ele><time>2026-03-22T07:40:37Z</time></trkpt><trkpt lat="24.307440970830008" lon="120.60851225384157"><ele>67.0</ele><time>2026-03-22T07:40:38Z</time></trkpt><trkpt lat="24.307426351673165" lon="120.60824597562328"><ele>67.0</ele><time>2026-03-22T07:40:39Z</time></trkpt><trkpt lat="24.307410230672183" lon="120.60798121853786"><ele>67.0</ele><time>2026-03-22T07:40:40Z</time></trkpt><trkpt lat="24.3073931001454" lon="120.60771666375494"><ele>68.5</ele><time>2026-03-22T07:40:41Z</time></trkpt><trkpt lat="24.30737441190107" lon="120.60745111220434"><ele>70.0</ele><time>2026-03-22T07:40:42Z</time></trkpt><trkpt lat="24.307355495499678" lon="120.60718433597893"><ele>68.0</ele><time>2026-03-22T07:40:43Z</time></trkpt><trkpt lat="24.307339368245724" lon="120.60691590172497"><ele>66.0</ele><time>2026-03-22T07:40:44Z</time></trkpt><trkpt lat="24.307320158748375" lon="120.60664657120469"><ele>66.0</ele><time>2026-03-22T07:40:45Z</time></trkpt><trkpt lat="24.307295593335304" lon="120.60637666892477"><ele>66.0</ele><time>2026-03-22T07:40:46Z</time></trkpt><trkpt lat="24.307271376401406" lon="120.60610613887775"><ele>65.5</ele><time>2026-03-22T07:40:47Z</time></trkpt><trkpt lat="24.30724719383363" lon="120.60583459635845"><ele>65.0</ele><time>2026-03-22T07:40:48Z</time></trkpt><trkpt lat="24.307222490095103" lon="120.60556479436804"><ele>65.0</ele><time>2026-03-22T07:40:49Z</time></trkpt><trkpt lat="24.307197121054884" lon="120.60529683395154"><ele>65.0</ele><time>2026-03-22T07:40:50Z</time></trkpt><trkpt lat="24.307170993819604" lon="120.60503039521035"><ele>65.0</ele><time>2026-03-22T07:40:51Z</time></trkpt><trkpt lat="24.307143955592696" lon="120.60476565945281"><ele>65.0</ele><time>2026-03-22T07:40:52Z</time></trkpt><trkpt lat="24.307116985693163" lon="120.60450225165947"><ele>63.5</ele><time>2026-03-22T07:40:53Z</time></trkpt><trkpt lat="24.307088232635756" lon="120.60423985690186"><ele>62.0</ele><time>2026-03-22T07:40:54Z</time></trkpt><trkpt lat="24.307057952525692" lon="120.60397940965603"><ele>62.0</ele><time>2026-03-22T07:40:55Z</time></trkpt><trkpt lat="24.30702709673687" lon="120.60372004418524"><ele>62.0</ele><time>2026-03-22T07:40:56Z</time></trkpt><trkpt lat="24.306997672205828" lon="120.60346147514883"><ele>61.0</ele><time>2026-03-22T07:40:57Z</time></trkpt><trkpt lat="24.30696795833739" lon="120.60320154739301"><ele>60.0</ele><time>2026-03-22T07:40:58Z</time></trkpt><trkpt lat="24.30693702694678" lon="120.60294007769375"><ele>60.0</ele><time>2026-03-22T07:40:59Z</time></trkpt><trkpt lat="24.306903700325364" lon="120.60268040272341"><ele>60.0</ele><time>2026-03-22T07:41:00Z</time></trkpt><trkpt lat="24.306866565799346" lon="120.6024218894877"><ele>60.0</ele><time>2026-03-22T07:41:01Z</time></trkpt><trkpt lat="24.30683000713983" lon="120.60216361406309"><ele>60.0</ele><time>2026-03-22T07:41:02Z</time></trkpt><trkpt lat="24.306792085450205" lon="120.60190760268912"><ele>62.5</ele><time>2026-03-22T07:41:03Z</time></trkpt><trkpt lat="24.306755083313607" lon="120.60165270476148"><ele>65.0</ele><time>2026-03-22T07:41:04Z</time></trkpt><trkpt lat="24.306717822162277" lon="120.60139931150499"><ele>60.5</ele><time>2026-03-22T07:41:05Z</time></trkpt><trkpt lat="24.306680619396026" lon="120.6011471103484"><ele>56.0</ele><time>2026-03-22T07:41:06Z</time></trkpt><trkpt lat="24.30664119288191" lon="120.60089676912838"><ele>56.0</ele><time>2026-03-22T07:41:07Z</time></trkpt><trkpt lat="24.30660204413919" lon="120.6006475250175"><ele>56.0</ele><time>2026-03-22T07:41:08Z</time></trkpt><trkpt lat="24.306562403897363" lon="120.60039926307626"><ele>55.5</ele><time>2026-03-22T07:41:09Z</time></trkpt><trkpt lat="24.306521702865943" lon="120.60015244329637"><ele>55.0</ele><time>2026-03-22T07:41:10Z</time></trkpt><trkpt lat="24.3064803366674" lon="120.59990713757583"><ele>55.0</ele><time>2026-03-22T07:41:11Z</time></trkpt><trkpt lat="24.306437679619656" lon="120.59966391178574"><ele>55.0</ele><time>2026-03-22T07:41:12Z</time></trkpt><trkpt lat="24.306394751918692" lon="120.59942095358123"><ele>55.33333333333333</ele><time>2026-03-22T07:41:13Z</time></trkpt><trkpt lat="24.30635198156844" lon="120.59918152247437"><ele>55.66666666666667</ele><time>2026-03-22T07:41:14Z</time></trkpt><trkpt lat="24.306309129576018" lon="120.59895042617877"><ele>56.0</ele><time>2026-03-22T07:41:15Z</time></trkpt><trkpt lat="24.306267767658337" lon="120.59872754347646"><ele>55.66666666666667</ele><time>2026-03-22T07:41:16Z</time></trkpt><trkpt lat="24.30622806604529" lon="120.59851148182868"><ele>55.33333333333333</ele><time>2026-03-22T07:41:17Z</time></trkpt><trkpt lat="24.306189297961367" lon="120.5983029620241"><ele>55.0</ele><time>2026-03-22T07:41:18Z</time></trkpt><trkpt lat="24.306151589681484" lon="120.5981025740445"><ele>55.0</ele><time>2026-03-22T07:41:19Z</time></trkpt><trkpt lat="24.306114636833325" lon="120.59791207471353"><ele>55.0</ele><time>2026-03-22T07:41:20Z</time></trkpt><trkpt lat="24.30607739409294" lon="120.59771989728314"><ele>55.0</ele><time>2026-03-22T07:41:21Z</time></trkpt><trkpt lat="24.306037128802597" lon="120.59752756244107"><ele>54.666666666666664</ele><time>2026-03-22T07:41:22Z</time></trkpt><trkpt lat="24.305996805368345" lon="120.59733253401828"><ele>54.33333333333333</ele><time>2026-03-22T07:41:23Z</time></trkpt><trkpt lat="24.305954559311505" lon="120.59713541959847"><ele>54.0</ele><time>2026-03-22T07:41:24Z</time></trkpt><trkpt lat="24.305910926825565" lon="120.59693609619703"><ele>53.0</ele><time>2026-03-22T07:41:25Z</time></trkpt><trkpt lat="24.305867088747238" lon="120.59673327992847"><ele>52.0</ele><time>2026-03-22T07:41:26Z</time></trkpt><trkpt lat="24.305822323759223" lon="120.59652681488463"><ele>51.0</ele><time>2026-03-22T07:41:27Z</time></trkpt><trkpt lat="24.30577659834546" lon="120.59631799362064"><ele>50.66666666666667</ele><time>2026-03-22T07:41:28Z</time></trkpt><trkpt lat="24.30572846515976" lon="120.59610923725664"><ele>50.333333333333336</ele><time>2026-03-22T07:41:29Z</time></trkpt><trkpt lat="24.30567993138026" lon="120.59590081513049"><ele>50.0</ele><time>2026-03-22T07:41:30Z</time></trkpt><trkpt lat="24.30563294105792" lon="120.59569184021564"><ele>50.0</ele><time>2026-03-22T07:41:31Z</time></trkpt><trkpt lat="24.30558342462455" lon="120.59548368980764"><ele>50.0</ele><time>2026-03-22T07:41:32Z</time></trkpt><trkpt lat="24.305533444850276" lon="120.59527583170943"><ele>50.0</ele><time>2026-03-22T07:41:33Z</time></trkpt><trkpt lat="24.30548323230175" lon="120.59506764642748"><ele>50.0</ele><time>2026-03-22T07:41:34Z</time></trkpt><trkpt lat="24.305433392644186" lon="120.59485988863783"><ele>50.0</ele><time>2026-03-22T07:41:35Z</time></trkpt><trkpt lat="24.305381975926576" lon="120.59465252549079"><ele>50.0</ele><time>2026-03-22T07:41:36Z</time></trkpt><trkpt lat="24.30533368366299" lon="120.59444526567448"><ele>48.66666666666667</ele><time>2026-03-22T07:41:37Z</time></trkpt><trkpt lat="24.30528711773276" lon="120.59423978884524"><ele>47.333333333333336</ele><time>2026-03-22T07:41:38Z</time></trkpt><trkpt lat="24.30524237682629" lon="120.59403786355257"><ele>46.0</ele><time>2026-03-22T07:41:39Z</time></trkpt><trkpt lat="24.305196488481666" lon="120.5938402253886"><ele>45.333333333333336</ele><time>2026-03-22T07:41:40Z</time></trkpt><trkpt lat="24.305148963284626" lon="120.59364757869096"><ele>44.666666666666664</ele><time>2026-03-22T07:41:41Z</time></trkpt><trkpt lat="24.305102220803814" lon="120.59346006682516"><ele>44.0</ele><time>2026-03-22T07:41:42Z</time></trkpt><trkpt lat="24.305054474958013" lon="120.59327813504133"><ele>44.0</ele><time>2026-03-22T07:41:43Z</time></trkpt><trkpt lat="24.30500693540557" lon="120.59310292724518"><ele>44.0</ele><time>2026-03-22T07:41:44Z</time></trkpt><trkpt lat="24.30496262564234" lon="120.59293464957855"><ele>44.0</ele><time>2026-03-22T07:41:45Z</time></trkpt><trkpt lat="24.30491819188644" lon="120.5927723035241"><ele>44.25</ele><time>2026-03-22T07:41:46Z</time></trkpt><trkpt lat="24.304876412238254" lon="120.59261802669201"><ele>44.5</ele><time>2026-03-22T07:41:47Z</time></trkpt><trkpt lat="24.304835871000222" lon="120.59247233331313"><ele>44.75</ele><time>2026-03-22T07:41:48Z</time></trkpt><trkpt lat="24.30479998233014" lon="120.59233970396305"><ele>45.0</ele><time>2026-03-22T07:41:49Z</time></trkpt><trkpt lat="24.304767603117924" lon="120.59221828983476"><ele>45.0</ele><time>2026-03-22T07:41:50Z</time></trkpt><trkpt lat="24.30473860463737" lon="120.59210945517717"><ele>45.0</ele><time>2026-03-22T07:41:51Z</time></trkpt><trkpt lat="24.304709789821263" lon="120.59200144826488"><ele>45.0</ele><time>2026-03-22T07:41:52Z</time></trkpt><trkpt lat="24.30468011613113" lon="120.5918922302082"><ele>45.0</ele><time>2026-03-22T07:41:53Z</time></trkpt><trkpt lat="24.30465046115559" lon="120.59178286937353"><ele>45.0</ele><time>2026-03-22T07:41:54Z</time></trkpt><trkpt lat="24.30462107650186" lon="120.5916754226114"><ele>44.5</ele><time>2026-03-22T07:41:55Z</time></trkpt><trkpt lat="24.304592683749775" lon="120.59157284239816"><ele>44.0</ele><time>2026-03-22T07:41:56Z</time></trkpt><trkpt lat="24.304566895385925" lon="120.59147982695961"><ele>43.5</ele><time>2026-03-22T07:41:57Z</time></trkpt><trkpt lat="24.304544621413196" lon="120.59139946395814"><ele>43.0</ele><time>2026-03-22T07:41:58Z</time></trkpt><trkpt lat="24.30452476979894" lon="120.5913263468214"><ele>42.5</ele><time>2026-03-22T07:41:59Z</time></trkpt><trkpt lat="24.30450607185898" lon="120.59125966678516"><ele>42.0</ele><time>2026-03-22T07:42:00Z</time></trkpt><trkpt lat="24.304474504056156" lon="120.59114549928452"><ele>42.0</ele><time>2026-03-22T07:42:02Z</time></trkpt><trkpt lat="24.304446971365323" lon="120.59104880651424"><ele>42.0</ele><time>2026-03-22T07:42:04Z</time></trkpt><trkpt lat="24.30442393300654" lon="120.59096450596167"><ele>42.0</ele><time>2026-03-22T07:42:06Z</time></trkpt><trkpt lat="24.30439961832376" lon="120.59088599624155"><ele>42.0</ele><time>2026-03-22T07:42:39Z</time></trkpt><trkpt lat="24.30437487526981" lon="120.59079142629498"><ele>42.0</ele><time>2026-03-22T07:42:42Z</time></trkpt><trkpt lat="24.304350708488577" lon="120.59069949830622"><ele>42.0</ele><time>2026-03-22T07:42:44Z</time></trkpt><trkpt lat="24.304318450456268" lon="120.590574886057"><ele>42.0</ele><time>2026-03-22T07:42:46Z</time></trkpt><trkpt lat="24.304282643927507" lon="120.5904329047211"><ele>42.0</ele><time>2026-03-22T07:42:48Z</time></trkpt><trkpt lat="24.304261523061438" lon="120.59034831398938"><ele>42.0</ele><time>2026-03-22T07:42:49Z</time></trkpt><trkpt lat="24.30423966783827" lon="120.59025468476273"><ele>42.0</ele><time>2026-03-22T07:42:50Z</time></trkpt><trkpt lat="24.3042148662733" lon="120.59014720582957"><ele>42.0</ele><time>2026-03-22T07:42:51Z</time></trkpt><trkpt lat="24.30418931203272" lon="120.5900360344707"><ele>41.25</ele><time>2026-03-22T07:42:52Z</time></trkpt><trkpt lat="24.30416203801903" lon="120.58992349970586"><ele>40.5</ele><time>2026-03-22T07:42:53Z</time></trkpt><trkpt lat="24.304130892787256" lon="120.58980505679102"><ele>39.75</ele><time>2026-03-22T07:42:54Z</time></trkpt><trkpt lat="24.30409593373997" lon="120.58967925323374"><ele>39.0</ele><time>2026-03-22T07:42:55Z</time></trkpt><trkpt lat="24.304058549375814" lon="120.5895442909079"><ele>39.0</ele><time>2026-03-22T07:42:56Z</time></trkpt><trkpt lat="24.30401940648082" lon="120.58940385600314"><ele>39.0</ele><time>2026-03-22T07:42:57Z</time></trkpt><trkpt lat="24.303979594501357" lon="120.58926275112495"><ele>39.0</ele><time>2026-03-22T07:42:58Z</time></trkpt><trkpt lat="24.303941202188973" lon="120.58911922843136"><ele>39.0</ele><time>2026-03-22T07:42:59Z</time></trkpt><trkpt lat="24.303902013690834" lon="120.58897023929039"><ele>39.0</ele><time>2026-03-22T07:43:00Z</time></trkpt><trkpt lat="24.303863620105254" lon="120.58882051575073"><ele>39.0</ele><time>2026-03-22T07:43:01Z</time></trkpt><trkpt lat="24.303824955862577" lon="120.58867173224701"><ele>39.0</ele><time>2026-03-22T07:43:02Z</time></trkpt><trkpt lat="24.30378553874869" lon="120.58852290449684"><ele>39.0</ele><time>2026-03-22T07:43:03Z</time></trkpt><trkpt lat="24.303746197187" lon="120.58837465108442"><ele>39.0</ele><time>2026-03-22T07:43:04Z</time></trkpt><trkpt lat="24.303706283416844" lon="120.58822571296368"><ele>39.0</ele><time>2026-03-22T07:43:05Z</time></trkpt><trkpt lat="24.303666540828477" lon="120.58807853227353"><ele>39.0</ele><time>2026-03-22T07:43:06Z</time></trkpt><trkpt lat="24.30362611688054" lon="120.5879292885649"><ele>39.0</ele><time>2026-03-22T07:43:07Z</time></trkpt><trkpt lat="24.303585155613685" lon="120.58777790679086"><ele>38.333333333333336</ele><time>2026-03-22T07:43:08Z</time></trkpt><trkpt lat="24.30354209510473" lon="120.58762026957162"><ele>37.66666666666667</ele><time>2026-03-22T07:43:09Z</time></trkpt><trkpt lat="24.30349794778832" lon="120.58745603632191"><ele>37.0</ele><time>2026-03-22T07:43:10Z</time></trkpt><trkpt lat="24.303453531207488" lon="120.58728663789013"><ele>37.0</ele><time>2026-03-22T07:43:11Z</time></trkpt><trkpt lat="24.30340603932217" lon="120.58711187397404"><ele>37.0</ele><time>2026-03-22T07:43:12Z</time></trkpt><trkpt lat="24.303354588574226" lon="120.58693207934981"><ele>37.0</ele><time>2026-03-22T07:43:13Z</time></trkpt><trkpt lat="24.303303809586225" lon="120.58675277499513"><ele>36.333333333333336</ele><time>2026-03-22T07:43:14Z</time></trkpt><trkpt lat="24.30325296471375" lon="120.5865716126588"><ele>35.666666666666664</ele><time>2026-03-22T07:43:15Z</time></trkpt><trkpt lat="24.30320326127174" lon="120.58638914346045"><ele>35.0</ele><time>2026-03-22T07:43:16Z</time></trkpt><trkpt lat="24.30315509769939" lon="120.58620758490976"><ele>35.0</ele><time>2026-03-22T07:43:17Z</time></trkpt><trkpt lat="24.303107212630596" lon="120.58602756984189"><ele>35.0</ele><time>2026-03-22T07:43:18Z</time></trkpt><trkpt lat="24.303060425815044" lon="120.58585293494811"><ele>35.0</ele><time>2026-03-22T07:43:19Z</time></trkpt><trkpt lat="24.303015660358753" lon="120.58568183514163"><ele>35.0</ele><time>2026-03-22T07:43:20Z</time></trkpt><trkpt lat="24.302971989994717" lon="120.5855156987404"><ele>35.0</ele><time>2026-03-22T07:43:21Z</time></trkpt><trkpt lat="24.30292840777719" lon="120.58535262945104"><ele>35.0</ele><time>2026-03-22T07:43:22Z</time></trkpt><trkpt lat="24.302886988335977" lon="120.58519439893423"><ele>35.0</ele><time>2026-03-22T07:43:23Z</time></trkpt><trkpt lat="24.30284669557358" lon="120.58504233991845"><ele>35.0</ele><time>2026-03-22T07:43:24Z</time></trkpt><trkpt lat="24.302805761243892" lon="120.58489092336421"><ele>35.0</ele><time>2026-03-22T07:43:25Z</time></trkpt><trkpt lat="24.30276421362548" lon="120.5847380428973"><ele>35.0</ele><time>2026-03-22T07:43:26Z</time></trkpt><trkpt lat="24.302720811782635" lon="120.58457993637158"><ele>34.666666666666664</ele><time>2026-03-22T07:43:27Z</time></trkpt><trkpt lat="24.302677314411234" lon="120.58442141373499"><ele>34.333333333333336</ele><time>2026-03-22T07:43:28Z</time></trkpt><trkpt lat="24.302635087047666" lon="120.58426288969882"><ele>34.0</ele><time>2026-03-22T07:43:28.999Z</time></trkpt><trkpt lat="24.30259130897441" lon="120.58410199646731"><ele>34.0</ele><time>2026-03-22T07:43:29.999Z</time></trkpt><trkpt lat="24.302546373179485" lon="120.58393991649038"><ele>34.0</ele><time>2026-03-22T07:43:30.999Z</time></trkpt><trkpt lat="24.302500634113983" lon="120.58377418095925"><ele>34.0</ele><time>2026-03-22T07:43:31.999Z</time></trkpt><trkpt lat="24.30245435518525" lon="120.58360914102542"><ele>33.333333333333336</ele><time>2026-03-22T07:43:32.999Z</time></trkpt><trkpt lat="24.302409351237305" lon="120.58344384367167"><ele>32.666666666666664</ele><time>2026-03-22T07:43:33.999Z</time></trkpt><trkpt lat="24.302364081081663" lon="120.58327618799598"><ele>32.0</ele><time>2026-03-22T07:43:34.999Z</time></trkpt><trkpt lat="24.30231835024229" lon="120.58310623695203"><ele>32.0</ele><time>2026-03-22T07:43:35.999Z</time></trkpt><trkpt lat="24.30227265503578" lon="120.58293743613457"><ele>32.0</ele><time>2026-03-22T07:43:36.999Z</time></trkpt><trkpt lat="24.302225708653882" lon="120.58276589780033"><ele>32.0</ele><time>2026-03-22T07:43:37.999Z</time></trkpt><trkpt lat="24.302177446403817" lon="120.58258972938232"><ele>32.0</ele><time>2026-03-22T07:43:39Z</time></trkpt><trkpt lat="24.302128209541063" lon="120.58241121174926"><ele>32.0</ele><time>2026-03-22T07:43:40Z</time></trkpt><trkpt lat="24.30208014418599" lon="120.5822329006691"><ele>32.0</ele><time>2026-03-22T07:43:41Z</time></trkpt><trkpt lat="24.302031287993234" lon="120.58205456737755"><ele>32.33333333333333</ele><time>2026-03-22T07:43:42Z</time></trkpt><trkpt lat="24.301982781302115" lon="120.58187633103572"><ele>32.666666666666664</ele><time>2026-03-22T07:43:43Z</time></trkpt><trkpt lat="24.30193442839272" lon="120.58169904032158"><ele>33.0</ele><time>2026-03-22T07:43:44Z</time></trkpt><trkpt lat="24.30188649076815" lon="120.5815211429857"><ele>33.0</ele><time>2026-03-22T07:43:45Z</time></trkpt><trkpt lat="24.301838981381444" lon="120.58134468446562"><ele>33.0</ele><time>2026-03-22T07:43:46Z</time></trkpt><trkpt lat="24.301790511569756" lon="120.58116886509453"><ele>33.0</ele><time>2026-03-22T07:43:47Z</time></trkpt><trkpt lat="24.30174304866664" lon="120.58099259494465"><ele>32.0</ele><time>2026-03-22T07:43:48Z</time></trkpt><trkpt lat="24.301695704422695" lon="120.58081959018347"><ele>31.0</ele><time>2026-03-22T07:43:49Z</time></trkpt><trkpt lat="24.301650094287304" lon="120.58065120457644"><ele>30.0</ele><time>2026-03-22T07:43:50Z</time></trkpt><trkpt lat="24.301604420334424" lon="120.5804843117062"><ele>30.0</ele><time>2026-03-22T07:43:51Z</time></trkpt><trkpt lat="24.301560458485692" lon="120.58032027772937"><ele>30.0</ele><time>2026-03-22T07:43:52Z</time></trkpt><trkpt lat="24.301517448883093" lon="120.580160333233"><ele>30.0</ele><time>2026-03-22T07:43:53Z</time></trkpt><trkpt lat="24.30147446888282" lon="120.58000183295489"><ele>29.666666666666664</ele><time>2026-03-22T07:43:54Z</time></trkpt><trkpt lat="24.301393991299456" lon="120.57985664291856"><ele>29.333333333333332</ele><time>2026-03-22T07:43:55Z</time></trkpt><trkpt lat="24.301350622145748" lon="120.5796977512886"><ele>29.0</ele><time>2026-03-22T07:43:56Z</time></trkpt><trkpt lat="24.301305850628367" lon="120.57953482566809"><ele>29.0</ele><time>2026-03-22T07:43:57Z</time></trkpt><trkpt lat="24.301259656114123" lon="120.57936724628193"><ele>29.0</ele><time>2026-03-22T07:43:58Z</time></trkpt><trkpt lat="24.301210880720753" lon="120.57919030425894"><ele>29.0</ele><time>2026-03-22T07:43:59Z</time></trkpt><trkpt lat="24.30116269415327" lon="120.5790153130776"><ele>29.0</ele><time>2026-03-22T07:44:00Z</time></trkpt><trkpt lat="24.30111487681612" lon="120.57884158902552"><ele>29.0</ele><time>2026-03-22T07:44:01Z</time></trkpt><trkpt lat="24.301067269435745" lon="120.57866862776832"><ele>29.0</ele><time>2026-03-22T07:44:02Z</time></trkpt><trkpt lat="24.301020174571388" lon="120.57849744392402"><ele>28.0</ele><time>2026-03-22T07:44:03Z</time></trkpt><trkpt lat="24.300973478284547" lon="120.57832731216644"><ele>27.0</ele><time>2026-03-22T07:44:04Z</time></trkpt><trkpt lat="24.300926999648045" lon="120.57815797385304"><ele>26.0</ele><time>2026-03-22T07:44:05Z</time></trkpt><trkpt lat="24.300881122529034" lon="120.57798904385672"><ele>25.666666666666664</ele><time>2026-03-22T07:44:06Z</time></trkpt><trkpt lat="24.30087541407885" lon="120.5778078359955"><ele>25.333333333333336</ele><time>2026-03-22T07:44:07Z</time></trkpt><trkpt lat="24.300829354064486" lon="120.57763540751556"><ele>25.0</ele><time>2026-03-22T07:44:08Z</time></trkpt><trkpt lat="24.300782694049918" lon="120.57746130727"><ele>25.0</ele><time>2026-03-22T07:44:09Z</time></trkpt><trkpt lat="24.300735558130224" lon="120.5772869794246"><ele>25.0</ele><time>2026-03-22T07:44:10Z</time></trkpt><trkpt lat="24.300688194364454" lon="120.57711563434513"><ele>25.0</ele><time>2026-03-22T07:44:11Z</time></trkpt><trkpt lat="24.30064152475028" lon="120.57694606537504"><ele>24.333333333333336</ele><time>2026-03-22T07:44:12Z</time></trkpt><trkpt lat="24.300595410661824" lon="120.57677535231562"><ele>23.666666666666668</ele><time>2026-03-22T07:44:13Z</time></trkpt><trkpt lat="24.300549845666783" lon="120.57660670557254"><ele>23.0</ele><time>2026-03-22T07:44:14Z</time></trkpt><trkpt lat="24.300504560226493" lon="120.57643839215781"><ele>23.0</ele><time>2026-03-22T07:44:15Z</time></trkpt><trkpt lat="24.30046004070454" lon="120.57627171193306"><ele>23.0</ele><time>2026-03-22T07:44:16Z</time></trkpt><trkpt lat="24.30041577414927" lon="120.57610802868228"><ele>23.0</ele><time>2026-03-22T07:44:17Z</time></trkpt><trkpt lat="24.300373551406217" lon="120.57595030155123"><ele>23.25</ele><time>2026-03-22T07:44:18Z</time></trkpt><trkpt lat="24.30033222028301" lon="120.5757978907705"><ele>23.5</ele><time>2026-03-22T07:44:19Z</time></trkpt><trkpt lat="24.300293386759694" lon="120.57565246846012"><ele>23.75</ele><time>2026-03-22T07:44:20Z</time></trkpt><trkpt lat="24.30025615562641" lon="120.5755144421371"><ele>24.0</ele><time>2026-03-22T07:44:21Z</time></trkpt><trkpt lat="24.300220974529115" lon="120.575382508699"><ele>23.5</ele><time>2026-03-22T07:44:22Z</time></trkpt><trkpt lat="24.300186188687157" lon="120.5752531334557"><ele>23.0</ele><time>2026-03-22T07:44:23Z</time></trkpt><trkpt lat="24.30015062383311" lon="120.57512586696963"><ele>22.5</ele><time>2026-03-22T07:44:24Z</time></trkpt><trkpt lat="24.30011714229736" lon="120.57500178100837"><ele>22.0</ele><time>2026-03-22T07:44:25Z</time></trkpt><trkpt lat="24.30008482688307" lon="120.57488166920753"><ele>22.0</ele><time>2026-03-22T07:44:26Z</time></trkpt><trkpt lat="24.300051650295625" lon="120.57476096187638"><ele>22.0</ele><time>2026-03-22T07:44:27Z</time></trkpt><trkpt lat="24.300019517767314" lon="120.57463962504528"><ele>22.0</ele><time>2026-03-22T07:44:28Z</time></trkpt><trkpt lat="24.29998913149285" lon="120.57452083445546"><ele>22.0</ele><time>2026-03-22T07:44:29Z</time></trkpt><trkpt lat="24.299955990941445" lon="120.57439914099268"><ele>22.25</ele><time>2026-03-22T07:44:30Z</time></trkpt><trkpt lat="24.29992227829561" lon="120.57427092129944"><ele>22.5</ele><time>2026-03-22T07:44:31Z</time></trkpt><trkpt lat="24.299884929665907" lon="120.57413714327315"><ele>22.75</ele><time>2026-03-22T07:44:32Z</time></trkpt><trkpt lat="24.299847398030952" lon="120.57400024637154"><ele>23.0</ele><time>2026-03-22T07:44:33Z</time></trkpt><trkpt lat="24.299811159835865" lon="120.57386609869305"><ele>23.0</ele><time>2026-03-22T07:44:34Z</time></trkpt><trkpt lat="24.299775385441293" lon="120.57373251512828"><ele>23.0</ele><time>2026-03-22T07:44:35Z</time></trkpt><trkpt lat="24.299738753881698" lon="120.57359824028694"><ele>23.0</ele><time>2026-03-22T07:44:36Z</time></trkpt><trkpt lat="24.299701492282235" lon="120.57346001379717"><ele>23.0</ele><time>2026-03-22T07:44:37Z</time></trkpt><trkpt lat="24.29966302767225" lon="120.57331901891733"><ele>22.0</ele><time>2026-03-22T07:44:38Z</time></trkpt><trkpt lat="24.299624707993917" lon="120.57317764252723"><ele>21.0</ele><time>2026-03-22T07:44:39Z</time></trkpt><trkpt lat="24.29958613771393" lon="120.57303449646463"><ele>20.0</ele><time>2026-03-22T07:44:40Z</time></trkpt><trkpt lat="24.299545563411293" lon="120.5728896737667"><ele>19.0</ele><time>2026-03-22T07:44:41Z</time></trkpt><trkpt lat="24.29950585497197" lon="120.57274240861692"><ele>18.5</ele><time>2026-03-22T07:44:42Z</time></trkpt><trkpt lat="24.299465269482685" lon="120.57259330025315"><ele>18.0</ele><time>2026-03-22T07:44:43Z</time></trkpt><trkpt lat="24.29942464187857" lon="120.57244586144073"><ele>17.5</ele><time>2026-03-22T07:44:44Z</time></trkpt><trkpt lat="24.299385460802572" lon="120.57229910280844"><ele>17.0</ele><time>2026-03-22T07:44:45Z</time></trkpt><trkpt lat="24.299343297645663" lon="120.57214990969788"><ele>16.25</ele><time>2026-03-22T07:44:46Z</time></trkpt><trkpt lat="24.299302487215332" lon="120.57200238354972"><ele>15.5</ele><time>2026-03-22T07:44:47Z</time></trkpt><trkpt lat="24.299262447493895" lon="120.57185682184753"><ele>14.75</ele><time>2026-03-22T07:44:48Z</time></trkpt><trkpt lat="24.299222429838633" lon="120.57171195145455"><ele>14.0</ele><time>2026-03-22T07:44:49Z</time></trkpt><trkpt lat="24.299183571754273" lon="120.57156813147647"><ele>14.0</ele><time>2026-03-22T07:44:50Z</time></trkpt><trkpt lat="24.299145035601303" lon="120.5714262342523"><ele>14.0</ele><time>2026-03-22T07:44:51Z</time></trkpt><trkpt lat="24.29910634961333" lon="120.57128340785097"><ele>14.0</ele><time>2026-03-22T07:44:52Z</time></trkpt><trkpt lat="24.2990663573918" lon="120.57113774276618"><ele>14.0</ele><time>2026-03-22T07:44:53Z</time></trkpt><trkpt lat="24.299026086057342" lon="120.57099165402991"><ele>14.25</ele><time>2026-03-22T07:44:54Z</time></trkpt><trkpt lat="24.29898599365311" lon="120.5708474971054"><ele>14.5</ele><time>2026-03-22T07:44:55Z</time></trkpt><trkpt lat="24.298946121411273" lon="120.57070304197886"><ele>14.75</ele><time>2026-03-22T07:44:56Z</time></trkpt><trkpt lat="24.298906983271788" lon="120.57055981397983"><ele>15.0</ele><time>2026-03-22T07:44:57Z</time></trkpt><trkpt lat="24.298868705232294" lon="120.57041818105043"><ele>14.5</ele><time>2026-03-22T07:44:58Z</time></trkpt><trkpt lat="24.29883136485742" lon="120.57027792309563"><ele>14.0</ele><time>2026-03-22T07:44:59Z</time></trkpt><trkpt lat="24.298794248549903" lon="120.57013887677978"><ele>13.5</ele><time>2026-03-22T07:45:00Z</time></trkpt><trkpt lat="24.298756612717725" lon="120.56999992173337"><ele>13.0</ele><time>2026-03-22T07:45:01Z</time></trkpt><trkpt lat="24.298719980362176" lon="120.56986236564845"><ele>13.0</ele><time>2026-03-22T07:45:02Z</time></trkpt><trkpt lat="24.29868315133055" lon="120.56972591360234"><ele>13.0</ele><time>2026-03-22T07:45:03Z</time></trkpt><trkpt lat="24.298645259784283" lon="120.569588133148"><ele>13.0</ele><time>2026-03-22T07:45:04Z</time></trkpt><trkpt lat="24.298607692191577" lon="120.56945157632282"><ele>13.0</ele><time>2026-03-22T07:45:05Z</time></trkpt><trkpt lat="24.29857050431855" lon="120.56931581770274"><ele>12.75</ele><time>2026-03-22T07:45:06Z</time></trkpt><trkpt lat="24.298533262330796" lon="120.5691798308354"><ele>12.5</ele><time>2026-03-22T07:45:07Z</time></trkpt><trkpt lat="24.298495807820053" lon="120.56904460718941"><ele>12.25</ele><time>2026-03-22T07:45:08Z</time></trkpt><trkpt lat="24.29845855596552" lon="120.56891048680131"><ele>12.0</ele><time>2026-03-22T07:45:09Z</time></trkpt><trkpt lat="24.298422652914713" lon="120.56877705679707"><ele>12.0</ele><time>2026-03-22T07:45:10Z</time></trkpt><trkpt lat="24.298387140239406" lon="120.56864359340847"><ele>12.0</ele><time>2026-03-22T07:45:11Z</time></trkpt><trkpt lat="24.29835203390483" lon="120.56851089560621"><ele>12.0</ele><time>2026-03-22T07:45:12Z</time></trkpt><trkpt lat="24.298316101725835" lon="120.56837849185045"><ele>12.0</ele><time>2026-03-22T07:45:13Z</time></trkpt><trkpt lat="24.298279484721238" lon="120.56824618092439"><ele>12.0</ele><time>2026-03-22T07:45:14Z</time></trkpt><trkpt lat="24.298243197930926" lon="120.56811414970754"><ele>12.0</ele><time>2026-03-22T07:45:15Z</time></trkpt><trkpt lat="24.298207131909493" lon="120.56798114116593"><ele>12.0</ele><time>2026-03-22T07:45:16Z</time></trkpt><trkpt lat="24.298172031029804" lon="120.56785040120448"><ele>12.0</ele><time>2026-03-22T07:45:17Z</time></trkpt><trkpt lat="24.298136645593644" lon="120.56771990008745"><ele>11.75</ele><time>2026-03-22T07:45:18Z</time></trkpt><trkpt lat="24.29810164745528" lon="120.56759084224365"><ele>11.5</ele><time>2026-03-22T07:45:19Z</time></trkpt><trkpt lat="24.298066431801107" lon="120.56746191952082"><ele>11.25</ele><time>2026-03-22T07:45:20Z</time></trkpt><trkpt lat="24.298031661367613" lon="120.56733429761435"><ele>11.0</ele><time>2026-03-22T07:45:21Z</time></trkpt><trkpt lat="24.297997305045957" lon="120.56720660708665"><ele>11.0</ele><time>2026-03-22T07:45:22Z</time></trkpt><trkpt lat="24.297962807724304" lon="120.56707914072075"><ele>11.0</ele><time>2026-03-22T07:45:23Z</time></trkpt><trkpt lat="24.29792855225151" lon="120.56695319496832"><ele>11.0</ele><time>2026-03-22T07:45:24Z</time></trkpt><trkpt lat="24.297895194854995" lon="120.56683100355211"><ele>11.0</ele><time>2026-03-22T07:45:25Z</time></trkpt><trkpt lat="24.297863706878296" lon="120.56671379117411"><ele>10.8</ele><time>2026-03-22T07:45:26Z</time></trkpt><trkpt lat="24.297833348970308" lon="120.56660225009834"><ele>10.600000000000001</ele><time>2026-03-22T07:45:26.999Z</time></trkpt><trkpt lat="24.29780410597958" lon="120.56649712211203"><ele>10.4</ele><time>2026-03-22T07:45:27.999Z</time></trkpt><trkpt lat="24.29777654481265" lon="120.5663950677809"><ele>10.2</ele><time>2026-03-22T07:45:28.999Z</time></trkpt><trkpt lat="24.297749406884034" lon="120.56629655397911"><ele>10.0</ele><time>2026-03-22T07:45:29.999Z</time></trkpt><trkpt lat="24.29772393065365" lon="120.56620290709921"><ele>10.0</ele><time>2026-03-22T07:45:30.999Z</time></trkpt><trkpt lat="24.297700294285484" lon="120.56611639652628"><ele>10.0</ele><time>2026-03-22T07:45:31.999Z</time></trkpt><trkpt lat="24.297678024389725" lon="120.5660353247231"><ele>10.0</ele><time>2026-03-22T07:45:32.999Z</time></trkpt><trkpt lat="24.29765654008075" lon="120.5659569321803"><ele>10.0</ele><time>2026-03-22T07:45:33.999Z</time></trkpt><trkpt lat="24.297637087735733" lon="120.56588405108165"><ele>10.0</ele><time>2026-03-22T07:45:34.999Z</time></trkpt><trkpt lat="24.297604912068596" lon="120.5657644062129"><ele>10.0</ele><time>2026-03-22T07:45:36.999Z</time></trkpt><trkpt lat="24.297576999815565" lon="120.56566144028506"><ele>10.0</ele><time>2026-03-22T07:45:38.999Z</time></trkpt><trkpt lat="24.297553408493147" lon="120.56557560378509"><ele>10.0</ele><time>2026-03-22T07:45:40.999Z</time></trkpt><trkpt lat="24.297522518862493" lon="120.56547951915815"><ele>10.0</ele><time>2026-03-22T07:45:43.999Z</time></trkpt><trkpt lat="24.2975044266673" lon="120.56541221392303"><ele>10.0</ele><time>2026-03-22T07:45:47Z</time></trkpt><trkpt lat="24.297477447276332" lon="120.5653141923323"><ele>10.0</ele><time>2026-03-22T07:45:50Z</time></trkpt><trkpt lat="24.29745362240599" lon="120.5652188863525"><ele>10.0</ele><time>2026-03-22T07:45:52Z</time></trkpt><trkpt lat="24.29742233597676" lon="120.5650851842227"><ele>10.0</ele><time>2026-03-22T07:45:54Z</time></trkpt><trkpt lat="24.297392425544245" lon="120.56500639934083"><ele>10.0</ele><time>2026-03-22T07:45:55Z</time></trkpt><trkpt lat="24.297371985910864" lon="120.56492957442353"><ele>10.0</ele><time>2026-03-22T07:45:56Z</time></trkpt><trkpt lat="24.29734996300378" lon="120.5648492998273"><ele>10.0</ele><time>2026-03-22T07:45:57Z</time></trkpt><trkpt lat="24.29732645871799" lon="120.56476497158921"><ele>10.0</ele><time>2026-03-22T07:45:58Z</time></trkpt><trkpt lat="24.29730303262291" lon="120.56468210667532"><ele>10.0</ele><time>2026-03-22T07:45:59Z</time></trkpt><trkpt lat="24.297276684502144" lon="120.56459069681713"><ele>10.0</ele><time>2026-03-22T07:46:00Z</time></trkpt><trkpt lat="24.297248453631106" lon="120.56448982509504"><ele>10.0</ele><time>2026-03-22T07:46:01Z</time></trkpt><trkpt lat="24.2972203595595" lon="120.56437986089459"><ele>10.0</ele><time>2026-03-22T07:46:02Z</time></trkpt><trkpt lat="24.297189583905297" lon="120.56426987297053"><ele>10.0</ele><time>2026-03-22T07:46:03Z</time></trkpt><trkpt lat="24.297160360836294" lon="120.5641612097051"><ele>10.0</ele><time>2026-03-22T07:46:04Z</time></trkpt><trkpt lat="24.29713006644068" lon="120.56404547008196"><ele>10.0</ele><time>2026-03-22T07:46:05Z</time></trkpt><trkpt lat="24.29709808166182" lon="120.5639226918916"><ele>10.0</ele><time>2026-03-22T07:46:06Z</time></trkpt><trkpt lat="24.297064295092916" lon="120.56379584724783"><ele>10.0</ele><time>2026-03-22T07:46:07Z</time></trkpt><trkpt lat="24.29702792594719" lon="120.56366293335653"><ele>10.0</ele><time>2026-03-22T07:46:08Z</time></trkpt><trkpt lat="24.296988342822605" lon="120.56352565128059"><ele>9.5</ele><time>2026-03-22T07:46:09Z</time></trkpt><trkpt lat="24.296948668303088" lon="120.56338412179082"><ele>9.0</ele><time>2026-03-22T07:46:10Z</time></trkpt><trkpt lat="24.296908641824373" lon="120.56324352638461"><ele>8.5</ele><time>2026-03-22T07:46:11Z</time></trkpt><trkpt lat="24.296868987339955" lon="120.56310180222849"><ele>8.0</ele><time>2026-03-22T07:46:12Z</time></trkpt><trkpt lat="24.2968300504287" lon="120.56295712640481"><ele>8.5</ele><time>2026-03-22T07:46:13Z</time></trkpt><trkpt lat="24.296790546789317" lon="120.5628142470195"><ele>9.0</ele><time>2026-03-22T07:46:14Z</time></trkpt><trkpt lat="24.29675249434335" lon="120.56267051471882"><ele>9.5</ele><time>2026-03-22T07:46:15Z</time></trkpt><trkpt lat="24.296714311175425" lon="120.56252563784835"><ele>10.0</ele><time>2026-03-22T07:46:16Z</time></trkpt><trkpt lat="24.2966737811417" lon="120.56237961701382"><ele>10.0</ele><time>2026-03-22T07:46:17Z</time></trkpt><trkpt lat="24.296634128740028" lon="120.56223132437295"><ele>10.0</ele><time>2026-03-22T07:46:18Z</time></trkpt><trkpt lat="24.296593768591332" lon="120.56208510408541"><ele>10.0</ele><time>2026-03-22T07:46:19Z</time></trkpt><trkpt lat="24.296553198355465" lon="120.56193995107026"><ele>10.0</ele><time>2026-03-22T07:46:20Z</time></trkpt><trkpt lat="24.296512565224642" lon="120.56179415206421"><ele>9.5</ele><time>2026-03-22T07:46:21Z</time></trkpt><trkpt lat="24.29647298850779" lon="120.56164621439534"><ele>9.0</ele><time>2026-03-22T07:46:22Z</time></trkpt><trkpt lat="24.296431521602862" lon="120.56149142094895"><ele>8.5</ele><time>2026-03-22T07:46:23Z</time></trkpt><trkpt lat="24.296390226456783" lon="120.56133846299979"><ele>8.0</ele><time>2026-03-22T07:46:24Z</time></trkpt><trkpt lat="24.296348790640646" lon="120.56118744442911"><ele>8.0</ele><time>2026-03-22T07:46:25Z</time></trkpt><trkpt lat="24.296306651060092" lon="120.56103453463646"><ele>8.0</ele><time>2026-03-22T07:46:26Z</time></trkpt><trkpt lat="24.296264438991198" lon="120.56087679807571"><ele>8.0</ele><time>2026-03-22T07:46:27Z</time></trkpt><trkpt lat="24.29622201851659" lon="120.56071650223446"><ele>8.0</ele><time>2026-03-22T07:46:28Z</time></trkpt><trkpt lat="24.296179360013674" lon="120.56055222195845"><ele>8.0</ele><time>2026-03-22T07:46:29Z</time></trkpt><trkpt lat="24.296136896280025" lon="120.56038429318686"><ele>8.0</ele><time>2026-03-22T07:46:30Z</time></trkpt><trkpt lat="24.29609089712645" lon="120.56021481669542"><ele>8.0</ele><time>2026-03-22T07:46:31Z</time></trkpt><trkpt lat="24.296042701803636" lon="120.56004596958697"><ele>7.666666666666666</ele><time>2026-03-22T07:46:32Z</time></trkpt><trkpt lat="24.295998483480425" lon="120.55987900561453"><ele>7.333333333333334</ele><time>2026-03-22T07:46:33Z</time></trkpt><trkpt lat="24.29595173572817" lon="120.55971476071929"><ele>7.0</ele><time>2026-03-22T07:46:34Z</time></trkpt><trkpt lat="24.29590838352386" lon="120.55955174108773"><ele>7.0</ele><time>2026-03-22T07:46:35Z</time></trkpt><trkpt lat="24.295864176751415" lon="120.5593874910136"><ele>7.0</ele><time>2026-03-22T07:46:36Z</time></trkpt><trkpt lat="24.295820005817173" lon="120.55922398911181"><ele>7.0</ele><time>2026-03-22T07:46:37Z</time></trkpt><trkpt lat="24.295774981993542" lon="120.55906333714051"><ele>7.0</ele><time>2026-03-22T07:46:38Z</time></trkpt><trkpt lat="24.295729667444455" lon="120.55890299697386"><ele>7.0</ele><time>2026-03-22T07:46:39Z</time></trkpt><trkpt lat="24.295686382286274" lon="120.55874269177922"><ele>7.0</ele><time>2026-03-22T07:46:40Z</time></trkpt><trkpt lat="24.29564206776441" lon="120.55858206923861"><ele>6.5</ele><time>2026-03-22T07:46:41Z</time></trkpt><trkpt lat="24.295597653646613" lon="120.55842418954755"><ele>6.0</ele><time>2026-03-22T07:46:42Z</time></trkpt><trkpt lat="24.2955536231961" lon="120.55826781286719"><ele>5.5</ele><time>2026-03-22T07:46:43Z</time></trkpt><trkpt lat="24.29551106934499" lon="120.55811210802774"><ele>5.0</ele><time>2026-03-22T07:46:44Z</time></trkpt><trkpt lat="24.295468848506246" lon="120.55795807626261"><ele>5.25</ele><time>2026-03-22T07:46:45Z</time></trkpt><trkpt lat="24.29542680608537" lon="120.55780640879672"><ele>5.5</ele><time>2026-03-22T07:46:46Z</time></trkpt><trkpt lat="24.29538712056911" lon="120.55765495698726"><ele>5.75</ele><time>2026-03-22T07:46:47Z</time></trkpt><trkpt lat="24.295345609088432" lon="120.55750515963145"><ele>6.0</ele><time>2026-03-22T07:46:48Z</time></trkpt><trkpt lat="24.295305376207768" lon="120.55735698233713"><ele>6.0</ele><time>2026-03-22T07:46:49Z</time></trkpt><trkpt lat="24.295265443324276" lon="120.55721123222708"><ele>6.0</ele><time>2026-03-22T07:46:50Z</time></trkpt><trkpt lat="24.295226919882094" lon="120.55706544067196"><ele>6.0</ele><time>2026-03-22T07:46:51Z</time></trkpt><trkpt lat="24.295188439056563" lon="120.5569212329547"><ele>6.0</ele><time>2026-03-22T07:46:52Z</time></trkpt><trkpt lat="24.295150555350723" lon="120.55677889041925"><ele>6.0</ele><time>2026-03-22T07:46:53Z</time></trkpt><trkpt lat="24.295113511282555" lon="120.55663712339336"><ele>6.0</ele><time>2026-03-22T07:46:54Z</time></trkpt><trkpt lat="24.295076220874055" lon="120.55649786127579"><ele>6.0</ele><time>2026-03-22T07:46:54.999Z</time></trkpt><trkpt lat="24.295041521667414" lon="120.55636336691319"><ele>6.0</ele><time>2026-03-22T07:46:55.999Z</time></trkpt><trkpt lat="24.295009185301435" lon="120.55623722540318"><ele>5.3999999999999995</ele><time>2026-03-22T07:46:56.999Z</time></trkpt><trkpt lat="24.29497783849974" lon="120.5561164348281"><ele>4.8</ele><time>2026-03-22T07:46:57.999Z</time></trkpt><trkpt lat="24.294948308860377" lon="120.55600498766397"><ele>4.199999999999999</ele><time>2026-03-22T07:46:58.999Z</time></trkpt><trkpt lat="24.294919148661787" lon="120.55589498377896"><ele>3.5999999999999996</ele><time>2026-03-22T07:46:59.999Z</time></trkpt><trkpt lat="24.294890633854276" lon="120.55578572435871"><ele>3.0</ele><time>2026-03-22T07:47:00.999Z</time></trkpt><trkpt lat="24.294862243898432" lon="120.5556844452968"><ele>3.0</ele><time>2026-03-22T07:47:01.999Z</time></trkpt><trkpt lat="24.294836591047808" lon="120.55559296006743"><ele>3.0</ele><time>2026-03-22T07:47:02.999Z</time></trkpt><trkpt lat="24.294817428644354" lon="120.55551043285219"><ele>3.0</ele><time>2026-03-22T07:47:03.999Z</time></trkpt><trkpt lat="24.294812924428427" lon="120.55543533934205"><ele>3.0</ele><time>2026-03-22T07:47:04.999Z</time></trkpt><trkpt lat="24.29477085494689" lon="120.55533102573432"><ele>3.0</ele><time>2026-03-22T07:47:06.999Z</time></trkpt><trkpt lat="24.294921127248138" lon="120.555244254694"><ele>3.0</ele><time>2026-03-22T07:47:08.999Z</time></trkpt><trkpt lat="24.294984003866272" lon="120.55515110908462"><ele>3.0</ele><time>2026-03-22T07:47:10.999Z</time></trkpt><trkpt lat="24.295068672323406" lon="120.55505997455776"><ele>3.0</ele><time>2026-03-22T07:47:12.999Z</time></trkpt><trkpt lat="24.295113072081087" lon="120.55499983229868"><ele>3.0</ele><time>2026-03-22T07:47:13.999Z</time></trkpt><trkpt lat="24.29515971642143" lon="120.55493500089247"><ele>3.0</ele><time>2026-03-22T07:47:14.999Z</time></trkpt><trkpt lat="24.295205975367733" lon="120.55486887016666"><ele>3.0</ele><time>2026-03-22T07:47:15.999Z</time></trkpt><trkpt lat="24.29524861148433" lon="120.55479825187864"><ele>3.0</ele><time>2026-03-22T07:47:16.999Z</time></trkpt><trkpt lat="24.2952894896928" lon="120.55472427605277"><ele>3.0</ele><time>2026-03-22T07:47:17.999Z</time></trkpt><trkpt lat="24.295333950669075" lon="120.55464467050673"><ele>3.0</ele><time>2026-03-22T07:47:18.999Z</time></trkpt><trkpt lat="24.295377415352853" lon="120.55456279973188"><ele>3.0</ele><time>2026-03-22T07:47:19.999Z</time></trkpt><trkpt lat="24.295420177238316" lon="120.55447941453636"><ele>3.0</ele><time>2026-03-22T07:47:20.999Z</time></trkpt><trkpt lat="24.295462670571343" lon="120.5543945248601"><ele>3.0</ele><time>2026-03-22T07:47:22Z</time></trkpt><trkpt lat="24.295506759315728" lon="120.55431033420304"><ele>3.2</ele><time>2026-03-22T07:47:23Z</time></trkpt><trkpt lat="24.295552698592406" lon="120.55422602789456"><ele>3.4</ele><time>2026-03-22T07:47:24Z</time></trkpt><trkpt lat="24.29559774328125" lon="120.55413844777091"><ele>3.6000000000000005</ele><time>2026-03-22T07:47:25Z</time></trkpt><trkpt lat="24.2956434414953" lon="120.55404745042668"><ele>3.8000000000000003</ele><time>2026-03-22T07:47:26Z</time></trkpt><trkpt lat="24.29569349377145" lon="120.55395307148731"><ele>4.0</ele><time>2026-03-22T07:47:27Z</time></trkpt><trkpt lat="24.295740347793693" lon="120.55386295812463"><ele>3.9999999999999996</ele><time>2026-03-22T07:47:28Z</time></trkpt><trkpt lat="24.295786006612794" lon="120.55377665559728"><ele>4.0</ele><time>2026-03-22T07:47:29Z</time></trkpt><trkpt lat="24.295828556036025" lon="120.55369029589082"><ele>4.0</ele><time>2026-03-22T07:47:30Z</time></trkpt><trkpt lat="24.295869429374942" lon="120.55360440558951"><ele>4.0</ele><time>2026-03-22T07:47:31Z</time></trkpt><trkpt lat="24.295908742541158" lon="120.55351768062256"><ele>3.9999999999999996</ele><time>2026-03-22T07:47:32Z</time></trkpt><trkpt lat="24.295960287627352" lon="120.55344191880383"><ele>4.0</ele><time>2026-03-22T07:47:33Z</time></trkpt><trkpt lat="24.29600051023444" lon="120.55336616448453"><ele>3.9999999999999996</ele><time>2026-03-22T07:47:34Z</time></trkpt><trkpt lat="24.29602513340649" lon="120.55328679248726"><ele>4.0</ele><time>2026-03-22T07:47:35Z</time></trkpt><trkpt lat="24.29606019764165" lon="120.55322856166731"><ele>4.0</ele><time>2026-03-22T07:47:36Z</time></trkpt><trkpt lat="24.296098980212765" lon="120.55315381026094"><ele>4.0</ele><time>2026-03-22T07:47:38Z</time></trkpt><trkpt lat="24.296140143770383" lon="120.55308380592231"><ele>3.9999999999999996</ele><time>2026-03-22T07:48:56Z</time></trkpt><trkpt lat="24.296177488726705" lon="120.55301447783373"><ele>4.0</ele><time>2026-03-22T07:48:58Z</time></trkpt><trkpt lat="24.296226900346635" lon="120.5529208842059"><ele>3.9999999999999996</ele><time>2026-03-22T07:49:00Z</time></trkpt><trkpt lat="24.296290408840324" lon="120.55281353520539"><ele>4.0</ele><time>2026-03-22T07:49:02Z</time></trkpt><trkpt lat="24.29632157911544" lon="120.55275283951298"><ele>4.0</ele><time>2026-03-22T07:49:03Z</time></trkpt><trkpt lat="24.29635891338939" lon="120.55268134380947"><ele>4.0</ele><time>2026-03-22T07:49:04Z</time></trkpt><trkpt lat="24.296399137784206" lon="120.55260166744394"><ele>3.9999999999999996</ele><time>2026-03-22T07:49:05Z</time></trkpt><trkpt lat="24.29644344138791" lon="120.55251588586616"><ele>4.0</ele><time>2026-03-22T07:49:06Z</time></trkpt><trkpt lat="24.29649361992624" lon="120.55242125957706"><ele>4.0</ele><time>2026-03-22T07:49:07Z</time></trkpt><trkpt lat="24.296543640570643" lon="120.55232393791768"><ele>4.0</ele><time>2026-03-22T07:49:08Z</time></trkpt><trkpt lat="24.29659192383795" lon="120.55222913569152"><ele>4.0</ele><time>2026-03-22T07:49:09Z</time></trkpt><trkpt lat="24.296641533800205" lon="120.55213200854018"><ele>4.0</ele><time>2026-03-22T07:49:10Z</time></trkpt><trkpt lat="24.296691088029995" lon="120.55203654525025"><ele>4.0</ele><time>2026-03-22T07:49:11Z</time></trkpt><trkpt lat="24.296738708442003" lon="120.5519427461039"><ele>3.6</ele><time>2026-03-22T07:49:12Z</time></trkpt><trkpt lat="24.296789021812533" lon="120.551850806194"><ele>3.2</ele><time>2026-03-22T07:49:13Z</time></trkpt><trkpt lat="24.296837331793554" lon="120.55175880786192"><ele>2.8000000000000003</ele><time>2026-03-22T07:49:14Z</time></trkpt><trkpt lat="24.29688337600861" lon="120.55167067967595"><ele>2.4000000000000004</ele><time>2026-03-22T07:49:15Z</time></trkpt><trkpt lat="24.296928264406464" lon="120.55158460214265"><ele>2.0</ele><time>2026-03-22T07:49:16Z</time></trkpt><trkpt lat="24.296971895829678" lon="120.55150262859202"><ele>1.9999999999999998</ele><time>2026-03-22T07:49:17Z</time></trkpt><trkpt lat="24.297014837899635" lon="120.55142224334699"><ele>2.0</ele><time>2026-03-22T07:49:18Z</time></trkpt><trkpt lat="24.297057225877282" lon="120.55134360066566"><ele>2.0</ele><time>2026-03-22T07:49:19Z</time></trkpt><trkpt lat="24.2970971995534" lon="120.55126662670008"><ele>2.0</ele><time>2026-03-22T07:49:20Z</time></trkpt><trkpt lat="24.297134594504247" lon="120.55119222911499"><ele>1.9999999999999998</ele><time>2026-03-22T07:49:21Z</time></trkpt><trkpt lat="24.29717194527041" lon="120.55111792020922"><ele>2.0</ele><time>2026-03-22T07:49:22Z</time></trkpt><trkpt lat="24.297208081735153" lon="120.5510431234871"><ele>1.9999999999999998</ele><time>2026-03-22T07:49:23Z</time></trkpt><trkpt lat="24.29724598586564" lon="120.55097147826332"><ele>2.0</ele><time>2026-03-22T07:49:24Z</time></trkpt><trkpt lat="24.2972835702827" lon="120.55090064179667"><ele>2.0</ele><time>2026-03-22T07:49:25Z</time></trkpt><trkpt lat="24.29732455657381" lon="120.55081918774515"><ele>2.0</ele><time>2026-03-22T07:49:26Z</time></trkpt><trkpt lat="24.29737023357441" lon="120.55072902676346"><ele>1.9999999999999998</ele><time>2026-03-22T07:49:27Z</time></trkpt><trkpt lat="24.297420500483017" lon="120.55062786827682"><ele>2.0</ele><time>2026-03-22T07:49:28Z</time></trkpt><trkpt lat="24.297475889815775" lon="120.55051926116593"><ele>2.0</ele><time>2026-03-22T07:49:29Z</time></trkpt><trkpt lat="24.297530341628594" lon="120.55041238798427"><ele>2.0</ele><time>2026-03-22T07:49:30Z</time></trkpt><trkpt lat="24.297586295508022" lon="120.55030128392046"><ele>2.0</ele><time>2026-03-22T07:49:31Z</time></trkpt><trkpt lat="24.297644802948216" lon="120.55018010086023"><ele>2.0</ele><time>2026-03-22T07:49:32Z</time></trkpt><trkpt lat="24.29771028693944" lon="120.55005068910272"><ele>2.0</ele><time>2026-03-22T07:49:33Z</time></trkpt><trkpt lat="24.297781056229088" lon="120.54993234146842"><ele>2.0</ele><time>2026-03-22T07:49:34Z</time></trkpt><trkpt lat="24.297843079282277" lon="120.54978495778781"><ele>2.0</ele><time>2026-03-22T07:49:35Z</time></trkpt><trkpt lat="24.297911949079165" lon="120.54965132712545"><ele>2.0</ele><time>2026-03-22T07:49:36Z</time></trkpt><trkpt lat="24.297978254280245" lon="120.54951470415996"><ele>1.75</ele><time>2026-03-22T07:49:37Z</time></trkpt><trkpt lat="24.298049752588256" lon="120.54937443993961"><ele>1.5</ele><time>2026-03-22T07:49:38Z</time></trkpt><trkpt lat="24.29812686637217" lon="120.54923130447045"><ele>1.25</ele><time>2026-03-22T07:49:39Z</time></trkpt><trkpt lat="24.298199948882026" lon="120.54908849612383"><ele>1.0</ele><time>2026-03-22T07:49:40Z</time></trkpt><trkpt lat="24.29828466398628" lon="120.54895104641443"><ele>1.0</ele><time>2026-03-22T07:49:41Z</time></trkpt><trkpt lat="24.298364478633186" lon="120.54881595342765"><ele>1.0</ele><time>2026-03-22T07:49:42Z</time></trkpt><trkpt lat="24.298440296498168" lon="120.54868175432891"><ele>1.0</ele><time>2026-03-22T07:49:43Z</time></trkpt><trkpt lat="24.298511305552395" lon="120.54854583991565"><ele>1.0</ele><time>2026-03-22T07:49:44Z</time></trkpt><trkpt lat="24.298579643151243" lon="120.54841288632514"><ele>1.0</ele><time>2026-03-22T07:49:45Z</time></trkpt><trkpt lat="24.29865063028409" lon="120.5482814920814"><ele>1.0</ele><time>2026-03-22T07:49:46Z</time></trkpt><trkpt lat="24.29871910026938" lon="120.54815201011886"><ele>1.0</ele><time>2026-03-22T07:49:47Z</time></trkpt><trkpt lat="24.29878861151904" lon="120.54802398343585"><ele>1.0</ele><time>2026-03-22T07:49:48Z</time></trkpt><trkpt lat="24.298855066735026" lon="120.54789741856544"><ele>1.2000000000000002</ele><time>2026-03-22T07:49:49Z</time></trkpt><trkpt lat="24.298919111175692" lon="120.54777448187495"><ele>1.4000000000000001</ele><time>2026-03-22T07:49:50Z</time></trkpt><trkpt lat="24.298977242088213" lon="120.54766089648403"><ele>1.6</ele><time>2026-03-22T07:49:51Z</time></trkpt><trkpt lat="24.299027418521785" lon="120.54756163519815"><ele>1.8</ele><time>2026-03-22T07:49:52Z</time></trkpt><trkpt lat="24.299071671964672" lon="120.54747828021507"><ele>2.0</ele><time>2026-03-22T07:49:53Z</time></trkpt><trkpt lat="24.299113247929792" lon="120.54740086801638"><ele>1.9999999999999998</ele><time>2026-03-22T07:49:54Z</time></trkpt><trkpt lat="24.299139340737895" lon="120.54731179431991"><ele>2.0</ele><time>2026-03-22T07:49:55Z</time></trkpt><trkpt lat="24.299179687210824" lon="120.5472297455683"><ele>2.0</ele><time>2026-03-22T07:49:56Z</time></trkpt><trkpt lat="24.299218166465" lon="120.54715090957409"><ele>2.0</ele><time>2026-03-22T07:49:56.999Z</time></trkpt><trkpt lat="24.299255336474715" lon="120.54707445763205"><ele>1.9999999999999998</ele><time>2026-03-22T07:49:57.999Z</time></trkpt><trkpt lat="24.2992921424365" lon="120.54700012817958"><ele>2.0</ele><time>2026-03-22T07:49:58.999Z</time></trkpt><trkpt lat="24.29932633961661" lon="120.54693344070054"><ele>2.333333333333333</ele><time>2026-03-22T07:49:59.999Z</time></trkpt><trkpt lat="24.299375530625724" lon="120.54683765788107"><ele>2.6666666666666665</ele><time>2026-03-22T07:50:01.999Z</time></trkpt><trkpt lat="24.299414085263017" lon="120.54676932420985"><ele>3.0</ele><time>2026-03-22T07:50:03.999Z</time></trkpt><trkpt lat="24.299455627485838" lon="120.54670580713677"><ele>3.333333333333333</ele><time>2026-03-22T07:50:07.999Z</time></trkpt><trkpt lat="24.2995147310421" lon="120.54662680628239"><ele>3.6666666666666665</ele><time>2026-03-22T07:50:13Z</time></trkpt><trkpt lat="24.2995616229726" lon="120.54656914608664"><ele>4.0</ele><time>2026-03-22T07:50:16Z</time></trkpt><trkpt lat="24.299640625550314" lon="120.54649321883677"><ele>4.0</ele><time>2026-03-22T07:50:19Z</time></trkpt><trkpt lat="24.299687821668073" lon="120.54640476191939"><ele>4.0</ele><time>2026-03-22T07:50:21Z</time></trkpt><trkpt lat="24.29975052499392" lon="120.5462924716283"><ele>4.0</ele><time>2026-03-22T07:50:23Z</time></trkpt><trkpt lat="24.299809338992283" lon="120.54622158436827"><ele>4.0</ele><time>2026-03-22T07:50:25Z</time></trkpt><trkpt lat="24.2998921807218" lon="120.546213260116"><ele>4.0</ele><time>2026-03-22T07:50:27Z</time></trkpt><trkpt lat="24.300011621605712" lon="120.54621767694856"><ele>3.9999999999999996</ele><time>2026-03-22T07:50:29Z</time></trkpt><trkpt lat="24.30008668255246" lon="120.54621852717975"><ele>4.0</ele><time>2026-03-22T07:50:30Z</time></trkpt><trkpt lat="24.300156275646522" lon="120.54622320644104"><ele>4.0</ele><time>2026-03-22T07:50:31Z</time></trkpt><trkpt lat="24.30023612246135" lon="120.54622552000488"><ele>4.0</ele><time>2026-03-22T07:50:32Z</time></trkpt><trkpt lat="24.30032801519158" lon="120.54622911469086"><ele>3.9999999999999996</ele><time>2026-03-22T07:50:33Z</time></trkpt><trkpt lat="24.300426079575832" lon="120.54623559882393"><ele>4.0</ele><time>2026-03-22T07:50:34Z</time></trkpt><trkpt lat="24.300527831996977" lon="120.54623700514583"><ele>4.2</ele><time>2026-03-22T07:50:35Z</time></trkpt><trkpt lat="24.300624946914926" lon="120.54624231629366"><ele>4.4</ele><time>2026-03-22T07:50:36Z</time></trkpt><trkpt lat="24.300720029916494" lon="120.54624962391021"><ele>4.6</ele><time>2026-03-22T07:50:37Z</time></trkpt><trkpt lat="24.300812565277738" lon="120.54625492933862"><ele>4.8</ele><time>2026-03-22T07:50:38Z</time></trkpt><trkpt lat="24.30091027995848" lon="120.54625919620824"><ele>5.0</ele><time>2026-03-22T07:50:39Z</time></trkpt><trkpt lat="24.301010833930594" lon="120.54626624816622"><ele>5.0</ele><time>2026-03-22T07:50:40Z</time></trkpt><trkpt lat="24.30111566061143" lon="120.54627145899292"><ele>5.0</ele><time>2026-03-22T07:50:41Z</time></trkpt><trkpt lat="24.301221304731556" lon="120.54627659227144"><ele>5.0</ele><time>2026-03-22T07:50:42Z</time></trkpt><trkpt lat="24.301329799727334" lon="120.54628278656745"><ele>5.0</ele><time>2026-03-22T07:50:43Z</time></trkpt><trkpt lat="24.301435614655563" lon="120.54628843574771"><ele>5.0</ele><time>2026-03-22T07:50:44Z</time></trkpt><trkpt lat="24.301547041932157" lon="120.546289392242"><ele>5.0</ele><time>2026-03-22T07:50:45Z</time></trkpt><trkpt lat="24.301660885234618" lon="120.54629511185748"><ele>5.0</ele><time>2026-03-22T07:50:46Z</time></trkpt><trkpt lat="24.301775468452686" lon="120.54630099557416"><ele>5.0</ele><time>2026-03-22T07:50:47Z</time></trkpt><trkpt lat="24.301890823732375" lon="120.54631050738486"><ele>5.0</ele><time>2026-03-22T07:50:48Z</time></trkpt><trkpt lat="24.30201216179792" lon="120.54631511927963"><ele>5.0</ele><time>2026-03-22T07:50:49Z</time></trkpt><trkpt lat="24.30213347841363" lon="120.54631982500393"><ele>5.0</ele><time>2026-03-22T07:50:50Z</time></trkpt><trkpt lat="24.302255990818583" lon="120.54632599729374"><ele>5.0</ele><time>2026-03-22T07:50:51Z</time></trkpt><trkpt lat="24.302378470697924" lon="120.5463361195071"><ele>5.0</ele><time>2026-03-22T07:50:52Z</time></trkpt><trkpt lat="24.302503540934083" lon="120.54634913345801"><ele>5.25</ele><time>2026-03-22T07:50:53Z</time></trkpt><trkpt lat="24.30263072656737" lon="120.54635980234286"><ele>5.5</ele><time>2026-03-22T07:50:54Z</time></trkpt><trkpt lat="24.302755638805312" lon="120.5463698044463"><ele>5.75</ele><time>2026-03-22T07:50:55Z</time></trkpt><trkpt lat="24.302879822845707" lon="120.54637726959156"><ele>6.0</ele><time>2026-03-22T07:50:56Z</time></trkpt><trkpt lat="24.30300584117586" lon="120.5463851232387"><ele>5.333333333333333</ele><time>2026-03-22T07:50:57Z</time></trkpt><trkpt lat="24.30312942533741" lon="120.54639191272892"><ele>4.666666666666666</ele><time>2026-03-22T07:50:58Z</time></trkpt><trkpt lat="24.30337613245367" lon="120.54640839220123"><ele>4.0</ele><time>2026-03-22T07:51:00Z</time></trkpt><trkpt lat="24.30350403173488" lon="120.5464166715855"><ele>4.0</ele><time>2026-03-22T07:51:01Z</time></trkpt><trkpt lat="24.303631530991712" lon="120.5464237717027"><ele>4.0</ele><time>2026-03-22T07:51:02Z</time></trkpt><trkpt lat="24.303758940303954" lon="120.54643093599853"><ele>4.0</ele><time>2026-03-22T07:51:03Z</time></trkpt><trkpt lat="24.30388719501916" lon="120.54643046799006"><ele>4.0</ele><time>2026-03-22T07:51:04Z</time></trkpt><trkpt lat="24.304014798071098" lon="120.5464304690638"><ele>4.0</ele><time>2026-03-22T07:51:05Z</time></trkpt><trkpt lat="24.304144312175683" lon="120.54644335018654"><ele>4.0</ele><time>2026-03-22T07:51:06Z</time></trkpt><trkpt lat="24.30426803763651" lon="120.54644906646195"><ele>4.0</ele><time>2026-03-22T07:51:07Z</time></trkpt><trkpt lat="24.30439068926939" lon="120.5464581098214"><ele>4.0</ele><time>2026-03-22T07:51:08Z</time></trkpt><trkpt lat="24.30451025624406" lon="120.5464629250332"><ele>4.0</ele><time>2026-03-22T07:51:09Z</time></trkpt><trkpt lat="24.304627390502688" lon="120.54646748753291"><ele>4.0</ele><time>2026-03-22T07:51:10Z</time></trkpt><trkpt lat="24.304742904633574" lon="120.54647322051227"><ele>4.0</ele><time>2026-03-22T07:51:11Z</time></trkpt><trkpt lat="24.30485812293496" lon="120.54647987076723"><ele>4.0</ele><time>2026-03-22T07:51:12Z</time></trkpt><trkpt lat="24.30497613488133" lon="120.54648508956707"><ele>4.25</ele><time>2026-03-22T07:51:13Z</time></trkpt><trkpt lat="24.305100772901778" lon="120.54649454317858"><ele>4.5</ele><time>2026-03-22T07:51:14Z</time></trkpt><trkpt lat="24.30521870903762" lon="120.54650246945704"><ele>4.75</ele><time>2026-03-22T07:51:15Z</time></trkpt><trkpt lat="24.305334733541887" lon="120.54651097338298"><ele>5.0</ele><time>2026-03-22T07:51:16Z</time></trkpt><trkpt lat="24.305450007557166" lon="120.54651752052365"><ele>5.0</ele><time>2026-03-22T07:51:17Z</time></trkpt><trkpt lat="24.305562583036664" lon="120.54652458496632"><ele>5.0</ele><time>2026-03-22T07:51:18Z</time></trkpt><trkpt lat="24.305671542412725" lon="120.54653040064784"><ele>5.0</ele><time>2026-03-22T07:51:19Z</time></trkpt><trkpt lat="24.30577811308764" lon="120.54653688089437"><ele>5.0</ele><time>2026-03-22T07:51:20Z</time></trkpt><trkpt lat="24.305871213952962" lon="120.54653857706059"><ele>5.0</ele><time>2026-03-22T07:51:21Z</time></trkpt><trkpt lat="24.305951937826336" lon="120.5465390385108"><ele>4.666666666666667</ele><time>2026-03-22T07:51:22Z</time></trkpt><trkpt lat="24.30602208809765" lon="120.54654354075737"><ele>4.333333333333334</ele><time>2026-03-22T07:51:23Z</time></trkpt><trkpt lat="24.30612031286458" lon="120.54657691341322"><ele>4.0</ele><time>2026-03-22T07:51:25Z</time></trkpt><trkpt lat="24.306152994021442" lon="120.54664748578998"><ele>3.666666666666667</ele><time>2026-03-22T07:51:27Z</time></trkpt><trkpt lat="24.306129881217213" lon="120.54675363771545"><ele>3.3333333333333335</ele><time>2026-03-22T07:51:29Z</time></trkpt><trkpt lat="24.306116151811157" lon="120.54682310237301"><ele>3.0</ele><time>2026-03-22T07:51:30Z</time></trkpt><trkpt lat="24.306099936101027" lon="120.54690497710806"><ele>3.0</ele><time>2026-03-22T07:51:31Z</time></trkpt><trkpt lat="24.306096304111488" lon="120.54700278797701"><ele>3.0</ele><time>2026-03-22T07:51:32Z</time></trkpt><trkpt lat="24.306075017607046" lon="120.54709027109921"><ele>3.0</ele><time>2026-03-22T07:51:33Z</time></trkpt><trkpt lat="24.30605522689145" lon="120.54718235588174"><ele>3.0</ele><time>2026-03-22T07:51:34Z</time></trkpt><trkpt lat="24.306033207563914" lon="120.54728304143464"><ele>3.0</ele><time>2026-03-22T07:51:35Z</time></trkpt><trkpt lat="24.306008012521605" lon="120.54738932302435"><ele>3.0</ele><time>2026-03-22T07:51:36Z</time></trkpt><trkpt lat="24.30598365495001" lon="120.54749496266652"><ele>3.0</ele><time>2026-03-22T07:51:37Z</time></trkpt><trkpt lat="24.305960488582112" lon="120.54759662683249"><ele>3.0</ele><time>2026-03-22T07:51:38Z</time></trkpt><trkpt lat="24.30593828669218" lon="120.54769623704858"><ele>3.0</ele><time>2026-03-22T07:51:39Z</time></trkpt><trkpt lat="24.305916561716415" lon="120.54779266153011"><ele>3.0</ele><time>2026-03-22T07:51:40Z</time></trkpt><trkpt lat="24.305896137286172" lon="120.547888221746"><ele>3.0</ele><time>2026-03-22T07:51:41Z</time></trkpt><trkpt lat="24.30587635054257" lon="120.5479807366264"><ele>3.0</ele><time>2026-03-22T07:51:42Z</time></trkpt><trkpt lat="24.30585800217496" lon="120.54807043713893"><ele>3.0</ele><time>2026-03-22T07:51:43Z</time></trkpt><trkpt lat="24.305841772597912" lon="120.54815322630871"><ele>3.0</ele><time>2026-03-22T07:51:44Z</time></trkpt><trkpt lat="24.305825860537563" lon="120.54822603110118"><ele>3.0</ele><time>2026-03-22T07:51:45Z</time></trkpt><trkpt lat="24.30580228545971" lon="120.54832984730325"><ele>3.0</ele><time>2026-03-22T07:51:47Z</time></trkpt><trkpt lat="24.305803691282513" lon="120.54841571383203"><ele>3.0</ele><time>2026-03-22T07:51:50Z</time></trkpt><trkpt lat="24.305903794258963" lon="120.5484623951965"><ele>3.0</ele><time>2026-03-22T07:51:53Z</time></trkpt><trkpt lat="24.30598433779533" lon="120.54849485628228"><ele>3.0</ele><time>2026-03-22T07:51:55Z</time></trkpt><trkpt lat="24.306090528241757" lon="120.54853399586221"><ele>3.0</ele><time>2026-03-22T07:51:57Z</time></trkpt><trkpt lat="24.3061563145005" lon="120.54855938459161"><ele>3.0</ele><time>2026-03-22T07:51:58Z</time></trkpt><trkpt lat="24.30623039238409" lon="120.54858873992332"><ele>3.0</ele><time>2026-03-22T07:51:59Z</time></trkpt><trkpt lat="24.306304203945643" lon="120.54861772828441"><ele>3.0</ele><time>2026-03-22T07:52:00Z</time></trkpt><trkpt lat="24.306378539545094" lon="120.54864715781322"><ele>3.0</ele><time>2026-03-22T07:52:01Z</time></trkpt><trkpt lat="24.306459251357563" lon="120.54867781266753"><ele>3.0</ele><time>2026-03-22T07:52:01.998Z</time></trkpt><trkpt lat="24.306546901224383" lon="120.54870995262611"><ele>3.0</ele><time>2026-03-22T07:52:02.998Z</time></trkpt><trkpt lat="24.30664009091533" lon="120.54874386785475"><ele>3.0</ele><time>2026-03-22T07:52:03.998Z</time></trkpt><trkpt lat="24.30673800034359" lon="120.54877973653132"><ele>2.6</ele><time>2026-03-22T07:52:04.998Z</time></trkpt><trkpt lat="24.30683433547844" lon="120.54881466604034"><ele>2.1999999999999997</ele><time>2026-03-22T07:52:05.998Z</time></trkpt><trkpt lat="24.30693237648894" lon="120.5488497454697"><ele>1.8</ele><time>2026-03-22T07:52:06.998Z</time></trkpt><trkpt lat="24.307033301300777" lon="120.54888727836959"><ele>1.4</ele><time>2026-03-22T07:52:07.998Z</time></trkpt><trkpt lat="24.307136498318897" lon="120.54892670087635"><ele>1.0</ele><time>2026-03-22T07:52:08.998Z</time></trkpt><trkpt lat="24.30724145880344" lon="120.54896733533025"><ele>0.8</ele><time>2026-03-22T07:52:09.998Z</time></trkpt><trkpt lat="24.307344122145842" lon="120.54900844994847"><ele>0.6000000000000001</ele><time>2026-03-22T07:52:10.999Z</time></trkpt><trkpt lat="24.307445938271215" lon="120.5490481766831"><ele>0.4</ele><time>2026-03-22T07:52:11.999Z</time></trkpt><trkpt lat="24.307545467566452" lon="120.54908823685264"><ele>0.2</ele><time>2026-03-22T07:52:12.999Z</time></trkpt><trkpt lat="24.307646046782033" lon="120.54912854242873"><ele>0.0</ele><time>2026-03-22T07:52:13.999Z</time></trkpt><trkpt lat="24.307750439441545" lon="120.54917171614701"><ele>0.0</ele><time>2026-03-22T07:52:14.999Z</time></trkpt><trkpt lat="24.307854329895637" lon="120.54921301137139"><ele>0.0</ele><time>2026-03-22T07:52:15.999Z</time></trkpt><trkpt lat="24.307957318298538" lon="120.54925191505909"><ele>0.0</ele><time>2026-03-22T07:52:16.999Z</time></trkpt><trkpt lat="24.308058102233716" lon="120.54929053129588"><ele>0.0</ele><time>2026-03-22T07:52:17.999Z</time></trkpt><trkpt lat="24.308157248165784" lon="120.54932867170483"><ele>0.0</ele><time>2026-03-22T07:52:18.999Z</time></trkpt><trkpt lat="24.308255027658802" lon="120.54936702851052"><ele>0.2</ele><time>2026-03-22T07:52:19.999Z</time></trkpt><trkpt lat="24.30835089206062" lon="120.5494057591558"><ele>0.4</ele><time>2026-03-22T07:52:20.999Z</time></trkpt><trkpt lat="24.308444237111598" lon="120.54944411058676"><ele>0.6000000000000001</ele><time>2026-03-22T07:52:21.999Z</time></trkpt><trkpt lat="24.308536707990058" lon="120.54948158018897"><ele>0.8</ele><time>2026-03-22T07:52:22.999Z</time></trkpt><trkpt lat="24.308629842203523" lon="120.54951715595388"><ele>1.0</ele><time>2026-03-22T07:52:23.999Z</time></trkpt><trkpt lat="24.308721117599145" lon="120.5495523282457"><ele>1.0</ele><time>2026-03-22T07:52:24.999Z</time></trkpt><trkpt lat="24.30881059465998" lon="120.54958632865132"><ele>1.0</ele><time>2026-03-22T07:52:25.999Z</time></trkpt><trkpt lat="24.308897413455814" lon="120.54961995873643"><ele>1.0</ele><time>2026-03-22T07:52:26.999Z</time></trkpt><trkpt lat="24.30898250429297" lon="120.5496520004806"><ele>1.0</ele><time>2026-03-22T07:52:27.999Z</time></trkpt><trkpt lat="24.309066116727898" lon="120.54968393579676"><ele>1.0</ele><time>2026-03-22T07:52:28.999Z</time></trkpt><trkpt lat="24.309148242696573" lon="120.5497151937899"><ele>0.9999999999999999</ele><time>2026-03-22T07:52:29.999Z</time></trkpt><trkpt lat="24.309227704429706" lon="120.54974576847816"><ele>1.0</ele><time>2026-03-22T07:52:30.999Z</time></trkpt><trkpt lat="24.309308976335913" lon="120.54977623024382"><ele>1.0</ele><time>2026-03-22T07:52:31.999Z</time></trkpt><trkpt lat="24.30939444256269" lon="120.54980877758362"><ele>1.0</ele><time>2026-03-22T07:52:32.999Z</time></trkpt><trkpt lat="24.309482891692863" lon="120.54984172361551"><ele>0.9999999999999999</ele><time>2026-03-22T07:52:33.999Z</time></trkpt><trkpt lat="24.30956903583376" lon="120.54987496203769"><ele>1.0</ele><time>2026-03-22T07:52:34.999Z</time></trkpt><trkpt lat="24.309652425910762" lon="120.54990703896502"><ele>0.9999999999999999</ele><time>2026-03-22T07:52:35.999Z</time></trkpt><trkpt lat="24.309733710832948" lon="120.54993826001179"><ele>1.0</ele><time>2026-03-22T07:52:36.999Z</time></trkpt><trkpt lat="24.30981311683641" lon="120.54996844528064"><ele>1.0</ele><time>2026-03-22T07:52:37.999Z</time></trkpt><trkpt lat="24.30988915357686" lon="120.54999699480328"><ele>1.0</ele><time>2026-03-22T07:52:38.999Z</time></trkpt><trkpt lat="24.30996167710667" lon="120.55002431148256"><ele>0.9999999999999999</ele><time>2026-03-22T07:52:39.999Z</time></trkpt><trkpt lat="24.310023156592557" lon="120.5500468500633"><ele>1.0</ele><time>2026-03-22T07:52:40.999Z</time></trkpt><trkpt lat="24.310103164621623" lon="120.55008496399245"><ele>0.9999999999999999</ele><time>2026-03-22T07:52:43Z</time></trkpt><trkpt lat="24.310123122664045" lon="120.55019578775959"><ele>1.0</ele><time>2026-03-22T07:52:47Z</time></trkpt><trkpt lat="24.31009869373126" lon="120.55028535470672"><ele>1.0</ele><time>2026-03-22T07:52:49Z</time></trkpt><trkpt lat="24.310059691519466" lon="120.5503461176448"><ele>1.0</ele><time>2026-03-22T07:52:51Z</time></trkpt><trkpt lat="24.310001044286604" lon="120.55039392781546"><ele>0.9999999999999999</ele><time>2026-03-22T07:52:54Z</time></trkpt><trkpt lat="24.309961910018064" lon="120.55045927176823"><ele>1.0</ele><time>2026-03-22T07:52:57Z</time></trkpt><trkpt lat="24.309904749527668" lon="120.55042291733658"><ele>1.0</ele><time>2026-03-22T07:53:18Z</time></trkpt><trkpt lat="24.30996027481376" lon="120.55038882679973"><ele>0.9999999999999999</ele><time>2026-03-22T07:54:50Z</time></trkpt><trkpt lat="24.31000694210073" lon="120.5503414685295"><ele>1.0</ele><time>2026-03-22T07:55:01.001Z</time></trkpt><trkpt lat="24.310036469461306" lon="120.55027384872075"><ele>1.0</ele><time>2026-03-22T07:55:10.001Z</time></trkpt><trkpt lat="24.310061730115407" lon="120.55021019059207"><ele>0.9999999999999999</ele><time>2026-03-22T07:55:19.001Z</time></trkpt><trkpt lat="24.31001526092734" lon="120.55016316175247"><ele>1.0</ele><time>2026-03-22T07:55:52.001Z</time></trkpt><trkpt lat="24.310064624897894" lon="120.55011537667473"><ele>1.0</ele><time>2026-03-22T07:55:59.001Z</time></trkpt><trkpt lat="24.31011710003202" lon="120.55005852430438"><ele>0.9999999999999999</ele><time>2026-03-22T07:56:02.001Z</time></trkpt><trkpt lat="24.310214056804007" lon="120.55003556023898"><ele>1.0</ele><time>2026-03-22T07:56:07.001Z</time></trkpt><trkpt lat="24.310254800771922" lon="120.54997603594713"><ele>1.0</ele><time>2026-03-22T07:56:11.001Z</time></trkpt><trkpt lat="24.310266056786645" lon="120.5499008452392"><ele>1.0</ele><time>2026-03-22T07:56:15.001Z</time></trkpt><trkpt lat="24.31029057790652" lon="120.54983198770141"><ele>0.9999999999999999</ele><time>2026-03-22T07:56:18.001Z</time></trkpt><trkpt lat="24.310339150330694" lon="120.54976882832835"><ele>1.0</ele><time>2026-03-22T07:56:21.001Z</time></trkpt><trkpt lat="24.310274402693427" lon="120.54989512985523"><ele>1.0</ele><time>2026-03-22T07:56:26.001Z</time></trkpt><trkpt lat="24.310191392386304" lon="120.54992868737118"><ele>1.0</ele><time>2026-03-22T07:56:41.001Z</time></trkpt><trkpt lat="24.31020170625008" lon="120.5500010057044"><ele>1.0</ele><time>2026-03-22T07:56:45.001Z</time></trkpt><trkpt lat="24.310308944909366" lon="120.54984631271151"><ele>1.0</ele><time>2026-03-22T07:57:13.001Z</time></trkpt><trkpt lat="24.310180149340425" lon="120.55008213174385"><ele>1.0</ele><time>2026-03-22T07:57:20.083Z</time></trkpt><trkpt lat="24.310137244916024" lon="120.55002576540362"><ele>0.9999999999999999</ele><time>2026-03-22T07:58:47.015Z</time></trkpt><trkpt lat="24.31007454058977" lon="120.55005794582293"><ele>1.0</ele><time>2026-03-22T07:58:53.016Z</time></trkpt><trkpt lat="24.31005038491805" lon="120.55016559175859"><ele>1.0</ele><time>2026-03-22T07:59:43.001Z</time></trkpt><trkpt lat="24.31011751380289" lon="120.55016560814938"><ele>0.9999999999999999</ele><time>2026-03-22T08:00:37.001Z</time></trkpt><trkpt lat="24.31017963185617" lon="120.55019646363436"><ele>1.0</ele><time>2026-03-22T08:00:45.001Z</time></trkpt><trkpt lat="24.310226336665004" lon="120.55024666739183"><ele>1.0</ele><time>2026-03-22T08:00:56.001Z</time></trkpt><trkpt lat="24.31020344075164" lon="120.55018222368217"><ele>1.0</ele><time>2026-03-22T08:05:16.001Z</time></trkpt><trkpt lat="24.310208529243294" lon="120.55011278508124"><ele>0.9999999999999999</ele><time>2026-03-22T08:05:24.001Z</time></trkpt><trkpt lat="24.310234845558465" lon="120.55004229692547"><ele>1.0</ele><time>2026-03-22T08:05:30.001Z</time></trkpt><trkpt lat="24.310246447968805" lon="120.54996457866666"><ele>1.0</ele><time>2026-03-22T08:05:47.001Z</time></trkpt><trkpt lat="24.31031145736088" lon="120.54999787235879"><ele>0.9999999999999999</ele><time>2026-03-22T08:06:56.001Z</time></trkpt><trkpt lat="24.31025261602232" lon="120.54996557894033"><ele>1.0</ele><time>2026-03-22T08:07:36Z</time></trkpt><trkpt lat="24.310277703462756" lon="120.5499003821183"><ele>1.0</ele><time>2026-03-22T08:07:51Z</time></trkpt><trkpt lat="24.31022298412441" lon="120.54995562306691"><ele>1.0</ele><time>2026-03-22T08:09:08Z</time></trkpt><trkpt lat="24.31020419669979" lon="120.55003216975504"><ele>0.9999999999999999</ele><time>2026-03-22T08:09:30.001Z</time></trkpt><trkpt lat="24.310186270178175" lon="120.5501043737418"><ele>1.0</ele><time>2026-03-22T08:09:41.999Z</time></trkpt><trkpt lat="24.310122454754413" lon="120.55011651900583"><ele>1.0</ele><time>2026-03-22T08:09:48.999Z</time></trkpt><trkpt lat="24.31005622487388" lon="120.55011940474492"><ele>0.9999999999999999</ele><time>2026-03-22T08:09:56.999Z</time></trkpt><trkpt lat="24.309995406288145" lon="120.55009898899375"><ele>1.0</ele><time>2026-03-22T08:10:02.999Z</time></trkpt><trkpt lat="24.30992444171636" lon="120.55009036862164"><ele>1.0</ele><time>2026-03-22T08:10:11Z</time></trkpt><trkpt lat="24.309858418414386" lon="120.55008355311847"><ele>1.0</ele><time>2026-03-22T08:10:18Z</time></trkpt><trkpt lat="24.30979563658762" lon="120.55007426891753"><ele>0.9999999999999999</ele><time>2026-03-22T08:10:25Z</time></trkpt><trkpt lat="24.309731717794605" lon="120.55006214599827"><ele>1.0</ele><time>2026-03-22T08:10:32Z</time></trkpt><trkpt lat="24.30966057258536" lon="120.55004329836527"><ele>1.0</ele><time>2026-03-22T08:10:39Z</time></trkpt><trkpt lat="24.309598072233232" lon="120.55001611620179"><ele>0.9999999999999999</ele><time>2026-03-22T08:10:45Z</time></trkpt><trkpt lat="24.309537966424145" lon="120.54999344562266"><ele>1.0</ele><time>2026-03-22T08:10:52Z</time></trkpt><trkpt lat="24.30947080681873" lon="120.54997966581706"><ele>1.0</ele><time>2026-03-22T08:10:59Z</time></trkpt><trkpt lat="24.309402973339118" lon="120.54994859481177"><ele>1.0</ele><time>2026-03-22T08:11:06Z</time></trkpt><trkpt lat="24.30933726963351" lon="120.54993024742625"><ele>0.9999999999999999</ele><time>2026-03-22T08:11:12Z</time></trkpt><trkpt lat="24.309273454095475" lon="120.54990767020332"><ele>1.0</ele><time>2026-03-22T08:11:20Z</time></trkpt><trkpt lat="24.309209204071387" lon="120.54988764143386"><ele>1.0</ele><time>2026-03-22T08:11:35Z</time></trkpt><trkpt lat="24.30914532481093" lon="120.54986934445918"><ele>0.9999999999999999</ele><time>2026-03-22T08:11:42Z</time></trkpt><trkpt lat="24.309109107929284" lon="120.54992866838879"><ele>1.0</ele><time>2026-03-22T08:11:50Z</time></trkpt><trkpt lat="24.309119626849043" lon="120.55001012840675"><ele>1.0</ele><time>2026-03-22T08:12:44.001Z</time></trkpt><trkpt lat="24.309184844712505" lon="120.55003019354636"><ele>1.0</ele><time>2026-03-22T08:12:53.001Z</time></trkpt><trkpt lat="24.309170967200387" lon="120.54995314202704"><ele>1.0</ele><time>2026-03-22T08:13:22.041Z</time></trkpt><trkpt lat="24.309243334142952" lon="120.5499229880571"><ele>1.0</ele><time>2026-03-22T08:13:23.042Z</time></trkpt><trkpt lat="24.309160189793346" lon="120.54980578468488"><ele>1.0</ele><time>2026-03-22T08:13:31.041Z</time></trkpt><trkpt lat="24.30922291524417" lon="120.54968327348035"><ele>1.0</ele><time>2026-03-22T08:13:40.037Z</time></trkpt><trkpt lat="24.309272485836555" lon="120.54961362202816"><ele>0.75</ele><time>2026-03-22T08:13:42.038Z</time></trkpt><trkpt lat="24.309251414923036" lon="120.54942457649604"><ele>0.5</ele><time>2026-03-22T08:13:51.039Z</time></trkpt><trkpt lat="24.30921546823916" lon="120.54936582884244"><ele>0.25</ele><time>2026-03-22T08:13:56.031Z</time></trkpt><trkpt lat="24.309333823724494" lon="120.54932249484561"><ele>0.0</ele><time>2026-03-22T08:14:09.014Z</time></trkpt><trkpt lat="24.30939114184615" lon="120.54919333082985"><ele>0.0</ele><time>2026-03-22T08:14:10.014Z</time></trkpt><trkpt lat="24.30934637010828" lon="120.54927360132922"><ele>0.0</ele><time>2026-03-22T08:14:17.015Z</time></trkpt><trkpt lat="24.309279975041214" lon="120.54946070873113"><ele>0.0</ele><time>2026-03-22T08:14:18.015Z</time></trkpt><trkpt lat="24.309212986630182" lon="120.54949690797936"><ele>0.0</ele><time>2026-03-22T08:15:12.019Z</time></trkpt><trkpt lat="24.309194086359916" lon="120.54958111961835"><ele>0.0</ele><time>2026-03-22T08:15:16.02Z</time></trkpt><trkpt lat="24.309154385259525" lon="120.54965304609134"><ele>0.25</ele><time>2026-03-22T08:16:03.017Z</time></trkpt><trkpt lat="24.309133116793635" lon="120.5497433504865"><ele>0.5</ele><time>2026-03-22T08:16:09.021Z</time></trkpt><trkpt lat="24.309078138454176" lon="120.54993538185039"><ele>0.75</ele><time>2026-03-22T08:16:54.003Z</time></trkpt><trkpt lat="24.309110885288433" lon="120.5497893593887"><ele>1.0</ele><time>2026-03-22T08:16:55.003Z</time></trkpt><trkpt lat="24.30909092248641" lon="120.54988505625171"><ele>1.0</ele><time>2026-03-22T08:17:18.001Z</time></trkpt><trkpt lat="24.309074923007948" lon="120.54996277896754"><ele>1.0</ele><time>2026-03-22T08:18:46.001Z</time></trkpt><trkpt lat="24.30905904316647" lon="120.55003204326799"><ele>1.0</ele><time>2026-03-22T08:18:53.001Z</time></trkpt><trkpt lat="24.30903673396838" lon="120.55010744796533"><ele>1.0</ele><time>2026-03-22T08:18:55.001Z</time></trkpt><trkpt lat="24.308983107715957" lon="120.55018971702742"><ele>1.0</ele><time>2026-03-22T08:18:59.001Z</time></trkpt><trkpt lat="24.308719076432656" lon="120.55007111507014"><ele>1.25</ele><time>2026-03-22T08:19:16.001Z</time></trkpt><trkpt lat="24.308652146868926" lon="120.55022461635957"><ele>1.5</ele><time>2026-03-22T08:19:24.001Z</time></trkpt><trkpt lat="24.308595114232393" lon="120.55030922870654"><ele>1.75</ele><time>2026-03-22T08:19:26.001Z</time></trkpt><trkpt lat="24.3087570084241" lon="120.5503681573976"><ele>2.0</ele><time>2026-03-22T08:19:53.001Z</time></trkpt><trkpt lat="24.30874684844942" lon="120.55045184365481"><ele>1.6666666666666665</ele><time>2026-03-22T08:19:57.001Z</time></trkpt><trkpt lat="24.308739694275822" lon="120.5505424679392"><ele>1.3333333333333333</ele><time>2026-03-22T08:20:01.001Z</time></trkpt><trkpt lat="24.30871864110383" lon="120.55062602444406"><ele>1.0</ele><time>2026-03-22T08:20:05.081Z</time></trkpt><trkpt lat="24.30895473174943" lon="120.55033882299361"><ele>1.0</ele><time>2026-03-22T08:20:08.001Z</time></trkpt><trkpt lat="24.309007887342837" lon="120.55023795174954"><ele>1.0</ele><time>2026-03-22T08:20:17.001Z</time></trkpt><trkpt lat="24.309061989325382" lon="120.55013541262853"><ele>1.0</ele><time>2026-03-22T08:20:28.001Z</time></trkpt><trkpt lat="24.309080774031795" lon="120.55004805340644"><ele>1.0</ele><time>2026-03-22T08:20:29.001Z</time></trkpt><trkpt lat="24.30910141248318" lon="120.54996185880992"><ele>1.0</ele><time>2026-03-22T08:20:32.001Z</time></trkpt><trkpt lat="24.309172098522936" lon="120.54989923354486"><ele>1.0</ele><time>2026-03-22T08:20:47.001Z</time></trkpt><trkpt lat="24.309234816824976" lon="120.54993213766981"><ele>0.9999999999999999</ele><time>2026-03-22T08:20:54.001Z</time></trkpt><trkpt lat="24.30930212970452" lon="120.54995009440002"><ele>1.0</ele><time>2026-03-22T08:21:02.001Z</time></trkpt><trkpt lat="24.309366904159294" lon="120.54997132830428"><ele>1.0</ele><time>2026-03-22T08:21:10.001Z</time></trkpt><trkpt lat="24.309434775641723" lon="120.54998067354997"><ele>0.9999999999999999</ele><time>2026-03-22T08:21:19.001Z</time></trkpt><trkpt lat="24.30950016164429" lon="120.55000514394969"><ele>1.0</ele><time>2026-03-22T08:21:26.001Z</time></trkpt><trkpt lat="24.309562783518043" lon="120.55003338402051"><ele>1.0</ele><time>2026-03-22T08:21:35.001Z</time></trkpt><trkpt lat="24.309629121322093" lon="120.55004662850136"><ele>1.0</ele><time>2026-03-22T08:21:43.001Z</time></trkpt><trkpt lat="24.30969699011977" lon="120.55008380398209"><ele>0.9999999999999999</ele><time>2026-03-22T08:21:50.001Z</time></trkpt><trkpt lat="24.3097598668403" lon="120.55010607672973"><ele>1.0</ele><time>2026-03-22T08:21:58.001Z</time></trkpt><trkpt lat="24.309826386250148" lon="120.5501205354536"><ele>1.0</ele><time>2026-03-22T08:22:05.001Z</time></trkpt><trkpt lat="24.309892235927155" lon="120.55012421331969"><ele>0.9999999999999999</ele><time>2026-03-22T08:22:13.001Z</time></trkpt><trkpt lat="24.30995900101231" lon="120.55012823128493"><ele>1.0</ele><time>2026-03-22T08:22:21.001Z</time></trkpt><trkpt lat="24.310022630809264" lon="120.55012924388741"><ele>1.0</ele><time>2026-03-22T08:22:28.001Z</time></trkpt><trkpt lat="24.310082419724182" lon="120.55016424324498"><ele>1.0</ele><time>2026-03-22T08:22:34.001Z</time></trkpt><trkpt lat="24.310146576460742" lon="120.55018850556758"><ele>0.9999999999999999</ele><time>2026-03-22T08:22:41.001Z</time></trkpt><trkpt lat="24.310213445839445" lon="120.5502005138502"><ele>1.0</ele><time>2026-03-22T08:22:50.001Z</time></trkpt><trkpt lat="24.310279377388824" lon="120.55023671912642"><ele>1.0</ele><time>2026-03-22T08:22:59.001Z</time></trkpt><trkpt lat="24.310343303468557" lon="120.55026900986967"><ele>0.9999999999999999</ele><time>2026-03-22T08:23:08.001Z</time></trkpt><trkpt lat="24.310412869578304" lon="120.55029676540497"><ele>1.0</ele><time>2026-03-22T08:23:18.001Z</time></trkpt><trkpt lat="24.310469795444757" lon="120.55032630188214"><ele>1.0</ele><time>2026-03-22T08:23:44.001Z</time></trkpt><trkpt lat="24.31053396195772" lon="120.55036368468645"><ele>1.4285714285714284</ele><time>2026-03-22T08:24:13.001Z</time></trkpt><trkpt lat="24.31059780404533" lon="120.55039031270867"><ele>1.857142857142857</ele><time>2026-03-22T08:24:20.001Z</time></trkpt><trkpt lat="24.310659193310578" lon="120.55042067877626"><ele>2.2857142857142856</ele><time>2026-03-22T08:24:28.001Z</time></trkpt><trkpt lat="24.310722227619348" lon="120.55042155855502"><ele>2.714285714285714</ele><time>2026-03-22T08:24:35.001Z</time></trkpt><trkpt lat="24.310741583222807" lon="120.55049122157435"><ele>3.1428571428571423</ele><time>2026-03-22T08:24:42.001Z</time></trkpt><trkpt lat="24.310791475591472" lon="120.55054318908583"><ele>3.571428571428571</ele><time>2026-03-22T08:24:59.001Z</time></trkpt><trkpt lat="24.31086850160724" lon="120.55055049854094"><ele>4.0</ele><time>2026-03-22T08:25:10.001Z</time></trkpt><trkpt lat="24.310828570451427" lon="120.55049186179734"><ele>4.0</ele><time>2026-03-22T08:28:56.001Z</time></trkpt><trkpt lat="24.310753784396557" lon="120.55045800582704"><ele>3.9999999999999996</ele><time>2026-03-22T08:29:12.001Z</time></trkpt><trkpt lat="24.31080718397895" lon="120.55040808033543"><ele>4.0</ele><time>2026-03-22T08:29:27.001Z</time></trkpt><trkpt lat="24.310880487228616" lon="120.55039355078873"><ele>4.0</ele><time>2026-03-22T08:29:36.001Z</time></trkpt><trkpt lat="24.310945906662827" lon="120.55041564343684"><ele>3.9999999999999996</ele><time>2026-03-22T08:29:46Z</time></trkpt><trkpt lat="24.3110026774009" lon="120.5504482158492"><ele>4.0</ele><time>2026-03-22T08:29:52Z</time></trkpt><trkpt lat="24.31106776749843" lon="120.55047489686136"><ele>4.0</ele><time>2026-03-22T08:30:03Z</time></trkpt><trkpt lat="24.31108801187116" lon="120.55054364594093"><ele>3.9999999999999996</ele><time>2026-03-22T08:30:14Z</time></trkpt><trkpt lat="24.31115523359898" lon="120.55052833872145"><ele>4.0</ele><time>2026-03-22T08:30:42.001Z</time></trkpt><trkpt lat="24.31126620445684" lon="120.55056656604131"><ele>4.0</ele><time>2026-03-22T08:31:20.001Z</time></trkpt><trkpt lat="24.31132942526784" lon="120.55058566422056"><ele>4.0</ele><time>2026-03-22T08:31:28.001Z</time></trkpt><trkpt lat="24.311393406636533" lon="120.55061084749865"><ele>3.9999999999999996</ele><time>2026-03-22T08:31:36.001Z</time></trkpt><trkpt lat="24.31134099641824" lon="120.55055478508406"><ele>4.0</ele><time>2026-03-22T08:31:56.001Z</time></trkpt><trkpt lat="24.311277295174705" lon="120.55053732444726"><ele>4.0</ele><time>2026-03-22T08:32:04.001Z</time></trkpt><trkpt lat="24.311219145717644" lon="120.55050542288818"><ele>3.9999999999999996</ele><time>2026-03-22T08:32:11.001Z</time></trkpt><trkpt lat="24.31117448045416" lon="120.55055864609358"><ele>4.0</ele><time>2026-03-22T08:32:38.001Z</time></trkpt><trkpt lat="24.311141512335418" lon="120.55049288919072"><ele>4.0</ele><time>2026-03-22T08:32:44.001Z</time></trkpt><trkpt lat="24.31109227092819" lon="120.55044519461003"><ele>3.9999999999999996</ele><time>2026-03-22T08:32:50.001Z</time></trkpt><trkpt lat="24.311020934831415" lon="120.5504301284892"><ele>4.0</ele><time>2026-03-22T08:32:59.001Z</time></trkpt><trkpt lat="24.31095222576018" lon="120.55041186961684"><ele>4.0</ele><time>2026-03-22T08:33:07.001Z</time></trkpt><trkpt lat="24.310888969350884" lon="120.55038674580024"><ele>3.571428571428571</ele><time>2026-03-22T08:33:14.001Z</time></trkpt><trkpt lat="24.310827195911326" lon="120.5503602197657"><ele>3.1428571428571423</ele><time>2026-03-22T08:33:22.001Z</time></trkpt><trkpt lat="24.310764939639924" lon="120.55034470888472"><ele>2.714285714285714</ele><time>2026-03-22T08:33:29.001Z</time></trkpt><trkpt lat="24.310701720146955" lon="120.55031919954014"><ele>2.2857142857142856</ele><time>2026-03-22T08:33:36.001Z</time></trkpt><trkpt lat="24.310641397588213" lon="120.55029728077487"><ele>1.857142857142857</ele><time>2026-03-22T08:33:42.001Z</time></trkpt><trkpt lat="24.310574017543356" lon="120.55027996859957"><ele>1.4285714285714284</ele><time>2026-03-22T08:33:50.001Z</time></trkpt><trkpt lat="24.310504989995067" lon="120.5502602589531"><ele>1.0</ele><time>2026-03-22T08:33:58.001Z</time></trkpt><trkpt lat="24.310436400090232" lon="120.55023916012381"><ele>1.0</ele><time>2026-03-22T08:34:06.001Z</time></trkpt><trkpt lat="24.310373076645245" lon="120.55021774748131"><ele>0.9999999999999999</ele><time>2026-03-22T08:34:12.001Z</time></trkpt><trkpt lat="24.310309471515463" lon="120.55020493808712"><ele>1.0</ele><time>2026-03-22T08:34:21.001Z</time></trkpt><trkpt lat="24.310280544495004" lon="120.55027631161659"><ele>1.0</ele><time>2026-03-22T08:43:17Z</time></trkpt><trkpt lat="24.310223051818294" lon="120.55024066983404"><ele>0.9999999999999999</ele><time>2026-03-22T08:43:30Z</time></trkpt><trkpt lat="24.310159735616647" lon="120.55026170180466"><ele>1.0</ele><time>2026-03-22T08:43:47Z</time></trkpt><trkpt lat="24.310102939242444" lon="120.55030542946638"><ele>1.0</ele><time>2026-03-22T08:43:56Z</time></trkpt><trkpt lat="24.310045971301673" lon="120.55034884176062"><ele>1.0</ele><time>2026-03-22T08:44:06Z</time></trkpt><trkpt lat="24.310020621546382" lon="120.550281356878"><ele>0.9999999999999999</ele><time>2026-03-22T08:44:13Z</time></trkpt><trkpt lat="24.310077392419718" lon="120.55034249691268"><ele>1.0</ele><time>2026-03-22T08:44:23Z</time></trkpt><trkpt lat="24.31000155393364" lon="120.5502863000733"><ele>1.0</ele><time>2026-03-22T08:45:20Z</time></trkpt><trkpt lat="24.310006770753112" lon="120.5503630930815"><ele>0.9999999999999999</ele><time>2026-03-22T08:45:29Z</time></trkpt><trkpt lat="24.309989394525413" lon="120.55043170354557"><ele>1.0</ele><time>2026-03-22T08:45:38Z</time></trkpt><trkpt lat="24.310010443646814" lon="120.55036030181806"><ele>1.0</ele><time>2026-03-22T08:46:03Z</time></trkpt><trkpt lat="24.310053911873183" lon="120.55030630326746"><ele>1.0</ele><time>2026-03-22T08:46:31Z</time></trkpt><trkpt lat="24.310072016273512" lon="120.55037397981552"><ele>0.9999999999999999</ele><time>2026-03-22T08:55:45Z</time></trkpt><trkpt lat="24.310035928035216" lon="120.5504436186755"><ele>1.0</ele><time>2026-03-22T08:55:56.001Z</time></trkpt><trkpt lat="24.309971330637843" lon="120.55043733581572"><ele>1.0</ele><time>2026-03-22T08:56:27.001Z</time></trkpt><trkpt lat="24.31003741811104" lon="120.55042073749065"><ele>0.9999999999999999</ele><time>2026-03-22T09:01:26Z</time></trkpt><trkpt lat="24.310093331497967" lon="120.55037661308162"><ele>1.0</ele><time>2026-03-22T09:01:34Z</time></trkpt><trkpt lat="24.31012924396907" lon="120.55030736305854"><ele>1.0</ele><time>2026-03-22T09:01:39Z</time></trkpt><trkpt lat="24.31014793587999" lon="120.55024035214996"><ele>0.9999999999999999</ele><time>2026-03-22T09:01:43Z</time></trkpt><trkpt lat="24.310164038183288" lon="120.55016903001402"><ele>1.0</ele><time>2026-03-22T09:01:48Z</time></trkpt><trkpt lat="24.310164095082815" lon="120.5500825030651"><ele>1.0</ele><time>2026-03-22T09:02:25Z</time></trkpt><trkpt lat="24.310101274263104" lon="120.55000993474417"><ele>1.0</ele><time>2026-03-22T09:02:28Z</time></trkpt><trkpt lat="24.31003838982753" lon="120.54998343794395"><ele>0.9999999999999999</ele><time>2026-03-22T09:02:30Z</time></trkpt><trkpt lat="24.309959366908238" lon="120.54994511251466"><ele>1.0</ele><time>2026-03-22T09:02:32Z</time></trkpt><trkpt lat="24.309882816469642" lon="120.54991241239419"><ele>1.0</ele><time>2026-03-22T09:02:34Z</time></trkpt><trkpt lat="24.309802295487618" lon="120.54987676302166"><ele>1.0</ele><time>2026-03-22T09:02:36Z</time></trkpt><trkpt lat="24.309722623399125" lon="120.54984164015056"><ele>1.0</ele><time>2026-03-22T09:02:38Z</time></trkpt><trkpt lat="24.309630674368297" lon="120.54981226433988"><ele>1.0</ele><time>2026-03-22T09:02:40Z</time></trkpt><trkpt lat="24.30953850038266" lon="120.54978481508525"><ele>1.0</ele><time>2026-03-22T09:02:42Z</time></trkpt><trkpt lat="24.30944168369122" lon="120.54974906305354"><ele>1.0</ele><time>2026-03-22T09:02:44Z</time></trkpt><trkpt lat="24.30934019276581" lon="120.54971048798028"><ele>1.0</ele><time>2026-03-22T09:02:46Z</time></trkpt><trkpt lat="24.30923310370659" lon="120.54968020096582"><ele>1.0</ele><time>2026-03-22T09:02:48Z</time></trkpt><trkpt lat="24.30912546808577" lon="120.5496463603984"><ele>1.0</ele><time>2026-03-22T09:02:50Z</time></trkpt><trkpt lat="24.309027897898957" lon="120.54960501815249"><ele>1.0</ele><time>2026-03-22T09:02:52Z</time></trkpt><trkpt lat="24.3089361288544" lon="120.54956520306526"><ele>1.0</ele><time>2026-03-22T09:02:54Z</time></trkpt><trkpt lat="24.308847226308895" lon="120.54952841444317"><ele>1.0</ele><time>2026-03-22T09:02:56Z</time></trkpt><trkpt lat="24.30874441830214" lon="120.549484512394"><ele>1.0</ele><time>2026-03-22T09:02:58Z</time></trkpt><trkpt lat="24.308633973957" lon="120.54944023092733"><ele>1.0</ele><time>2026-03-22T09:03:00Z</time></trkpt><trkpt lat="24.30852236666748" lon="120.54939811097196"><ele>1.0</ele><time>2026-03-22T09:03:02Z</time></trkpt><trkpt lat="24.308407230324626" lon="120.54935243646958"><ele>1.0</ele><time>2026-03-22T09:03:04Z</time></trkpt><trkpt lat="24.30834735720464" lon="120.54933061584317"><ele>1.0</ele><time>2026-03-22T09:03:05Z</time></trkpt><trkpt lat="24.308226883201346" lon="120.54928642120336"><ele>1.0</ele><time>2026-03-22T09:03:07Z</time></trkpt><trkpt lat="24.308106726245008" lon="120.54924255712905"><ele>1.0</ele><time>2026-03-22T09:03:09Z</time></trkpt><trkpt lat="24.307987124330484" lon="120.54919540845292"><ele>1.0</ele><time>2026-03-22T09:03:11Z</time></trkpt><trkpt lat="24.307925019241186" lon="120.54917181425226"><ele>0.8</ele><time>2026-03-22T09:03:12Z</time></trkpt><trkpt lat="24.307806930436822" lon="120.54912618374796"><ele>0.6000000000000001</ele><time>2026-03-22T09:03:14Z</time></trkpt><trkpt lat="24.3076880360363" lon="120.54907939139416"><ele>0.4</ele><time>2026-03-22T09:03:16Z</time></trkpt><trkpt lat="24.307628621670098" lon="120.54905564139298"><ele>0.2</ele><time>2026-03-22T09:03:17Z</time></trkpt><trkpt lat="24.3075098914931" lon="120.54900708190274"><ele>0.0</ele><time>2026-03-22T09:03:19Z</time></trkpt><trkpt lat="24.307447488629087" lon="120.54898341306834"><ele>0.0</ele><time>2026-03-22T09:03:20Z</time></trkpt><trkpt lat="24.307331353464615" lon="120.54894031214187"><ele>0.0</ele><time>2026-03-22T09:03:22Z</time></trkpt><trkpt lat="24.307270599606255" lon="120.54891862790176"><ele>0.0</ele><time>2026-03-22T09:03:23Z</time></trkpt><trkpt lat="24.30720642278155" lon="120.54889676893443"><ele>0.0</ele><time>2026-03-22T09:03:24Z</time></trkpt><trkpt lat="24.307140083866358" lon="120.54887683888575"><ele>0.0</ele><time>2026-03-22T09:03:25Z</time></trkpt><trkpt lat="24.307073173513164" lon="120.54885143738922"><ele>0.0</ele><time>2026-03-22T09:03:26Z</time></trkpt><trkpt lat="24.307009553285205" lon="120.54882377419213"><ele>0.0</ele><time>2026-03-22T09:03:27Z</time></trkpt><trkpt lat="24.306942699915837" lon="120.54879808093447"><ele>0.0</ele><time>2026-03-22T09:03:28Z</time></trkpt><trkpt lat="24.30687256530075" lon="120.54877184832847"><ele>0.0</ele><time>2026-03-22T09:03:29Z</time></trkpt><trkpt lat="24.306799892328375" lon="120.54874473223425"><ele>0.0</ele><time>2026-03-22T09:03:30Z</time></trkpt><trkpt lat="24.306726753869523" lon="120.54871655134187"><ele>0.0</ele><time>2026-03-22T09:03:31Z</time></trkpt><trkpt lat="24.30665664815763" lon="120.54868787168297"><ele>0.0</ele><time>2026-03-22T09:03:32Z</time></trkpt><trkpt lat="24.306588320389523" lon="120.5486574192372"><ele>0.0</ele><time>2026-03-22T09:03:33Z</time></trkpt><trkpt lat="24.306504267786487" lon="120.54864202965965"><ele>0.0</ele><time>2026-03-22T09:03:34Z</time></trkpt><trkpt lat="24.306434833244825" lon="120.54861631869022"><ele>0.0</ele><time>2026-03-22T09:03:35Z</time></trkpt><trkpt lat="24.306371891826558" lon="120.54859301208683"><ele>0.0</ele><time>2026-03-22T09:03:36Z</time></trkpt><trkpt lat="24.306304127411057" lon="120.54856774565717"><ele>0.0</ele><time>2026-03-22T09:03:37Z</time></trkpt><trkpt lat="24.306232028119407" lon="120.54854107932152"><ele>0.0</ele><time>2026-03-22T09:03:38Z</time></trkpt><trkpt lat="24.30616532371678" lon="120.54851634124468"><ele>0.0</ele><time>2026-03-22T09:03:39Z</time></trkpt><trkpt lat="24.306060922510838" lon="120.54847762297725"><ele>0.6</ele><time>2026-03-22T09:03:41Z</time></trkpt><trkpt lat="24.305950767412288" lon="120.54843682305345"><ele>1.2</ele><time>2026-03-22T09:03:43Z</time></trkpt><trkpt lat="24.305874100163464" lon="120.54840845513803"><ele>1.7999999999999998</ele><time>2026-03-22T09:03:45Z</time></trkpt><trkpt lat="24.305826195336426" lon="120.54831935190614"><ele>2.4</ele><time>2026-03-22T09:03:48Z</time></trkpt><trkpt lat="24.305854079240326" lon="120.54825595412943"><ele>3.0</ele><time>2026-03-22T09:03:50Z</time></trkpt><trkpt lat="24.30589287929441" lon="120.54814996275815"><ele>3.0</ele><time>2026-03-22T09:03:52Z</time></trkpt><trkpt lat="24.305923364532365" lon="120.54802214175307"><ele>3.0</ele><time>2026-03-22T09:03:54Z</time></trkpt><trkpt lat="24.305958303402093" lon="120.54789176751177"><ele>3.0</ele><time>2026-03-22T09:03:56Z</time></trkpt><trkpt lat="24.30597495938831" lon="120.5478164162038"><ele>3.0</ele><time>2026-03-22T09:03:57Z</time></trkpt><trkpt lat="24.305994403696022" lon="120.54773251820386"><ele>3.0</ele><time>2026-03-22T09:03:58Z</time></trkpt><trkpt lat="24.30601165067183" lon="120.54765010176142"><ele>3.3333333333333335</ele><time>2026-03-22T09:03:59Z</time></trkpt><trkpt lat="24.306031702451957" lon="120.54756130829666"><ele>3.666666666666667</ele><time>2026-03-22T09:04:00Z</time></trkpt><trkpt lat="24.30605029949122" lon="120.54747220332807"><ele>4.0</ele><time>2026-03-22T09:04:01Z</time></trkpt><trkpt lat="24.306067996804565" lon="120.54738763785195"><ele>4.333333333333334</ele><time>2026-03-22T09:04:02Z</time></trkpt><trkpt lat="24.306084552054358" lon="120.54730795241068"><ele>4.666666666666667</ele><time>2026-03-22T09:04:03Z</time></trkpt><trkpt lat="24.306100514666984" lon="120.54723009719831"><ele>5.0</ele><time>2026-03-22T09:04:04Z</time></trkpt><trkpt lat="24.306114812877162" lon="120.5471534521205"><ele>5.0</ele><time>2026-03-22T09:04:05Z</time></trkpt><trkpt lat="24.306129542670632" lon="120.54708143352443"><ele>5.0</ele><time>2026-03-22T09:04:06Z</time></trkpt><trkpt lat="24.3061455812826" lon="120.5470056182185"><ele>5.0</ele><time>2026-03-22T09:04:07Z</time></trkpt><trkpt lat="24.306160551721028" lon="120.54693358670771"><ele>5.0</ele><time>2026-03-22T09:04:08Z</time></trkpt><trkpt lat="24.30616031413918" lon="120.54685895866533"><ele>5.0</ele><time>2026-03-22T09:04:09Z</time></trkpt><trkpt lat="24.30617394009605" lon="120.54679008107615"><ele>5.0</ele><time>2026-03-22T09:04:10Z</time></trkpt><trkpt lat="24.306205743278348" lon="120.54666555120652"><ele>4.6</ele><time>2026-03-22T09:04:12Z</time></trkpt><trkpt lat="24.306200016203505" lon="120.54657062571849"><ele>4.2</ele><time>2026-03-22T09:04:14Z</time></trkpt><trkpt lat="24.30612945651103" lon="120.54653210857985"><ele>3.8</ele><time>2026-03-22T09:04:15Z</time></trkpt><trkpt lat="24.30603766584027" lon="120.54649515077703"><ele>3.4</ele><time>2026-03-22T09:04:17Z</time></trkpt><trkpt lat="24.305917251581025" lon="120.5464832760385"><ele>3.0</ele><time>2026-03-22T09:04:19Z</time></trkpt><trkpt lat="24.3058469612216" lon="120.54648175862721"><ele>3.0</ele><time>2026-03-22T09:04:20Z</time></trkpt><trkpt lat="24.30577219308745" lon="120.54647995839113"><ele>3.0</ele><time>2026-03-22T09:04:21Z</time></trkpt><trkpt lat="24.305701792079784" lon="120.54647748194222"><ele>3.0</ele><time>2026-03-22T09:04:22Z</time></trkpt><trkpt lat="24.305630114036312" lon="120.5464758173158"><ele>3.0</ele><time>2026-03-22T09:04:23Z</time></trkpt><trkpt lat="24.30555636119467" lon="120.54646921551104"><ele>3.0</ele><time>2026-03-22T09:04:24Z</time></trkpt><trkpt lat="24.305479322848186" lon="120.54645977722174"><ele>3.0</ele><time>2026-03-22T09:04:25Z</time></trkpt><trkpt lat="24.305392997865606" lon="120.54645640935773"><ele>3.4</ele><time>2026-03-22T09:04:26Z</time></trkpt><trkpt lat="24.305304473406192" lon="120.54645287099171"><ele>3.8</ele><time>2026-03-22T09:04:27Z</time></trkpt><trkpt lat="24.30521524554354" lon="120.54644921170015"><ele>4.2</ele><time>2026-03-22T09:04:28Z</time></trkpt><trkpt lat="24.305126244628205" lon="120.54644111820352"><ele>4.6</ele><time>2026-03-22T09:04:29Z</time></trkpt><trkpt lat="24.305032892864403" lon="120.5464362675038"><ele>5.0</ele><time>2026-03-22T09:04:30Z</time></trkpt><trkpt lat="24.304941563433072" lon="120.54643116282764"><ele>5.0</ele><time>2026-03-22T09:04:31Z</time></trkpt><trkpt lat="24.30484707956069" lon="120.54642776776883"><ele>5.0</ele><time>2026-03-22T09:04:32Z</time></trkpt><trkpt lat="24.304749834299166" lon="120.54642088244012"><ele>5.0</ele><time>2026-03-22T09:04:33Z</time></trkpt><trkpt lat="24.304653946252166" lon="120.54641622681969"><ele>5.0</ele><time>2026-03-22T09:04:34Z</time></trkpt><trkpt lat="24.304560594920122" lon="120.54640802117234"><ele>5.0</ele><time>2026-03-22T09:04:35Z</time></trkpt><trkpt lat="24.30446187769656" lon="120.54640292492472"><ele>4.8</ele><time>2026-03-22T09:04:36Z</time></trkpt><trkpt lat="24.304362954076797" lon="120.54639786366208"><ele>4.6</ele><time>2026-03-22T09:04:37Z</time></trkpt><trkpt lat="24.30426482204235" lon="120.54639250176328"><ele>4.4</ele><time>2026-03-22T09:04:38Z</time></trkpt><trkpt lat="24.304166290624394" lon="120.5463849150754"><ele>4.2</ele><time>2026-03-22T09:04:39Z</time></trkpt><trkpt lat="24.304067771064577" lon="120.54637885188976"><ele>4.0</ele><time>2026-03-22T09:04:40Z</time></trkpt><trkpt lat="24.303969752417448" lon="120.54637803553747"><ele>4.0</ele><time>2026-03-22T09:04:41Z</time></trkpt><trkpt lat="24.303870942399648" lon="120.54638101799617"><ele>4.0</ele><time>2026-03-22T09:04:42Z</time></trkpt><trkpt lat="24.303773255433754" lon="120.54637955209571"><ele>4.0</ele><time>2026-03-22T09:04:43Z</time></trkpt><trkpt lat="24.303673361459975" lon="120.54637522551661"><ele>4.0</ele><time>2026-03-22T09:04:44Z</time></trkpt><trkpt lat="24.303580709020203" lon="120.54637001020869"><ele>4.0</ele><time>2026-03-22T09:04:45Z</time></trkpt><trkpt lat="24.303480392927447" lon="120.54636727955146"><ele>4.0</ele><time>2026-03-22T09:04:46Z</time></trkpt><trkpt lat="24.303381461464603" lon="120.5463639173771"><ele>4.0</ele><time>2026-03-22T09:04:47Z</time></trkpt><trkpt lat="24.30328818292314" lon="120.54635865042567"><ele>4.0</ele><time>2026-03-22T09:04:48Z</time></trkpt><trkpt lat="24.303196929188964" lon="120.54635365036212"><ele>4.0</ele><time>2026-03-22T09:04:49Z</time></trkpt><trkpt lat="24.303103061871795" lon="120.54634662790123"><ele>4.0</ele><time>2026-03-22T09:04:50Z</time></trkpt><trkpt lat="24.303008774253268" lon="120.54634105739234"><ele>4.4</ele><time>2026-03-22T09:04:51Z</time></trkpt><trkpt lat="24.30291628632843" lon="120.54633280400772"><ele>4.800000000000001</ele><time>2026-03-22T09:04:52Z</time></trkpt><trkpt lat="24.302823194817798" lon="120.54632495919135"><ele>5.199999999999999</ele><time>2026-03-22T09:04:53Z</time></trkpt><trkpt lat="24.30273289576558" lon="120.54631757152868"><ele>5.6</ele><time>2026-03-22T09:04:54Z</time></trkpt><trkpt lat="24.302642562959672" lon="120.54631347333944"><ele>6.0</ele><time>2026-03-22T09:04:55Z</time></trkpt><trkpt lat="24.30255155263141" lon="120.54630908616208"><ele>6.0</ele><time>2026-03-22T09:04:56Z</time></trkpt><trkpt lat="24.30246093194723" lon="120.54630212022491"><ele>6.0</ele><time>2026-03-22T09:04:57Z</time></trkpt><trkpt lat="24.30236830405835" lon="120.54629548573165"><ele>6.0</ele><time>2026-03-22T09:04:58Z</time></trkpt><trkpt lat="24.30227205297487" lon="120.54628802310037"><ele>6.0</ele><time>2026-03-22T09:04:59Z</time></trkpt><trkpt lat="24.30217499688579" lon="120.54628146257313"><ele>6.0</ele><time>2026-03-22T09:05:00Z</time></trkpt><trkpt lat="24.302082356491862" lon="120.54627656770636"><ele>5.8</ele><time>2026-03-22T09:05:01Z</time></trkpt><trkpt lat="24.301986708670544" lon="120.54627227736938"><ele>5.6</ele><time>2026-03-22T09:05:02Z</time></trkpt><trkpt lat="24.301889485334936" lon="120.54626928703553"><ele>5.4</ele><time>2026-03-22T09:05:03Z</time></trkpt><trkpt lat="24.30179312970022" lon="120.54626214397163"><ele>5.2</ele><time>2026-03-22T09:05:04Z</time></trkpt><trkpt lat="24.301697822402865" lon="120.54625712269863"><ele>5.0</ele><time>2026-03-22T09:05:05Z</time></trkpt><trkpt lat="24.30160136755717" lon="120.54625238017948"><ele>5.0</ele><time>2026-03-22T09:05:06Z</time></trkpt><trkpt lat="24.30150741243184" lon="120.54624729424164"><ele>5.0</ele><time>2026-03-22T09:05:07Z</time></trkpt><trkpt lat="24.301414727372624" lon="120.54624443950057"><ele>5.0</ele><time>2026-03-22T09:05:08Z</time></trkpt><trkpt lat="24.301329415225187" lon="120.54624026172434"><ele>5.0</ele><time>2026-03-22T09:05:09Z</time></trkpt><trkpt lat="24.301244206501345" lon="120.54623539687502"><ele>5.0</ele><time>2026-03-22T09:05:10Z</time></trkpt><trkpt lat="24.301161539969502" lon="120.54623333624505"><ele>5.0</ele><time>2026-03-22T09:05:11Z</time></trkpt><trkpt lat="24.30108045236928" lon="120.54622865698705"><ele>5.0</ele><time>2026-03-22T09:05:12Z</time></trkpt><trkpt lat="24.301002312411324" lon="120.54622464142588"><ele>5.0</ele><time>2026-03-22T09:05:13Z</time></trkpt><trkpt lat="24.30092580052974" lon="120.54622171033368"><ele>5.0</ele><time>2026-03-22T09:05:14Z</time></trkpt><trkpt lat="24.300849431600174" lon="120.54621872071014"><ele>5.0</ele><time>2026-03-22T09:05:15Z</time></trkpt><trkpt lat="24.300775994575726" lon="120.54621072764763"><ele>5.0</ele><time>2026-03-22T09:05:16Z</time></trkpt><trkpt lat="24.30070586029199" lon="120.54620621166085"><ele>5.0</ele><time>2026-03-22T09:05:17Z</time></trkpt><trkpt lat="24.300637242270735" lon="120.54620345260655"><ele>5.0</ele><time>2026-03-22T09:05:18Z</time></trkpt><trkpt lat="24.30052612641328" lon="120.54619744050146"><ele>4.5</ele><time>2026-03-22T09:05:20Z</time></trkpt><trkpt lat="24.300460046993187" lon="120.54619437958833"><ele>4.0</ele><time>2026-03-22T09:05:22Z</time></trkpt><trkpt lat="24.30039626031333" lon="120.54617917431975"><ele>3.5</ele><time>2026-03-22T09:05:58Z</time></trkpt><trkpt lat="24.30033229250446" lon="120.5461777309236"><ele>3.0</ele><time>2026-03-22T09:06:00Z</time></trkpt><trkpt lat="24.300257324874927" lon="120.54617805163501"><ele>2.5</ele><time>2026-03-22T09:06:02Z</time></trkpt><trkpt lat="24.30017179821302" lon="120.5461723752031"><ele>2.0</ele><time>2026-03-22T09:06:04Z</time></trkpt><trkpt lat="24.30006185562403" lon="120.54616773316988"><ele>2.0</ele><time>2026-03-22T09:06:06Z</time></trkpt><trkpt lat="24.299961350843297" lon="120.54616566313703"><ele>2.0</ele><time>2026-03-22T09:06:08Z</time></trkpt><trkpt lat="24.29984451000065" lon="120.5461635659321"><ele>2.0</ele><time>2026-03-22T09:06:10Z</time></trkpt><trkpt lat="24.299800096243953" lon="120.5462149244794"><ele>2.0</ele><time>2026-03-22T09:06:11Z</time></trkpt><trkpt lat="24.299703428934226" lon="120.54624657801152"><ele>2.0</ele><time>2026-03-22T09:06:12Z</time></trkpt><trkpt lat="24.299648472320715" lon="120.54629920385506"><ele>2.333333333333333</ele><time>2026-03-22T09:06:14Z</time></trkpt><trkpt lat="24.299561310409146" lon="120.54636139525935"><ele>2.6666666666666665</ele><time>2026-03-22T09:06:16Z</time></trkpt><trkpt lat="24.299512716254657" lon="120.54640760921718"><ele>3.0</ele><time>2026-03-22T09:06:17Z</time></trkpt><trkpt lat="24.29946159825286" lon="120.54646623549522"><ele>3.333333333333333</ele><time>2026-03-22T09:06:18Z</time></trkpt><trkpt lat="24.299413076886392" lon="120.54652923848954"><ele>3.6666666666666665</ele><time>2026-03-22T09:06:19Z</time></trkpt><trkpt lat="24.299367591834994" lon="120.54659909387674"><ele>4.0</ele><time>2026-03-22T09:06:20Z</time></trkpt><trkpt lat="24.2993242425716" lon="120.54667057656359"><ele>4.0</ele><time>2026-03-22T09:06:21Z</time></trkpt><trkpt lat="24.299277620216515" lon="120.54674931766218"><ele>4.0</ele><time>2026-03-22T09:06:22Z</time></trkpt><trkpt lat="24.299218279536905" lon="120.54682101644134"><ele>4.0</ele><time>2026-03-22T09:06:23Z</time></trkpt><trkpt lat="24.299171281664574" lon="120.54690681073431"><ele>4.0</ele><time>2026-03-22T09:06:24Z</time></trkpt><trkpt lat="24.29912313130421" lon="120.54699430063474"><ele>4.0</ele><time>2026-03-22T09:06:25Z</time></trkpt><trkpt lat="24.299071858776657" lon="120.54708981969446"><ele>4.2</ele><time>2026-03-22T09:06:26Z</time></trkpt><trkpt lat="24.299018460525602" lon="120.54718831732066"><ele>4.4</ele><time>2026-03-22T09:06:27Z</time></trkpt><trkpt lat="24.298966968740192" lon="120.5472864636806"><ele>4.6</ele><time>2026-03-22T09:06:28Z</time></trkpt><trkpt lat="24.29891509493767" lon="120.54738547217535"><ele>4.8</ele><time>2026-03-22T09:06:29Z</time></trkpt><trkpt lat="24.2988609373397" lon="120.54748902413876"><ele>5.0</ele><time>2026-03-22T09:06:30Z</time></trkpt><trkpt lat="24.298805510889483" lon="120.5475987469405"><ele>5.0</ele><time>2026-03-22T09:06:31Z</time></trkpt><trkpt lat="24.29875050708535" lon="120.54771801171702"><ele>5.0</ele><time>2026-03-22T09:06:32Z</time></trkpt><trkpt lat="24.298692459315433" lon="120.54783805085309"><ele>5.0</ele><time>2026-03-22T09:06:33Z</time></trkpt><trkpt lat="24.298639385506334" lon="120.54796429384236"><ele>5.0</ele><time>2026-03-22T09:06:34Z</time></trkpt><trkpt lat="24.29858671612795" lon="120.54809443936657"><ele>4.0</ele><time>2026-03-22T09:06:35Z</time></trkpt><trkpt lat="24.298530539004837" lon="120.54822539276468"><ele>3.0</ele><time>2026-03-22T09:06:36Z</time></trkpt><trkpt lat="24.298453341458888" lon="120.54834293841641"><ele>2.0</ele><time>2026-03-22T09:06:37Z</time></trkpt><trkpt lat="24.298388767147546" lon="120.54847027197746"><ele>1.0</ele><time>2026-03-22T09:06:38Z</time></trkpt><trkpt lat="24.29832307258231" lon="120.54860041688698"><ele>1.0</ele><time>2026-03-22T09:06:39Z</time></trkpt><trkpt lat="24.29825524989188" lon="120.54872936511136"><ele>1.0</ele><time>2026-03-22T09:06:40Z</time></trkpt><trkpt lat="24.298187151779874" lon="120.54885760889984"><ele>1.0</ele><time>2026-03-22T09:06:41Z</time></trkpt><trkpt lat="24.298119494923966" lon="120.54898502170565"><ele>1.0</ele><time>2026-03-22T09:06:42Z</time></trkpt><trkpt lat="24.298053202042343" lon="120.54911102386812"><ele>1.0</ele><time>2026-03-22T09:06:43Z</time></trkpt><trkpt lat="24.29798886877908" lon="120.54923588111079"><ele>1.0</ele><time>2026-03-22T09:06:44Z</time></trkpt><trkpt lat="24.297925703970197" lon="120.54936028603974"><ele>1.0</ele><time>2026-03-22T09:06:45Z</time></trkpt><trkpt lat="24.297866537477635" lon="120.54948031661023"><ele>1.0</ele><time>2026-03-22T09:06:46Z</time></trkpt><trkpt lat="24.29781367496884" lon="120.54958897906094"><ele>1.2000000000000002</ele><time>2026-03-22T09:06:47Z</time></trkpt><trkpt lat="24.297766559940847" lon="120.54968524978582"><ele>1.4000000000000001</ele><time>2026-03-22T09:06:48Z</time></trkpt><trkpt lat="24.29773969752775" lon="120.54977791920882"><ele>1.6</ele><time>2026-03-22T09:06:49Z</time></trkpt><trkpt lat="24.297702069752184" lon="120.54985275343395"><ele>1.8</ele><time>2026-03-22T09:06:50Z</time></trkpt><trkpt lat="24.297667646357816" lon="120.54991883082197"><ele>2.0</ele><time>2026-03-22T09:06:51Z</time></trkpt><trkpt lat="24.297613057478976" lon="120.55003180335807"><ele>1.9999999999999998</ele><time>2026-03-22T09:06:53Z</time></trkpt><trkpt lat="24.297566916163905" lon="120.55012489468724"><ele>2.0</ele><time>2026-03-22T09:06:55Z</time></trkpt><trkpt lat="24.297514143810634" lon="120.55019615493055"><ele>2.0</ele><time>2026-03-22T09:06:57Z</time></trkpt><trkpt lat="24.297491304305353" lon="120.55027711522827"><ele>2.0</ele><time>2026-03-22T09:07:00Z</time></trkpt><trkpt lat="24.297445469789306" lon="120.55033443577165"><ele>1.9999999999999998</ele><time>2026-03-22T09:07:30.999Z</time></trkpt><trkpt lat="24.297407015034434" lon="120.55041229938104"><ele>2.0</ele><time>2026-03-22T09:07:32.999Z</time></trkpt><trkpt lat="24.2973632233637" lon="120.55050119707141"><ele>2.0</ele><time>2026-03-22T09:07:34.999Z</time></trkpt><trkpt lat="24.297304296152976" lon="120.55061805751006"><ele>2.0</ele><time>2026-03-22T09:07:36.999Z</time></trkpt><trkpt lat="24.297243504784085" lon="120.55074013519913"><ele>2.0</ele><time>2026-03-22T09:07:39Z</time></trkpt><trkpt lat="24.297207969901407" lon="120.5508115538055"><ele>2.0</ele><time>2026-03-22T09:07:40Z</time></trkpt><trkpt lat="24.29717006933899" lon="120.55088772698143"><ele>2.0</ele><time>2026-03-22T09:07:41Z</time></trkpt><trkpt lat="24.297131569252855" lon="120.55096510511503"><ele>1.9999999999999998</ele><time>2026-03-22T09:07:42Z</time></trkpt><trkpt lat="24.297092065990814" lon="120.5510463639183"><ele>2.0</ele><time>2026-03-22T09:07:43Z</time></trkpt><trkpt lat="24.29705213214209" lon="120.55112842680708"><ele>2.0</ele><time>2026-03-22T09:07:44Z</time></trkpt><trkpt lat="24.297011610729044" lon="120.55121240348326"><ele>2.0</ele><time>2026-03-22T09:07:45Z</time></trkpt><trkpt lat="24.296973099193718" lon="120.55129056669078"><ele>1.9999999999999998</ele><time>2026-03-22T09:07:46Z</time></trkpt><trkpt lat="24.296936449083763" lon="120.55136495195245"><ele>2.0</ele><time>2026-03-22T09:07:47Z</time></trkpt><trkpt lat="24.296901132713757" lon="120.55143663023902"><ele>2.0</ele><time>2026-03-22T09:07:48Z</time></trkpt><trkpt lat="24.296865737147733" lon="120.55150846926584"><ele>1.9999999999999998</ele><time>2026-03-22T09:07:49Z</time></trkpt><trkpt lat="24.296844538663933" lon="120.55158843948558"><ele>2.0</ele><time>2026-03-22T09:07:50Z</time></trkpt><trkpt lat="24.296807411041957" lon="120.55165627584817"><ele>2.0</ele><time>2026-03-22T09:07:51Z</time></trkpt><trkpt lat="24.29677435151477" lon="120.55172235772177"><ele>1.9999999999999998</ele><time>2026-03-22T09:07:52Z</time></trkpt><trkpt lat="24.29674241894556" lon="120.55178580953147"><ele>2.0</ele><time>2026-03-22T09:07:53Z</time></trkpt><trkpt lat="24.296711160681692" lon="120.55184724300034"><ele>2.0</ele><time>2026-03-22T09:07:54Z</time></trkpt><trkpt lat="24.296639021361386" lon="120.55195174947555"><ele>2.2</ele><time>2026-03-22T09:07:56Z</time></trkpt><trkpt lat="24.296583889473514" lon="120.55205794488303"><ele>2.4000000000000004</ele><time>2026-03-22T09:07:58Z</time></trkpt><trkpt lat="24.296533516279354" lon="120.55215406124485"><ele>2.5999999999999996</ele><time>2026-03-22T09:08:00Z</time></trkpt><trkpt lat="24.29648259827613" lon="120.55224953250455"><ele>2.8</ele><time>2026-03-22T09:08:02Z</time></trkpt><trkpt lat="24.29643494036442" lon="120.55233810108284"><ele>3.0</ele><time>2026-03-22T09:08:04Z</time></trkpt><trkpt lat="24.296400412099675" lon="120.55240187988005"><ele>3.0</ele><time>2026-03-22T09:08:06Z</time></trkpt><trkpt lat="24.29636772923392" lon="120.55246224997092"><ele>3.0</ele><time>2026-03-22T09:08:10Z</time></trkpt><trkpt lat="24.29633544469471" lon="120.55256601719012"><ele>3.0</ele><time>2026-03-22T09:08:58Z</time></trkpt><trkpt lat="24.29629236634365" lon="120.55264558386759"><ele>3.0</ele><time>2026-03-22T09:09:00Z</time></trkpt><trkpt lat="24.29623146416918" lon="120.55276173668283"><ele>3.0</ele><time>2026-03-22T09:09:02Z</time></trkpt><trkpt lat="24.296168772581392" lon="120.55287290287104"><ele>3.1666666666666665</ele><time>2026-03-22T09:09:04Z</time></trkpt><trkpt lat="24.29613438801371" lon="120.55294073204"><ele>3.333333333333333</ele><time>2026-03-22T09:09:05Z</time></trkpt><trkpt lat="24.296094263507115" lon="120.5530221957686"><ele>3.5</ele><time>2026-03-22T09:09:06Z</time></trkpt><trkpt lat="24.29605222597554" lon="120.55309263618413"><ele>3.6666666666666665</ele><time>2026-03-22T09:09:07Z</time></trkpt><trkpt lat="24.296008093416134" lon="120.55317766726905"><ele>3.833333333333333</ele><time>2026-03-22T09:09:08Z</time></trkpt><trkpt lat="24.295961637539232" lon="120.55326563198702"><ele>4.0</ele><time>2026-03-22T09:09:09Z</time></trkpt><trkpt lat="24.295897588281726" lon="120.55334821974047"><ele>4.0</ele><time>2026-03-22T09:09:10Z</time></trkpt><trkpt lat="24.295849074632436" lon="120.55344072247746"><ele>4.0</ele><time>2026-03-22T09:09:11Z</time></trkpt><trkpt lat="24.295801961393373" lon="120.55353188266213"><ele>4.0</ele><time>2026-03-22T09:09:12Z</time></trkpt><trkpt lat="24.295755771445666" lon="120.55362123198096"><ele>4.0</ele><time>2026-03-22T09:09:13Z</time></trkpt><trkpt lat="24.295724519312525" lon="120.55371676795303"><ele>4.0</ele><time>2026-03-22T09:09:14Z</time></trkpt><trkpt lat="24.295676209071065" lon="120.55379636826025"><ele>4.0</ele><time>2026-03-22T09:09:15Z</time></trkpt><trkpt lat="24.295635662181198" lon="120.55388283361765"><ele>4.0</ele><time>2026-03-22T09:09:16Z</time></trkpt><trkpt lat="24.295591714052172" lon="120.55396917536883"><ele>4.0</ele><time>2026-03-22T09:09:17Z</time></trkpt><trkpt lat="24.295541832576564" lon="120.55405789672017"><ele>4.0</ele><time>2026-03-22T09:09:18Z</time></trkpt><trkpt lat="24.295491723378323" lon="120.55414549748286"><ele>4.0</ele><time>2026-03-22T09:09:19Z</time></trkpt><trkpt lat="24.295442931094065" lon="120.55423152181508"><ele>3.9999999999999996</ele><time>2026-03-22T09:09:20Z</time></trkpt><trkpt lat="24.2953955053483" lon="120.55431529902819"><ele>4.0</ele><time>2026-03-22T09:09:21Z</time></trkpt><trkpt lat="24.295348727850897" lon="120.55439547889735"><ele>4.0</ele><time>2026-03-22T09:09:22Z</time></trkpt><trkpt lat="24.29530421067194" lon="120.55447442379622"><ele>4.0</ele><time>2026-03-22T09:09:23Z</time></trkpt><trkpt lat="24.29526183574795" lon="120.5545501542754"><ele>3.9999999999999996</ele><time>2026-03-22T09:09:24Z</time></trkpt><trkpt lat="24.295223518430465" lon="120.55462013954234"><ele>4.0</ele><time>2026-03-22T09:09:25Z</time></trkpt><trkpt lat="24.29518685983455" lon="120.55468361481667"><ele>3.833333333333333</ele><time>2026-03-22T09:09:26Z</time></trkpt><trkpt lat="24.29512757151371" lon="120.55477754746086"><ele>3.6666666666666665</ele><time>2026-03-22T09:09:28Z</time></trkpt><trkpt lat="24.295080722670622" lon="120.55484161290475"><ele>3.5</ele><time>2026-03-22T09:09:30.999Z</time></trkpt><trkpt lat="24.295029992490043" lon="120.55491283632773"><ele>3.333333333333333</ele><time>2026-03-22T09:10:16Z</time></trkpt><trkpt lat="24.29497749587103" lon="120.55497703932035"><ele>3.1666666666666665</ele><time>2026-03-22T09:10:19Z</time></trkpt><trkpt lat="24.294922293200898" lon="120.55504123217807"><ele>3.0</ele><time>2026-03-22T09:10:22Z</time></trkpt><trkpt lat="24.294856139356433" lon="120.55511548836715"><ele>3.0</ele><time>2026-03-22T09:10:25Z</time></trkpt><trkpt lat="24.29480851870108" lon="120.5551677645582"><ele>3.0</ele><time>2026-03-22T09:10:27Z</time></trkpt><trkpt lat="24.29471638330697" lon="120.55524274460213"><ele>3.0</ele><time>2026-03-22T09:10:29Z</time></trkpt><trkpt lat="24.29466598614204" lon="120.55528856620467"><ele>3.0</ele><time>2026-03-22T09:10:30Z</time></trkpt><trkpt lat="24.294572749866536" lon="120.5553671276357"><ele>3.0</ele><time>2026-03-22T09:10:32Z</time></trkpt><trkpt lat="24.294611736827974" lon="120.55550917758191"><ele>3.4</ele><time>2026-03-22T09:10:33Z</time></trkpt><trkpt lat="24.294603611742733" lon="120.55564502258648"><ele>3.8</ele><time>2026-03-22T09:10:35Z</time></trkpt><trkpt lat="24.29462056403038" lon="120.55572285773663"><ele>4.2</ele><time>2026-03-22T09:10:36Z</time></trkpt><trkpt lat="24.294645820727997" lon="120.5558032140254"><ele>4.6</ele><time>2026-03-22T09:10:37Z</time></trkpt><trkpt lat="24.29467243301804" lon="120.55589257167534"><ele>5.0</ele><time>2026-03-22T09:10:38Z</time></trkpt><trkpt lat="24.2946996527307" lon="120.55599089851242"><ele>5.0</ele><time>2026-03-22T09:10:39Z</time></trkpt><trkpt lat="24.294727031303573" lon="120.55609147881655"><ele>5.0</ele><time>2026-03-22T09:10:40Z</time></trkpt><trkpt lat="24.294752419638154" lon="120.55619292892271"><ele>5.0</ele><time>2026-03-22T09:10:41Z</time></trkpt><trkpt lat="24.294778891105484" lon="120.55629242468194"><ele>5.0</ele><time>2026-03-22T09:10:42Z</time></trkpt><trkpt lat="24.294805971367566" lon="120.55639331325405"><ele>5.0</ele><time>2026-03-22T09:10:43Z</time></trkpt><trkpt lat="24.29483499309132" lon="120.55649905107175"><ele>5.2</ele><time>2026-03-22T09:10:44Z</time></trkpt><trkpt lat="24.294865666096456" lon="120.5566082159448"><ele>5.4</ele><time>2026-03-22T09:10:45Z</time></trkpt><trkpt lat="24.294895759297596" lon="120.55672064034472"><ele>5.6</ele><time>2026-03-22T09:10:46Z</time></trkpt><trkpt lat="24.29492832052364" lon="120.55683628618414"><ele>5.8</ele><time>2026-03-22T09:10:47Z</time></trkpt><trkpt lat="24.294961530073536" lon="120.55695641268379"><ele>6.0</ele><time>2026-03-22T09:10:48Z</time></trkpt><trkpt lat="24.294994405004953" lon="120.55707824415511"><ele>6.0</ele><time>2026-03-22T09:10:49Z</time></trkpt><trkpt lat="24.29502896235437" lon="120.55720054831191"><ele>6.0</ele><time>2026-03-22T09:10:50Z</time></trkpt><trkpt lat="24.295062018520735" lon="120.55732229541812"><ele>6.0</ele><time>2026-03-22T09:10:51Z</time></trkpt><trkpt lat="24.295096280005932" lon="120.55744396608532"><ele>6.0</ele><time>2026-03-22T09:10:52Z</time></trkpt><trkpt lat="24.295128829197978" lon="120.55756447783467"><ele>6.0</ele><time>2026-03-22T09:10:53Z</time></trkpt><trkpt lat="24.295163444982798" lon="120.5576883365306"><ele>6.0</ele><time>2026-03-22T09:10:54Z</time></trkpt><trkpt lat="24.295197910847808" lon="120.557819029417"><ele>6.0</ele><time>2026-03-22T09:10:55Z</time></trkpt><trkpt lat="24.29523392738984" lon="120.55794877175683"><ele>6.0</ele><time>2026-03-22T09:10:56Z</time></trkpt><trkpt lat="24.29527095236307" lon="120.55808052152562"><ele>5.75</ele><time>2026-03-22T09:10:57Z</time></trkpt><trkpt lat="24.29530743916379" lon="120.55821526635407"><ele>5.5</ele><time>2026-03-22T09:10:58Z</time></trkpt><trkpt lat="24.29534372364719" lon="120.55835332911502"><ele>5.25</ele><time>2026-03-22T09:10:59Z</time></trkpt><trkpt lat="24.29537872004641" lon="120.55848771271407"><ele>5.0</ele><time>2026-03-22T09:11:00Z</time></trkpt><trkpt lat="24.295415049340825" lon="120.55862162353851"><ele>5.0</ele><time>2026-03-22T09:11:01Z</time></trkpt><trkpt lat="24.295451126124775" lon="120.55875393458575"><ele>5.0</ele><time>2026-03-22T09:11:02Z</time></trkpt><trkpt lat="24.29548711924925" lon="120.55888692571665"><ele>5.0</ele><time>2026-03-22T09:11:03Z</time></trkpt><trkpt lat="24.295523442663903" lon="120.5590197072315"><ele>5.0</ele><time>2026-03-22T09:11:04Z</time></trkpt><trkpt lat="24.295558988048338" lon="120.55915052632446"><ele>5.5</ele><time>2026-03-22T09:11:05Z</time></trkpt><trkpt lat="24.295595627330457" lon="120.55928341535136"><ele>6.0</ele><time>2026-03-22T09:11:06Z</time></trkpt><trkpt lat="24.295633122460313" lon="120.55942087232575"><ele>6.5</ele><time>2026-03-22T09:11:07Z</time></trkpt><trkpt lat="24.295671194185832" lon="120.55956027553269"><ele>7.0</ele><time>2026-03-22T09:11:08Z</time></trkpt><trkpt lat="24.295709708678952" lon="120.55970098217256"><ele>7.0</ele><time>2026-03-22T09:11:09Z</time></trkpt><trkpt lat="24.29574706115586" lon="120.55983917615477"><ele>7.0</ele><time>2026-03-22T09:11:10Z</time></trkpt><trkpt lat="24.29578531766733" lon="120.55997933643636"><ele>7.0</ele><time>2026-03-22T09:11:11Z</time></trkpt><trkpt lat="24.295824565243546" lon="120.56012121863861"><ele>7.0</ele><time>2026-03-22T09:11:12Z</time></trkpt><trkpt lat="24.29586233224349" lon="120.5602631009501"><ele>7.25</ele><time>2026-03-22T09:11:13Z</time></trkpt><trkpt lat="24.295898178428722" lon="120.5604028677961"><ele>7.5</ele><time>2026-03-22T09:11:14Z</time></trkpt><trkpt lat="24.29593605851647" lon="120.56053994375462"><ele>7.75</ele><time>2026-03-22T09:11:15Z</time></trkpt><trkpt lat="24.295974472201852" lon="120.56067462704185"><ele>8.0</ele><time>2026-03-22T09:11:16Z</time></trkpt><trkpt lat="24.296010360832042" lon="120.56080454280794"><ele>8.0</ele><time>2026-03-22T09:11:17Z</time></trkpt><trkpt lat="24.29604572055531" lon="120.56092453926846"><ele>8.0</ele><time>2026-03-22T09:11:18Z</time></trkpt><trkpt lat="24.296075482946303" lon="120.56103499717064"><ele>8.0</ele><time>2026-03-22T09:11:19Z</time></trkpt><trkpt lat="24.29610211885562" lon="120.56113614754588"><ele>8.0</ele><time>2026-03-22T09:11:20Z</time></trkpt><trkpt lat="24.29612776015266" lon="120.56123096363632"><ele>8.0</ele><time>2026-03-22T09:11:21Z</time></trkpt><trkpt lat="24.29615028037698" lon="120.56131521781619"><ele>8.0</ele><time>2026-03-22T09:11:22Z</time></trkpt><trkpt lat="24.296170365542604" lon="120.56139013580857"><ele>7.999999999999999</ele><time>2026-03-22T09:11:23Z</time></trkpt><trkpt lat="24.296189410722675" lon="120.5614584942343"><ele>8.0</ele><time>2026-03-22T09:11:24Z</time></trkpt><trkpt lat="24.296208548957456" lon="120.56153047243247"><ele>8.0</ele><time>2026-03-22T09:11:25Z</time></trkpt><trkpt lat="24.296229762216356" lon="120.5616082111351"><ele>7.999999999999999</ele><time>2026-03-22T09:11:26Z</time></trkpt><trkpt lat="24.29625322571209" lon="120.56169274601808"><ele>8.0</ele><time>2026-03-22T09:11:27Z</time></trkpt><trkpt lat="24.296279125825425" lon="120.56178579566874"><ele>8.0</ele><time>2026-03-22T09:11:28Z</time></trkpt><trkpt lat="24.296305632162387" lon="120.56188515768483"><ele>8.0</ele><time>2026-03-22T09:11:29Z</time></trkpt><trkpt lat="24.296334880749956" lon="120.56199005004973"><ele>8.0</ele><time>2026-03-22T09:11:30Z</time></trkpt><trkpt lat="24.296363974016234" lon="120.5620993309592"><ele>8.0</ele><time>2026-03-22T09:11:31Z</time></trkpt><trkpt lat="24.29639255681658" lon="120.56220644138692"><ele>8.0</ele><time>2026-03-22T09:11:32Z</time></trkpt><trkpt lat="24.296421000830048" lon="120.56231380199769"><ele>8.0</ele><time>2026-03-22T09:11:33Z</time></trkpt><trkpt lat="24.296451817447668" lon="120.56242707072221"><ele>8.0</ele><time>2026-03-22T09:11:34Z</time></trkpt><trkpt lat="24.29648316241456" lon="120.56254347418265"><ele>8.0</ele><time>2026-03-22T09:11:34.999Z</time></trkpt><trkpt lat="24.296514482944726" lon="120.56266253257321"><ele>8.0</ele><time>2026-03-22T09:11:35.999Z</time></trkpt><trkpt lat="24.29654546711342" lon="120.56277965183021"><ele>8.0</ele><time>2026-03-22T09:11:36.999Z</time></trkpt><trkpt lat="24.29657673245474" lon="120.56289309907544"><ele>8.0</ele><time>2026-03-22T09:11:37.999Z</time></trkpt><trkpt lat="24.29660659989606" lon="120.56300458154811"><ele>8.0</ele><time>2026-03-22T09:11:38.999Z</time></trkpt><trkpt lat="24.29663621659062" lon="120.56311462794041"><ele>8.0</ele><time>2026-03-22T09:11:39.999Z</time></trkpt><trkpt lat="24.29666495437692" lon="120.5632206120425"><ele>8.0</ele><time>2026-03-22T09:11:40.999Z</time></trkpt><trkpt lat="24.296694268488153" lon="120.56332457519717"><ele>8.0</ele><time>2026-03-22T09:11:41.999Z</time></trkpt><trkpt lat="24.2967227257515" lon="120.56342535555129"><ele>8.0</ele><time>2026-03-22T09:11:42.999Z</time></trkpt><trkpt lat="24.29675039404119" lon="120.56352590418135"><ele>7.999999999999999</ele><time>2026-03-22T09:11:43.999Z</time></trkpt><trkpt lat="24.296775486764247" lon="120.56362269282796"><ele>8.0</ele><time>2026-03-22T09:11:44.999Z</time></trkpt><trkpt lat="24.29680102265042" lon="120.5637187996569"><ele>8.0</ele><time>2026-03-22T09:11:45.999Z</time></trkpt><trkpt lat="24.296825237350056" lon="120.56381073605749"><ele>8.0</ele><time>2026-03-22T09:11:46.999Z</time></trkpt><trkpt lat="24.296847175220687" lon="120.56389449076697"><ele>7.999999999999999</ele><time>2026-03-22T09:11:47.999Z</time></trkpt><trkpt lat="24.29686698112814" lon="120.5639705960187"><ele>8.0</ele><time>2026-03-22T09:11:48.999Z</time></trkpt><trkpt lat="24.29688513244299" lon="120.56403776802318"><ele>8.166666666666666</ele><time>2026-03-22T09:11:49.999Z</time></trkpt><trkpt lat="24.29691337008743" lon="120.56414233860745"><ele>8.333333333333332</ele><time>2026-03-22T09:11:52Z</time></trkpt><trkpt lat="24.29693485244184" lon="120.56421531783131"><ele>8.5</ele><time>2026-03-22T09:11:55Z</time></trkpt><trkpt lat="24.29695010494887" lon="120.56429151251777"><ele>8.666666666666666</ele><time>2026-03-22T09:12:25Z</time></trkpt><trkpt lat="24.29697256444718" lon="120.56437474362066"><ele>8.833333333333334</ele><time>2026-03-22T09:12:27Z</time></trkpt><trkpt lat="24.297003267351016" lon="120.56448948788835"><ele>9.0</ele><time>2026-03-22T09:12:29Z</time></trkpt><trkpt lat="24.29702112575342" lon="120.56455630385102"><ele>9.0</ele><time>2026-03-22T09:12:30Z</time></trkpt><trkpt lat="24.297057858315213" lon="120.56469282303235"><ele>9.0</ele><time>2026-03-22T09:12:32Z</time></trkpt><trkpt lat="24.297079674438713" lon="120.56477332906344"><ele>9.0</ele><time>2026-03-22T09:12:33Z</time></trkpt><trkpt lat="24.297103627718773" lon="120.5648622014222"><ele>9.0</ele><time>2026-03-22T09:12:34Z</time></trkpt><trkpt lat="24.297128924784655" lon="120.56495638669725"><ele>9.0</ele><time>2026-03-22T09:12:35Z</time></trkpt><trkpt lat="24.297155814866112" lon="120.56505683354972"><ele>9.0</ele><time>2026-03-22T09:12:36Z</time></trkpt><trkpt lat="24.297184184768568" lon="120.56516207413513"><ele>9.0</ele><time>2026-03-22T09:12:37Z</time></trkpt><trkpt lat="24.297212440063724" lon="120.56526489516094"><ele>9.0</ele><time>2026-03-22T09:12:38Z</time></trkpt><trkpt lat="24.297239953993717" lon="120.56536919255042"><ele>9.0</ele><time>2026-03-22T09:12:39Z</time></trkpt><trkpt lat="24.29726918111896" lon="120.5654795630018"><ele>9.0</ele><time>2026-03-22T09:12:40Z</time></trkpt><trkpt lat="24.29729964766694" lon="120.56559406423577"><ele>9.25</ele><time>2026-03-22T09:12:41Z</time></trkpt><trkpt lat="24.297332048120172" lon="120.56571302272458"><ele>9.5</ele><time>2026-03-22T09:12:42Z</time></trkpt><trkpt lat="24.297365445948795" lon="120.56583643586744"><ele>9.75</ele><time>2026-03-22T09:12:43Z</time></trkpt><trkpt lat="24.297401710558386" lon="120.56596426410444"><ele>10.0</ele><time>2026-03-22T09:12:44Z</time></trkpt><trkpt lat="24.297438788571462" lon="120.5660963048104"><ele>10.0</ele><time>2026-03-22T09:12:45Z</time></trkpt><trkpt lat="24.297475411563767" lon="120.56623262195406"><ele>10.0</ele><time>2026-03-22T09:12:46Z</time></trkpt><trkpt lat="24.2975145156538" lon="120.56637401513856"><ele>10.0</ele><time>2026-03-22T09:12:47Z</time></trkpt><trkpt lat="24.29755265710856" lon="120.56651378567024"><ele>10.0</ele><time>2026-03-22T09:12:48Z</time></trkpt><trkpt lat="24.297591022759903" lon="120.56665316605947"><ele>10.0</ele><time>2026-03-22T09:12:49Z</time></trkpt><trkpt lat="24.297630222740917" lon="120.56679460043244"><ele>10.0</ele><time>2026-03-22T09:12:50Z</time></trkpt><trkpt lat="24.297669438073726" lon="120.5669395264725"><ele>10.0</ele><time>2026-03-22T09:12:51Z</time></trkpt><trkpt lat="24.297709485159476" lon="120.5670865340516"><ele>10.0</ele><time>2026-03-22T09:12:52Z</time></trkpt><trkpt lat="24.29775057520795" lon="120.5672354106238"><ele>10.25</ele><time>2026-03-22T09:12:53Z</time></trkpt><trkpt lat="24.2977910340934" lon="120.56738569880626"><ele>10.5</ele><time>2026-03-22T09:12:54Z</time></trkpt><trkpt lat="24.297831678188654" lon="120.56753772550675"><ele>10.75</ele><time>2026-03-22T09:12:55Z</time></trkpt><trkpt lat="24.297873687679356" lon="120.56768628107024"><ele>11.0</ele><time>2026-03-22T09:12:56Z</time></trkpt><trkpt lat="24.297913079042576" lon="120.56783067784717"><ele>11.5</ele><time>2026-03-22T09:12:57Z</time></trkpt><trkpt lat="24.297951102035594" lon="120.5679712299956"><ele>12.0</ele><time>2026-03-22T09:12:58Z</time></trkpt><trkpt lat="24.297989369381455" lon="120.56810986021863"><ele>12.5</ele><time>2026-03-22T09:12:59Z</time></trkpt><trkpt lat="24.298026246252913" lon="120.56824711929158"><ele>13.0</ele><time>2026-03-22T09:13:00Z</time></trkpt><trkpt lat="24.298066136682973" lon="120.56838613586618"><ele>12.75</ele><time>2026-03-22T09:13:01Z</time></trkpt><trkpt lat="24.298102228877962" lon="120.56852692996995"><ele>12.5</ele><time>2026-03-22T09:13:02Z</time></trkpt><trkpt lat="24.298142836745985" lon="120.56867818411664"><ele>12.25</ele><time>2026-03-22T09:13:03Z</time></trkpt><trkpt lat="24.298185191103745" lon="120.56882223286883"><ele>12.0</ele><time>2026-03-22T09:13:04Z</time></trkpt><trkpt lat="24.298224191801435" lon="120.56896857451977"><ele>12.0</ele><time>2026-03-22T09:13:05Z</time></trkpt><trkpt lat="24.29826270280168" lon="120.56910698719912"><ele>12.0</ele><time>2026-03-22T09:13:06Z</time></trkpt><trkpt lat="24.298303944065633" lon="120.56924910156395"><ele>12.0</ele><time>2026-03-22T09:13:07Z</time></trkpt><trkpt lat="24.298347857548574" lon="120.56940585434006"><ele>12.0</ele><time>2026-03-22T09:13:08Z</time></trkpt><trkpt lat="24.29838862398733" lon="120.56955844578629"><ele>12.25</ele><time>2026-03-22T09:13:09Z</time></trkpt><trkpt lat="24.298435279015226" lon="120.56970988306387"><ele>12.5</ele><time>2026-03-22T09:13:10Z</time></trkpt><trkpt lat="24.298477174242695" lon="120.56986179093336"><ele>12.75</ele><time>2026-03-22T09:13:11Z</time></trkpt><trkpt lat="24.298526769439647" lon="120.57000239955066"><ele>13.0</ele><time>2026-03-22T09:13:12Z</time></trkpt><trkpt lat="24.29855673749871" lon="120.57015499886445"><ele>13.0</ele><time>2026-03-22T09:13:13Z</time></trkpt><trkpt lat="24.298598605749564" lon="120.57031289558631"><ele>13.0</ele><time>2026-03-22T09:13:14Z</time></trkpt><trkpt lat="24.29863831186002" lon="120.5704642668911"><ele>13.0</ele><time>2026-03-22T09:13:15Z</time></trkpt><trkpt lat="24.298682667382185" lon="120.57062279812692"><ele>13.0</ele><time>2026-03-22T09:13:16Z</time></trkpt><trkpt lat="24.298727721548456" lon="120.5707782472565"><ele>13.5</ele><time>2026-03-22T09:13:17Z</time></trkpt><trkpt lat="24.298767819453072" lon="120.57092692517517"><ele>14.0</ele><time>2026-03-22T09:13:18Z</time></trkpt><trkpt lat="24.29880943039213" lon="120.57107661925814"><ele>14.5</ele><time>2026-03-22T09:13:19Z</time></trkpt><trkpt lat="24.29882901242982" lon="120.57123084032337"><ele>15.0</ele><time>2026-03-22T09:13:20Z</time></trkpt><trkpt lat="24.29888332263757" lon="120.57137149469911"><ele>14.75</ele><time>2026-03-22T09:13:21Z</time></trkpt><trkpt lat="24.298921969748655" lon="120.57151571821845"><ele>14.5</ele><time>2026-03-22T09:13:22Z</time></trkpt><trkpt lat="24.29894751902995" lon="120.57166732138653"><ele>14.25</ele><time>2026-03-22T09:13:23Z</time></trkpt><trkpt lat="24.298986212550425" lon="120.57180962540654"><ele>14.0</ele><time>2026-03-22T09:13:24Z</time></trkpt><trkpt lat="24.29902413861381" lon="120.5719500409442"><ele>14.75</ele><time>2026-03-22T09:13:25Z</time></trkpt><trkpt lat="24.299062077598165" lon="120.57208999175077"><ele>15.5</ele><time>2026-03-22T09:13:26Z</time></trkpt><trkpt lat="24.299101137325835" lon="120.57223399082949"><ele>16.25</ele><time>2026-03-22T09:13:27Z</time></trkpt><trkpt lat="24.299139976481403" lon="120.57237717674712"><ele>17.0</ele><time>2026-03-22T09:13:28Z</time></trkpt><trkpt lat="24.299191492632577" lon="120.5725166200382"><ele>17.0</ele><time>2026-03-22T09:13:29Z</time></trkpt><trkpt lat="24.299228556707387" lon="120.57266032470783"><ele>17.0</ele><time>2026-03-22T09:13:30Z</time></trkpt><trkpt lat="24.299264453206128" lon="120.57280222856183"><ele>17.0</ele><time>2026-03-22T09:13:31Z</time></trkpt><trkpt lat="24.299301348806367" lon="120.57294008325772"><ele>17.0</ele><time>2026-03-22T09:13:32Z</time></trkpt><trkpt lat="24.29934089969254" lon="120.57307536279318"><ele>17.5</ele><time>2026-03-22T09:13:33Z</time></trkpt><trkpt lat="24.29937681717866" lon="120.57320716123968"><ele>18.0</ele><time>2026-03-22T09:13:34Z</time></trkpt><trkpt lat="24.299412458016675" lon="120.57333920444461"><ele>18.5</ele><time>2026-03-22T09:13:35Z</time></trkpt><trkpt lat="24.29944686630583" lon="120.57346748951787"><ele>19.0</ele><time>2026-03-22T09:13:36Z</time></trkpt><trkpt lat="24.299480187162363" lon="120.57359529365876"><ele>19.0</ele><time>2026-03-22T09:13:37Z</time></trkpt><trkpt lat="24.299516127128683" lon="120.57372272697675"><ele>19.0</ele><time>2026-03-22T09:13:38Z</time></trkpt><trkpt lat="24.299550134167376" lon="120.57385358728925"><ele>19.0</ele><time>2026-03-22T09:13:39Z</time></trkpt><trkpt lat="24.29958395867845" lon="120.57398286290451"><ele>19.0</ele><time>2026-03-22T09:13:40Z</time></trkpt><trkpt lat="24.299619605288896" lon="120.57411283122225"><ele>19.0</ele><time>2026-03-22T09:13:41Z</time></trkpt><trkpt lat="24.299656967349144" lon="120.57424492317276"><ele>19.0</ele><time>2026-03-22T09:13:42Z</time></trkpt><trkpt lat="24.299692128031364" lon="120.5743758994986"><ele>19.0</ele><time>2026-03-22T09:13:43Z</time></trkpt><trkpt lat="24.299728170627137" lon="120.57450873850418"><ele>19.0</ele><time>2026-03-22T09:13:44Z</time></trkpt><trkpt lat="24.299765065064" lon="120.57464322844328"><ele>19.75</ele><time>2026-03-22T09:13:44.999Z</time></trkpt><trkpt lat="24.299800580676212" lon="120.57477793792494"><ele>20.5</ele><time>2026-03-22T09:13:46Z</time></trkpt><trkpt lat="24.299835716031716" lon="120.57491010154914"><ele>21.25</ele><time>2026-03-22T09:13:47Z</time></trkpt><trkpt lat="24.299871875675557" lon="120.57504080996564"><ele>22.0</ele><time>2026-03-22T09:13:47.999Z</time></trkpt><trkpt lat="24.29990962841946" lon="120.57517726732335"><ele>22.0</ele><time>2026-03-22T09:13:49Z</time></trkpt><trkpt lat="24.29994902196357" lon="120.57531697527023"><ele>22.0</ele><time>2026-03-22T09:13:50Z</time></trkpt><trkpt lat="24.29998967236143" lon="120.57545977306421"><ele>22.0</ele><time>2026-03-22T09:13:51Z</time></trkpt><trkpt lat="24.300029813471493" lon="120.5756057491646"><ele>22.0</ele><time>2026-03-22T09:13:52Z</time></trkpt><trkpt lat="24.300070809139527" lon="120.57575598929404"><ele>22.25</ele><time>2026-03-22T09:13:53Z</time></trkpt><trkpt lat="24.3001078748866" lon="120.57590494352324"><ele>22.5</ele><time>2026-03-22T09:13:54Z</time></trkpt><trkpt lat="24.300152480446673" lon="120.57605960293311"><ele>22.75</ele><time>2026-03-22T09:13:55Z</time></trkpt><trkpt lat="24.30019768622505" lon="120.57621890405197"><ele>23.0</ele><time>2026-03-22T09:13:56Z</time></trkpt><trkpt lat="24.300241882286674" lon="120.57637897740784"><ele>23.0</ele><time>2026-03-22T09:13:57Z</time></trkpt><trkpt lat="24.300286154537933" lon="120.57653832058428"><ele>23.0</ele><time>2026-03-22T09:13:58Z</time></trkpt><trkpt lat="24.30032783301426" lon="120.57669686600047"><ele>23.0</ele><time>2026-03-22T09:13:59Z</time></trkpt><trkpt lat="24.30036999149051" lon="120.57685240526013"><ele>23.0</ele><time>2026-03-22T09:14:00Z</time></trkpt><trkpt lat="24.300412469989187" lon="120.57701112965137"><ele>23.0</ele><time>2026-03-22T09:14:01Z</time></trkpt><trkpt lat="24.30045478514786" lon="120.57717106078898"><ele>23.0</ele><time>2026-03-22T09:14:02Z</time></trkpt><trkpt lat="24.30049791865009" lon="120.57733249083827"><ele>23.333333333333336</ele><time>2026-03-22T09:14:03Z</time></trkpt><trkpt lat="24.30054008600162" lon="120.57749491516537"><ele>23.666666666666668</ele><time>2026-03-22T09:14:04Z</time></trkpt><trkpt lat="24.300582999633416" lon="120.57765713768077"><ele>24.0</ele><time>2026-03-22T09:14:05Z</time></trkpt><trkpt lat="24.300627800099427" lon="120.57781857274314"><ele>24.666666666666664</ele><time>2026-03-22T09:14:06Z</time></trkpt><trkpt lat="24.300671689576383" lon="120.57797972879177"><ele>25.333333333333332</ele><time>2026-03-22T09:14:07Z</time></trkpt><trkpt lat="24.300716526567747" lon="120.5781405197202"><ele>26.0</ele><time>2026-03-22T09:14:08Z</time></trkpt><trkpt lat="24.300761439123296" lon="120.57830116747876"><ele>26.0</ele><time>2026-03-22T09:14:09Z</time></trkpt><trkpt lat="24.300807853499197" lon="120.57846265961486"><ele>26.0</ele><time>2026-03-22T09:14:10Z</time></trkpt><trkpt lat="24.30085402044188" lon="120.57862446558383"><ele>26.0</ele><time>2026-03-22T09:14:11Z</time></trkpt><trkpt lat="24.300897809903322" lon="120.57878638076076"><ele>27.0</ele><time>2026-03-22T09:14:12Z</time></trkpt><trkpt lat="24.300940668622886" lon="120.57894909005184"><ele>28.0</ele><time>2026-03-22T09:14:13Z</time></trkpt><trkpt lat="24.30098323001051" lon="120.57911386081278"><ele>29.0</ele><time>2026-03-22T09:14:14Z</time></trkpt><trkpt lat="24.301027428017388" lon="120.5792753902679"><ele>29.0</ele><time>2026-03-22T09:14:15Z</time></trkpt><trkpt lat="24.30107100222516" lon="120.57943698389232"><ele>29.0</ele><time>2026-03-22T09:14:16Z</time></trkpt><trkpt lat="24.30111412262765" lon="120.57959888159863"><ele>29.0</ele><time>2026-03-22T09:14:17Z</time></trkpt><trkpt lat="24.301157408300277" lon="120.57975985691982"><ele>29.0</ele><time>2026-03-22T09:14:18Z</time></trkpt><trkpt lat="24.30120117781261" lon="120.57991897334101"><ele>29.0</ele><time>2026-03-22T09:14:19Z</time></trkpt><trkpt lat="24.30124479318906" lon="120.58007740201711"><ele>29.0</ele><time>2026-03-22T09:14:20Z</time></trkpt><trkpt lat="24.30128903385809" lon="120.58023720327932"><ele>29.333333333333332</ele><time>2026-03-22T09:14:21Z</time></trkpt><trkpt lat="24.3013319136005" lon="120.58039648645295"><ele>29.666666666666664</ele><time>2026-03-22T09:14:22Z</time></trkpt><trkpt lat="24.301373849130353" lon="120.58055506087692"><ele>30.0</ele><time>2026-03-22T09:14:23Z</time></trkpt><trkpt lat="24.301415708918167" lon="120.5807142435188"><ele>30.0</ele><time>2026-03-22T09:14:24Z</time></trkpt><trkpt lat="24.30145912509417" lon="120.58087280556211"><ele>30.0</ele><time>2026-03-22T09:14:25Z</time></trkpt><trkpt lat="24.301501265498768" lon="120.58102996052311"><ele>30.0</ele><time>2026-03-22T09:14:26Z</time></trkpt><trkpt lat="24.30154301144243" lon="120.58118476662838"><ele>30.0</ele><time>2026-03-22T09:14:27Z</time></trkpt><trkpt lat="24.30158624016126" lon="120.58133936073725"><ele>30.75</ele><time>2026-03-22T09:14:28Z</time></trkpt><trkpt lat="24.30162856734278" lon="120.58149304485073"><ele>31.5</ele><time>2026-03-22T09:14:29Z</time></trkpt><trkpt lat="24.30167063814048" lon="120.58164887538766"><ele>32.25</ele><time>2026-03-22T09:14:30Z</time></trkpt><trkpt lat="24.301712972861868" lon="120.58180294875098"><ele>33.0</ele><time>2026-03-22T09:14:31Z</time></trkpt><trkpt lat="24.301754271479243" lon="120.58195660358979"><ele>32.75</ele><time>2026-03-22T09:14:32Z</time></trkpt><trkpt lat="24.301793797398446" lon="120.58211002740082"><ele>32.5</ele><time>2026-03-22T09:14:33Z</time></trkpt><trkpt lat="24.301833101405627" lon="120.58226415250803"><ele>32.25</ele><time>2026-03-22T09:14:34Z</time></trkpt><trkpt lat="24.301873826603977" lon="120.5824185789488"><ele>32.0</ele><time>2026-03-22T09:14:35Z</time></trkpt><trkpt lat="24.301914139244147" lon="120.58257101078009"><ele>32.0</ele><time>2026-03-22T09:14:36Z</time></trkpt><trkpt lat="24.301995887775682" lon="120.58287338155536"><ele>32.0</ele><time>2026-03-22T09:14:38Z</time></trkpt><trkpt lat="24.302035990536673" lon="120.5830221012029"><ele>32.0</ele><time>2026-03-22T09:14:39Z</time></trkpt><trkpt lat="24.30207749132991" lon="120.58317082917529"><ele>32.0</ele><time>2026-03-22T09:14:40Z</time></trkpt><trkpt lat="24.302119630953005" lon="120.58331703165305"><ele>32.0</ele><time>2026-03-22T09:14:41Z</time></trkpt><trkpt lat="24.30215859248798" lon="120.58346124212652"><ele>32.0</ele><time>2026-03-22T09:14:42Z</time></trkpt><trkpt lat="24.302198890847404" lon="120.58360339494288"><ele>32.0</ele><time>2026-03-22T09:14:43Z</time></trkpt><trkpt lat="24.30223705576482" lon="120.58374475345134"><ele>32.5</ele><time>2026-03-22T09:14:44Z</time></trkpt><trkpt lat="24.30227799409101" lon="120.58388818979793"><ele>33.0</ele><time>2026-03-22T09:14:45Z</time></trkpt><trkpt lat="24.30231671146409" lon="120.58403044245618"><ele>33.5</ele><time>2026-03-22T09:14:46Z</time></trkpt><trkpt lat="24.30235459623858" lon="120.58417101205966"><ele>34.0</ele><time>2026-03-22T09:14:47Z</time></trkpt><trkpt lat="24.302393417287924" lon="120.58431472665895"><ele>34.0</ele><time>2026-03-22T09:14:48Z</time></trkpt><trkpt lat="24.302433161173276" lon="120.58445949394326"><ele>34.0</ele><time>2026-03-22T09:14:49Z</time></trkpt><trkpt lat="24.302473856766127" lon="120.58460401419387"><ele>34.0</ele><time>2026-03-22T09:14:50Z</time></trkpt><trkpt lat="24.302514203657516" lon="120.58474965327275"><ele>34.0</ele><time>2026-03-22T09:14:51Z</time></trkpt><trkpt lat="24.30255542746199" lon="120.58489658399691"><ele>34.25</ele><time>2026-03-22T09:14:52Z</time></trkpt><trkpt lat="24.302595778579832" lon="120.58504486141948"><ele>34.5</ele><time>2026-03-22T09:14:53Z</time></trkpt><trkpt lat="24.302638317741373" lon="120.58519372297158"><ele>34.75</ele><time>2026-03-22T09:14:54Z</time></trkpt><trkpt lat="24.302679277075807" lon="120.58534413419494"><ele>35.0</ele><time>2026-03-22T09:14:55Z</time></trkpt><trkpt lat="24.302720081101512" lon="120.58549556937035"><ele>35.0</ele><time>2026-03-22T09:14:56Z</time></trkpt><trkpt lat="24.302762116319336" lon="120.58564799414411"><ele>35.0</ele><time>2026-03-22T09:14:57Z</time></trkpt><trkpt lat="24.302802110083135" lon="120.58580142713492"><ele>35.0</ele><time>2026-03-22T09:14:58Z</time></trkpt><trkpt lat="24.302844020843942" lon="120.58595470371361"><ele>35.0</ele><time>2026-03-22T09:14:59Z</time></trkpt><trkpt lat="24.3028870110423" lon="120.58610730880116"><ele>35.25</ele><time>2026-03-22T09:15:00Z</time></trkpt><trkpt lat="24.302928749335923" lon="120.58626198933322"><ele>35.5</ele><time>2026-03-22T09:15:01Z</time></trkpt><trkpt lat="24.302970703181785" lon="120.5864161985526"><ele>35.75</ele><time>2026-03-22T09:15:02Z</time></trkpt><trkpt lat="24.303011544690595" lon="120.58656699359916"><ele>36.0</ele><time>2026-03-22T09:15:03Z</time></trkpt><trkpt lat="24.303051992256552" lon="120.58671608974655"><ele>35.75</ele><time>2026-03-22T09:15:04Z</time></trkpt><trkpt lat="24.30309133563428" lon="120.58686553859447"><ele>35.5</ele><time>2026-03-22T09:15:05Z</time></trkpt><trkpt lat="24.303130952540883" lon="120.58701312408473"><ele>35.25</ele><time>2026-03-22T09:15:06Z</time></trkpt><trkpt lat="24.303170209350867" lon="120.58715853916672"><ele>35.0</ele><time>2026-03-22T09:15:07Z</time></trkpt><trkpt lat="24.30320939603151" lon="120.5873026309165"><ele>35.5</ele><time>2026-03-22T09:15:08Z</time></trkpt><trkpt lat="24.303249073244597" lon="120.587447321575"><ele>36.0</ele><time>2026-03-22T09:15:09Z</time></trkpt><trkpt lat="24.303287669351725" lon="120.58759157714427"><ele>36.5</ele><time>2026-03-22T09:15:10Z</time></trkpt><trkpt lat="24.30332757334632" lon="120.5877386521822"><ele>37.0</ele><time>2026-03-22T09:15:11Z</time></trkpt><trkpt lat="24.303364075643877" lon="120.58788510948769"><ele>37.5</ele><time>2026-03-22T09:15:12Z</time></trkpt><trkpt lat="24.303402153655817" lon="120.58803304785367"><ele>38.0</ele><time>2026-03-22T09:15:13Z</time></trkpt><trkpt lat="24.30344348692566" lon="120.58817997411475"><ele>38.5</ele><time>2026-03-22T09:15:14Z</time></trkpt><trkpt lat="24.303484790729" lon="120.58832512393309"><ele>39.0</ele><time>2026-03-22T09:15:15Z</time></trkpt><trkpt lat="24.303526610797203" lon="120.58847146196088"><ele>39.0</ele><time>2026-03-22T09:15:16Z</time></trkpt><trkpt lat="24.3035667691335" lon="120.58861743161077"><ele>39.0</ele><time>2026-03-22T09:15:17Z</time></trkpt><trkpt lat="24.30360751303706" lon="120.58876446645142"><ele>39.0</ele><time>2026-03-22T09:15:18Z</time></trkpt><trkpt lat="24.303646492419173" lon="120.58891221776963"><ele>39.0</ele><time>2026-03-22T09:15:19Z</time></trkpt><trkpt lat="24.303684913039813" lon="120.58905600501636"><ele>41.0</ele><time>2026-03-22T09:15:20Z</time></trkpt><trkpt lat="24.303723013999253" lon="120.58919365779037"><ele>43.0</ele><time>2026-03-22T09:15:21Z</time></trkpt><trkpt lat="24.30375908668835" lon="120.58932886261054"><ele>45.0</ele><time>2026-03-22T09:15:22Z</time></trkpt><trkpt lat="24.303793784375557" lon="120.58945750532617"><ele>47.0</ele><time>2026-03-22T09:15:23Z</time></trkpt><trkpt lat="24.303828398318068" lon="120.58958735735733"><ele>47.0</ele><time>2026-03-22T09:15:24Z</time></trkpt><trkpt lat="24.303862584332666" lon="120.58971234354024"><ele>47.0</ele><time>2026-03-22T09:15:25Z</time></trkpt><trkpt lat="24.303895351138088" lon="120.58983378710948"><ele>47.0</ele><time>2026-03-22T09:15:26Z</time></trkpt><trkpt lat="24.303927616788027" lon="120.58994831539717"><ele>47.0</ele><time>2026-03-22T09:15:27Z</time></trkpt><trkpt lat="24.303955141555686" lon="120.59004398184715"><ele>47.0</ele><time>2026-03-22T09:15:28Z</time></trkpt><trkpt lat="24.303977781592245" lon="120.59012979422046"><ele>46.166666666666664</ele><time>2026-03-22T09:15:29Z</time></trkpt><trkpt lat="24.3040013161189" lon="120.59020743411209"><ele>45.33333333333333</ele><time>2026-03-22T09:15:30Z</time></trkpt><trkpt lat="24.304029143388416" lon="120.59028510539645"><ele>44.5</ele><time>2026-03-22T09:15:31Z</time></trkpt><trkpt lat="24.304028019281102" lon="120.5903745719217"><ele>43.666666666666664</ele><time>2026-03-22T09:15:32Z</time></trkpt><trkpt lat="24.304053105028462" lon="120.5904629307397"><ele>42.833333333333336</ele><time>2026-03-22T09:15:33Z</time></trkpt><trkpt lat="24.304079756867722" lon="120.59055693369172"><ele>42.0</ele><time>2026-03-22T09:15:34Z</time></trkpt><trkpt lat="24.304107957309476" lon="120.59065639871724"><ele>42.0</ele><time>2026-03-22T09:15:35Z</time></trkpt><trkpt lat="24.304205349750816" lon="120.5907403657251"><ele>42.0</ele><time>2026-03-22T09:15:36Z</time></trkpt><trkpt lat="24.304227836470048" lon="120.59084852331651"><ele>42.0</ele><time>2026-03-22T09:15:37Z</time></trkpt><trkpt lat="24.30425050201948" lon="120.59095543476096"><ele>42.0</ele><time>2026-03-22T09:15:38Z</time></trkpt><trkpt lat="24.304276205289845" lon="120.59106476571013"><ele>42.0</ele><time>2026-03-22T09:15:39Z</time></trkpt><trkpt lat="24.304301597084898" lon="120.59118305509037"><ele>42.0</ele><time>2026-03-22T09:15:40Z</time></trkpt><trkpt lat="24.304326467294533" lon="120.59130940350546"><ele>42.0</ele><time>2026-03-22T09:15:41Z</time></trkpt><trkpt lat="24.30434433963955" lon="120.59144146645298"><ele>42.0</ele><time>2026-03-22T09:15:42Z</time></trkpt><trkpt lat="24.304363851117216" lon="120.59157110129365"><ele>42.0</ele><time>2026-03-22T09:15:43Z</time></trkpt><trkpt lat="24.30437881067881" lon="120.59170095687398"><ele>42.0</ele><time>2026-03-22T09:15:44Z</time></trkpt><trkpt lat="24.304396674962707" lon="120.5918296000675"><ele>42.0</ele><time>2026-03-22T09:15:45Z</time></trkpt><trkpt lat="24.304406033598795" lon="120.59195567210243"><ele>42.0</ele><time>2026-03-22T09:15:46Z</time></trkpt><trkpt lat="24.30440915711435" lon="120.59207418976081"><ele>42.0</ele><time>2026-03-22T09:15:46.999Z</time></trkpt><trkpt lat="24.304411966470816" lon="120.59218926678676"><ele>42.0</ele><time>2026-03-22T09:15:47.999Z</time></trkpt><trkpt lat="24.30441418829536" lon="120.5922957507944"><ele>42.6</ele><time>2026-03-22T09:15:48.999Z</time></trkpt><trkpt lat="24.304414629335508" lon="120.59239647590664"><ele>43.2</ele><time>2026-03-22T09:15:49.999Z</time></trkpt><trkpt lat="24.30441050107647" lon="120.59248106647779"><ele>43.8</ele><time>2026-03-22T09:15:50.999Z</time></trkpt><trkpt lat="24.304419575705747" lon="120.59260147366015"><ele>44.4</ele><time>2026-03-22T09:15:52.999Z</time></trkpt><trkpt lat="24.304470847641557" lon="120.5926752672482"><ele>45.0</ele><time>2026-03-22T09:15:54.999Z</time></trkpt><trkpt lat="24.30456429780481" lon="120.59273391440135"><ele>45.0</ele><time>2026-03-22T09:15:56.999Z</time></trkpt><trkpt lat="24.304626600711018" lon="120.59276575761356"><ele>45.0</ele><time>2026-03-22T09:15:57.999Z</time></trkpt><trkpt lat="24.304685941934338" lon="120.59281635405947"><ele>45.0</ele><time>2026-03-22T09:15:58.999Z</time></trkpt><trkpt lat="24.304741217948457" lon="120.59288285312672"><ele>45.0</ele><time>2026-03-22T09:15:59.999Z</time></trkpt><trkpt lat="24.304784926337263" lon="120.5929553831296"><ele>45.0</ele><time>2026-03-22T09:16:00.999Z</time></trkpt><trkpt lat="24.30481611929246" lon="120.5930271568151"><ele>45.0</ele><time>2026-03-22T09:16:01.999Z</time></trkpt><trkpt lat="24.304844764651154" lon="120.59310750768235"><ele>44.8</ele><time>2026-03-22T09:16:02.999Z</time></trkpt><trkpt lat="24.304875819765865" lon="120.59320025304504"><ele>44.6</ele><time>2026-03-22T09:16:03.999Z</time></trkpt><trkpt lat="24.304900936652608" lon="120.59330300029609"><ele>44.400000000000006</ele><time>2026-03-22T09:16:04.999Z</time></trkpt><trkpt lat="24.304926567611247" lon="120.59341304571153"><ele>44.2</ele><time>2026-03-22T09:16:05.999Z</time></trkpt><trkpt lat="24.304955335201466" lon="120.5935247717779"><ele>44.0</ele><time>2026-03-22T09:16:06.999Z</time></trkpt><trkpt lat="24.304983239995178" lon="120.59363041040149"><ele>44.400000000000006</ele><time>2026-03-22T09:16:07.999Z</time></trkpt><trkpt lat="24.305011284010643" lon="120.59373789881019"><ele>44.8</ele><time>2026-03-22T09:16:08.999Z</time></trkpt><trkpt lat="24.305038038280536" lon="120.59384759054832"><ele>45.2</ele><time>2026-03-22T09:16:10Z</time></trkpt><trkpt lat="24.3050665646201" lon="120.59396011187162"><ele>45.599999999999994</ele><time>2026-03-22T09:16:11Z</time></trkpt><trkpt lat="24.305096413607192" lon="120.5940781635423"><ele>46.0</ele><time>2026-03-22T09:16:12Z</time></trkpt><trkpt lat="24.30512430185903" lon="120.59420328865667"><ele>46.0</ele><time>2026-03-22T09:16:13Z</time></trkpt><trkpt lat="24.305158709544415" lon="120.59432547370291"><ele>46.0</ele><time>2026-03-22T09:16:14Z</time></trkpt><trkpt lat="24.305188901809295" lon="120.59445326337136"><ele>46.0</ele><time>2026-03-22T09:16:15Z</time></trkpt><trkpt lat="24.30522081023854" lon="120.59458153972433"><ele>46.0</ele><time>2026-03-22T09:16:16Z</time></trkpt><trkpt lat="24.305250861622515" lon="120.59471058363602"><ele>47.0</ele><time>2026-03-22T09:16:17Z</time></trkpt><trkpt lat="24.305282698975706" lon="120.59484569341721"><ele>48.0</ele><time>2026-03-22T09:16:18Z</time></trkpt><trkpt lat="24.30531526053966" lon="120.59498523879701"><ele>49.0</ele><time>2026-03-22T09:16:19Z</time></trkpt><trkpt lat="24.305352741641762" lon="120.59512549435188"><ele>50.0</ele><time>2026-03-22T09:16:20Z</time></trkpt><trkpt lat="24.30538517873849" lon="120.5952731104005"><ele>51.25</ele><time>2026-03-22T09:16:21Z</time></trkpt><trkpt lat="24.305419068429178" lon="120.59542090376539"><ele>52.5</ele><time>2026-03-22T09:16:22Z</time></trkpt><trkpt lat="24.305454755514717" lon="120.59556869749575"><ele>53.75</ele><time>2026-03-22T09:16:23Z</time></trkpt><trkpt lat="24.305485134829272" lon="120.59570695654067"><ele>55.0</ele><time>2026-03-22T09:16:24Z</time></trkpt><trkpt lat="24.305519478486406" lon="120.59584633523058"><ele>55.0</ele><time>2026-03-22T09:16:25Z</time></trkpt><trkpt lat="24.30555428839864" lon="120.59598890687084"><ele>55.0</ele><time>2026-03-22T09:16:26Z</time></trkpt><trkpt lat="24.305587859239576" lon="120.59613684062515"><ele>55.0</ele><time>2026-03-22T09:16:27Z</time></trkpt><trkpt lat="24.305617887723542" lon="120.59628260977443"><ele>55.0</ele><time>2026-03-22T09:16:28Z</time></trkpt><trkpt lat="24.305648540696307" lon="120.59642993550808"><ele>54.75</ele><time>2026-03-22T09:16:29Z</time></trkpt><trkpt lat="24.30568100651914" lon="120.59657668146356"><ele>54.5</ele><time>2026-03-22T09:16:30Z</time></trkpt><trkpt lat="24.30571444341513" lon="120.59672934979467"><ele>54.25</ele><time>2026-03-22T09:16:31Z</time></trkpt><trkpt lat="24.305748759100425" lon="120.5968829616053"><ele>54.0</ele><time>2026-03-22T09:16:32Z</time></trkpt><trkpt lat="24.305782045254894" lon="120.59703634080172"><ele>54.0</ele><time>2026-03-22T09:16:33Z</time></trkpt><trkpt lat="24.305815127679153" lon="120.59719054991098"><ele>54.0</ele><time>2026-03-22T09:16:34Z</time></trkpt><trkpt lat="24.305849352693496" lon="120.59734969127369"><ele>54.0</ele><time>2026-03-22T09:16:35Z</time></trkpt><trkpt lat="24.305882696202154" lon="120.59751132151632"><ele>54.0</ele><time>2026-03-22T09:16:36Z</time></trkpt><trkpt lat="24.305914521300515" lon="120.59767565008625"><ele>54.33333333333333</ele><time>2026-03-22T09:16:37Z</time></trkpt><trkpt lat="24.30594798899414" lon="120.59784239424448"><ele>54.666666666666664</ele><time>2026-03-22T09:16:38Z</time></trkpt><trkpt lat="24.30598146667009" lon="120.5980084942675"><ele>55.0</ele><time>2026-03-22T09:16:39Z</time></trkpt><trkpt lat="24.30601464887203" lon="120.5981777626557"><ele>55.0</ele><time>2026-03-22T09:16:40Z</time></trkpt><trkpt lat="24.306047789815185" lon="120.598349375228"><ele>55.0</ele><time>2026-03-22T09:16:41Z</time></trkpt><trkpt lat="24.306080749120774" lon="120.598524122593"><ele>55.0</ele><time>2026-03-22T09:16:42Z</time></trkpt><trkpt lat="24.30611668761288" lon="120.59870517027115"><ele>55.33333333333333</ele><time>2026-03-22T09:16:43Z</time></trkpt><trkpt lat="24.30614997638182" lon="120.59888838543705"><ele>55.66666666666667</ele><time>2026-03-22T09:16:44Z</time></trkpt><trkpt lat="24.306185670494138" lon="120.59907769766336"><ele>56.0</ele><time>2026-03-22T09:16:45Z</time></trkpt><trkpt lat="24.30622217554657" lon="120.59927321270514"><ele>56.0</ele><time>2026-03-22T09:16:46Z</time></trkpt><trkpt lat="24.306256418379093" lon="120.59947035848612"><ele>56.0</ele><time>2026-03-22T09:16:47Z</time></trkpt><trkpt lat="24.306289895829092" lon="120.59966230619024"><ele>56.0</ele><time>2026-03-22T09:16:48Z</time></trkpt><trkpt lat="24.30632168642305" lon="120.59985171711882"><ele>56.0</ele><time>2026-03-22T09:16:49Z</time></trkpt><trkpt lat="24.30635532816671" lon="120.60004684148325"><ele>56.0</ele><time>2026-03-22T09:16:50Z</time></trkpt><trkpt lat="24.306388059936893" lon="120.60024218348917"><ele>56.0</ele><time>2026-03-22T09:16:51Z</time></trkpt><trkpt lat="24.306419123162886" lon="120.60043399790784"><ele>56.0</ele><time>2026-03-22T09:16:52Z</time></trkpt><trkpt lat="24.306451064526332" lon="120.60062475068841"><ele>56.0</ele><time>2026-03-22T09:16:53Z</time></trkpt><trkpt lat="24.306483207589885" lon="120.60081879485843"><ele>56.0</ele><time>2026-03-22T09:16:54Z</time></trkpt><trkpt lat="24.306514817047372" lon="120.60101488306637"><ele>59.0</ele><time>2026-03-22T09:16:55Z</time></trkpt><trkpt lat="24.30654595946066" lon="120.60121258662521"><ele>62.0</ele><time>2026-03-22T09:16:56Z</time></trkpt><trkpt lat="24.306576706787112" lon="120.601413163663"><ele>65.0</ele><time>2026-03-22T09:16:57Z</time></trkpt><trkpt lat="24.306607491964257" lon="120.60161671358716"><ele>65.0</ele><time>2026-03-22T09:16:58Z</time></trkpt><trkpt lat="24.306637307502687" lon="120.60182258019886"><ele>65.0</ele><time>2026-03-22T09:16:59Z</time></trkpt><trkpt lat="24.306666562475215" lon="120.60203109804273"><ele>65.0</ele><time>2026-03-22T09:17:00Z</time></trkpt><trkpt lat="24.306696179147288" lon="120.60224181511681"><ele>63.333333333333336</ele><time>2026-03-22T09:17:01Z</time></trkpt><trkpt lat="24.306726287435445" lon="120.60244933089876"><ele>61.66666666666667</ele><time>2026-03-22T09:17:02Z</time></trkpt><trkpt lat="24.306754787924564" lon="120.60265322090376"><ele>60.0</ele><time>2026-03-22T09:17:03Z</time></trkpt><trkpt lat="24.306781414780378" lon="120.60285581716694"><ele>60.0</ele><time>2026-03-22T09:17:04Z</time></trkpt><trkpt lat="24.30680792089593" lon="120.60306129666287"><ele>60.0</ele><time>2026-03-22T09:17:05Z</time></trkpt><trkpt lat="24.306833220193855" lon="120.60326885765306"><ele>60.0</ele><time>2026-03-22T09:17:06Z</time></trkpt><trkpt lat="24.306858487256353" lon="120.60347596603103"><ele>60.66666666666667</ele><time>2026-03-22T09:17:07Z</time></trkpt><trkpt lat="24.306885672733134" lon="120.60368658606376"><ele>61.333333333333336</ele><time>2026-03-22T09:17:08Z</time></trkpt><trkpt lat="24.306908041040916" lon="120.60389890081375"><ele>62.0</ele><time>2026-03-22T09:17:09Z</time></trkpt><trkpt lat="24.306933823500138" lon="120.60411373789645"><ele>62.0</ele><time>2026-03-22T09:17:10Z</time></trkpt><trkpt lat="24.306956378641367" lon="120.60432777280043"><ele>62.0</ele><time>2026-03-22T09:17:11Z</time></trkpt><trkpt lat="24.306980029608113" lon="120.60454379557136"><ele>62.0</ele><time>2026-03-22T09:17:12Z</time></trkpt><trkpt lat="24.307005971629646" lon="120.60476087270054"><ele>62.333333333333336</ele><time>2026-03-22T09:17:13Z</time></trkpt><trkpt lat="24.30702858899803" lon="120.6049795789069"><ele>62.66666666666667</ele><time>2026-03-22T09:17:14Z</time></trkpt><trkpt lat="24.307050414902157" lon="120.6052005826288"><ele>63.0</ele><time>2026-03-22T09:17:15Z</time></trkpt><trkpt lat="24.307072286486083" lon="120.60542063670187"><ele>63.0</ele><time>2026-03-22T09:17:16Z</time></trkpt><trkpt lat="24.30709166012683" lon="120.60563796102592"><ele>63.0</ele><time>2026-03-22T09:17:17Z</time></trkpt><trkpt lat="24.30710964988163" lon="120.6058504796688"><ele>63.0</ele><time>2026-03-22T09:17:18Z</time></trkpt><trkpt lat="24.307129853232166" lon="120.60606307146077"><ele>63.0</ele><time>2026-03-22T09:17:19Z</time></trkpt><trkpt lat="24.307146741915084" lon="120.60627332550727"><ele>63.0</ele><time>2026-03-22T09:17:20Z</time></trkpt><trkpt lat="24.30716436062821" lon="120.6064846813049"><ele>63.0</ele><time>2026-03-22T09:17:21Z</time></trkpt><trkpt lat="24.307182114077545" lon="120.60670021187438"><ele>63.0</ele><time>2026-03-22T09:17:22Z</time></trkpt><trkpt lat="24.307198558610203" lon="120.60691737368136"><ele>63.0</ele><time>2026-03-22T09:17:23Z</time></trkpt><trkpt lat="24.307214847026827" lon="120.6071359977754"><ele>63.0</ele><time>2026-03-22T09:17:24Z</time></trkpt><trkpt lat="24.307229939616004" lon="120.6073533641546"><ele>63.66666666666667</ele><time>2026-03-22T09:17:25Z</time></trkpt><trkpt lat="24.307242936266103" lon="120.60756727277902"><ele>64.33333333333334</ele><time>2026-03-22T09:17:26Z</time></trkpt><trkpt lat="24.30725670324758" lon="120.60777637551938"><ele>65.0</ele><time>2026-03-22T09:17:27Z</time></trkpt><trkpt lat="24.307269803894897" lon="120.60798648535784"><ele>65.66666666666667</ele><time>2026-03-22T09:17:28Z</time></trkpt><trkpt lat="24.307281886577158" lon="120.60819810520822"><ele>66.33333333333333</ele><time>2026-03-22T09:17:29Z</time></trkpt><trkpt lat="24.307292321979492" lon="120.60841412175725"><ele>67.0</ele><time>2026-03-22T09:17:30Z</time></trkpt><trkpt lat="24.307303342621424" lon="120.60862912089772"><ele>68.33333333333333</ele><time>2026-03-22T09:17:31Z</time></trkpt><trkpt lat="24.307313565318747" lon="120.60884394707156"><ele>69.66666666666667</ele><time>2026-03-22T09:17:32Z</time></trkpt><trkpt lat="24.30732349863248" lon="120.60905635019883"><ele>71.0</ele><time>2026-03-22T09:17:33Z</time></trkpt><trkpt lat="24.307332800114906" lon="120.60926627964103"><ele>71.0</ele><time>2026-03-22T09:17:34Z</time></trkpt><trkpt lat="24.307341918715956" lon="120.60947404873173"><ele>71.0</ele><time>2026-03-22T09:17:35Z</time></trkpt><trkpt lat="24.307349842445085" lon="120.60967922757249"><ele>71.0</ele><time>2026-03-22T09:17:36Z</time></trkpt><trkpt lat="24.307357790023545" lon="120.60988533724705"><ele>72.33333333333334</ele><time>2026-03-22T09:17:37Z</time></trkpt><trkpt lat="24.30736552306421" lon="120.610093792972"><ele>73.66666666666667</ele><time>2026-03-22T09:17:38Z</time></trkpt><trkpt lat="24.307371257794127" lon="120.61030513203902"><ele>75.0</ele><time>2026-03-22T09:17:39Z</time></trkpt><trkpt lat="24.30737780707437" lon="120.61051394316097"><ele>76.0</ele><time>2026-03-22T09:17:40Z</time></trkpt><trkpt lat="24.30738229780584" lon="120.61071711009156"><ele>77.0</ele><time>2026-03-22T09:17:41Z</time></trkpt><trkpt lat="24.30738685220474" lon="120.61091847268919"><ele>78.0</ele><time>2026-03-22T09:17:42Z</time></trkpt><trkpt lat="24.30739013229575" lon="120.61111642067567"><ele>75.33333333333333</ele><time>2026-03-22T09:17:43Z</time></trkpt><trkpt lat="24.30739441561981" lon="120.6113113576661"><ele>72.66666666666666</ele><time>2026-03-22T09:17:44Z</time></trkpt><trkpt lat="24.307397553802936" lon="120.61150238218842"><ele>70.0</ele><time>2026-03-22T09:17:45Z</time></trkpt><trkpt lat="24.307399795137098" lon="120.6116913704616"><ele>70.0</ele><time>2026-03-22T09:17:46Z</time></trkpt><trkpt lat="24.30740098184156" lon="120.61187945441016"><ele>70.0</ele><time>2026-03-22T09:17:47Z</time></trkpt><trkpt lat="24.30740229191977" lon="120.61206455549059"><ele>70.0</ele><time>2026-03-22T09:17:48Z</time></trkpt><trkpt lat="24.307402965008936" lon="120.61224648465712"><ele>71.0</ele><time>2026-03-22T09:17:49Z</time></trkpt><trkpt lat="24.30740233648425" lon="120.61242645093749"><ele>72.0</ele><time>2026-03-22T09:17:50Z</time></trkpt><trkpt lat="24.307398565815728" lon="120.61260337397542"><ele>73.0</ele><time>2026-03-22T09:17:51Z</time></trkpt><trkpt lat="24.307393631110095" lon="120.61278006958209"><ele>73.33333333333333</ele><time>2026-03-22T09:17:52Z</time></trkpt><trkpt lat="24.30738866325619" lon="120.61295692292376"><ele>73.66666666666667</ele><time>2026-03-22T09:17:52.999Z</time></trkpt><trkpt lat="24.307382805744123" lon="120.61313000730226"><ele>74.0</ele><time>2026-03-22T09:17:53.999Z</time></trkpt><trkpt lat="24.307378408599728" lon="120.61330182714501"><ele>74.0</ele><time>2026-03-22T09:17:54.999Z</time></trkpt><trkpt lat="24.307375003088822" lon="120.6134698203733"><ele>74.0</ele><time>2026-03-22T09:17:55.999Z</time></trkpt><trkpt lat="24.307372864687018" lon="120.61363485212894"><ele>74.0</ele><time>2026-03-22T09:17:56.999Z</time></trkpt><trkpt lat="24.307366499167557" lon="120.61380264746732"><ele>74.25</ele><time>2026-03-22T09:17:57.999Z</time></trkpt><trkpt lat="24.307353790623743" lon="120.61396803160099"><ele>74.5</ele><time>2026-03-22T09:17:58.999Z</time></trkpt><trkpt lat="24.307327989974524" lon="120.61411226532195"><ele>74.75</ele><time>2026-03-22T09:17:59.999Z</time></trkpt><trkpt lat="24.30729521762731" lon="120.6142447678636"><ele>75.0</ele><time>2026-03-22T09:18:00.999Z</time></trkpt><trkpt lat="24.307245063265373" lon="120.61435776541622"><ele>75.0</ele><time>2026-03-22T09:18:01.999Z</time></trkpt><trkpt lat="24.30715251850842" lon="120.61446845146524"><ele>75.0</ele><time>2026-03-22T09:18:02.999Z</time></trkpt><trkpt lat="24.307058988733562" lon="120.61456418626516"><ele>75.0</ele><time>2026-03-22T09:18:03.999Z</time></trkpt><trkpt lat="24.306949075135968" lon="120.61463136420211"><ele>75.0</ele><time>2026-03-22T09:18:04.999Z</time></trkpt><trkpt lat="24.30683345908488" lon="120.61468407550764"><ele>75.25</ele><time>2026-03-22T09:18:05.999Z</time></trkpt><trkpt lat="24.306712318882578" lon="120.6147131339131"><ele>75.5</ele><time>2026-03-22T09:18:06.999Z</time></trkpt><trkpt lat="24.306593326267276" lon="120.61471361009717"><ele>75.75</ele><time>2026-03-22T09:18:07.999Z</time></trkpt><trkpt lat="24.306477857042978" lon="120.61469322842882"><ele>76.0</ele><time>2026-03-22T09:18:08.999Z</time></trkpt><trkpt lat="24.30637239666627" lon="120.61464441447963"><ele>76.2</ele><time>2026-03-22T09:18:09.999Z</time></trkpt><trkpt lat="24.306279102382817" lon="120.6145746520772"><ele>76.39999999999999</ele><time>2026-03-22T09:18:10.999Z</time></trkpt><trkpt lat="24.306203612121692" lon="120.6144907730404"><ele>76.6</ele><time>2026-03-22T09:18:11.999Z</time></trkpt><trkpt lat="24.306151890850053" lon="120.61440256099102"><ele>76.8</ele><time>2026-03-22T09:18:12.999Z</time></trkpt><trkpt lat="24.30611660278851" lon="120.61430212385356"><ele>77.0</ele><time>2026-03-22T09:18:13.999Z</time></trkpt><trkpt lat="24.30609992004052" lon="120.61419376088953"><ele>77.0</ele><time>2026-03-22T09:18:14.999Z</time></trkpt><trkpt lat="24.30611365154058" lon="120.61407521031514"><ele>77.0</ele><time>2026-03-22T09:18:16Z</time></trkpt><trkpt lat="24.306139858019012" lon="120.61395245119031"><ele>77.0</ele><time>2026-03-22T09:18:17Z</time></trkpt><trkpt lat="24.30617947049225" lon="120.61385294103678"><ele>77.0</ele><time>2026-03-22T09:18:18Z</time></trkpt><trkpt lat="24.30623164622478" lon="120.61376686044964"><ele>77.0</ele><time>2026-03-22T09:18:19Z</time></trkpt><trkpt lat="24.306290809852058" lon="120.61369309135263"><ele>76.2</ele><time>2026-03-22T09:18:20Z</time></trkpt><trkpt lat="24.30636910451407" lon="120.61363147626935"><ele>75.4</ele><time>2026-03-22T09:18:21Z</time></trkpt><trkpt lat="24.306451721671017" lon="120.61358200511539"><ele>74.6</ele><time>2026-03-22T09:18:22Z</time></trkpt><trkpt lat="24.306550500341924" lon="120.61355048369674"><ele>73.8</ele><time>2026-03-22T09:18:23Z</time></trkpt><trkpt lat="24.306660577953068" lon="120.61353354954832"><ele>73.0</ele><time>2026-03-22T09:18:24Z</time></trkpt><trkpt lat="24.306768814996403" lon="120.61354306372431"><ele>73.0</ele><time>2026-03-22T09:18:25Z</time></trkpt><trkpt lat="24.306875522229767" lon="120.61355047385379"><ele>73.0</ele><time>2026-03-22T09:18:26Z</time></trkpt><trkpt lat="24.306982168350892" lon="120.61359156632308"><ele>73.0</ele><time>2026-03-22T09:18:27Z</time></trkpt><trkpt lat="24.307086842072717" lon="120.6136392869386"><ele>73.0</ele><time>2026-03-22T09:18:28Z</time></trkpt><trkpt lat="24.307186776564016" lon="120.61370767435908"><ele>73.5</ele><time>2026-03-22T09:18:29Z</time></trkpt><trkpt lat="24.307283969031783" lon="120.61379002622098"><ele>74.0</ele><time>2026-03-22T09:18:30Z</time></trkpt><trkpt lat="24.307379031052797" lon="120.6138866559202"><ele>74.5</ele><time>2026-03-22T09:18:31Z</time></trkpt><trkpt lat="24.30747680802436" lon="120.61398388736387"><ele>75.0</ele><time>2026-03-22T09:18:32Z</time></trkpt><trkpt lat="24.307572160119577" lon="120.61408739536213"><ele>75.0</ele><time>2026-03-22T09:18:33Z</time></trkpt><trkpt lat="24.307662327462225" lon="120.61419476708376"><ele>75.0</ele><time>2026-03-22T09:18:34Z</time></trkpt><trkpt lat="24.307754859786275" lon="120.61430543715686"><ele>75.0</ele><time>2026-03-22T09:18:35Z</time></trkpt><trkpt lat="24.30784740443422" lon="120.61442265252714"><ele>75.0</ele><time>2026-03-22T09:18:36Z</time></trkpt><trkpt lat="24.307939526731683" lon="120.61454599905704"><ele>75.33333333333333</ele><time>2026-03-22T09:18:37Z</time></trkpt><trkpt lat="24.308032470759095" lon="120.61467484969238"><ele>75.66666666666666</ele><time>2026-03-22T09:18:38Z</time></trkpt><trkpt lat="24.30812615645468" lon="120.61480770084997"><ele>76.0</ele><time>2026-03-22T09:18:39Z</time></trkpt><trkpt lat="24.308222961675696" lon="120.61494594733121"><ele>76.0</ele><time>2026-03-22T09:18:40Z</time></trkpt><trkpt lat="24.308322872661922" lon="120.61508475548098"><ele>76.0</ele><time>2026-03-22T09:18:41Z</time></trkpt><trkpt lat="24.308427586004015" lon="120.61521882054005"><ele>76.0</ele><time>2026-03-22T09:18:42Z</time></trkpt><trkpt lat="24.308535837901168" lon="120.61534343173774"><ele>75.75</ele><time>2026-03-22T09:18:43Z</time></trkpt><trkpt lat="24.308644063772988" lon="120.61546154584639"><ele>75.5</ele><time>2026-03-22T09:18:44Z</time></trkpt><trkpt lat="24.30875381821221" lon="120.61556989497933"><ele>75.25</ele><time>2026-03-22T09:18:45Z</time></trkpt><trkpt lat="24.30886200623341" lon="120.61566948748171"><ele>75.0</ele><time>2026-03-22T09:18:46Z</time></trkpt><trkpt lat="24.308967696087876" lon="120.6157619659637"><ele>75.5</ele><time>2026-03-22T09:18:47Z</time></trkpt><trkpt lat="24.30906967327816" lon="120.61584573133197"><ele>76.0</ele><time>2026-03-22T09:18:48Z</time></trkpt><trkpt lat="24.30916992231779" lon="120.61592385311872"><ele>76.5</ele><time>2026-03-22T09:18:49Z</time></trkpt><trkpt lat="24.309272679528117" lon="120.61599791341081"><ele>77.0</ele><time>2026-03-22T09:18:50Z</time></trkpt><trkpt lat="24.309376584452604" lon="120.61606596606653"><ele>77.0</ele><time>2026-03-22T09:18:51Z</time></trkpt><trkpt lat="24.309481544578396" lon="120.61612875593559"><ele>77.0</ele><time>2026-03-22T09:18:52Z</time></trkpt><trkpt lat="24.309586538442" lon="120.61618462333831"><ele>77.0</ele><time>2026-03-22T09:18:53Z</time></trkpt><trkpt lat="24.309689903124774" lon="120.61623433413538"><ele>77.0</ele><time>2026-03-22T09:18:54Z</time></trkpt><trkpt lat="24.309792073202434" lon="120.61627996671398"><ele>77.0</ele><time>2026-03-22T09:18:55Z</time></trkpt><trkpt lat="24.309892615648565" lon="120.61632083555432"><ele>77.0</ele><time>2026-03-22T09:18:56Z</time></trkpt><trkpt lat="24.309989162035603" lon="120.6163599091723"><ele>77.0</ele><time>2026-03-22T09:18:57Z</time></trkpt><trkpt lat="24.310080474783092" lon="120.61639750170258"><ele>77.0</ele><time>2026-03-22T09:18:58Z</time></trkpt><trkpt lat="24.310164438989094" lon="120.61643406976712"><ele>77.0</ele><time>2026-03-22T09:18:59Z</time></trkpt><trkpt lat="24.310237509033943" lon="120.61646725463038"><ele>77.0</ele><time>2026-03-22T09:19:00Z</time></trkpt><trkpt lat="24.31030976985517" lon="120.61650332306117"><ele>77.0</ele><time>2026-03-22T09:19:01Z</time></trkpt><trkpt lat="24.310383013641975" lon="120.61654192196282"><ele>77.0</ele><time>2026-03-22T09:19:02Z</time></trkpt><trkpt lat="24.310460737559808" lon="120.61658370700937"><ele>77.0</ele><time>2026-03-22T09:19:03Z</time></trkpt><trkpt lat="24.310543516580577" lon="120.61663010303016"><ele>77.0</ele><time>2026-03-22T09:19:04Z</time></trkpt><trkpt lat="24.3106304583565" lon="120.61667957474768"><ele>77.0</ele><time>2026-03-22T09:19:05Z</time></trkpt><trkpt lat="24.310721959366013" lon="120.61673316877423"><ele>77.0</ele><time>2026-03-22T09:19:06Z</time></trkpt><trkpt lat="24.31081079245602" lon="120.61678516687174"><ele>77.0</ele><time>2026-03-22T09:19:07Z</time></trkpt><trkpt lat="24.310899432892143" lon="120.6168392032512"><ele>77.0</ele><time>2026-03-22T09:19:08Z</time></trkpt><trkpt lat="24.31099160456671" lon="120.61689683624702"><ele>77.0</ele><time>2026-03-22T09:19:09Z</time></trkpt><trkpt lat="24.311089293248248" lon="120.61696059507088"><ele>77.0</ele><time>2026-03-22T09:19:10Z</time></trkpt><trkpt lat="24.311192088649708" lon="120.61703024844762"><ele>77.0</ele><time>2026-03-22T09:19:11Z</time></trkpt><trkpt lat="24.311292685819193" lon="120.6171104243093"><ele>77.0</ele><time>2026-03-22T09:19:12Z</time></trkpt><trkpt lat="24.311410949660274" lon="120.61718080017484"><ele>77.0</ele><time>2026-03-22T09:19:13Z</time></trkpt><trkpt lat="24.311528300655187" lon="120.61726140837018"><ele>77.0</ele><time>2026-03-22T09:19:14Z</time></trkpt><trkpt lat="24.311640980324267" lon="120.61733825969797"><ele>77.0</ele><time>2026-03-22T09:19:15Z</time></trkpt><trkpt lat="24.31175257587551" lon="120.6174235142982"><ele>77.0</ele><time>2026-03-22T09:19:16Z</time></trkpt><trkpt lat="24.311872504668994" lon="120.61750641069537"><ele>77.0</ele><time>2026-03-22T09:19:17Z</time></trkpt><trkpt lat="24.311997648505983" lon="120.61759175445894"><ele>77.0</ele><time>2026-03-22T09:19:18Z</time></trkpt><trkpt lat="24.312129915043066" lon="120.61767889653014"><ele>76.33333333333334</ele><time>2026-03-22T09:19:19Z</time></trkpt><trkpt lat="24.312264944847108" lon="120.61776775949814"><ele>75.66666666666667</ele><time>2026-03-22T09:19:20Z</time></trkpt><trkpt lat="24.312404365083975" lon="120.6178576127494"><ele>75.0</ele><time>2026-03-22T09:19:21Z</time></trkpt><trkpt lat="24.3125473120959" lon="120.61794891729683"><ele>74.66666666666667</ele><time>2026-03-22T09:19:22Z</time></trkpt><trkpt lat="24.31269568456836" lon="120.6180418799655"><ele>74.33333333333334</ele><time>2026-03-22T09:19:23Z</time></trkpt><trkpt lat="24.312847140222477" lon="120.61813623906662"><ele>74.0</ele><time>2026-03-22T09:19:24Z</time></trkpt><trkpt lat="24.31299656132368" lon="120.61822620878034"><ele>73.0</ele><time>2026-03-22T09:19:25Z</time></trkpt><trkpt lat="24.313146046146255" lon="120.61831308996827"><ele>72.0</ele><time>2026-03-22T09:19:26Z</time></trkpt><trkpt lat="24.31329742256216" lon="120.61839923600783"><ele>71.0</ele><time>2026-03-22T09:19:27Z</time></trkpt><trkpt lat="24.313450859550827" lon="120.61848767815474"><ele>71.0</ele><time>2026-03-22T09:19:28Z</time></trkpt><trkpt lat="24.31360937140842" lon="120.6185749148196"><ele>71.0</ele><time>2026-03-22T09:19:29Z</time></trkpt><trkpt lat="24.313773071127024" lon="120.61866270153567"><ele>71.0</ele><time>2026-03-22T09:19:30Z</time></trkpt><trkpt lat="24.3139412061484" lon="120.61875312599649"><ele>71.33333333333334</ele><time>2026-03-22T09:19:31Z</time></trkpt><trkpt lat="24.314112242778588" lon="120.61884444226436"><ele>71.66666666666667</ele><time>2026-03-22T09:19:32Z</time></trkpt><trkpt lat="24.31428706774296" lon="120.61893590274433"><ele>72.0</ele><time>2026-03-22T09:19:33Z</time></trkpt><trkpt lat="24.314467278046763" lon="120.61902815942052"><ele>72.0</ele><time>2026-03-22T09:19:34Z</time></trkpt><trkpt lat="24.31464995067792" lon="120.61912093810236"><ele>72.0</ele><time>2026-03-22T09:19:35Z</time></trkpt><trkpt lat="24.314838144475146" lon="120.61921245968648"><ele>72.0</ele><time>2026-03-22T09:19:36Z</time></trkpt><trkpt lat="24.31503197715882" lon="120.61930494196734"><ele>72.0</ele><time>2026-03-22T09:19:37Z</time></trkpt><trkpt lat="24.315230719750545" lon="120.61939658711668"><ele>72.0</ele><time>2026-03-22T09:19:38Z</time></trkpt><trkpt lat="24.3154335703336" lon="120.61948960920486"><ele>72.0</ele><time>2026-03-22T09:19:39Z</time></trkpt><trkpt lat="24.315641563575422" lon="120.61958372280765"><ele>72.66666666666667</ele><time>2026-03-22T09:19:40Z</time></trkpt><trkpt lat="24.315847918009055" lon="120.61967739495672"><ele>73.33333333333334</ele><time>2026-03-22T09:19:41Z</time></trkpt><trkpt lat="24.31605338461828" lon="120.61976868075953"><ele>74.0</ele><time>2026-03-22T09:19:42Z</time></trkpt><trkpt lat="24.31625887991953" lon="120.6198572132713"><ele>74.0</ele><time>2026-03-22T09:19:43Z</time></trkpt><trkpt lat="24.316467021631926" lon="120.61994538725254"><ele>74.0</ele><time>2026-03-22T09:19:44Z</time></trkpt><trkpt lat="24.31668007523413" lon="120.62003304465858"><ele>74.0</ele><time>2026-03-22T09:19:45Z</time></trkpt><trkpt lat="24.31689259559997" lon="120.62012090723682"><ele>74.0</ele><time>2026-03-22T09:19:46Z</time></trkpt><trkpt lat="24.31710806589628" lon="120.62020876168582"><ele>74.0</ele><time>2026-03-22T09:19:47Z</time></trkpt><trkpt lat="24.31732504006837" lon="120.62029570782745"><ele>74.0</ele><time>2026-03-22T09:19:48Z</time></trkpt><trkpt lat="24.31754303030319" lon="120.62038193754113"><ele>74.0</ele><time>2026-03-22T09:19:49Z</time></trkpt><trkpt lat="24.31776329011589" lon="120.62046958349354"><ele>74.0</ele><time>2026-03-22T09:19:50Z</time></trkpt><trkpt lat="24.317983863785887" lon="120.6205589751552"><ele>75.0</ele><time>2026-03-22T09:19:51Z</time></trkpt><trkpt lat="24.318205894879654" lon="120.62064680913045"><ele>76.0</ele><time>2026-03-22T09:19:52Z</time></trkpt><trkpt lat="24.31842983597618" lon="120.6207338380686"><ele>76.0</ele><time>2026-03-22T09:19:53Z</time></trkpt><trkpt lat="24.31865411209425" lon="120.62082053594364"><ele>76.0</ele><time>2026-03-22T09:19:54Z</time></trkpt><trkpt lat="24.318879108438434" lon="120.62090739085153"><ele>75.5</ele><time>2026-03-22T09:19:55Z</time></trkpt><trkpt lat="24.319104361171373" lon="120.62099525662846"><ele>75.0</ele><time>2026-03-22T09:19:56Z</time></trkpt><trkpt lat="24.319329853323218" lon="120.62108592488178"><ele>75.5</ele><time>2026-03-22T09:19:57Z</time></trkpt><trkpt lat="24.319555907972205" lon="120.62117600770205"><ele>76.0</ele><time>2026-03-22T09:19:58Z</time></trkpt><trkpt lat="24.31978247983649" lon="120.62126658954331"><ele>76.5</ele><time>2026-03-22T09:19:59Z</time></trkpt><trkpt lat="24.320008486267795" lon="120.62135827656674"><ele>77.0</ele><time>2026-03-22T09:20:00Z</time></trkpt><trkpt lat="24.3202352351414" lon="120.62144985225213"><ele>77.0</ele><time>2026-03-22T09:20:01Z</time></trkpt><trkpt lat="24.320462812743337" lon="120.62154230058073"><ele>77.0</ele><time>2026-03-22T09:20:02Z</time></trkpt><trkpt lat="24.32068951729642" lon="120.62163531009014"><ele>78.0</ele><time>2026-03-22T09:20:03Z</time></trkpt><trkpt lat="24.32091639868697" lon="120.62172958547538"><ele>79.0</ele><time>2026-03-22T09:20:04Z</time></trkpt><trkpt lat="24.321143126260377" lon="120.62182623681672"><ele>79.0</ele><time>2026-03-22T09:20:05Z</time></trkpt><trkpt lat="24.32136984943171" lon="120.62192398980679"><ele>79.0</ele><time>2026-03-22T09:20:06Z</time></trkpt><trkpt lat="24.321596542297016" lon="120.62202343138085"><ele>86.0</ele><time>2026-03-22T09:20:07Z</time></trkpt><trkpt lat="24.321825087084036" lon="120.6221239793292"><ele>93.0</ele><time>2026-03-22T09:20:08Z</time></trkpt><trkpt lat="24.322052601383838" lon="120.62222584594862"><ele>102.5</ele><time>2026-03-22T09:20:09Z</time></trkpt><trkpt lat="24.32227907636945" lon="120.6223301253328"><ele>112.0</ele><time>2026-03-22T09:20:10Z</time></trkpt><trkpt lat="24.322504342512737" lon="120.62243721791287"><ele>112.0</ele><time>2026-03-22T09:20:11Z</time></trkpt><trkpt lat="24.322730216083453" lon="120.6225464163629"><ele>112.0</ele><time>2026-03-22T09:20:12Z</time></trkpt><trkpt lat="24.322955077897273" lon="120.62265899023375"><ele>111.0</ele><time>2026-03-22T09:20:13Z</time></trkpt><trkpt lat="24.32317966549304" lon="120.62277465180922"><ele>110.0</ele><time>2026-03-22T09:20:14Z</time></trkpt><trkpt lat="24.32340482083428" lon="120.62289265095862"><ele>112.5</ele><time>2026-03-22T09:20:15Z</time></trkpt><trkpt lat="24.323627623497448" lon="120.6230144069142"><ele>115.0</ele><time>2026-03-22T09:20:16Z</time></trkpt><trkpt lat="24.323850806634685" lon="120.62313910281237"><ele>121.5</ele><time>2026-03-22T09:20:17Z</time></trkpt><trkpt lat="24.324071275551763" lon="120.62326391431665"><ele>128.0</ele><time>2026-03-22T09:20:18Z</time></trkpt><trkpt lat="24.324289930016384" lon="120.6233901819243"><ele>128.0</ele><time>2026-03-22T09:20:19Z</time></trkpt><trkpt lat="24.324506964020298" lon="120.62351639946358"><ele>128.0</ele><time>2026-03-22T09:20:20Z</time></trkpt><trkpt lat="24.324723092175255" lon="120.62365021209794"><ele>130.0</ele><time>2026-03-22T09:20:21Z</time></trkpt><trkpt lat="24.324936341889362" lon="120.62378420468688"><ele>132.0</ele><time>2026-03-22T09:20:22Z</time></trkpt><trkpt lat="24.325147893218627" lon="120.62392368574848"><ele>132.0</ele><time>2026-03-22T09:20:23Z</time></trkpt><trkpt lat="24.3253604432456" lon="120.62406326437484"><ele>132.0</ele><time>2026-03-22T09:20:24Z</time></trkpt><trkpt lat="24.325567108816557" lon="120.62420393394804"><ele>136.0</ele><time>2026-03-22T09:20:25Z</time></trkpt><trkpt lat="24.325772266505876" lon="120.62434563572855"><ele>140.0</ele><time>2026-03-22T09:20:26Z</time></trkpt><trkpt lat="24.3259760572607" lon="120.62448577804047"><ele>140.0</ele><time>2026-03-22T09:20:27Z</time></trkpt><trkpt lat="24.326175351054676" lon="120.6246269704889"><ele>140.0</ele><time>2026-03-22T09:20:28Z</time></trkpt><trkpt lat="24.326371748017678" lon="120.62476851723692"><ele>139.5</ele><time>2026-03-22T09:20:29Z</time></trkpt><trkpt lat="24.326563231459485" lon="120.6249118556084"><ele>139.0</ele><time>2026-03-22T09:20:30Z</time></trkpt><trkpt lat="24.326753146871724" lon="120.62505767791949"><ele>139.0</ele><time>2026-03-22T09:20:31Z</time></trkpt><trkpt lat="24.326940807842256" lon="120.62520384480618"><ele>139.0</ele><time>2026-03-22T09:20:32Z</time></trkpt><trkpt lat="24.327123067752055" lon="120.62534986626108"><ele>131.5</ele><time>2026-03-22T09:20:33Z</time></trkpt><trkpt lat="24.327307348979506" lon="120.62549651018105"><ele>124.0</ele><time>2026-03-22T09:20:34Z</time></trkpt><trkpt lat="24.327489081565286" lon="120.62564620550941"><ele>124.0</ele><time>2026-03-22T09:20:35Z</time></trkpt><trkpt lat="24.32766842717304" lon="120.62579679682912"><ele>124.0</ele><time>2026-03-22T09:20:36Z</time></trkpt><trkpt lat="24.327843363764075" lon="120.6259539429207"><ele>124.0</ele><time>2026-03-22T09:20:37Z</time></trkpt><trkpt lat="24.328020466430623" lon="120.62611105957245"><ele>124.0</ele><time>2026-03-22T09:20:38Z</time></trkpt><trkpt lat="24.328197719207765" lon="120.6262682364359"><ele>121.5</ele><time>2026-03-22T09:20:39Z</time></trkpt><trkpt lat="24.328370686604668" lon="120.6264278903174"><ele>119.0</ele><time>2026-03-22T09:20:40Z</time></trkpt><trkpt lat="24.328543393886072" lon="120.62659089069753"><ele>119.0</ele><time>2026-03-22T09:20:41Z</time></trkpt><trkpt lat="24.328713812021597" lon="120.62675733410549"><ele>119.0</ele><time>2026-03-22T09:20:42Z</time></trkpt><trkpt lat="24.32888212556158" lon="120.62692715988136"><ele>119.5</ele><time>2026-03-22T09:20:43Z</time></trkpt><trkpt lat="24.3290510306162" lon="120.62709819754262"><ele>120.0</ele><time>2026-03-22T09:20:44Z</time></trkpt><trkpt lat="24.329220143478" lon="120.6272701535423"><ele>120.0</ele><time>2026-03-22T09:20:45Z</time></trkpt><trkpt lat="24.329388519425972" lon="120.62744354224675"><ele>120.0</ele><time>2026-03-22T09:20:46Z</time></trkpt><trkpt lat="24.32955571130256" lon="120.62762081210401"><ele>120.0</ele><time>2026-03-22T09:20:47Z</time></trkpt><trkpt lat="24.329724326084605" lon="120.6278013527016"><ele>120.0</ele><time>2026-03-22T09:20:48Z</time></trkpt><trkpt lat="24.329892201508912" lon="120.62798468176436"><ele>121.0</ele><time>2026-03-22T09:20:49Z</time></trkpt><trkpt lat="24.330059306896345" lon="120.6281714926213"><ele>122.0</ele><time>2026-03-22T09:20:50Z</time></trkpt><trkpt lat="24.330225882771597" lon="120.6283629770249"><ele>122.0</ele><time>2026-03-22T09:20:51Z</time></trkpt><trkpt lat="24.330391921853064" lon="120.62855659239375"><ele>122.0</ele><time>2026-03-22T09:20:52Z</time></trkpt><trkpt lat="24.33055885126697" lon="120.6287524327873"><ele>122.0</ele><time>2026-03-22T09:20:53Z</time></trkpt><trkpt lat="24.330724184151176" lon="120.62895124749295"><ele>122.0</ele><time>2026-03-22T09:20:54Z</time></trkpt><trkpt lat="24.330887100307564" lon="120.6291543764879"><ele>122.0</ele><time>2026-03-22T09:20:55Z</time></trkpt><trkpt lat="24.331050830478443" lon="120.62936273838233"><ele>122.0</ele><time>2026-03-22T09:20:56Z</time></trkpt><trkpt lat="24.331212740398723" lon="120.62957517767242"><ele>121.0</ele><time>2026-03-22T09:20:57Z</time></trkpt><trkpt lat="24.331373903589675" lon="120.62979020030946"><ele>120.0</ele><time>2026-03-22T09:20:58Z</time></trkpt><trkpt lat="24.331533935475708" lon="120.63000829789432"><ele>120.0</ele><time>2026-03-22T09:20:59Z</time></trkpt><trkpt lat="24.331691910201627" lon="120.63022730398298"><ele>120.0</ele><time>2026-03-22T09:21:00Z</time></trkpt><trkpt lat="24.331846176559587" lon="120.63044745818767"><ele>120.5</ele><time>2026-03-22T09:21:01Z</time></trkpt><trkpt lat="24.331997790512684" lon="120.63066814773859"><ele>121.0</ele><time>2026-03-22T09:21:02Z</time></trkpt><trkpt lat="24.332147426029323" lon="120.63088787912147"><ele>121.0</ele><time>2026-03-22T09:21:03Z</time></trkpt><trkpt lat="24.332291158598235" lon="120.631112251533"><ele>121.0</ele><time>2026-03-22T09:21:04Z</time></trkpt><trkpt lat="24.332431269038818" lon="120.63133713143485"><ele>116.5</ele><time>2026-03-22T09:21:05Z</time></trkpt><trkpt lat="24.332569537386387" lon="120.63156183775556"><ele>112.0</ele><time>2026-03-22T09:21:06Z</time></trkpt><trkpt lat="24.33270632053732" lon="120.63178654727587"><ele>109.0</ele><time>2026-03-22T09:21:07Z</time></trkpt><trkpt lat="24.33284075337701" lon="120.63201185437018"><ele>106.0</ele><time>2026-03-22T09:21:08Z</time></trkpt><trkpt lat="24.332970700665616" lon="120.63223904754403"><ele>106.0</ele><time>2026-03-22T09:21:09Z</time></trkpt><trkpt lat="24.333100325455746" lon="120.63246543332936"><ele>106.0</ele><time>2026-03-22T09:21:10Z</time></trkpt><trkpt lat="24.333229928878687" lon="120.63269456183019"><ele>104.5</ele><time>2026-03-22T09:21:11Z</time></trkpt><trkpt lat="24.333358113101706" lon="120.63292471517046"><ele>103.0</ele><time>2026-03-22T09:21:12Z</time></trkpt><trkpt lat="24.33348385815375" lon="120.6331538933733"><ele>103.0</ele><time>2026-03-22T09:21:13Z</time></trkpt><trkpt lat="24.333606241596065" lon="120.63338393846604"><ele>103.0</ele><time>2026-03-22T09:21:14Z</time></trkpt><trkpt lat="24.333723192816716" lon="120.63361634595954"><ele>103.0</ele><time>2026-03-22T09:21:15Z</time></trkpt><trkpt lat="24.33383743978347" lon="120.63384770255809"><ele>103.0</ele><time>2026-03-22T09:21:16Z</time></trkpt><trkpt lat="24.333951137155484" lon="120.6340813514126"><ele>102.0</ele><time>2026-03-22T09:21:17Z</time></trkpt><trkpt lat="24.334063175737363" lon="120.63431909511883"><ele>101.0</ele><time>2026-03-22T09:21:18Z</time></trkpt><trkpt lat="24.334175513691253" lon="120.63455924192397"><ele>104.0</ele><time>2026-03-22T09:21:19Z</time></trkpt><trkpt lat="24.334285273462122" lon="120.63479944866306"><ele>107.0</ele><time>2026-03-22T09:21:20Z</time></trkpt><trkpt lat="24.33439080523785" lon="120.63503877632603"><ele>107.0</ele><time>2026-03-22T09:21:21Z</time></trkpt><trkpt lat="24.33449248476341" lon="120.63527950547707"><ele>107.0</ele><time>2026-03-22T09:21:22Z</time></trkpt><trkpt lat="24.334591866733465" lon="120.63552109163132"><ele>109.0</ele><time>2026-03-22T09:21:23Z</time></trkpt><trkpt lat="24.334690581734307" lon="120.63576633513523"><ele>111.0</ele><time>2026-03-22T09:21:24Z</time></trkpt><trkpt lat="24.334788110667038" lon="120.63601288250075"><ele>108.5</ele><time>2026-03-22T09:21:25Z</time></trkpt><trkpt lat="24.33488452399873" lon="120.6362622401153"><ele>106.0</ele><time>2026-03-22T09:21:26Z</time></trkpt><trkpt lat="24.33497939392512" lon="120.63651435653912"><ele>106.0</ele><time>2026-03-22T09:21:27Z</time></trkpt><trkpt lat="24.33507182819422" lon="120.63676777791754"><ele>106.0</ele><time>2026-03-22T09:21:28Z</time></trkpt><trkpt lat="24.335161912804168" lon="120.6370248695344"><ele>109.0</ele><time>2026-03-22T09:21:29Z</time></trkpt><trkpt lat="24.33525082467658" lon="120.63728478513684"><ele>112.0</ele><time>2026-03-22T09:21:30Z</time></trkpt><trkpt lat="24.335339158695888" lon="120.63754590900666"><ele>115.5</ele><time>2026-03-22T09:21:31Z</time></trkpt><trkpt lat="24.335425396808823" lon="120.63780673530188"><ele>119.0</ele><time>2026-03-22T09:21:32Z</time></trkpt><trkpt lat="24.33550984017762" lon="120.638068649158"><ele>111.5</ele><time>2026-03-22T09:21:33Z</time></trkpt><trkpt lat="24.33559286833788" lon="120.63833375450317"><ele>104.0</ele><time>2026-03-22T09:21:34Z</time></trkpt><trkpt lat="24.335675606486692" lon="120.63859896732681"><ele>106.5</ele><time>2026-03-22T09:21:35Z</time></trkpt><trkpt lat="24.335757399618057" lon="120.63886585706358"><ele>109.0</ele><time>2026-03-22T09:21:36Z</time></trkpt><trkpt lat="24.33583892562048" lon="120.63913271544389"><ele>109.0</ele><time>2026-03-22T09:21:37Z</time></trkpt><trkpt lat="24.335917246629716" lon="120.63940013264308"><ele>109.0</ele><time>2026-03-22T09:21:38Z</time></trkpt><trkpt lat="24.33599346577834" lon="120.63967139945512"><ele>111.5</ele><time>2026-03-22T09:21:39Z</time></trkpt><trkpt lat="24.33607254544202" lon="120.63994093990026"><ele>114.0</ele><time>2026-03-22T09:21:40Z</time></trkpt><trkpt lat="24.336149260538644" lon="120.64021253008639"><ele>114.0</ele><time>2026-03-22T09:21:41Z</time></trkpt><trkpt lat="24.33622683283145" lon="120.64048505385337"><ele>114.0</ele><time>2026-03-22T09:21:42Z</time></trkpt><trkpt lat="24.336304557317604" lon="120.64075689568327"><ele>114.0</ele><time>2026-03-22T09:21:43Z</time></trkpt><trkpt lat="24.336382649154796" lon="120.64103069034121"><ele>114.0</ele><time>2026-03-22T09:21:44Z</time></trkpt><trkpt lat="24.336460441956277" lon="120.64130284709016"><ele>109.5</ele><time>2026-03-22T09:21:45.001Z</time></trkpt><trkpt lat="24.336537433454705" lon="120.64157714023769"><ele>105.0</ele><time>2026-03-22T09:21:46.001Z</time></trkpt><trkpt lat="24.336613239010585" lon="120.64185137602264"><ele>106.0</ele><time>2026-03-22T09:21:47.001Z</time></trkpt><trkpt lat="24.33669167071846" lon="120.64212495065105"><ele>107.0</ele><time>2026-03-22T09:21:48.001Z</time></trkpt><trkpt lat="24.3367712528486" lon="120.64239918601761"><ele>107.0</ele><time>2026-03-22T09:21:49.001Z</time></trkpt><trkpt lat="24.336852564309936" lon="120.64267235069761"><ele>107.0</ele><time>2026-03-22T09:21:50.001Z</time></trkpt><trkpt lat="24.336933374808556" lon="120.6429462551357"><ele>109.0</ele><time>2026-03-22T09:21:51.001Z</time></trkpt><trkpt lat="24.33701293492949" lon="120.64322159258559"><ele>111.0</ele><time>2026-03-22T09:21:52.001Z</time></trkpt><trkpt lat="24.33709727166156" lon="120.64349569618875"><ele>114.0</ele><time>2026-03-22T09:21:53.001Z</time></trkpt><trkpt lat="24.337182555207967" lon="120.64376896033497"><ele>117.0</ele><time>2026-03-22T09:21:54.001Z</time></trkpt><trkpt lat="24.337268262271834" lon="120.64404134150055"><ele>108.5</ele><time>2026-03-22T09:21:55.001Z</time></trkpt><trkpt lat="24.33735437555048" lon="120.64431328314838"><ele>100.0</ele><time>2026-03-22T09:21:56.001Z</time></trkpt><trkpt lat="24.337441014144876" lon="120.6445844655804"><ele>100.0</ele><time>2026-03-22T09:21:57.001Z</time></trkpt><trkpt lat="24.33752894051694" lon="120.6448523377713"><ele>100.0</ele><time>2026-03-22T09:21:58.001Z</time></trkpt><trkpt lat="24.337622558549008" lon="120.64511468099917"><ele>104.0</ele><time>2026-03-22T09:21:59.001Z</time></trkpt><trkpt lat="24.33771593127313" lon="120.64537830618093"><ele>108.0</ele><time>2026-03-22T09:22:00.001Z</time></trkpt><trkpt lat="24.33781053800224" lon="120.64563913943044"><ele>108.0</ele><time>2026-03-22T09:22:01.001Z</time></trkpt><trkpt lat="24.337908387723555" lon="120.64589974304795"><ele>108.0</ele><time>2026-03-22T09:22:02.001Z</time></trkpt><trkpt lat="24.338006688025068" lon="120.64615834165137"><ele>106.0</ele><time>2026-03-22T09:22:03.001Z</time></trkpt><trkpt lat="24.338109146255807" lon="120.64641484064956"><ele>104.0</ele><time>2026-03-22T09:22:04.001Z</time></trkpt><trkpt lat="24.338213675834965" lon="120.64666791654811"><ele>104.0</ele><time>2026-03-22T09:22:05Z</time></trkpt><trkpt lat="24.338319955783106" lon="120.64691884775299"><ele>104.0</ele><time>2026-03-22T09:22:06Z</time></trkpt><trkpt lat="24.338428814227864" lon="120.64716779629848"><ele>104.0</ele><time>2026-03-22T09:22:07Z</time></trkpt><trkpt lat="24.338541885328638" lon="120.64741423305627"><ele>104.0</ele><time>2026-03-22T09:22:08Z</time></trkpt><trkpt lat="24.33865625699419" lon="120.64766093348616"><ele>104.0</ele><time>2026-03-22T09:22:09Z</time></trkpt><trkpt lat="24.33877411587092" lon="120.64790593878604"><ele>104.0</ele><time>2026-03-22T09:22:10Z</time></trkpt><trkpt lat="24.33889429764073" lon="120.64815109437687"><ele>104.0</ele><time>2026-03-22T09:22:11Z</time></trkpt><trkpt lat="24.339016787025894" lon="120.64839541696149"><ele>104.0</ele><time>2026-03-22T09:22:12Z</time></trkpt><trkpt lat="24.339142097799474" lon="120.64863915765648"><ele>104.5</ele><time>2026-03-22T09:22:13Z</time></trkpt><trkpt lat="24.33927167224779" lon="120.64887969241927"><ele>105.0</ele><time>2026-03-22T09:22:14Z</time></trkpt><trkpt lat="24.339404195176233" lon="120.64911986344968"><ele>105.0</ele><time>2026-03-22T09:22:15Z</time></trkpt><trkpt lat="24.33954013832306" lon="120.64935785441342"><ele>105.0</ele><time>2026-03-22T09:22:16Z</time></trkpt><trkpt lat="24.339676184450877" lon="120.64959138200173"><ele>105.5</ele><time>2026-03-22T09:22:17Z</time></trkpt><trkpt lat="24.33981513155531" lon="120.64982211755007"><ele>106.0</ele><time>2026-03-22T09:22:18Z</time></trkpt><trkpt lat="24.339956646262607" lon="120.65005120204248"><ele>106.0</ele><time>2026-03-22T09:22:19Z</time></trkpt><trkpt lat="24.340101227028555" lon="120.65028036046212"><ele>106.0</ele><time>2026-03-22T09:22:20Z</time></trkpt><trkpt lat="24.34024678548108" lon="120.65050595154277"><ele>106.5</ele><time>2026-03-22T09:22:21Z</time></trkpt><trkpt lat="24.340392558016127" lon="120.65072849621444"><ele>107.0</ele><time>2026-03-22T09:22:22Z</time></trkpt><trkpt lat="24.34054080534935" lon="120.65095009666824"><ele>106.5</ele><time>2026-03-22T09:22:23Z</time></trkpt><trkpt lat="24.340694231705157" lon="120.65117149050072"><ele>106.0</ele><time>2026-03-22T09:22:24Z</time></trkpt><trkpt lat="24.3408501341331" lon="120.65139150991851"><ele>106.0</ele><time>2026-03-22T09:22:25Z</time></trkpt><trkpt lat="24.341007672377334" lon="120.65161001822176"><ele>106.0</ele><time>2026-03-22T09:22:26Z</time></trkpt><trkpt lat="24.341167596021144" lon="120.65182499236096"><ele>104.5</ele><time>2026-03-22T09:22:27Z</time></trkpt><trkpt lat="24.341331113545785" lon="120.65203555054504"><ele>103.0</ele><time>2026-03-22T09:22:28Z</time></trkpt><trkpt lat="24.34149885092386" lon="120.6522395667441"><ele>102.0</ele><time>2026-03-22T09:22:29Z</time></trkpt><trkpt lat="24.34167255561705" lon="120.65243776153919"><ele>101.0</ele><time>2026-03-22T09:22:30Z</time></trkpt><trkpt lat="24.34185020943225" lon="120.65263469768477"><ele>101.5</ele><time>2026-03-22T09:22:31Z</time></trkpt><trkpt lat="24.342030994301794" lon="120.6528323700107"><ele>102.0</ele><time>2026-03-22T09:22:32Z</time></trkpt><trkpt lat="24.342214697042802" lon="120.65303376600106"><ele>101.5</ele><time>2026-03-22T09:22:33Z</time></trkpt><trkpt lat="24.34240074672132" lon="120.65323799963276"><ele>101.0</ele><time>2026-03-22T09:22:34Z</time></trkpt><trkpt lat="24.342589622725118" lon="120.6534457034956"><ele>100.5</ele><time>2026-03-22T09:22:35Z</time></trkpt><trkpt lat="24.342778874916924" lon="120.65364824591906"><ele>100.0</ele><time>2026-03-22T09:22:36Z</time></trkpt><trkpt lat="24.34297001051915" lon="120.65384677013182"><ele>100.0</ele><time>2026-03-22T09:22:37Z</time></trkpt><trkpt lat="24.34316091699526" lon="120.65404147846348"><ele>100.0</ele><time>2026-03-22T09:22:38Z</time></trkpt><trkpt lat="24.34334808504143" lon="120.65422711676244"><ele>100.0</ele><time>2026-03-22T09:22:39Z</time></trkpt><trkpt lat="24.343536349473492" lon="120.65440923972155"><ele>100.0</ele><time>2026-03-22T09:22:40Z</time></trkpt><trkpt lat="24.343723669467224" lon="120.65458394010409"><ele>103.5</ele><time>2026-03-22T09:22:41Z</time></trkpt><trkpt lat="24.343906113020275" lon="120.65475162513421"><ele>107.0</ele><time>2026-03-22T09:22:42Z</time></trkpt><trkpt lat="24.34408972048787" lon="120.65491618637681"><ele>107.0</ele><time>2026-03-22T09:22:43Z</time></trkpt><trkpt lat="24.344272376214583" lon="120.65507537019295"><ele>107.0</ele><time>2026-03-22T09:22:44Z</time></trkpt><trkpt lat="24.344453726887195" lon="120.65523018315974"><ele>105.5</ele><time>2026-03-22T09:22:45Z</time></trkpt><trkpt lat="24.34463610251588" lon="120.6553836659949"><ele>104.0</ele><time>2026-03-22T09:22:46Z</time></trkpt><trkpt lat="24.344820363346187" lon="120.65553195362898"><ele>104.0</ele><time>2026-03-22T09:22:47Z</time></trkpt><trkpt lat="24.345004776345338" lon="120.65567871473105"><ele>104.0</ele><time>2026-03-22T09:22:48Z</time></trkpt><trkpt lat="24.345191476864166" lon="120.65582445473515"><ele>104.0</ele><time>2026-03-22T09:22:49Z</time></trkpt><trkpt lat="24.345382324000106" lon="120.65596949477992"><ele>104.0</ele><time>2026-03-22T09:22:50Z</time></trkpt><trkpt lat="24.345577480783344" lon="120.65611521554519"><ele>103.5</ele><time>2026-03-22T09:22:51Z</time></trkpt><trkpt lat="24.345777180187042" lon="120.65626176290051"><ele>103.0</ele><time>2026-03-22T09:22:52Z</time></trkpt><trkpt lat="24.345977340336134" lon="120.65640557776646"><ele>103.0</ele><time>2026-03-22T09:22:53Z</time></trkpt><trkpt lat="24.346178346349262" lon="120.65654562415048"><ele>103.0</ele><time>2026-03-22T09:22:54Z</time></trkpt><trkpt lat="24.3463804373737" lon="120.65668273259122"><ele>103.5</ele><time>2026-03-22T09:22:55Z</time></trkpt><trkpt lat="24.346583461623645" lon="120.65681687402689"><ele>104.0</ele><time>2026-03-22T09:22:56Z</time></trkpt><trkpt lat="24.346786087034335" lon="120.65694852454435"><ele>105.0</ele><time>2026-03-22T09:22:57Z</time></trkpt><trkpt lat="24.34699037076059" lon="120.65707865482916"><ele>106.0</ele><time>2026-03-22T09:22:58Z</time></trkpt><trkpt lat="24.347197637392767" lon="120.6572084574644"><ele>106.0</ele><time>2026-03-22T09:22:59Z</time></trkpt><trkpt lat="24.34740864904762" lon="120.65733801262468"><ele>106.0</ele><time>2026-03-22T09:23:00Z</time></trkpt><trkpt lat="24.347621262226152" lon="120.65746387262308"><ele>106.0</ele><time>2026-03-22T09:23:01Z</time></trkpt><trkpt lat="24.34783729001066" lon="120.65759001396367"><ele>106.0</ele><time>2026-03-22T09:23:02Z</time></trkpt><trkpt lat="24.348055110584294" lon="120.6577146909172"><ele>106.5</ele><time>2026-03-22T09:23:03Z</time></trkpt><trkpt lat="24.348270168107856" lon="120.65783577566535"><ele>107.0</ele><time>2026-03-22T09:23:04Z</time></trkpt><trkpt lat="24.348478904700432" lon="120.65795213361578"><ele>107.0</ele><time>2026-03-22T09:23:05Z</time></trkpt><trkpt lat="24.348685391574392" lon="120.65806451194238"><ele>107.0</ele><time>2026-03-22T09:23:06Z</time></trkpt><trkpt lat="24.34889265988531" lon="120.65817592833372"><ele>108.0</ele><time>2026-03-22T09:23:07Z</time></trkpt><trkpt lat="24.349099980161935" lon="120.65828365633263"><ele>109.0</ele><time>2026-03-22T09:23:08Z</time></trkpt><trkpt lat="24.349305972923535" lon="120.65839038142288"><ele>109.0</ele><time>2026-03-22T09:23:09Z</time></trkpt><trkpt lat="24.349511815212715" lon="120.65849464488349"><ele>109.0</ele><time>2026-03-22T09:23:10Z</time></trkpt><trkpt lat="24.34971723340633" lon="120.65859573713936"><ele>109.33333333333334</ele><time>2026-03-22T09:23:11Z</time></trkpt><trkpt lat="24.34992271231406" lon="120.65869682233533"><ele>109.66666666666666</ele><time>2026-03-22T09:23:12Z</time></trkpt><trkpt lat="24.350126863535404" lon="120.65879519615078"><ele>110.0</ele><time>2026-03-22T09:23:13Z</time></trkpt><trkpt lat="24.3503294513955" lon="120.65889211979783"><ele>110.0</ele><time>2026-03-22T09:23:14Z</time></trkpt><trkpt lat="24.350531139626224" lon="120.65898670713793"><ele>110.0</ele><time>2026-03-22T09:23:15Z</time></trkpt><trkpt lat="24.350730969728197" lon="120.65907842149448"><ele>110.0</ele><time>2026-03-22T09:23:16Z</time></trkpt><trkpt lat="24.35093134998651" lon="120.6591690954033"><ele>110.66666666666666</ele><time>2026-03-22T09:23:17Z</time></trkpt><trkpt lat="24.351134118762573" lon="120.65925810914767"><ele>111.33333333333334</ele><time>2026-03-22T09:23:18Z</time></trkpt><trkpt lat="24.351337442785333" lon="120.65934738631009"><ele>112.0</ele><time>2026-03-22T09:23:19Z</time></trkpt><trkpt lat="24.35154307392834" lon="120.65943573894141"><ele>112.33333333333334</ele><time>2026-03-22T09:23:20.001Z</time></trkpt><trkpt lat="24.351750261916944" lon="120.65952293553929"><ele>112.66666666666666</ele><time>2026-03-22T09:23:21.001Z</time></trkpt><trkpt lat="24.351961201501076" lon="120.65961020900703"><ele>113.0</ele><time>2026-03-22T09:23:22.001Z</time></trkpt><trkpt lat="24.352174164948952" lon="120.6596967864152"><ele>114.0</ele><time>2026-03-22T09:23:23.001Z</time></trkpt><trkpt lat="24.352390106693566" lon="120.65978160582864"><ele>115.0</ele><time>2026-03-22T09:23:24.001Z</time></trkpt><trkpt lat="24.35260492848176" lon="120.65986977984981"><ele>115.0</ele><time>2026-03-22T09:23:25.001Z</time></trkpt><trkpt lat="24.352824971509154" lon="120.65995573238841"><ele>115.0</ele><time>2026-03-22T09:23:26.001Z</time></trkpt><trkpt lat="24.353046160461137" lon="120.66004065682844"><ele>119.5</ele><time>2026-03-22T09:23:27.001Z</time></trkpt><trkpt lat="24.35327046443805" lon="120.66012657263204"><ele>124.0</ele><time>2026-03-22T09:23:28.001Z</time></trkpt><trkpt lat="24.353495765819805" lon="120.66021239148608"><ele>123.0</ele><time>2026-03-22T09:23:29.001Z</time></trkpt><trkpt lat="24.353723281236558" lon="120.66029719664829"><ele>122.0</ele><time>2026-03-22T09:23:30.001Z</time></trkpt><trkpt lat="24.353951253454817" lon="120.6603811183154"><ele>109.0</ele><time>2026-03-22T09:23:31.001Z</time></trkpt><trkpt lat="24.354178884142506" lon="120.66046447248344"><ele>96.0</ele><time>2026-03-22T09:23:32.001Z</time></trkpt><trkpt lat="24.354407401321815" lon="120.66054533257915"><ele>96.0</ele><time>2026-03-22T09:23:33.001Z</time></trkpt><trkpt lat="24.35463613702663" lon="120.66062584921693"><ele>96.0</ele><time>2026-03-22T09:23:34.001Z</time></trkpt><trkpt lat="24.354863326126644" lon="120.66070421262098"><ele>92.0</ele><time>2026-03-22T09:23:35.001Z</time></trkpt><trkpt lat="24.35508813599415" lon="120.66077919907967"><ele>88.0</ele><time>2026-03-22T09:23:36.001Z</time></trkpt><trkpt lat="24.355309374187932" lon="120.66085249110449"><ele>88.0</ele><time>2026-03-22T09:23:37.001Z</time></trkpt><trkpt lat="24.35553050972715" lon="120.66092408897819"><ele>88.0</ele><time>2026-03-22T09:23:38.001Z</time></trkpt><trkpt lat="24.355752384777993" lon="120.66099369129273"><ele>87.5</ele><time>2026-03-22T09:23:39.001Z</time></trkpt><trkpt lat="24.355974016539186" lon="120.66106059334601"><ele>87.0</ele><time>2026-03-22T09:23:40.001Z</time></trkpt><trkpt lat="24.356196618344722" lon="120.6611290031652"><ele>86.5</ele><time>2026-03-22T09:23:41.001Z</time></trkpt><trkpt lat="24.356419086827543" lon="120.66119679635672"><ele>86.0</ele><time>2026-03-22T09:23:42.001Z</time></trkpt><trkpt lat="24.3566436500165" lon="120.66126306247745"><ele>86.0</ele><time>2026-03-22T09:23:43.001Z</time></trkpt><trkpt lat="24.356867611737364" lon="120.66132954533589"><ele>86.0</ele><time>2026-03-22T09:23:44.001Z</time></trkpt><trkpt lat="24.35709177282605" lon="120.66139497611097"><ele>85.0</ele><time>2026-03-22T09:23:45.001Z</time></trkpt><trkpt lat="24.35731673907166" lon="120.66145917736118"><ele>84.0</ele><time>2026-03-22T09:23:46.001Z</time></trkpt><trkpt lat="24.357540926735616" lon="120.66152361891298"><ele>84.0</ele><time>2026-03-22T09:23:47.001Z</time></trkpt><trkpt lat="24.35776419831089" lon="120.66158601354108"><ele>84.0</ele><time>2026-03-22T09:23:48.001Z</time></trkpt><trkpt lat="24.35798317788322" lon="120.66164798044714"><ele>84.5</ele><time>2026-03-22T09:23:49.001Z</time></trkpt><trkpt lat="24.358201950998165" lon="120.66170635600061"><ele>85.0</ele><time>2026-03-22T09:23:50.001Z</time></trkpt><trkpt lat="24.358420560917715" lon="120.66176198251847"><ele>85.0</ele><time>2026-03-22T09:23:51.001Z</time></trkpt><trkpt lat="24.358636370504588" lon="120.6618172727974"><ele>85.0</ele><time>2026-03-22T09:23:52.001Z</time></trkpt><trkpt lat="24.358851385070025" lon="120.66187297681645"><ele>85.0</ele><time>2026-03-22T09:23:53.001Z</time></trkpt><trkpt lat="24.359067456472854" lon="120.66192767614143"><ele>85.0</ele><time>2026-03-22T09:23:54.001Z</time></trkpt><trkpt lat="24.359283954515437" lon="120.66197980678086"><ele>85.0</ele><time>2026-03-22T09:23:55.001Z</time></trkpt><trkpt lat="24.359501002244087" lon="120.66203238088444"><ele>85.0</ele><time>2026-03-22T09:23:56.001Z</time></trkpt><trkpt lat="24.35971591113562" lon="120.66208366758623"><ele>85.0</ele><time>2026-03-22T09:23:57.001Z</time></trkpt><trkpt lat="24.359930500703346" lon="120.66213373900459"><ele>85.0</ele><time>2026-03-22T09:23:58.001Z</time></trkpt><trkpt lat="24.360146848797836" lon="120.66218345584733"><ele>85.0</ele><time>2026-03-22T09:23:59.001Z</time></trkpt><trkpt lat="24.360364231642837" lon="120.66223200772016"><ele>84.66666666666666</ele><time>2026-03-22T09:24:00.001Z</time></trkpt><trkpt lat="24.360581875636417" lon="120.66228222167041"><ele>84.33333333333333</ele><time>2026-03-22T09:24:01.001Z</time></trkpt><trkpt lat="24.36080045234488" lon="120.66233111255222"><ele>84.0</ele><time>2026-03-22T09:24:02.001Z</time></trkpt><trkpt lat="24.361021580414075" lon="120.66237758761858"><ele>84.0</ele><time>2026-03-22T09:24:03.001Z</time></trkpt><trkpt lat="24.36124247677177" lon="120.6624238297698"><ele>84.0</ele><time>2026-03-22T09:24:04.001Z</time></trkpt><trkpt lat="24.361462294087325" lon="120.66247065006405"><ele>84.0</ele><time>2026-03-22T09:24:05.001Z</time></trkpt><trkpt lat="24.361680752028512" lon="120.66251688294892"><ele>83.0</ele><time>2026-03-22T09:24:06.001Z</time></trkpt><trkpt lat="24.36189814720893" lon="120.66256176130625"><ele>82.0</ele><time>2026-03-22T09:24:07.001Z</time></trkpt><trkpt lat="24.36211476908778" lon="120.6626069853699"><ele>81.0</ele><time>2026-03-22T09:24:08.001Z</time></trkpt><trkpt lat="24.362330023703695" lon="120.66265120133092"><ele>80.66666666666667</ele><time>2026-03-22T09:24:09.001Z</time></trkpt><trkpt lat="24.36254632123886" lon="120.66269477374136"><ele>80.33333333333334</ele><time>2026-03-22T09:24:10.001Z</time></trkpt><trkpt lat="24.362763489042056" lon="120.66273796259264"><ele>80.0</ele><time>2026-03-22T09:24:11Z</time></trkpt><trkpt lat="24.36298236878515" lon="120.66278185917515"><ele>79.5</ele><time>2026-03-22T09:24:12Z</time></trkpt><trkpt lat="24.36320240424732" lon="120.66282419659127"><ele>79.0</ele><time>2026-03-22T09:24:13Z</time></trkpt><trkpt lat="24.363425328622718" lon="120.66286806782428"><ele>79.0</ele><time>2026-03-22T09:24:14Z</time></trkpt><trkpt lat="24.363648882227793" lon="120.66291357727934"><ele>79.0</ele><time>2026-03-22T09:24:15Z</time></trkpt><trkpt lat="24.36387403701976" lon="120.66295884138421"><ele>78.0</ele><time>2026-03-22T09:24:16Z</time></trkpt><trkpt lat="24.364098192226734" lon="120.66300435812605"><ele>77.0</ele><time>2026-03-22T09:24:17Z</time></trkpt><trkpt lat="24.364321590269707" lon="120.66304843580532"><ele>77.0</ele><time>2026-03-22T09:24:18Z</time></trkpt><trkpt lat="24.364543380051014" lon="120.66309251501349"><ele>77.0</ele><time>2026-03-22T09:24:19Z</time></trkpt><trkpt lat="24.364765592542266" lon="120.66314226961697"><ele>78.0</ele><time>2026-03-22T09:24:20Z</time></trkpt><trkpt lat="24.364990487948337" lon="120.66318536388245"><ele>79.0</ele><time>2026-03-22T09:24:21Z</time></trkpt><trkpt lat="24.365217027473484" lon="120.66322612554328"><ele>79.0</ele><time>2026-03-22T09:24:22Z</time></trkpt><trkpt lat="24.365443762340934" lon="120.66326992914371"><ele>79.0</ele><time>2026-03-22T09:24:23Z</time></trkpt><trkpt lat="24.365674292788384" lon="120.66331489855665"><ele>80.0</ele><time>2026-03-22T09:24:24Z</time></trkpt><trkpt lat="24.36590671430891" lon="120.6633616760658"><ele>81.0</ele><time>2026-03-22T09:24:25Z</time></trkpt><trkpt lat="24.366142435586298" lon="120.66340899892558"><ele>82.5</ele><time>2026-03-22T09:24:26Z</time></trkpt><trkpt lat="24.36638041365108" lon="120.66345645634794"><ele>84.0</ele><time>2026-03-22T09:24:27Z</time></trkpt><trkpt lat="24.366620960953693" lon="120.6635041773999"><ele>84.0</ele><time>2026-03-22T09:24:28Z</time></trkpt><trkpt lat="24.366864203673497" lon="120.66355231541199"><ele>84.0</ele><time>2026-03-22T09:24:29Z</time></trkpt><trkpt lat="24.367108744519783" lon="120.66360065174729"><ele>85.0</ele><time>2026-03-22T09:24:30Z</time></trkpt><trkpt lat="24.36735384087636" lon="120.66364844778306"><ele>86.0</ele><time>2026-03-22T09:24:31Z</time></trkpt><trkpt lat="24.367597154182434" lon="120.66369584217287"><ele>86.0</ele><time>2026-03-22T09:24:32Z</time></trkpt><trkpt lat="24.36783871951047" lon="120.66374324116612"><ele>86.0</ele><time>2026-03-22T09:24:33Z</time></trkpt><trkpt lat="24.36807840341291" lon="120.66379053693916"><ele>87.5</ele><time>2026-03-22T09:24:34Z</time></trkpt><trkpt lat="24.368316548520728" lon="120.66383736200675"><ele>89.0</ele><time>2026-03-22T09:24:35Z</time></trkpt><trkpt lat="24.368553502683838" lon="120.66388430662795"><ele>89.0</ele><time>2026-03-22T09:24:36Z</time></trkpt><trkpt lat="24.36879075049658" lon="120.66392942448"><ele>89.0</ele><time>2026-03-22T09:24:37Z</time></trkpt><trkpt lat="24.36903033874707" lon="120.66397548202578"><ele>87.5</ele><time>2026-03-22T09:24:38Z</time></trkpt><trkpt lat="24.369272690889776" lon="120.66402257866692"><ele>86.0</ele><time>2026-03-22T09:24:39Z</time></trkpt><trkpt lat="24.36951646888376" lon="120.66406940597221"><ele>85.0</ele><time>2026-03-22T09:24:40Z</time></trkpt><trkpt lat="24.369761797468563" lon="120.66411822530492"><ele>84.0</ele><time>2026-03-22T09:24:41Z</time></trkpt><trkpt lat="24.3700054358235" lon="120.66416733473754"><ele>84.0</ele><time>2026-03-22T09:24:42Z</time></trkpt><trkpt lat="24.370248512918877" lon="120.66421448744275"><ele>84.0</ele><time>2026-03-22T09:24:43Z</time></trkpt><trkpt lat="24.370493292775304" lon="120.66426289311308"><ele>82.5</ele><time>2026-03-22T09:24:44Z</time></trkpt><trkpt lat="24.370741743232227" lon="120.66431088256013"><ele>81.0</ele><time>2026-03-22T09:24:45Z</time></trkpt><trkpt lat="24.370992485809932" lon="120.66435866646039"><ele>81.0</ele><time>2026-03-22T09:24:46Z</time></trkpt><trkpt lat="24.37124657192749" lon="120.66440729789493"><ele>81.0</ele><time>2026-03-22T09:24:47Z</time></trkpt><trkpt lat="24.371503257117855" lon="120.66445875105317"><ele>82.0</ele><time>2026-03-22T09:24:48Z</time></trkpt><trkpt lat="24.37176236753438" lon="120.66451173250427"><ele>83.0</ele><time>2026-03-22T09:24:49Z</time></trkpt><trkpt lat="24.372025548019145" lon="120.66456503386641"><ele>82.5</ele><time>2026-03-22T09:24:50Z</time></trkpt><trkpt lat="24.372291721446803" lon="120.66461733124801"><ele>82.0</ele><time>2026-03-22T09:24:51Z</time></trkpt><trkpt lat="24.372560925562514" lon="120.6646702341764"><ele>82.0</ele><time>2026-03-22T09:24:52Z</time></trkpt><trkpt lat="24.372833470120536" lon="120.66472322307018"><ele>82.0</ele><time>2026-03-22T09:24:53Z</time></trkpt><trkpt lat="24.373107364824364" lon="120.66477801909046"><ele>82.0</ele><time>2026-03-22T09:24:54Z</time></trkpt><trkpt lat="24.37338387844052" lon="120.66483271121169"><ele>82.0</ele><time>2026-03-22T09:24:55Z</time></trkpt><trkpt lat="24.37366258293162" lon="120.66488710637537"><ele>82.0</ele><time>2026-03-22T09:24:56Z</time></trkpt><trkpt lat="24.373943756714592" lon="120.66494115576187"><ele>82.0</ele><time>2026-03-22T09:24:57Z</time></trkpt><trkpt lat="24.374226908283397" lon="120.66499505642928"><ele>82.0</ele><time>2026-03-22T09:24:58Z</time></trkpt><trkpt lat="24.374509925307354" lon="120.66505127872409"><ele>82.0</ele><time>2026-03-22T09:24:59Z</time></trkpt><trkpt lat="24.37478920343447" lon="120.66510689316532"><ele>79.5</ele><time>2026-03-22T09:25:00Z</time></trkpt><trkpt lat="24.37506961047283" lon="120.66516192429238"><ele>77.0</ele><time>2026-03-22T09:25:01Z</time></trkpt><trkpt lat="24.375348618209586" lon="120.66521572987736"><ele>78.0</ele><time>2026-03-22T09:25:02Z</time></trkpt><trkpt lat="24.375624889515027" lon="120.66527145468152"><ele>79.0</ele><time>2026-03-22T09:25:03Z</time></trkpt><trkpt lat="24.375899079087432" lon="120.6653279083262"><ele>79.0</ele><time>2026-03-22T09:25:04Z</time></trkpt><trkpt lat="24.37617245249074" lon="120.66538316374532"><ele>79.0</ele><time>2026-03-22T09:25:05Z</time></trkpt><trkpt lat="24.376443764404502" lon="120.66543870226717"><ele>79.5</ele><time>2026-03-22T09:25:06Z</time></trkpt><trkpt lat="24.37671239394645" lon="120.66549838352277"><ele>80.0</ele><time>2026-03-22T09:25:07Z</time></trkpt><trkpt lat="24.376979579960143" lon="120.66556132011176"><ele>78.5</ele><time>2026-03-22T09:25:08Z</time></trkpt><trkpt lat="24.377244358709852" lon="120.66562473196097"><ele>77.0</ele><time>2026-03-22T09:25:09Z</time></trkpt><trkpt lat="24.377507864031934" lon="120.66568859350392"><ele>77.0</ele><time>2026-03-22T09:25:10Z</time></trkpt><trkpt lat="24.377770261301077" lon="120.66575130022537"><ele>77.0</ele><time>2026-03-22T09:25:11Z</time></trkpt><trkpt lat="24.378032172069418" lon="120.66581294429653"><ele>77.5</ele><time>2026-03-22T09:25:12Z</time></trkpt><trkpt lat="24.378295857691178" lon="120.66587519795533"><ele>78.0</ele><time>2026-03-22T09:25:13Z</time></trkpt><trkpt lat="24.37856204421987" lon="120.66593750364433"><ele>78.0</ele><time>2026-03-22T09:25:14Z</time></trkpt><trkpt lat="24.378831937774976" lon="120.66600212255099"><ele>78.0</ele><time>2026-03-22T09:25:15Z</time></trkpt><trkpt lat="24.379105588827414" lon="120.66606993500288"><ele>79.0</ele><time>2026-03-22T09:25:16Z</time></trkpt><trkpt lat="24.379383223799543" lon="120.66614096773381"><ele>80.0</ele><time>2026-03-22T09:25:17Z</time></trkpt><trkpt lat="24.379663791525175" lon="120.66621597425598"><ele>82.5</ele><time>2026-03-22T09:25:18Z</time></trkpt><trkpt lat="24.3799505076851" lon="120.66628539725059"><ele>85.0</ele><time>2026-03-22T09:25:19.001Z</time></trkpt><trkpt lat="24.380242630288723" lon="120.6663464650641"><ele>83.0</ele><time>2026-03-22T09:25:20.001Z</time></trkpt><trkpt lat="24.380539329469" lon="120.66640253058662"><ele>81.0</ele><time>2026-03-22T09:25:21.001Z</time></trkpt><trkpt lat="24.38084034585179" lon="120.66645730032604"><ele>81.0</ele><time>2026-03-22T09:25:22.001Z</time></trkpt><trkpt lat="24.3811453727289" lon="120.66650954868781"><ele>81.0</ele><time>2026-03-22T09:25:23.001Z</time></trkpt><trkpt lat="24.381454155085095" lon="120.66656280501634"><ele>77.0</ele><time>2026-03-22T09:25:24.001Z</time></trkpt><trkpt lat="24.381763884586274" lon="120.66661307863338"><ele>73.0</ele><time>2026-03-22T09:25:25.001Z</time></trkpt><trkpt lat="24.382073123098984" lon="120.66666147294553"><ele>75.5</ele><time>2026-03-22T09:25:26.001Z</time></trkpt><trkpt lat="24.382378918046477" lon="120.6667085293145"><ele>78.0</ele><time>2026-03-22T09:25:27.001Z</time></trkpt><trkpt lat="24.382683351198686" lon="120.6667566198539"><ele>78.0</ele><time>2026-03-22T09:25:28.001Z</time></trkpt><trkpt lat="24.382981344174773" lon="120.66680482107635"><ele>78.0</ele><time>2026-03-22T09:25:29.001Z</time></trkpt><trkpt lat="24.383274589156862" lon="120.66685080481057"><ele>75.5</ele><time>2026-03-22T09:25:30.001Z</time></trkpt><trkpt lat="24.383559300101588" lon="120.66688944281793"><ele>73.0</ele><time>2026-03-22T09:25:31.001Z</time></trkpt><trkpt lat="24.38384167363957" lon="120.66692757384678"><ele>74.0</ele><time>2026-03-22T09:25:32.001Z</time></trkpt><trkpt lat="24.384116033362115" lon="120.6669671186947"><ele>75.0</ele><time>2026-03-22T09:25:33.001Z</time></trkpt><trkpt lat="24.384370858082494" lon="120.66701296069427"><ele>75.0</ele><time>2026-03-22T09:25:34.001Z</time></trkpt><trkpt lat="24.38461435447137" lon="120.66706210161169"><ele>75.0</ele><time>2026-03-22T09:25:35.001Z</time></trkpt><trkpt lat="24.384857743319685" lon="120.66711121792342"><ele>74.5</ele><time>2026-03-22T09:25:36.001Z</time></trkpt><trkpt lat="24.38509716251564" lon="120.6671595967583"><ele>74.0</ele><time>2026-03-22T09:25:37.001Z</time></trkpt><trkpt lat="24.38533310960837" lon="120.66720737927848"><ele>73.0</ele><time>2026-03-22T09:25:38.001Z</time></trkpt><trkpt lat="24.385565301251383" lon="120.66725308421832"><ele>72.0</ele><time>2026-03-22T09:25:39.001Z</time></trkpt><trkpt lat="24.385798042898266" lon="120.66729980157645"><ele>72.0</ele><time>2026-03-22T09:25:40.001Z</time></trkpt><trkpt lat="24.386031927174926" lon="120.66734461836208"><ele>72.0</ele><time>2026-03-22T09:25:41.001Z</time></trkpt><trkpt lat="24.38626732450365" lon="120.66738873365847"><ele>72.0</ele><time>2026-03-22T09:25:42.001Z</time></trkpt><trkpt lat="24.386503572473416" lon="120.6674364976139"><ele>72.0</ele><time>2026-03-22T09:25:43.001Z</time></trkpt><trkpt lat="24.386740372169772" lon="120.66748370091692"><ele>72.0</ele><time>2026-03-22T09:25:44.001Z</time></trkpt><trkpt lat="24.38697411727742" lon="120.66753174705538"><ele>72.0</ele><time>2026-03-22T09:25:45.001Z</time></trkpt><trkpt lat="24.387209645129516" lon="120.66757825875506"><ele>72.5</ele><time>2026-03-22T09:25:46.001Z</time></trkpt><trkpt lat="24.38744923601729" lon="120.66762633042984"><ele>73.0</ele><time>2026-03-22T09:25:47.001Z</time></trkpt><trkpt lat="24.387692010909422" lon="120.66767246929494"><ele>73.0</ele><time>2026-03-22T09:25:48.001Z</time></trkpt><trkpt lat="24.387937175578664" lon="120.66771950739418"><ele>73.0</ele><time>2026-03-22T09:25:49.001Z</time></trkpt><trkpt lat="24.388179494141742" lon="120.66776923762994"><ele>72.5</ele><time>2026-03-22T09:25:50.001Z</time></trkpt><trkpt lat="24.38842034668643" lon="120.66781680986371"><ele>72.0</ele><time>2026-03-22T09:25:51.001Z</time></trkpt><trkpt lat="24.388662905248005" lon="120.66786380872352"><ele>71.5</ele><time>2026-03-22T09:25:52.001Z</time></trkpt><trkpt lat="24.388908386750856" lon="120.66791212291504"><ele>71.0</ele><time>2026-03-22T09:25:53.001Z</time></trkpt><trkpt lat="24.38915565038418" lon="120.6679616531952"><ele>71.0</ele><time>2026-03-22T09:25:54.001Z</time></trkpt><trkpt lat="24.389404861577578" lon="120.66801623199407"><ele>71.0</ele><time>2026-03-22T09:25:55.001Z</time></trkpt><trkpt lat="24.389655376621082" lon="120.66807976507211"><ele>72.0</ele><time>2026-03-22T09:25:56.001Z</time></trkpt><trkpt lat="24.3899121534493" lon="120.66814610286049"><ele>73.0</ele><time>2026-03-22T09:25:57.001Z</time></trkpt><trkpt lat="24.39017345649215" lon="120.66820329930731"><ele>73.0</ele><time>2026-03-22T09:25:58.001Z</time></trkpt><trkpt lat="24.390438431073516" lon="120.66825652387955"><ele>73.0</ele><time>2026-03-22T09:25:59.001Z</time></trkpt><trkpt lat="24.3907066107848" lon="120.66830966263716"><ele>71.5</ele><time>2026-03-22T09:26:00.001Z</time></trkpt><trkpt lat="24.390979612282436" lon="120.66836212339847"><ele>70.0</ele><time>2026-03-22T09:26:01.001Z</time></trkpt><trkpt lat="24.39125423080316" lon="120.66841613447484"><ele>69.5</ele><time>2026-03-22T09:26:02.001Z</time></trkpt><trkpt lat="24.391531581602685" lon="120.6684709538539"><ele>69.0</ele><time>2026-03-22T09:26:03.001Z</time></trkpt><trkpt lat="24.391811396386426" lon="120.66852678986068"><ele>69.0</ele><time>2026-03-22T09:26:04.001Z</time></trkpt><trkpt lat="24.392093280568005" lon="120.66858200675149"><ele>69.0</ele><time>2026-03-22T09:26:05.001Z</time></trkpt><trkpt lat="24.392374559513783" lon="120.66863862131574"><ele>68.5</ele><time>2026-03-22T09:26:06.001Z</time></trkpt><trkpt lat="24.392652979777523" lon="120.66869435767222"><ele>68.0</ele><time>2026-03-22T09:26:07.001Z</time></trkpt><trkpt lat="24.39293129872323" lon="120.66874730565031"><ele>68.5</ele><time>2026-03-22T09:26:08.001Z</time></trkpt><trkpt lat="24.393209997229008" lon="120.66880175951314"><ele>69.0</ele><time>2026-03-22T09:26:09.001Z</time></trkpt><trkpt lat="24.39349211939473" lon="120.66885682332116"><ele>69.0</ele><time>2026-03-22T09:26:10.001Z</time></trkpt><trkpt lat="24.39377250626347" lon="120.66891313466978"><ele>69.0</ele><time>2026-03-22T09:26:11.001Z</time></trkpt><trkpt lat="24.394053510365694" lon="120.66896987390909"><ele>69.0</ele><time>2026-03-22T09:26:12.001Z</time></trkpt><trkpt lat="24.394333286652703" lon="120.66902700516226"><ele>69.0</ele><time>2026-03-22T09:26:13.001Z</time></trkpt><trkpt lat="24.394613405016184" lon="120.669082846232"><ele>67.0</ele><time>2026-03-22T09:26:14.001Z</time></trkpt><trkpt lat="24.39489309907941" lon="120.66913708333239"><ele>65.0</ele><time>2026-03-22T09:26:15.001Z</time></trkpt><trkpt lat="24.39517436358444" lon="120.6691915233701"><ele>65.0</ele><time>2026-03-22T09:26:16.001Z</time></trkpt><trkpt lat="24.395457700194996" lon="120.66924795715124"><ele>65.0</ele><time>2026-03-22T09:26:17Z</time></trkpt><trkpt lat="24.395742606939212" lon="120.66930468727718"><ele>64.5</ele><time>2026-03-22T09:26:18Z</time></trkpt><trkpt lat="24.39602940608924" lon="120.66936076450435"><ele>64.0</ele><time>2026-03-22T09:26:19Z</time></trkpt><trkpt lat="24.39631750546587" lon="120.66941731583911"><ele>65.0</ele><time>2026-03-22T09:26:20Z</time></trkpt><trkpt lat="24.396605988925337" lon="120.66947492753667"><ele>66.0</ele><time>2026-03-22T09:26:21Z</time></trkpt><trkpt lat="24.39689644031887" lon="120.66953195602963"><ele>64.5</ele><time>2026-03-22T09:26:22Z</time></trkpt><trkpt lat="24.397188256237275" lon="120.66959002422512"><ele>63.0</ele><time>2026-03-22T09:26:23Z</time></trkpt><trkpt lat="24.397481208312374" lon="120.66964681356268"><ele>63.0</ele><time>2026-03-22T09:26:24Z</time></trkpt><trkpt lat="24.397773102744328" lon="120.66970517431498"><ele>63.0</ele><time>2026-03-22T09:26:25Z</time></trkpt><trkpt lat="24.398062666525018" lon="120.66976292206132"><ele>63.5</ele><time>2026-03-22T09:26:26Z</time></trkpt><trkpt lat="24.398350432266778" lon="120.66981929149605"><ele>64.0</ele><time>2026-03-22T09:26:27Z</time></trkpt><trkpt lat="24.398637900085358" lon="120.66987510200508"><ele>64.0</ele><time>2026-03-22T09:26:28Z</time></trkpt><trkpt lat="24.398925139613475" lon="120.66993251133043"><ele>64.0</ele><time>2026-03-22T09:26:29Z</time></trkpt><trkpt lat="24.399213674847232" lon="120.66999135681462"><ele>64.0</ele><time>2026-03-22T09:26:30Z</time></trkpt><trkpt lat="24.39950444081035" lon="120.67004677352139"><ele>64.0</ele><time>2026-03-22T09:26:31Z</time></trkpt><trkpt lat="24.399796227160227" lon="120.6701027097067"><ele>63.5</ele><time>2026-03-22T09:26:32Z</time></trkpt><trkpt lat="24.400088949498066" lon="120.67016097734152"><ele>63.0</ele><time>2026-03-22T09:26:33Z</time></trkpt><trkpt lat="24.400381841390807" lon="120.67021952300507"><ele>61.0</ele><time>2026-03-22T09:26:34Z</time></trkpt><trkpt lat="24.400676286534587" lon="120.67028042897306"><ele>59.0</ele><time>2026-03-22T09:26:35Z</time></trkpt><trkpt lat="24.40097238312043" lon="120.67034128064807"><ele>59.0</ele><time>2026-03-22T09:26:36Z</time></trkpt><trkpt lat="24.401268502424983" lon="120.67040404126064"><ele>59.0</ele><time>2026-03-22T09:26:37Z</time></trkpt><trkpt lat="24.401565800090648" lon="120.67046840904503"><ele>60.0</ele><time>2026-03-22T09:26:38Z</time></trkpt><trkpt lat="24.401862366601282" lon="120.67053299903763"><ele>61.0</ele><time>2026-03-22T09:26:39Z</time></trkpt><trkpt lat="24.402157884049537" lon="120.67059641968626"><ele>62.0</ele><time>2026-03-22T09:26:40Z</time></trkpt><trkpt lat="24.402455434414723" lon="120.67066054662324"><ele>63.0</ele><time>2026-03-22T09:26:41Z</time></trkpt><trkpt lat="24.40275241154582" lon="120.67072876807244"><ele>62.5</ele><time>2026-03-22T09:26:42Z</time></trkpt><trkpt lat="24.403049894272108" lon="120.67079876476524"><ele>62.0</ele><time>2026-03-22T09:26:43Z</time></trkpt><trkpt lat="24.403345187573983" lon="120.67086698406852"><ele>62.0</ele><time>2026-03-22T09:26:44Z</time></trkpt><trkpt lat="24.403638381700816" lon="120.67093800391828"><ele>62.0</ele><time>2026-03-22T09:26:45Z</time></trkpt><trkpt lat="24.403930313928186" lon="120.67101193428115"><ele>60.5</ele><time>2026-03-22T09:26:46Z</time></trkpt><trkpt lat="24.404222406056338" lon="120.67108569117045"><ele>59.0</ele><time>2026-03-22T09:26:47Z</time></trkpt><trkpt lat="24.40451291911761" lon="120.67116103915576"><ele>58.0</ele><time>2026-03-22T09:26:48Z</time></trkpt><trkpt lat="24.404801793627133" lon="120.67123703561082"><ele>57.0</ele><time>2026-03-22T09:26:49Z</time></trkpt><trkpt lat="24.405089750610315" lon="120.67131512545575"><ele>57.0</ele><time>2026-03-22T09:26:50Z</time></trkpt><trkpt lat="24.40537912809054" lon="120.67139518181493"><ele>57.0</ele><time>2026-03-22T09:26:51Z</time></trkpt><trkpt lat="24.40566521670377" lon="120.67147848986195"><ele>57.5</ele><time>2026-03-22T09:26:52Z</time></trkpt><trkpt lat="24.405952010360526" lon="120.67156192330171"><ele>58.0</ele><time>2026-03-22T09:26:53Z</time></trkpt><trkpt lat="24.40623882856978" lon="120.67164283283466"><ele>57.0</ele><time>2026-03-22T09:26:54Z</time></trkpt><trkpt lat="24.40652541097256" lon="120.6717270483209"><ele>56.0</ele><time>2026-03-22T09:26:55Z</time></trkpt><trkpt lat="24.406810814386716" lon="120.67181556376644"><ele>56.0</ele><time>2026-03-22T09:26:56Z</time></trkpt><trkpt lat="24.407096982697613" lon="120.67190568352565"><ele>56.0</ele><time>2026-03-22T09:26:57Z</time></trkpt><trkpt lat="24.407384844617507" lon="120.6719955753771"><ele>56.0</ele><time>2026-03-22T09:26:58Z</time></trkpt><trkpt lat="24.407673720754598" lon="120.67208884655503"><ele>56.0</ele><time>2026-03-22T09:26:59Z</time></trkpt><trkpt lat="24.407961677134768" lon="120.67218550853674"><ele>56.0</ele><time>2026-03-22T09:27:00Z</time></trkpt><trkpt lat="24.40824800232076" lon="120.67228788329267"><ele>56.0</ele><time>2026-03-22T09:27:01Z</time></trkpt><trkpt lat="24.408534661980706" lon="120.67239178641285"><ele>56.0</ele><time>2026-03-22T09:27:02Z</time></trkpt><trkpt lat="24.40882001997109" lon="120.67249926350102"><ele>56.0</ele><time>2026-03-22T09:27:03Z</time></trkpt><trkpt lat="24.409106840770807" lon="120.67260402687235"><ele>54.5</ele><time>2026-03-22T09:27:04Z</time></trkpt><trkpt lat="24.409391528593783" lon="120.67271116161163"><ele>53.0</ele><time>2026-03-22T09:27:05Z</time></trkpt><trkpt lat="24.40967770457696" lon="120.67282706103607"><ele>53.0</ele><time>2026-03-22T09:27:06Z</time></trkpt><trkpt lat="24.409959428143686" lon="120.67294768705503"><ele>53.0</ele><time>2026-03-22T09:27:07Z</time></trkpt><trkpt lat="24.410241118124077" lon="120.67306839516536"><ele>54.0</ele><time>2026-03-22T09:27:08Z</time></trkpt><trkpt lat="24.4105194192898" lon="120.67319174468787"><ele>55.0</ele><time>2026-03-22T09:27:09Z</time></trkpt><trkpt lat="24.41079551379517" lon="120.67332784606955"><ele>55.0</ele><time>2026-03-22T09:27:10Z</time></trkpt><trkpt lat="24.41107077769167" lon="120.67346307855128"><ele>55.0</ele><time>2026-03-22T09:27:11Z</time></trkpt><trkpt lat="24.41134477923071" lon="120.6736041998904"><ele>56.0</ele><time>2026-03-22T09:27:12Z</time></trkpt><trkpt lat="24.411616671794405" lon="120.67375020692933"><ele>57.0</ele><time>2026-03-22T09:27:13Z</time></trkpt><trkpt lat="24.411890046046373" lon="120.67389358153908"><ele>56.5</ele><time>2026-03-22T09:27:14Z</time></trkpt><trkpt lat="24.412164874395277" lon="120.67403825379535"><ele>56.0</ele><time>2026-03-22T09:27:15Z</time></trkpt><trkpt lat="24.412437443479092" lon="120.67418563291469"><ele>56.0</ele><time>2026-03-22T09:27:16Z</time></trkpt><trkpt lat="24.41270851910343" lon="120.67433456480676"><ele>56.0</ele><time>2026-03-22T09:27:17Z</time></trkpt><trkpt lat="24.412976876453456" lon="120.67448598486679"><ele>55.5</ele><time>2026-03-22T09:27:18Z</time></trkpt><trkpt lat="24.413246551718576" lon="120.67463945580275"><ele>55.0</ele><time>2026-03-22T09:27:19Z</time></trkpt><trkpt lat="24.41351715664067" lon="120.6747950733074"><ele>55.0</ele><time>2026-03-22T09:27:20Z</time></trkpt><trkpt lat="24.413785833895652" lon="120.67495196902365"><ele>55.0</ele><time>2026-03-22T09:27:21Z</time></trkpt><trkpt lat="24.41405577572657" lon="120.67511023373159"><ele>53.5</ele><time>2026-03-22T09:27:22Z</time></trkpt><trkpt lat="24.41432459994729" lon="120.67527126765775"><ele>52.0</ele><time>2026-03-22T09:27:23Z</time></trkpt><trkpt lat="24.414593117816292" lon="120.67543503869123"><ele>50.0</ele><time>2026-03-22T09:27:24Z</time></trkpt><trkpt lat="24.414859134603343" lon="120.6755981830903"><ele>48.0</ele><time>2026-03-22T09:27:25Z</time></trkpt><trkpt lat="24.41512496227787" lon="120.67576572580094"><ele>48.0</ele><time>2026-03-22T09:27:26Z</time></trkpt><trkpt lat="24.4153872967662" lon="120.67593406528349"><ele>48.0</ele><time>2026-03-22T09:27:27Z</time></trkpt><trkpt lat="24.415651401681735" lon="120.67610102624074"><ele>50.0</ele><time>2026-03-22T09:27:28Z</time></trkpt><trkpt lat="24.415913622515422" lon="120.67627016554658"><ele>52.0</ele><time>2026-03-22T09:27:29Z</time></trkpt><trkpt lat="24.41617624470622" lon="120.67644057595896"><ele>52.0</ele><time>2026-03-22T09:27:30Z</time></trkpt><trkpt lat="24.416438479368576" lon="120.67660998482222"><ele>52.0</ele><time>2026-03-22T09:27:31Z</time></trkpt><trkpt lat="24.416700083267717" lon="120.67677883462643"><ele>51.5</ele><time>2026-03-22T09:27:32Z</time></trkpt><trkpt lat="24.416959265104524" lon="120.67694814811543"><ele>51.0</ele><time>2026-03-22T09:27:33.001Z</time></trkpt><trkpt lat="24.41721662889608" lon="120.6771203453502"><ele>52.5</ele><time>2026-03-22T09:27:34.001Z</time></trkpt><trkpt lat="24.417474169731065" lon="120.67729310784145"><ele>54.0</ele><time>2026-03-22T09:27:35.001Z</time></trkpt><trkpt lat="24.417734729488835" lon="120.6774653519155"><ele>52.5</ele><time>2026-03-22T09:27:36.001Z</time></trkpt><trkpt lat="24.417995470718594" lon="120.67763989003753"><ele>51.0</ele><time>2026-03-22T09:27:37.001Z</time></trkpt><trkpt lat="24.418256675126162" lon="120.67781511170392"><ele>51.0</ele><time>2026-03-22T09:27:38.001Z</time></trkpt><trkpt lat="24.418516331684117" lon="120.67799278075259"><ele>51.0</ele><time>2026-03-22T09:27:39.001Z</time></trkpt><trkpt lat="24.418773157732364" lon="120.67816863320573"><ele>52.5</ele><time>2026-03-22T09:27:40.001Z</time></trkpt><trkpt lat="24.419029786271384" lon="120.67834072572612"><ele>54.0</ele><time>2026-03-22T09:27:41.001Z</time></trkpt><trkpt lat="24.419286994661363" lon="120.67851273157785"><ele>54.0</ele><time>2026-03-22T09:27:42.001Z</time></trkpt><trkpt lat="24.419544162935985" lon="120.67868520260085"><ele>54.0</ele><time>2026-03-22T09:27:43.001Z</time></trkpt><trkpt lat="24.41980116460285" lon="120.67885969124991"><ele>54.0</ele><time>2026-03-22T09:27:44.001Z</time></trkpt><trkpt lat="24.42005907372564" lon="120.6790350463048"><ele>54.0</ele><time>2026-03-22T09:27:45.001Z</time></trkpt><trkpt lat="24.420317556221363" lon="120.67920748761462"><ele>53.5</ele><time>2026-03-22T09:27:46.001Z</time></trkpt><trkpt lat="24.420578430281406" lon="120.67937881829396"><ele>53.0</ele><time>2026-03-22T09:27:47.001Z</time></trkpt><trkpt lat="24.420839254112053" lon="120.67954927794648"><ele>53.0</ele><time>2026-03-22T09:27:48.001Z</time></trkpt><trkpt lat="24.421101727476373" lon="120.67971871297999"><ele>53.0</ele><time>2026-03-22T09:27:49.001Z</time></trkpt><trkpt lat="24.421365380451945" lon="120.67988707364229"><ele>54.5</ele><time>2026-03-22T09:27:50.001Z</time></trkpt><trkpt lat="24.421629813852864" lon="120.68005309504704"><ele>56.0</ele><time>2026-03-22T09:27:51.001Z</time></trkpt><trkpt lat="24.421895749159905" lon="120.68021639516213"><ele>54.0</ele><time>2026-03-22T09:27:52.001Z</time></trkpt><trkpt lat="24.422161616031186" lon="120.6803789837197"><ele>52.0</ele><time>2026-03-22T09:27:53.001Z</time></trkpt><trkpt lat="24.42243016400329" lon="120.68054011170426"><ele>52.0</ele><time>2026-03-22T09:27:54.001Z</time></trkpt><trkpt lat="24.4226994571757" lon="120.68069797165887"><ele>52.0</ele><time>2026-03-22T09:27:55.001Z</time></trkpt><trkpt lat="24.422969760979132" lon="120.6808547845024"><ele>52.5</ele><time>2026-03-22T09:27:56.001Z</time></trkpt><trkpt lat="24.42324172663602" lon="120.68100771614284"><ele>53.0</ele><time>2026-03-22T09:27:57.001Z</time></trkpt><trkpt lat="24.423516973478847" lon="120.68115565201924"><ele>53.0</ele><time>2026-03-22T09:27:58.001Z</time></trkpt><trkpt lat="24.423793319290596" lon="120.6813005585766"><ele>53.0</ele><time>2026-03-22T09:27:59.001Z</time></trkpt><trkpt lat="24.42407014236041" lon="120.68144323242117"><ele>53.0</ele><time>2026-03-22T09:28:00.001Z</time></trkpt><trkpt lat="24.42435001689807" lon="120.68158187279289"><ele>53.0</ele><time>2026-03-22T09:28:01.001Z</time></trkpt><trkpt lat="24.42463254388327" lon="120.68171750419471"><ele>54.0</ele><time>2026-03-22T09:28:02.001Z</time></trkpt><trkpt lat="24.424912230144383" lon="120.68184803755403"><ele>55.0</ele><time>2026-03-22T09:28:03.001Z</time></trkpt><trkpt lat="24.425193230562567" lon="120.68197198150361"><ele>55.0</ele><time>2026-03-22T09:28:04.001Z</time></trkpt><trkpt lat="24.425476437810328" lon="120.68208948685263"><ele>55.0</ele><time>2026-03-22T09:28:05.001Z</time></trkpt><trkpt lat="24.425762982002137" lon="120.68220331673389"><ele>58.0</ele><time>2026-03-22T09:28:06.001Z</time></trkpt><trkpt lat="24.42605154161951" lon="120.68231104174176"><ele>61.0</ele><time>2026-03-22T09:28:07.001Z</time></trkpt><trkpt lat="24.42633930445811" lon="120.68240997656065"><ele>61.5</ele><time>2026-03-22T09:28:08.001Z</time></trkpt><trkpt lat="24.42662940653193" lon="120.68249851712224"><ele>62.0</ele><time>2026-03-22T09:28:09.001Z</time></trkpt><trkpt lat="24.426920958927923" lon="120.68258270064878"><ele>65.5</ele><time>2026-03-22T09:28:10.001Z</time></trkpt><trkpt lat="24.427211766940186" lon="120.68266346901449"><ele>69.0</ele><time>2026-03-22T09:28:11.001Z</time></trkpt><trkpt lat="24.42750157211337" lon="120.68273997123823"><ele>70.0</ele><time>2026-03-22T09:28:12.001Z</time></trkpt><trkpt lat="24.427792514564416" lon="120.68281614515827"><ele>71.0</ele><time>2026-03-22T09:28:13.001Z</time></trkpt><trkpt lat="24.42808347676649" lon="120.68289017080556"><ele>71.0</ele><time>2026-03-22T09:28:14.001Z</time></trkpt><trkpt lat="24.42837136853993" lon="120.68295574363061"><ele>71.0</ele><time>2026-03-22T09:28:15.001Z</time></trkpt><trkpt lat="24.428658593380106" lon="120.68301604595639"><ele>69.5</ele><time>2026-03-22T09:28:16.001Z</time></trkpt><trkpt lat="24.428945015577835" lon="120.68307019006613"><ele>68.0</ele><time>2026-03-22T09:28:17.001Z</time></trkpt><trkpt lat="24.42923023711372" lon="120.68311998819256"><ele>68.0</ele><time>2026-03-22T09:28:18.001Z</time></trkpt><trkpt lat="24.429514326599243" lon="120.68316477254344"><ele>68.0</ele><time>2026-03-22T09:28:19.001Z</time></trkpt><trkpt lat="24.429798922770367" lon="120.68320355012894"><ele>66.0</ele><time>2026-03-22T09:28:20.001Z</time></trkpt><trkpt lat="24.43008562380868" lon="120.68323715298096"><ele>64.0</ele><time>2026-03-22T09:28:21.001Z</time></trkpt><trkpt lat="24.43037759325263" lon="120.68326583394663"><ele>59.5</ele><time>2026-03-22T09:28:22.001Z</time></trkpt><trkpt lat="24.430673238588533" lon="120.68328936644227"><ele>55.0</ele><time>2026-03-22T09:28:23Z</time></trkpt><trkpt lat="24.430972262709762" lon="120.6833075797504"><ele>55.0</ele><time>2026-03-22T09:28:24Z</time></trkpt><trkpt lat="24.43127511810006" lon="120.68332122183061"><ele>55.0</ele><time>2026-03-22T09:28:25Z</time></trkpt><trkpt lat="24.431582424017016" lon="120.68333021463481"><ele>55.0</ele><time>2026-03-22T09:28:26Z</time></trkpt><trkpt lat="24.43188821415975" lon="120.68333313085878"><ele>55.0</ele><time>2026-03-22T09:28:27Z</time></trkpt><trkpt lat="24.432191055457256" lon="120.68333052142204"><ele>53.5</ele><time>2026-03-22T09:28:28Z</time></trkpt><trkpt lat="24.43249396305069" lon="120.6833238473216"><ele>52.0</ele><time>2026-03-22T09:28:29Z</time></trkpt><trkpt lat="24.432794775542444" lon="120.68331131727845"><ele>49.0</ele><time>2026-03-22T09:28:30Z</time></trkpt><trkpt lat="24.43309424702842" lon="120.68329516000732"><ele>46.0</ele><time>2026-03-22T09:28:31Z</time></trkpt><trkpt lat="24.433390493039457" lon="120.68326966616705"><ele>46.0</ele><time>2026-03-22T09:28:32Z</time></trkpt><trkpt lat="24.433686504712817" lon="120.6832408639695"><ele>46.0</ele><time>2026-03-22T09:28:33Z</time></trkpt><trkpt lat="24.433979323905234" lon="120.68320757140546"><ele>45.5</ele><time>2026-03-22T09:28:34Z</time></trkpt><trkpt lat="24.434269591042963" lon="120.68317123264592"><ele>45.0</ele><time>2026-03-22T09:28:35Z</time></trkpt><trkpt lat="24.434557420848023" lon="120.68313270787313"><ele>43.0</ele><time>2026-03-22T09:28:36Z</time></trkpt><trkpt lat="24.43483844605711" lon="120.683090440207"><ele>41.0</ele><time>2026-03-22T09:28:37Z</time></trkpt><trkpt lat="24.43511489041924" lon="120.68304281483067"><ele>41.0</ele><time>2026-03-22T09:28:38Z</time></trkpt><trkpt lat="24.43538736622038" lon="120.6829926608856"><ele>41.0</ele><time>2026-03-22T09:28:39Z</time></trkpt><trkpt lat="24.43565466667944" lon="120.68294144141807"><ele>42.5</ele><time>2026-03-22T09:28:40Z</time></trkpt><trkpt lat="24.435915643232427" lon="120.68288811987352"><ele>44.0</ele><time>2026-03-22T09:28:41Z</time></trkpt><trkpt lat="24.436177345622337" lon="120.68283305889162"><ele>46.0</ele><time>2026-03-22T09:28:42Z</time></trkpt><trkpt lat="24.43643588962705" lon="120.68277556661435"><ele>48.0</ele><time>2026-03-22T09:28:43Z</time></trkpt><trkpt lat="24.436693303293378" lon="120.6827170731738"><ele>48.0</ele><time>2026-03-22T09:28:44Z</time></trkpt><trkpt lat="24.43694711613091" lon="120.68265502868411"><ele>48.0</ele><time>2026-03-22T09:28:45Z</time></trkpt><trkpt lat="24.4371993121052" lon="120.68259145228947"><ele>50.5</ele><time>2026-03-22T09:28:46Z</time></trkpt><trkpt lat="24.43744552058725" lon="120.6825283959575"><ele>53.0</ele><time>2026-03-22T09:28:47Z</time></trkpt><trkpt lat="24.437681994291648" lon="120.68246600699712"><ele>53.0</ele><time>2026-03-22T09:28:48Z</time></trkpt><trkpt lat="24.437918206768295" lon="120.68240221659033"><ele>53.0</ele><time>2026-03-22T09:28:49Z</time></trkpt><trkpt lat="24.438150588686067" lon="120.68233597024667"><ele>54.0</ele><time>2026-03-22T09:28:50Z</time></trkpt><trkpt lat="24.438384041844454" lon="120.68227089916412"><ele>55.0</ele><time>2026-03-22T09:28:51Z</time></trkpt><trkpt lat="24.43861494777353" lon="120.68220424761572"><ele>52.5</ele><time>2026-03-22T09:28:52Z</time></trkpt><trkpt lat="24.438846558175687" lon="120.6821365551566"><ele>50.0</ele><time>2026-03-22T09:28:53Z</time></trkpt><trkpt lat="24.439079457203366" lon="120.68206697335968"><ele>50.0</ele><time>2026-03-22T09:28:54Z</time></trkpt><trkpt lat="24.43931208844162" lon="120.6819953196873"><ele>50.0</ele><time>2026-03-22T09:28:55Z</time></trkpt><trkpt lat="24.439545734424133" lon="120.68192125506846"><ele>52.0</ele><time>2026-03-22T09:28:56Z</time></trkpt><trkpt lat="24.439781118096107" lon="120.68184780799363"><ele>54.0</ele><time>2026-03-22T09:28:57Z</time></trkpt><trkpt lat="24.440014443131982" lon="120.68177484292696"><ele>54.0</ele><time>2026-03-22T09:28:58Z</time></trkpt><trkpt lat="24.44024503456898" lon="120.68170112121778"><ele>54.0</ele><time>2026-03-22T09:28:59Z</time></trkpt><trkpt lat="24.440476474163287" lon="120.68162517201434"><ele>56.0</ele><time>2026-03-22T09:29:00Z</time></trkpt><trkpt lat="24.44070813117399" lon="120.68154826012565"><ele>58.0</ele><time>2026-03-22T09:29:01Z</time></trkpt><trkpt lat="24.440939737399034" lon="120.68147134977319"><ele>58.0</ele><time>2026-03-22T09:29:02Z</time></trkpt><trkpt lat="24.44117201945007" lon="120.68139377762064"><ele>58.0</ele><time>2026-03-22T09:29:03Z</time></trkpt><trkpt lat="24.441405342211546" lon="120.68131560790533"><ele>54.5</ele><time>2026-03-22T09:29:04Z</time></trkpt><trkpt lat="24.44163643846035" lon="120.68123465303808"><ele>51.0</ele><time>2026-03-22T09:29:05Z</time></trkpt><trkpt lat="24.44186521072709" lon="120.68115813134055"><ele>53.5</ele><time>2026-03-22T09:29:06Z</time></trkpt><trkpt lat="24.442093370040848" lon="120.68108237495618"><ele>56.0</ele><time>2026-03-22T09:29:07Z</time></trkpt><trkpt lat="24.442319703859216" lon="120.68100598756969"><ele>58.0</ele><time>2026-03-22T09:29:08Z</time></trkpt><trkpt lat="24.44254560398096" lon="120.68092858739759"><ele>60.0</ele><time>2026-03-22T09:29:09Z</time></trkpt><trkpt lat="24.442769550185645" lon="120.68085189182706"><ele>64.5</ele><time>2026-03-22T09:29:10Z</time></trkpt><trkpt lat="24.442990737244973" lon="120.68077886337241"><ele>69.0</ele><time>2026-03-22T09:29:11Z</time></trkpt><trkpt lat="24.443209884737318" lon="120.6807046276852"><ele>69.0</ele><time>2026-03-22T09:29:12Z</time></trkpt><trkpt lat="24.443426868285588" lon="120.68063155962695"><ele>69.0</ele><time>2026-03-22T09:29:13Z</time></trkpt><trkpt lat="24.443645951925884" lon="120.68055837171916"><ele>70.5</ele><time>2026-03-22T09:29:14Z</time></trkpt><trkpt lat="24.44386933399594" lon="120.68048240975259"><ele>72.0</ele><time>2026-03-22T09:29:15Z</time></trkpt><trkpt lat="24.444091816680615" lon="120.6804070636327"><ele>72.0</ele><time>2026-03-22T09:29:16Z</time></trkpt><trkpt lat="24.44431804531108" lon="120.68033187403068"><ele>72.0</ele><time>2026-03-22T09:29:17Z</time></trkpt><trkpt lat="24.44454576791909" lon="120.68025716840393"><ele>71.0</ele><time>2026-03-22T09:29:18Z</time></trkpt><trkpt lat="24.44477510702859" lon="120.68018686663062"><ele>70.0</ele><time>2026-03-22T09:29:19Z</time></trkpt><trkpt lat="24.445008546895625" lon="120.68011414363532"><ele>70.0</ele><time>2026-03-22T09:29:20Z</time></trkpt><trkpt lat="24.44524487609888" lon="120.68004204490461"><ele>70.0</ele><time>2026-03-22T09:29:21Z</time></trkpt><trkpt lat="24.445484087770563" lon="120.67996722990627"><ele>65.0</ele><time>2026-03-22T09:29:22Z</time></trkpt><trkpt lat="24.445726219569405" lon="120.67989339940017"><ele>60.0</ele><time>2026-03-22T09:29:23Z</time></trkpt><trkpt lat="24.445971889721083" lon="120.67982057675685"><ele>60.0</ele><time>2026-03-22T09:29:24Z</time></trkpt><trkpt lat="24.44622165961793" lon="120.67974663191346"><ele>60.0</ele><time>2026-03-22T09:29:25Z</time></trkpt><trkpt lat="24.446473485167424" lon="120.67967413101965"><ele>59.5</ele><time>2026-03-22T09:29:26Z</time></trkpt><trkpt lat="24.446727694889237" lon="120.67960194387028"><ele>59.0</ele><time>2026-03-22T09:29:27Z</time></trkpt><trkpt lat="24.446985039750924" lon="120.67953171816576"><ele>60.5</ele><time>2026-03-22T09:29:28Z</time></trkpt><trkpt lat="24.447244818061925" lon="120.67946476350632"><ele>62.0</ele><time>2026-03-22T09:29:29Z</time></trkpt><trkpt lat="24.447508945649773" lon="120.67939990981293"><ele>62.0</ele><time>2026-03-22T09:29:30Z</time></trkpt><trkpt lat="24.447775420884142" lon="120.67933570575352"><ele>62.0</ele><time>2026-03-22T09:29:31Z</time></trkpt><trkpt lat="24.448041933214014" lon="120.67927119213753"><ele>64.0</ele><time>2026-03-22T09:29:32Z</time></trkpt><trkpt lat="24.448306376307748" lon="120.67921092416752"><ele>66.0</ele><time>2026-03-22T09:29:33Z</time></trkpt><trkpt lat="24.448568365796604" lon="120.67915359920086"><ele>66.0</ele><time>2026-03-22T09:29:34Z</time></trkpt><trkpt lat="24.448827842572115" lon="120.67910011923941"><ele>66.0</ele><time>2026-03-22T09:29:35Z</time></trkpt><trkpt lat="24.44908816997884" lon="120.67904905887863"><ele>66.0</ele><time>2026-03-22T09:29:36Z</time></trkpt><trkpt lat="24.44934853105106" lon="120.67899888825404"><ele>66.0</ele><time>2026-03-22T09:29:37Z</time></trkpt><trkpt lat="24.449611430817594" lon="120.67895069373999"><ele>73.0</ele><time>2026-03-22T09:29:38Z</time></trkpt><trkpt lat="24.44987801394584" lon="120.67890330513956"><ele>80.0</ele><time>2026-03-22T09:29:39Z</time></trkpt><trkpt lat="24.45014888076472" lon="120.67885769301058"><ele>80.0</ele><time>2026-03-22T09:29:40Z</time></trkpt><trkpt lat="24.45042348414914" lon="120.67881504856791"><ele>80.0</ele><time>2026-03-22T09:29:41Z</time></trkpt><trkpt lat="24.450701145454918" lon="120.67877443682973"><ele>83.5</ele><time>2026-03-22T09:29:42Z</time></trkpt><trkpt lat="24.450975287639153" lon="120.67873620355358"><ele>87.0</ele><time>2026-03-22T09:29:43Z</time></trkpt><trkpt lat="24.451251818983504" lon="120.6787009087439"><ele>90.5</ele><time>2026-03-22T09:29:44Z</time></trkpt><trkpt lat="24.45153088341781" lon="120.67866885860091"><ele>94.0</ele><time>2026-03-22T09:29:45Z</time></trkpt><trkpt lat="24.451813404602962" lon="120.678639169658"><ele>94.0</ele><time>2026-03-22T09:29:46Z</time></trkpt><trkpt lat="24.452092767713854" lon="120.67861005652897"><ele>94.0</ele><time>2026-03-22T09:29:47Z</time></trkpt><trkpt lat="24.452371465910325" lon="120.67858509521818"><ele>87.0</ele><time>2026-03-22T09:29:48Z</time></trkpt><trkpt lat="24.452649681405372" lon="120.67856276343768"><ele>80.0</ele><time>2026-03-22T09:29:49Z</time></trkpt><trkpt lat="24.452928582594865" lon="120.67854003223533"><ele>79.0</ele><time>2026-03-22T09:29:50Z</time></trkpt><trkpt lat="24.453208511181288" lon="120.67852250483851"><ele>78.0</ele><time>2026-03-22T09:29:51Z</time></trkpt><trkpt lat="24.453490430257165" lon="120.678507856425"><ele>78.0</ele><time>2026-03-22T09:29:52Z</time></trkpt><trkpt lat="24.453772082991307" lon="120.6784953491847"><ele>78.0</ele><time>2026-03-22T09:29:53Z</time></trkpt><trkpt lat="24.454052980050978" lon="120.6784869169421"><ele>73.5</ele><time>2026-03-22T09:29:54Z</time></trkpt><trkpt lat="24.45433305036106" lon="120.67847984830199"><ele>69.0</ele><time>2026-03-22T09:29:55Z</time></trkpt><trkpt lat="24.45461216454226" lon="120.67847370948722"><ele>66.0</ele><time>2026-03-22T09:29:56Z</time></trkpt><trkpt lat="24.454891274704075" lon="120.67846916906167"><ele>63.0</ele><time>2026-03-22T09:29:57Z</time></trkpt><trkpt lat="24.455171301363325" lon="120.67846787703863"><ele>63.0</ele><time>2026-03-22T09:29:58Z</time></trkpt><trkpt lat="24.455452487551447" lon="120.67846967487162"><ele>63.0</ele><time>2026-03-22T09:29:59Z</time></trkpt><trkpt lat="24.455733466352125" lon="120.67847462833183"><ele>57.5</ele><time>2026-03-22T09:30:00Z</time></trkpt><trkpt lat="24.456013096325474" lon="120.67848189613947"><ele>52.0</ele><time>2026-03-22T09:30:01Z</time></trkpt><trkpt lat="24.456292315347692" lon="120.67849152669524"><ele>47.0</ele><time>2026-03-22T09:30:02.001Z</time></trkpt><trkpt lat="24.456571625402567" lon="120.67850247869175"><ele>42.0</ele><time>2026-03-22T09:30:03.001Z</time></trkpt><trkpt lat="24.456850392439918" lon="120.67851748537365"><ele>41.0</ele><time>2026-03-22T09:30:04.001Z</time></trkpt><trkpt lat="24.457127124230745" lon="120.67853391185615"><ele>40.0</ele><time>2026-03-22T09:30:05.001Z</time></trkpt><trkpt lat="24.45740324830036" lon="120.67855189171725"><ele>40.0</ele><time>2026-03-22T09:30:06.001Z</time></trkpt><trkpt lat="24.45767807304603" lon="120.67857297786539"><ele>40.0</ele><time>2026-03-22T09:30:07.001Z</time></trkpt><trkpt lat="24.457953139308255" lon="120.67859769178523"><ele>49.5</ele><time>2026-03-22T09:30:08.001Z</time></trkpt><trkpt lat="24.458228466600843" lon="120.67862476263272"><ele>59.0</ele><time>2026-03-22T09:30:09.001Z</time></trkpt><trkpt lat="24.458506046739718" lon="120.67865421966233"><ele>59.0</ele><time>2026-03-22T09:30:10.001Z</time></trkpt><trkpt lat="24.45878294564669" lon="120.67868620000968"><ele>59.0</ele><time>2026-03-22T09:30:11.001Z</time></trkpt><trkpt lat="24.459059056787527" lon="120.67871959186067"><ele>63.5</ele><time>2026-03-22T09:30:12.001Z</time></trkpt><trkpt lat="24.45933637984685" lon="120.67875506570905"><ele>68.0</ele><time>2026-03-22T09:30:13.001Z</time></trkpt><trkpt lat="24.45961681827383" lon="120.67879469319035"><ele>71.0</ele><time>2026-03-22T09:30:14.001Z</time></trkpt><trkpt lat="24.459896779654493" lon="120.67883598139686"><ele>74.0</ele><time>2026-03-22T09:30:15.001Z</time></trkpt><trkpt lat="24.460174972509108" lon="120.67888017714235"><ele>74.0</ele><time>2026-03-22T09:30:16.001Z</time></trkpt><trkpt lat="24.460454457045284" lon="120.67892579493476"><ele>74.0</ele><time>2026-03-22T09:30:17.001Z</time></trkpt><trkpt lat="24.460733824737414" lon="120.67897414153562"><ele>74.0</ele><time>2026-03-22T09:30:18.001Z</time></trkpt><trkpt lat="24.461012134297807" lon="120.67902543021347"><ele>74.0</ele><time>2026-03-22T09:30:19.001Z</time></trkpt><trkpt lat="24.46129158834624" lon="120.67908052575403"><ele>68.5</ele><time>2026-03-22T09:30:20.001Z</time></trkpt><trkpt lat="24.461568468010782" lon="120.6791380402987"><ele>63.0</ele><time>2026-03-22T09:30:21.001Z</time></trkpt><trkpt lat="24.46184391337543" lon="120.67919629015796"><ele>65.5</ele><time>2026-03-22T09:30:22.001Z</time></trkpt><trkpt lat="24.462117103085603" lon="120.6792589660642"><ele>68.0</ele><time>2026-03-22T09:30:23.001Z</time></trkpt><trkpt lat="24.46238809612821" lon="120.67932613201921"><ele>68.0</ele><time>2026-03-22T09:30:24.001Z</time></trkpt><trkpt lat="24.462658874959306" lon="120.67939473803743"><ele>68.0</ele><time>2026-03-22T09:30:25.001Z</time></trkpt><trkpt lat="24.462931370596422" lon="120.6794684356401"><ele>72.5</ele><time>2026-03-22T09:30:26.001Z</time></trkpt><trkpt lat="24.463206103250613" lon="120.67954561056499"><ele>77.0</ele><time>2026-03-22T09:30:27.001Z</time></trkpt><trkpt lat="24.463480225817154" lon="120.67962665441543"><ele>77.0</ele><time>2026-03-22T09:30:28.001Z</time></trkpt><trkpt lat="24.463751894317014" lon="120.6797098207506"><ele>77.0</ele><time>2026-03-22T09:30:29Z</time></trkpt><trkpt lat="24.46402173772754" lon="120.67979680798356"><ele>75.0</ele><time>2026-03-22T09:30:30Z</time></trkpt><trkpt lat="24.46429003777214" lon="120.67988795486713"><ele>73.0</ele><time>2026-03-22T09:30:31Z</time></trkpt><trkpt lat="24.464555451765793" lon="120.67998293152004"><ele>71.5</ele><time>2026-03-22T09:30:32Z</time></trkpt><trkpt lat="24.46481729407661" lon="120.68008077566893"><ele>70.0</ele><time>2026-03-22T09:30:33Z</time></trkpt><trkpt lat="24.465078040479572" lon="120.68018111063255"><ele>71.5</ele><time>2026-03-22T09:30:34Z</time></trkpt><trkpt lat="24.465334209007683" lon="120.68028505093662"><ele>73.0</ele><time>2026-03-22T09:30:35Z</time></trkpt><trkpt lat="24.46558622289768" lon="120.68039057587265"><ele>67.0</ele><time>2026-03-22T09:30:36Z</time></trkpt><trkpt lat="24.465835400934818" lon="120.6804986533439"><ele>61.0</ele><time>2026-03-22T09:30:37Z</time></trkpt><trkpt lat="24.466083675211852" lon="120.68061029251716"><ele>59.5</ele><time>2026-03-22T09:30:38Z</time></trkpt><trkpt lat="24.46633100369348" lon="120.68072434303431"><ele>58.0</ele><time>2026-03-22T09:30:39Z</time></trkpt><trkpt lat="24.466578627667282" lon="120.68084154548288"><ele>58.0</ele><time>2026-03-22T09:30:40Z</time></trkpt><trkpt lat="24.466823595929245" lon="120.68096304414082"><ele>58.0</ele><time>2026-03-22T09:30:41Z</time></trkpt><trkpt lat="24.46706629156699" lon="120.68108668433705"><ele>51.5</ele><time>2026-03-22T09:30:42Z</time></trkpt><trkpt lat="24.46730720000434" lon="120.68121461310112"><ele>45.0</ele><time>2026-03-22T09:30:43Z</time></trkpt><trkpt lat="24.467548994548434" lon="120.68134687564823"><ele>45.0</ele><time>2026-03-22T09:30:44Z</time></trkpt><trkpt lat="24.467788688023358" lon="120.68148185841892"><ele>45.0</ele><time>2026-03-22T09:30:45Z</time></trkpt><trkpt lat="24.468028481106735" lon="120.68162126190626"><ele>43.0</ele><time>2026-03-22T09:30:46Z</time></trkpt><trkpt lat="24.468265715099726" lon="120.68176469232839"><ele>41.0</ele><time>2026-03-22T09:30:47Z</time></trkpt><trkpt lat="24.46850399484285" lon="120.68191312575811"><ele>47.0</ele><time>2026-03-22T09:30:48Z</time></trkpt><trkpt lat="24.468741719603635" lon="120.68206531562153"><ele>53.0</ele><time>2026-03-22T09:30:49Z</time></trkpt><trkpt lat="24.46897763367133" lon="120.68222132155293"><ele>53.0</ele><time>2026-03-22T09:30:50Z</time></trkpt><trkpt lat="24.46920692799013" lon="120.68238083966719"><ele>53.0</ele><time>2026-03-22T09:30:51Z</time></trkpt><trkpt lat="24.469434641869125" lon="120.68254196610738"><ele>53.0</ele><time>2026-03-22T09:30:52Z</time></trkpt><trkpt lat="24.469658608503288" lon="120.682703949663"><ele>53.0</ele><time>2026-03-22T09:30:53Z</time></trkpt><trkpt lat="24.469879618666774" lon="120.68286764784992"><ele>57.0</ele><time>2026-03-22T09:30:54Z</time></trkpt><trkpt lat="24.47009766797444" lon="120.68303354123086"><ele>61.0</ele><time>2026-03-22T09:30:55Z</time></trkpt><trkpt lat="24.470311740003694" lon="120.68320372375541"><ele>55.0</ele><time>2026-03-22T09:30:56Z</time></trkpt><trkpt lat="24.470523433644477" lon="120.68337685576975"><ele>49.0</ele><time>2026-03-22T09:30:57Z</time></trkpt><trkpt lat="24.47073335885189" lon="120.68354927558123"><ele>44.5</ele><time>2026-03-22T09:30:58Z</time></trkpt><trkpt lat="24.470937775128824" lon="120.68372286353977"><ele>40.0</ele><time>2026-03-22T09:30:59Z</time></trkpt><trkpt lat="24.47114034572629" lon="120.68389925860433"><ele>38.0</ele><time>2026-03-22T09:31:00Z</time></trkpt><trkpt lat="24.47133835523228" lon="120.6840772200097"><ele>36.0</ele><time>2026-03-22T09:31:01Z</time></trkpt><trkpt lat="24.471534301483075" lon="120.68425653480799"><ele>35.0</ele><time>2026-03-22T09:31:02Z</time></trkpt><trkpt lat="24.47172584546822" lon="120.68443636624096"><ele>34.0</ele><time>2026-03-22T09:31:03Z</time></trkpt><trkpt lat="24.47191193551133" lon="120.68461586759835"><ele>34.0</ele><time>2026-03-22T09:31:04Z</time></trkpt><trkpt lat="24.472095930725857" lon="120.68479667697993"><ele>34.0</ele><time>2026-03-22T09:31:05Z</time></trkpt><trkpt lat="24.472275733324718" lon="120.684979629179"><ele>32.5</ele><time>2026-03-22T09:31:06Z</time></trkpt><trkpt lat="24.47245227723077" lon="120.68516421241532"><ele>31.0</ele><time>2026-03-22T09:31:07Z</time></trkpt><trkpt lat="24.472627536108604" lon="120.68534931547126"><ele>31.0</ele><time>2026-03-22T09:31:08Z</time></trkpt><trkpt lat="24.472802600762392" lon="120.68553691389431"><ele>31.0</ele><time>2026-03-22T09:31:09Z</time></trkpt><trkpt lat="24.472976595381244" lon="120.68572786070797"><ele>30.5</ele><time>2026-03-22T09:31:10Z</time></trkpt><trkpt lat="24.473149329675014" lon="120.68592216046136"><ele>30.0</ele><time>2026-03-22T09:31:11Z</time></trkpt><trkpt lat="24.473320265243267" lon="120.68611739506717"><ele>32.5</ele><time>2026-03-22T09:31:12Z</time></trkpt><trkpt lat="24.473488367492127" lon="120.68631325809073"><ele>35.0</ele><time>2026-03-22T09:31:13Z</time></trkpt><trkpt lat="24.473655774333917" lon="120.686511902893"><ele>32.5</ele><time>2026-03-22T09:31:14Z</time></trkpt><trkpt lat="24.47382158947847" lon="120.68671434771585"><ele>30.0</ele><time>2026-03-22T09:31:15Z</time></trkpt><trkpt lat="24.473988586075176" lon="120.68691843239483"><ele>27.5</ele><time>2026-03-22T09:31:16Z</time></trkpt><trkpt lat="24.47415508133781" lon="120.68712388910193"><ele>25.0</ele><time>2026-03-22T09:31:17Z</time></trkpt><trkpt lat="24.4743204056689" lon="120.68733252873677"><ele>25.0</ele><time>2026-03-22T09:31:18Z</time></trkpt><trkpt lat="24.47448495353465" lon="120.68754545451019"><ele>25.0</ele><time>2026-03-22T09:31:19Z</time></trkpt><trkpt lat="24.474649918796363" lon="120.68776156274409"><ele>20.5</ele><time>2026-03-22T09:31:20Z</time></trkpt><trkpt lat="24.47481314758409" lon="120.68798119704618"><ele>16.0</ele><time>2026-03-22T09:31:21Z</time></trkpt><trkpt lat="24.474977267343302" lon="120.688202252028"><ele>16.0</ele><time>2026-03-22T09:31:22Z</time></trkpt><trkpt lat="24.475141477530602" lon="120.6884259365444"><ele>16.0</ele><time>2026-03-22T09:31:23Z</time></trkpt><trkpt lat="24.475305412498244" lon="120.68865291273262"><ele>18.0</ele><time>2026-03-22T09:31:24Z</time></trkpt><trkpt lat="24.475468848196826" lon="120.68888252386859"><ele>20.0</ele><time>2026-03-22T09:31:25Z</time></trkpt><trkpt lat="24.475631432190795" lon="120.68911432264123"><ele>20.0</ele><time>2026-03-22T09:31:26Z</time></trkpt><trkpt lat="24.475793828390245" lon="120.68934767450561"><ele>20.0</ele><time>2026-03-22T09:31:27Z</time></trkpt><trkpt lat="24.475954936848886" lon="120.68958240472745"><ele>20.5</ele><time>2026-03-22T09:31:28Z</time></trkpt><trkpt lat="24.47611410434184" lon="120.68981709705423"><ele>21.0</ele><time>2026-03-22T09:31:29Z</time></trkpt><trkpt lat="24.47627175802264" lon="120.69005046025445"><ele>24.0</ele><time>2026-03-22T09:31:30Z</time></trkpt><trkpt lat="24.476428297684684" lon="120.69028592270809"><ele>27.0</ele><time>2026-03-22T09:31:31Z</time></trkpt><trkpt lat="24.476586259732734" lon="120.69052148944456"><ele>27.0</ele><time>2026-03-22T09:31:32Z</time></trkpt><trkpt lat="24.47674195377055" lon="120.69075764420012"><ele>27.0</ele><time>2026-03-22T09:31:33Z</time></trkpt><trkpt lat="24.47689890167498" lon="120.69099482337829"><ele>26.0</ele><time>2026-03-22T09:31:34Z</time></trkpt><trkpt lat="24.477054351688377" lon="120.69123291236113"><ele>25.0</ele><time>2026-03-22T09:31:35Z</time></trkpt><trkpt lat="24.477210232767955" lon="120.6914707891062"><ele>29.5</ele><time>2026-03-22T09:31:36Z</time></trkpt><trkpt lat="24.477363553720956" lon="120.69170977924571"><ele>34.0</ele><time>2026-03-22T09:31:37Z</time></trkpt><trkpt lat="24.477517320217892" lon="120.69194999262811"><ele>34.5</ele><time>2026-03-22T09:31:38Z</time></trkpt><trkpt lat="24.47767046934531" lon="120.69219130694354"><ele>35.0</ele><time>2026-03-22T09:31:39Z</time></trkpt><trkpt lat="24.477823838005563" lon="120.6924331760705"><ele>41.0</ele><time>2026-03-22T09:31:40Z</time></trkpt><trkpt lat="24.477977515152304" lon="120.69267515742638"><ele>47.0</ele><time>2026-03-22T09:31:41Z</time></trkpt><trkpt lat="24.47813253976134" lon="120.69291640749213"><ele>49.0</ele><time>2026-03-22T09:31:42Z</time></trkpt><trkpt lat="24.47828804555235" lon="120.69315752753343"><ele>51.0</ele><time>2026-03-22T09:31:43Z</time></trkpt><trkpt lat="24.478443644974757" lon="120.69339927080989"><ele>57.5</ele><time>2026-03-22T09:31:44Z</time></trkpt><trkpt lat="24.478599907325837" lon="120.69364063754304"><ele>64.0</ele><time>2026-03-22T09:31:45Z</time></trkpt><trkpt lat="24.478755644102446" lon="120.69388271606775"><ele>59.5</ele><time>2026-03-22T09:31:46Z</time></trkpt><trkpt lat="24.478912110386" lon="120.69412389005173"><ele>55.0</ele><time>2026-03-22T09:31:47Z</time></trkpt><trkpt lat="24.47906942842125" lon="120.6943652104685"><ele>55.5</ele><time>2026-03-22T09:31:48Z</time></trkpt><trkpt lat="24.479228394013926" lon="120.69460659310158"><ele>56.0</ele><time>2026-03-22T09:31:49Z</time></trkpt><trkpt lat="24.479387288615907" lon="120.69484835866645"><ele>56.0</ele><time>2026-03-22T09:31:50Z</time></trkpt><trkpt lat="24.479546780584638" lon="120.69508909393701"><ele>56.0</ele><time>2026-03-22T09:31:51Z</time></trkpt><trkpt lat="24.479708420814337" lon="120.69532837258373"><ele>55.0</ele><time>2026-03-22T09:31:52Z</time></trkpt><trkpt lat="24.47987156380794" lon="120.69556671826471"><ele>54.0</ele><time>2026-03-22T09:31:53Z</time></trkpt><trkpt lat="24.4800373291049" lon="120.69580251629445"><ele>54.0</ele><time>2026-03-22T09:31:54Z</time></trkpt><trkpt lat="24.48020363331149" lon="120.69603922276474"><ele>54.0</ele><time>2026-03-22T09:31:55Z</time></trkpt><trkpt lat="24.480372769985962" lon="120.69627630903227"><ele>50.5</ele><time>2026-03-22T09:31:56Z</time></trkpt><trkpt lat="24.480543548598703" lon="120.69651134967236"><ele>47.0</ele><time>2026-03-22T09:31:57Z</time></trkpt><trkpt lat="24.48071580020932" lon="120.69674399036842"><ele>42.5</ele><time>2026-03-22T09:31:58Z</time></trkpt><trkpt lat="24.48088843713841" lon="120.69697797324682"><ele>38.0</ele><time>2026-03-22T09:31:59Z</time></trkpt><trkpt lat="24.481065343008407" lon="120.6972086022195"><ele>38.0</ele><time>2026-03-22T09:32:00Z</time></trkpt><trkpt lat="24.481241752961218" lon="120.69743888096892"><ele>38.0</ele><time>2026-03-22T09:32:01Z</time></trkpt><trkpt lat="24.481422311627988" lon="120.69766768772492"><ele>34.0</ele><time>2026-03-22T09:32:02Z</time></trkpt><trkpt lat="24.481605018377152" lon="120.69789494380352"><ele>30.0</ele><time>2026-03-22T09:32:03Z</time></trkpt><trkpt lat="24.481791561608997" lon="120.69811856904221"><ele>30.0</ele><time>2026-03-22T09:32:04Z</time></trkpt><trkpt lat="24.481980527330126" lon="120.69834107131595"><ele>30.0</ele><time>2026-03-22T09:32:05Z</time></trkpt><trkpt lat="24.482172251102355" lon="120.6985611618876"><ele>28.5</ele><time>2026-03-22T09:32:06Z</time></trkpt><trkpt lat="24.482365769153972" lon="120.69877611435342"><ele>27.0</ele><time>2026-03-22T09:32:07Z</time></trkpt><trkpt lat="24.48256357153281" lon="120.69899117065636"><ele>27.0</ele><time>2026-03-22T09:32:08Z</time></trkpt><trkpt lat="24.482763677485543" lon="120.69920170866605"><ele>27.0</ele><time>2026-03-22T09:32:09Z</time></trkpt><trkpt lat="24.482967571208512" lon="120.69940969296144"><ele>34.0</ele><time>2026-03-22T09:32:10Z</time></trkpt><trkpt lat="24.48317421673346" lon="120.69961364322589"><ele>41.0</ele><time>2026-03-22T09:32:11Z</time></trkpt><trkpt lat="24.48338411715849" lon="120.69981461896705"><ele>41.0</ele><time>2026-03-22T09:32:12Z</time></trkpt><trkpt lat="24.483598393809906" lon="120.70001325960334"><ele>41.0</ele><time>2026-03-22T09:32:13Z</time></trkpt><trkpt lat="24.48381568200566" lon="120.70020692339365"><ele>32.5</ele><time>2026-03-22T09:32:14Z</time></trkpt><trkpt lat="24.484034423882388" lon="120.70039674112108"><ele>24.0</ele><time>2026-03-22T09:32:15Z</time></trkpt><trkpt lat="24.48425619560056" lon="120.70058140953451"><ele>24.0</ele><time>2026-03-22T09:32:16Z</time></trkpt><trkpt lat="24.48447772323218" lon="120.70076605729578"><ele>24.0</ele><time>2026-03-22T09:32:17Z</time></trkpt><trkpt lat="24.48470398956384" lon="120.70094497419328"><ele>24.0</ele><time>2026-03-22T09:32:18Z</time></trkpt><trkpt lat="24.484932714297734" lon="120.70111868925942"><ele>24.0</ele><time>2026-03-22T09:32:19Z</time></trkpt><trkpt lat="24.485163466121207" lon="120.7012869555694"><ele>24.0</ele><time>2026-03-22T09:32:20Z</time></trkpt><trkpt lat="24.485395716748073" lon="120.70145023558415"><ele>24.0</ele><time>2026-03-22T09:32:21Z</time></trkpt><trkpt lat="24.485628535253806" lon="120.701608509884"><ele>26.0</ele><time>2026-03-22T09:32:22Z</time></trkpt><trkpt lat="24.485862084440875" lon="120.7017636039264"><ele>28.0</ele><time>2026-03-22T09:32:23Z</time></trkpt><trkpt lat="24.486097004213327" lon="120.70191383447867"><ele>29.5</ele><time>2026-03-22T09:32:24Z</time></trkpt><trkpt lat="24.486334068885494" lon="120.702057931448"><ele>31.0</ele><time>2026-03-22T09:32:25Z</time></trkpt><trkpt lat="24.486574836314876" lon="120.70219802118162"><ele>31.0</ele><time>2026-03-22T09:32:26Z</time></trkpt><trkpt lat="24.48682065613563" lon="120.70233907792105"><ele>31.0</ele><time>2026-03-22T09:32:27Z</time></trkpt><trkpt lat="24.48706956644458" lon="120.702476293178"><ele>36.0</ele><time>2026-03-22T09:32:28Z</time></trkpt><trkpt lat="24.48732217377286" lon="120.70260842221472"><ele>41.0</ele><time>2026-03-22T09:32:29.001Z</time></trkpt><trkpt lat="24.48757735365309" lon="120.70273367370656"><ele>44.0</ele><time>2026-03-22T09:32:30.001Z</time></trkpt><trkpt lat="24.487831817824187" lon="120.70285926662517"><ele>47.0</ele><time>2026-03-22T09:32:31.001Z</time></trkpt><trkpt lat="24.488090224285894" lon="120.70297916391446"><ele>47.0</ele><time>2026-03-22T09:32:32.001Z</time></trkpt><trkpt lat="24.488352866762536" lon="120.70309454946326"><ele>47.0</ele><time>2026-03-22T09:32:33.001Z</time></trkpt><trkpt lat="24.488619558565187" lon="120.70320585777682"><ele>50.5</ele><time>2026-03-22T09:32:34.001Z</time></trkpt><trkpt lat="24.488888858708908" lon="120.70331323597486"><ele>54.0</ele><time>2026-03-22T09:32:35Z</time></trkpt><trkpt lat="24.48916124766604" lon="120.70341696065026"><ele>54.0</ele><time>2026-03-22T09:32:36Z</time></trkpt><trkpt lat="24.489434559441165" lon="120.70351584729751"><ele>54.0</ele><time>2026-03-22T09:32:37Z</time></trkpt><trkpt lat="24.48970733790655" lon="120.70360978276867"><ele>57.0</ele><time>2026-03-22T09:32:38Z</time></trkpt><trkpt lat="24.48998130563001" lon="120.70369989806836"><ele>60.0</ele><time>2026-03-22T09:32:39Z</time></trkpt><trkpt lat="24.49025948472414" lon="120.70378613117909"><ele>50.5</ele><time>2026-03-22T09:32:40Z</time></trkpt><trkpt lat="24.490540288264167" lon="120.7038723519472"><ele>41.0</ele><time>2026-03-22T09:32:41Z</time></trkpt><trkpt lat="24.49082434395529" lon="120.70395694017941"><ele>41.0</ele><time>2026-03-22T09:32:42Z</time></trkpt><trkpt lat="24.491107847724503" lon="120.70403560349608"><ele>41.0</ele><time>2026-03-22T09:32:43Z</time></trkpt><trkpt lat="24.491390908659383" lon="120.70410869882784"><ele>33.5</ele><time>2026-03-22T09:32:44Z</time></trkpt><trkpt lat="24.491673226534125" lon="120.70417666406763"><ele>26.0</ele><time>2026-03-22T09:32:45Z</time></trkpt><trkpt lat="24.49195637375257" lon="120.70424160335438"><ele>23.0</ele><time>2026-03-22T09:32:46Z</time></trkpt><trkpt lat="24.492239652384402" lon="120.70430121048719"><ele>20.0</ele><time>2026-03-22T09:32:47Z</time></trkpt><trkpt lat="24.492522223921707" lon="120.7043581362781"><ele>19.5</ele><time>2026-03-22T09:32:48Z</time></trkpt><trkpt lat="24.492804142294613" lon="120.70441360070161"><ele>19.0</ele><time>2026-03-22T09:32:49Z</time></trkpt><trkpt lat="24.493085065737144" lon="120.70446744915526"><ele>19.0</ele><time>2026-03-22T09:32:50Z</time></trkpt><trkpt lat="24.493365173888648" lon="120.70452185024797"><ele>19.0</ele><time>2026-03-22T09:32:51Z</time></trkpt><trkpt lat="24.49364303437368" lon="120.70457482305164"><ele>19.0</ele><time>2026-03-22T09:32:52Z</time></trkpt><trkpt lat="24.493919545892364" lon="120.70462567002221"><ele>19.0</ele><time>2026-03-22T09:32:53Z</time></trkpt><trkpt lat="24.494194712760528" lon="120.70467650768751"><ele>19.0</ele><time>2026-03-22T09:32:54Z</time></trkpt><trkpt lat="24.494468775229528" lon="120.70472891622879"><ele>19.0</ele><time>2026-03-22T09:32:55Z</time></trkpt><trkpt lat="24.494740486042357" lon="120.7047815007854"><ele>19.0</ele><time>2026-03-22T09:32:56Z</time></trkpt><trkpt lat="24.495012176578385" lon="120.70483499403188"><ele>19.0</ele><time>2026-03-22T09:32:57Z</time></trkpt><trkpt lat="24.49528178975763" lon="120.70489087082608"><ele>18.0</ele><time>2026-03-22T09:32:58Z</time></trkpt><trkpt lat="24.495550577184414" lon="120.70494883029697"><ele>17.0</ele><time>2026-03-22T09:32:59Z</time></trkpt><trkpt lat="24.49581735123397" lon="120.70500856451278"><ele>17.0</ele><time>2026-03-22T09:33:00Z</time></trkpt><trkpt lat="24.496079899194335" lon="120.70507257287284"><ele>17.0</ele><time>2026-03-22T09:33:01Z</time></trkpt><trkpt lat="24.496342108592547" lon="120.70513828096372"><ele>18.0</ele><time>2026-03-22T09:33:02Z</time></trkpt><trkpt lat="24.49659948752868" lon="120.70520484905217"><ele>19.0</ele><time>2026-03-22T09:33:03Z</time></trkpt><trkpt lat="24.496854167490977" lon="120.7052756096748"><ele>20.5</ele><time>2026-03-22T09:33:04Z</time></trkpt><trkpt lat="24.49710542251361" lon="120.70535068403318"><ele>22.0</ele><time>2026-03-22T09:33:05Z</time></trkpt><trkpt lat="24.497353025323466" lon="120.70542952851441"><ele>22.0</ele><time>2026-03-22T09:33:06Z</time></trkpt><trkpt lat="24.49759653904274" lon="120.70551250860521"><ele>22.0</ele><time>2026-03-22T09:33:07Z</time></trkpt><trkpt lat="24.497835048136807" lon="120.70559750391656"><ele>27.0</ele><time>2026-03-22T09:33:08Z</time></trkpt><trkpt lat="24.498065671154063" lon="120.70568494957081"><ele>32.0</ele><time>2026-03-22T09:33:09Z</time></trkpt><trkpt lat="24.498290667712958" lon="120.70577426988962"><ele>32.0</ele><time>2026-03-22T09:33:10Z</time></trkpt><trkpt lat="24.49850977874019" lon="120.70586448960256"><ele>32.0</ele><time>2026-03-22T09:33:11Z</time></trkpt><trkpt lat="24.49872328586005" lon="120.70595709743326"><ele>33.666666666666664</ele><time>2026-03-22T09:33:12Z</time></trkpt><trkpt lat="24.498931418763124" lon="120.70605116259556"><ele>35.333333333333336</ele><time>2026-03-22T09:33:13Z</time></trkpt><trkpt lat="24.499135615403564" lon="120.70614531472957"><ele>37.0</ele><time>2026-03-22T09:33:14Z</time></trkpt><trkpt lat="24.49933549747404" lon="120.70623954138829"><ele>38.0</ele><time>2026-03-22T09:33:15Z</time></trkpt><trkpt lat="24.499531255110007" lon="120.70633611276325"><ele>39.0</ele><time>2026-03-22T09:33:16Z</time></trkpt><trkpt lat="24.49972393326264" lon="120.70643225816306"><ele>40.0</ele><time>2026-03-22T09:33:17Z</time></trkpt><trkpt lat="24.499911955576632" lon="120.70653302719944"><ele>40.66666666666667</ele><time>2026-03-22T09:33:18Z</time></trkpt><trkpt lat="24.50009346420208" lon="120.70663371282932"><ele>41.333333333333336</ele><time>2026-03-22T09:33:19Z</time></trkpt><trkpt lat="24.500264910058775" lon="120.70672863196224"><ele>42.0</ele><time>2026-03-22T09:33:20Z</time></trkpt><trkpt lat="24.500417768355316" lon="120.70681678198443"><ele>42.2</ele><time>2026-03-22T09:33:21Z</time></trkpt><trkpt lat="24.500545530124864" lon="120.706892087411"><ele>42.400000000000006</ele><time>2026-03-22T09:33:22Z</time></trkpt><trkpt lat="24.500650883911998" lon="120.70695456699391"><ele>42.599999999999994</ele><time>2026-03-22T09:33:23Z</time></trkpt><trkpt lat="24.50073556557557" lon="120.70700454541078"><ele>42.8</ele><time>2026-03-22T09:33:24Z</time></trkpt><trkpt lat="24.500809626478603" lon="120.707049634107"><ele>43.0</ele><time>2026-03-22T09:33:25Z</time></trkpt><trkpt lat="24.500875212379167" lon="120.70709221139167"><ele>43.00000000000001</ele><time>2026-03-22T09:33:26Z</time></trkpt><trkpt lat="24.500937137955713" lon="120.70712966841079"><ele>43.0</ele><time>2026-03-22T09:33:27Z</time></trkpt><trkpt lat="24.500997471289427" lon="120.70716811173456"><ele>43.0</ele><time>2026-03-22T09:33:28Z</time></trkpt><trkpt lat="24.50105956343122" lon="120.7072059427548"><ele>43.0</ele><time>2026-03-22T09:33:29Z</time></trkpt><trkpt lat="24.50112063296838" lon="120.70724592931197"><ele>43.0</ele><time>2026-03-22T09:33:30Z</time></trkpt><trkpt lat="24.50118198879992" lon="120.7072834571357"><ele>43.00000000000001</ele><time>2026-03-22T09:33:31Z</time></trkpt><trkpt lat="24.5012428477675" lon="120.70732203253574"><ele>43.0</ele><time>2026-03-22T09:33:32Z</time></trkpt><trkpt lat="24.501307934540414" lon="120.70736435375484"><ele>43.333333333333336</ele><time>2026-03-22T09:33:33Z</time></trkpt><trkpt lat="24.50137575196794" lon="120.70740793701009"><ele>43.66666666666667</ele><time>2026-03-22T09:33:34Z</time></trkpt><trkpt lat="24.50144569337945" lon="120.70745431079062"><ele>44.0</ele><time>2026-03-22T09:33:35Z</time></trkpt><trkpt lat="24.501517022753518" lon="120.7075026599223"><ele>44.333333333333336</ele><time>2026-03-22T09:33:36Z</time></trkpt><trkpt lat="24.501589473239402" lon="120.70755269906479"><ele>44.666666666666664</ele><time>2026-03-22T09:33:37Z</time></trkpt><trkpt lat="24.501662939010842" lon="120.7076031621306"><ele>45.0</ele><time>2026-03-22T09:33:38Z</time></trkpt><trkpt lat="24.501734330029482" lon="120.70765351305559"><ele>45.0</ele><time>2026-03-22T09:33:39Z</time></trkpt><trkpt lat="24.50179986702489" lon="120.70770096242586"><ele>45.0</ele><time>2026-03-22T09:33:40Z</time></trkpt><trkpt lat="24.501863977217756" lon="120.70774820256123"><ele>45.0</ele><time>2026-03-22T09:33:41Z</time></trkpt><trkpt lat="24.50192848280874" lon="120.70779637199186"><ele>45.0</ele><time>2026-03-22T09:33:42Z</time></trkpt><trkpt lat="24.50199370397721" lon="120.70784530920776"><ele>45.0</ele><time>2026-03-22T09:33:43Z</time></trkpt><trkpt lat="24.50206298040403" lon="120.70789685966034"><ele>45.0</ele><time>2026-03-22T09:33:44Z</time></trkpt><trkpt lat="24.50213136588652" lon="120.70794891977074"><ele>44.833333333333336</ele><time>2026-03-22T09:33:45Z</time></trkpt><trkpt lat="24.502200746667445" lon="120.70800108022192"><ele>44.666666666666664</ele><time>2026-03-22T09:33:46Z</time></trkpt><trkpt lat="24.502269058683726" lon="120.70805322621922"><ele>44.5</ele><time>2026-03-22T09:33:47Z</time></trkpt><trkpt lat="24.50233706335916" lon="120.7081044271529"><ele>44.33333333333333</ele><time>2026-03-22T09:33:48Z</time></trkpt><trkpt lat="24.50240352823415" lon="120.70815553897953"><ele>44.166666666666664</ele><time>2026-03-22T09:33:49Z</time></trkpt><trkpt lat="24.502471122629974" lon="120.70820913877476"><ele>44.0</ele><time>2026-03-22T09:33:50Z</time></trkpt><trkpt lat="24.50254133320619" lon="120.70826753714888"><ele>44.0</ele><time>2026-03-22T09:33:51Z</time></trkpt><trkpt lat="24.502613447824125" lon="120.70832929716939"><ele>44.0</ele><time>2026-03-22T09:33:52Z</time></trkpt><trkpt lat="24.502687879289414" lon="120.70839163796197"><ele>44.0</ele><time>2026-03-22T09:33:53Z</time></trkpt><trkpt lat="24.502759089502643" lon="120.70844842903672"><ele>44.0</ele><time>2026-03-22T09:33:54Z</time></trkpt><trkpt lat="24.502831495057567" lon="120.7085058341577"><ele>44.0</ele><time>2026-03-22T09:33:55Z</time></trkpt><trkpt lat="24.502905171718673" lon="120.70856639778735"><ele>44.666666666666664</ele><time>2026-03-22T09:33:56Z</time></trkpt><trkpt lat="24.50297271288219" lon="120.70862386874042"><ele>45.33333333333333</ele><time>2026-03-22T09:33:57Z</time></trkpt><trkpt lat="24.50303730708292" lon="120.70867954938618"><ele>46.0</ele><time>2026-03-22T09:33:58Z</time></trkpt><trkpt lat="24.503097806444753" lon="120.70873350475041"><ele>46.666666666666664</ele><time>2026-03-22T09:33:59Z</time></trkpt><trkpt lat="24.50315901403884" lon="120.7087880112763"><ele>47.333333333333336</ele><time>2026-03-22T09:34:00Z</time></trkpt><trkpt lat="24.503220226079655" lon="120.70884229588542"><ele>48.0</ele><time>2026-03-22T09:34:01Z</time></trkpt><trkpt lat="24.503282126606745" lon="120.70889602765394"><ele>47.99999999999999</ele><time>2026-03-22T09:34:02Z</time></trkpt><trkpt lat="24.503341320673602" lon="120.70894869124596"><ele>48.0</ele><time>2026-03-22T09:34:03Z</time></trkpt><trkpt lat="24.503398841490558" lon="120.70900069887861"><ele>48.0</ele><time>2026-03-22T09:34:04Z</time></trkpt><trkpt lat="24.503452031917504" lon="120.7090506626426"><ele>48.0</ele><time>2026-03-22T09:34:05Z</time></trkpt><trkpt lat="24.503504354773288" lon="120.70909926398522"><ele>48.0</ele><time>2026-03-22T09:34:06Z</time></trkpt><trkpt lat="24.503557223848944" lon="120.70914864861393"><ele>47.99999999999999</ele><time>2026-03-22T09:34:07Z</time></trkpt><trkpt lat="24.503609721775398" lon="120.70919857107519"><ele>48.0</ele><time>2026-03-22T09:34:08Z</time></trkpt><trkpt lat="24.50366534338863" lon="120.70925238728773"><ele>47.99999999999999</ele><time>2026-03-22T09:34:09Z</time></trkpt><trkpt lat="24.50371080536912" lon="120.70930141170177"><ele>48.0</ele><time>2026-03-22T09:34:10Z</time></trkpt><trkpt lat="24.503762691725306" lon="120.70934974896375"><ele>48.0</ele><time>2026-03-22T09:34:11Z</time></trkpt><trkpt lat="24.503816364507973" lon="120.70940055524355"><ele>48.0</ele><time>2026-03-22T09:34:12Z</time></trkpt><trkpt lat="24.503868515399375" lon="120.7094513762167"><ele>48.0</ele><time>2026-03-22T09:34:13Z</time></trkpt><trkpt lat="24.503919893898566" lon="120.70950226188755"><ele>47.99999999999999</ele><time>2026-03-22T09:34:14Z</time></trkpt><trkpt lat="24.503971838366848" lon="120.70955360004173"><ele>48.0</ele><time>2026-03-22T09:34:15Z</time></trkpt><trkpt lat="24.504023981656534" lon="120.709604182721"><ele>48.599999999999994</ele><time>2026-03-22T09:34:16Z</time></trkpt><trkpt lat="24.504072978656065" lon="120.70965197854623"><ele>49.199999999999996</ele><time>2026-03-22T09:34:17Z</time></trkpt><trkpt lat="24.50416479890032" lon="120.70973997406584"><ele>49.8</ele><time>2026-03-22T09:34:19Z</time></trkpt><trkpt lat="24.50424533811486" lon="120.70981946518889"><ele>50.4</ele><time>2026-03-22T09:34:21Z</time></trkpt><trkpt lat="24.50432744122051" lon="120.7099012412536"><ele>51.0</ele><time>2026-03-22T09:34:23Z</time></trkpt><trkpt lat="24.504415257627368" lon="120.70999182078673"><ele>51.0</ele><time>2026-03-22T09:34:25Z</time></trkpt><trkpt lat="24.50450724213996" lon="120.71009031697295"><ele>51.0</ele><time>2026-03-22T09:34:27Z</time></trkpt><trkpt lat="24.50455325770064" lon="120.71014031999682"><ele>51.0</ele><time>2026-03-22T09:34:28Z</time></trkpt><trkpt lat="24.504600731802196" lon="120.71019052083045"><ele>51.0</ele><time>2026-03-22T09:34:29Z</time></trkpt><trkpt lat="24.504647255602226" lon="120.7102409781451"><ele>51.0</ele><time>2026-03-22T09:34:30Z</time></trkpt><trkpt lat="24.504693445547833" lon="120.71029193422329"><ele>51.0</ele><time>2026-03-22T09:34:31Z</time></trkpt><trkpt lat="24.50474130079758" lon="120.71034499248411"><ele>51.714285714285715</ele><time>2026-03-22T09:34:32Z</time></trkpt><trkpt lat="24.504792822573865" lon="120.71040067557252"><ele>52.42857142857143</ele><time>2026-03-22T09:34:33Z</time></trkpt><trkpt lat="24.504843120090413" lon="120.71045593576513"><ele>53.14285714285714</ele><time>2026-03-22T09:34:34Z</time></trkpt><trkpt lat="24.504893719085228" lon="120.71051209975691"><ele>53.85714285714286</ele><time>2026-03-22T09:34:35Z</time></trkpt><trkpt lat="24.504945074871266" lon="120.71056930654782"><ele>54.57142857142857</ele><time>2026-03-22T09:34:36Z</time></trkpt><trkpt lat="24.50499893698021" lon="120.7106312500978"><ele>55.285714285714285</ele><time>2026-03-22T09:34:37Z</time></trkpt><trkpt lat="24.505054342861445" lon="120.71069484494714"><ele>56.0</ele><time>2026-03-22T09:34:38Z</time></trkpt><trkpt lat="24.50511246078704" lon="120.71076023581111"><ele>56.00000000000001</ele><time>2026-03-22T09:34:39Z</time></trkpt><trkpt lat="24.505169455084232" lon="120.71082487365257"><ele>56.0</ele><time>2026-03-22T09:34:40Z</time></trkpt><trkpt lat="24.5052250011015" lon="120.7108881937059"><ele>56.0</ele><time>2026-03-22T09:34:41Z</time></trkpt><trkpt lat="24.50527963662913" lon="120.71094969015847"><ele>56.0</ele><time>2026-03-22T09:34:42Z</time></trkpt><trkpt lat="24.505333741121632" lon="120.71101159070598"><ele>56.00000000000001</ele><time>2026-03-22T09:34:43Z</time></trkpt><trkpt lat="24.505388439155617" lon="120.71107438354909"><ele>56.0</ele><time>2026-03-22T09:34:44Z</time></trkpt><trkpt lat="24.505441918899333" lon="120.71113700442791"><ele>55.833333333333336</ele><time>2026-03-22T09:34:45Z</time></trkpt><trkpt lat="24.50549490510856" lon="120.71119943999169"><ele>55.66666666666667</ele><time>2026-03-22T09:34:46Z</time></trkpt><trkpt lat="24.50554670482796" lon="120.71126046090664"><ele>55.5</ele><time>2026-03-22T09:34:47Z</time></trkpt><trkpt lat="24.505597626809568" lon="120.71132053602787"><ele>55.33333333333333</ele><time>2026-03-22T09:34:48Z</time></trkpt><trkpt lat="24.505645162428333" lon="120.71137775773606"><ele>55.166666666666664</ele><time>2026-03-22T09:34:49Z</time></trkpt><trkpt lat="24.50568978114078" lon="120.71143141578222"><ele>55.0</ele><time>2026-03-22T09:34:50Z</time></trkpt><trkpt lat="24.505763325651017" lon="120.71152061821591"><ele>55.0</ele><time>2026-03-22T09:34:52Z</time></trkpt><trkpt lat="24.505830493729977" lon="120.71160261672678"><ele>55.0</ele><time>2026-03-22T09:34:54Z</time></trkpt><trkpt lat="24.50590705201755" lon="120.71169316684905"><ele>55.0</ele><time>2026-03-22T09:34:56Z</time></trkpt><trkpt lat="24.505988738436404" lon="120.71179082450384"><ele>55.0</ele><time>2026-03-22T09:34:58Z</time></trkpt><trkpt lat="24.506033287992366" lon="120.71184464107967"><ele>55.0</ele><time>2026-03-22T09:34:59Z</time></trkpt><trkpt lat="24.506079546192318" lon="120.71190096803936"><ele>55.14285714285714</ele><time>2026-03-22T09:35:00Z</time></trkpt><trkpt lat="24.506125948550768" lon="120.7119584431114"><ele>55.285714285714285</ele><time>2026-03-22T09:35:01Z</time></trkpt><trkpt lat="24.506173173032263" lon="120.71201595098178"><ele>55.42857142857143</ele><time>2026-03-22T09:35:02Z</time></trkpt><trkpt lat="24.506221213527375" lon="120.71207431519929"><ele>55.57142857142857</ele><time>2026-03-22T09:35:03Z</time></trkpt><trkpt lat="24.506269453824174" lon="120.71213327110884"><ele>55.714285714285715</ele><time>2026-03-22T09:35:04Z</time></trkpt><trkpt lat="24.50631910957387" lon="120.71219379472015"><ele>55.857142857142854</ele><time>2026-03-22T09:35:05Z</time></trkpt><trkpt lat="24.506370357769583" lon="120.71225572739765"><ele>56.0</ele><time>2026-03-22T09:35:06Z</time></trkpt><trkpt lat="24.506423414730236" lon="120.71231991156077"><ele>56.00000000000001</ele><time>2026-03-22T09:35:07Z</time></trkpt><trkpt lat="24.506477757695915" lon="120.71238576649901"><ele>56.0</ele><time>2026-03-22T09:35:08Z</time></trkpt><trkpt lat="24.50653237029517" lon="120.71245202208195"><ele>56.0</ele><time>2026-03-22T09:35:09Z</time></trkpt><trkpt lat="24.506588162568235" lon="120.71252069038358"><ele>56.0</ele><time>2026-03-22T09:35:10Z</time></trkpt><trkpt lat="24.506644211049554" lon="120.7125905557764"><ele>56.00000000000001</ele><time>2026-03-22T09:35:11Z</time></trkpt><trkpt lat="24.506702994574578" lon="120.712662766643"><ele>56.0</ele><time>2026-03-22T09:35:12Z</time></trkpt><trkpt lat="24.50676222283111" lon="120.71273638222351"><ele>58.199999999999996</ele><time>2026-03-22T09:35:13Z</time></trkpt><trkpt lat="24.506823629437385" lon="120.71281166135044"><ele>60.39999999999999</ele><time>2026-03-22T09:35:14Z</time></trkpt><trkpt lat="24.506885137514267" lon="120.71288766405561"><ele>62.6</ele><time>2026-03-22T09:35:15Z</time></trkpt><trkpt lat="24.50694791826932" lon="120.71296492117864"><ele>64.8</ele><time>2026-03-22T09:35:16Z</time></trkpt><trkpt lat="24.507010753089375" lon="120.71304252594918"><ele>67.0</ele><time>2026-03-22T09:35:17Z</time></trkpt><trkpt lat="24.507071952369845" lon="120.71311798258446"><ele>66.6</ele><time>2026-03-22T09:35:18Z</time></trkpt><trkpt lat="24.50713270779665" lon="120.71319197463863"><ele>66.2</ele><time>2026-03-22T09:35:19Z</time></trkpt><trkpt lat="24.50719582864995" lon="120.71326910470424"><ele>65.8</ele><time>2026-03-22T09:35:20Z</time></trkpt><trkpt lat="24.507259948941375" lon="120.71334720258996"><ele>65.4</ele><time>2026-03-22T09:35:21Z</time></trkpt><trkpt lat="24.507326072825208" lon="120.71342794515077"><ele>65.0</ele><time>2026-03-22T09:35:22Z</time></trkpt><trkpt lat="24.507392704271936" lon="120.71351045125704"><ele>66.0</ele><time>2026-03-22T09:35:23Z</time></trkpt><trkpt lat="24.50746205098324" lon="120.71359442502529"><ele>67.0</ele><time>2026-03-22T09:35:24Z</time></trkpt><trkpt lat="24.507531867113975" lon="120.71367988186697"><ele>68.0</ele><time>2026-03-22T09:35:25Z</time></trkpt><trkpt lat="24.507601498853898" lon="120.71376550150406"><ele>69.0</ele><time>2026-03-22T09:35:26Z</time></trkpt><trkpt lat="24.50767148226652" lon="120.71384998439969"><ele>70.0</ele><time>2026-03-22T09:35:27Z</time></trkpt><trkpt lat="24.507742489952037" lon="120.71393492503415"><ele>70.0</ele><time>2026-03-22T09:35:28Z</time></trkpt><trkpt lat="24.507813683589283" lon="120.7140201169157"><ele>70.0</ele><time>2026-03-22T09:35:29Z</time></trkpt><trkpt lat="24.507884394174347" lon="120.71410499448682"><ele>70.0</ele><time>2026-03-22T09:35:30Z</time></trkpt><trkpt lat="24.507954582477463" lon="120.71419084848932"><ele>70.0</ele><time>2026-03-22T09:35:31Z</time></trkpt><trkpt lat="24.50802535448503" lon="120.71427612299692"><ele>70.0</ele><time>2026-03-22T09:35:32Z</time></trkpt><trkpt lat="24.508095849370218" lon="120.7143614496531"><ele>69.6</ele><time>2026-03-22T09:35:33Z</time></trkpt><trkpt lat="24.50816671643795" lon="120.71444573994624"><ele>69.2</ele><time>2026-03-22T09:35:34Z</time></trkpt><trkpt lat="24.508237236618232" lon="120.71453075826334"><ele>68.8</ele><time>2026-03-22T09:35:35Z</time></trkpt><trkpt lat="24.50830772646538" lon="120.71461433611854"><ele>68.4</ele><time>2026-03-22T09:35:36Z</time></trkpt><trkpt lat="24.50837875733055" lon="120.7146975680136"><ele>68.0</ele><time>2026-03-22T09:35:37Z</time></trkpt><trkpt lat="24.50844766437336" lon="120.71477902217164"><ele>68.0</ele><time>2026-03-22T09:35:38Z</time></trkpt><trkpt lat="24.50851544457506" lon="120.7148593222997"><ele>68.0</ele><time>2026-03-22T09:35:39Z</time></trkpt><trkpt lat="24.508581919555386" lon="120.7149366857611"><ele>68.0</ele><time>2026-03-22T09:35:40Z</time></trkpt><trkpt lat="24.50864788053103" lon="120.71501401378931"><ele>68.0</ele><time>2026-03-22T09:35:41Z</time></trkpt><trkpt lat="24.508714449565716" lon="120.71509176621926"><ele>68.0</ele><time>2026-03-22T09:35:42Z</time></trkpt><trkpt lat="24.508781548752687" lon="120.7151695954993"><ele>67.8</ele><time>2026-03-22T09:35:43Z</time></trkpt><trkpt lat="24.508848403701062" lon="120.71524753263849"><ele>67.6</ele><time>2026-03-22T09:35:44Z</time></trkpt><trkpt lat="24.508915044293737" lon="120.71532442770739"><ele>67.4</ele><time>2026-03-22T09:35:45Z</time></trkpt><trkpt lat="24.50898074981052" lon="120.7154006796235"><ele>67.2</ele><time>2026-03-22T09:35:46Z</time></trkpt><trkpt lat="24.50904530735803" lon="120.71547546867363"><ele>67.0</ele><time>2026-03-22T09:35:47Z</time></trkpt><trkpt lat="24.509107973129527" lon="120.71554786668517"><ele>67.0</ele><time>2026-03-22T09:35:48Z</time></trkpt><trkpt lat="24.50916937934965" lon="120.71561868139966"><ele>67.0</ele><time>2026-03-22T09:35:49Z</time></trkpt><trkpt lat="24.509230491720974" lon="120.71568844802876"><ele>67.0</ele><time>2026-03-22T09:35:50Z</time></trkpt><trkpt lat="24.509293207910147" lon="120.71575910363244"><ele>67.0</ele><time>2026-03-22T09:35:51Z</time></trkpt><trkpt lat="24.50935588291579" lon="120.71583051849375"><ele>67.0</ele><time>2026-03-22T09:35:52Z</time></trkpt><trkpt lat="24.509417725648518" lon="120.71590164230203"><ele>67.0</ele><time>2026-03-22T09:35:53Z</time></trkpt><trkpt lat="24.509479627667844" lon="120.7159720994019"><ele>67.0</ele><time>2026-03-22T09:35:54Z</time></trkpt><trkpt lat="24.509541076216717" lon="120.71604215406458"><ele>67.0</ele><time>2026-03-22T09:35:55Z</time></trkpt><trkpt lat="24.50960207704632" lon="120.71611115289679"><ele>67.0</ele><time>2026-03-22T09:35:56Z</time></trkpt><trkpt lat="24.509661553107666" lon="120.71617770684837"><ele>67.0</ele><time>2026-03-22T09:35:57Z</time></trkpt><trkpt lat="24.509719781917468" lon="120.71624335061084"><ele>67.0</ele><time>2026-03-22T09:35:58Z</time></trkpt><trkpt lat="24.509777278955262" lon="120.7163073507279"><ele>67.0</ele><time>2026-03-22T09:35:59Z</time></trkpt><trkpt lat="24.509833158656306" lon="120.71636964556195"><ele>66.14285714285714</ele><time>2026-03-22T09:36:00Z</time></trkpt><trkpt lat="24.509888332511544" lon="120.71643043812011"><ele>65.28571428571428</ele><time>2026-03-22T09:36:01Z</time></trkpt><trkpt lat="24.50994320188217" lon="120.71649027844205"><ele>64.42857142857142</ele><time>2026-03-22T09:36:02Z</time></trkpt><trkpt lat="24.50999669192127" lon="120.71654890500758"><ele>63.57142857142857</ele><time>2026-03-22T09:36:03Z</time></trkpt><trkpt lat="24.510050167984705" lon="120.71660674632078"><ele>62.71428571428571</ele><time>2026-03-22T09:36:04Z</time></trkpt><trkpt lat="24.510100774386526" lon="120.71666262346307"><ele>61.85714285714285</ele><time>2026-03-22T09:36:05Z</time></trkpt><trkpt lat="24.510148582816658" lon="120.71671374011001"><ele>60.99999999999999</ele><time>2026-03-22T09:36:06Z</time></trkpt><trkpt lat="24.5102362966461" lon="120.71680868687399"><ele>61.0</ele><time>2026-03-22T09:36:08Z</time></trkpt><trkpt lat="24.510319135522764" lon="120.71689654437073"><ele>60.99999999999999</ele><time>2026-03-22T09:36:10Z</time></trkpt><trkpt lat="24.51039746499297" lon="120.71698017654289"><ele>60.99999999999999</ele><time>2026-03-22T09:36:12Z</time></trkpt><trkpt lat="24.510469692789737" lon="120.71705734457699"><ele>61.0</ele><time>2026-03-22T09:36:14Z</time></trkpt><trkpt lat="24.510532954003846" lon="120.7171226354176"><ele>61.0</ele><time>2026-03-22T09:36:16Z</time></trkpt><trkpt lat="24.510591221302604" lon="120.7171829201211"><ele>60.14285714285713</ele><time>2026-03-22T09:36:18Z</time></trkpt><trkpt lat="24.510646632199123" lon="120.71723645543287"><ele>59.285714285714285</ele><time>2026-03-22T09:36:20Z</time></trkpt><trkpt lat="24.510696469950435" lon="120.7172888841086"><ele>58.42857142857142</ele><time>2026-03-22T09:36:22Z</time></trkpt><trkpt lat="24.510746307946306" lon="120.71734097536924"><ele>57.57142857142857</ele><time>2026-03-22T09:36:24Z</time></trkpt><trkpt lat="24.510796741518472" lon="120.71739217296583"><ele>56.71428571428571</ele><time>2026-03-22T09:36:26Z</time></trkpt><trkpt lat="24.51084680431634" lon="120.71744202557731"><ele>55.857142857142854</ele><time>2026-03-22T09:36:28Z</time></trkpt><trkpt lat="24.510897827498955" lon="120.71749164631957"><ele>55.0</ele><time>2026-03-22T09:36:30Z</time></trkpt><trkpt lat="24.510950151126163" lon="120.71754265290521"><ele>54.99999999999999</ele><time>2026-03-22T09:36:32Z</time></trkpt><trkpt lat="24.51100218749965" lon="120.71759336158794"><ele>55.0</ele><time>2026-03-22T09:36:34Z</time></trkpt><trkpt lat="24.51105398127189" lon="120.71764491073284"><ele>55.0</ele><time>2026-03-22T09:36:36Z</time></trkpt><trkpt lat="24.51110702278273" lon="120.71769865344163"><ele>55.0</ele><time>2026-03-22T09:36:38Z</time></trkpt><trkpt lat="24.51116368151424" lon="120.71775436011542"><ele>55.0</ele><time>2026-03-22T09:36:40Z</time></trkpt><trkpt lat="24.511220193526633" lon="120.71780913440242"><ele>54.99999999999999</ele><time>2026-03-22T09:36:42Z</time></trkpt><trkpt lat="24.511275594125195" lon="120.71786205701716"><ele>55.0</ele><time>2026-03-22T09:36:44Z</time></trkpt><trkpt lat="24.51132968437387" lon="120.71791479541868"><ele>56.49999999999999</ele><time>2026-03-22T09:36:46Z</time></trkpt><trkpt lat="24.511383765431066" lon="120.71796664975294"><ele>58.0</ele><time>2026-03-22T09:36:48Z</time></trkpt><trkpt lat="24.511446888033248" lon="120.71802675554198"><ele>59.5</ele><time>2026-03-22T09:36:50Z</time></trkpt><trkpt lat="24.511518132561736" lon="120.71809332779159"><ele>61.0</ele><time>2026-03-22T09:36:52Z</time></trkpt><trkpt lat="24.511589464795648" lon="120.7181596617707"><ele>62.49999999999999</ele><time>2026-03-22T09:36:54Z</time></trkpt><trkpt lat="24.51166921589161" lon="120.71823446902435"><ele>64.0</ele><time>2026-03-22T09:36:56Z</time></trkpt><trkpt lat="24.51175312528712" lon="120.71831320996804"><ele>64.0</ele><time>2026-03-22T09:36:58Z</time></trkpt><trkpt lat="24.511840124933098" lon="120.71839246394555"><ele>64.0</ele><time>2026-03-22T09:37:00Z</time></trkpt><trkpt lat="24.51192514443222" lon="120.71847574454861"><ele>64.0</ele><time>2026-03-22T09:37:02Z</time></trkpt><trkpt lat="24.51202103891829" lon="120.71856023160117"><ele>64.0</ele><time>2026-03-22T09:37:04Z</time></trkpt><trkpt lat="24.512113105016176" lon="120.7186440496119"><ele>61.75</ele><time>2026-03-22T09:37:06Z</time></trkpt><trkpt lat="24.512205565616362" lon="120.71872538668474"><ele>59.5</ele><time>2026-03-22T09:37:08Z</time></trkpt><trkpt lat="24.512294622455464" lon="120.71880549297308"><ele>57.25</ele><time>2026-03-22T09:37:10Z</time></trkpt><trkpt lat="24.512383181892194" lon="120.71888355809585"><ele>55.0</ele><time>2026-03-22T09:37:12Z</time></trkpt><trkpt lat="24.512466563999688" lon="120.7189573264377"><ele>55.0</ele><time>2026-03-22T09:37:14Z</time></trkpt><trkpt lat="24.51254044444986" lon="120.71902409817561"><ele>55.0</ele><time>2026-03-22T09:37:16Z</time></trkpt><trkpt lat="24.51261781316155" lon="120.71909048376993"><ele>55.0</ele><time>2026-03-22T09:37:18Z</time></trkpt><trkpt lat="24.512693439989125" lon="120.71915806598022"><ele>55.0</ele><time>2026-03-22T09:37:20Z</time></trkpt><trkpt lat="24.512766904552088" lon="120.7192221977233"><ele>55.0</ele><time>2026-03-22T09:37:22Z</time></trkpt><trkpt lat="24.51284337311552" lon="120.71928675982191"><ele>54.33333333333333</ele><time>2026-03-22T09:37:24Z</time></trkpt><trkpt lat="24.51292364318882" lon="120.71935346336622"><ele>53.666666666666664</ele><time>2026-03-22T09:37:26Z</time></trkpt><trkpt lat="24.51300141788479" lon="120.71941939151864"><ele>53.0</ele><time>2026-03-22T09:37:28Z</time></trkpt><trkpt lat="24.51307373683813" lon="120.71947909769419"><ele>52.33333333333333</ele><time>2026-03-22T09:37:30Z</time></trkpt><trkpt lat="24.51313358169194" lon="120.71952898243414"><ele>51.666666666666664</ele><time>2026-03-22T09:37:32Z</time></trkpt><trkpt lat="24.513188788572446" lon="120.7195752061776"><ele>51.0</ele><time>2026-03-22T09:37:48Z</time></trkpt><trkpt lat="24.51325422620658" lon="120.71962897347771"><ele>50.166666666666664</ele><time>2026-03-22T09:37:51Z</time></trkpt><trkpt lat="24.513306144024543" lon="120.71967184830301"><ele>49.333333333333336</ele><time>2026-03-22T09:37:53Z</time></trkpt><trkpt lat="24.513381113218202" lon="120.71973460564543"><ele>48.5</ele><time>2026-03-22T09:37:56Z</time></trkpt><trkpt lat="24.513440323128748" lon="120.71978220937106"><ele>47.66666666666667</ele><time>2026-03-22T09:37:58Z</time></trkpt><trkpt lat="24.513508937546" lon="120.71983548268949"><ele>46.833333333333336</ele><time>2026-03-22T09:38:00Z</time></trkpt><trkpt lat="24.51358382345957" lon="120.71989368288405"><ele>46.0</ele><time>2026-03-22T09:38:02Z</time></trkpt><trkpt lat="24.51366597847546" lon="120.71995829787559"><ele>46.199999999999996</ele><time>2026-03-22T09:38:04Z</time></trkpt><trkpt lat="24.51374977210685" lon="120.72002337308007"><ele>46.4</ele><time>2026-03-22T09:38:06Z</time></trkpt><trkpt lat="24.513826525452046" lon="120.72008294982366"><ele>46.6</ele><time>2026-03-22T09:38:08Z</time></trkpt><trkpt lat="24.51389669924552" lon="120.72013749878398"><ele>46.8</ele><time>2026-03-22T09:38:10Z</time></trkpt><trkpt lat="24.513964819966507" lon="120.720189848834"><ele>47.0</ele><time>2026-03-22T09:38:12Z</time></trkpt><trkpt lat="24.51403945934566" lon="120.7202478200838"><ele>47.0</ele><time>2026-03-22T09:38:14Z</time></trkpt><trkpt lat="24.514120453624226" lon="120.72030888862082"><ele>47.0</ele><time>2026-03-22T09:38:16Z</time></trkpt><trkpt lat="24.514204366022717" lon="120.72037155638304"><ele>47.0</ele><time>2026-03-22T09:38:18Z</time></trkpt><trkpt lat="24.51428323520108" lon="120.72042942415807"><ele>47.0</ele><time>2026-03-22T09:38:20Z</time></trkpt><trkpt lat="24.51435728384557" lon="120.72048276517084"><ele>47.0</ele><time>2026-03-22T09:38:22Z</time></trkpt><trkpt lat="24.51443140343974" lon="120.7205360575577"><ele>47.0</ele><time>2026-03-22T09:38:24Z</time></trkpt><trkpt lat="24.51449989477579" lon="120.7205877044399"><ele>47.0</ele><time>2026-03-22T09:38:26Z</time></trkpt><trkpt lat="24.51456845459833" lon="120.7206368245708"><ele>47.0</ele><time>2026-03-22T09:38:28Z</time></trkpt><trkpt lat="24.514637230594705" lon="120.72068505624303"><ele>47.0</ele><time>2026-03-22T09:38:30Z</time></trkpt><trkpt lat="24.514706997532148" lon="120.720733109975"><ele>47.0</ele><time>2026-03-22T09:38:32Z</time></trkpt><trkpt lat="24.514774573079343" lon="120.72077996058532"><ele>47.0</ele><time>2026-03-22T09:38:34Z</time></trkpt><trkpt lat="24.514836173081264" lon="120.72082288432391"><ele>46.714285714285715</ele><time>2026-03-22T09:38:36Z</time></trkpt><trkpt lat="24.51489167405722" lon="120.72086087194307"><ele>46.42857142857143</ele><time>2026-03-22T09:38:38Z</time></trkpt><trkpt lat="24.51497315005379" lon="120.72091427263605"><ele>46.14285714285714</ele><time>2026-03-22T09:38:41Z</time></trkpt><trkpt lat="24.5150279993411" lon="120.72095066363343"><ele>45.85714285714286</ele><time>2026-03-22T09:38:43Z</time></trkpt><trkpt lat="24.515082682864072" lon="120.720988038576"><ele>45.57142857142858</ele><time>2026-03-22T09:38:45Z</time></trkpt><trkpt lat="24.515140341200677" lon="120.72102615898446"><ele>45.285714285714285</ele><time>2026-03-22T09:38:47Z</time></trkpt><trkpt lat="24.51520425131344" lon="120.72106816980563"><ele>45.0</ele><time>2026-03-22T09:38:49Z</time></trkpt><trkpt lat="24.51526558552751" lon="120.72110967438581"><ele>45.42857142857142</ele><time>2026-03-22T09:38:51Z</time></trkpt><trkpt lat="24.515325576273867" lon="120.72114959812843"><ele>45.85714285714286</ele><time>2026-03-22T09:38:53Z</time></trkpt><trkpt lat="24.515390134796583" lon="120.72119212562606"><ele>46.285714285714285</ele><time>2026-03-22T09:38:55Z</time></trkpt><trkpt lat="24.515445316459182" lon="120.72122841266632"><ele>46.71428571428571</ele><time>2026-03-22T09:38:57Z</time></trkpt><trkpt lat="24.515503940579563" lon="120.72126592927262"><ele>47.14285714285714</ele><time>2026-03-22T09:39:01Z</time></trkpt><trkpt lat="24.51556188533411" lon="120.72130345454475"><ele>47.57142857142857</ele><time>2026-03-22T09:39:05Z</time></trkpt><trkpt lat="24.51562267556349" lon="120.7213440266392"><ele>48.0</ele><time>2026-03-22T09:39:07Z</time></trkpt><trkpt lat="24.515684912353688" lon="120.72138476956427"><ele>48.0</ele><time>2026-03-22T09:39:09Z</time></trkpt><trkpt lat="24.51575185246024" lon="120.72142687573597"><ele>48.0</ele><time>2026-03-22T09:39:11Z</time></trkpt><trkpt lat="24.515830628520444" lon="120.72147579346532"><ele>48.0</ele><time>2026-03-22T09:39:13Z</time></trkpt><trkpt lat="24.515910948615712" lon="120.72152545514399"><ele>48.0</ele><time>2026-03-22T09:39:15Z</time></trkpt><trkpt lat="24.515982284496832" lon="120.72157091975768"><ele>48.0</ele><time>2026-03-22T09:39:17Z</time></trkpt><trkpt lat="24.51604525136415" lon="120.72160981194452"><ele>48.0</ele><time>2026-03-22T09:39:19Z</time></trkpt><trkpt lat="24.516126116488763" lon="120.72165932658098"><ele>48.0</ele><time>2026-03-22T09:39:22Z</time></trkpt><trkpt lat="24.51620110498292" lon="120.72170566712691"><ele>48.0</ele><time>2026-03-22T09:39:25Z</time></trkpt><trkpt lat="24.5162697886257" lon="120.7217472938442"><ele>48.0</ele><time>2026-03-22T09:39:29Z</time></trkpt><trkpt lat="24.516329720970464" lon="120.72178164190338"><ele>48.0</ele><time>2026-03-22T09:39:34Z</time></trkpt><trkpt lat="24.516385481145736" lon="120.72181429021828"><ele>48.0</ele><time>2026-03-22T09:39:39Z</time></trkpt><trkpt lat="24.516456722895548" lon="120.721860630238"><ele>48.0</ele><time>2026-03-22T09:40:05Z</time></trkpt><trkpt lat="24.51652671808113" lon="120.72190353273193"><ele>50.2</ele><time>2026-03-22T09:40:08Z</time></trkpt><trkpt lat="24.516592771452842" lon="120.72194246729693"><ele>52.4</ele><time>2026-03-22T09:40:10Z</time></trkpt><trkpt lat="24.51667274421569" lon="120.72198796433717"><ele>54.60000000000001</ele><time>2026-03-22T09:40:12Z</time></trkpt><trkpt lat="24.51675836196328" lon="120.72203703636558"><ele>56.800000000000004</ele><time>2026-03-22T09:40:14Z</time></trkpt><trkpt lat="24.516846261802037" lon="120.7220878466845"><ele>59.0</ele><time>2026-03-22T09:40:16Z</time></trkpt><trkpt lat="24.516927081194975" lon="120.72213461050976"><ele>59.0</ele><time>2026-03-22T09:40:18Z</time></trkpt><trkpt lat="24.516999026637556" lon="120.7221774500342"><ele>59.0</ele><time>2026-03-22T09:40:20Z</time></trkpt><trkpt lat="24.517066454163714" lon="120.72221831036829"><ele>59.0</ele><time>2026-03-22T09:40:23Z</time></trkpt><trkpt lat="24.51713418329027" lon="120.72225779891518"><ele>59.0</ele><time>2026-03-22T09:40:27Z</time></trkpt><trkpt lat="24.517196463966354" lon="120.72229346757258"><ele>59.0</ele><time>2026-03-22T09:40:30Z</time></trkpt><trkpt lat="24.517261497643844" lon="120.722331895588"><ele>59.0</ele><time>2026-03-22T09:40:33Z</time></trkpt><trkpt lat="24.517322949864102" lon="120.7223672660139"><ele>59.0</ele><time>2026-03-22T09:40:36Z</time></trkpt><trkpt lat="24.51739821228183" lon="120.72240926448076"><ele>56.833333333333336</ele><time>2026-03-22T09:40:40Z</time></trkpt><trkpt lat="24.51747522628116" lon="120.72245219716339"><ele>54.66666666666667</ele><time>2026-03-22T09:40:43Z</time></trkpt><trkpt lat="24.5175343724201" lon="120.72248483266868"><ele>52.5</ele><time>2026-03-22T09:40:45Z</time></trkpt><trkpt lat="24.517607832707625" lon="120.72252712596482"><ele>50.333333333333336</ele><time>2026-03-22T09:40:48Z</time></trkpt><trkpt lat="24.517681043452416" lon="120.72256937141589"><ele>48.16666666666667</ele><time>2026-03-22T09:40:52Z</time></trkpt><trkpt lat="24.51774880000406" lon="120.72260770515882"><ele>46.0</ele><time>2026-03-22T09:40:56Z</time></trkpt><trkpt lat="24.51780831912205" lon="120.72264216174574"><ele>46.0</ele><time>2026-03-22T09:41:00Z</time></trkpt><trkpt lat="24.517878200262782" lon="120.72268291702281"><ele>46.0</ele><time>2026-03-22T09:41:04Z</time></trkpt><trkpt lat="24.51794420398775" lon="120.72272104918518"><ele>46.0</ele><time>2026-03-22T09:41:07Z</time></trkpt><trkpt lat="24.51800908357682" lon="120.72275656417585"><ele>46.0</ele><time>2026-03-22T09:41:10Z</time></trkpt><trkpt lat="24.51807686757099" lon="120.7227958872096"><ele>46.0</ele><time>2026-03-22T09:41:14Z</time></trkpt><trkpt lat="24.51815212263229" lon="120.72283781147542"><ele>46.0</ele><time>2026-03-22T09:41:17Z</time></trkpt><trkpt lat="24.51821012122208" lon="120.7228685925874"><ele>47.57142857142857</ele><time>2026-03-22T09:41:19Z</time></trkpt><trkpt lat="24.518273491369467" lon="120.7229040158728"><ele>49.14285714285714</ele><time>2026-03-22T09:41:21Z</time></trkpt><trkpt lat="24.518340410937032" lon="120.72294187262123"><ele>50.71428571428571</ele><time>2026-03-22T09:41:23Z</time></trkpt><trkpt lat="24.518408131753286" lon="120.72297927703987"><ele>52.285714285714285</ele><time>2026-03-22T09:41:25Z</time></trkpt><trkpt lat="24.51846535532448" lon="120.72301166504566"><ele>53.85714285714285</ele><time>2026-03-22T09:41:27Z</time></trkpt><trkpt lat="24.51853312902001" lon="120.72304959081603"><ele>55.42857142857142</ele><time>2026-03-22T09:41:30Z</time></trkpt><trkpt lat="24.518590777198014" lon="120.72308247103159"><ele>57.0</ele><time>2026-03-22T09:41:33Z</time></trkpt><trkpt lat="24.51864918861866" lon="120.72311549661404"><ele>57.0</ele><time>2026-03-22T09:41:36Z</time></trkpt><trkpt lat="24.51871207301447" lon="120.72315021389299"><ele>56.99999999999999</ele><time>2026-03-22T09:41:39Z</time></trkpt><trkpt lat="24.518767997397852" lon="120.72318222436685"><ele>57.0</ele><time>2026-03-22T09:41:42Z</time></trkpt><trkpt lat="24.518826170950287" lon="120.72321529425747"><ele>57.0</ele><time>2026-03-22T09:41:45Z</time></trkpt><trkpt lat="24.518898144832153" lon="120.7232545515843"><ele>56.99999999999999</ele><time>2026-03-22T09:41:48Z</time></trkpt><trkpt lat="24.518976084643427" lon="120.72329910947863"><ele>57.0</ele><time>2026-03-22T09:41:51Z</time></trkpt><trkpt lat="24.519041507335665" lon="120.72333637288101"><ele>57.0</ele><time>2026-03-22T09:41:54Z</time></trkpt><trkpt lat="24.519099624151153" lon="120.72337017296537"><ele>55.857142857142854</ele><time>2026-03-22T09:41:57Z</time></trkpt><trkpt lat="24.519157060353344" lon="120.72340227832404"><ele>54.71428571428571</ele><time>2026-03-22T09:42:00Z</time></trkpt><trkpt lat="24.519215586794946" lon="120.72343260555148"><ele>53.57142857142857</ele><time>2026-03-22T09:42:05Z</time></trkpt><trkpt lat="24.519277566048494" lon="120.7234679985386"><ele>52.42857142857143</ele><time>2026-03-22T09:42:10Z</time></trkpt><trkpt lat="24.519337448421535" lon="120.72350121072546"><ele>51.285714285714285</ele><time>2026-03-22T09:42:14Z</time></trkpt><trkpt lat="24.519396428328854" lon="120.72353613994487"><ele>50.14285714285714</ele><time>2026-03-22T09:42:18Z</time></trkpt><trkpt lat="24.51945811848713" lon="120.72357025416605"><ele>49.0</ele><time>2026-03-22T09:42:22Z</time></trkpt><trkpt lat="24.51951711039975" lon="120.7236019745091"><ele>46.99999999999999</ele><time>2026-03-22T09:42:26Z</time></trkpt><trkpt lat="24.51957654217875" lon="120.72363229154581"><ele>45.0</ele><time>2026-03-22T09:42:30Z</time></trkpt><trkpt lat="24.519645623932316" lon="120.7236701696655"><ele>43.0</ele><time>2026-03-22T09:42:34Z</time></trkpt><trkpt lat="24.519707506157463" lon="120.72370449932163"><ele>41.0</ele><time>2026-03-22T09:42:36Z</time></trkpt><trkpt lat="24.51978371708048" lon="120.72374769699185"><ele>39.0</ele><time>2026-03-22T09:42:38Z</time></trkpt><trkpt lat="24.519860483844916" lon="120.72379127555222"><ele>37.0</ele><time>2026-03-22T09:42:40Z</time></trkpt><trkpt lat="24.51993742124872" lon="120.72383404100256"><ele>37.0</ele><time>2026-03-22T09:42:42Z</time></trkpt><trkpt lat="24.520013457960573" lon="120.72387557021618"><ele>37.0</ele><time>2026-03-22T09:42:44Z</time></trkpt><trkpt lat="24.520082634610393" lon="120.72391463666037"><ele>37.0</ele><time>2026-03-22T09:42:46Z</time></trkpt><trkpt lat="24.52014237556873" lon="120.72395071257424"><ele>37.0</ele><time>2026-03-22T09:42:49Z</time></trkpt><trkpt lat="24.520207969635603" lon="120.72398729392779"><ele>37.0</ele><time>2026-03-22T09:42:54Z</time></trkpt><trkpt lat="24.52027299534972" lon="120.72402233420561"><ele>37.0</ele><time>2026-03-22T09:42:58Z</time></trkpt><trkpt lat="24.520353097775796" lon="120.72406660578106"><ele>38.42857142857143</ele><time>2026-03-22T09:43:01Z</time></trkpt><trkpt lat="24.520413696858665" lon="120.7241005546235"><ele>39.857142857142854</ele><time>2026-03-22T09:43:03Z</time></trkpt><trkpt lat="24.520474035566828" lon="120.72413361917609"><ele>41.285714285714285</ele><time>2026-03-22T09:43:05Z</time></trkpt><trkpt lat="24.52053129794034" lon="120.72416552570226"><ele>42.714285714285715</ele><time>2026-03-22T09:43:07Z</time></trkpt><trkpt lat="24.520593959715047" lon="120.72419977426696"><ele>44.14285714285714</ele><time>2026-03-22T09:43:09Z</time></trkpt><trkpt lat="24.520656881866348" lon="120.7242358679232"><ele>45.57142857142857</ele><time>2026-03-22T09:43:11Z</time></trkpt><trkpt lat="24.520718673179392" lon="120.72427103646548"><ele>47.0</ele><time>2026-03-22T09:43:13Z</time></trkpt><trkpt lat="24.520783364006878" lon="120.72430827074727"><ele>47.0</ele><time>2026-03-22T09:43:15Z</time></trkpt><trkpt lat="24.520850815154972" lon="120.72434677113549"><ele>47.0</ele><time>2026-03-22T09:43:17Z</time></trkpt><trkpt lat="24.52092537100473" lon="120.72438947110305"><ele>47.0</ele><time>2026-03-22T09:43:19Z</time></trkpt><trkpt lat="24.521002261985043" lon="120.72443491682905"><ele>47.0</ele><time>2026-03-22T09:43:21Z</time></trkpt><trkpt lat="24.521083786765296" lon="120.724482494882"><ele>47.0</ele><time>2026-03-22T09:43:23Z</time></trkpt><trkpt lat="24.521167841168598" lon="120.72453219355276"><ele>47.0</ele><time>2026-03-22T09:43:25Z</time></trkpt><trkpt lat="24.521259408943674" lon="120.72458789664073"><ele>47.400000000000006</ele><time>2026-03-22T09:43:27Z</time></trkpt><trkpt lat="24.52135569546392" lon="120.72464587723053"><ele>47.800000000000004</ele><time>2026-03-22T09:43:29Z</time></trkpt><trkpt lat="24.521451611468024" lon="120.7247048491328"><ele>48.2</ele><time>2026-03-22T09:43:31Z</time></trkpt><trkpt lat="24.52154788276766" lon="120.72476074813355"><ele>48.6</ele><time>2026-03-22T09:43:33Z</time></trkpt><trkpt lat="24.52164108209641" lon="120.72481852441979"><ele>49.0</ele><time>2026-03-22T09:43:35Z</time></trkpt><trkpt lat="24.521739959915188" lon="120.72487841227353"><ele>49.0</ele><time>2026-03-22T09:43:37Z</time></trkpt><trkpt lat="24.521842094265242" lon="120.7249405040804"><ele>49.0</ele><time>2026-03-22T09:43:39Z</time></trkpt><trkpt lat="24.521942698782173" lon="120.72500237598055"><ele>49.0</ele><time>2026-03-22T09:43:41Z</time></trkpt><trkpt lat="24.522042195155993" lon="120.7250629851219"><ele>49.0</ele><time>2026-03-22T09:43:43Z</time></trkpt><trkpt lat="24.522140501848508" lon="120.72512668560681"><ele>51.400000000000006</ele><time>2026-03-22T09:43:45Z</time></trkpt><trkpt lat="24.522228384838503" lon="120.72518302131724"><ele>53.8</ele><time>2026-03-22T09:43:47Z</time></trkpt><trkpt lat="24.522308642131662" lon="120.72523416817879"><ele>56.199999999999996</ele><time>2026-03-22T09:43:49Z</time></trkpt><trkpt lat="24.522395779588052" lon="120.72528902943155"><ele>58.599999999999994</ele><time>2026-03-22T09:43:51Z</time></trkpt><trkpt lat="24.522499891614636" lon="120.72535456893617"><ele>61.0</ele><time>2026-03-22T09:43:53Z</time></trkpt><trkpt lat="24.52255639315252" lon="120.72539072097997"><ele>60.99999999999999</ele><time>2026-03-22T09:43:54Z</time></trkpt><trkpt lat="24.5226135407614" lon="120.72542703971574"><ele>61.0</ele><time>2026-03-22T09:43:55Z</time></trkpt><trkpt lat="24.522672680902357" lon="120.72546441616983"><ele>60.99999999999999</ele><time>2026-03-22T09:43:56Z</time></trkpt><trkpt lat="24.522729508623925" lon="120.72550135782095"><ele>60.99999999999999</ele><time>2026-03-22T09:43:57Z</time></trkpt><trkpt lat="24.522786995148394" lon="120.72553771334962"><ele>61.0</ele><time>2026-03-22T09:43:58Z</time></trkpt><trkpt lat="24.522846253579328" lon="120.72557525866571"><ele>60.99999999999999</ele><time>2026-03-22T09:43:59Z</time></trkpt><trkpt lat="24.52290566884808" lon="120.72561448565602"><ele>60.99999999999999</ele><time>2026-03-22T09:44:00Z</time></trkpt><trkpt lat="24.52296753726034" lon="120.72565556859725"><ele>58.33333333333333</ele><time>2026-03-22T09:44:01Z</time></trkpt><trkpt lat="24.523032023446227" lon="120.72569911412529"><ele>55.666666666666664</ele><time>2026-03-22T09:44:02Z</time></trkpt><trkpt lat="24.523098320351885" lon="120.72574404438008"><ele>53.0</ele><time>2026-03-22T09:44:03Z</time></trkpt><trkpt lat="24.523166558911498" lon="120.72579185374245"><ele>50.33333333333333</ele><time>2026-03-22T09:44:04Z</time></trkpt><trkpt lat="24.523233777181332" lon="120.72583752619539"><ele>47.666666666666664</ele><time>2026-03-22T09:44:05Z</time></trkpt><trkpt lat="24.523297801472832" lon="120.72588152104679"><ele>45.0</ele><time>2026-03-22T09:44:06Z</time></trkpt><trkpt lat="24.523363081986805" lon="120.7259266067579"><ele>45.0</ele><time>2026-03-22T09:44:07Z</time></trkpt><trkpt lat="24.52342978818139" lon="120.72597300201737"><ele>45.0</ele><time>2026-03-22T09:44:08Z</time></trkpt><trkpt lat="24.523496658448984" lon="120.72602069578922"><ele>45.0</ele><time>2026-03-22T09:44:09Z</time></trkpt><trkpt lat="24.523564952414493" lon="120.72607066173705"><ele>45.0</ele><time>2026-03-22T09:44:10Z</time></trkpt><trkpt lat="24.523636162652" lon="120.72612238865045"><ele>45.0</ele><time>2026-03-22T09:44:11Z</time></trkpt><trkpt lat="24.523709662803256" lon="120.72617662851994"><ele>45.0</ele><time>2026-03-22T09:44:12Z</time></trkpt><trkpt lat="24.523784824793314" lon="120.7262323550001"><ele>44.0</ele><time>2026-03-22T09:44:13Z</time></trkpt><trkpt lat="24.52386001418071" lon="120.72628899998581"><ele>43.0</ele><time>2026-03-22T09:44:14Z</time></trkpt><trkpt lat="24.523937204854334" lon="120.72634653589785"><ele>42.0</ele><time>2026-03-22T09:44:15Z</time></trkpt><trkpt lat="24.5240153859484" lon="120.72640500154881"><ele>41.0</ele><time>2026-03-22T09:44:16Z</time></trkpt><trkpt lat="24.524095402643116" lon="120.72646414144569"><ele>40.0</ele><time>2026-03-22T09:44:17Z</time></trkpt><trkpt lat="24.524175211822953" lon="120.726525795978"><ele>40.0</ele><time>2026-03-22T09:44:18Z</time></trkpt><trkpt lat="24.524256409638397" lon="120.72658805482659"><ele>40.0</ele><time>2026-03-22T09:44:19Z</time></trkpt><trkpt lat="24.524337919004402" lon="120.72665053237387"><ele>40.0</ele><time>2026-03-22T09:44:20Z</time></trkpt><trkpt lat="24.524420723469234" lon="120.72671431155818"><ele>40.0</ele><time>2026-03-22T09:44:21Z</time></trkpt><trkpt lat="24.524503843658792" lon="120.72677983809601"><ele>40.0</ele><time>2026-03-22T09:44:22Z</time></trkpt><trkpt lat="24.524587559499903" lon="120.72684538175729"><ele>45.8</ele><time>2026-03-22T09:44:23Z</time></trkpt><trkpt lat="24.524669057755204" lon="120.72691223656581"><ele>51.6</ele><time>2026-03-22T09:44:24Z</time></trkpt><trkpt lat="24.52474730369861" lon="120.72697549149548"><ele>57.400000000000006</ele><time>2026-03-22T09:44:25Z</time></trkpt><trkpt lat="24.52482356021957" lon="120.72703953686279"><ele>63.2</ele><time>2026-03-22T09:44:26Z</time></trkpt><trkpt lat="24.52489833508387" lon="120.72710110814666"><ele>69.0</ele><time>2026-03-22T09:44:27Z</time></trkpt><trkpt lat="24.524970587696796" lon="120.72716182532841"><ele>69.0</ele><time>2026-03-22T09:44:28Z</time></trkpt><trkpt lat="24.5250427468757" lon="120.72721985855216"><ele>69.0</ele><time>2026-03-22T09:44:29Z</time></trkpt><trkpt lat="24.525112163431167" lon="120.72727780342271"><ele>69.0</ele><time>2026-03-22T09:44:30Z</time></trkpt><trkpt lat="24.525180753502973" lon="120.7273336565155"><ele>69.0</ele><time>2026-03-22T09:44:31Z</time></trkpt><trkpt lat="24.52524850404398" lon="120.72739068851695"><ele>69.0</ele><time>2026-03-22T09:44:32Z</time></trkpt><trkpt lat="24.52531627182753" lon="120.72744808297033"><ele>69.0</ele><time>2026-03-22T09:44:33Z</time></trkpt><trkpt lat="24.5253863769564" lon="120.72750603370953"><ele>68.60000000000001</ele><time>2026-03-22T09:44:34Z</time></trkpt><trkpt lat="24.525458586422328" lon="120.72756724336253"><ele>68.2</ele><time>2026-03-22T09:44:35Z</time></trkpt><trkpt lat="24.525531388555006" lon="120.72763149385784"><ele>67.80000000000001</ele><time>2026-03-22T09:44:36Z</time></trkpt><trkpt lat="24.525607241407737" lon="120.72769573166566"><ele>67.4</ele><time>2026-03-22T09:44:37Z</time></trkpt><trkpt lat="24.525682001922117" lon="120.72776143624803"><ele>67.0</ele><time>2026-03-22T09:44:38Z</time></trkpt><trkpt lat="24.525754377179148" lon="120.72782608379228"><ele>67.8</ele><time>2026-03-22T09:44:39Z</time></trkpt><trkpt lat="24.52582758540878" lon="120.72789127527864"><ele>68.6</ele><time>2026-03-22T09:44:40Z</time></trkpt><trkpt lat="24.5259034236529" lon="120.72795993377187"><ele>69.39999999999999</ele><time>2026-03-22T09:44:41Z</time></trkpt><trkpt lat="24.52598192571231" lon="120.72802949325217"><ele>70.2</ele><time>2026-03-22T09:44:42Z</time></trkpt><trkpt lat="24.526059862238586" lon="120.72809906726442"><ele>71.0</ele><time>2026-03-22T09:44:43Z</time></trkpt><trkpt lat="24.52613675616741" lon="120.728169986697"><ele>71.0</ele><time>2026-03-22T09:44:44Z</time></trkpt><trkpt lat="24.52621431608967" lon="120.72824110314092"><ele>71.0</ele><time>2026-03-22T09:44:45Z</time></trkpt><trkpt lat="24.52629134789318" lon="120.72831280177526"><ele>71.0</ele><time>2026-03-22T09:44:46Z</time></trkpt><trkpt lat="24.52636960639972" lon="120.72838364427825"><ele>71.0</ele><time>2026-03-22T09:44:47Z</time></trkpt><trkpt lat="24.52644601277763" lon="120.72845516106119"><ele>71.0</ele><time>2026-03-22T09:44:48Z</time></trkpt><trkpt lat="24.526519682513225" lon="120.72852559659312"><ele>68.6</ele><time>2026-03-22T09:44:49Z</time></trkpt><trkpt lat="24.526593982243057" lon="120.72859632975005"><ele>66.19999999999999</ele><time>2026-03-22T09:44:50Z</time></trkpt><trkpt lat="24.52666754793457" lon="120.7286680276601"><ele>63.800000000000004</ele><time>2026-03-22T09:44:51Z</time></trkpt><trkpt lat="24.52673900593027" lon="120.72873832844998"><ele>61.400000000000006</ele><time>2026-03-22T09:44:52Z</time></trkpt><trkpt lat="24.526807722277237" lon="120.72880695050465"><ele>59.0</ele><time>2026-03-22T09:44:53Z</time></trkpt><trkpt lat="24.52687388343361" lon="120.72887239595866"><ele>59.00000000000001</ele><time>2026-03-22T09:44:54Z</time></trkpt><trkpt lat="24.52693743930513" lon="120.72893727880196"><ele>59.0</ele><time>2026-03-22T09:44:55Z</time></trkpt><trkpt lat="24.52700051046257" lon="120.72900039246697"><ele>59.0</ele><time>2026-03-22T09:44:56Z</time></trkpt><trkpt lat="24.52706062188055" lon="120.7290626413758"><ele>59.0</ele><time>2026-03-22T09:44:57Z</time></trkpt><trkpt lat="24.527120100528336" lon="120.72912267956178"><ele>59.00000000000001</ele><time>2026-03-22T09:44:58Z</time></trkpt><trkpt lat="24.527177560016643" lon="120.7291815372397"><ele>59.0</ele><time>2026-03-22T09:44:59Z</time></trkpt><trkpt lat="24.527234893289773" lon="120.72923857118391"><ele>58.0</ele><time>2026-03-22T09:45:00Z</time></trkpt><trkpt lat="24.527290250003293" lon="120.72929424793773"><ele>57.0</ele><time>2026-03-22T09:45:01Z</time></trkpt><trkpt lat="24.527344454299502" lon="120.72934845938246"><ele>56.0</ele><time>2026-03-22T09:45:02Z</time></trkpt><trkpt lat="24.527397165360146" lon="120.72940256467301"><ele>55.0</ele><time>2026-03-22T09:45:03Z</time></trkpt><trkpt lat="24.527449466718302" lon="120.72945608167154"><ele>54.0</ele><time>2026-03-22T09:45:04Z</time></trkpt><trkpt lat="24.527500974718315" lon="120.72950927912488"><ele>53.0</ele><time>2026-03-22T09:45:05Z</time></trkpt><trkpt lat="24.527554271066826" lon="120.729564507372"><ele>52.0</ele><time>2026-03-22T09:45:06Z</time></trkpt><trkpt lat="24.52760843276249" lon="120.7296217640843"><ele>51.99999999999999</ele><time>2026-03-22T09:45:07Z</time></trkpt><trkpt lat="24.527664327027562" lon="120.72968046079357"><ele>52.0</ele><time>2026-03-22T09:45:08Z</time></trkpt><trkpt lat="24.527721389455866" lon="120.72974088463307"><ele>52.0</ele><time>2026-03-22T09:45:09Z</time></trkpt><trkpt lat="24.527780014642534" lon="120.72980178769254"><ele>52.0</ele><time>2026-03-22T09:45:10Z</time></trkpt><trkpt lat="24.527838999330317" lon="120.72986263433708"><ele>51.99999999999999</ele><time>2026-03-22T09:45:11Z</time></trkpt><trkpt lat="24.527896773257257" lon="120.72992252161394"><ele>52.0</ele><time>2026-03-22T09:45:12Z</time></trkpt><trkpt lat="24.527953553732047" lon="120.72998190850588"><ele>54.666666666666664</ele><time>2026-03-22T09:45:13Z</time></trkpt><trkpt lat="24.528010318194127" lon="120.73004090346772"><ele>57.33333333333333</ele><time>2026-03-22T09:45:14Z</time></trkpt><trkpt lat="24.528066754396626" lon="120.73010012876803"><ele>60.0</ele><time>2026-03-22T09:45:15Z</time></trkpt><trkpt lat="24.528122436911868" lon="120.73015998272265"><ele>62.66666666666667</ele><time>2026-03-22T09:45:16Z</time></trkpt><trkpt lat="24.528178496257944" lon="120.73022027178328"><ele>65.33333333333334</ele><time>2026-03-22T09:45:17Z</time></trkpt><trkpt lat="24.528235343957377" lon="120.7302804949447"><ele>68.0</ele><time>2026-03-22T09:45:18Z</time></trkpt><trkpt lat="24.528291267068308" lon="120.73034052159215"><ele>68.14285714285714</ele><time>2026-03-22T09:45:19Z</time></trkpt><trkpt lat="24.528347275862423" lon="120.73040089852387"><ele>68.28571428571428</ele><time>2026-03-22T09:45:20Z</time></trkpt><trkpt lat="24.52840171560228" lon="120.73045994161428"><ele>68.42857142857143</ele><time>2026-03-22T09:45:21Z</time></trkpt><trkpt lat="24.528453652167535" lon="120.73051758739794"><ele>68.57142857142857</ele><time>2026-03-22T09:45:22Z</time></trkpt><trkpt lat="24.528505322485415" lon="120.730573628838"><ele>68.71428571428572</ele><time>2026-03-22T09:45:23Z</time></trkpt><trkpt lat="24.52855553086622" lon="120.73062902313458"><ele>68.85714285714286</ele><time>2026-03-22T09:45:24Z</time></trkpt><trkpt lat="24.528603677379202" lon="120.73068141007282"><ele>69.0</ele><time>2026-03-22T09:45:25Z</time></trkpt><trkpt lat="24.528649462594714" lon="120.73073191158522"><ele>69.0</ele><time>2026-03-22T09:45:26Z</time></trkpt><trkpt lat="24.528694548602854" lon="120.73078100080046"><ele>69.0</ele><time>2026-03-22T09:45:27Z</time></trkpt><trkpt lat="24.52878056806113" lon="120.73087467310984"><ele>69.0</ele><time>2026-03-22T09:45:29Z</time></trkpt><trkpt lat="24.528860894644314" lon="120.7309622585713"><ele>69.0</ele><time>2026-03-22T09:45:31Z</time></trkpt><trkpt lat="24.528943155950607" lon="120.73105098027948"><ele>69.0</ele><time>2026-03-22T09:45:33Z</time></trkpt><trkpt lat="24.52902570264766" lon="120.73114082278992"><ele>68.16666666666667</ele><time>2026-03-22T09:45:35Z</time></trkpt><trkpt lat="24.529097824832988" lon="120.73121963994572"><ele>67.33333333333333</ele><time>2026-03-22T09:45:37Z</time></trkpt><trkpt lat="24.529153046897346" lon="120.73127873003061"><ele>66.5</ele><time>2026-03-22T09:45:39Z</time></trkpt><trkpt lat="24.529218076466886" lon="120.73134760287776"><ele>65.66666666666666</ele><time>2026-03-22T09:45:42Z</time></trkpt><trkpt lat="24.52927511010458" lon="120.73140769249842"><ele>64.83333333333333</ele><time>2026-03-22T09:45:45Z</time></trkpt><trkpt lat="24.529324612213145" lon="120.73146069483101"><ele>64.0</ele><time>2026-03-22T09:45:47Z</time></trkpt><trkpt lat="24.529383966678676" lon="120.73152368184323"><ele>64.0</ele><time>2026-03-22T09:45:49Z</time></trkpt><trkpt lat="24.529439811096015" lon="120.73158455147502"><ele>63.99999999999999</ele><time>2026-03-22T09:45:51Z</time></trkpt><trkpt lat="24.529491229303652" lon="120.73164078272941"><ele>64.0</ele><time>2026-03-22T09:45:53Z</time></trkpt><trkpt lat="24.52953908120974" lon="120.73169334890001"><ele>64.0</ele><time>2026-03-22T09:45:55Z</time></trkpt><trkpt lat="24.529602366568582" lon="120.73176139809371"><ele>63.99999999999999</ele><time>2026-03-22T09:45:58Z</time></trkpt><trkpt lat="24.529654575694337" lon="120.73181663593013"><ele>64.0</ele><time>2026-03-22T09:46:01Z</time></trkpt><trkpt lat="24.529704048135866" lon="120.73187053695099"><ele>64.0</ele><time>2026-03-22T09:46:04Z</time></trkpt><trkpt lat="24.529753655471033" lon="120.73192381933025"><ele>65.66666666666666</ele><time>2026-03-22T09:46:08Z</time></trkpt><trkpt lat="24.52980331526098" lon="120.7319800071984"><ele>67.33333333333333</ele><time>2026-03-22T09:46:11Z</time></trkpt><trkpt lat="24.5298680289002" lon="120.73204948713139"><ele>69.0</ele><time>2026-03-22T09:46:14Z</time></trkpt><trkpt lat="24.529917962540893" lon="120.73210239971951"><ele>70.66666666666667</ele><time>2026-03-22T09:46:16Z</time></trkpt><trkpt lat="24.52996326153494" lon="120.73215170373268"><ele>72.33333333333334</ele><time>2026-03-22T09:46:18Z</time></trkpt><trkpt lat="24.5300269438997" lon="120.73222181854209"><ele>74.0</ele><time>2026-03-22T09:46:21Z</time></trkpt><trkpt lat="24.53007479059951" lon="120.73227311064495"><ele>74.0</ele><time>2026-03-22T09:46:23Z</time></trkpt><trkpt lat="24.530128335397073" lon="120.73233021080627"><ele>74.0</ele><time>2026-03-22T09:46:25Z</time></trkpt><trkpt lat="24.530178771066897" lon="120.73238518893478"><ele>74.0</ele><time>2026-03-22T09:46:27Z</time></trkpt><trkpt lat="24.530226699371273" lon="120.73243882459717"><ele>74.0</ele><time>2026-03-22T09:46:30Z</time></trkpt><trkpt lat="24.53028832319168" lon="120.73250791382021"><ele>74.0</ele><time>2026-03-22T09:46:34Z</time></trkpt><trkpt lat="24.530338743559103" lon="120.73256115589186"><ele>74.0</ele><time>2026-03-22T09:46:36Z</time></trkpt><trkpt lat="24.530389579061175" lon="120.73261759854647"><ele>74.0</ele><time>2026-03-22T09:46:38Z</time></trkpt><trkpt lat="24.53045297338352" lon="120.73268443308766"><ele>71.16666666666667</ele><time>2026-03-22T09:46:40Z</time></trkpt><trkpt lat="24.530512984644645" lon="120.73274858098128"><ele>68.33333333333334</ele><time>2026-03-22T09:46:42Z</time></trkpt><trkpt lat="24.530569926933826" lon="120.73280848356434"><ele>65.5</ele><time>2026-03-22T09:46:44Z</time></trkpt><trkpt lat="24.53062755700149" lon="120.73287155613396"><ele>62.66666666666667</ele><time>2026-03-22T09:46:46Z</time></trkpt><trkpt lat="24.530696454858674" lon="120.7329447259564"><ele>59.833333333333336</ele><time>2026-03-22T09:46:48Z</time></trkpt><trkpt lat="24.53076861948885" lon="120.73302180563968"><ele>57.0</ele><time>2026-03-22T09:46:50Z</time></trkpt><trkpt lat="24.530835562775405" lon="120.73309264475739"><ele>57.0</ele><time>2026-03-22T09:46:52Z</time></trkpt><trkpt lat="24.53089482447048" lon="120.73315542508676"><ele>57.0</ele><time>2026-03-22T09:46:54Z</time></trkpt><trkpt lat="24.530942321530482" lon="120.73320910047092"><ele>57.0</ele><time>2026-03-22T09:46:56Z</time></trkpt><trkpt lat="24.531000614991633" lon="120.7332708009223"><ele>57.0</ele><time>2026-03-22T09:46:59Z</time></trkpt><trkpt lat="24.531064489050898" lon="120.73333838738908"><ele>57.0</ele><time>2026-03-22T09:47:02Z</time></trkpt><trkpt lat="24.53112713408751" lon="120.73341059273231"><ele>57.0</ele><time>2026-03-22T09:47:05Z</time></trkpt><trkpt lat="24.53119619459155" lon="120.7334790078437"><ele>56.5</ele><time>2026-03-22T09:47:07Z</time></trkpt><trkpt lat="24.531264361559057" lon="120.73354670059773"><ele>56.0</ele><time>2026-03-22T09:47:09Z</time></trkpt><trkpt lat="24.531328285908728" lon="120.73361017956923"><ele>55.5</ele><time>2026-03-22T09:47:11Z</time></trkpt><trkpt lat="24.5313848625281" lon="120.73366746304015"><ele>55.0</ele><time>2026-03-22T09:47:13Z</time></trkpt><trkpt lat="24.53143328072582" lon="120.7337187864431"><ele>54.5</ele><time>2026-03-22T09:47:15Z</time></trkpt><trkpt lat="24.531481952460958" lon="120.7337713961086"><ele>54.0</ele><time>2026-03-22T09:47:17Z</time></trkpt><trkpt lat="24.531540929873735" lon="120.73383252414789"><ele>57.400000000000006</ele><time>2026-03-22T09:47:19Z</time></trkpt><trkpt lat="24.53160554460368" lon="120.73389924328899"><ele>60.800000000000004</ele><time>2026-03-22T09:47:21Z</time></trkpt><trkpt lat="24.531668044226542" lon="120.73396327787218"><ele>64.19999999999999</ele><time>2026-03-22T09:47:23Z</time></trkpt><trkpt lat="24.531733470483758" lon="120.73403120866355"><ele>67.6</ele><time>2026-03-22T09:47:25Z</time></trkpt><trkpt lat="24.531806023270455" lon="120.73410511083148"><ele>71.0</ele><time>2026-03-22T09:47:27Z</time></trkpt><trkpt lat="24.531873616492746" lon="120.734173901503"><ele>71.0</ele><time>2026-03-22T09:47:29Z</time></trkpt><trkpt lat="24.531937265872738" lon="120.73424070919789"><ele>71.0</ele><time>2026-03-22T09:47:31Z</time></trkpt><trkpt lat="24.531999018145942" lon="120.73430474787806"><ele>71.0</ele><time>2026-03-22T09:47:33Z</time></trkpt><trkpt lat="24.532057942298877" lon="120.73436561932637"><ele>71.0</ele><time>2026-03-22T09:47:35Z</time></trkpt><trkpt lat="24.532119073737405" lon="120.73442852963166"><ele>71.0</ele><time>2026-03-22T09:47:37Z</time></trkpt><trkpt lat="24.532178684040037" lon="120.73448937875985"><ele>71.0</ele><time>2026-03-22T09:47:39Z</time></trkpt><trkpt lat="24.532235773427075" lon="120.73454834934421"><ele>72.0</ele><time>2026-03-22T09:47:41Z</time></trkpt><trkpt lat="24.532298073908194" lon="120.73461283628536"><ele>73.0</ele><time>2026-03-22T09:47:43Z</time></trkpt><trkpt lat="24.532370435339327" lon="120.734684894203"><ele>74.0</ele><time>2026-03-22T09:47:45Z</time></trkpt><trkpt lat="24.532448987994457" lon="120.73476283972762"><ele>75.0</ele><time>2026-03-22T09:47:47Z</time></trkpt><trkpt lat="24.532531367248108" lon="120.73484544355065"><ele>76.0</ele><time>2026-03-22T09:47:49Z</time></trkpt><trkpt lat="24.532616314019467" lon="120.73493107814186"><ele>76.0</ele><time>2026-03-22T09:47:51Z</time></trkpt><trkpt lat="24.532703062705743" lon="120.73501771668529"><ele>76.0</ele><time>2026-03-22T09:47:53Z</time></trkpt><trkpt lat="24.532787491461768" lon="120.73510067780306"><ele>76.0</ele><time>2026-03-22T09:47:55Z</time></trkpt><trkpt lat="24.53286888283058" lon="120.73518161612962"><ele>76.0</ele><time>2026-03-22T09:47:57Z</time></trkpt><trkpt lat="24.532947380158777" lon="120.73525742792116"><ele>76.0</ele><time>2026-03-22T09:47:59Z</time></trkpt><trkpt lat="24.533022520748407" lon="120.73533058781429"><ele>74.0</ele><time>2026-03-22T09:48:01Z</time></trkpt><trkpt lat="24.533096149860945" lon="120.7354011856991"><ele>72.0</ele><time>2026-03-22T09:48:03Z</time></trkpt><trkpt lat="24.53316539753951" lon="120.73546909782017"><ele>70.0</ele><time>2026-03-22T09:48:05Z</time></trkpt><trkpt lat="24.53323562340766" lon="120.73553721212954"><ele>68.0</ele><time>2026-03-22T09:48:07Z</time></trkpt><trkpt lat="24.533309574132673" lon="120.73560763397256"><ele>66.0</ele><time>2026-03-22T09:48:09Z</time></trkpt><trkpt lat="24.533386983930445" lon="120.7356816484664"><ele>66.0</ele><time>2026-03-22T09:48:11Z</time></trkpt><trkpt lat="24.533470988054066" lon="120.73576166606716"><ele>66.0</ele><time>2026-03-22T09:48:13Z</time></trkpt><trkpt lat="24.533563631707956" lon="120.73584804274753"><ele>66.0</ele><time>2026-03-22T09:48:15Z</time></trkpt><trkpt lat="24.533658011896115" lon="120.73593348648176"><ele>66.0</ele><time>2026-03-22T09:48:17Z</time></trkpt><trkpt lat="24.533751025836185" lon="120.73601799560765"><ele>65.5</ele><time>2026-03-22T09:48:19Z</time></trkpt><trkpt lat="24.53384197659182" lon="120.73610024524376"><ele>65.0</ele><time>2026-03-22T09:48:21Z</time></trkpt><trkpt lat="24.53393107692622" lon="120.73617989052775"><ele>64.5</ele><time>2026-03-22T09:48:23Z</time></trkpt><trkpt lat="24.534016834539887" lon="120.7362580449343"><ele>64.0</ele><time>2026-03-22T09:48:25Z</time></trkpt><trkpt lat="24.534105879819016" lon="120.73633778840593"><ele>64.0</ele><time>2026-03-22T09:48:27Z</time></trkpt><trkpt lat="24.534195328027266" lon="120.7364173970387"><ele>64.0</ele><time>2026-03-22T09:48:29Z</time></trkpt><trkpt lat="24.534285394547535" lon="120.73649568419353"><ele>64.0</ele><time>2026-03-22T09:48:31Z</time></trkpt><trkpt lat="24.534372140230428" lon="120.73657242760832"><ele>64.0</ele><time>2026-03-22T09:48:33Z</time></trkpt><trkpt lat="24.534459481942005" lon="120.73664889143289"><ele>64.0</ele><time>2026-03-22T09:48:35Z</time></trkpt><trkpt lat="24.534546583662554" lon="120.73672600977876"><ele>64.0</ele><time>2026-03-22T09:48:37Z</time></trkpt><trkpt lat="24.534636637548164" lon="120.73680531820405"><ele>64.0</ele><time>2026-03-22T09:48:39Z</time></trkpt><trkpt lat="24.53473190979256" lon="120.73688912654639"><ele>64.0</ele><time>2026-03-22T09:48:41Z</time></trkpt><trkpt lat="24.53482610457476" lon="120.73697100318257"><ele>67.0</ele><time>2026-03-22T09:48:43Z</time></trkpt><trkpt lat="24.53492718519951" lon="120.73705821816237"><ele>70.0</ele><time>2026-03-22T09:48:45Z</time></trkpt><trkpt lat="24.53498266975235" lon="120.73710443943928"><ele>73.0</ele><time>2026-03-22T09:48:46Z</time></trkpt><trkpt lat="24.53503698103948" lon="120.73715100415167"><ele>76.0</ele><time>2026-03-22T09:48:47Z</time></trkpt><trkpt lat="24.53509244519079" lon="120.73719889184983"><ele>79.0</ele><time>2026-03-22T09:48:48Z</time></trkpt><trkpt lat="24.535150648220863" lon="120.73724881220596"><ele>82.0</ele><time>2026-03-22T09:48:49Z</time></trkpt><trkpt lat="24.53521178028943" lon="120.73730040350462"><ele>82.0</ele><time>2026-03-22T09:48:50Z</time></trkpt><trkpt lat="24.53527586926738" lon="120.73735432385628"><ele>82.0</ele><time>2026-03-22T09:48:51Z</time></trkpt><trkpt lat="24.53534135189132" lon="120.73740989945665"><ele>82.0</ele><time>2026-03-22T09:48:52Z</time></trkpt><trkpt lat="24.535408473073957" lon="120.73746615397796"><ele>82.0</ele><time>2026-03-22T09:48:53Z</time></trkpt><trkpt lat="24.53547809020384" lon="120.73752362426993"><ele>82.0</ele><time>2026-03-22T09:48:54Z</time></trkpt><trkpt lat="24.5355495872928" lon="120.73758276584768"><ele>82.0</ele><time>2026-03-22T09:48:55Z</time></trkpt><trkpt lat="24.53562226789984" lon="120.73764181688985"><ele>81.8</ele><time>2026-03-22T09:48:56Z</time></trkpt><trkpt lat="24.53569497477232" lon="120.73770113542483"><ele>81.6</ele><time>2026-03-22T09:48:57Z</time></trkpt><trkpt lat="24.535768561875216" lon="120.73775905204684"><ele>81.39999999999999</ele><time>2026-03-22T09:48:58Z</time></trkpt><trkpt lat="24.53583854518054" lon="120.73781661289455"><ele>81.19999999999999</ele><time>2026-03-22T09:48:59Z</time></trkpt><trkpt lat="24.535911049312922" lon="120.73787487647989"><ele>81.0</ele><time>2026-03-22T09:49:00Z</time></trkpt><trkpt lat="24.53598449428972" lon="120.73793501310007"><ele>81.0</ele><time>2026-03-22T09:49:01Z</time></trkpt><trkpt lat="24.53605941528522" lon="120.73799415442977"><ele>81.0</ele><time>2026-03-22T09:49:02Z</time></trkpt><trkpt lat="24.536135100430084" lon="120.73805439534385"><ele>81.0</ele><time>2026-03-22T09:49:03Z</time></trkpt><trkpt lat="24.536212556515256" lon="120.73811352225603"><ele>81.0</ele><time>2026-03-22T09:49:04Z</time></trkpt><trkpt lat="24.53628985438647" lon="120.73817376659179"><ele>81.0</ele><time>2026-03-22T09:49:05Z</time></trkpt><trkpt lat="24.536368192188345" lon="120.73823309646266"><ele>83.66666666666667</ele><time>2026-03-22T09:49:06Z</time></trkpt><trkpt lat="24.53644555815464" lon="120.73829203527883"><ele>86.33333333333334</ele><time>2026-03-22T09:49:07Z</time></trkpt><trkpt lat="24.53651958965947" lon="120.7383514158669"><ele>89.0</ele><time>2026-03-22T09:49:08Z</time></trkpt><trkpt lat="24.536592076851083" lon="120.73840838458864"><ele>91.66666666666667</ele><time>2026-03-22T09:49:09Z</time></trkpt><trkpt lat="24.536662818717723" lon="120.73846302231675"><ele>94.33333333333334</ele><time>2026-03-22T09:49:10Z</time></trkpt><trkpt lat="24.53673108606108" lon="120.7385163242022"><ele>97.0</ele><time>2026-03-22T09:49:11Z</time></trkpt><trkpt lat="24.536797345569415" lon="120.73856793270033"><ele>97.66666666666667</ele><time>2026-03-22T09:49:12Z</time></trkpt><trkpt lat="24.536860196216704" lon="120.7386166549147"><ele>98.33333333333334</ele><time>2026-03-22T09:49:13Z</time></trkpt><trkpt lat="24.536918098697825" lon="120.73866216852922"><ele>99.0</ele><time>2026-03-22T09:49:14Z</time></trkpt><trkpt lat="24.53700756755039" lon="120.73872886505274"><ele>99.66666666666666</ele><time>2026-03-22T09:49:16Z</time></trkpt><trkpt lat="24.537079571678888" lon="120.73878278079033"><ele>100.33333333333333</ele><time>2026-03-22T09:49:18Z</time></trkpt><trkpt lat="24.537149406560296" lon="120.73883554803646"><ele>101.0</ele><time>2026-03-22T09:49:20Z</time></trkpt><trkpt lat="24.53722928314924" lon="120.7388926430109"><ele>100.99999999999999</ele><time>2026-03-22T09:49:22Z</time></trkpt><trkpt lat="24.53730986918101" lon="120.73895171136206"><ele>101.0</ele><time>2026-03-22T09:49:24Z</time></trkpt><trkpt lat="24.537386324573358" lon="120.73900710152353"><ele>101.0</ele><time>2026-03-22T09:49:26Z</time></trkpt><trkpt lat="24.537455004275714" lon="120.73905755393432"><ele>101.0</ele><time>2026-03-22T09:49:28Z</time></trkpt><trkpt lat="24.537516175173955" lon="120.73910175102544"><ele>100.99999999999999</ele><time>2026-03-22T09:49:30Z</time></trkpt><trkpt lat="24.537572103957604" lon="120.73914422935394"><ele>101.0</ele><time>2026-03-22T09:49:33Z</time></trkpt><trkpt lat="24.537632877474163" lon="120.73918578187084"><ele>100.99999999999999</ele><time>2026-03-22T09:49:37Z</time></trkpt><trkpt lat="24.537701032699147" lon="120.73923545911427"><ele>101.0</ele><time>2026-03-22T09:49:40Z</time></trkpt><trkpt lat="24.537774602362777" lon="120.73928907156493"><ele>101.0</ele><time>2026-03-22T09:49:43Z</time></trkpt><trkpt lat="24.537850653836767" lon="120.73934298498396"><ele>101.0</ele><time>2026-03-22T09:49:46Z</time></trkpt><trkpt lat="24.53790350792099" lon="120.73938087903306"><ele>100.99999999999999</ele><time>2026-03-22T09:49:48Z</time></trkpt><trkpt lat="24.53797867967089" lon="120.73943666694599"><ele>101.0</ele><time>2026-03-22T09:49:51Z</time></trkpt><trkpt lat="24.538032653991067" lon="120.7394747247362"><ele>97.85714285714286</ele><time>2026-03-22T09:49:53Z</time></trkpt><trkpt lat="24.53808733561725" lon="120.73951337956595"><ele>94.71428571428571</ele><time>2026-03-22T09:49:55Z</time></trkpt><trkpt lat="24.53814524738894" lon="120.73955748598154"><ele>91.57142857142858</ele><time>2026-03-22T09:49:58Z</time></trkpt><trkpt lat="24.538214622298767" lon="120.73961039688776"><ele>88.42857142857143</ele><time>2026-03-22T09:50:02Z</time></trkpt><trkpt lat="24.538284283538477" lon="120.73966256289162"><ele>85.28571428571429</ele><time>2026-03-22T09:50:05Z</time></trkpt><trkpt lat="24.538343793488924" lon="120.73970335552163"><ele>82.14285714285715</ele><time>2026-03-22T09:50:07Z</time></trkpt><trkpt lat="24.53840741915045" lon="120.73974621353464"><ele>79.0</ele><time>2026-03-22T09:50:09Z</time></trkpt><trkpt lat="24.53847572574407" lon="120.73979332511534"><ele>79.00000000000001</ele><time>2026-03-22T09:50:11Z</time></trkpt><trkpt lat="24.53853607935697" lon="120.73983522276923"><ele>79.0</ele><time>2026-03-22T09:50:13Z</time></trkpt><trkpt lat="24.53860556416582" lon="120.73988308361318"><ele>79.0</ele><time>2026-03-22T09:50:16Z</time></trkpt><trkpt lat="24.538666129479186" lon="120.7399246966189"><ele>79.0</ele><time>2026-03-22T09:50:20Z</time></trkpt><trkpt lat="24.538732332976465" lon="120.7399682800625"><ele>79.0</ele><time>2026-03-22T09:50:24Z</time></trkpt><trkpt lat="24.538787905780183" lon="120.7400056195857"><ele>79.00000000000001</ele><time>2026-03-22T09:50:29Z</time></trkpt><trkpt lat="24.538844250421175" lon="120.74004506400341"><ele>79.0</ele><time>2026-03-22T09:50:54Z</time></trkpt><trkpt lat="24.538909256251173" lon="120.74008637788275"><ele>79.28571428571429</ele><time>2026-03-22T09:50:58Z</time></trkpt><trkpt lat="24.53897243543751" lon="120.74012567945697"><ele>79.57142857142857</ele><time>2026-03-22T09:51:02Z</time></trkpt><trkpt lat="24.53902815363298" lon="120.74016390567853"><ele>79.85714285714286</ele><time>2026-03-22T09:51:06Z</time></trkpt><trkpt lat="24.53908696385524" lon="120.74020237764805"><ele>80.14285714285714</ele><time>2026-03-22T09:51:19Z</time></trkpt><trkpt lat="24.539147641881886" lon="120.74024103095573"><ele>80.42857142857143</ele><time>2026-03-22T09:51:22Z</time></trkpt><trkpt lat="24.539205361450286" lon="120.7402792354049"><ele>80.71428571428572</ele><time>2026-03-22T09:51:25Z</time></trkpt><trkpt lat="24.539262274271202" lon="120.74031461690147"><ele>81.0</ele><time>2026-03-22T09:51:30Z</time></trkpt><trkpt lat="24.539327353407128" lon="120.74034728100314"><ele>76.85714285714286</ele><time>2026-03-22T09:51:46Z</time></trkpt><trkpt lat="24.53938358113623" lon="120.7403807266557"><ele>72.71428571428571</ele><time>2026-03-22T09:52:01Z</time></trkpt><trkpt lat="24.539445300975835" lon="120.74042193499182"><ele>68.57142857142857</ele><time>2026-03-22T09:52:05Z</time></trkpt><trkpt lat="24.539501236956532" lon="120.74045595965153"><ele>64.42857142857143</ele><time>2026-03-22T09:52:11Z</time></trkpt><trkpt lat="24.539565197371353" lon="120.74049514756625"><ele>60.28571428571429</ele><time>2026-03-22T09:52:46Z</time></trkpt><trkpt lat="24.539622184605044" lon="120.74053148277206"><ele>56.14285714285714</ele><time>2026-03-22T09:52:48Z</time></trkpt><trkpt lat="24.53967887211681" lon="120.74056768736422"><ele>52.0</ele><time>2026-03-22T09:52:50Z</time></trkpt><trkpt lat="24.53973624690875" lon="120.74060217238966"><ele>51.99999999999999</ele><time>2026-03-22T09:52:52Z</time></trkpt><trkpt lat="24.53981786205304" lon="120.7406516320326"><ele>52.0</ele><time>2026-03-22T09:52:55Z</time></trkpt><trkpt lat="24.539881716999332" lon="120.74069036127321"><ele>52.0</ele><time>2026-03-22T09:52:58Z</time></trkpt><trkpt lat="24.539954530889617" lon="120.74073485882614"><ele>52.0</ele><time>2026-03-22T09:53:02Z</time></trkpt><trkpt lat="24.54000956221797" lon="120.74076889627159"><ele>51.99999999999999</ele><time>2026-03-22T09:53:05Z</time></trkpt><trkpt lat="24.540084399579246" lon="120.74081115597276"><ele>52.0</ele><time>2026-03-22T09:53:09Z</time></trkpt><trkpt lat="24.540141636509848" lon="120.74084427990631"><ele>52.0</ele><time>2026-03-22T09:53:12Z</time></trkpt><trkpt lat="24.54019853050631" lon="120.74087882988181"><ele>52.0</ele><time>2026-03-22T09:53:15Z</time></trkpt><trkpt lat="24.54025529154421" lon="120.74091318891985"><ele>52.0</ele><time>2026-03-22T09:53:18Z</time></trkpt><trkpt lat="24.54031427942311" lon="120.74094591878232"><ele>52.0</ele><time>2026-03-22T09:53:21Z</time></trkpt><trkpt lat="24.540371088328804" lon="120.74098161448151"><ele>52.0</ele><time>2026-03-22T09:53:24Z</time></trkpt><trkpt lat="24.540428812209875" lon="120.74101541223351"><ele>52.0</ele><time>2026-03-22T09:53:27Z</time></trkpt><trkpt lat="24.54048734274338" lon="120.74105084194485"><ele>52.0</ele><time>2026-03-22T09:53:30Z</time></trkpt><trkpt lat="24.540554816143228" lon="120.7410915058195"><ele>51.0</ele><time>2026-03-22T09:53:33Z</time></trkpt><trkpt lat="24.540627788814135" lon="120.74113555052688"><ele>50.0</ele><time>2026-03-22T09:53:36Z</time></trkpt><trkpt lat="24.540684884425623" lon="120.74117058290165"><ele>49.0</ele><time>2026-03-22T09:53:39Z</time></trkpt><trkpt lat="24.54074411920343" lon="120.74120825763805"><ele>48.0</ele><time>2026-03-22T09:53:43Z</time></trkpt><trkpt lat="24.540802353210246" lon="120.7412436763697"><ele>47.0</ele><time>2026-03-22T09:53:47Z</time></trkpt><trkpt lat="24.54085762907883" lon="120.7412783786608"><ele>46.0</ele><time>2026-03-22T09:53:51Z</time></trkpt><trkpt lat="24.54091491634353" lon="120.74131250426161"><ele>45.0</ele><time>2026-03-22T09:53:55Z</time></trkpt><trkpt lat="24.540974464107133" lon="120.7413521173018"><ele>45.0</ele><time>2026-03-22T09:54:09Z</time></trkpt><trkpt lat="24.54104507007049" lon="120.74139545999773"><ele>45.0</ele><time>2026-03-22T09:54:12Z</time></trkpt><trkpt lat="24.541122814438083" lon="120.74144318573117"><ele>45.0</ele><time>2026-03-22T09:54:15Z</time></trkpt><trkpt lat="24.541187945839347" lon="120.7414844774821"><ele>45.0</ele><time>2026-03-22T09:54:18Z</time></trkpt><trkpt lat="24.541256139350054" lon="120.74152509149056"><ele>45.0</ele><time>2026-03-22T09:54:22Z</time></trkpt><trkpt lat="24.541324866666763" lon="120.741565595541"><ele>45.0</ele><time>2026-03-22T09:54:27Z</time></trkpt><trkpt lat="24.541389663747868" lon="120.7416037030865"><ele>45.42857142857142</ele><time>2026-03-22T09:54:32Z</time></trkpt><trkpt lat="24.541444471292657" lon="120.74163778144066"><ele>45.85714285714286</ele><time>2026-03-22T09:54:37Z</time></trkpt><trkpt lat="24.54150150991634" lon="120.74167231834548"><ele>46.285714285714285</ele><time>2026-03-22T09:54:42Z</time></trkpt><trkpt lat="24.541576138148585" lon="120.7417162056139"><ele>46.71428571428571</ele><time>2026-03-22T09:54:47Z</time></trkpt><trkpt lat="24.54163615560398" lon="120.74175198724424"><ele>47.14285714285714</ele><time>2026-03-22T09:54:49Z</time></trkpt><trkpt lat="24.541700246423183" lon="120.74178962978371"><ele>47.57142857142857</ele><time>2026-03-22T09:54:51Z</time></trkpt><trkpt lat="24.541764722686878" lon="120.7418271182382"><ele>48.0</ele><time>2026-03-22T09:54:53Z</time></trkpt><trkpt lat="24.541821587228277" lon="120.7418597911958"><ele>47.57142857142857</ele><time>2026-03-22T09:54:55Z</time></trkpt><trkpt lat="24.541883454350582" lon="120.74189576890102"><ele>47.14285714285714</ele><time>2026-03-22T09:54:58Z</time></trkpt><trkpt lat="24.54194416962598" lon="120.74193160233494"><ele>46.71428571428571</ele><time>2026-03-22T09:55:02Z</time></trkpt><trkpt lat="24.54200274533584" lon="120.7419652910604"><ele>46.285714285714285</ele><time>2026-03-22T09:55:06Z</time></trkpt><trkpt lat="24.54206003537591" lon="120.74200060779485"><ele>45.85714285714286</ele><time>2026-03-22T09:55:10Z</time></trkpt><trkpt lat="24.542129952525563" lon="120.74204158078382"><ele>45.42857142857142</ele><time>2026-03-22T09:55:14Z</time></trkpt><trkpt lat="24.54219231989385" lon="120.74207891314904"><ele>45.0</ele><time>2026-03-22T09:55:18Z</time></trkpt><trkpt lat="24.542249434096284" lon="120.74211358974482"><ele>44.833333333333336</ele><time>2026-03-22T09:55:22Z</time></trkpt><trkpt lat="24.54232232897275" lon="120.7421559905336"><ele>44.666666666666664</ele><time>2026-03-22T09:55:26Z</time></trkpt><trkpt lat="24.54240875351371" lon="120.74220658534259"><ele>44.5</ele><time>2026-03-22T09:55:29Z</time></trkpt><trkpt lat="24.542472749121224" lon="120.74224563570519"><ele>44.33333333333333</ele><time>2026-03-22T09:55:31Z</time></trkpt><trkpt lat="24.542546353832957" lon="120.74228997908922"><ele>44.166666666666664</ele><time>2026-03-22T09:55:33Z</time></trkpt><trkpt lat="24.5426289554882" lon="120.74233829677543"><ele>44.0</ele><time>2026-03-22T09:55:35Z</time></trkpt><trkpt lat="24.542716522798937" lon="120.74238863548764"><ele>44.0</ele><time>2026-03-22T09:55:37Z</time></trkpt><trkpt lat="24.54279767926937" lon="120.74243624841331"><ele>44.0</ele><time>2026-03-22T09:55:39Z</time></trkpt><trkpt lat="24.542870262813516" lon="120.74247978846788"><ele>44.0</ele><time>2026-03-22T09:55:41Z</time></trkpt><trkpt lat="24.54293601016755" lon="120.74251966221905"><ele>44.0</ele><time>2026-03-22T09:55:43Z</time></trkpt><trkpt lat="24.542994762449087" lon="120.74255459982886"><ele>44.0</ele><time>2026-03-22T09:55:45Z</time></trkpt><trkpt lat="24.543077317972287" lon="120.74260283536996"><ele>44.0</ele><time>2026-03-22T09:55:48Z</time></trkpt><trkpt lat="24.543134777852597" lon="120.7426361319226"><ele>44.0</ele><time>2026-03-22T09:55:50Z</time></trkpt><trkpt lat="24.54320739240019" lon="120.74268080856046"><ele>44.0</ele><time>2026-03-22T09:55:53Z</time></trkpt><trkpt lat="24.54326601326231" lon="120.74271501036226"><ele>44.0</ele><time>2026-03-22T09:55:55Z</time></trkpt><trkpt lat="24.543326632202927" lon="120.74275061653844"><ele>44.0</ele><time>2026-03-22T09:55:57Z</time></trkpt><trkpt lat="24.54339211540477" lon="120.74278892688348"><ele>44.0</ele><time>2026-03-22T09:55:59Z</time></trkpt><trkpt lat="24.543467829152867" lon="120.74283332468107"><ele>44.0</ele><time>2026-03-22T09:56:01Z</time></trkpt><trkpt lat="24.543549603268133" lon="120.74287966992156"><ele>43.800000000000004</ele><time>2026-03-22T09:56:03Z</time></trkpt><trkpt lat="24.543640738513382" lon="120.74293254660475"><ele>43.6</ele><time>2026-03-22T09:56:05Z</time></trkpt><trkpt lat="24.543730686980073" lon="120.74298520714791"><ele>43.4</ele><time>2026-03-22T09:56:07Z</time></trkpt><trkpt lat="24.54381221085552" lon="120.74303283830251"><ele>43.2</ele><time>2026-03-22T09:56:09Z</time></trkpt><trkpt lat="24.543884539187687" lon="120.7430763899721"><ele>43.0</ele><time>2026-03-22T09:56:11Z</time></trkpt><trkpt lat="24.543956368686356" lon="120.74311869987717"><ele>42.66666666666667</ele><time>2026-03-22T09:56:13Z</time></trkpt><trkpt lat="24.544033531115137" lon="120.74316366027199"><ele>42.333333333333336</ele><time>2026-03-22T09:56:15Z</time></trkpt><trkpt lat="24.544114098991336" lon="120.74321049830307"><ele>42.0</ele><time>2026-03-22T09:56:17Z</time></trkpt><trkpt lat="24.54419166546691" lon="120.74325665395995"><ele>41.666666666666664</ele><time>2026-03-22T09:56:19Z</time></trkpt><trkpt lat="24.544255123877768" lon="120.74329437751156"><ele>41.33333333333333</ele><time>2026-03-22T09:56:21Z</time></trkpt><trkpt lat="24.544324582352257" lon="120.74333425418453"><ele>41.0</ele><time>2026-03-22T09:56:24Z</time></trkpt><trkpt lat="24.544396170109565" lon="120.74337347449637"><ele>41.0</ele><time>2026-03-22T09:56:27Z</time></trkpt><trkpt lat="24.54447395186859" lon="120.7434184272777"><ele>41.0</ele><time>2026-03-22T09:56:30Z</time></trkpt><trkpt lat="24.544530704278056" lon="120.74345133969128"><ele>41.0</ele><time>2026-03-22T09:56:32Z</time></trkpt><trkpt lat="24.54459016762489" lon="120.7434862831217"><ele>41.0</ele><time>2026-03-22T09:56:34Z</time></trkpt><trkpt lat="24.544655081119984" lon="120.74352423739366"><ele>41.0</ele><time>2026-03-22T09:56:36Z</time></trkpt><trkpt lat="24.544727746991477" lon="120.74356732574789"><ele>41.0</ele><time>2026-03-22T09:56:38Z</time></trkpt><trkpt lat="24.544807315511772" lon="120.74361523978489"><ele>40.83333333333333</ele><time>2026-03-22T09:56:40Z</time></trkpt><trkpt lat="24.544887772152144" lon="120.74366361367139"><ele>40.666666666666664</ele><time>2026-03-22T09:56:42Z</time></trkpt><trkpt lat="24.544961321519757" lon="120.74370787395574"><ele>40.5</ele><time>2026-03-22T09:56:44Z</time></trkpt><trkpt lat="24.54503652511084" lon="120.74375344242381"><ele>40.333333333333336</ele><time>2026-03-22T09:56:47Z</time></trkpt><trkpt lat="24.545096523287622" lon="120.74379005581581"><ele>40.16666666666667</ele><time>2026-03-22T09:56:50Z</time></trkpt><trkpt lat="24.545157719919263" lon="120.74382702160376"><ele>40.0</ele><time>2026-03-22T09:56:54Z</time></trkpt><trkpt lat="24.5452244194239" lon="120.74386711683341"><ele>40.0</ele><time>2026-03-22T09:56:57Z</time></trkpt><trkpt lat="24.545286654744867" lon="120.74390501017021"><ele>40.0</ele><time>2026-03-22T09:56:59Z</time></trkpt><trkpt lat="24.5453564171497" lon="120.74394728565002"><ele>40.0</ele><time>2026-03-22T09:57:01Z</time></trkpt><trkpt lat="24.54543306289067" lon="120.74399317684038"><ele>40.0</ele><time>2026-03-22T09:57:03Z</time></trkpt><trkpt lat="24.54550226979446" lon="120.74403641972478"><ele>40.0</ele><time>2026-03-22T09:57:05Z</time></trkpt><trkpt lat="24.545564261241704" lon="120.74407473133577"><ele>40.0</ele><time>2026-03-22T09:57:07Z</time></trkpt><trkpt lat="24.54561988485772" lon="120.74410949315867"><ele>40.0</ele><time>2026-03-22T09:57:09Z</time></trkpt><trkpt lat="24.54568576834322" lon="120.74415021581775"><ele>40.0</ele><time>2026-03-22T09:57:11Z</time></trkpt><trkpt lat="24.545772834545144" lon="120.74420249389284"><ele>40.0</ele><time>2026-03-22T09:57:13Z</time></trkpt><trkpt lat="24.545865931011196" lon="120.74425920359302"><ele>40.0</ele><time>2026-03-22T09:57:15Z</time></trkpt><trkpt lat="24.545978631483724" lon="120.74432794917976"><ele>40.0</ele><time>2026-03-22T09:57:17Z</time></trkpt><trkpt lat="24.546037125672544" lon="120.74436391316478"><ele>39.857142857142854</ele><time>2026-03-22T09:57:18Z</time></trkpt><trkpt lat="24.546097701473766" lon="120.74440094099381"><ele>39.714285714285715</ele><time>2026-03-22T09:57:19Z</time></trkpt><trkpt lat="24.54615891181511" lon="120.74443908353223"><ele>39.57142857142857</ele><time>2026-03-22T09:57:20Z</time></trkpt><trkpt lat="24.546221661133547" lon="120.74447904192286"><ele>39.42857142857143</ele><time>2026-03-22T09:57:21Z</time></trkpt><trkpt lat="24.546281762173347" lon="120.7445174818036"><ele>39.285714285714285</ele><time>2026-03-22T09:57:22Z</time></trkpt><trkpt lat="24.546340518523756" lon="120.74455481096558"><ele>39.142857142857146</ele><time>2026-03-22T09:57:23Z</time></trkpt><trkpt lat="24.546400744040724" lon="120.7445925607217"><ele>39.0</ele><time>2026-03-22T09:57:24Z</time></trkpt><trkpt lat="24.546462460205312" lon="120.74463213484808"><ele>38.85714285714286</ele><time>2026-03-22T09:57:25Z</time></trkpt><trkpt lat="24.54652684593229" lon="120.7446725799143"><ele>38.71428571428571</ele><time>2026-03-22T09:57:26Z</time></trkpt><trkpt lat="24.546588667710864" lon="120.74471217231144"><ele>38.57142857142857</ele><time>2026-03-22T09:57:27Z</time></trkpt><trkpt lat="24.54664974792554" lon="120.74475076990112"><ele>38.42857142857143</ele><time>2026-03-22T09:57:28Z</time></trkpt><trkpt lat="24.54670892187284" lon="120.74478888245632"><ele>38.28571428571429</ele><time>2026-03-22T09:57:29Z</time></trkpt><trkpt lat="24.546767319192544" lon="120.7448257753612"><ele>38.14285714285714</ele><time>2026-03-22T09:57:30Z</time></trkpt><trkpt lat="24.546825619351427" lon="120.74486306546117"><ele>38.0</ele><time>2026-03-22T09:57:31Z</time></trkpt><trkpt lat="24.546882690446623" lon="120.74489915309452"><ele>38.0</ele><time>2026-03-22T09:57:32Z</time></trkpt><trkpt lat="24.54694060729781" lon="120.74493768798278"><ele>38.0</ele><time>2026-03-22T09:57:33Z</time></trkpt><trkpt lat="24.54700035009156" lon="120.74497591537458"><ele>38.0</ele><time>2026-03-22T09:57:34Z</time></trkpt><trkpt lat="24.54706326155985" lon="120.7450152665162"><ele>38.0</ele><time>2026-03-22T09:57:35Z</time></trkpt><trkpt lat="24.54712722818904" lon="120.74505613909109"><ele>38.0</ele><time>2026-03-22T09:57:36Z</time></trkpt><trkpt lat="24.547196100162655" lon="120.74510169994716"><ele>38.0</ele><time>2026-03-22T09:57:37Z</time></trkpt><trkpt lat="24.54726525407794" lon="120.74514579726336"><ele>38.0</ele><time>2026-03-22T09:57:38Z</time></trkpt><trkpt lat="24.547334168584946" lon="120.74519282794502"><ele>38.33333333333333</ele><time>2026-03-22T09:57:39Z</time></trkpt><trkpt lat="24.547403975976408" lon="120.74523894963077"><ele>38.666666666666664</ele><time>2026-03-22T09:57:40Z</time></trkpt><trkpt lat="24.547474068933266" lon="120.74528521109647"><ele>39.0</ele><time>2026-03-22T09:57:41Z</time></trkpt><trkpt lat="24.547543816619797" lon="120.74533339452039"><ele>39.333333333333336</ele><time>2026-03-22T09:57:42Z</time></trkpt><trkpt lat="24.54761380636194" lon="120.74538127218966"><ele>39.66666666666667</ele><time>2026-03-22T09:57:43Z</time></trkpt><trkpt lat="24.54768433995561" lon="120.74542905263303"><ele>40.0</ele><time>2026-03-22T09:57:44Z</time></trkpt><trkpt lat="24.547753186038474" lon="120.74547617424973"><ele>40.0</ele><time>2026-03-22T09:57:45Z</time></trkpt><trkpt lat="24.547820792277722" lon="120.74552355231707"><ele>40.0</ele><time>2026-03-22T09:57:46Z</time></trkpt><trkpt lat="24.547887736923762" lon="120.74556945457984"><ele>40.0</ele><time>2026-03-22T09:57:47Z</time></trkpt><trkpt lat="24.54795380220055" lon="120.745615122669"><ele>40.0</ele><time>2026-03-22T09:57:48Z</time></trkpt><trkpt lat="24.54801961377884" lon="120.74565985805552"><ele>40.0</ele><time>2026-03-22T09:57:49Z</time></trkpt><trkpt lat="24.548084459492284" lon="120.74570516068967"><ele>40.0</ele><time>2026-03-22T09:57:50Z</time></trkpt><trkpt lat="24.548148653094806" lon="120.74575086120076"><ele>39.833333333333336</ele><time>2026-03-22T09:57:51Z</time></trkpt><trkpt lat="24.548213813823406" lon="120.74579708485763"><ele>39.66666666666667</ele><time>2026-03-22T09:57:52Z</time></trkpt><trkpt lat="24.54827698538311" lon="120.74584156917463"><ele>39.5</ele><time>2026-03-22T09:57:53Z</time></trkpt><trkpt lat="24.548338713926324" lon="120.7458853571165"><ele>39.333333333333336</ele><time>2026-03-22T09:57:54Z</time></trkpt><trkpt lat="24.548399381411862" lon="120.74592837156887"><ele>39.166666666666664</ele><time>2026-03-22T09:57:55Z</time></trkpt><trkpt lat="24.54845585145457" lon="120.74596798070944"><ele>39.0</ele><time>2026-03-22T09:57:56Z</time></trkpt><trkpt lat="24.548550884446225" lon="120.74603479510418"><ele>39.2</ele><time>2026-03-22T09:57:58Z</time></trkpt><trkpt lat="24.548639328839315" lon="120.74609767949069"><ele>39.4</ele><time>2026-03-22T09:58:00Z</time></trkpt><trkpt lat="24.548729686433067" lon="120.74616211566139"><ele>39.6</ele><time>2026-03-22T09:58:02Z</time></trkpt><trkpt lat="24.548818560720033" lon="120.74622564295774"><ele>39.8</ele><time>2026-03-22T09:58:04Z</time></trkpt><trkpt lat="24.548909371022535" lon="120.74629036219798"><ele>40.0</ele><time>2026-03-22T09:58:06Z</time></trkpt><trkpt lat="24.549004664545894" lon="120.74635849093316"><ele>40.0</ele><time>2026-03-22T09:58:08Z</time></trkpt><trkpt lat="24.54910430104496" lon="120.74643152326351"><ele>40.0</ele><time>2026-03-22T09:58:10Z</time></trkpt><trkpt lat="24.549207267996103" lon="120.7465069179778"><ele>40.0</ele><time>2026-03-22T09:58:12Z</time></trkpt><trkpt lat="24.549259657757123" lon="120.746546140455"><ele>40.0</ele><time>2026-03-22T09:58:13Z</time></trkpt><trkpt lat="24.549365188210814" lon="120.7466253473674"><ele>40.0</ele><time>2026-03-22T09:58:15Z</time></trkpt><trkpt lat="24.54941786007543" lon="120.74666421033152"><ele>40.0</ele><time>2026-03-22T09:58:16Z</time></trkpt><trkpt lat="24.54951719528085" lon="120.74673950884427"><ele>40.0</ele><time>2026-03-22T09:58:18Z</time></trkpt><trkpt lat="24.549611675177598" lon="120.74681041785782"><ele>40.0</ele><time>2026-03-22T09:58:20Z</time></trkpt><trkpt lat="24.549710140341183" lon="120.74688349128749"><ele>40.0</ele><time>2026-03-22T09:58:22Z</time></trkpt><trkpt lat="24.54976528906645" lon="120.74692471907414"><ele>40.0</ele><time>2026-03-22T09:58:23Z</time></trkpt><trkpt lat="24.549821025190393" lon="120.74696707821982"><ele>40.0</ele><time>2026-03-22T09:58:24Z</time></trkpt><trkpt lat="24.549877044977936" lon="120.74700970540337"><ele>40.0</ele><time>2026-03-22T09:58:25Z</time></trkpt><trkpt lat="24.549934682403027" lon="120.7470541294975"><ele>40.0</ele><time>2026-03-22T09:58:26Z</time></trkpt><trkpt lat="24.549995716868906" lon="120.74710090221106"><ele>40.0</ele><time>2026-03-22T09:58:27Z</time></trkpt><trkpt lat="24.55005882670674" lon="120.74714891374373"><ele>40.0</ele><time>2026-03-22T09:58:28Z</time></trkpt><trkpt lat="24.550122988874946" lon="120.74719836668208"><ele>40.0</ele><time>2026-03-22T09:58:29Z</time></trkpt><trkpt lat="24.550187601217143" lon="120.74724823968917"><ele>40.0</ele><time>2026-03-22T09:58:30Z</time></trkpt><trkpt lat="24.55025070769091" lon="120.74729700862667"><ele>40.0</ele><time>2026-03-22T09:58:31Z</time></trkpt><trkpt lat="24.550311823306807" lon="120.7473445776967"><ele>40.0</ele><time>2026-03-22T09:58:32Z</time></trkpt><trkpt lat="24.550371799648133" lon="120.74739116566356"><ele>40.0</ele><time>2026-03-22T09:58:33Z</time></trkpt><trkpt lat="24.550429682066255" lon="120.74743713929121"><ele>40.0</ele><time>2026-03-22T09:58:34Z</time></trkpt><trkpt lat="24.55048678285694" lon="120.74748291522378"><ele>40.0</ele><time>2026-03-22T09:58:35Z</time></trkpt><trkpt lat="24.550542028074805" lon="120.74752748554151"><ele>40.0</ele><time>2026-03-22T09:58:36Z</time></trkpt><trkpt lat="24.55059590183424" lon="120.74757074456225"><ele>40.0</ele><time>2026-03-22T09:58:37Z</time></trkpt><trkpt lat="24.55064931458896" lon="120.74761335673162"><ele>40.14285714285714</ele><time>2026-03-22T09:58:38Z</time></trkpt><trkpt lat="24.55070263961334" lon="120.74765614791599"><ele>40.285714285714285</ele><time>2026-03-22T09:58:39Z</time></trkpt><trkpt lat="24.5507586171659" lon="120.74770138962658"><ele>40.42857142857143</ele><time>2026-03-22T09:58:40Z</time></trkpt><trkpt lat="24.550815737576325" lon="120.74774752415865"><ele>40.57142857142857</ele><time>2026-03-22T09:58:41Z</time></trkpt><trkpt lat="24.550873817571762" lon="120.74779445758689"><ele>40.714285714285715</ele><time>2026-03-22T09:58:42Z</time></trkpt><trkpt lat="24.550930930385725" lon="120.74784041106092"><ele>40.857142857142854</ele><time>2026-03-22T09:58:43Z</time></trkpt><trkpt lat="24.55099094475313" lon="120.74788845842649"><ele>41.0</ele><time>2026-03-22T09:58:44Z</time></trkpt><trkpt lat="24.55105297564505" lon="120.7479387718758"><ele>40.666666666666664</ele><time>2026-03-22T09:58:45Z</time></trkpt><trkpt lat="24.55111537177728" lon="120.74798944039455"><ele>40.33333333333333</ele><time>2026-03-22T09:58:46Z</time></trkpt><trkpt lat="24.551176846792288" lon="120.74804011150542"><ele>40.0</ele><time>2026-03-22T09:58:47Z</time></trkpt><trkpt lat="24.551238238752834" lon="120.74809140590364"><ele>39.666666666666664</ele><time>2026-03-22T09:58:48Z</time></trkpt><trkpt lat="24.55129978962078" lon="120.74814281870498"><ele>39.333333333333336</ele><time>2026-03-22T09:58:49Z</time></trkpt><trkpt lat="24.551360697336758" lon="120.74819382361983"><ele>39.0</ele><time>2026-03-22T09:58:50Z</time></trkpt><trkpt lat="24.551422223361193" lon="120.74824529363319"><ele>39.0</ele><time>2026-03-22T09:58:51Z</time></trkpt><trkpt lat="24.55148585794289" lon="120.74829852920391"><ele>39.0</ele><time>2026-03-22T09:58:52Z</time></trkpt><trkpt lat="24.551552287302894" lon="120.74835426550797"><ele>39.0</ele><time>2026-03-22T09:58:53Z</time></trkpt><trkpt lat="24.551621123446694" lon="120.74841236249311"><ele>39.0</ele><time>2026-03-22T09:58:54Z</time></trkpt><trkpt lat="24.551692243375967" lon="120.74847285407357"><ele>39.0</ele><time>2026-03-22T09:58:55Z</time></trkpt><trkpt lat="24.551765432317584" lon="120.74853486587675"><ele>39.0</ele><time>2026-03-22T09:58:56Z</time></trkpt><trkpt lat="24.551840875885656" lon="120.74859928043097"><ele>38.8</ele><time>2026-03-22T09:58:57Z</time></trkpt><trkpt lat="24.551916347514556" lon="120.74866454642999"><ele>38.599999999999994</ele><time>2026-03-22T09:58:58Z</time></trkpt><trkpt lat="24.551992970728914" lon="120.74872950836196"><ele>38.4</ele><time>2026-03-22T09:58:59Z</time></trkpt><trkpt lat="24.552071630767472" lon="120.74879695790288"><ele>38.199999999999996</ele><time>2026-03-22T09:59:00Z</time></trkpt><trkpt lat="24.552150321256303" lon="120.74886512346787"><ele>38.0</ele><time>2026-03-22T09:59:01Z</time></trkpt><trkpt lat="24.552227786749246" lon="120.74893377778093"><ele>38.0</ele><time>2026-03-22T09:59:02Z</time></trkpt><trkpt lat="24.552305297671097" lon="120.74900245966579"><ele>38.0</ele><time>2026-03-22T09:59:03Z</time></trkpt><trkpt lat="24.552380126652817" lon="120.74906997999142"><ele>38.0</ele><time>2026-03-22T09:59:04Z</time></trkpt><trkpt lat="24.552454702354208" lon="120.74913652748606"><ele>38.0</ele><time>2026-03-22T09:59:05Z</time></trkpt><trkpt lat="24.552527860370848" lon="120.74920278952763"><ele>38.0</ele><time>2026-03-22T09:59:06Z</time></trkpt><trkpt lat="24.552599141802478" lon="120.7492676601688"><ele>38.0</ele><time>2026-03-22T09:59:07Z</time></trkpt><trkpt lat="24.55266679715083" lon="120.74932929077856"><ele>38.0</ele><time>2026-03-22T09:59:08Z</time></trkpt><trkpt lat="24.552726924320815" lon="120.74938473713604"><ele>38.0</ele><time>2026-03-22T09:59:09Z</time></trkpt><trkpt lat="24.552784642965136" lon="120.74943705306761"><ele>38.0</ele><time>2026-03-22T09:59:10Z</time></trkpt><trkpt lat="24.552836685367172" lon="120.7494847581171"><ele>38.0</ele><time>2026-03-22T09:59:11Z</time></trkpt><trkpt lat="24.552917999940426" lon="120.74956011767145"><ele>38.0</ele><time>2026-03-22T09:59:13Z</time></trkpt><trkpt lat="24.552969135562112" lon="120.74960827303423"><ele>37.666666666666664</ele><time>2026-03-22T09:59:15Z</time></trkpt><trkpt lat="24.553030113225677" lon="120.7496639124254"><ele>37.33333333333333</ele><time>2026-03-22T09:59:19Z</time></trkpt><trkpt lat="24.55309404823274" lon="120.74972405976409"><ele>37.0</ele><time>2026-03-22T09:59:23Z</time></trkpt><trkpt lat="24.55316063884964" lon="120.74978590779604"><ele>36.666666666666664</ele><time>2026-03-22T09:59:26Z</time></trkpt><trkpt lat="24.55322589602369" lon="120.74984675539352"><ele>36.333333333333336</ele><time>2026-03-22T09:59:28Z</time></trkpt><trkpt lat="24.553297535822935" lon="120.749914091224"><ele>36.0</ele><time>2026-03-22T09:59:30Z</time></trkpt><trkpt lat="24.553375879615082" lon="120.74998763238737"><ele>36.0</ele><time>2026-03-22T09:59:32Z</time></trkpt><trkpt lat="24.55345670484326" lon="120.75006319220401"><ele>36.0</ele><time>2026-03-22T09:59:34Z</time></trkpt><trkpt lat="24.55353236920524" lon="120.75013420469756"><ele>36.0</ele><time>2026-03-22T09:59:36Z</time></trkpt><trkpt lat="24.553598663865873" lon="120.75019644539657"><ele>36.0</ele><time>2026-03-22T09:59:38Z</time></trkpt><trkpt lat="24.55365703965954" lon="120.75025201147476"><ele>36.0</ele><time>2026-03-22T09:59:40Z</time></trkpt><trkpt lat="24.553716139100864" lon="120.7503082056942"><ele>36.0</ele><time>2026-03-22T09:59:42Z</time></trkpt><trkpt lat="24.553783499577396" lon="120.75037285728054"><ele>35.8</ele><time>2026-03-22T09:59:44Z</time></trkpt><trkpt lat="24.553855151030035" lon="120.7504413004362"><ele>35.6</ele><time>2026-03-22T09:59:46Z</time></trkpt><trkpt lat="24.553927486714933" lon="120.750511481335"><ele>35.4</ele><time>2026-03-22T09:59:48Z</time></trkpt><trkpt lat="24.55399972820732" lon="120.75058081289838"><ele>35.2</ele><time>2026-03-22T09:59:50Z</time></trkpt><trkpt lat="24.55406557421429" lon="120.7506446079011"><ele>35.0</ele><time>2026-03-22T09:59:52Z</time></trkpt><trkpt lat="24.554125533005557" lon="120.75070323865727"><ele>35.0</ele><time>2026-03-22T09:59:54Z</time></trkpt><trkpt lat="24.554182301701378" lon="120.75075751354703"><ele>35.0</ele><time>2026-03-22T09:59:56Z</time></trkpt><trkpt lat="24.55424385589497" lon="120.75081969413769"><ele>35.0</ele><time>2026-03-22T09:59:58Z</time></trkpt><trkpt lat="24.554315211313636" lon="120.7508910994087"><ele>35.0</ele><time>2026-03-22T10:00:00Z</time></trkpt><trkpt lat="24.55439148560878" lon="120.75096644662008"><ele>35.0</ele><time>2026-03-22T10:00:02Z</time></trkpt><trkpt lat="24.554462579494786" lon="120.75103650130976"><ele>34.5</ele><time>2026-03-22T10:00:04Z</time></trkpt><trkpt lat="24.55453111516383" lon="120.75110488288634"><ele>34.0</ele><time>2026-03-22T10:00:06Z</time></trkpt><trkpt lat="24.554598877269985" lon="120.75117374672931"><ele>33.5</ele><time>2026-03-22T10:00:08Z</time></trkpt><trkpt lat="24.554663384411413" lon="120.75123989293303"><ele>33.0</ele><time>2026-03-22T10:00:10Z</time></trkpt><trkpt lat="24.55472222851438" lon="120.75129772995514"><ele>32.5</ele><time>2026-03-22T10:00:12Z</time></trkpt><trkpt lat="24.55477537922092" lon="120.75135159077617"><ele>32.0</ele><time>2026-03-22T10:00:14Z</time></trkpt><trkpt lat="24.55482901599464" lon="120.75140443971382"><ele>32.0</ele><time>2026-03-22T10:00:16Z</time></trkpt><trkpt lat="24.554882606876628" lon="120.75145772281198"><ele>31.999999999999996</ele><time>2026-03-22T10:00:18Z</time></trkpt><trkpt lat="24.55493609818032" lon="120.75151087861137"><ele>32.0</ele><time>2026-03-22T10:00:20Z</time></trkpt><trkpt lat="24.554992629774596" lon="120.7515682216692"><ele>32.0</ele><time>2026-03-22T10:00:22Z</time></trkpt><trkpt lat="24.555047320709704" lon="120.75162430885474"><ele>31.999999999999996</ele><time>2026-03-22T10:00:24Z</time></trkpt><trkpt lat="24.555100303523" lon="120.75167796314088"><ele>32.0</ele><time>2026-03-22T10:00:26Z</time></trkpt><trkpt lat="24.55514790387721" lon="120.7517261785098"><ele>32.0</ele><time>2026-03-22T10:00:28Z</time></trkpt><trkpt lat="24.555195807627438" lon="120.75177372382542"><ele>31.999999999999996</ele><time>2026-03-22T10:00:30Z</time></trkpt><trkpt lat="24.555248276138546" lon="120.7518254014285"><ele>32.0</ele><time>2026-03-22T10:00:32Z</time></trkpt><trkpt lat="24.555307356036504" lon="120.75188411615639"><ele>32.0</ele><time>2026-03-22T10:00:34Z</time></trkpt><trkpt lat="24.555373518096772" lon="120.75194965708918"><ele>32.0</ele><time>2026-03-22T10:00:36Z</time></trkpt><trkpt lat="24.555442014013234" lon="120.75201837811059"><ele>31.999999999999996</ele><time>2026-03-22T10:00:38Z</time></trkpt><trkpt lat="24.555513905842133" lon="120.75209247167415"><ele>32.0</ele><time>2026-03-22T10:00:40Z</time></trkpt><trkpt lat="24.55559454367519" lon="120.75217501632685"><ele>31.8</ele><time>2026-03-22T10:00:42Z</time></trkpt><trkpt lat="24.555683697830723" lon="120.75226575305324"><ele>31.6</ele><time>2026-03-22T10:00:44Z</time></trkpt><trkpt lat="24.555775014343922" lon="120.75235948935847"><ele>31.400000000000002</ele><time>2026-03-22T10:00:46Z</time></trkpt><trkpt lat="24.55582367218472" lon="120.75240913820183"><ele>31.200000000000003</ele><time>2026-03-22T10:00:47Z</time></trkpt><trkpt lat="24.555874736066453" lon="120.75246107339561"><ele>31.0</ele><time>2026-03-22T10:00:48Z</time></trkpt><trkpt lat="24.555925669384735" lon="120.75251287813288"><ele>31.000000000000004</ele><time>2026-03-22T10:00:49Z</time></trkpt><trkpt lat="24.555976338885493" lon="120.7525645137074"><ele>31.0</ele><time>2026-03-22T10:00:50Z</time></trkpt><trkpt lat="24.556026490232117" lon="120.75261583959065"><ele>31.0</ele><time>2026-03-22T10:00:51Z</time></trkpt><trkpt lat="24.556074178011762" lon="120.75266453914523"><ele>31.0</ele><time>2026-03-22T10:00:52Z</time></trkpt><trkpt lat="24.556120211669565" lon="120.75271213855744"><ele>31.000000000000004</ele><time>2026-03-22T10:00:53Z</time></trkpt><trkpt lat="24.55620672060058" lon="120.75280132005571"><ele>31.0</ele><time>2026-03-22T10:00:55Z</time></trkpt><trkpt lat="24.556292211990723" lon="120.75288896316701"><ele>32.42857142857143</ele><time>2026-03-22T10:00:57Z</time></trkpt><trkpt lat="24.556382721090053" lon="120.75298190741627"><ele>33.85714285714286</ele><time>2026-03-22T10:00:59Z</time></trkpt><trkpt lat="24.556430262900786" lon="120.75303155153179"><ele>35.285714285714285</ele><time>2026-03-22T10:01:00Z</time></trkpt><trkpt lat="24.556477820739854" lon="120.75308015787857"><ele>36.714285714285715</ele><time>2026-03-22T10:01:01Z</time></trkpt><trkpt lat="24.556524896858935" lon="120.75312767676272"><ele>38.14285714285714</ele><time>2026-03-22T10:01:02Z</time></trkpt><trkpt lat="24.55657235529021" lon="120.75317544739805"><ele>39.57142857142857</ele><time>2026-03-22T10:01:03Z</time></trkpt><trkpt lat="24.556618762298623" lon="120.75322266023721"><ele>41.0</ele><time>2026-03-22T10:01:04Z</time></trkpt><trkpt lat="24.556708803192397" lon="120.7533152744981"><ele>41.0</ele><time>2026-03-22T10:01:06Z</time></trkpt><trkpt lat="24.55679275466359" lon="120.75340003805654"><ele>41.0</ele><time>2026-03-22T10:01:08Z</time></trkpt><trkpt lat="24.556854051429557" lon="120.75346204274784"><ele>41.0</ele><time>2026-03-22T10:01:10Z</time></trkpt><trkpt lat="24.556901885284244" lon="120.75351224078094"><ele>41.0</ele><time>2026-03-22T10:01:13Z</time></trkpt><trkpt lat="24.556950647203465" lon="120.75356136152108"><ele>41.0</ele><time>2026-03-22T10:01:17Z</time></trkpt><trkpt lat="24.557011065594796" lon="120.75362531637084"><ele>41.0</ele><time>2026-03-22T10:01:21Z</time></trkpt><trkpt lat="24.557079270112517" lon="120.75369541602339"><ele>38.8</ele><time>2026-03-22T10:01:24Z</time></trkpt><trkpt lat="24.55713952012291" lon="120.75375651337097"><ele>36.599999999999994</ele><time>2026-03-22T10:01:26Z</time></trkpt><trkpt lat="24.55720298310425" lon="120.7538201862595"><ele>34.4</ele><time>2026-03-22T10:01:28Z</time></trkpt><trkpt lat="24.5572676987671" lon="120.75389913276706"><ele>32.2</ele><time>2026-03-22T10:01:30Z</time></trkpt><trkpt lat="24.55733698087263" lon="120.75396441171807"><ele>30.0</ele><time>2026-03-22T10:01:32Z</time></trkpt><trkpt lat="24.557415323217754" lon="120.75404509590985"><ele>30.0</ele><time>2026-03-22T10:01:34Z</time></trkpt><trkpt lat="24.55749877502169" lon="120.75412898466335"><ele>30.0</ele><time>2026-03-22T10:01:36Z</time></trkpt><trkpt lat="24.557577083645974" lon="120.75421051240153"><ele>30.0</ele><time>2026-03-22T10:01:38Z</time></trkpt><trkpt lat="24.557646471637998" lon="120.7542830416824"><ele>30.0</ele><time>2026-03-22T10:01:40Z</time></trkpt><trkpt lat="24.557715055393334" lon="120.75435283114562"><ele>30.0</ele><time>2026-03-22T10:01:42Z</time></trkpt><trkpt lat="24.557784414720793" lon="120.75442489661059"><ele>29.5</ele><time>2026-03-22T10:01:44Z</time></trkpt><trkpt lat="24.557860346883526" lon="120.75450103584781"><ele>29.0</ele><time>2026-03-22T10:01:46Z</time></trkpt><trkpt lat="24.55792773146252" lon="120.7545700742435"><ele>28.5</ele><time>2026-03-22T10:01:48Z</time></trkpt><trkpt lat="24.557992837762765" lon="120.7546295746081"><ele>28.0</ele><time>2026-03-22T10:01:50Z</time></trkpt><trkpt lat="24.558048158774216" lon="120.7546865017411"><ele>27.5</ele><time>2026-03-22T10:01:52Z</time></trkpt><trkpt lat="24.558115404604138" lon="120.75475775367846"><ele>27.0</ele><time>2026-03-22T10:01:55Z</time></trkpt><trkpt lat="24.558187037569667" lon="120.75482186324936"><ele>27.0</ele><time>2026-03-22T10:01:58Z</time></trkpt><trkpt lat="24.558260364536387" lon="120.75488316826542"><ele>27.000000000000004</ele><time>2026-03-22T10:02:01Z</time></trkpt><trkpt lat="24.55831628613768" lon="120.75493976572847"><ele>27.000000000000004</ele><time>2026-03-22T10:02:03Z</time></trkpt><trkpt lat="24.558385796821163" lon="120.75500853903026"><ele>27.0</ele><time>2026-03-22T10:02:05Z</time></trkpt><trkpt lat="24.55845840846957" lon="120.7550798525412"><ele>27.0</ele><time>2026-03-22T10:02:07Z</time></trkpt><trkpt lat="24.558539247433075" lon="120.75515584657762"><ele>26.8</ele><time>2026-03-22T10:02:09Z</time></trkpt><trkpt lat="24.558618929682744" lon="120.75523298369197"><ele>26.6</ele><time>2026-03-22T10:02:11Z</time></trkpt><trkpt lat="24.55869757978" lon="120.75530956356388"><ele>26.400000000000002</ele><time>2026-03-22T10:02:13Z</time></trkpt><trkpt lat="24.558772635912845" lon="120.75538105309381"><ele>26.200000000000003</ele><time>2026-03-22T10:02:15Z</time></trkpt><trkpt lat="24.558846439310752" lon="120.75545065211558"><ele>26.0</ele><time>2026-03-22T10:02:17Z</time></trkpt><trkpt lat="24.55891919938416" lon="120.7555206793713"><ele>26.0</ele><time>2026-03-22T10:02:19Z</time></trkpt><trkpt lat="24.55899604269879" lon="120.75559164330392"><ele>26.0</ele><time>2026-03-22T10:02:21Z</time></trkpt><trkpt lat="24.559068557415323" lon="120.75566245778644"><ele>26.0</ele><time>2026-03-22T10:02:23Z</time></trkpt><trkpt lat="24.559141314585293" lon="120.75573154738156"><ele>26.0</ele><time>2026-03-22T10:02:25Z</time></trkpt><trkpt lat="24.559210089401752" lon="120.75579402528531"><ele>26.0</ele><time>2026-03-22T10:02:27Z</time></trkpt><trkpt lat="24.55927221392279" lon="120.75585228989222"><ele>26.0</ele><time>2026-03-22T10:02:29Z</time></trkpt><trkpt lat="24.55933342919734" lon="120.75590771839285"><ele>26.0</ele><time>2026-03-22T10:02:31Z</time></trkpt><trkpt lat="24.55938974335873" lon="120.75595897047774"><ele>26.0</ele><time>2026-03-22T10:02:33Z</time></trkpt><trkpt lat="24.55944309637731" lon="120.7560062993432"><ele>26.0</ele><time>2026-03-22T10:02:35Z</time></trkpt><trkpt lat="24.559511069296395" lon="120.75606545998579"><ele>26.0</ele><time>2026-03-22T10:02:38Z</time></trkpt><trkpt lat="24.55956389674585" lon="120.75611189458107"><ele>26.0</ele><time>2026-03-22T10:02:40Z</time></trkpt><trkpt lat="24.559620139176072" lon="120.75616206563038"><ele>26.0</ele><time>2026-03-22T10:02:42Z</time></trkpt><trkpt lat="24.55967572294845" lon="120.75621297442285"><ele>26.333333333333332</ele><time>2026-03-22T10:02:44Z</time></trkpt><trkpt lat="24.559732049761223" lon="120.75626483890143"><ele>26.666666666666664</ele><time>2026-03-22T10:02:46Z</time></trkpt><trkpt lat="24.55979255214019" lon="120.75631917526489"><ele>27.0</ele><time>2026-03-22T10:02:48Z</time></trkpt><trkpt lat="24.55985536135479" lon="120.7563743502402"><ele>27.333333333333336</ele><time>2026-03-22T10:02:50Z</time></trkpt><trkpt lat="24.559910853728972" lon="120.756424615357"><ele>27.666666666666668</ele><time>2026-03-22T10:02:52Z</time></trkpt><trkpt lat="24.55998312669321" lon="120.75648925969568"><ele>28.0</ele><time>2026-03-22T10:02:55Z</time></trkpt><trkpt lat="24.560040321128355" lon="120.75654008387286"><ele>28.000000000000004</ele><time>2026-03-22T10:02:57Z</time></trkpt><trkpt lat="24.560104833294186" lon="120.75659642398824"><ele>28.0</ele><time>2026-03-22T10:02:59Z</time></trkpt><trkpt lat="24.560166857384118" lon="120.75665040790594"><ele>28.0</ele><time>2026-03-22T10:03:01Z</time></trkpt><trkpt lat="24.560231635582404" lon="120.75670441120656"><ele>28.0</ele><time>2026-03-22T10:03:03Z</time></trkpt><trkpt lat="24.56029825169206" lon="120.75675877894858"><ele>28.000000000000004</ele><time>2026-03-22T10:03:05Z</time></trkpt><trkpt lat="24.56036725595032" lon="120.75681515965336"><ele>28.0</ele><time>2026-03-22T10:03:07Z</time></trkpt><trkpt lat="24.560440267207678" lon="120.75687567495793"><ele>33.16666666666667</ele><time>2026-03-22T10:03:09Z</time></trkpt><trkpt lat="24.560513718787575" lon="120.75693808915955"><ele>38.333333333333336</ele><time>2026-03-22T10:03:11Z</time></trkpt><trkpt lat="24.560585683601023" lon="120.75699948722743"><ele>43.5</ele><time>2026-03-22T10:03:13Z</time></trkpt><trkpt lat="24.56066190066747" lon="120.75706365146829"><ele>48.66666666666667</ele><time>2026-03-22T10:03:15Z</time></trkpt><trkpt lat="24.560730649891067" lon="120.75712074316282"><ele>53.833333333333336</ele><time>2026-03-22T10:03:17Z</time></trkpt><trkpt lat="24.560794042470956" lon="120.75717264267642"><ele>59.0</ele><time>2026-03-22T10:03:19Z</time></trkpt><trkpt lat="24.560847686683385" lon="120.75721563048619"><ele>59.00000000000001</ele><time>2026-03-22T10:03:21Z</time></trkpt><trkpt lat="24.560918608107034" lon="120.75727215860128"><ele>59.0</ele><time>2026-03-22T10:03:24Z</time></trkpt><trkpt lat="24.56097356774649" lon="120.75731845874199"><ele>59.0</ele><time>2026-03-22T10:03:28Z</time></trkpt><trkpt lat="24.56103307757555" lon="120.75736791663361"><ele>59.0</ele><time>2026-03-22T10:03:32Z</time></trkpt><trkpt lat="24.561131623857545" lon="120.75744684564074"><ele>59.00000000000001</ele><time>2026-03-22T10:03:36Z</time></trkpt><trkpt lat="24.561189346841203" lon="120.75749185260027"><ele>59.0</ele><time>2026-03-22T10:03:38Z</time></trkpt><trkpt lat="24.561245202392556" lon="120.75753552504194"><ele>59.16666666666667</ele><time>2026-03-22T10:03:40Z</time></trkpt><trkpt lat="24.561310296637952" lon="120.75758643679958"><ele>59.333333333333336</ele><time>2026-03-22T10:03:43Z</time></trkpt><trkpt lat="24.561379596814056" lon="120.75764074449854"><ele>59.5</ele><time>2026-03-22T10:03:47Z</time></trkpt><trkpt lat="24.561454748911665" lon="120.75769757816093"><ele>59.66666666666667</ele><time>2026-03-22T10:03:50Z</time></trkpt><trkpt lat="24.561525568518853" lon="120.75775007126023"><ele>59.833333333333336</ele><time>2026-03-22T10:03:53Z</time></trkpt><trkpt lat="24.56158866532919" lon="120.75779791495867"><ele>60.0</ele><time>2026-03-22T10:03:56Z</time></trkpt><trkpt lat="24.561647433735377" lon="120.75783929564116"><ele>60.833333333333336</ele><time>2026-03-22T10:03:59Z</time></trkpt><trkpt lat="24.561705273809615" lon="120.75788147802814"><ele>61.66666666666667</ele><time>2026-03-22T10:04:03Z</time></trkpt><trkpt lat="24.561767847467873" lon="120.75792374307838"><ele>62.5</ele><time>2026-03-22T10:04:06.999Z</time></trkpt><trkpt lat="24.561835548618436" lon="120.75797316084787"><ele>63.333333333333336</ele><time>2026-03-22T10:04:09.999Z</time></trkpt><trkpt lat="24.56190784092484" lon="120.75802375011058"><ele>64.16666666666667</ele><time>2026-03-22T10:04:11.999Z</time></trkpt><trkpt lat="24.56198032357473" lon="120.75807570280607"><ele>65.0</ele><time>2026-03-22T10:04:13.999Z</time></trkpt><trkpt lat="24.562066639487565" lon="120.75813739434388"><ele>65.0</ele><time>2026-03-22T10:04:15.999Z</time></trkpt><trkpt lat="24.562152562627848" lon="120.75819630963052"><ele>65.0</ele><time>2026-03-22T10:04:17.999Z</time></trkpt><trkpt lat="24.56223966198153" lon="120.75825517215634"><ele>65.0</ele><time>2026-03-22T10:04:19.999Z</time></trkpt><trkpt lat="24.5623303479936" lon="120.75831337794604"><ele>65.0</ele><time>2026-03-22T10:04:21.999Z</time></trkpt><trkpt lat="24.56242356525458" lon="120.75837725696054"><ele>65.0</ele><time>2026-03-22T10:04:23.999Z</time></trkpt><trkpt lat="24.562516289585762" lon="120.75843656998089"><ele>65.0</ele><time>2026-03-22T10:04:25.999Z</time></trkpt><trkpt lat="24.562609441543287" lon="120.75849473880102"><ele>65.0</ele><time>2026-03-22T10:04:27.999Z</time></trkpt><trkpt lat="24.562699086893588" lon="120.75855081546352"><ele>65.0</ele><time>2026-03-22T10:04:29.999Z</time></trkpt><trkpt lat="24.56278178655193" lon="120.75860543893738"><ele>65.0</ele><time>2026-03-22T10:04:31.999Z</time></trkpt><trkpt lat="24.56285536175146" lon="120.75865391061794"><ele>65.0</ele><time>2026-03-22T10:04:33.999Z</time></trkpt><trkpt lat="24.562925391407504" lon="120.75869587453671"><ele>65.4</ele><time>2026-03-22T10:04:35.999Z</time></trkpt><trkpt lat="24.56299978603585" lon="120.75874190434908"><ele>65.8</ele><time>2026-03-22T10:04:37.999Z</time></trkpt><trkpt lat="24.56308190556759" lon="120.75879464005743"><ele>66.2</ele><time>2026-03-22T10:04:39.999Z</time></trkpt><trkpt lat="24.563168455082177" lon="120.75884970720985"><ele>66.6</ele><time>2026-03-22T10:04:41.999Z</time></trkpt><trkpt lat="24.563274264015657" lon="120.75891511801905"><ele>67.0</ele><time>2026-03-22T10:04:43.999Z</time></trkpt><trkpt lat="24.563334983553492" lon="120.75895234186716"><ele>67.0</ele><time>2026-03-22T10:04:44.999Z</time></trkpt><trkpt lat="24.563394702333348" lon="120.758988222612"><ele>67.0</ele><time>2026-03-22T10:04:45.999Z</time></trkpt><trkpt lat="24.56345384147507" lon="120.75902413948491"><ele>67.0</ele><time>2026-03-22T10:04:46.999Z</time></trkpt><trkpt lat="24.5635140872938" lon="120.75906141716709"><ele>67.0</ele><time>2026-03-22T10:04:47.999Z</time></trkpt><trkpt lat="24.56357687491484" lon="120.75909911658697"><ele>67.0</ele><time>2026-03-22T10:04:48.999Z</time></trkpt><trkpt lat="24.563640777248516" lon="120.7591361170386"><ele>67.0</ele><time>2026-03-22T10:04:49.999Z</time></trkpt><trkpt lat="24.563703952173668" lon="120.75917218076196"><ele>67.0</ele><time>2026-03-22T10:04:50.999Z</time></trkpt><trkpt lat="24.56376471626583" lon="120.75920782536853"><ele>66.5</ele><time>2026-03-22T10:04:51.999Z</time></trkpt><trkpt lat="24.563823587970827" lon="120.75924275287454"><ele>66.0</ele><time>2026-03-22T10:04:52.999Z</time></trkpt><trkpt lat="24.56388123812149" lon="120.75927446837487"><ele>65.5</ele><time>2026-03-22T10:04:53.999Z</time></trkpt><trkpt lat="24.56393868007073" lon="120.75930561652869"><ele>65.0</ele><time>2026-03-22T10:04:54.999Z</time></trkpt><trkpt lat="24.564049906259815" lon="120.75936771486168"><ele>64.5</ele><time>2026-03-22T10:04:56.999Z</time></trkpt><trkpt lat="24.564160754465245" lon="120.75943227708521"><ele>64.0</ele><time>2026-03-22T10:04:58.999Z</time></trkpt><trkpt lat="24.56427049865707" lon="120.7594883548578"><ele>64.0</ele><time>2026-03-22T10:05:00.999Z</time></trkpt><trkpt lat="24.56438184210819" lon="120.75954749418348"><ele>64.0</ele><time>2026-03-22T10:05:02.999Z</time></trkpt><trkpt lat="24.5644387447351" lon="120.75957716662825"><ele>64.0</ele><time>2026-03-22T10:05:03.999Z</time></trkpt><trkpt lat="24.56454390068224" lon="120.75963371345263"><ele>64.0</ele><time>2026-03-22T10:05:05.999Z</time></trkpt><trkpt lat="24.56464662578393" lon="120.75968777021926"><ele>64.0</ele><time>2026-03-22T10:05:08Z</time></trkpt><trkpt lat="24.564756961080846" lon="120.7597453897341"><ele>64.14285714285714</ele><time>2026-03-22T10:05:10Z</time></trkpt><trkpt lat="24.564814786827146" lon="120.75977482708848"><ele>64.28571428571428</ele><time>2026-03-22T10:05:11Z</time></trkpt><trkpt lat="24.56487493198408" lon="120.75980628525761"><ele>64.42857142857143</ele><time>2026-03-22T10:05:12Z</time></trkpt><trkpt lat="24.564934907748132" lon="120.7598355697537"><ele>64.57142857142857</ele><time>2026-03-22T10:05:13Z</time></trkpt><trkpt lat="24.564993408674873" lon="120.75986522160356"><ele>64.71428571428572</ele><time>2026-03-22T10:05:14Z</time></trkpt><trkpt lat="24.565052172450887" lon="120.75989409665712"><ele>64.85714285714286</ele><time>2026-03-22T10:05:15Z</time></trkpt><trkpt lat="24.565115496960154" lon="120.75992474120241"><ele>65.0</ele><time>2026-03-22T10:05:16Z</time></trkpt><trkpt lat="24.565178552165968" lon="120.75995491730049"><ele>65.00000000000001</ele><time>2026-03-22T10:05:17Z</time></trkpt><trkpt lat="24.56524127853804" lon="120.7599856559659"><ele>65.0</ele><time>2026-03-22T10:05:18Z</time></trkpt><trkpt lat="24.565305551362723" lon="120.76001689548747"><ele>65.0</ele><time>2026-03-22T10:05:19Z</time></trkpt><trkpt lat="24.565372033741674" lon="120.76005038486417"><ele>65.0</ele><time>2026-03-22T10:05:20Z</time></trkpt><trkpt lat="24.565440213543265" lon="120.7600842095584"><ele>65.0</ele><time>2026-03-22T10:05:21Z</time></trkpt><trkpt lat="24.56550377968411" lon="120.7601305842336"><ele>65.00000000000001</ele><time>2026-03-22T10:05:22Z</time></trkpt><trkpt lat="24.565568198946494" lon="120.76015064544391"><ele>65.0</ele><time>2026-03-22T10:05:23Z</time></trkpt><trkpt lat="24.56563370643153" lon="120.76017614039485"><ele>64.8</ele><time>2026-03-22T10:05:24Z</time></trkpt><trkpt lat="24.565701240005804" lon="120.76020735404357"><ele>64.6</ele><time>2026-03-22T10:05:25Z</time></trkpt><trkpt lat="24.565766094992814" lon="120.76023772743669"><ele>64.4</ele><time>2026-03-22T10:05:26Z</time></trkpt><trkpt lat="24.565878538222496" lon="120.76028500881704"><ele>64.2</ele><time>2026-03-22T10:05:28Z</time></trkpt><trkpt lat="24.56599336439921" lon="120.76034051812364"><ele>64.0</ele><time>2026-03-22T10:05:30Z</time></trkpt><trkpt lat="24.566107989480066" lon="120.76038395999429"><ele>64.2</ele><time>2026-03-22T10:05:32Z</time></trkpt><trkpt lat="24.566220491550027" lon="120.76042751016443"><ele>64.4</ele><time>2026-03-22T10:05:34Z</time></trkpt><trkpt lat="24.566334764961894" lon="120.76047395361829"><ele>64.6</ele><time>2026-03-22T10:05:36Z</time></trkpt><trkpt lat="24.566395159154418" lon="120.76049933897393"><ele>64.8</ele><time>2026-03-22T10:05:37Z</time></trkpt><trkpt lat="24.566506483800925" lon="120.76054174734023"><ele>65.0</ele><time>2026-03-22T10:05:39Z</time></trkpt><trkpt lat="24.566618807139484" lon="120.76058223850983"><ele>65.0</ele><time>2026-03-22T10:05:41Z</time></trkpt><trkpt lat="24.56667873467871" lon="120.76060521089879"><ele>65.0</ele><time>2026-03-22T10:05:42Z</time></trkpt><trkpt lat="24.566792014483298" lon="120.76065332630502"><ele>65.0</ele><time>2026-03-22T10:05:44Z</time></trkpt><trkpt lat="24.56690663298892" lon="120.76069735186972"><ele>65.0</ele><time>2026-03-22T10:05:46Z</time></trkpt><trkpt lat="24.567012503224703" lon="120.76073771450052"><ele>65.0</ele><time>2026-03-22T10:05:48Z</time></trkpt><trkpt lat="24.56710786815587" lon="120.76077030900288"><ele>63.6</ele><time>2026-03-22T10:05:50Z</time></trkpt><trkpt lat="24.56719964837196" lon="120.7608074959953"><ele>62.2</ele><time>2026-03-22T10:05:52Z</time></trkpt><trkpt lat="24.56729467466419" lon="120.76084404370458"><ele>60.8</ele><time>2026-03-22T10:05:54Z</time></trkpt><trkpt lat="24.56738601855099" lon="120.7608790963053"><ele>59.4</ele><time>2026-03-22T10:05:56Z</time></trkpt><trkpt lat="24.567478268181333" lon="120.76091855535967"><ele>58.0</ele><time>2026-03-22T10:05:58Z</time></trkpt><trkpt lat="24.567571656994303" lon="120.76095016707173"><ele>58.0</ele><time>2026-03-22T10:06:00Z</time></trkpt><trkpt lat="24.56766793725206" lon="120.76098551163727"><ele>58.0</ele><time>2026-03-22T10:06:02Z</time></trkpt><trkpt lat="24.567769031456436" lon="120.76102449629721"><ele>58.0</ele><time>2026-03-22T10:06:04Z</time></trkpt><trkpt lat="24.567871273181986" lon="120.7610591516418"><ele>58.0</ele><time>2026-03-22T10:06:06Z</time></trkpt><trkpt lat="24.567966259082027" lon="120.76109037706944"><ele>58.0</ele><time>2026-03-22T10:06:08Z</time></trkpt><trkpt lat="24.56806187297282" lon="120.76111390665343"><ele>57.666666666666664</ele><time>2026-03-22T10:06:10Z</time></trkpt><trkpt lat="24.56815721821939" lon="120.76113859371569"><ele>57.33333333333333</ele><time>2026-03-22T10:06:11.999Z</time></trkpt><trkpt lat="24.56824857649139" lon="120.76116695245663"><ele>57.0</ele><time>2026-03-22T10:06:13.999Z</time></trkpt><trkpt lat="24.568327974688945" lon="120.76119116937114"><ele>56.66666666666667</ele><time>2026-03-22T10:06:15.999Z</time></trkpt><trkpt lat="24.568408203847177" lon="120.76121647022462"><ele>56.333333333333336</ele><time>2026-03-22T10:06:17.999Z</time></trkpt><trkpt lat="24.568489300555775" lon="120.76124026867866"><ele>56.0</ele><time>2026-03-22T10:06:19.999Z</time></trkpt><trkpt lat="24.568568773561182" lon="120.76126224330096"><ele>56.0</ele><time>2026-03-22T10:06:21.999Z</time></trkpt><trkpt lat="24.568647439593445" lon="120.76128277372572"><ele>56.0</ele><time>2026-03-22T10:06:23.999Z</time></trkpt><trkpt lat="24.568715522124958" lon="120.76130244019903"><ele>56.0</ele><time>2026-03-22T10:06:25.999Z</time></trkpt><trkpt lat="24.568779670796456" lon="120.76131756683664"><ele>56.0</ele><time>2026-03-22T10:06:27.999Z</time></trkpt><trkpt lat="24.5688469919794" lon="120.7613375599442"><ele>56.0</ele><time>2026-03-22T10:06:29.999Z</time></trkpt><trkpt lat="24.568909974311108" lon="120.76136922504098"><ele>56.0</ele><time>2026-03-22T10:06:31.999Z</time></trkpt><trkpt lat="24.568975834579298" lon="120.7613878544648"><ele>56.0</ele><time>2026-03-22T10:06:33.999Z</time></trkpt><trkpt lat="24.56904103443383" lon="120.761409024044"><ele>55.285714285714285</ele><time>2026-03-22T10:06:35.999Z</time></trkpt><trkpt lat="24.569106421001468" lon="120.76143504653417"><ele>54.57142857142857</ele><time>2026-03-22T10:06:37.999Z</time></trkpt><trkpt lat="24.569170903035026" lon="120.76146016470595"><ele>53.85714285714286</ele><time>2026-03-22T10:06:39.999Z</time></trkpt><trkpt lat="24.569254552184283" lon="120.76148347124197"><ele>53.14285714285714</ele><time>2026-03-22T10:06:42.999Z</time></trkpt><trkpt lat="24.56933247685533" lon="120.76150884207544"><ele>52.42857142857143</ele><time>2026-03-22T10:06:45.999Z</time></trkpt><trkpt lat="24.56940108912841" lon="120.76152589835604"><ele>51.714285714285715</ele><time>2026-03-22T10:06:48.999Z</time></trkpt><trkpt lat="24.56946613513519" lon="120.76154079221905"><ele>51.0</ele><time>2026-03-22T10:06:51.999Z</time></trkpt><trkpt lat="24.569536167983976" lon="120.76155849403082"><ele>51.0</ele><time>2026-03-22T10:06:57Z</time></trkpt><trkpt lat="24.569603029295216" lon="120.76157458733005"><ele>51.0</ele><time>2026-03-22T10:07:02Z</time></trkpt><trkpt lat="24.56968790252482" lon="120.76159399176436"><ele>51.0</ele><time>2026-03-22T10:07:07Z</time></trkpt><trkpt lat="24.569770412748444" lon="120.76161513359695"><ele>51.0</ele><time>2026-03-22T10:07:10Z</time></trkpt><trkpt lat="24.569859060793245" lon="120.76163657560518"><ele>51.0</ele><time>2026-03-22T10:07:13Z</time></trkpt><trkpt lat="24.56992914908932" lon="120.7616521972001"><ele>51.0</ele><time>2026-03-22T10:07:15Z</time></trkpt><trkpt lat="24.570003880054905" lon="120.76166928429635"><ele>51.0</ele><time>2026-03-22T10:07:17Z</time></trkpt><trkpt lat="24.570082070847405" lon="120.76168725065055"><ele>51.0</ele><time>2026-03-22T10:07:19Z</time></trkpt><trkpt lat="24.570163373649372" lon="120.76170791431895"><ele>51.0</ele><time>2026-03-22T10:07:21Z</time></trkpt><trkpt lat="24.570244162790264" lon="120.76172767560429"><ele>51.0</ele><time>2026-03-22T10:07:23Z</time></trkpt><trkpt lat="24.570311759951434" lon="120.76174376856879"><ele>51.0</ele><time>2026-03-22T10:07:25Z</time></trkpt><trkpt lat="24.570389751895686" lon="120.7617608841077"><ele>51.0</ele><time>2026-03-22T10:07:28Z</time></trkpt><trkpt lat="24.57045602601487" lon="120.76177727829426"><ele>50.199999999999996</ele><time>2026-03-22T10:07:31Z</time></trkpt><trkpt lat="24.570530891268824" lon="120.76179508066082"><ele>49.4</ele><time>2026-03-22T10:07:33Z</time></trkpt><trkpt lat="24.570643600758892" lon="120.76182110193739"><ele>48.6</ele><time>2026-03-22T10:07:35Z</time></trkpt><trkpt lat="24.570759058484832" lon="120.76184613595929"><ele>47.8</ele><time>2026-03-22T10:07:37Z</time></trkpt><trkpt lat="24.570872749674205" lon="120.76187226226095"><ele>47.0</ele><time>2026-03-22T10:07:39Z</time></trkpt><trkpt lat="24.570980463409995" lon="120.76189349835597"><ele>46.33333333333333</ele><time>2026-03-22T10:07:41Z</time></trkpt><trkpt lat="24.571065743045917" lon="120.76191251382365"><ele>45.666666666666664</ele><time>2026-03-22T10:07:43Z</time></trkpt><trkpt lat="24.571129388899454" lon="120.76192722943868"><ele>45.0</ele><time>2026-03-22T10:07:45Z</time></trkpt><trkpt lat="24.571195580911915" lon="120.76194135773089"><ele>44.333333333333336</ele><time>2026-03-22T10:07:47Z</time></trkpt><trkpt lat="24.571257821373344" lon="120.76195475505166"><ele>43.66666666666667</ele><time>2026-03-22T10:07:49Z</time></trkpt><trkpt lat="24.571347461257425" lon="120.76197461128532"><ele>43.0</ele><time>2026-03-22T10:07:52Z</time></trkpt><trkpt lat="24.571441771936556" lon="120.76199077103078"><ele>43.0</ele><time>2026-03-22T10:07:55Z</time></trkpt><trkpt lat="24.571521279811403" lon="120.76200669943638"><ele>43.0</ele><time>2026-03-22T10:07:57Z</time></trkpt><trkpt lat="24.571611800757783" lon="120.7620260684534"><ele>43.0</ele><time>2026-03-22T10:07:59Z</time></trkpt><trkpt lat="24.571700949877094" lon="120.76204569817259"><ele>43.0</ele><time>2026-03-22T10:08:01Z</time></trkpt><trkpt lat="24.571791199398927" lon="120.76206278996499"><ele>43.0</ele><time>2026-03-22T10:08:03Z</time></trkpt><trkpt lat="24.57188421767083" lon="120.76208079964618"><ele>43.0</ele><time>2026-03-22T10:08:05Z</time></trkpt><trkpt lat="24.57197725583761" lon="120.76209801580112"><ele>43.0</ele><time>2026-03-22T10:08:07Z</time></trkpt><trkpt lat="24.572072579104848" lon="120.76211647014793"><ele>43.0</ele><time>2026-03-22T10:08:09Z</time></trkpt><trkpt lat="24.57218515337819" lon="120.76213824437171"><ele>43.0</ele><time>2026-03-22T10:08:11Z</time></trkpt><trkpt lat="24.572249269924693" lon="120.76215162149964"><ele>43.0</ele><time>2026-03-22T10:08:12Z</time></trkpt><trkpt lat="24.572317058701568" lon="120.76216587704997"><ele>43.0</ele><time>2026-03-22T10:08:13Z</time></trkpt><trkpt lat="24.572384339431043" lon="120.76218039735798"><ele>42.57142857142858</ele><time>2026-03-22T10:08:14Z</time></trkpt><trkpt lat="24.572452196705683" lon="120.76219156574199"><ele>42.142857142857146</ele><time>2026-03-22T10:08:15Z</time></trkpt><trkpt lat="24.572520022167055" lon="120.76220734155045"><ele>41.714285714285715</ele><time>2026-03-22T10:08:16Z</time></trkpt><trkpt lat="24.572590401111995" lon="120.76222126888007"><ele>41.28571428571429</ele><time>2026-03-22T10:08:16.999Z</time></trkpt><trkpt lat="24.572659828322717" lon="120.76223655504924"><ele>40.85714285714286</ele><time>2026-03-22T10:08:17.999Z</time></trkpt><trkpt lat="24.572723206187053" lon="120.76224725105291"><ele>40.42857142857143</ele><time>2026-03-22T10:08:18.999Z</time></trkpt><trkpt lat="24.572785380124966" lon="120.76226152872636"><ele>40.0</ele><time>2026-03-22T10:08:19.999Z</time></trkpt><trkpt lat="24.572903071376405" lon="120.76228527957088"><ele>42.2</ele><time>2026-03-22T10:08:21.999Z</time></trkpt><trkpt lat="24.573000184504416" lon="120.76230537354175"><ele>44.4</ele><time>2026-03-22T10:08:23.999Z</time></trkpt><trkpt lat="24.57307987080841" lon="120.76232195969148"><ele>46.599999999999994</ele><time>2026-03-22T10:08:25.999Z</time></trkpt><trkpt lat="24.573174622401897" lon="120.76234200084048"><ele>48.8</ele><time>2026-03-22T10:08:27.999Z</time></trkpt><trkpt lat="24.573281726260966" lon="120.7623638193701"><ele>51.0</ele><time>2026-03-22T10:08:29.999Z</time></trkpt><trkpt lat="24.573403959678906" lon="120.76239032817429"><ele>51.0</ele><time>2026-03-22T10:08:31.999Z</time></trkpt><trkpt lat="24.573473505741674" lon="120.76240520995287"><ele>51.0</ele><time>2026-03-22T10:08:33Z</time></trkpt><trkpt lat="24.573548632067965" lon="120.76241987820607"><ele>51.0</ele><time>2026-03-22T10:08:34Z</time></trkpt><trkpt lat="24.57362330067837" lon="120.76243556148943"><ele>51.0</ele><time>2026-03-22T10:08:35Z</time></trkpt><trkpt lat="24.5736918753605" lon="120.76244846443343"><ele>51.0</ele><time>2026-03-22T10:08:36Z</time></trkpt><trkpt lat="24.573761034223406" lon="120.7624653113548"><ele>51.0</ele><time>2026-03-22T10:08:37Z</time></trkpt><trkpt lat="24.573831773385088" lon="120.7624808415729"><ele>51.0</ele><time>2026-03-22T10:08:38Z</time></trkpt><trkpt lat="24.573911853959327" lon="120.76250083106495"><ele>53.166666666666664</ele><time>2026-03-22T10:08:39Z</time></trkpt><trkpt lat="24.57400078076122" lon="120.76252125337898"><ele>55.33333333333333</ele><time>2026-03-22T10:08:40Z</time></trkpt><trkpt lat="24.574092662347176" lon="120.76253874593758"><ele>57.5</ele><time>2026-03-22T10:08:41Z</time></trkpt><trkpt lat="24.574182034427412" lon="120.76255765915197"><ele>59.666666666666664</ele><time>2026-03-22T10:08:42Z</time></trkpt><trkpt lat="24.57426709701081" lon="120.76257792573905"><ele>61.83333333333333</ele><time>2026-03-22T10:08:43Z</time></trkpt><trkpt lat="24.574347251740484" lon="120.76259530404312"><ele>64.0</ele><time>2026-03-22T10:08:44Z</time></trkpt><trkpt lat="24.574425230977322" lon="120.762613029885"><ele>63.99999999999999</ele><time>2026-03-22T10:08:45Z</time></trkpt><trkpt lat="24.574507642576794" lon="120.76263300087733"><ele>64.0</ele><time>2026-03-22T10:08:46Z</time></trkpt><trkpt lat="24.57459011392512" lon="120.76265406500956"><ele>64.0</ele><time>2026-03-22T10:08:47Z</time></trkpt><trkpt lat="24.57467344138099" lon="120.76267330547337"><ele>64.0</ele><time>2026-03-22T10:08:48Z</time></trkpt><trkpt lat="24.57475880325914" lon="120.76269646378499"><ele>63.99999999999999</ele><time>2026-03-22T10:08:49Z</time></trkpt><trkpt lat="24.57484945857212" lon="120.76271837498305"><ele>64.0</ele><time>2026-03-22T10:08:50Z</time></trkpt><trkpt lat="24.574943449796336" lon="120.76274237057906"><ele>65.4</ele><time>2026-03-22T10:08:51Z</time></trkpt><trkpt lat="24.57503684877765" lon="120.76276588243748"><ele>66.80000000000001</ele><time>2026-03-22T10:08:52Z</time></trkpt><trkpt lat="24.57513035606306" lon="120.76278898122702"><ele>68.19999999999999</ele><time>2026-03-22T10:08:53Z</time></trkpt><trkpt lat="24.575222480862703" lon="120.76281255726434"><ele>69.6</ele><time>2026-03-22T10:08:54Z</time></trkpt><trkpt lat="24.575313136171772" lon="120.76283555700215"><ele>71.0</ele><time>2026-03-22T10:08:55Z</time></trkpt><trkpt lat="24.575406079257657" lon="120.7628602692795"><ele>71.0</ele><time>2026-03-22T10:08:56Z</time></trkpt><trkpt lat="24.57550443756933" lon="120.7628864505132"><ele>71.0</ele><time>2026-03-22T10:08:57Z</time></trkpt><trkpt lat="24.575600117286296" lon="120.76291112913128"><ele>71.0</ele><time>2026-03-22T10:08:58Z</time></trkpt><trkpt lat="24.575696538206" lon="120.7629385548475"><ele>71.0</ele><time>2026-03-22T10:08:59Z</time></trkpt><trkpt lat="24.575800667833423" lon="120.7629691113368"><ele>71.0</ele><time>2026-03-22T10:09:00Z</time></trkpt><trkpt lat="24.5759050967163" lon="120.76299882311841"><ele>71.0</ele><time>2026-03-22T10:09:01Z</time></trkpt><trkpt lat="24.576010990514" lon="120.76302894196303"><ele>71.0</ele><time>2026-03-22T10:09:02Z</time></trkpt><trkpt lat="24.576118998782437" lon="120.7630616548075"><ele>71.0</ele><time>2026-03-22T10:09:03Z</time></trkpt><trkpt lat="24.576232635169298" lon="120.76309650499178"><ele>71.0</ele><time>2026-03-22T10:09:04Z</time></trkpt><trkpt lat="24.57634697638142" lon="120.7631324441692"><ele>69.25</ele><time>2026-03-22T10:09:05Z</time></trkpt><trkpt lat="24.576459894534658" lon="120.76316628762028"><ele>67.5</ele><time>2026-03-22T10:09:06Z</time></trkpt><trkpt lat="24.576568188763456" lon="120.76320197213204"><ele>65.75</ele><time>2026-03-22T10:09:07Z</time></trkpt><trkpt lat="24.576678221514122" lon="120.76323864822089"><ele>64.0</ele><time>2026-03-22T10:09:08Z</time></trkpt><trkpt lat="24.57678769351835" lon="120.76327885150342"><ele>64.0</ele><time>2026-03-22T10:09:09Z</time></trkpt><trkpt lat="24.576900296716662" lon="120.76331678576095"><ele>64.0</ele><time>2026-03-22T10:09:10Z</time></trkpt><trkpt lat="24.57701228115134" lon="120.76335643620946"><ele>64.0</ele><time>2026-03-22T10:09:11Z</time></trkpt><trkpt lat="24.577124081596487" lon="120.76339478852968"><ele>64.0</ele><time>2026-03-22T10:09:12Z</time></trkpt><trkpt lat="24.5772359650178" lon="120.76343411440273"><ele>60.75</ele><time>2026-03-22T10:09:13Z</time></trkpt><trkpt lat="24.577345504338584" lon="120.7634782011048"><ele>57.5</ele><time>2026-03-22T10:09:14Z</time></trkpt><trkpt lat="24.577457070717458" lon="120.76352038651174"><ele>54.25</ele><time>2026-03-22T10:09:15Z</time></trkpt><trkpt lat="24.577574739867423" lon="120.76356589186283"><ele>51.0</ele><time>2026-03-22T10:09:16Z</time></trkpt><trkpt lat="24.577695734343635" lon="120.76361392511168"><ele>49.75</ele><time>2026-03-22T10:09:17Z</time></trkpt><trkpt lat="24.577822731148032" lon="120.7636660064601"><ele>48.5</ele><time>2026-03-22T10:09:18Z</time></trkpt><trkpt lat="24.57794835795348" lon="120.76371978069803"><ele>47.25</ele><time>2026-03-22T10:09:19Z</time></trkpt><trkpt lat="24.578074161858815" lon="120.76377476400043"><ele>46.0</ele><time>2026-03-22T10:09:20Z</time></trkpt><trkpt lat="24.578196166377825" lon="120.76382696087153"><ele>43.0</ele><time>2026-03-22T10:09:21Z</time></trkpt><trkpt lat="24.578312771436057" lon="120.76388020727377"><ele>40.0</ele><time>2026-03-22T10:09:22Z</time></trkpt><trkpt lat="24.57842895866945" lon="120.76393422380966"><ele>37.0</ele><time>2026-03-22T10:09:23Z</time></trkpt><trkpt lat="24.578544428143267" lon="120.76398766022504"><ele>34.0</ele><time>2026-03-22T10:09:24Z</time></trkpt><trkpt lat="24.578659412516295" lon="120.76404225887845"><ele>38.0</ele><time>2026-03-22T10:09:25Z</time></trkpt><trkpt lat="24.578776554782415" lon="120.76409925596379"><ele>42.0</ele><time>2026-03-22T10:09:26Z</time></trkpt><trkpt lat="24.578894527672674" lon="120.76415735964778"><ele>46.0</ele><time>2026-03-22T10:09:27Z</time></trkpt><trkpt lat="24.57901281495699" lon="120.76421590243926"><ele>50.0</ele><time>2026-03-22T10:09:28Z</time></trkpt><trkpt lat="24.57913461625567" lon="120.76427713947089"><ele>50.0</ele><time>2026-03-22T10:09:29Z</time></trkpt><trkpt lat="24.57925412861556" lon="120.76433770073962"><ele>50.0</ele><time>2026-03-22T10:09:30Z</time></trkpt><trkpt lat="24.579376849875214" lon="120.76440059918735"><ele>50.0</ele><time>2026-03-22T10:09:31Z</time></trkpt><trkpt lat="24.579500853486305" lon="120.76446759813486"><ele>50.0</ele><time>2026-03-22T10:09:32Z</time></trkpt><trkpt lat="24.579624160904103" lon="120.76453453992056"><ele>52.5</ele><time>2026-03-22T10:09:33Z</time></trkpt><trkpt lat="24.57974652800737" lon="120.7646043991127"><ele>55.0</ele><time>2026-03-22T10:09:34Z</time></trkpt><trkpt lat="24.57986808964835" lon="120.76467233576525"><ele>57.5</ele><time>2026-03-22T10:09:35Z</time></trkpt><trkpt lat="24.579986285713378" lon="120.76474215269535"><ele>60.0</ele><time>2026-03-22T10:09:36Z</time></trkpt><trkpt lat="24.580101995632123" lon="120.76480970122185"><ele>60.0</ele><time>2026-03-22T10:09:37Z</time></trkpt><trkpt lat="24.580213994774873" lon="120.76487634536426"><ele>60.0</ele><time>2026-03-22T10:09:38Z</time></trkpt><trkpt lat="24.580325100491596" lon="120.76494152436955"><ele>60.0</ele><time>2026-03-22T10:09:39Z</time></trkpt><trkpt lat="24.580438310854397" lon="120.76501019731192"><ele>60.0</ele><time>2026-03-22T10:09:40Z</time></trkpt><trkpt lat="24.580554451781964" lon="120.76508126341146"><ele>59.75</ele><time>2026-03-22T10:09:41Z</time></trkpt><trkpt lat="24.58067240629417" lon="120.76515567292638"><ele>59.5</ele><time>2026-03-22T10:09:42Z</time></trkpt><trkpt lat="24.580791885743317" lon="120.76523194007356"><ele>59.25</ele><time>2026-03-22T10:09:43Z</time></trkpt><trkpt lat="24.58091167221939" lon="120.76530843522613"><ele>59.0</ele><time>2026-03-22T10:09:44Z</time></trkpt><trkpt lat="24.581028369575524" lon="120.76538776980611"><ele>61.25</ele><time>2026-03-22T10:09:45Z</time></trkpt><trkpt lat="24.581142619065222" lon="120.76546628812245"><ele>63.5</ele><time>2026-03-22T10:09:46Z</time></trkpt><trkpt lat="24.581255152068053" lon="120.76554430734429"><ele>65.75</ele><time>2026-03-22T10:09:47Z</time></trkpt><trkpt lat="24.581367868614485" lon="120.76562119833925"><ele>68.0</ele><time>2026-03-22T10:09:48Z</time></trkpt><trkpt lat="24.58147865578844" lon="120.76569692936067"><ele>69.0</ele><time>2026-03-22T10:09:49Z</time></trkpt><trkpt lat="24.581588194871664" lon="120.76577354176459"><ele>70.0</ele><time>2026-03-22T10:09:50Z</time></trkpt><trkpt lat="24.581697684205" lon="120.76585665190113"><ele>71.0</ele><time>2026-03-22T10:09:51Z</time></trkpt><trkpt lat="24.581802745946664" lon="120.76593860361957"><ele>72.0</ele><time>2026-03-22T10:09:52Z</time></trkpt><trkpt lat="24.58190495264119" lon="120.76601831625878"><ele>71.0</ele><time>2026-03-22T10:09:53Z</time></trkpt><trkpt lat="24.58200718672666" lon="120.76609724946852"><ele>70.0</ele><time>2026-03-22T10:09:54Z</time></trkpt><trkpt lat="24.58210556131529" lon="120.76617277340843"><ele>69.0</ele><time>2026-03-22T10:09:55Z</time></trkpt><trkpt lat="24.582194136832374" lon="120.76624681865911"><ele>68.0</ele><time>2026-03-22T10:09:56Z</time></trkpt><trkpt lat="24.582285241768634" lon="120.76632100550839"><ele>68.0</ele><time>2026-03-22T10:09:57Z</time></trkpt><trkpt lat="24.58237515170309" lon="120.76639289147292"><ele>68.0</ele><time>2026-03-22T10:09:58Z</time></trkpt><trkpt lat="24.582462840858195" lon="120.76646552173464"><ele>68.0</ele><time>2026-03-22T10:09:59Z</time></trkpt><trkpt lat="24.582551300306513" lon="120.76653718013056"><ele>68.0</ele><time>2026-03-22T10:10:00Z</time></trkpt><trkpt lat="24.582639345605894" lon="120.76660974599287"><ele>68.0</ele><time>2026-03-22T10:10:01Z</time></trkpt><trkpt lat="24.582726840940285" lon="120.76668259557115"><ele>68.0</ele><time>2026-03-22T10:10:02Z</time></trkpt><trkpt lat="24.582811718750637" lon="120.7667565208592"><ele>68.0</ele><time>2026-03-22T10:10:03Z</time></trkpt><trkpt lat="24.582895910283554" lon="120.7668299435321"><ele>68.0</ele><time>2026-03-22T10:10:04Z</time></trkpt><trkpt lat="24.582981567624145" lon="120.7669069649248"><ele>68.0</ele><time>2026-03-22T10:10:05Z</time></trkpt><trkpt lat="24.583065340119735" lon="120.7669806262397"><ele>68.0</ele><time>2026-03-22T10:10:06Z</time></trkpt><trkpt lat="24.583143585032392" lon="120.76704753229096"><ele>69.0</ele><time>2026-03-22T10:10:07Z</time></trkpt><trkpt lat="24.583216613762385" lon="120.76711463602594"><ele>70.0</ele><time>2026-03-22T10:10:08Z</time></trkpt><trkpt lat="24.58328968785571" lon="120.76718165406125"><ele>71.0</ele><time>2026-03-22T10:10:09Z</time></trkpt><trkpt lat="24.58336013449582" lon="120.76724628464595"><ele>72.0</ele><time>2026-03-22T10:10:10Z</time></trkpt><trkpt lat="24.58342859379896" lon="120.76731048845998"><ele>73.0</ele><time>2026-03-22T10:10:11Z</time></trkpt><trkpt lat="24.583493520875468" lon="120.76737214886906"><ele>73.0</ele><time>2026-03-22T10:10:12Z</time></trkpt><trkpt lat="24.583554901120486" lon="120.76743037511659"><ele>73.0</ele><time>2026-03-22T10:10:13Z</time></trkpt><trkpt lat="24.583607556464656" lon="120.76748190673602"><ele>73.0</ele><time>2026-03-22T10:10:14Z</time></trkpt><trkpt lat="24.583676531651115" lon="120.76755016183596"><ele>73.0</ele><time>2026-03-22T10:10:16Z</time></trkpt><trkpt lat="24.58373489325353" lon="120.76760761896813"><ele>73.0</ele><time>2026-03-22T10:10:18Z</time></trkpt><trkpt lat="24.58379748721199" lon="120.76767270876732"><ele>73.0</ele><time>2026-03-22T10:10:20Z</time></trkpt><trkpt lat="24.583857798781008" lon="120.76771899070093"><ele>71.5</ele><time>2026-03-22T10:10:22Z</time></trkpt><trkpt lat="24.583914774459405" lon="120.76778140037582"><ele>70.0</ele><time>2026-03-22T10:10:25Z</time></trkpt><trkpt lat="24.583972243311795" lon="120.76783720501672"><ele>68.5</ele><time>2026-03-22T10:10:28Z</time></trkpt><trkpt lat="24.584019328295515" lon="120.76788315747152"><ele>67.0</ele><time>2026-03-22T10:10:31Z</time></trkpt><trkpt lat="24.58409309008706" lon="120.76795847987444"><ele>65.5</ele><time>2026-03-22T10:10:34Z</time></trkpt><trkpt lat="24.584150067668432" lon="120.76802544769218"><ele>64.0</ele><time>2026-03-22T10:10:36Z</time></trkpt><trkpt lat="24.58422541058278" lon="120.7681131222171"><ele>63.99999999999999</ele><time>2026-03-22T10:10:38Z</time></trkpt><trkpt lat="24.584311039265618" lon="120.76820267640761"><ele>64.0</ele><time>2026-03-22T10:10:40Z</time></trkpt><trkpt lat="24.58436010576216" lon="120.76825417972135"><ele>64.0</ele><time>2026-03-22T10:10:41Z</time></trkpt><trkpt lat="24.58441161623883" lon="120.76830650573325"><ele>64.0</ele><time>2026-03-22T10:10:42Z</time></trkpt><trkpt lat="24.58445991236536" lon="120.76836441107487"><ele>63.99999999999999</ele><time>2026-03-22T10:10:43Z</time></trkpt><trkpt lat="24.58450866808332" lon="120.76841796414868"><ele>64.0</ele><time>2026-03-22T10:10:44Z</time></trkpt><trkpt lat="24.58459538231142" lon="120.76851559032596"><ele>61.6</ele><time>2026-03-22T10:10:46Z</time></trkpt><trkpt lat="24.584685073184676" lon="120.76860773220639"><ele>59.2</ele><time>2026-03-22T10:10:48Z</time></trkpt><trkpt lat="24.58476439000185" lon="120.76868594157682"><ele>56.800000000000004</ele><time>2026-03-22T10:10:50Z</time></trkpt><trkpt lat="24.584826224730904" lon="120.76875983949672"><ele>54.400000000000006</ele><time>2026-03-22T10:10:52Z</time></trkpt><trkpt lat="24.584896176311712" lon="120.768833353448"><ele>52.0</ele><time>2026-03-22T10:10:54Z</time></trkpt><trkpt lat="24.584956712564722" lon="120.76889461264786"><ele>52.0</ele><time>2026-03-22T10:10:56Z</time></trkpt><trkpt lat="24.585009733787608" lon="120.76895369472749"><ele>52.0</ele><time>2026-03-22T10:10:58Z</time></trkpt><trkpt lat="24.585058181012304" lon="120.76901265142735"><ele>52.0</ele><time>2026-03-22T10:11:00Z</time></trkpt><trkpt lat="24.585099136787342" lon="120.76906800472584"><ele>52.0</ele><time>2026-03-22T10:11:02Z</time></trkpt><trkpt lat="24.585148012394782" lon="120.76911786257855"><ele>52.0</ele><time>2026-03-22T10:11:04Z</time></trkpt><trkpt lat="24.585216290352342" lon="120.76919253853949"><ele>52.0</ele><time>2026-03-22T10:11:07Z</time></trkpt><trkpt lat="24.585265177625665" lon="120.7692518216106"><ele>52.0</ele><time>2026-03-22T10:11:09Z</time></trkpt><trkpt lat="24.585310708541844" lon="120.76931456448465"><ele>51.0</ele><time>2026-03-22T10:11:12Z</time></trkpt><trkpt lat="24.58535623618741" lon="120.76937062795362"><ele>50.0</ele><time>2026-03-22T10:11:15Z</time></trkpt><trkpt lat="24.58540798139374" lon="120.7694282029817"><ele>49.0</ele><time>2026-03-22T10:11:18Z</time></trkpt><trkpt lat="24.58545798880202" lon="120.76948787010893"><ele>48.0</ele><time>2026-03-22T10:11:21Z</time></trkpt><trkpt lat="24.585511708886123" lon="120.76955495042112"><ele>47.0</ele><time>2026-03-22T10:11:24Z</time></trkpt><trkpt lat="24.58555878325684" lon="120.76961203212214"><ele>46.0</ele><time>2026-03-22T10:11:26Z</time></trkpt><trkpt lat="24.585612233685566" lon="120.76967797164014"><ele>45.0</ele><time>2026-03-22T10:11:28Z</time></trkpt><trkpt lat="24.585663368125005" lon="120.76974402776273"><ele>45.0</ele><time>2026-03-22T10:11:30Z</time></trkpt><trkpt lat="24.58571505012411" lon="120.76980747643042"><ele>45.0</ele><time>2026-03-22T10:11:32Z</time></trkpt><trkpt lat="24.585772079777488" lon="120.76988178727078"><ele>45.0</ele><time>2026-03-22T10:11:34Z</time></trkpt><trkpt lat="24.585835863251592" lon="120.7699634368542"><ele>45.0</ele><time>2026-03-22T10:11:36Z</time></trkpt><trkpt lat="24.58589783223827" lon="120.7700453041642"><ele>45.0</ele><time>2026-03-22T10:11:38Z</time></trkpt><trkpt lat="24.585962802617978" lon="120.77013157163837"><ele>44.4</ele><time>2026-03-22T10:11:40Z</time></trkpt><trkpt lat="24.586028550865834" lon="120.7702191368296"><ele>43.8</ele><time>2026-03-22T10:11:42Z</time></trkpt><trkpt lat="24.586090013766203" lon="120.77030712435341"><ele>43.2</ele><time>2026-03-22T10:11:44Z</time></trkpt><trkpt lat="24.586152787704776" lon="120.77038925277978"><ele>42.6</ele><time>2026-03-22T10:11:46Z</time></trkpt><trkpt lat="24.586214900860153" lon="120.77047459739444"><ele>42.0</ele><time>2026-03-22T10:11:48Z</time></trkpt><trkpt lat="24.586276863407008" lon="120.77056028226778"><ele>42.0</ele><time>2026-03-22T10:11:50Z</time></trkpt><trkpt lat="24.586337965734096" lon="120.77064151346259"><ele>42.0</ele><time>2026-03-22T10:11:52Z</time></trkpt><trkpt lat="24.586392493744857" lon="120.77071651960493"><ele>42.0</ele><time>2026-03-22T10:11:54Z</time></trkpt><trkpt lat="24.586444032461333" lon="120.77078656713898"><ele>42.0</ele><time>2026-03-22T10:11:56Z</time></trkpt><trkpt lat="24.58649257249993" lon="120.77085148930304"><ele>42.0</ele><time>2026-03-22T10:11:58Z</time></trkpt><trkpt lat="24.586539612402177" lon="120.77091790324481"><ele>42.0</ele><time>2026-03-22T10:12:00Z</time></trkpt><trkpt lat="24.586588166319206" lon="120.77098848836812"><ele>43.400000000000006</ele><time>2026-03-22T10:12:02Z</time></trkpt><trkpt lat="24.5866466258697" lon="120.77106854216721"><ele>44.800000000000004</ele><time>2026-03-22T10:12:04Z</time></trkpt><trkpt lat="24.586708596434658" lon="120.77115885486093"><ele>46.2</ele><time>2026-03-22T10:12:06.001Z</time></trkpt><trkpt lat="24.58677090847951" lon="120.77125107310091"><ele>47.6</ele><time>2026-03-22T10:12:08.001Z</time></trkpt><trkpt lat="24.58683583942841" lon="120.77134576617613"><ele>49.0</ele><time>2026-03-22T10:12:10.001Z</time></trkpt><trkpt lat="24.586906570841577" lon="120.7714519822528"><ele>48.99999999999999</ele><time>2026-03-22T10:12:12.001Z</time></trkpt><trkpt lat="24.586979722860452" lon="120.77156409885558"><ele>49.0</ele><time>2026-03-22T10:12:14.001Z</time></trkpt><trkpt lat="24.58702015343251" lon="120.77162605195215"><ele>49.0</ele><time>2026-03-22T10:12:15.001Z</time></trkpt><trkpt lat="24.58706308287595" lon="120.77169027370239"><ele>49.0</ele><time>2026-03-22T10:12:16.001Z</time></trkpt><trkpt lat="24.587105486618576" lon="120.77175614272237"><ele>48.99999999999999</ele><time>2026-03-22T10:12:17.001Z</time></trkpt><trkpt lat="24.587148931894216" lon="120.77182486356324"><ele>49.0</ele><time>2026-03-22T10:12:18.001Z</time></trkpt><trkpt lat="24.587194916153813" lon="120.77189896739867"><ele>47.49999999999999</ele><time>2026-03-22T10:12:19.001Z</time></trkpt><trkpt lat="24.587242705411374" lon="120.77197129146016"><ele>46.0</ele><time>2026-03-22T10:12:20.001Z</time></trkpt><trkpt lat="24.587290595396492" lon="120.77204638543127"><ele>44.5</ele><time>2026-03-22T10:12:21.001Z</time></trkpt><trkpt lat="24.58734098084883" lon="120.77212799886918"><ele>43.0</ele><time>2026-03-22T10:12:22.001Z</time></trkpt><trkpt lat="24.587392529980384" lon="120.77221394395691"><ele>41.5</ele><time>2026-03-22T10:12:23.001Z</time></trkpt><trkpt lat="24.58744531845123" lon="120.77230092136726"><ele>40.0</ele><time>2026-03-22T10:12:24.001Z</time></trkpt><trkpt lat="24.587500184560255" lon="120.77238984494826"><ele>40.0</ele><time>2026-03-22T10:12:25.001Z</time></trkpt><trkpt lat="24.58755729915726" lon="120.77248326427177"><ele>40.0</ele><time>2026-03-22T10:12:26.001Z</time></trkpt><trkpt lat="24.587614212145578" lon="120.772580509549"><ele>40.0</ele><time>2026-03-22T10:12:27.001Z</time></trkpt><trkpt lat="24.587671694984557" lon="120.77267765297744"><ele>40.0</ele><time>2026-03-22T10:12:28Z</time></trkpt><trkpt lat="24.587727756025128" lon="120.7727762759444"><ele>40.0</ele><time>2026-03-22T10:12:29Z</time></trkpt><trkpt lat="24.587785968484148" lon="120.77287456867433"><ele>39.2</ele><time>2026-03-22T10:12:30Z</time></trkpt><trkpt lat="24.58784584314318" lon="120.77297137969687"><ele>38.4</ele><time>2026-03-22T10:12:31Z</time></trkpt><trkpt lat="24.58790148738936" lon="120.77306934227559"><ele>37.6</ele><time>2026-03-22T10:12:32Z</time></trkpt><trkpt lat="24.587954876384362" lon="120.77316839587652"><ele>36.8</ele><time>2026-03-22T10:12:33Z</time></trkpt><trkpt lat="24.588012688479164" lon="120.77326467803118"><ele>36.0</ele><time>2026-03-22T10:12:34Z</time></trkpt><trkpt lat="24.588068672894813" lon="120.77336422988918"><ele>36.0</ele><time>2026-03-22T10:12:35Z</time></trkpt><trkpt lat="24.588122689735172" lon="120.77345990139571"><ele>36.0</ele><time>2026-03-22T10:12:36Z</time></trkpt><trkpt lat="24.588174766316808" lon="120.77355281322035"><ele>36.0</ele><time>2026-03-22T10:12:37Z</time></trkpt><trkpt lat="24.588227337973592" lon="120.77364762405762"><ele>36.0</ele><time>2026-03-22T10:12:38Z</time></trkpt><trkpt lat="24.588280500860073" lon="120.7737423233523"><ele>36.0</ele><time>2026-03-22T10:12:39Z</time></trkpt><trkpt lat="24.58833274064772" lon="120.77383743776808"><ele>35.8</ele><time>2026-03-22T10:12:40Z</time></trkpt><trkpt lat="24.588387770164367" lon="120.77393619087074"><ele>35.6</ele><time>2026-03-22T10:12:41Z</time></trkpt><trkpt lat="24.588441380529545" lon="120.77403581532761"><ele>35.4</ele><time>2026-03-22T10:12:42Z</time></trkpt><trkpt lat="24.588497261024234" lon="120.77413697813694"><ele>35.2</ele><time>2026-03-22T10:12:43Z</time></trkpt><trkpt lat="24.588552740116707" lon="120.77423732277799"><ele>35.0</ele><time>2026-03-22T10:12:44Z</time></trkpt><trkpt lat="24.588609194726594" lon="120.77434352310198"><ele>34.5</ele><time>2026-03-22T10:12:45Z</time></trkpt><trkpt lat="24.588669380234915" lon="120.77445501647597"><ele>34.0</ele><time>2026-03-22T10:12:46Z</time></trkpt><trkpt lat="24.588733013218132" lon="120.77457091292572"><ele>33.5</ele><time>2026-03-22T10:12:47Z</time></trkpt><trkpt lat="24.5887971960131" lon="120.7746911336113"><ele>33.0</ele><time>2026-03-22T10:12:48Z</time></trkpt><trkpt lat="24.58886459862444" lon="120.77480356276911"><ele>34.25</ele><time>2026-03-22T10:12:49Z</time></trkpt><trkpt lat="24.588931955011933" lon="120.77492556581345"><ele>35.5</ele><time>2026-03-22T10:12:50Z</time></trkpt><trkpt lat="24.588995959994225" lon="120.77504754925981"><ele>36.75</ele><time>2026-03-22T10:12:51Z</time></trkpt><trkpt lat="24.589062079262895" lon="120.77516950068791"><ele>38.0</ele><time>2026-03-22T10:12:52Z</time></trkpt><trkpt lat="24.589124962235797" lon="120.77529303861522"><ele>38.0</ele><time>2026-03-22T10:12:53Z</time></trkpt><trkpt lat="24.589190475095656" lon="120.77541510109337"><ele>38.0</ele><time>2026-03-22T10:12:54Z</time></trkpt><trkpt lat="24.589257454522432" lon="120.77553926444128"><ele>38.0</ele><time>2026-03-22T10:12:55Z</time></trkpt><trkpt lat="24.589324576363193" lon="120.77566643653446"><ele>38.0</ele><time>2026-03-22T10:12:56Z</time></trkpt><trkpt lat="24.589390857460376" lon="120.77579438219871"><ele>38.0</ele><time>2026-03-22T10:12:57Z</time></trkpt><trkpt lat="24.589458219723394" lon="120.77592070990191"><ele>38.0</ele><time>2026-03-22T10:12:58Z</time></trkpt><trkpt lat="24.589526105029424" lon="120.77604642054148"><ele>38.0</ele><time>2026-03-22T10:12:59Z</time></trkpt><trkpt lat="24.58959317464012" lon="120.77617290177643"><ele>38.0</ele><time>2026-03-22T10:13:00Z</time></trkpt><trkpt lat="24.58966042888829" lon="120.776299502068"><ele>38.0</ele><time>2026-03-22T10:13:01Z</time></trkpt><trkpt lat="24.589727543538068" lon="120.77642491908598"><ele>38.0</ele><time>2026-03-22T10:13:02Z</time></trkpt><trkpt lat="24.589796065318563" lon="120.77654766092466"><ele>38.0</ele><time>2026-03-22T10:13:03Z</time></trkpt><trkpt lat="24.589863885082956" lon="120.77667184461005"><ele>38.0</ele><time>2026-03-22T10:13:04Z</time></trkpt><trkpt lat="24.58993090318788" lon="120.77679479653497"><ele>37.75</ele><time>2026-03-22T10:13:05Z</time></trkpt><trkpt lat="24.589992747616844" lon="120.77691161796436"><ele>37.5</ele><time>2026-03-22T10:13:06Z</time></trkpt><trkpt lat="24.590052952044452" lon="120.77702029461902"><ele>37.25</ele><time>2026-03-22T10:13:07Z</time></trkpt><trkpt lat="24.59011434395817" lon="120.77712413590545"><ele>37.0</ele><time>2026-03-22T10:13:08Z</time></trkpt><trkpt lat="24.590181836122508" lon="120.77722501062823"><ele>37.0</ele><time>2026-03-22T10:13:09Z</time></trkpt><trkpt lat="24.590254038578113" lon="120.77732489844885"><ele>37.0</ele><time>2026-03-22T10:13:10Z</time></trkpt><trkpt lat="24.590317261123758" lon="120.77743414020091"><ele>37.0</ele><time>2026-03-22T10:13:11Z</time></trkpt><trkpt lat="24.590384003834064" lon="120.7775438567515"><ele>37.0</ele><time>2026-03-22T10:13:12Z</time></trkpt><trkpt lat="24.590448404873626" lon="120.77765145458307"><ele>38.0</ele><time>2026-03-22T10:13:13Z</time></trkpt><trkpt lat="24.59051283908231" lon="120.77776047556478"><ele>39.0</ele><time>2026-03-22T10:13:14Z</time></trkpt><trkpt lat="24.590580280239152" lon="120.7778729027033"><ele>40.0</ele><time>2026-03-22T10:13:15Z</time></trkpt><trkpt lat="24.59064884245791" lon="120.77798940200059"><ele>41.0</ele><time>2026-03-22T10:13:16Z</time></trkpt><trkpt lat="24.590719487756004" lon="120.77810756339751"><ele>41.0</ele><time>2026-03-22T10:13:17Z</time></trkpt><trkpt lat="24.590792000321148" lon="120.7782262673972"><ele>41.0</ele><time>2026-03-22T10:13:18Z</time></trkpt><trkpt lat="24.590865863731736" lon="120.77834660786786"><ele>41.0</ele><time>2026-03-22T10:13:19Z</time></trkpt><trkpt lat="24.590940311684435" lon="120.77846674632826"><ele>41.0</ele><time>2026-03-22T10:13:20Z</time></trkpt><trkpt lat="24.59101434083344" lon="120.77858542053441"><ele>41.75</ele><time>2026-03-22T10:13:21Z</time></trkpt><trkpt lat="24.591088545848862" lon="120.77870332167721"><ele>42.5</ele><time>2026-03-22T10:13:22Z</time></trkpt><trkpt lat="24.59116218059595" lon="120.77882024591167"><ele>43.25</ele><time>2026-03-22T10:13:23Z</time></trkpt><trkpt lat="24.591237462747216" lon="120.77893762239975"><ele>44.0</ele><time>2026-03-22T10:13:24Z</time></trkpt><trkpt lat="24.59131349831048" lon="120.7790536287457"><ele>44.0</ele><time>2026-03-22T10:13:25Z</time></trkpt><trkpt lat="24.5913906275628" lon="120.77916953004859"><ele>44.0</ele><time>2026-03-22T10:13:26Z</time></trkpt><trkpt lat="24.59146817417689" lon="120.77928561831212"><ele>44.0</ele><time>2026-03-22T10:13:27Z</time></trkpt><trkpt lat="24.59154731456912" lon="120.77939275792916"><ele>44.0</ele><time>2026-03-22T10:13:28Z</time></trkpt><trkpt lat="24.59162293108985" lon="120.77949791405014"><ele>42.6</ele><time>2026-03-22T10:13:29Z</time></trkpt><trkpt lat="24.591695181260484" lon="120.77959641722516"><ele>41.2</ele><time>2026-03-22T10:13:30Z</time></trkpt><trkpt lat="24.59175891028548" lon="120.77969737981962"><ele>39.800000000000004</ele><time>2026-03-22T10:13:31Z</time></trkpt><trkpt lat="24.591823224226374" lon="120.7797866188914"><ele>38.400000000000006</ele><time>2026-03-22T10:13:32Z</time></trkpt><trkpt lat="24.591894083331983" lon="120.77988062518907"><ele>37.0</ele><time>2026-03-22T10:13:33Z</time></trkpt><trkpt lat="24.591966833468774" lon="120.77998020269402"><ele>37.0</ele><time>2026-03-22T10:13:34Z</time></trkpt><trkpt lat="24.592037839946865" lon="120.78007882418072"><ele>37.0</ele><time>2026-03-22T10:13:35Z</time></trkpt><trkpt lat="24.592110989646088" lon="120.78017826393602"><ele>37.0</ele><time>2026-03-22T10:13:36Z</time></trkpt><trkpt lat="24.592185061471977" lon="120.78027580908964"><ele>37.0</ele><time>2026-03-22T10:13:37Z</time></trkpt><trkpt lat="24.592259619047415" lon="120.78037572762904"><ele>37.0</ele><time>2026-03-22T10:13:38Z</time></trkpt><trkpt lat="24.59233545537904" lon="120.78047844742852"><ele>37.0</ele><time>2026-03-22T10:13:39Z</time></trkpt><trkpt lat="24.59241292807249" lon="120.78058129753136"><ele>37.0</ele><time>2026-03-22T10:13:40Z</time></trkpt><trkpt lat="24.592492056902554" lon="120.78068426764185"><ele>37.0</ele><time>2026-03-22T10:13:41Z</time></trkpt><trkpt lat="24.592572488247686" lon="120.78078826670219"><ele>37.0</ele><time>2026-03-22T10:13:42Z</time></trkpt><trkpt lat="24.59264976116015" lon="120.78088664068166"><ele>37.0</ele><time>2026-03-22T10:13:43Z</time></trkpt><trkpt lat="24.592728358942843" lon="120.78098796797566"><ele>37.0</ele><time>2026-03-22T10:13:44Z</time></trkpt><trkpt lat="24.592806998280963" lon="120.78108628142073"><ele>37.0</ele><time>2026-03-22T10:13:45Z</time></trkpt><trkpt lat="24.5928853441276" lon="120.78118362917996"><ele>35.75</ele><time>2026-03-22T10:13:46Z</time></trkpt><trkpt lat="24.592963875305042" lon="120.78128043732517"><ele>34.5</ele><time>2026-03-22T10:13:47Z</time></trkpt><trkpt lat="24.593042870740806" lon="120.7813750990849"><ele>33.25</ele><time>2026-03-22T10:13:48Z</time></trkpt><trkpt lat="24.593122635553907" lon="120.78146847193533"><ele>32.0</ele><time>2026-03-22T10:13:49Z</time></trkpt><trkpt lat="24.593202777838368" lon="120.78156191277147"><ele>32.0</ele><time>2026-03-22T10:13:50Z</time></trkpt><trkpt lat="24.593282038356634" lon="120.78165433328067"><ele>32.0</ele><time>2026-03-22T10:13:51Z</time></trkpt><trkpt lat="24.593361136601878" lon="120.7817454072424"><ele>32.0</ele><time>2026-03-22T10:13:52Z</time></trkpt><trkpt lat="24.59344018805358" lon="120.78183731121774"><ele>32.0</ele><time>2026-03-22T10:13:53Z</time></trkpt><trkpt lat="24.593516271078396" lon="120.78192586383781"><ele>32.800000000000004</ele><time>2026-03-22T10:13:54Z</time></trkpt><trkpt lat="24.593587141892783" lon="120.78200938300458"><ele>33.6</ele><time>2026-03-22T10:13:55Z</time></trkpt><trkpt lat="24.593655064966004" lon="120.78208869687201"><ele>34.400000000000006</ele><time>2026-03-22T10:13:56Z</time></trkpt><trkpt lat="24.593723253097632" lon="120.78216592242582"><ele>35.2</ele><time>2026-03-22T10:13:57Z</time></trkpt><trkpt lat="24.59379266324364" lon="120.78224280560616"><ele>36.0</ele><time>2026-03-22T10:13:58Z</time></trkpt><trkpt lat="24.593856497260553" lon="120.782313623654"><ele>34.333333333333336</ele><time>2026-03-22T10:13:59Z</time></trkpt><trkpt lat="24.59391926141039" lon="120.78238343139205"><ele>32.666666666666664</ele><time>2026-03-22T10:14:00Z</time></trkpt><trkpt lat="24.593981926340533" lon="120.78245028060572"><ele>31.0</ele><time>2026-03-22T10:14:01Z</time></trkpt><trkpt lat="24.594044008957116" lon="120.7825162959402"><ele>29.333333333333332</ele><time>2026-03-22T10:14:02Z</time></trkpt><trkpt lat="24.594105620824887" lon="120.78258103458084"><ele>27.666666666666664</ele><time>2026-03-22T10:14:03Z</time></trkpt><trkpt lat="24.59416592158563" lon="120.78264313477973"><ele>26.0</ele><time>2026-03-22T10:14:04Z</time></trkpt><trkpt lat="24.594224857194803" lon="120.78270395744784"><ele>25.499999999999996</ele><time>2026-03-22T10:14:05Z</time></trkpt><trkpt lat="24.5942830337359" lon="120.78276391011173"><ele>25.0</ele><time>2026-03-22T10:14:06Z</time></trkpt><trkpt lat="24.594340086299663" lon="120.78282278946517"><ele>24.5</ele><time>2026-03-22T10:14:07Z</time></trkpt><trkpt lat="24.59439517343601" lon="120.78288102182607"><ele>24.0</ele><time>2026-03-22T10:14:08Z</time></trkpt><trkpt lat="24.594451778864116" lon="120.78294049376146"><ele>23.5</ele><time>2026-03-22T10:14:09Z</time></trkpt><trkpt lat="24.594508066480998" lon="120.78299725635412"><ele>23.0</ele><time>2026-03-22T10:14:10.001Z</time></trkpt><trkpt lat="24.594562667939496" lon="120.78305097835538"><ele>21.5</ele><time>2026-03-22T10:14:11.001Z</time></trkpt><trkpt lat="24.594617790342497" lon="120.78310632766355"><ele>20.0</ele><time>2026-03-22T10:14:12.001Z</time></trkpt><trkpt lat="24.59467377426223" lon="120.78316248796503"><ele>18.5</ele><time>2026-03-22T10:14:13.001Z</time></trkpt><trkpt lat="24.594730253647032" lon="120.7832177874643"><ele>17.0</ele><time>2026-03-22T10:14:14.001Z</time></trkpt><trkpt lat="24.594786753651093" lon="120.78327448287396"><ele>15.500000000000002</ele><time>2026-03-22T10:14:15.001Z</time></trkpt><trkpt lat="24.594844182353476" lon="120.78333041570659"><ele>14.0</ele><time>2026-03-22T10:14:16.001Z</time></trkpt><trkpt lat="24.594901218701636" lon="120.7833868243181"><ele>14.0</ele><time>2026-03-22T10:14:17.001Z</time></trkpt><trkpt lat="24.594956864523713" lon="120.78344197752072"><ele>14.0</ele><time>2026-03-22T10:14:18.001Z</time></trkpt><trkpt lat="24.595010653142108" lon="120.78349368831113"><ele>14.0</ele><time>2026-03-22T10:14:19.001Z</time></trkpt><trkpt lat="24.595065776520496" lon="120.78354812498651"><ele>14.0</ele><time>2026-03-22T10:14:20.001Z</time></trkpt><trkpt lat="24.595122932543674" lon="120.78360330358464"><ele>14.0</ele><time>2026-03-22T10:14:21.001Z</time></trkpt><trkpt lat="24.595179595022177" lon="120.78365790685584"><ele>14.0</ele><time>2026-03-22T10:14:22.001Z</time></trkpt><trkpt lat="24.595235615050093" lon="120.78371128754993"><ele>14.0</ele><time>2026-03-22T10:14:23.001Z</time></trkpt><trkpt lat="24.595291839997053" lon="120.78376526572661"><ele>14.0</ele><time>2026-03-22T10:14:24.001Z</time></trkpt><trkpt lat="24.59534790983691" lon="120.78381691223656"><ele>14.0</ele><time>2026-03-22T10:14:25.001Z</time></trkpt><trkpt lat="24.595403737223737" lon="120.78386782115446"><ele>14.0</ele><time>2026-03-22T10:14:26.001Z</time></trkpt><trkpt lat="24.595458295884665" lon="120.78391766986053"><ele>14.0</ele><time>2026-03-22T10:14:27.001Z</time></trkpt><trkpt lat="24.59551207529317" lon="120.7839687571445"><ele>14.0</ele><time>2026-03-22T10:14:28.001Z</time></trkpt><trkpt lat="24.595564410558236" lon="120.78401868401907"><ele>14.0</ele><time>2026-03-22T10:14:29.001Z</time></trkpt><trkpt lat="24.59561384359538" lon="120.78406538067803"><ele>14.0</ele><time>2026-03-22T10:14:30.001Z</time></trkpt><trkpt lat="24.595662173662873" lon="120.7841112888338"><ele>14.0</ele><time>2026-03-22T10:14:31.001Z</time></trkpt><trkpt lat="24.595754723710225" lon="120.78419506762512"><ele>13.999999999999998</ele><time>2026-03-22T10:14:33.001Z</time></trkpt><trkpt lat="24.595841075117765" lon="120.78427349844523"><ele>13.999999999999998</ele><time>2026-03-22T10:14:35Z</time></trkpt><trkpt lat="24.595931137393602" lon="120.78435302079122"><ele>14.0</ele><time>2026-03-22T10:14:37Z</time></trkpt><trkpt lat="24.59598171592778" lon="120.78439674765846"><ele>14.0</ele><time>2026-03-22T10:14:38Z</time></trkpt><trkpt lat="24.596034131486824" lon="120.78444371683945"><ele>13.833333333333334</ele><time>2026-03-22T10:14:39Z</time></trkpt><trkpt lat="24.596086744649135" lon="120.78448953420211"><ele>13.666666666666668</ele><time>2026-03-22T10:14:40Z</time></trkpt><trkpt lat="24.596141020195287" lon="120.78453603165829"><ele>13.5</ele><time>2026-03-22T10:14:41Z</time></trkpt><trkpt lat="24.596200125303522" lon="120.784586899083"><ele>13.333333333333332</ele><time>2026-03-22T10:14:42Z</time></trkpt><trkpt lat="24.596262198687132" lon="120.78464116461448"><ele>13.166666666666666</ele><time>2026-03-22T10:14:43Z</time></trkpt><trkpt lat="24.596325732070827" lon="120.7846952129123"><ele>13.0</ele><time>2026-03-22T10:14:44Z</time></trkpt><trkpt lat="24.596392801915112" lon="120.78475164327352"><ele>13.499999999999998</ele><time>2026-03-22T10:14:45Z</time></trkpt><trkpt lat="24.596462363081343" lon="120.78480953857964"><ele>14.0</ele><time>2026-03-22T10:14:46Z</time></trkpt><trkpt lat="24.596533099927807" lon="120.78486810622425"><ele>14.5</ele><time>2026-03-22T10:14:47Z</time></trkpt><trkpt lat="24.596603615271036" lon="120.78492749032326"><ele>15.0</ele><time>2026-03-22T10:14:48Z</time></trkpt><trkpt lat="24.596673470533915" lon="120.78498553075728"><ele>15.499999999999998</ele><time>2026-03-22T10:14:49Z</time></trkpt><trkpt lat="24.59674101983151" lon="120.7850420414865"><ele>16.0</ele><time>2026-03-22T10:14:50Z</time></trkpt><trkpt lat="24.596806831602006" lon="120.78509669615634"><ele>15.999999999999998</ele><time>2026-03-22T10:14:51Z</time></trkpt><trkpt lat="24.596870590292916" lon="120.78514907946234"><ele>16.0</ele><time>2026-03-22T10:14:52Z</time></trkpt><trkpt lat="24.596930772310326" lon="120.78519874320567"><ele>16.0</ele><time>2026-03-22T10:14:53Z</time></trkpt><trkpt lat="24.59698809281396" lon="120.78524518866381"><ele>16.0</ele><time>2026-03-22T10:14:54Z</time></trkpt><trkpt lat="24.597040634168174" lon="120.78528660716277"><ele>15.999999999999998</ele><time>2026-03-22T10:14:55Z</time></trkpt><trkpt lat="24.597117147386957" lon="120.7853527138168"><ele>16.0</ele><time>2026-03-22T10:14:57Z</time></trkpt><trkpt lat="24.59717679293313" lon="120.78538762736596"><ele>16.666666666666664</ele><time>2026-03-22T10:14:59Z</time></trkpt><trkpt lat="24.597239177859446" lon="120.78544566555442"><ele>17.333333333333332</ele><time>2026-03-22T10:15:02Z</time></trkpt><trkpt lat="24.597298941235632" lon="120.78549450004476"><ele>18.0</ele><time>2026-03-22T10:15:05Z</time></trkpt><trkpt lat="24.597357033878154" lon="120.78554200408408"><ele>18.666666666666668</ele><time>2026-03-22T10:15:07Z</time></trkpt><trkpt lat="24.597427625214873" lon="120.78560160346153"><ele>19.333333333333336</ele><time>2026-03-22T10:15:09Z</time></trkpt><trkpt lat="24.597507264451885" lon="120.78566691030392"><ele>20.0</ele><time>2026-03-22T10:15:11Z</time></trkpt><trkpt lat="24.597598273222026" lon="120.78574012467837"><ele>20.0</ele><time>2026-03-22T10:15:13Z</time></trkpt><trkpt lat="24.597653549834064" lon="120.78578340832878"><ele>20.0</ele><time>2026-03-22T10:15:14Z</time></trkpt><trkpt lat="24.597711781964993" lon="120.78582735040835"><ele>20.0</ele><time>2026-03-22T10:15:15Z</time></trkpt><trkpt lat="24.597764187876393" lon="120.78586905077712"><ele>20.0</ele><time>2026-03-22T10:15:16Z</time></trkpt><trkpt lat="24.59781615739278" lon="120.78590860675355"><ele>20.0</ele><time>2026-03-22T10:15:17Z</time></trkpt><trkpt lat="24.597866719533496" lon="120.78595020782237"><ele>20.0</ele><time>2026-03-22T10:15:18Z</time></trkpt><trkpt lat="24.597920457123454" lon="120.7859940249567"><ele>20.0</ele><time>2026-03-22T10:15:19Z</time></trkpt><trkpt lat="24.597974015290617" lon="120.7860353200598"><ele>21.2</ele><time>2026-03-22T10:15:20Z</time></trkpt><trkpt lat="24.59802537272653" lon="120.78607569946873"><ele>22.4</ele><time>2026-03-22T10:15:21Z</time></trkpt><trkpt lat="24.59812473522302" lon="120.78615454814079"><ele>23.6</ele><time>2026-03-22T10:15:23Z</time></trkpt><trkpt lat="24.598215272573295" lon="120.78622802701325"><ele>24.8</ele><time>2026-03-22T10:15:25Z</time></trkpt><trkpt lat="24.598299138907738" lon="120.78629498323465"><ele>26.0</ele><time>2026-03-22T10:15:27Z</time></trkpt><trkpt lat="24.598377034673554" lon="120.78635537387277"><ele>26.0</ele><time>2026-03-22T10:15:29Z</time></trkpt><trkpt lat="24.59845477495284" lon="120.78641735637395"><ele>26.0</ele><time>2026-03-22T10:15:31Z</time></trkpt><trkpt lat="24.598536831593265" lon="120.78648279111023"><ele>26.0</ele><time>2026-03-22T10:15:33Z</time></trkpt><trkpt lat="24.5986125478409" lon="120.78654182871803"><ele>26.0</ele><time>2026-03-22T10:15:35Z</time></trkpt><trkpt lat="24.598687528882586" lon="120.78660156669436"><ele>26.0</ele><time>2026-03-22T10:15:37Z</time></trkpt><trkpt lat="24.59876208658297" lon="120.78666150942064"><ele>27.4</ele><time>2026-03-22T10:15:39Z</time></trkpt><trkpt lat="24.598833631245604" lon="120.78671631381204"><ele>28.8</ele><time>2026-03-22T10:15:41Z</time></trkpt><trkpt lat="24.598905721341573" lon="120.78677377922595"><ele>30.199999999999996</ele><time>2026-03-22T10:15:43Z</time></trkpt><trkpt lat="24.598980816227467" lon="120.78683521286048"><ele>31.599999999999998</ele><time>2026-03-22T10:15:45Z</time></trkpt><trkpt lat="24.599059457472336" lon="120.78689913370405"><ele>33.0</ele><time>2026-03-22T10:15:47Z</time></trkpt><trkpt lat="24.599139224322922" lon="120.7869631565902"><ele>33.6</ele><time>2026-03-22T10:15:49Z</time></trkpt><trkpt lat="24.599218974086195" lon="120.7870271647179"><ele>34.199999999999996</ele><time>2026-03-22T10:15:51Z</time></trkpt><trkpt lat="24.5993075677397" lon="120.78709939202375"><ele>34.8</ele><time>2026-03-22T10:15:53Z</time></trkpt><trkpt lat="24.599401577565683" lon="120.78717598603873"><ele>35.4</ele><time>2026-03-22T10:15:55Z</time></trkpt><trkpt lat="24.5994882474084" lon="120.78724763535921"><ele>36.0</ele><time>2026-03-22T10:15:57Z</time></trkpt><trkpt lat="24.59956299048393" lon="120.78730769694128"><ele>36.28571428571429</ele><time>2026-03-22T10:15:59Z</time></trkpt><trkpt lat="24.599625784317407" lon="120.78736140048538"><ele>36.57142857142857</ele><time>2026-03-22T10:16:01Z</time></trkpt><trkpt lat="24.59968196469467" lon="120.78740735313716"><ele>36.85714285714286</ele><time>2026-03-22T10:16:03Z</time></trkpt><trkpt lat="24.599739819135916" lon="120.78745671989253"><ele>37.142857142857146</ele><time>2026-03-22T10:16:05Z</time></trkpt><trkpt lat="24.599796283630585" lon="120.78750515172217"><ele>37.42857142857143</ele><time>2026-03-22T10:16:07Z</time></trkpt><trkpt lat="24.599855068079002" lon="120.78755557472833"><ele>37.714285714285715</ele><time>2026-03-22T10:16:09Z</time></trkpt><trkpt lat="24.599918355747796" lon="120.78760845560288"><ele>38.0</ele><time>2026-03-22T10:16:11Z</time></trkpt><trkpt lat="24.599978599971344" lon="120.787659035292"><ele>38.42857142857142</ele><time>2026-03-22T10:16:13Z</time></trkpt><trkpt lat="24.600036748813253" lon="120.78770847904343"><ele>38.85714285714286</ele><time>2026-03-22T10:16:15Z</time></trkpt><trkpt lat="24.60008870939798" lon="120.78775159421934"><ele>39.285714285714285</ele><time>2026-03-22T10:16:17Z</time></trkpt><trkpt lat="24.600139655163595" lon="120.78779440841222"><ele>39.71428571428571</ele><time>2026-03-22T10:16:20Z</time></trkpt><trkpt lat="24.60019291436137" lon="120.78783604210308"><ele>40.14285714285714</ele><time>2026-03-22T10:16:24Z</time></trkpt><trkpt lat="24.60024507711446" lon="120.7878772787892"><ele>40.57142857142857</ele><time>2026-03-22T10:16:27.001Z</time></trkpt><trkpt lat="24.600323346326217" lon="120.78794138204448"><ele>41.0</ele><time>2026-03-22T10:16:30.001Z</time></trkpt><trkpt lat="24.60037953999085" lon="120.78798809193371"><ele>41.599999999999994</ele><time>2026-03-22T10:16:32.001Z</time></trkpt><trkpt lat="24.600451125286668" lon="120.78805043904134"><ele>42.2</ele><time>2026-03-22T10:16:34.001Z</time></trkpt><trkpt lat="24.600530580620585" lon="120.7881183354175"><ele>42.8</ele><time>2026-03-22T10:16:36.001Z</time></trkpt><trkpt lat="24.60061051949933" lon="120.78818917866914"><ele>43.400000000000006</ele><time>2026-03-22T10:16:38.001Z</time></trkpt><trkpt lat="24.600699873484377" lon="120.78826790633438"><ele>44.0</ele><time>2026-03-22T10:16:40Z</time></trkpt><trkpt lat="24.60078942907264" lon="120.78834864417013"><ele>44.0</ele><time>2026-03-22T10:16:42Z</time></trkpt><trkpt lat="24.60088209473402" lon="120.78842854722816"><ele>44.0</ele><time>2026-03-22T10:16:44Z</time></trkpt><trkpt lat="24.600974512841457" lon="120.78851516165288"><ele>44.0</ele><time>2026-03-22T10:16:46Z</time></trkpt><trkpt lat="24.60105906102121" lon="120.78859089173979"><ele>44.0</ele><time>2026-03-22T10:16:48Z</time></trkpt><trkpt lat="24.60113070448607" lon="120.78865955431324"><ele>44.0</ele><time>2026-03-22T10:16:50Z</time></trkpt><trkpt lat="24.601193739082888" lon="120.7887139937908"><ele>44.0</ele><time>2026-03-22T10:16:52Z</time></trkpt><trkpt lat="24.601251304659396" lon="120.78877003636431"><ele>44.0</ele><time>2026-03-22T10:16:54Z</time></trkpt><trkpt lat="24.601310442139535" lon="120.78882719192796"><ele>44.0</ele><time>2026-03-22T10:16:56Z</time></trkpt><trkpt lat="24.601365956508626" lon="120.78888083324908"><ele>44.0</ele><time>2026-03-22T10:16:58Z</time></trkpt><trkpt lat="24.60142495259111" lon="120.78893778244824"><ele>44.0</ele><time>2026-03-22T10:17:00Z</time></trkpt><trkpt lat="24.601490103258563" lon="120.78899889636926"><ele>44.0</ele><time>2026-03-22T10:17:02Z</time></trkpt><trkpt lat="24.601573915854548" lon="120.78908030263074"><ele>44.0</ele><time>2026-03-22T10:17:04Z</time></trkpt><trkpt lat="24.60166212488293" lon="120.78916589116898"><ele>44.0</ele><time>2026-03-22T10:17:06Z</time></trkpt><trkpt lat="24.601750801252752" lon="120.78925017562372"><ele>44.0</ele><time>2026-03-22T10:17:08Z</time></trkpt><trkpt lat="24.601839292336866" lon="120.78933963294165"><ele>44.0</ele><time>2026-03-22T10:17:10Z</time></trkpt><trkpt lat="24.601927540576956" lon="120.78942566496532"><ele>39.75</ele><time>2026-03-22T10:17:12Z</time></trkpt><trkpt lat="24.602014192900295" lon="120.78951592718192"><ele>35.5</ele><time>2026-03-22T10:17:14Z</time></trkpt><trkpt lat="24.602104245966803" lon="120.78960747475617"><ele>31.25</ele><time>2026-03-22T10:17:16Z</time></trkpt><trkpt lat="24.60219313332464" lon="120.78969808172188"><ele>27.0</ele><time>2026-03-22T10:17:18Z</time></trkpt><trkpt lat="24.602280947303427" lon="120.78979072437751"><ele>27.0</ele><time>2026-03-22T10:17:20Z</time></trkpt><trkpt lat="24.602369845939105" lon="120.78988472586185"><ele>27.0</ele><time>2026-03-22T10:17:22Z</time></trkpt><trkpt lat="24.60245799171779" lon="120.78997831287361"><ele>27.0</ele><time>2026-03-22T10:17:24Z</time></trkpt><trkpt lat="24.602504409610525" lon="120.79002555601963"><ele>27.0</ele><time>2026-03-22T10:17:25Z</time></trkpt><trkpt lat="24.602550405308065" lon="120.79007595762174"><ele>27.0</ele><time>2026-03-22T10:17:26Z</time></trkpt><trkpt lat="24.602596917545206" lon="120.79012769383138"><ele>27.0</ele><time>2026-03-22T10:17:27Z</time></trkpt><trkpt lat="24.602647849626795" lon="120.79018348687916"><ele>26.666666666666668</ele><time>2026-03-22T10:17:28Z</time></trkpt><trkpt lat="24.602703231247997" lon="120.79024401827027"><ele>26.333333333333336</ele><time>2026-03-22T10:17:29Z</time></trkpt><trkpt lat="24.60276252619205" lon="120.79030863179835"><ele>26.0</ele><time>2026-03-22T10:17:30Z</time></trkpt><trkpt lat="24.60282145263778" lon="120.79037367709512"><ele>25.666666666666668</ele><time>2026-03-22T10:17:31Z</time></trkpt><trkpt lat="24.602870857132192" lon="120.79043262480174"><ele>25.333333333333336</ele><time>2026-03-22T10:17:32Z</time></trkpt><trkpt lat="24.602921760392913" lon="120.79048712723123"><ele>25.0</ele><time>2026-03-22T10:17:33Z</time></trkpt><trkpt lat="24.60297272910585" lon="120.79054710827177"><ele>22.8</ele><time>2026-03-22T10:17:34Z</time></trkpt><trkpt lat="24.60302103975198" lon="120.79060232389604"><ele>20.6</ele><time>2026-03-22T10:17:35Z</time></trkpt><trkpt lat="24.6030651605581" lon="120.79065508710133"><ele>18.4</ele><time>2026-03-22T10:17:36Z</time></trkpt><trkpt lat="24.603149412379768" lon="120.79075695021984"><ele>16.2</ele><time>2026-03-22T10:17:38Z</time></trkpt><trkpt lat="24.60323834409368" lon="120.79085563064103"><ele>14.0</ele><time>2026-03-22T10:17:40Z</time></trkpt><trkpt lat="24.603318807504248" lon="120.79095615929063"><ele>13.6</ele><time>2026-03-22T10:17:42Z</time></trkpt><trkpt lat="24.603398644358336" lon="120.79105498619121"><ele>13.2</ele><time>2026-03-22T10:17:44Z</time></trkpt><trkpt lat="24.60346929097638" lon="120.79114881761977"><ele>12.799999999999999</ele><time>2026-03-22T10:17:46Z</time></trkpt><trkpt lat="24.60353706082695" lon="120.7912344614199"><ele>12.399999999999999</ele><time>2026-03-22T10:17:48Z</time></trkpt><trkpt lat="24.603606722195224" lon="120.7913199904959"><ele>12.0</ele><time>2026-03-22T10:17:50Z</time></trkpt><trkpt lat="24.603674026666877" lon="120.79140398409508"><ele>11.4</ele><time>2026-03-22T10:17:52Z</time></trkpt><trkpt lat="24.603741652107978" lon="120.79148869436486"><ele>10.799999999999999</ele><time>2026-03-22T10:17:54Z</time></trkpt><trkpt lat="24.603813045498924" lon="120.79158199557153"><ele>10.2</ele><time>2026-03-22T10:17:56Z</time></trkpt><trkpt lat="24.60388839966082" lon="120.79167932178393"><ele>9.6</ele><time>2026-03-22T10:17:58Z</time></trkpt><trkpt lat="24.603955701234593" lon="120.79176975512144"><ele>9.0</ele><time>2026-03-22T10:18:00Z</time></trkpt><trkpt lat="24.60402093308929" lon="120.79185789535248"><ele>8.8</ele><time>2026-03-22T10:18:02Z</time></trkpt><trkpt lat="24.60408114170383" lon="120.79193897672516"><ele>8.600000000000001</ele><time>2026-03-22T10:18:04Z</time></trkpt><trkpt lat="24.604137405308208" lon="120.79201282095593"><ele>8.4</ele><time>2026-03-22T10:18:06Z</time></trkpt><trkpt lat="24.604198663588534" lon="120.79209590551781"><ele>8.200000000000001</ele><time>2026-03-22T10:18:08Z</time></trkpt><trkpt lat="24.604254648451956" lon="120.79217196609679"><ele>8.0</ele><time>2026-03-22T10:18:10Z</time></trkpt><trkpt lat="24.604307586662884" lon="120.79224458497383"><ele>8.0</ele><time>2026-03-22T10:18:12Z</time></trkpt><trkpt lat="24.60436177025982" lon="120.79231841714"><ele>8.0</ele><time>2026-03-22T10:18:14Z</time></trkpt><trkpt lat="24.60442229642315" lon="120.7924016516198"><ele>8.0</ele><time>2026-03-22T10:18:16Z</time></trkpt><trkpt lat="24.60448886575327" lon="120.7924985366623"><ele>8.0</ele><time>2026-03-22T10:18:18Z</time></trkpt><trkpt lat="24.60456521811993" lon="120.79260299181759"><ele>8.0</ele><time>2026-03-22T10:18:20Z</time></trkpt><trkpt lat="24.60463664049538" lon="120.79270719841327"><ele>7.499999999999999</ele><time>2026-03-22T10:18:22Z</time></trkpt><trkpt lat="24.604705885256497" lon="120.79280895780487"><ele>7.0</ele><time>2026-03-22T10:18:24Z</time></trkpt><trkpt lat="24.604780789740854" lon="120.79291898516043"><ele>6.5</ele><time>2026-03-22T10:18:26Z</time></trkpt><trkpt lat="24.604818730335275" lon="120.79297613014909"><ele>6.0</ele><time>2026-03-22T10:18:27Z</time></trkpt><trkpt lat="24.604859305078186" lon="120.79303739549593"><ele>5.5</ele><time>2026-03-22T10:18:28Z</time></trkpt><trkpt lat="24.60489887902138" lon="120.79309790949831"><ele>5.0</ele><time>2026-03-22T10:18:29Z</time></trkpt><trkpt lat="24.604940770845314" lon="120.79316012165066"><ele>5.0</ele><time>2026-03-22T10:18:30Z</time></trkpt><trkpt lat="24.604981137252615" lon="120.79322272075107"><ele>5.0</ele><time>2026-03-22T10:18:31Z</time></trkpt><trkpt lat="24.605023039417595" lon="120.7932852762622"><ele>5.0</ele><time>2026-03-22T10:18:32Z</time></trkpt><trkpt lat="24.60507007300468" lon="120.79334786618628"><ele>5.0</ele><time>2026-03-22T10:18:33Z</time></trkpt><trkpt lat="24.605113986376388" lon="120.79340548582064"><ele>5.0</ele><time>2026-03-22T10:18:34Z</time></trkpt><trkpt lat="24.60519471413131" lon="120.79352581139294"><ele>5.0</ele><time>2026-03-22T10:18:36Z</time></trkpt><trkpt lat="24.605267472322133" lon="120.79363963896776"><ele>4.6</ele><time>2026-03-22T10:18:38Z</time></trkpt><trkpt lat="24.60530727014202" lon="120.79369750054838"><ele>4.2</ele><time>2026-03-22T10:18:39Z</time></trkpt><trkpt lat="24.605344985121018" lon="120.79375816914558"><ele>3.8</ele><time>2026-03-22T10:18:40Z</time></trkpt><trkpt lat="24.605382234882743" lon="120.79381734686136"><ele>3.4</ele><time>2026-03-22T10:18:41Z</time></trkpt><trkpt lat="24.60545460121215" lon="120.79393100056434"><ele>3.0</ele><time>2026-03-22T10:18:43Z</time></trkpt><trkpt lat="24.605526487682294" lon="120.794046218103"><ele>3.2</ele><time>2026-03-22T10:18:45Z</time></trkpt><trkpt lat="24.60559634208124" lon="120.79416251835907"><ele>3.4</ele><time>2026-03-22T10:18:47Z</time></trkpt><trkpt lat="24.605632249178534" lon="120.79422252630589"><ele>3.6000000000000005</ele><time>2026-03-22T10:18:48Z</time></trkpt><trkpt lat="24.605667924434503" lon="120.79428302313615"><ele>3.8000000000000003</ele><time>2026-03-22T10:18:49Z</time></trkpt><trkpt lat="24.60573286590765" lon="120.79439466618042"><ele>4.0</ele><time>2026-03-22T10:18:51Z</time></trkpt><trkpt lat="24.605791482528925" lon="120.79449934614948"><ele>3.9999999999999996</ele><time>2026-03-22T10:18:53Z</time></trkpt><trkpt lat="24.605844098174565" lon="120.7945953227972"><ele>4.0</ele><time>2026-03-22T10:18:55Z</time></trkpt><trkpt lat="24.605889801639577" lon="120.79467859327522"><ele>4.0</ele><time>2026-03-22T10:18:57Z</time></trkpt><trkpt lat="24.60593846754589" lon="120.7947667090507"><ele>4.0</ele><time>2026-03-22T10:18:59Z</time></trkpt><trkpt lat="24.605975602576546" lon="120.79483304886855"><ele>3.9999999999999996</ele><time>2026-03-22T10:19:01Z</time></trkpt><trkpt lat="24.606022694349253" lon="120.794919044269"><ele>4.0</ele><time>2026-03-22T10:19:04Z</time></trkpt><trkpt lat="24.606057163327304" lon="120.79498151753204"><ele>3.9999999999999996</ele><time>2026-03-22T10:19:06Z</time></trkpt><trkpt lat="24.606100226727627" lon="120.79505878527839"><ele>4.0</ele><time>2026-03-22T10:19:08Z</time></trkpt><trkpt lat="24.60615772839754" lon="120.7951684255523"><ele>4.0</ele><time>2026-03-22T10:19:10Z</time></trkpt><trkpt lat="24.6062139767517" lon="120.79527721541793"><ele>4.0</ele><time>2026-03-22T10:19:12Z</time></trkpt><trkpt lat="24.60624719487954" lon="120.7953394210301"><ele>3.9999999999999996</ele><time>2026-03-22T10:19:13Z</time></trkpt><trkpt lat="24.606282752199235" lon="120.7954074798542"><ele>4.0</ele><time>2026-03-22T10:19:14Z</time></trkpt><trkpt lat="24.606322178472844" lon="120.7954799041069"><ele>4.833333333333333</ele><time>2026-03-22T10:19:15Z</time></trkpt><trkpt lat="24.606363196888115" lon="120.79555795192185"><ele>5.666666666666666</ele><time>2026-03-22T10:19:16Z</time></trkpt><trkpt lat="24.60640610690954" lon="120.79564071401391"><ele>6.5</ele><time>2026-03-22T10:19:17Z</time></trkpt><trkpt lat="24.606449533683286" lon="120.79572457374827"><ele>7.333333333333333</ele><time>2026-03-22T10:19:18Z</time></trkpt><trkpt lat="24.606490282914688" lon="120.79580456424586"><ele>8.166666666666666</ele><time>2026-03-22T10:19:19Z</time></trkpt><trkpt lat="24.606529329052616" lon="120.79587933467737"><ele>9.0</ele><time>2026-03-22T10:19:20Z</time></trkpt><trkpt lat="24.606566641503075" lon="120.79595233833699"><ele>8.833333333333334</ele><time>2026-03-22T10:19:21Z</time></trkpt><trkpt lat="24.606605283873016" lon="120.7960273930365"><ele>8.666666666666666</ele><time>2026-03-22T10:19:22Z</time></trkpt><trkpt lat="24.606644041411375" lon="120.79610240183517"><ele>8.5</ele><time>2026-03-22T10:19:23Z</time></trkpt><trkpt lat="24.606682572451746" lon="120.79617820589972"><ele>8.333333333333332</ele><time>2026-03-22T10:19:24Z</time></trkpt><trkpt lat="24.60672193375574" lon="120.79625601596402"><ele>8.166666666666666</ele><time>2026-03-22T10:19:25Z</time></trkpt><trkpt lat="24.606762048616474" lon="120.79633717435411"><ele>8.0</ele><time>2026-03-22T10:19:26Z</time></trkpt><trkpt lat="24.60680127833653" lon="120.79641927985082"><ele>7.999999999999999</ele><time>2026-03-22T10:19:27Z</time></trkpt><trkpt lat="24.606840967062972" lon="120.79650242139269"><ele>8.0</ele><time>2026-03-22T10:19:28Z</time></trkpt><trkpt lat="24.606882025086065" lon="120.79658545864939"><ele>8.0</ele><time>2026-03-22T10:19:29Z</time></trkpt><trkpt lat="24.60692329415049" lon="120.79667134227421"><ele>8.0</ele><time>2026-03-22T10:19:30Z</time></trkpt><trkpt lat="24.6069665605879" lon="120.79675853222956"><ele>7.999999999999999</ele><time>2026-03-22T10:19:31Z</time></trkpt><trkpt lat="24.60701119625938" lon="120.79685091318954"><ele>8.0</ele><time>2026-03-22T10:19:32Z</time></trkpt><trkpt lat="24.60705500934706" lon="120.79694494138072"><ele>8.200000000000001</ele><time>2026-03-22T10:19:33Z</time></trkpt><trkpt lat="24.60709864446608" lon="120.79703870841037"><ele>8.4</ele><time>2026-03-22T10:19:34Z</time></trkpt><trkpt lat="24.60714374997763" lon="120.79713473297925"><ele>8.600000000000001</ele><time>2026-03-22T10:19:35Z</time></trkpt><trkpt lat="24.607189698378665" lon="120.79723368620118"><ele>8.8</ele><time>2026-03-22T10:19:36Z</time></trkpt><trkpt lat="24.607236828914594" lon="120.7973349650991"><ele>9.0</ele><time>2026-03-22T10:19:37Z</time></trkpt><trkpt lat="24.607284173923713" lon="120.79743605417099"><ele>9.0</ele><time>2026-03-22T10:19:38Z</time></trkpt><trkpt lat="24.607331653812683" lon="120.79753853929913"><ele>9.0</ele><time>2026-03-22T10:19:39Z</time></trkpt><trkpt lat="24.60738037160176" lon="120.79764251160637"><ele>9.0</ele><time>2026-03-22T10:19:40Z</time></trkpt><trkpt lat="24.607430793802767" lon="120.79775277667969"><ele>9.0</ele><time>2026-03-22T10:19:41Z</time></trkpt><trkpt lat="24.607481662515006" lon="120.79786495839124"><ele>9.0</ele><time>2026-03-22T10:19:42Z</time></trkpt><trkpt lat="24.60753432510551" lon="120.79798097536907"><ele>9.25</ele><time>2026-03-22T10:19:43Z</time></trkpt><trkpt lat="24.607579356280443" lon="120.79810339824478"><ele>9.5</ele><time>2026-03-22T10:19:44Z</time></trkpt><trkpt lat="24.607640950773103" lon="120.79822439485828"><ele>9.75</ele><time>2026-03-22T10:19:45Z</time></trkpt><trkpt lat="24.607698127160628" lon="120.79835115418732"><ele>10.0</ele><time>2026-03-22T10:19:46Z</time></trkpt><trkpt lat="24.607755650289317" lon="120.7984780386327"><ele>10.0</ele><time>2026-03-22T10:19:47Z</time></trkpt><trkpt lat="24.607811548026927" lon="120.79860196384138"><ele>10.0</ele><time>2026-03-22T10:19:48Z</time></trkpt><trkpt lat="24.6078700604957" lon="120.79872960849966"><ele>10.0</ele><time>2026-03-22T10:19:49Z</time></trkpt><trkpt lat="24.60792857612193" lon="120.79886163283798"><ele>10.0</ele><time>2026-03-22T10:19:50Z</time></trkpt><trkpt lat="24.607986685528516" lon="120.79899307359906"><ele>10.25</ele><time>2026-03-22T10:19:51Z</time></trkpt><trkpt lat="24.608045396389553" lon="120.79912354380319"><ele>10.5</ele><time>2026-03-22T10:19:52Z</time></trkpt><trkpt lat="24.608102371025844" lon="120.79924993550556"><ele>10.75</ele><time>2026-03-22T10:19:53Z</time></trkpt><trkpt lat="24.608159360016145" lon="120.79938135283655"><ele>11.0</ele><time>2026-03-22T10:19:54Z</time></trkpt><trkpt lat="24.60821787802397" lon="120.79951270821512"><ele>11.0</ele><time>2026-03-22T10:19:55Z</time></trkpt><trkpt lat="24.60827737532792" lon="120.79964476030781"><ele>11.0</ele><time>2026-03-22T10:19:56Z</time></trkpt><trkpt lat="24.60833729656106" lon="120.7997755165092"><ele>11.0</ele><time>2026-03-22T10:19:57Z</time></trkpt><trkpt lat="24.608396546701123" lon="120.79990767623973"><ele>11.0</ele><time>2026-03-22T10:19:58Z</time></trkpt><trkpt lat="24.608451765391248" lon="120.80003605982647"><ele>11.0</ele><time>2026-03-22T10:19:59Z</time></trkpt><trkpt lat="24.608507412145542" lon="120.80016185540994"><ele>11.0</ele><time>2026-03-22T10:20:00Z</time></trkpt><trkpt lat="24.608564548751794" lon="120.8002902838308"><ele>11.0</ele><time>2026-03-22T10:20:01Z</time></trkpt><trkpt lat="24.608621551343436" lon="120.80041802790547"><ele>11.0</ele><time>2026-03-22T10:20:02Z</time></trkpt><trkpt lat="24.6086773806119" lon="120.80054311996973"><ele>10.75</ele><time>2026-03-22T10:20:03Z</time></trkpt><trkpt lat="24.60873273242178" lon="120.8006679927042"><ele>10.5</ele><time>2026-03-22T10:20:04Z</time></trkpt><trkpt lat="24.60878509863641" lon="120.80078857869697"><ele>10.25</ele><time>2026-03-22T10:20:05Z</time></trkpt><trkpt lat="24.608835509698316" lon="120.80090406752424"><ele>10.0</ele><time>2026-03-22T10:20:06Z</time></trkpt><trkpt lat="24.60888505517372" lon="120.80101278296961"><ele>10.0</ele><time>2026-03-22T10:20:07Z</time></trkpt><trkpt lat="24.60893251821873" lon="120.80111712258166"><ele>10.0</ele><time>2026-03-22T10:20:08Z</time></trkpt><trkpt lat="24.60898042837955" lon="120.8012223165615"><ele>10.0</ele><time>2026-03-22T10:20:09Z</time></trkpt><trkpt lat="24.60902921318051" lon="120.80132729502029"><ele>10.0</ele><time>2026-03-22T10:20:10Z</time></trkpt><trkpt lat="24.609077510192243" lon="120.80143213184435"><ele>10.0</ele><time>2026-03-22T10:20:11Z</time></trkpt><trkpt lat="24.609126348032856" lon="120.80153548363396"><ele>10.0</ele><time>2026-03-22T10:20:12Z</time></trkpt><trkpt lat="24.609174651886587" lon="120.80163775510849"><ele>10.0</ele><time>2026-03-22T10:20:13Z</time></trkpt><trkpt lat="24.60922298791896" lon="120.80174095875893"><ele>10.0</ele><time>2026-03-22T10:20:14Z</time></trkpt><trkpt lat="24.609269684008893" lon="120.80184180761346"><ele>10.0</ele><time>2026-03-22T10:20:15Z</time></trkpt><trkpt lat="24.60931526058386" lon="120.80194037251545"><ele>10.0</ele><time>2026-03-22T10:20:16Z</time></trkpt><trkpt lat="24.609361591660996" lon="120.80203729060246"><ele>10.0</ele><time>2026-03-22T10:20:17Z</time></trkpt><trkpt lat="24.609407669291233" lon="120.80213407862408"><ele>10.0</ele><time>2026-03-22T10:20:18Z</time></trkpt><trkpt lat="24.60945433695539" lon="120.80222951700023"><ele>10.0</ele><time>2026-03-22T10:20:19Z</time></trkpt><trkpt lat="24.60950250134064" lon="120.80232775723348"><ele>10.0</ele><time>2026-03-22T10:20:20Z</time></trkpt><trkpt lat="24.609550583358626" lon="120.8024264271221"><ele>10.0</ele><time>2026-03-22T10:20:21Z</time></trkpt><trkpt lat="24.60959914713241" lon="120.80252535036482"><ele>9.8</ele><time>2026-03-22T10:20:22Z</time></trkpt><trkpt lat="24.609647017897355" lon="120.80262420067821"><ele>9.6</ele><time>2026-03-22T10:20:23Z</time></trkpt><trkpt lat="24.609693646493522" lon="120.80272154700504"><ele>9.4</ele><time>2026-03-22T10:20:24Z</time></trkpt><trkpt lat="24.609740883872508" lon="120.80281561558957"><ele>9.2</ele><time>2026-03-22T10:20:25Z</time></trkpt><trkpt lat="24.60978638585942" lon="120.80290907177039"><ele>9.0</ele><time>2026-03-22T10:20:26Z</time></trkpt><trkpt lat="24.609833677921657" lon="120.80300257861511"><ele>8.8</ele><time>2026-03-22T10:20:27Z</time></trkpt><trkpt lat="24.609880195315515" lon="120.80309314561013"><ele>8.600000000000001</ele><time>2026-03-22T10:20:28Z</time></trkpt><trkpt lat="24.609928135437837" lon="120.80318352358826"><ele>8.4</ele><time>2026-03-22T10:20:29Z</time></trkpt><trkpt lat="24.609976869621356" lon="120.80327558207478"><ele>8.200000000000001</ele><time>2026-03-22T10:20:30Z</time></trkpt><trkpt lat="24.610024813167612" lon="120.8033675755247"><ele>8.0</ele><time>2026-03-22T10:20:31Z</time></trkpt><trkpt lat="24.61007373593763" lon="120.80346003718691"><ele>8.4</ele><time>2026-03-22T10:20:32Z</time></trkpt><trkpt lat="24.61012271202243" lon="120.80355018888541"><ele>8.8</ele><time>2026-03-22T10:20:33Z</time></trkpt><trkpt lat="24.6101715059981" lon="120.80363979609979"><ele>9.2</ele><time>2026-03-22T10:20:34Z</time></trkpt><trkpt lat="24.610218694655728" lon="120.80372513723277"><ele>9.6</ele><time>2026-03-22T10:20:35Z</time></trkpt><trkpt lat="24.610265845836025" lon="120.80380896181008"><ele>10.0</ele><time>2026-03-22T10:20:36Z</time></trkpt><trkpt lat="24.61031195771121" lon="120.80389046915744"><ele>10.0</ele><time>2026-03-22T10:20:37Z</time></trkpt><trkpt lat="24.610355708942812" lon="120.80396840194922"><ele>10.0</ele><time>2026-03-22T10:20:38Z</time></trkpt><trkpt lat="24.610398906543075" lon="120.8040453820171"><ele>10.0</ele><time>2026-03-22T10:20:39Z</time></trkpt><trkpt lat="24.610440266718058" lon="120.8041184788284"><ele>10.0</ele><time>2026-03-22T10:20:40Z</time></trkpt><trkpt lat="24.610480510735098" lon="120.80418942090651"><ele>10.0</ele><time>2026-03-22T10:20:41Z</time></trkpt><trkpt lat="24.610520635515112" lon="120.80425988677685"><ele>10.0</ele><time>2026-03-22T10:20:42Z</time></trkpt><trkpt lat="24.61056378487689" lon="120.80433538654279"><ele>10.0</ele><time>2026-03-22T10:20:43Z</time></trkpt><trkpt lat="24.61060778811437" lon="120.80441086907298"><ele>10.0</ele><time>2026-03-22T10:20:44Z</time></trkpt><trkpt lat="24.61065513831142" lon="120.8044912524385"><ele>10.0</ele><time>2026-03-22T10:20:45Z</time></trkpt><trkpt lat="24.610703940191986" lon="120.80457347055994"><ele>10.0</ele><time>2026-03-22T10:20:46Z</time></trkpt><trkpt lat="24.610755497345938" lon="120.80466023167538"><ele>10.0</ele><time>2026-03-22T10:20:47Z</time></trkpt><trkpt lat="24.61081015119482" lon="120.80474992958987"><ele>10.0</ele><time>2026-03-22T10:20:48Z</time></trkpt><trkpt lat="24.610865708172156" lon="120.80483941023992"><ele>10.0</ele><time>2026-03-22T10:20:49Z</time></trkpt><trkpt lat="24.610920018760602" lon="120.80492648677145"><ele>10.0</ele><time>2026-03-22T10:20:50Z</time></trkpt><trkpt lat="24.610974534081677" lon="120.80501313421298"><ele>10.0</ele><time>2026-03-22T10:20:51Z</time></trkpt><trkpt lat="24.611031384425097" lon="120.80510385404045"><ele>10.0</ele><time>2026-03-22T10:20:52Z</time></trkpt><trkpt lat="24.611091299831035" lon="120.80519772952327"><ele>10.0</ele><time>2026-03-22T10:20:53Z</time></trkpt><trkpt lat="24.61115520421042" lon="120.80529288746308"><ele>10.0</ele><time>2026-03-22T10:20:54Z</time></trkpt><trkpt lat="24.61122185318478" lon="120.805391607708"><ele>10.0</ele><time>2026-03-22T10:20:55Z</time></trkpt><trkpt lat="24.611288775499148" lon="120.80549037191885"><ele>10.0</ele><time>2026-03-22T10:20:56Z</time></trkpt><trkpt lat="24.611358334445235" lon="120.80559371590823"><ele>10.0</ele><time>2026-03-22T10:20:57Z</time></trkpt><trkpt lat="24.61143001193911" lon="120.80569849587835"><ele>10.5</ele><time>2026-03-22T10:20:58Z</time></trkpt><trkpt lat="24.611505700529914" lon="120.80580682881799"><ele>11.0</ele><time>2026-03-22T10:20:59Z</time></trkpt><trkpt lat="24.611584157129055" lon="120.80591871417921"><ele>11.5</ele><time>2026-03-22T10:21:00Z</time></trkpt><trkpt lat="24.61166584778831" lon="120.80603266782587"><ele>12.0</ele><time>2026-03-22T10:21:01Z</time></trkpt><trkpt lat="24.611750138526205" lon="120.80615003365554"><ele>12.0</ele><time>2026-03-22T10:21:02Z</time></trkpt><trkpt lat="24.61183470832525" lon="120.80626304502378"><ele>12.0</ele><time>2026-03-22T10:21:03Z</time></trkpt><trkpt lat="24.61191980752601" lon="120.8063763816295"><ele>12.0</ele><time>2026-03-22T10:21:04Z</time></trkpt><trkpt lat="24.612007672078562" lon="120.80649126197515"><ele>12.0</ele><time>2026-03-22T10:21:05Z</time></trkpt><trkpt lat="24.61209761581179" lon="120.80660818508777"><ele>12.0</ele><time>2026-03-22T10:21:06Z</time></trkpt><trkpt lat="24.612190737218388" lon="120.80672667737696"><ele>12.0</ele><time>2026-03-22T10:21:07Z</time></trkpt><trkpt lat="24.612286133118694" lon="120.8068455252922"><ele>12.0</ele><time>2026-03-22T10:21:08Z</time></trkpt><trkpt lat="24.61237955772795" lon="120.80696002780408"><ele>12.0</ele><time>2026-03-22T10:21:09Z</time></trkpt><trkpt lat="24.612471523504595" lon="120.80707144633809"><ele>12.0</ele><time>2026-03-22T10:21:10Z</time></trkpt><trkpt lat="24.61256233064767" lon="120.80717890232827"><ele>12.0</ele><time>2026-03-22T10:21:11Z</time></trkpt><trkpt lat="24.612652421704365" lon="120.80728349361681"><ele>12.0</ele><time>2026-03-22T10:21:12Z</time></trkpt><trkpt lat="24.612741252775688" lon="120.80738686474733"><ele>12.0</ele><time>2026-03-22T10:21:13Z</time></trkpt><trkpt lat="24.61282628522488" lon="120.80748389514417"><ele>12.2</ele><time>2026-03-22T10:21:14Z</time></trkpt><trkpt lat="24.61290660794612" lon="120.80757473887742"><ele>12.399999999999999</ele><time>2026-03-22T10:21:15Z</time></trkpt><trkpt lat="24.612983423080603" lon="120.80766268798487"><ele>12.600000000000001</ele><time>2026-03-22T10:21:16Z</time></trkpt><trkpt lat="24.61305489567433" lon="120.80774133816287"><ele>12.8</ele><time>2026-03-22T10:21:17Z</time></trkpt><trkpt lat="24.613119530408035" lon="120.8078109104646"><ele>13.0</ele><time>2026-03-22T10:21:18Z</time></trkpt><trkpt lat="24.61318466912527" lon="120.80787920705792"><ele>13.166666666666666</ele><time>2026-03-22T10:21:19Z</time></trkpt><trkpt lat="24.61324762649895" lon="120.80794580298104"><ele>13.333333333333332</ele><time>2026-03-22T10:21:20Z</time></trkpt><trkpt lat="24.613309470360388" lon="120.80801074317401"><ele>13.5</ele><time>2026-03-22T10:21:21Z</time></trkpt><trkpt lat="24.61337044656011" lon="120.80807352234291"><ele>13.666666666666668</ele><time>2026-03-22T10:21:22Z</time></trkpt><trkpt lat="24.613430743371723" lon="120.80813560394611"><ele>13.833333333333334</ele><time>2026-03-22T10:21:23Z</time></trkpt><trkpt lat="24.61348699021317" lon="120.8081933789006"><ele>14.0</ele><time>2026-03-22T10:21:24Z</time></trkpt><trkpt lat="24.613543276499225" lon="120.80825129141915"><ele>14.0</ele><time>2026-03-22T10:21:25Z</time></trkpt><trkpt lat="24.613598025040208" lon="120.80830696796484"><ele>14.0</ele><time>2026-03-22T10:21:26Z</time></trkpt><trkpt lat="24.613652084592555" lon="120.80836174279447"><ele>14.0</ele><time>2026-03-22T10:21:27Z</time></trkpt><trkpt lat="24.613706458365467" lon="120.8084157077794"><ele>14.0</ele><time>2026-03-22T10:21:28Z</time></trkpt><trkpt lat="24.613762007829973" lon="120.80846946731421"><ele>14.0</ele><time>2026-03-22T10:21:29Z</time></trkpt><trkpt lat="24.61381866343188" lon="120.8085256921562"><ele>14.0</ele><time>2026-03-22T10:21:30Z</time></trkpt><trkpt lat="24.61387678626478" lon="120.80858260839483"><ele>14.0</ele><time>2026-03-22T10:21:31Z</time></trkpt><trkpt lat="24.613940317539388" lon="120.80864403072778"><ele>14.833333333333334</ele><time>2026-03-22T10:21:32Z</time></trkpt><trkpt lat="24.614001704895102" lon="120.80870139360317"><ele>15.666666666666668</ele><time>2026-03-22T10:21:33Z</time></trkpt><trkpt lat="24.614067456222426" lon="120.80876383448548"><ele>16.5</ele><time>2026-03-22T10:21:34Z</time></trkpt><trkpt lat="24.61413614636864" lon="120.80882688957863"><ele>17.333333333333332</ele><time>2026-03-22T10:21:35Z</time></trkpt><trkpt lat="24.61420355315928" lon="120.8088895477595"><ele>18.166666666666664</ele><time>2026-03-22T10:21:36Z</time></trkpt><trkpt lat="24.61426977981516" lon="120.80894981763178"><ele>19.0</ele><time>2026-03-22T10:21:37Z</time></trkpt><trkpt lat="24.614331627689936" lon="120.80900644437423"><ele>19.0</ele><time>2026-03-22T10:21:38Z</time></trkpt><trkpt lat="24.614394269380067" lon="120.80906126613402"><ele>19.0</ele><time>2026-03-22T10:21:39Z</time></trkpt><trkpt lat="24.6144508449602" lon="120.80911289036882"><ele>19.0</ele><time>2026-03-22T10:21:40Z</time></trkpt><trkpt lat="24.614512595689202" lon="120.80916752725798"><ele>19.0</ele><time>2026-03-22T10:21:41Z</time></trkpt><trkpt lat="24.61457623706135" lon="120.80922313596449"><ele>19.0</ele><time>2026-03-22T10:21:42Z</time></trkpt><trkpt lat="24.61464369282973" lon="120.8092813538405"><ele>19.0</ele><time>2026-03-22T10:21:43Z</time></trkpt><trkpt lat="24.614713051286696" lon="120.80934138304747"><ele>19.799999999999997</ele><time>2026-03-22T10:21:44Z</time></trkpt><trkpt lat="24.614784625737503" lon="120.80939946504003"><ele>20.599999999999998</ele><time>2026-03-22T10:21:45Z</time></trkpt><trkpt lat="24.614857964344303" lon="120.80946002567025"><ele>21.4</ele><time>2026-03-22T10:21:46Z</time></trkpt><trkpt lat="24.61493334011373" lon="120.80952325237288"><ele>22.2</ele><time>2026-03-22T10:21:47Z</time></trkpt><trkpt lat="24.615009976174694" lon="120.80958682536537"><ele>23.0</ele><time>2026-03-22T10:21:48Z</time></trkpt><trkpt lat="24.615085964288898" lon="120.80965006397798"><ele>23.0</ele><time>2026-03-22T10:21:49Z</time></trkpt><trkpt lat="24.615162311888596" lon="120.80971334246522"><ele>23.0</ele><time>2026-03-22T10:21:50Z</time></trkpt><trkpt lat="24.615237347611274" lon="120.80977401653763"><ele>23.0</ele><time>2026-03-22T10:21:51Z</time></trkpt><trkpt lat="24.615313688664127" lon="120.80983417134091"><ele>23.0</ele><time>2026-03-22T10:21:52Z</time></trkpt><trkpt lat="24.61539136970201" lon="120.80989531443547"><ele>23.0</ele><time>2026-03-22T10:21:53Z</time></trkpt><trkpt lat="24.615469784643018" lon="120.80995591744896"><ele>23.0</ele><time>2026-03-22T10:21:54Z</time></trkpt><trkpt lat="24.615549894857754" lon="120.81001747831556"><ele>23.0</ele><time>2026-03-22T10:21:55Z</time></trkpt><trkpt lat="24.615630956866642" lon="120.81007675788942"><ele>23.0</ele><time>2026-03-22T10:21:56Z</time></trkpt><trkpt lat="24.615710832868427" lon="120.8101365458071"><ele>23.0</ele><time>2026-03-22T10:21:57Z</time></trkpt><trkpt lat="24.61578912770185" lon="120.81019627804885"><ele>23.0</ele><time>2026-03-22T10:21:58Z</time></trkpt><trkpt lat="24.61587289750929" lon="120.81025638762485"><ele>23.0</ele><time>2026-03-22T10:21:59Z</time></trkpt><trkpt lat="24.61595967923305" lon="120.81031960126883"><ele>23.0</ele><time>2026-03-22T10:22:00Z</time></trkpt><trkpt lat="24.6160495437016" lon="120.81038400225054"><ele>23.0</ele><time>2026-03-22T10:22:01Z</time></trkpt><trkpt lat="24.616143310572035" lon="120.81044959254164"><ele>23.0</ele><time>2026-03-22T10:22:02Z</time></trkpt><trkpt lat="24.616237624536925" lon="120.81051555637349"><ele>23.0</ele><time>2026-03-22T10:22:03Z</time></trkpt><trkpt lat="24.616338053534758" lon="120.81058358724322"><ele>23.5</ele><time>2026-03-22T10:22:04Z</time></trkpt><trkpt lat="24.616440867115948" lon="120.81065412923505"><ele>24.0</ele><time>2026-03-22T10:22:05Z</time></trkpt><trkpt lat="24.61654781452393" lon="120.81072440467403"><ele>24.5</ele><time>2026-03-22T10:22:06Z</time></trkpt><trkpt lat="24.61665703923042" lon="120.81079519541231"><ele>25.0</ele><time>2026-03-22T10:22:07Z</time></trkpt><trkpt lat="24.616768142019943" lon="120.81086467066996"><ele>25.0</ele><time>2026-03-22T10:22:08Z</time></trkpt><trkpt lat="24.616882035117765" lon="120.81093635277833"><ele>25.0</ele><time>2026-03-22T10:22:09Z</time></trkpt><trkpt lat="24.616998707119908" lon="120.81100920847727"><ele>25.0</ele><time>2026-03-22T10:22:10Z</time></trkpt><trkpt lat="24.617114993285195" lon="120.81108010429735"><ele>25.0</ele><time>2026-03-22T10:22:11Z</time></trkpt><trkpt lat="24.617228552582944" lon="120.81114725892117"><ele>25.5</ele><time>2026-03-22T10:22:12Z</time></trkpt><trkpt lat="24.617345422903956" lon="120.81121648541594"><ele>26.0</ele><time>2026-03-22T10:22:13Z</time></trkpt><trkpt lat="24.61746608030504" lon="120.81128701564937"><ele>26.5</ele><time>2026-03-22T10:22:14Z</time></trkpt><trkpt lat="24.61759210932751" lon="120.81135765731344"><ele>27.0</ele><time>2026-03-22T10:22:15Z</time></trkpt><trkpt lat="24.617721060405966" lon="120.81143001845683"><ele>27.25</ele><time>2026-03-22T10:22:16Z</time></trkpt><trkpt lat="24.61785066097977" lon="120.81150072299253"><ele>27.5</ele><time>2026-03-22T10:22:17Z</time></trkpt><trkpt lat="24.617983795064724" lon="120.81157173256395"><ele>27.75</ele><time>2026-03-22T10:22:18Z</time></trkpt><trkpt lat="24.61811620072947" lon="120.81164044817879"><ele>28.0</ele><time>2026-03-22T10:22:19Z</time></trkpt><trkpt lat="24.618246950577262" lon="120.8117077348454"><ele>28.0</ele><time>2026-03-22T10:22:20Z</time></trkpt><trkpt lat="24.61837806609031" lon="120.81177220996963"><ele>28.0</ele><time>2026-03-22T10:22:21Z</time></trkpt><trkpt lat="24.61850953727137" lon="120.8118356330736"><ele>28.0</ele><time>2026-03-22T10:22:22Z</time></trkpt><trkpt lat="24.61864298412182" lon="120.81190005307751"><ele>28.0</ele><time>2026-03-22T10:22:23Z</time></trkpt><trkpt lat="24.61877662188888" lon="120.81196304487298"><ele>26.75</ele><time>2026-03-22T10:22:24Z</time></trkpt><trkpt lat="24.61890925540541" lon="120.81202422483894"><ele>25.5</ele><time>2026-03-22T10:22:25Z</time></trkpt><trkpt lat="24.6190403459536" lon="120.81208318856574"><ele>24.25</ele><time>2026-03-22T10:22:26Z</time></trkpt><trkpt lat="24.61916747657937" lon="120.81213889138623"><ele>23.0</ele><time>2026-03-22T10:22:27Z</time></trkpt><trkpt lat="24.619294436292748" lon="120.81219338277127"><ele>23.0</ele><time>2026-03-22T10:22:28Z</time></trkpt><trkpt lat="24.61941764512586" lon="120.81224585537595"><ele>23.0</ele><time>2026-03-22T10:22:29Z</time></trkpt><trkpt lat="24.6195432335305" lon="120.81229765571406"><ele>23.0</ele><time>2026-03-22T10:22:30Z</time></trkpt><trkpt lat="24.619666052648675" lon="120.8123457010056"><ele>23.0</ele><time>2026-03-22T10:22:31Z</time></trkpt><trkpt lat="24.619790045704" lon="120.81239810576619"><ele>24.0</ele><time>2026-03-22T10:22:32Z</time></trkpt><trkpt lat="24.619912033424278" lon="120.81244731084904"><ele>25.0</ele><time>2026-03-22T10:22:33Z</time></trkpt><trkpt lat="24.620032318708418" lon="120.81249351170784"><ele>26.0</ele><time>2026-03-22T10:22:34Z</time></trkpt><trkpt lat="24.620148966932547" lon="120.81253620427512"><ele>27.0</ele><time>2026-03-22T10:22:35Z</time></trkpt><trkpt lat="24.620263900603927" lon="120.8125758219222"><ele>27.75</ele><time>2026-03-22T10:22:36Z</time></trkpt><trkpt lat="24.620377875109213" lon="120.81261589000302"><ele>28.5</ele><time>2026-03-22T10:22:37Z</time></trkpt><trkpt lat="24.620488169186547" lon="120.81265323949717"><ele>29.25</ele><time>2026-03-22T10:22:38Z</time></trkpt><trkpt lat="24.620598315145784" lon="120.81268901078225"><ele>30.0</ele><time>2026-03-22T10:22:39Z</time></trkpt><trkpt lat="24.62071046637481" lon="120.81272544158023"><ele>30.0</ele><time>2026-03-22T10:22:40Z</time></trkpt><trkpt lat="24.62082611645204" lon="120.81276347349467"><ele>30.0</ele><time>2026-03-22T10:22:41Z</time></trkpt><trkpt lat="24.62094427912855" lon="120.81279990971423"><ele>30.0</ele><time>2026-03-22T10:22:42Z</time></trkpt><trkpt lat="24.621060559909978" lon="120.81283436515244"><ele>30.0</ele><time>2026-03-22T10:22:43Z</time></trkpt><trkpt lat="24.621176880693156" lon="120.81286845506408"><ele>30.5</ele><time>2026-03-22T10:22:44Z</time></trkpt><trkpt lat="24.62129723760725" lon="120.81290229791276"><ele>31.0</ele><time>2026-03-22T10:22:45Z</time></trkpt><trkpt lat="24.621419976465116" lon="120.81293492921431"><ele>31.5</ele><time>2026-03-22T10:22:46Z</time></trkpt><trkpt lat="24.621545227425315" lon="120.81296862423255"><ele>32.0</ele><time>2026-03-22T10:22:47Z</time></trkpt><trkpt lat="24.621667695292164" lon="120.81299990467504"><ele>32.0</ele><time>2026-03-22T10:22:48Z</time></trkpt><trkpt lat="24.621785287496984" lon="120.81302970690724"><ele>32.0</ele><time>2026-03-22T10:22:49Z</time></trkpt><trkpt lat="24.62190117469686" lon="120.81305932286577"><ele>32.0</ele><time>2026-03-22T10:22:50Z</time></trkpt><trkpt lat="24.622014328441953" lon="120.81308747104148"><ele>32.0</ele><time>2026-03-22T10:22:51Z</time></trkpt><trkpt lat="24.6221250964363" lon="120.81311463524803"><ele>33.2</ele><time>2026-03-22T10:22:52Z</time></trkpt><trkpt lat="24.622233026750475" lon="120.81314096769691"><ele>34.400000000000006</ele><time>2026-03-22T10:22:53Z</time></trkpt><trkpt lat="24.62233872554685" lon="120.81316571979289"><ele>35.599999999999994</ele><time>2026-03-22T10:22:54Z</time></trkpt><trkpt lat="24.62244116780907" lon="120.81318895085722"><ele>36.8</ele><time>2026-03-22T10:22:55Z</time></trkpt><trkpt lat="24.622540128140983" lon="120.81321060843187"><ele>38.0</ele><time>2026-03-22T10:22:56Z</time></trkpt><trkpt lat="24.622637157001083" lon="120.8132315080957"><ele>38.0</ele><time>2026-03-22T10:22:57Z</time></trkpt><trkpt lat="24.62273332368849" lon="120.81325230393836"><ele>38.0</ele><time>2026-03-22T10:22:58Z</time></trkpt><trkpt lat="24.62282752518318" lon="120.81327218259553"><ele>38.0</ele><time>2026-03-22T10:22:59Z</time></trkpt><trkpt lat="24.622917141202027" lon="120.81329059301605"><ele>38.0</ele><time>2026-03-22T10:23:00Z</time></trkpt><trkpt lat="24.62300250486452" lon="120.81330753473354"><ele>38.0</ele><time>2026-03-22T10:23:01Z</time></trkpt><trkpt lat="24.62308529695054" lon="120.81332440159102"><ele>39.33333333333333</ele><time>2026-03-22T10:23:02Z</time></trkpt><trkpt lat="24.623164274455327" lon="120.81334020048325"><ele>40.666666666666664</ele><time>2026-03-22T10:23:03Z</time></trkpt><trkpt lat="24.623243003061116" lon="120.81335606058542"><ele>42.0</ele><time>2026-03-22T10:23:04Z</time></trkpt><trkpt lat="24.62332309543272" lon="120.81337109057648"><ele>43.333333333333336</ele><time>2026-03-22T10:23:05Z</time></trkpt><trkpt lat="24.6234021228429" lon="120.81338605288384"><ele>44.66666666666667</ele><time>2026-03-22T10:23:06Z</time></trkpt><trkpt lat="24.623483766925855" lon="120.81340183414487"><ele>46.0</ele><time>2026-03-22T10:23:07Z</time></trkpt><trkpt lat="24.623573078539607" lon="120.8134195822029"><ele>47.8</ele><time>2026-03-22T10:23:08Z</time></trkpt><trkpt lat="24.623665204580938" lon="120.81343688627437"><ele>49.599999999999994</ele><time>2026-03-22T10:23:09Z</time></trkpt><trkpt lat="24.623758731334014" lon="120.81345433512175"><ele>51.4</ele><time>2026-03-22T10:23:10Z</time></trkpt><trkpt lat="24.623857928450665" lon="120.81347282040434"><ele>53.2</ele><time>2026-03-22T10:23:11Z</time></trkpt><trkpt lat="24.623961582811226" lon="120.81349191786623"><ele>55.0</ele><time>2026-03-22T10:23:12Z</time></trkpt><trkpt lat="24.62406229069521" lon="120.81351069589155"><ele>56.0</ele><time>2026-03-22T10:23:13Z</time></trkpt><trkpt lat="24.624163242453687" lon="120.81352728892276"><ele>57.0</ele><time>2026-03-22T10:23:14Z</time></trkpt><trkpt lat="24.624267335502715" lon="120.8135457151384"><ele>58.0</ele><time>2026-03-22T10:23:15Z</time></trkpt><trkpt lat="24.624376285067353" lon="120.81356488232056"><ele>59.0</ele><time>2026-03-22T10:23:16Z</time></trkpt><trkpt lat="24.62448912498741" lon="120.81358377440078"><ele>60.0</ele><time>2026-03-22T10:23:17Z</time></trkpt><trkpt lat="24.624602890994193" lon="120.8136021015039"><ele>62.0</ele><time>2026-03-22T10:23:18Z</time></trkpt><trkpt lat="24.62471795146481" lon="120.81362252789853"><ele>64.0</ele><time>2026-03-22T10:23:19Z</time></trkpt><trkpt lat="24.624829722232914" lon="120.81364188762227"><ele>66.0</ele><time>2026-03-22T10:23:20Z</time></trkpt><trkpt lat="24.624937861848192" lon="120.81366079120004"><ele>68.0</ele><time>2026-03-22T10:23:21Z</time></trkpt><trkpt lat="24.62504266202601" lon="120.81367782162658"><ele>70.0</ele><time>2026-03-22T10:23:22Z</time></trkpt><trkpt lat="24.625147327514412" lon="120.81369486250085"><ele>70.0</ele><time>2026-03-22T10:23:23Z</time></trkpt><trkpt lat="24.625252924784807" lon="120.8137117445682"><ele>70.0</ele><time>2026-03-22T10:23:24Z</time></trkpt><trkpt lat="24.62535766079276" lon="120.81372917807631"><ele>70.0</ele><time>2026-03-22T10:23:25Z</time></trkpt><trkpt lat="24.625465383323075" lon="120.81374731785534"><ele>70.0</ele><time>2026-03-22T10:23:26Z</time></trkpt><trkpt lat="24.625571356198147" lon="120.81376609464435"><ele>70.0</ele><time>2026-03-22T10:23:27Z</time></trkpt><trkpt lat="24.625675944204556" lon="120.81378399098335"><ele>69.6</ele><time>2026-03-22T10:23:28Z</time></trkpt><trkpt lat="24.625780829968697" lon="120.8138016674876"><ele>69.2</ele><time>2026-03-22T10:23:29Z</time></trkpt><trkpt lat="24.62588924305013" lon="120.81382032394242"><ele>68.8</ele><time>2026-03-22T10:23:30Z</time></trkpt><trkpt lat="24.62600254672103" lon="120.81384047875534"><ele>68.4</ele><time>2026-03-22T10:23:31Z</time></trkpt><trkpt lat="24.626119918207525" lon="120.81386077792097"><ele>68.0</ele><time>2026-03-22T10:23:32Z</time></trkpt><trkpt lat="24.626240337578043" lon="120.81388293067175"><ele>66.75</ele><time>2026-03-22T10:23:33Z</time></trkpt><trkpt lat="24.626361977300757" lon="120.81390436864545"><ele>65.5</ele><time>2026-03-22T10:23:34Z</time></trkpt><trkpt lat="24.626487641296777" lon="120.81392786700697"><ele>64.25</ele><time>2026-03-22T10:23:35Z</time></trkpt><trkpt lat="24.626611262170375" lon="120.81395008449803"><ele>63.0</ele><time>2026-03-22T10:23:36Z</time></trkpt><trkpt lat="24.6267322366713" lon="120.813973857007"><ele>63.0</ele><time>2026-03-22T10:23:37Z</time></trkpt><trkpt lat="24.62685171776111" lon="120.81399545736731"><ele>63.0</ele><time>2026-03-22T10:23:38Z</time></trkpt><trkpt lat="24.626970710742725" lon="120.81401735664839"><ele>63.0</ele><time>2026-03-22T10:23:39Z</time></trkpt><trkpt lat="24.627091680029523" lon="120.81403986429501"><ele>63.0</ele><time>2026-03-22T10:23:40Z</time></trkpt><trkpt lat="24.627213556123387" lon="120.81406220454093"><ele>62.25</ele><time>2026-03-22T10:23:41Z</time></trkpt><trkpt lat="24.62733573272124" lon="120.81408785692456"><ele>61.5</ele><time>2026-03-22T10:23:42Z</time></trkpt><trkpt lat="24.627461819234373" lon="120.81411219640688"><ele>60.75</ele><time>2026-03-22T10:23:43Z</time></trkpt><trkpt lat="24.62759033665618" lon="120.81413840777611"><ele>60.0</ele><time>2026-03-22T10:23:44Z</time></trkpt><trkpt lat="24.62771874549908" lon="120.81416539196489"><ele>61.5</ele><time>2026-03-22T10:23:45Z</time></trkpt><trkpt lat="24.627845248198543" lon="120.81419282297712"><ele>63.0</ele><time>2026-03-22T10:23:46Z</time></trkpt><trkpt lat="24.62796817000504" lon="120.81422017090742"><ele>64.5</ele><time>2026-03-22T10:23:47Z</time></trkpt><trkpt lat="24.62808947036329" lon="120.81424635006412"><ele>66.0</ele><time>2026-03-22T10:23:48Z</time></trkpt><trkpt lat="24.628207278470196" lon="120.81427352672776"><ele>66.0</ele><time>2026-03-22T10:23:49Z</time></trkpt><trkpt lat="24.6283216482169" lon="120.81430024038441"><ele>66.0</ele><time>2026-03-22T10:23:50Z</time></trkpt><trkpt lat="24.628432659763448" lon="120.81432635559649"><ele>66.0</ele><time>2026-03-22T10:23:51Z</time></trkpt><trkpt lat="24.628543445820412" lon="120.81435420543289"><ele>66.0</ele><time>2026-03-22T10:23:52Z</time></trkpt><trkpt lat="24.628652941926145" lon="120.81438269036713"><ele>65.2</ele><time>2026-03-22T10:23:53Z</time></trkpt><trkpt lat="24.628764609211103" lon="120.81441160161073"><ele>64.39999999999999</ele><time>2026-03-22T10:23:54Z</time></trkpt><trkpt lat="24.62887391873381" lon="120.81443983994687"><ele>63.6</ele><time>2026-03-22T10:23:55Z</time></trkpt><trkpt lat="24.628979927551832" lon="120.8144644676336"><ele>62.8</ele><time>2026-03-22T10:23:56Z</time></trkpt><trkpt lat="24.62908342439199" lon="120.81449153377426"><ele>62.0</ele><time>2026-03-22T10:23:57Z</time></trkpt><trkpt lat="24.629185135531408" lon="120.81451938806418"><ele>62.0</ele><time>2026-03-22T10:23:58Z</time></trkpt><trkpt lat="24.629283922768323" lon="120.81454713279811"><ele>62.0</ele><time>2026-03-22T10:23:59Z</time></trkpt><trkpt lat="24.629380501767454" lon="120.81457425793279"><ele>62.0</ele><time>2026-03-22T10:24:00Z</time></trkpt><trkpt lat="24.629478111437102" lon="120.81460197852802"><ele>62.0</ele><time>2026-03-22T10:24:01Z</time></trkpt><trkpt lat="24.62957780576471" lon="120.81463230012896"><ele>62.0</ele><time>2026-03-22T10:24:02Z</time></trkpt><trkpt lat="24.629681106107327" lon="120.81466305694549"><ele>61.400000000000006</ele><time>2026-03-22T10:24:03Z</time></trkpt><trkpt lat="24.629785741997562" lon="120.81469394534395"><ele>60.800000000000004</ele><time>2026-03-22T10:24:04Z</time></trkpt><trkpt lat="24.62989003071748" lon="120.81472790218602"><ele>60.2</ele><time>2026-03-22T10:24:05Z</time></trkpt><trkpt lat="24.62999174937441" lon="120.8147602761878"><ele>59.6</ele><time>2026-03-22T10:24:06Z</time></trkpt><trkpt lat="24.630091721229284" lon="120.81479240997753"><ele>59.0</ele><time>2026-03-22T10:24:07Z</time></trkpt><trkpt lat="24.63018921389765" lon="120.81482591491634"><ele>59.0</ele><time>2026-03-22T10:24:08Z</time></trkpt><trkpt lat="24.6302848886651" lon="120.81485797435074"><ele>59.00000000000001</ele><time>2026-03-22T10:24:09Z</time></trkpt><trkpt lat="24.63037946824534" lon="120.81488943327061"><ele>59.00000000000001</ele><time>2026-03-22T10:24:10Z</time></trkpt><trkpt lat="24.630471943167855" lon="120.81492150136535"><ele>59.0</ele><time>2026-03-22T10:24:11Z</time></trkpt><trkpt lat="24.63056436629388" lon="120.81495294048068"><ele>59.0</ele><time>2026-03-22T10:24:12Z</time></trkpt><trkpt lat="24.63065364169975" lon="120.81498422023357"><ele>58.6</ele><time>2026-03-22T10:24:13Z</time></trkpt><trkpt lat="24.63074338717222" lon="120.81501535214254"><ele>58.2</ele><time>2026-03-22T10:24:14Z</time></trkpt><trkpt lat="24.630832186654462" lon="120.81504645754843"><ele>57.800000000000004</ele><time>2026-03-22T10:24:15Z</time></trkpt><trkpt lat="24.63092353416804" lon="120.81507573468167"><ele>57.400000000000006</ele><time>2026-03-22T10:24:16Z</time></trkpt><trkpt lat="24.63101350244211" lon="120.8151108267163"><ele>57.0</ele><time>2026-03-22T10:24:17Z</time></trkpt><trkpt lat="24.631103390599385" lon="120.81514556236515"><ele>56.400000000000006</ele><time>2026-03-22T10:24:18Z</time></trkpt><trkpt lat="24.631194817985264" lon="120.81517948828132"><ele>55.800000000000004</ele><time>2026-03-22T10:24:19Z</time></trkpt><trkpt lat="24.631289135995456" lon="120.8152154843578"><ele>55.2</ele><time>2026-03-22T10:24:20Z</time></trkpt><trkpt lat="24.631382883468287" lon="120.81525127778022"><ele>54.6</ele><time>2026-03-22T10:24:21Z</time></trkpt><trkpt lat="24.63147427762053" lon="120.81528704096804"><ele>54.0</ele><time>2026-03-22T10:24:22Z</time></trkpt><trkpt lat="24.63156566757389" lon="120.8153241031128"><ele>54.0</ele><time>2026-03-22T10:24:23Z</time></trkpt><trkpt lat="24.631656312952014" lon="120.8153604425944"><ele>54.00000000000001</ele><time>2026-03-22T10:24:24Z</time></trkpt><trkpt lat="24.631748694011087" lon="120.81539848208867"><ele>54.00000000000001</ele><time>2026-03-22T10:24:25Z</time></trkpt><trkpt lat="24.631840197738512" lon="120.81543725804806"><ele>54.0</ele><time>2026-03-22T10:24:26Z</time></trkpt><trkpt lat="24.631929202637366" lon="120.81547462068747"><ele>54.0</ele><time>2026-03-22T10:24:27Z</time></trkpt><trkpt lat="24.632016675501557" lon="120.8155121553868"><ele>54.166666666666664</ele><time>2026-03-22T10:24:28Z</time></trkpt><trkpt lat="24.632102241544544" lon="120.81554900692404"><ele>54.33333333333333</ele><time>2026-03-22T10:24:29Z</time></trkpt><trkpt lat="24.63218251104846" lon="120.81558417539358"><ele>54.5</ele><time>2026-03-22T10:24:30Z</time></trkpt><trkpt lat="24.632255999991006" lon="120.81561534376173"><ele>54.666666666666664</ele><time>2026-03-22T10:24:31Z</time></trkpt><trkpt lat="24.632321598414322" lon="120.81564355125319"><ele>54.83333333333333</ele><time>2026-03-22T10:24:32Z</time></trkpt><trkpt lat="24.632381769613108" lon="120.8156705550963"><ele>55.0</ele><time>2026-03-22T10:24:33Z</time></trkpt><trkpt lat="24.632485597427472" lon="120.81571602173314"><ele>54.99999999999999</ele><time>2026-03-22T10:24:35Z</time></trkpt><trkpt lat="24.632587219413587" lon="120.81576137691515"><ele>55.0</ele><time>2026-03-22T10:24:37Z</time></trkpt><trkpt lat="24.632682533362587" lon="120.81580538344006"><ele>55.0</ele><time>2026-03-22T10:24:39Z</time></trkpt><trkpt lat="24.63275896168888" lon="120.81584156848884"><ele>55.0</ele><time>2026-03-22T10:24:41Z</time></trkpt><trkpt lat="24.63283865875856" lon="120.81587848624163"><ele>54.99999999999999</ele><time>2026-03-22T10:24:44Z</time></trkpt><trkpt lat="24.632898451100637" lon="120.81590587099964"><ele>55.0</ele><time>2026-03-22T10:24:47Z</time></trkpt><trkpt lat="24.63298230096469" lon="120.81594549598258"><ele>54.33333333333333</ele><time>2026-03-22T10:24:50Z</time></trkpt><trkpt lat="24.633062419102156" lon="120.81598324587142"><ele>53.666666666666664</ele><time>2026-03-22T10:24:52Z</time></trkpt><trkpt lat="24.633154882047027" lon="120.81602737389724"><ele>53.0</ele><time>2026-03-22T10:24:54Z</time></trkpt><trkpt lat="24.63326806119562" lon="120.81608500804045"><ele>52.33333333333333</ele><time>2026-03-22T10:24:56Z</time></trkpt><trkpt lat="24.633327968821106" lon="120.81611582224926"><ele>51.666666666666664</ele><time>2026-03-22T10:24:57Z</time></trkpt><trkpt lat="24.633387745170346" lon="120.81614567167794"><ele>51.0</ele><time>2026-03-22T10:24:58Z</time></trkpt><trkpt lat="24.63344791821704" lon="120.81617478827906"><ele>51.0</ele><time>2026-03-22T10:24:59Z</time></trkpt><trkpt lat="24.633507794248516" lon="120.81620382000068"><ele>51.0</ele><time>2026-03-22T10:25:00Z</time></trkpt><trkpt lat="24.633567464063848" lon="120.81623487809912"><ele>51.0</ele><time>2026-03-22T10:25:01Z</time></trkpt><trkpt lat="24.633626344026176" lon="120.81626486743818"><ele>51.0</ele><time>2026-03-22T10:25:02Z</time></trkpt><trkpt lat="24.633683610346534" lon="120.81629519748721"><ele>51.0</ele><time>2026-03-22T10:25:03Z</time></trkpt><trkpt lat="24.63374174463675" lon="120.81632635486903"><ele>51.0</ele><time>2026-03-22T10:25:04Z</time></trkpt><trkpt lat="24.6337993773182" lon="120.816357415362"><ele>51.0</ele><time>2026-03-22T10:25:05Z</time></trkpt><trkpt lat="24.633907064610693" lon="120.81641403835668"><ele>50.199999999999996</ele><time>2026-03-22T10:25:07Z</time></trkpt><trkpt lat="24.634001996573552" lon="120.81646562147866"><ele>49.4</ele><time>2026-03-22T10:25:09Z</time></trkpt><trkpt lat="24.634090801251595" lon="120.816515594005"><ele>48.6</ele><time>2026-03-22T10:25:11Z</time></trkpt><trkpt lat="24.6341830746122" lon="120.81656679646424"><ele>47.8</ele><time>2026-03-22T10:25:13Z</time></trkpt><trkpt lat="24.634284330294303" lon="120.81662182680668"><ele>47.0</ele><time>2026-03-22T10:25:15Z</time></trkpt><trkpt lat="24.63439320136373" lon="120.81668315574667"><ele>47.0</ele><time>2026-03-22T10:25:17Z</time></trkpt><trkpt lat="24.63445030055947" lon="120.81671501868732"><ele>47.0</ele><time>2026-03-22T10:25:18Z</time></trkpt><trkpt lat="24.634507196135647" lon="120.81674756670793"><ele>47.0</ele><time>2026-03-22T10:25:19Z</time></trkpt><trkpt lat="24.63461576724999" lon="120.81681021127167"><ele>47.0</ele><time>2026-03-22T10:25:21Z</time></trkpt><trkpt lat="24.634719007473553" lon="120.81686960100065"><ele>47.0</ele><time>2026-03-22T10:25:23Z</time></trkpt><trkpt lat="24.634823301695562" lon="120.81692930180702"><ele>46.75</ele><time>2026-03-22T10:25:25Z</time></trkpt><trkpt lat="24.63493125048083" lon="120.8169924516142"><ele>46.5</ele><time>2026-03-22T10:25:27Z</time></trkpt><trkpt lat="24.635039658310642" lon="120.81705513807607"><ele>46.25</ele><time>2026-03-22T10:25:29Z</time></trkpt><trkpt lat="24.635140644459046" lon="120.81711780291329"><ele>46.0</ele><time>2026-03-22T10:25:31Z</time></trkpt><trkpt lat="24.635236377936344" lon="120.81717846841225"><ele>46.199999999999996</ele><time>2026-03-22T10:25:33Z</time></trkpt><trkpt lat="24.635329134412608" lon="120.81723788287007"><ele>46.4</ele><time>2026-03-22T10:25:35Z</time></trkpt><trkpt lat="24.635417708586225" lon="120.81729517053506"><ele>46.6</ele><time>2026-03-22T10:25:37Z</time></trkpt><trkpt lat="24.635503010536436" lon="120.81735070196014"><ele>46.8</ele><time>2026-03-22T10:25:39Z</time></trkpt><trkpt lat="24.6355872912579" lon="120.81740559926902"><ele>47.0</ele><time>2026-03-22T10:25:41Z</time></trkpt><trkpt lat="24.635675204785972" lon="120.8174629902999"><ele>47.0</ele><time>2026-03-22T10:25:43Z</time></trkpt><trkpt lat="24.635759170356298" lon="120.81751868665137"><ele>47.0</ele><time>2026-03-22T10:25:45Z</time></trkpt><trkpt lat="24.63584559976807" lon="120.81757469043505"><ele>47.0</ele><time>2026-03-22T10:25:47Z</time></trkpt><trkpt lat="24.635931745314867" lon="120.81763267490403"><ele>47.0</ele><time>2026-03-22T10:25:49Z</time></trkpt><trkpt lat="24.63601743889661" lon="120.8176898935657"><ele>47.0</ele><time>2026-03-22T10:25:51Z</time></trkpt><trkpt lat="24.636108575976262" lon="120.81775364108579"><ele>46.8</ele><time>2026-03-22T10:25:53Z</time></trkpt><trkpt lat="24.636200759643824" lon="120.81781760069497"><ele>46.6</ele><time>2026-03-22T10:25:55Z</time></trkpt><trkpt lat="24.63628868534621" lon="120.81787914219503"><ele>46.4</ele><time>2026-03-22T10:25:57Z</time></trkpt><trkpt lat="24.63638230998268" lon="120.8179448321457"><ele>46.199999999999996</ele><time>2026-03-22T10:25:59Z</time></trkpt><trkpt lat="24.63648130900589" lon="120.81801644001753"><ele>46.0</ele><time>2026-03-22T10:26:01Z</time></trkpt><trkpt lat="24.636582285520756" lon="120.81809016374535"><ele>46.0</ele><time>2026-03-22T10:26:03Z</time></trkpt><trkpt lat="24.636688270219324" lon="120.81816759043076"><ele>46.0</ele><time>2026-03-22T10:26:05Z</time></trkpt><trkpt lat="24.63674355942582" lon="120.81820936324439"><ele>46.0</ele><time>2026-03-22T10:26:06Z</time></trkpt><trkpt lat="24.63680232484451" lon="120.81825284460989"><ele>46.0</ele><time>2026-03-22T10:26:07Z</time></trkpt><trkpt lat="24.636864558920447" lon="120.81829862867595"><ele>46.0</ele><time>2026-03-22T10:26:08Z</time></trkpt><trkpt lat="24.63692747172486" lon="120.8183471370831"><ele>46.0</ele><time>2026-03-22T10:26:09Z</time></trkpt><trkpt lat="24.636993051725042" lon="120.81839434292057"><ele>46.333333333333336</ele><time>2026-03-22T10:26:10Z</time></trkpt><trkpt lat="24.63705840022737" lon="120.81844431907602"><ele>46.66666666666667</ele><time>2026-03-22T10:26:11Z</time></trkpt><trkpt lat="24.637123647526863" lon="120.81849420845818"><ele>47.0</ele><time>2026-03-22T10:26:12Z</time></trkpt><trkpt lat="24.63718720941432" lon="120.81854273603099"><ele>47.333333333333336</ele><time>2026-03-22T10:26:13Z</time></trkpt><trkpt lat="24.637252612995344" lon="120.81859298047873"><ele>47.666666666666664</ele><time>2026-03-22T10:26:14Z</time></trkpt><trkpt lat="24.63731585051689" lon="120.81864215826636"><ele>48.0</ele><time>2026-03-22T10:26:15Z</time></trkpt><trkpt lat="24.637379125110403" lon="120.81869032841063"><ele>47.2</ele><time>2026-03-22T10:26:16Z</time></trkpt><trkpt lat="24.63743727443403" lon="120.8187358675466"><ele>46.4</ele><time>2026-03-22T10:26:17Z</time></trkpt><trkpt lat="24.637490133641382" lon="120.8187775079989"><ele>45.6</ele><time>2026-03-22T10:26:18Z</time></trkpt><trkpt lat="24.637580824960786" lon="120.81885100602057"><ele>44.800000000000004</ele><time>2026-03-22T10:26:20Z</time></trkpt><trkpt lat="24.637666916872462" lon="120.81892001924749"><ele>44.0</ele><time>2026-03-22T10:26:22Z</time></trkpt><trkpt lat="24.637754591847553" lon="120.8189922765364"><ele>44.0</ele><time>2026-03-22T10:26:24Z</time></trkpt><trkpt lat="24.637843655789425" lon="120.81906542947637"><ele>44.0</ele><time>2026-03-22T10:26:26Z</time></trkpt><trkpt lat="24.637932646478745" lon="120.81914109198162"><ele>44.0</ele><time>2026-03-22T10:26:28Z</time></trkpt><trkpt lat="24.63802413511525" lon="120.81921829433881"><ele>44.0</ele><time>2026-03-22T10:26:30Z</time></trkpt><trkpt lat="24.63811573529029" lon="120.8192975930308"><ele>43.800000000000004</ele><time>2026-03-22T10:26:32Z</time></trkpt><trkpt lat="24.63820749845059" lon="120.81937718683082"><ele>43.6</ele><time>2026-03-22T10:26:34Z</time></trkpt><trkpt lat="24.638306073472467" lon="120.81946375229197"><ele>43.4</ele><time>2026-03-22T10:26:36Z</time></trkpt><trkpt lat="24.638356395710748" lon="120.8195080799276"><ele>43.2</ele><time>2026-03-22T10:26:37Z</time></trkpt><trkpt lat="24.63840606662588" lon="120.81955203967551"><ele>43.0</ele><time>2026-03-22T10:26:38Z</time></trkpt><trkpt lat="24.638501224990755" lon="120.81963478772245"><ele>43.0</ele><time>2026-03-22T10:26:40Z</time></trkpt><trkpt lat="24.638593523537757" lon="120.8197168698077"><ele>43.0</ele><time>2026-03-22T10:26:42Z</time></trkpt><trkpt lat="24.63868208750384" lon="120.81979577367338"><ele>43.0</ele><time>2026-03-22T10:26:44Z</time></trkpt><trkpt lat="24.638767896758484" lon="120.81987392793573"><ele>43.0</ele><time>2026-03-22T10:26:46Z</time></trkpt><trkpt lat="24.638853070825604" lon="120.81995051123253"><ele>43.0</ele><time>2026-03-22T10:26:48Z</time></trkpt><trkpt lat="24.63893735758173" lon="120.82002538119104"><ele>43.0</ele><time>2026-03-22T10:26:50Z</time></trkpt><trkpt lat="24.6390158268322" lon="120.82009747483914"><ele>43.0</ele><time>2026-03-22T10:26:52Z</time></trkpt><trkpt lat="24.63909595948995" lon="120.8201722830016"><ele>43.0</ele><time>2026-03-22T10:26:54Z</time></trkpt><trkpt lat="24.639183456041753" lon="120.82025200130944"><ele>43.0</ele><time>2026-03-22T10:26:56Z</time></trkpt><trkpt lat="24.63926632929185" lon="120.82033018712575"><ele>43.0</ele><time>2026-03-22T10:26:58Z</time></trkpt><trkpt lat="24.63934556386291" lon="120.82040683941254"><ele>43.0</ele><time>2026-03-22T10:27:00Z</time></trkpt><trkpt lat="24.639429426380676" lon="120.82048793620962"><ele>43.0</ele><time>2026-03-22T10:27:02Z</time></trkpt><trkpt lat="24.639523475834103" lon="120.82057673824944"><ele>43.0</ele><time>2026-03-22T10:27:04Z</time></trkpt><trkpt lat="24.639571284604667" lon="120.82062297050581"><ele>43.0</ele><time>2026-03-22T10:27:05Z</time></trkpt><trkpt lat="24.63961987126197" lon="120.82067006393497"><ele>43.142857142857146</ele><time>2026-03-22T10:27:06Z</time></trkpt><trkpt lat="24.639668675417226" lon="120.82071843654732"><ele>43.285714285714285</ele><time>2026-03-22T10:27:07Z</time></trkpt><trkpt lat="24.63971723643986" lon="120.82076907524302"><ele>43.42857142857143</ele><time>2026-03-22T10:27:08Z</time></trkpt><trkpt lat="24.63976515364439" lon="120.82082015749135"><ele>43.57142857142857</ele><time>2026-03-22T10:27:09Z</time></trkpt><trkpt lat="24.63981791166451" lon="120.82087310837512"><ele>43.714285714285715</ele><time>2026-03-22T10:27:10Z</time></trkpt><trkpt lat="24.6398720303675" lon="120.82093066009845"><ele>43.85714285714286</ele><time>2026-03-22T10:27:11Z</time></trkpt><trkpt lat="24.63993011913455" lon="120.82099079359021"><ele>44.0</ele><time>2026-03-22T10:27:12Z</time></trkpt><trkpt lat="24.639988402110212" lon="120.82105206574519"><ele>44.0</ele><time>2026-03-22T10:27:13Z</time></trkpt><trkpt lat="24.640045908358996" lon="120.82111181381154"><ele>44.0</ele><time>2026-03-22T10:27:14Z</time></trkpt><trkpt lat="24.64010470029169" lon="120.82117274143302"><ele>44.0</ele><time>2026-03-22T10:27:15Z</time></trkpt><trkpt lat="24.640160405188645" lon="120.82123185178709"><ele>44.0</ele><time>2026-03-22T10:27:16Z</time></trkpt><trkpt lat="24.6402137792357" lon="120.82128879245356"><ele>44.0</ele><time>2026-03-22T10:27:17Z</time></trkpt><trkpt lat="24.64026770561809" lon="120.8213444766042"><ele>44.0</ele><time>2026-03-22T10:27:18Z</time></trkpt><trkpt lat="24.64032192993187" lon="120.82140125239934"><ele>43.83333333333333</ele><time>2026-03-22T10:27:19Z</time></trkpt><trkpt lat="24.640375252427013" lon="120.82145811113952"><ele>43.666666666666664</ele><time>2026-03-22T10:27:20Z</time></trkpt><trkpt lat="24.640427784712475" lon="120.82151531403069"><ele>43.5</ele><time>2026-03-22T10:27:21Z</time></trkpt><trkpt lat="24.640485812242048" lon="120.82157533402973"><ele>43.333333333333336</ele><time>2026-03-22T10:27:22Z</time></trkpt><trkpt lat="24.640541085274887" lon="120.821639518123"><ele>43.16666666666667</ele><time>2026-03-22T10:27:23Z</time></trkpt><trkpt lat="24.640602741884866" lon="120.82170447690307"><ele>43.0</ele><time>2026-03-22T10:27:24Z</time></trkpt><trkpt lat="24.640662251661162" lon="120.8217697361875"><ele>42.0</ele><time>2026-03-22T10:27:25Z</time></trkpt><trkpt lat="24.64072361533583" lon="120.82183500841965"><ele>41.0</ele><time>2026-03-22T10:27:26Z</time></trkpt><trkpt lat="24.640783746991247" lon="120.82190000395984"><ele>40.0</ele><time>2026-03-22T10:27:27Z</time></trkpt><trkpt lat="24.640842791630007" lon="120.82196284758008"><ele>39.0</ele><time>2026-03-22T10:27:28Z</time></trkpt><trkpt lat="24.640902187337826" lon="120.82202474767192"><ele>38.0</ele><time>2026-03-22T10:27:29Z</time></trkpt><trkpt lat="24.640961452051613" lon="120.82208907504202"><ele>37.0</ele><time>2026-03-22T10:27:30Z</time></trkpt><trkpt lat="24.641022337482834" lon="120.82215096407332"><ele>37.0</ele><time>2026-03-22T10:27:31Z</time></trkpt><trkpt lat="24.641081884307834" lon="120.82221461972128"><ele>37.0</ele><time>2026-03-22T10:27:32Z</time></trkpt><trkpt lat="24.64114112525872" lon="120.82227677956062"><ele>37.0</ele><time>2026-03-22T10:27:33Z</time></trkpt><trkpt lat="24.64119767162938" lon="120.82233965602131"><ele>37.0</ele><time>2026-03-22T10:27:34Z</time></trkpt><trkpt lat="24.641253454005003" lon="120.8224007252965"><ele>37.0</ele><time>2026-03-22T10:27:35Z</time></trkpt><trkpt lat="24.641308915158426" lon="120.82246207195845"><ele>37.0</ele><time>2026-03-22T10:27:36Z</time></trkpt><trkpt lat="24.641364839523554" lon="120.82252335625647"><ele>35.833333333333336</ele><time>2026-03-22T10:27:37Z</time></trkpt><trkpt lat="24.641420874727093" lon="120.82258481632657"><ele>34.66666666666667</ele><time>2026-03-22T10:27:38Z</time></trkpt><trkpt lat="24.64147706534479" lon="120.82264482785138"><ele>33.5</ele><time>2026-03-22T10:27:39Z</time></trkpt><trkpt lat="24.64153360342943" lon="120.82270420697932"><ele>32.333333333333336</ele><time>2026-03-22T10:27:40Z</time></trkpt><trkpt lat="24.64158481180077" lon="120.82276009798942"><ele>31.166666666666668</ele><time>2026-03-22T10:27:41Z</time></trkpt><trkpt lat="24.64166357455195" lon="120.82284328301687"><ele>30.0</ele><time>2026-03-22T10:27:43Z</time></trkpt><trkpt lat="24.64172375582749" lon="120.82290837905896"><ele>30.0</ele><time>2026-03-22T10:27:45Z</time></trkpt><trkpt lat="24.64178317079104" lon="120.82297443635413"><ele>30.0</ele><time>2026-03-22T10:27:47Z</time></trkpt><trkpt lat="24.64183736737965" lon="120.82303353806412"><ele>30.0</ele><time>2026-03-22T10:27:49Z</time></trkpt><trkpt lat="24.641902142316667" lon="120.82310446074558"><ele>30.0</ele><time>2026-03-22T10:27:51Z</time></trkpt><trkpt lat="24.641970612231162" lon="120.82318247962114"><ele>30.0</ele><time>2026-03-22T10:27:53Z</time></trkpt><trkpt lat="24.642042425861653" lon="120.82326050152267"><ele>30.0</ele><time>2026-03-22T10:27:55Z</time></trkpt><trkpt lat="24.642119565770447" lon="120.82334689550521"><ele>30.0</ele><time>2026-03-22T10:27:57Z</time></trkpt><trkpt lat="24.642199915117597" lon="120.8234371495331"><ele>30.0</ele><time>2026-03-22T10:27:59Z</time></trkpt><trkpt lat="24.642244800473204" lon="120.82348705827935"><ele>30.0</ele><time>2026-03-22T10:28:00Z</time></trkpt><trkpt lat="24.642293980498756" lon="120.82354006085457"><ele>30.0</ele><time>2026-03-22T10:28:01Z</time></trkpt><trkpt lat="24.64234619947671" lon="120.82359716562526"><ele>30.0</ele><time>2026-03-22T10:28:02Z</time></trkpt><trkpt lat="24.64239557692373" lon="120.82365179656951"><ele>30.2</ele><time>2026-03-22T10:28:03Z</time></trkpt><trkpt lat="24.642441574454516" lon="120.82370169037318"><ele>30.4</ele><time>2026-03-22T10:28:04Z</time></trkpt><trkpt lat="24.642528426887562" lon="120.82379609414937"><ele>30.6</ele><time>2026-03-22T10:28:06Z</time></trkpt><trkpt lat="24.642602323356485" lon="120.82387704322389"><ele>30.8</ele><time>2026-03-22T10:28:08Z</time></trkpt><trkpt lat="24.642669505626973" lon="120.82394737087641"><ele>31.0</ele><time>2026-03-22T10:28:10Z</time></trkpt><trkpt lat="24.642731278596507" lon="120.8240154871717"><ele>31.0</ele><time>2026-03-22T10:28:12Z</time></trkpt><trkpt lat="24.64278820098733" lon="120.82407848434048"><ele>31.0</ele><time>2026-03-22T10:28:14Z</time></trkpt><trkpt lat="24.642847871231158" lon="120.82414412082397"><ele>31.0</ele><time>2026-03-22T10:28:16Z</time></trkpt><trkpt lat="24.642915277893344" lon="120.8242182009378"><ele>31.0</ele><time>2026-03-22T10:28:18Z</time></trkpt><trkpt lat="24.642988082461386" lon="120.82429827443822"><ele>31.0</ele><time>2026-03-22T10:28:20Z</time></trkpt><trkpt lat="24.64306472187804" lon="120.8243805955091"><ele>30.75</ele><time>2026-03-22T10:28:22Z</time></trkpt><trkpt lat="24.643142909821076" lon="120.82446317554785"><ele>30.5</ele><time>2026-03-22T10:28:24Z</time></trkpt><trkpt lat="24.643228807697938" lon="120.82455345554831"><ele>30.25</ele><time>2026-03-22T10:28:26Z</time></trkpt><trkpt lat="24.643318732023722" lon="120.82464798038015"><ele>30.0</ele><time>2026-03-22T10:28:28Z</time></trkpt><trkpt lat="24.643410896544655" lon="120.82474641801173"><ele>30.0</ele><time>2026-03-22T10:28:30Z</time></trkpt><trkpt lat="24.64346055416077" lon="120.82480146471221"><ele>30.0</ele><time>2026-03-22T10:28:31Z</time></trkpt><trkpt lat="24.643512137191305" lon="120.82485608385439"><ele>30.0</ele><time>2026-03-22T10:28:32Z</time></trkpt><trkpt lat="24.643569687902783" lon="120.82490164119828"><ele>30.0</ele><time>2026-03-22T10:28:33Z</time></trkpt><trkpt lat="24.643619843785846" lon="120.82496232564954"><ele>30.0</ele><time>2026-03-22T10:28:34Z</time></trkpt><trkpt lat="24.643672941408507" lon="120.8250200694787"><ele>30.0</ele><time>2026-03-22T10:28:35Z</time></trkpt><trkpt lat="24.64372690627385" lon="120.82507697130325"><ele>30.0</ele><time>2026-03-22T10:28:36Z</time></trkpt><trkpt lat="24.643781058916275" lon="120.82513427735657"><ele>29.833333333333332</ele><time>2026-03-22T10:28:37Z</time></trkpt><trkpt lat="24.64383334516481" lon="120.82519022017121"><ele>29.666666666666664</ele><time>2026-03-22T10:28:38Z</time></trkpt><trkpt lat="24.643881781650983" lon="120.82524348057933"><ele>29.5</ele><time>2026-03-22T10:28:39Z</time></trkpt><trkpt lat="24.643932232510256" lon="120.82529709648999"><ele>29.333333333333332</ele><time>2026-03-22T10:28:40Z</time></trkpt><trkpt lat="24.643984336140495" lon="120.82535427501719"><ele>29.166666666666664</ele><time>2026-03-22T10:28:41Z</time></trkpt><trkpt lat="24.644039473819912" lon="120.82541325392245"><ele>29.0</ele><time>2026-03-22T10:28:42Z</time></trkpt><trkpt lat="24.644108139133067" lon="120.82548533985756"><ele>29.0</ele><time>2026-03-22T10:28:43Z</time></trkpt><trkpt lat="24.644174888755295" lon="120.82555915122475"><ele>29.0</ele><time>2026-03-22T10:28:44Z</time></trkpt><trkpt lat="24.64424520443953" lon="120.82563454260101"><ele>29.0</ele><time>2026-03-22T10:28:45Z</time></trkpt><trkpt lat="24.644315391883893" lon="120.82571013486655"><ele>29.0</ele><time>2026-03-22T10:28:46Z</time></trkpt><trkpt lat="24.64438764216014" lon="120.82578893020167"><ele>29.0</ele><time>2026-03-22T10:28:47Z</time></trkpt><trkpt lat="24.644462877425383" lon="120.82587224933533"><ele>27.75</ele><time>2026-03-22T10:28:48Z</time></trkpt><trkpt lat="24.644540920685213" lon="120.82595553744912"><ele>26.5</ele><time>2026-03-22T10:28:49Z</time></trkpt><trkpt lat="24.64462446437685" lon="120.8260478119777"><ele>25.25</ele><time>2026-03-22T10:28:50Z</time></trkpt><trkpt lat="24.644707729300563" lon="120.82613733325589"><ele>24.0</ele><time>2026-03-22T10:28:51Z</time></trkpt><trkpt lat="24.644788878934957" lon="120.8262282715632"><ele>24.0</ele><time>2026-03-22T10:28:52Z</time></trkpt><trkpt lat="24.64487482589793" lon="120.82631647075742"><ele>24.0</ele><time>2026-03-22T10:28:53Z</time></trkpt><trkpt lat="24.644960942048705" lon="120.82640947862502"><ele>24.0</ele><time>2026-03-22T10:28:54Z</time></trkpt><trkpt lat="24.645049784470533" lon="120.82650585409134"><ele>24.0</ele><time>2026-03-22T10:28:55Z</time></trkpt><trkpt lat="24.6451436402096" lon="120.8266072119037"><ele>24.0</ele><time>2026-03-22T10:28:56Z</time></trkpt><trkpt lat="24.645233357071902" lon="120.82670787159134"><ele>24.0</ele><time>2026-03-22T10:28:57Z</time></trkpt><trkpt lat="24.645323557771405" lon="120.82680474694392"><ele>24.0</ele><time>2026-03-22T10:28:58Z</time></trkpt><trkpt lat="24.64541384773395" lon="120.82690399262299"><ele>24.0</ele><time>2026-03-22T10:28:59Z</time></trkpt><trkpt lat="24.64550237731425" lon="120.82699880037056"><ele>23.75</ele><time>2026-03-22T10:29:00Z</time></trkpt><trkpt lat="24.6455911841355" lon="120.827094179121"><ele>23.5</ele><time>2026-03-22T10:29:01Z</time></trkpt><trkpt lat="24.645678893539152" lon="120.82718652696238"><ele>23.25</ele><time>2026-03-22T10:29:02Z</time></trkpt><trkpt lat="24.645766384135786" lon="120.82728382260028"><ele>23.0</ele><time>2026-03-22T10:29:03Z</time></trkpt><trkpt lat="24.645856481994116" lon="120.82738117938872"><ele>23.0</ele><time>2026-03-22T10:29:04Z</time></trkpt><trkpt lat="24.645951110925893" lon="120.82748219080902"><ele>23.0</ele><time>2026-03-22T10:29:05Z</time></trkpt><trkpt lat="24.6460471931972" lon="120.8275908656934"><ele>23.0</ele><time>2026-03-22T10:29:06Z</time></trkpt><trkpt lat="24.646143037921554" lon="120.82769689085623"><ele>23.0</ele><time>2026-03-22T10:29:07Z</time></trkpt><trkpt lat="24.646240447200167" lon="120.82780387311531"><ele>23.5</ele><time>2026-03-22T10:29:08Z</time></trkpt><trkpt lat="24.646341930834286" lon="120.82791389368796"><ele>24.0</ele><time>2026-03-22T10:29:09Z</time></trkpt><trkpt lat="24.646447410658123" lon="120.82802587330906"><ele>24.5</ele><time>2026-03-22T10:29:10Z</time></trkpt><trkpt lat="24.646551799197415" lon="120.82814137379059"><ele>25.0</ele><time>2026-03-22T10:29:11Z</time></trkpt><trkpt lat="24.646655121633618" lon="120.82825185676589"><ele>25.0</ele><time>2026-03-22T10:29:12Z</time></trkpt><trkpt lat="24.64675758686244" lon="120.82836262541521"><ele>25.0</ele><time>2026-03-22T10:29:13Z</time></trkpt><trkpt lat="24.646861709979824" lon="120.82847467058401"><ele>25.0</ele><time>2026-03-22T10:29:14Z</time></trkpt><trkpt lat="24.646969206006535" lon="120.82858937840281"><ele>25.0</ele><time>2026-03-22T10:29:15Z</time></trkpt><trkpt lat="24.647077326829127" lon="120.82870835115499"><ele>24.333333333333336</ele><time>2026-03-22T10:29:16Z</time></trkpt><trkpt lat="24.647187482817614" lon="120.828828501792"><ele>23.666666666666668</ele><time>2026-03-22T10:29:17Z</time></trkpt><trkpt lat="24.647296920226818" lon="120.82894775223568"><ele>23.0</ele><time>2026-03-22T10:29:18Z</time></trkpt><trkpt lat="24.647404383281653" lon="120.82906559948044"><ele>23.0</ele><time>2026-03-22T10:29:19Z</time></trkpt><trkpt lat="24.647511343605622" lon="120.82918172900958"><ele>23.0</ele><time>2026-03-22T10:29:20Z</time></trkpt><trkpt lat="24.6476156829909" lon="120.8292932771416"><ele>23.0</ele><time>2026-03-22T10:29:21Z</time></trkpt><trkpt lat="24.64771897683105" lon="120.82940460427717"><ele>23.0</ele><time>2026-03-22T10:29:22Z</time></trkpt><trkpt lat="24.647820612537114" lon="120.8295138732201"><ele>24.25</ele><time>2026-03-22T10:29:23Z</time></trkpt><trkpt lat="24.647920834813903" lon="120.82962213449538"><ele>25.5</ele><time>2026-03-22T10:29:24Z</time></trkpt><trkpt lat="24.64801979911322" lon="120.82972939840776"><ele>26.75</ele><time>2026-03-22T10:29:25Z</time></trkpt><trkpt lat="24.648116991813094" lon="120.82983613261776"><ele>28.0</ele><time>2026-03-22T10:29:26Z</time></trkpt><trkpt lat="24.648212865393564" lon="120.829939684387"><ele>28.0</ele><time>2026-03-22T10:29:27Z</time></trkpt><trkpt lat="24.64830720100925" lon="120.83004347680867"><ele>28.0</ele><time>2026-03-22T10:29:28Z</time></trkpt><trkpt lat="24.648400812675106" lon="120.83014701877688"><ele>28.0</ele><time>2026-03-22T10:29:29Z</time></trkpt><trkpt lat="24.648493540433726" lon="120.83024473018598"><ele>28.0</ele><time>2026-03-22T10:29:30Z</time></trkpt><trkpt lat="24.64858475398796" lon="120.83034531887769"><ele>28.75</ele><time>2026-03-22T10:29:31Z</time></trkpt><trkpt lat="24.648674406301392" lon="120.8304445590326"><ele>29.5</ele><time>2026-03-22T10:29:32Z</time></trkpt><trkpt lat="24.648762798818176" lon="120.83054347043279"><ele>30.25</ele><time>2026-03-22T10:29:33Z</time></trkpt><trkpt lat="24.648850543390196" lon="120.8306364681679"><ele>31.0</ele><time>2026-03-22T10:29:34Z</time></trkpt><trkpt lat="24.64893527772846" lon="120.8307281249347"><ele>31.0</ele><time>2026-03-22T10:29:35Z</time></trkpt><trkpt lat="24.64901857184839" lon="120.83082087812845"><ele>31.0</ele><time>2026-03-22T10:29:36Z</time></trkpt><trkpt lat="24.64910035180275" lon="120.83090806513859"><ele>31.0</ele><time>2026-03-22T10:29:37Z</time></trkpt><trkpt lat="24.64918244210104" lon="120.83099930463275"><ele>31.0</ele><time>2026-03-22T10:29:38Z</time></trkpt><trkpt lat="24.64926461175811" lon="120.83108821964701"><ele>31.75</ele><time>2026-03-22T10:29:39Z</time></trkpt><trkpt lat="24.64934572496106" lon="120.83117574811756"><ele>32.5</ele><time>2026-03-22T10:29:40Z</time></trkpt><trkpt lat="24.64942794194847" lon="120.83126525475943"><ele>33.25</ele><time>2026-03-22T10:29:41Z</time></trkpt><trkpt lat="24.649515494872606" lon="120.83135985055354"><ele>34.0</ele><time>2026-03-22T10:29:42Z</time></trkpt><trkpt lat="24.64960409941825" lon="120.83145703095455"><ele>34.0</ele><time>2026-03-22T10:29:43Z</time></trkpt><trkpt lat="24.649695805311406" lon="120.83155657038377"><ele>34.0</ele><time>2026-03-22T10:29:44Z</time></trkpt><trkpt lat="24.649792056313203" lon="120.83166066250558"><ele>34.0</ele><time>2026-03-22T10:29:45Z</time></trkpt><trkpt lat="24.649888999761654" lon="120.8317670922162"><ele>34.0</ele><time>2026-03-22T10:29:46Z</time></trkpt><trkpt lat="24.64998598325142" lon="120.83187126553645"><ele>34.25</ele><time>2026-03-22T10:29:47Z</time></trkpt><trkpt lat="24.650085296519205" lon="120.83197841286136"><ele>34.5</ele><time>2026-03-22T10:29:48Z</time></trkpt><trkpt lat="24.650188347595474" lon="120.83209035964737"><ele>34.75</ele><time>2026-03-22T10:29:49Z</time></trkpt><trkpt lat="24.65029476421308" lon="120.83220599918515"><ele>35.0</ele><time>2026-03-22T10:29:50Z</time></trkpt><trkpt lat="24.650406993856787" lon="120.83232720532392"><ele>35.0</ele><time>2026-03-22T10:29:51Z</time></trkpt><trkpt lat="24.650522159230658" lon="120.8324504635708"><ele>35.0</ele><time>2026-03-22T10:29:52Z</time></trkpt><trkpt lat="24.650637648836543" lon="120.83257621219755"><ele>35.0</ele><time>2026-03-22T10:29:53Z</time></trkpt><trkpt lat="24.650759749176633" lon="120.83270994038298"><ele>35.0</ele><time>2026-03-22T10:29:54Z</time></trkpt><trkpt lat="24.650882782006622" lon="120.83284421268822"><ele>35.0</ele><time>2026-03-22T10:29:55Z</time></trkpt><trkpt lat="24.651006379714993" lon="120.83297596376742"><ele>35.0</ele><time>2026-03-22T10:29:56Z</time></trkpt><trkpt lat="24.651127836485887" lon="120.83310851033123"><ele>35.0</ele><time>2026-03-22T10:29:57Z</time></trkpt><trkpt lat="24.651252084474486" lon="120.83324310612029"><ele>35.0</ele><time>2026-03-22T10:29:58Z</time></trkpt><trkpt lat="24.651376146478054" lon="120.83337691807282"><ele>35.0</ele><time>2026-03-22T10:29:59Z</time></trkpt><trkpt lat="24.651499218314754" lon="120.8335110933434"><ele>35.0</ele><time>2026-03-22T10:30:00Z</time></trkpt><trkpt lat="24.651621528381625" lon="120.83364343500594"><ele>35.0</ele><time>2026-03-22T10:30:01Z</time></trkpt><trkpt lat="24.65174349320093" lon="120.83377676213861"><ele>35.0</ele><time>2026-03-22T10:30:02Z</time></trkpt><trkpt lat="24.651864139504458" lon="120.83390921753478"><ele>33.0</ele><time>2026-03-22T10:30:03Z</time></trkpt><trkpt lat="24.651984883486968" lon="120.83404055387766"><ele>31.0</ele><time>2026-03-22T10:30:04Z</time></trkpt><trkpt lat="24.65210440945604" lon="120.83416851608679"><ele>29.0</ele><time>2026-03-22T10:30:05Z</time></trkpt><trkpt lat="24.652223285200098" lon="120.83429525094913"><ele>28.333333333333332</ele><time>2026-03-22T10:30:06Z</time></trkpt><trkpt lat="24.652341470732342" lon="120.83442406964697"><ele>27.666666666666664</ele><time>2026-03-22T10:30:07Z</time></trkpt><trkpt lat="24.65245829934567" lon="120.83455138006968"><ele>27.0</ele><time>2026-03-22T10:30:08Z</time></trkpt><trkpt lat="24.652574732644585" lon="120.83467780543587"><ele>27.0</ele><time>2026-03-22T10:30:09Z</time></trkpt><trkpt lat="24.652689947904886" lon="120.83480273082115"><ele>27.0</ele><time>2026-03-22T10:30:10Z</time></trkpt><trkpt lat="24.652803117074946" lon="120.83492570992802"><ele>27.0</ele><time>2026-03-22T10:30:11Z</time></trkpt><trkpt lat="24.652910076741435" lon="120.83504158619559"><ele>26.25</ele><time>2026-03-22T10:30:12Z</time></trkpt><trkpt lat="24.653011410791397" lon="120.83515152657166"><ele>25.5</ele><time>2026-03-22T10:30:13Z</time></trkpt><trkpt lat="24.653101885258714" lon="120.83524915963541"><ele>24.75</ele><time>2026-03-22T10:30:14Z</time></trkpt><trkpt lat="24.653182848969013" lon="120.83533478286681"><ele>24.0</ele><time>2026-03-22T10:30:15Z</time></trkpt><trkpt lat="24.653257167645904" lon="120.83541289507352"><ele>24.0</ele><time>2026-03-22T10:30:16Z</time></trkpt><trkpt lat="24.653336258231384" lon="120.83550122630145"><ele>24.0</ele><time>2026-03-22T10:30:17Z</time></trkpt><trkpt lat="24.653413691868813" lon="120.83558399254777"><ele>24.0</ele><time>2026-03-22T10:30:18Z</time></trkpt><trkpt lat="24.65349166576144" lon="120.8356662767119"><ele>24.0</ele><time>2026-03-22T10:30:19Z</time></trkpt><trkpt lat="24.653570008803808" lon="120.83575247245867"><ele>24.0</ele><time>2026-03-22T10:30:20Z</time></trkpt><trkpt lat="24.65364571951879" lon="120.83583651193723"><ele>24.4</ele><time>2026-03-22T10:30:21Z</time></trkpt><trkpt lat="24.65372546133443" lon="120.83592419936308"><ele>24.799999999999997</ele><time>2026-03-22T10:30:22Z</time></trkpt><trkpt lat="24.653805127684603" lon="120.83600741465587"><ele>25.200000000000003</ele><time>2026-03-22T10:30:23Z</time></trkpt><trkpt lat="24.653886804231476" lon="120.8360919469066"><ele>25.6</ele><time>2026-03-22T10:30:24Z</time></trkpt><trkpt lat="24.653966771927188" lon="120.83617514299617"><ele>26.0</ele><time>2026-03-22T10:30:25Z</time></trkpt><trkpt lat="24.654049844389426" lon="120.83626330415377"><ele>25.0</ele><time>2026-03-22T10:30:26Z</time></trkpt><trkpt lat="24.654130913613553" lon="120.83635340626289"><ele>24.0</ele><time>2026-03-22T10:30:27Z</time></trkpt><trkpt lat="24.654209338292883" lon="120.83643769735347"><ele>23.0</ele><time>2026-03-22T10:30:28Z</time></trkpt><trkpt lat="24.65428593071547" lon="120.83652107029776"><ele>22.0</ele><time>2026-03-22T10:30:29Z</time></trkpt><trkpt lat="24.65436328709905" lon="120.83660491841295"><ele>21.0</ele><time>2026-03-22T10:30:30Z</time></trkpt><trkpt lat="24.654439495764375" lon="120.8366861295663"><ele>21.0</ele><time>2026-03-22T10:30:31Z</time></trkpt><trkpt lat="24.65451413962452" lon="120.83676695272426"><ele>21.0</ele><time>2026-03-22T10:30:32Z</time></trkpt><trkpt lat="24.65458707878921" lon="120.83684579009798"><ele>21.0</ele><time>2026-03-22T10:30:33.001Z</time></trkpt><trkpt lat="24.654660926748395" lon="120.83692514736947"><ele>21.0</ele><time>2026-03-22T10:30:34.001Z</time></trkpt><trkpt lat="24.65473639745011" lon="120.83700594526333"><ele>21.0</ele><time>2026-03-22T10:30:35.001Z</time></trkpt><trkpt lat="24.654807393209715" lon="120.83708518867755"><ele>19.2</ele><time>2026-03-22T10:30:36.001Z</time></trkpt><trkpt lat="24.65487390436436" lon="120.83715515986634"><ele>17.400000000000002</ele><time>2026-03-22T10:30:37.001Z</time></trkpt><trkpt lat="24.65494199971944" lon="120.83722859081831"><ele>15.6</ele><time>2026-03-22T10:30:38.001Z</time></trkpt><trkpt lat="24.65500648739686" lon="120.8372986165805"><ele>13.8</ele><time>2026-03-22T10:30:39.001Z</time></trkpt><trkpt lat="24.65507071743343" lon="120.8373696179448"><ele>12.0</ele><time>2026-03-22T10:30:40.001Z</time></trkpt><trkpt lat="24.65513155969357" lon="120.83743702302532"><ele>12.0</ele><time>2026-03-22T10:30:41.001Z</time></trkpt><trkpt lat="24.655191923794238" lon="120.83750239661533"><ele>12.0</ele><time>2026-03-22T10:30:42.001Z</time></trkpt><trkpt lat="24.655254997604303" lon="120.83756816949692"><ele>12.0</ele><time>2026-03-22T10:30:43.001Z</time></trkpt><trkpt lat="24.6553174306198" lon="120.83763547880409"><ele>12.0</ele><time>2026-03-22T10:30:44.001Z</time></trkpt><trkpt lat="24.655381596297083" lon="120.83770407751105"><ele>12.0</ele><time>2026-03-22T10:30:45.001Z</time></trkpt><trkpt lat="24.65544405791627" lon="120.83777355946584"><ele>12.0</ele><time>2026-03-22T10:30:46.001Z</time></trkpt><trkpt lat="24.655509367234895" lon="120.83784174084755"><ele>13.8</ele><time>2026-03-22T10:30:47.001Z</time></trkpt><trkpt lat="24.655577011457986" lon="120.83791205192004"><ele>15.6</ele><time>2026-03-22T10:30:48.001Z</time></trkpt><trkpt lat="24.655645738857057" lon="120.83798645186938"><ele>17.400000000000002</ele><time>2026-03-22T10:30:49.001Z</time></trkpt><trkpt lat="24.655715936645247" lon="120.83806208577712"><ele>19.2</ele><time>2026-03-22T10:30:50.001Z</time></trkpt><trkpt lat="24.655786526333912" lon="120.8381364837544"><ele>21.0</ele><time>2026-03-22T10:30:51.001Z</time></trkpt><trkpt lat="24.65585912033981" lon="120.83821354758449"><ele>21.0</ele><time>2026-03-22T10:30:52.001Z</time></trkpt><trkpt lat="24.655933950022266" lon="120.83829305865208"><ele>21.0</ele><time>2026-03-22T10:30:53.001Z</time></trkpt><trkpt lat="24.656009240395846" lon="120.83837652917886"><ele>21.0</ele><time>2026-03-22T10:30:54.001Z</time></trkpt><trkpt lat="24.656079593155834" lon="120.83844948952921"><ele>21.0</ele><time>2026-03-22T10:30:55.001Z</time></trkpt><trkpt lat="24.656147625156198" lon="120.83852419626837"><ele>21.0</ele><time>2026-03-22T10:30:56.001Z</time></trkpt><trkpt lat="24.656210214635884" lon="120.83859363205394"><ele>20.666666666666668</ele><time>2026-03-22T10:30:57.001Z</time></trkpt><trkpt lat="24.65627344964777" lon="120.83866455339323"><ele>20.333333333333332</ele><time>2026-03-22T10:30:58.001Z</time></trkpt><trkpt lat="24.656334168396228" lon="120.83873072900148"><ele>20.0</ele><time>2026-03-22T10:30:59.001Z</time></trkpt><trkpt lat="24.65638932054895" lon="120.83878381476383"><ele>19.666666666666664</ele><time>2026-03-22T10:31:00.001Z</time></trkpt><trkpt lat="24.656446150868224" lon="120.8388426575144"><ele>19.333333333333332</ele><time>2026-03-22T10:31:01.001Z</time></trkpt><trkpt lat="24.65650345908026" lon="120.83890184368202"><ele>19.0</ele><time>2026-03-22T10:31:02.001Z</time></trkpt><trkpt lat="24.656562109681374" lon="120.8389632880141"><ele>19.0</ele><time>2026-03-22T10:31:03.001Z</time></trkpt><trkpt lat="24.65662320191768" lon="120.83902798045584"><ele>19.0</ele><time>2026-03-22T10:31:04.001Z</time></trkpt><trkpt lat="24.656685363473017" lon="120.83909287848392"><ele>19.0</ele><time>2026-03-22T10:31:05.001Z</time></trkpt><trkpt lat="24.65674738690627" lon="120.83915776798881"><ele>19.0</ele><time>2026-03-22T10:31:06.001Z</time></trkpt><trkpt lat="24.656809409558416" lon="120.83922233851976"><ele>19.0</ele><time>2026-03-22T10:31:07.001Z</time></trkpt><trkpt lat="24.65687273359146" lon="120.83928822319275"><ele>19.0</ele><time>2026-03-22T10:31:08.001Z</time></trkpt><trkpt lat="24.65693453739147" lon="120.83935479584436"><ele>20.2</ele><time>2026-03-22T10:31:09.001Z</time></trkpt><trkpt lat="24.657002550780476" lon="120.83942526121812"><ele>21.4</ele><time>2026-03-22T10:31:10.001Z</time></trkpt><trkpt lat="24.65706963631538" lon="120.8394954576191"><ele>22.6</ele><time>2026-03-22T10:31:11.001Z</time></trkpt><trkpt lat="24.657140124562606" lon="120.8395675095082"><ele>23.8</ele><time>2026-03-22T10:31:12.001Z</time></trkpt><trkpt lat="24.657208103413556" lon="120.83963518503975"><ele>25.0</ele><time>2026-03-22T10:31:13.001Z</time></trkpt><trkpt lat="24.657276365034857" lon="120.83970464922227"><ele>25.0</ele><time>2026-03-22T10:31:14.001Z</time></trkpt><trkpt lat="24.657344909470915" lon="120.83977440191501"><ele>25.0</ele><time>2026-03-22T10:31:15.001Z</time></trkpt><trkpt lat="24.657412232680716" lon="120.83984167083126"><ele>25.0</ele><time>2026-03-22T10:31:16.001Z</time></trkpt><trkpt lat="24.657481922902946" lon="120.83991143918587"><ele>25.0</ele><time>2026-03-22T10:31:17.001Z</time></trkpt><trkpt lat="24.65755290119068" lon="120.83998175450128"><ele>25.0</ele><time>2026-03-22T10:31:18.001Z</time></trkpt><trkpt lat="24.657624971934943" lon="120.8400521316759"><ele>25.0</ele><time>2026-03-22T10:31:19.001Z</time></trkpt><trkpt lat="24.657698110036208" lon="120.84012572084491"><ele>25.0</ele><time>2026-03-22T10:31:20.001Z</time></trkpt><trkpt lat="24.657772826874965" lon="120.84019966322408"><ele>25.0</ele><time>2026-03-22T10:31:21.001Z</time></trkpt><trkpt lat="24.65785277336502" lon="120.84027575943861"><ele>25.0</ele><time>2026-03-22T10:31:22.001Z</time></trkpt><trkpt lat="24.65793278423847" lon="120.84035641204228"><ele>25.0</ele><time>2026-03-22T10:31:23.001Z</time></trkpt><trkpt lat="24.658013806757236" lon="120.84043679789039"><ele>25.0</ele><time>2026-03-22T10:31:24.001Z</time></trkpt><trkpt lat="24.658096054621986" lon="120.84051967477336"><ele>25.0</ele><time>2026-03-22T10:31:25.001Z</time></trkpt><trkpt lat="24.65818104319605" lon="120.84060623995495"><ele>25.0</ele><time>2026-03-22T10:31:26.001Z</time></trkpt><trkpt lat="24.65827086255423" lon="120.84069558981123"><ele>25.0</ele><time>2026-03-22T10:31:27.001Z</time></trkpt><trkpt lat="24.658365020299467" lon="120.84078624958634"><ele>25.0</ele><time>2026-03-22T10:31:28.001Z</time></trkpt><trkpt lat="24.658465112801384" lon="120.84088298899263"><ele>25.0</ele><time>2026-03-22T10:31:29.001Z</time></trkpt><trkpt lat="24.658564042648365" lon="120.8409802011698"><ele>25.0</ele><time>2026-03-22T10:31:30.001Z</time></trkpt><trkpt lat="24.658660411269857" lon="120.84106919420827"><ele>25.0</ele><time>2026-03-22T10:31:31.001Z</time></trkpt><trkpt lat="24.65875545783678" lon="120.84115513875457"><ele>27.0</ele><time>2026-03-22T10:31:32.001Z</time></trkpt><trkpt lat="24.658851734908577" lon="120.84124085739847"><ele>29.0</ele><time>2026-03-22T10:31:33.001Z</time></trkpt><trkpt lat="24.658944145269686" lon="120.84132482200044"><ele>31.0</ele><time>2026-03-22T10:31:34.001Z</time></trkpt><trkpt lat="24.659034746189782" lon="120.84140801112676"><ele>33.0</ele><time>2026-03-22T10:31:35.001Z</time></trkpt><trkpt lat="24.65912594530297" lon="120.84149046012278"><ele>33.0</ele><time>2026-03-22T10:31:36.001Z</time></trkpt><trkpt lat="24.659211948031736" lon="120.84156614763951"><ele>33.0</ele><time>2026-03-22T10:31:37.001Z</time></trkpt><trkpt lat="24.6592930770043" lon="120.84163844869187"><ele>33.0</ele><time>2026-03-22T10:31:38.001Z</time></trkpt><trkpt lat="24.659370916629317" lon="120.84170698945424"><ele>33.0</ele><time>2026-03-22T10:31:39.001Z</time></trkpt><trkpt lat="24.65944740220905" lon="120.84177410452395"><ele>33.0</ele><time>2026-03-22T10:31:40.001Z</time></trkpt><trkpt lat="24.659519126899482" lon="120.84183619599888"><ele>32.6</ele><time>2026-03-22T10:31:41.001Z</time></trkpt><trkpt lat="24.65959051405888" lon="120.84190164147932"><ele>32.199999999999996</ele><time>2026-03-22T10:31:42.001Z</time></trkpt><trkpt lat="24.659663919948134" lon="120.84196774320098"><ele>31.8</ele><time>2026-03-22T10:31:43.001Z</time></trkpt><trkpt lat="24.659738975169695" lon="120.8420327121762"><ele>31.4</ele><time>2026-03-22T10:31:44.001Z</time></trkpt><trkpt lat="24.659818188634596" lon="120.84210260136491"><ele>31.0</ele><time>2026-03-22T10:31:45.001Z</time></trkpt><trkpt lat="24.659896762369" lon="120.84217065533744"><ele>31.0</ele><time>2026-03-22T10:31:46.001Z</time></trkpt><trkpt lat="24.659980929438312" lon="120.84223964223871"><ele>31.0</ele><time>2026-03-22T10:31:47.001Z</time></trkpt><trkpt lat="24.660069225673595" lon="120.8423120049036"><ele>31.0</ele><time>2026-03-22T10:31:48.001Z</time></trkpt><trkpt lat="24.660151010633896" lon="120.8423856739355"><ele>31.0</ele><time>2026-03-22T10:31:49.001Z</time></trkpt><trkpt lat="24.660234420622462" lon="120.84246108164939"><ele>31.0</ele><time>2026-03-22T10:31:50.001Z</time></trkpt><trkpt lat="24.66032044312163" lon="120.84253613044729"><ele>25.25</ele><time>2026-03-22T10:31:51.001Z</time></trkpt><trkpt lat="24.66041581717075" lon="120.84260713368081"><ele>19.5</ele><time>2026-03-22T10:31:52.001Z</time></trkpt><trkpt lat="24.66052024918367" lon="120.8426832112407"><ele>13.75</ele><time>2026-03-22T10:31:53.001Z</time></trkpt><trkpt lat="24.66062843242781" lon="120.84276686634209"><ele>8.0</ele><time>2026-03-22T10:31:54.001Z</time></trkpt><trkpt lat="24.66073296066927" lon="120.84284701378152"><ele>6.25</ele><time>2026-03-22T10:31:55.001Z</time></trkpt><trkpt lat="24.66083339799605" lon="120.84292243464304"><ele>4.5</ele><time>2026-03-22T10:31:56.001Z</time></trkpt><trkpt lat="24.660930025981447" lon="120.84300165197573"><ele>2.75</ele><time>2026-03-22T10:31:57.001Z</time></trkpt><trkpt lat="24.661030951186248" lon="120.84308238537207"><ele>1.0</ele><time>2026-03-22T10:31:58.001Z</time></trkpt><trkpt lat="24.66113565775819" lon="120.84316132117291"><ele>0.75</ele><time>2026-03-22T10:31:59.001Z</time></trkpt><trkpt lat="24.661241541441793" lon="120.84324155346638"><ele>0.5</ele><time>2026-03-22T10:32:00.001Z</time></trkpt><trkpt lat="24.661349634344827" lon="120.84332314430785"><ele>0.25</ele><time>2026-03-22T10:32:01.001Z</time></trkpt><trkpt lat="24.66145817893708" lon="120.84340411669365"><ele>0.0</ele><time>2026-03-22T10:32:02.001Z</time></trkpt><trkpt lat="24.661568145339135" lon="120.8434849588438"><ele>0.0</ele><time>2026-03-22T10:32:03.001Z</time></trkpt><trkpt lat="24.661679691613767" lon="120.84356195397531"><ele>0.0</ele><time>2026-03-22T10:32:04.001Z</time></trkpt><trkpt lat="24.661791771331306" lon="120.84363959890499"><ele>0.0</ele><time>2026-03-22T10:32:05.001Z</time></trkpt><trkpt lat="24.661902786756173" lon="120.84371239321167"><ele>0.0</ele><time>2026-03-22T10:32:06.001Z</time></trkpt><trkpt lat="24.66200960760762" lon="120.8437840615623"><ele>0.0</ele><time>2026-03-22T10:32:07.001Z</time></trkpt><trkpt lat="24.66211406786252" lon="120.84385153498688"><ele>0.0</ele><time>2026-03-22T10:32:08.001Z</time></trkpt><trkpt lat="24.662217223598326" lon="120.84391435721183"><ele>0.0</ele><time>2026-03-22T10:32:09.001Z</time></trkpt><trkpt lat="24.662304204491534" lon="120.84397152176223"><ele>0.0</ele><time>2026-03-22T10:32:10.001Z</time></trkpt><trkpt lat="24.66238914813689" lon="120.84402585900948"><ele>0.0</ele><time>2026-03-22T10:32:11.001Z</time></trkpt><trkpt lat="24.662476336627506" lon="120.84408256259063"><ele>0.0</ele><time>2026-03-22T10:32:12.001Z</time></trkpt><trkpt lat="24.66256823772905" lon="120.84413783277215"><ele>0.0</ele><time>2026-03-22T10:32:13.001Z</time></trkpt><trkpt lat="24.66265568937097" lon="120.8441896962619"><ele>0.0</ele><time>2026-03-22T10:32:14.001Z</time></trkpt><trkpt lat="24.66273953863836" lon="120.84424258926244"><ele>0.0</ele><time>2026-03-22T10:32:15.001Z</time></trkpt><trkpt lat="24.66282311000259" lon="120.84429339714781"><ele>0.0</ele><time>2026-03-22T10:32:16.001Z</time></trkpt><trkpt lat="24.662908512090645" lon="120.84434494369786"><ele>0.6</ele><time>2026-03-22T10:32:17.001Z</time></trkpt><trkpt lat="24.662994587503608" lon="120.84439230430276"><ele>1.2</ele><time>2026-03-22T10:32:18.001Z</time></trkpt><trkpt lat="24.663076618097207" lon="120.84444134320759"><ele>1.7999999999999998</ele><time>2026-03-22T10:32:19.001Z</time></trkpt><trkpt lat="24.663161159957124" lon="120.84448832803129"><ele>2.4</ele><time>2026-03-22T10:32:20.001Z</time></trkpt><trkpt lat="24.663241656441954" lon="120.844541896015"><ele>3.0</ele><time>2026-03-22T10:32:21.001Z</time></trkpt><trkpt lat="24.663322337157403" lon="120.84458735095748"><ele>3.0</ele><time>2026-03-22T10:32:22.001Z</time></trkpt><trkpt lat="24.663407565454047" lon="120.8446344798827"><ele>3.0</ele><time>2026-03-22T10:32:23.001Z</time></trkpt><trkpt lat="24.6634857919208" lon="120.84467777648402"><ele>3.0</ele><time>2026-03-22T10:32:24.001Z</time></trkpt><trkpt lat="24.66356465267236" lon="120.84472033697061"><ele>3.0</ele><time>2026-03-22T10:32:25.001Z</time></trkpt><trkpt lat="24.66364260894519" lon="120.8447599044204"><ele>3.0</ele><time>2026-03-22T10:32:26.001Z</time></trkpt><trkpt lat="24.66372230720883" lon="120.8448014869977"><ele>3.0</ele><time>2026-03-22T10:32:27.001Z</time></trkpt><trkpt lat="24.663800720537974" lon="120.84484239868235"><ele>2.6666666666666665</ele><time>2026-03-22T10:32:28.001Z</time></trkpt><trkpt lat="24.663881568832533" lon="120.84488516132032"><ele>2.3333333333333335</ele><time>2026-03-22T10:32:29.001Z</time></trkpt><trkpt lat="24.663963116335502" lon="120.84492800557057"><ele>2.0</ele><time>2026-03-22T10:32:30.001Z</time></trkpt><trkpt lat="24.664044353216592" lon="120.84496958167179"><ele>1.6666666666666665</ele><time>2026-03-22T10:32:31.001Z</time></trkpt><trkpt lat="24.664120723501792" lon="120.84500927452584"><ele>1.3333333333333333</ele><time>2026-03-22T10:32:32.001Z</time></trkpt><trkpt lat="24.66419667723484" lon="120.84504910607909"><ele>1.0</ele><time>2026-03-22T10:32:33.001Z</time></trkpt><trkpt lat="24.664274536399635" lon="120.84509035595302"><ele>0.6666666666666666</ele><time>2026-03-22T10:32:34.001Z</time></trkpt><trkpt lat="24.664356379284353" lon="120.8451324750612"><ele>0.3333333333333333</ele><time>2026-03-22T10:32:35.001Z</time></trkpt><trkpt lat="24.664436299064366" lon="120.84517264970651"><ele>0.0</ele><time>2026-03-22T10:32:36.001Z</time></trkpt><trkpt lat="24.664518455374296" lon="120.84521390202322"><ele>-0.3333333333333333</ele><time>2026-03-22T10:32:37.001Z</time></trkpt><trkpt lat="24.664600860740922" lon="120.84525474406433"><ele>-0.6666666666666666</ele><time>2026-03-22T10:32:38.001Z</time></trkpt><trkpt lat="24.664679610423757" lon="120.84529478931839"><ele>-1.0</ele><time>2026-03-22T10:32:39.001Z</time></trkpt><trkpt lat="24.664757414378503" lon="120.84533174853694"><ele>1.1102230246251565E-16</ele><time>2026-03-22T10:32:40.001Z</time></trkpt><trkpt lat="24.664835960012883" lon="120.8453686486825"><ele>1.0</ele><time>2026-03-22T10:32:41.001Z</time></trkpt><trkpt lat="24.664914852449563" lon="120.84540587925156"><ele>2.0</ele><time>2026-03-22T10:32:42.001Z</time></trkpt><trkpt lat="24.66499527699826" lon="120.8454415691927"><ele>3.0</ele><time>2026-03-22T10:32:43.001Z</time></trkpt><trkpt lat="24.66507908027836" lon="120.84547375770252"><ele>4.0</ele><time>2026-03-22T10:32:44.001Z</time></trkpt><trkpt lat="24.66515609772215" lon="120.84550648173013"><ele>5.0</ele><time>2026-03-22T10:32:45.001Z</time></trkpt><trkpt lat="24.665232102197614" lon="120.84553916337235"><ele>4.333333333333334</ele><time>2026-03-22T10:32:46.001Z</time></trkpt><trkpt lat="24.665309263007934" lon="120.84557450929515"><ele>3.666666666666667</ele><time>2026-03-22T10:32:47.001Z</time></trkpt><trkpt lat="24.665387452275016" lon="120.8456075758757"><ele>3.0</ele><time>2026-03-22T10:32:48.001Z</time></trkpt><trkpt lat="24.665462565708356" lon="120.84564479719829"><ele>2.3333333333333335</ele><time>2026-03-22T10:32:49.001Z</time></trkpt><trkpt lat="24.665543602555978" lon="120.84567918625929"><ele>1.6666666666666665</ele><time>2026-03-22T10:32:50.001Z</time></trkpt><trkpt lat="24.665629410902376" lon="120.84570683323126"><ele>1.0</ele><time>2026-03-22T10:32:51.001Z</time></trkpt><trkpt lat="24.665722409176063" lon="120.8457449234241"><ele>1.0</ele><time>2026-03-22T10:32:52.001Z</time></trkpt><trkpt lat="24.66581757058738" lon="120.84578636851333"><ele>1.0</ele><time>2026-03-22T10:32:53.001Z</time></trkpt><trkpt lat="24.665915171936224" lon="120.84582606018431"><ele>1.0</ele><time>2026-03-22T10:32:54.001Z</time></trkpt><trkpt lat="24.666013182344525" lon="120.84586539562522"><ele>1.0</ele><time>2026-03-22T10:32:55.001Z</time></trkpt><trkpt lat="24.66611430946354" lon="120.84590578518944"><ele>1.0</ele><time>2026-03-22T10:32:56.001Z</time></trkpt><trkpt lat="24.666217198960283" lon="120.84594563384435"><ele>1.0</ele><time>2026-03-22T10:32:57.001Z</time></trkpt><trkpt lat="24.666314722916514" lon="120.84598562812458"><ele>1.0</ele><time>2026-03-22T10:32:58.001Z</time></trkpt><trkpt lat="24.66641505877097" lon="120.84602588453563"><ele>1.0</ele><time>2026-03-22T10:32:59.001Z</time></trkpt><trkpt lat="24.666512773945144" lon="120.84606573299104"><ele>1.0</ele><time>2026-03-22T10:33:00.001Z</time></trkpt><trkpt lat="24.666610739416292" lon="120.84610317591317"><ele>1.0</ele><time>2026-03-22T10:33:01.001Z</time></trkpt><trkpt lat="24.666707328737992" lon="120.84613740144145"><ele>1.0</ele><time>2026-03-22T10:33:02.001Z</time></trkpt><trkpt lat="24.666804292984363" lon="120.84617299051683"><ele>1.0</ele><time>2026-03-22T10:33:03.001Z</time></trkpt><trkpt lat="24.666897302462523" lon="120.84620671764237"><ele>1.0</ele><time>2026-03-22T10:33:04.001Z</time></trkpt><trkpt lat="24.666992103511134" lon="120.84624061177894"><ele>1.0</ele><time>2026-03-22T10:33:05.001Z</time></trkpt><trkpt lat="24.66708219228059" lon="120.84627016611793"><ele>1.0</ele><time>2026-03-22T10:33:06.001Z</time></trkpt><trkpt lat="24.667167658404747" lon="120.8462981951007"><ele>1.1666666666666665</ele><time>2026-03-22T10:33:07.001Z</time></trkpt><trkpt lat="24.667241296810406" lon="120.84632362118758"><ele>1.3333333333333333</ele><time>2026-03-22T10:33:08.001Z</time></trkpt><trkpt lat="24.667308800435862" lon="120.84634591799069"><ele>1.5</ele><time>2026-03-22T10:33:09.001Z</time></trkpt><trkpt lat="24.667372606593304" lon="120.8463674822845"><ele>1.6666666666666665</ele><time>2026-03-22T10:33:10.001Z</time></trkpt><trkpt lat="24.667483096216667" lon="120.84640715696753"><ele>1.8333333333333333</ele><time>2026-03-22T10:33:12.001Z</time></trkpt><trkpt lat="24.667593111386" lon="120.84644569662949"><ele>2.0</ele><time>2026-03-22T10:33:14.001Z</time></trkpt><trkpt lat="24.667696825789882" lon="120.84647546627463"><ele>1.6666666666666665</ele><time>2026-03-22T10:33:16.001Z</time></trkpt><trkpt lat="24.667790508977873" lon="120.84650412545352"><ele>1.3333333333333333</ele><time>2026-03-22T10:33:18.001Z</time></trkpt><trkpt lat="24.66788632480731" lon="120.84653112915531"><ele>1.0</ele><time>2026-03-22T10:33:20.001Z</time></trkpt><trkpt lat="24.667963931261173" lon="120.84655698612613"><ele>0.6666666666666666</ele><time>2026-03-22T10:33:22.001Z</time></trkpt><trkpt lat="24.6680252734044" lon="120.84657514696744"><ele>0.3333333333333333</ele><time>2026-03-22T10:33:25.001Z</time></trkpt><trkpt lat="24.66811174921193" lon="120.84659693644915"><ele>0.0</ele><time>2026-03-22T10:33:29.001Z</time></trkpt><trkpt lat="24.668184015747265" lon="120.84661774629024"><ele>0.0</ele><time>2026-03-22T10:33:31.001Z</time></trkpt><trkpt lat="24.66826868652041" lon="120.84664094975415"><ele>0.0</ele><time>2026-03-22T10:33:33.001Z</time></trkpt><trkpt lat="24.66835970063121" lon="120.84666893123284"><ele>0.0</ele><time>2026-03-22T10:33:35.001Z</time></trkpt><trkpt lat="24.66845982918629" lon="120.84669848766718"><ele>0.0</ele><time>2026-03-22T10:33:37.001Z</time></trkpt><trkpt lat="24.668546333224096" lon="120.84672982616183"><ele>0.0</ele><time>2026-03-22T10:33:39.001Z</time></trkpt><trkpt lat="24.668655916028307" lon="120.84675458329357"><ele>0.2857142857142857</ele><time>2026-03-22T10:33:41.001Z</time></trkpt><trkpt lat="24.668721134356808" lon="120.84676620307897"><ele>0.5714285714285714</ele><time>2026-03-22T10:33:42.001Z</time></trkpt><trkpt lat="24.668787947983066" lon="120.84678125423223"><ele>0.8571428571428571</ele><time>2026-03-22T10:33:43.001Z</time></trkpt><trkpt lat="24.668854548596652" lon="120.84679525590192"><ele>1.1428571428571428</ele><time>2026-03-22T10:33:44.001Z</time></trkpt><trkpt lat="24.668921559627343" lon="120.84680926673911"><ele>1.4285714285714284</ele><time>2026-03-22T10:33:45.001Z</time></trkpt><trkpt lat="24.66899493832302" lon="120.84682668851825"><ele>1.7142857142857142</ele><time>2026-03-22T10:33:46.001Z</time></trkpt><trkpt lat="24.66907518492274" lon="120.84684725934189"><ele>2.0</ele><time>2026-03-22T10:33:47.001Z</time></trkpt><trkpt lat="24.66915853709018" lon="120.84686682081194"><ele>2.0</ele><time>2026-03-22T10:33:48.001Z</time></trkpt><trkpt lat="24.669250929883024" lon="120.84688889043399"><ele>2.0</ele><time>2026-03-22T10:33:49.001Z</time></trkpt><trkpt lat="24.669349047732403" lon="120.84691142303951"><ele>2.0</ele><time>2026-03-22T10:33:50.001Z</time></trkpt><trkpt lat="24.66944870820892" lon="120.84693435556342"><ele>2.0</ele><time>2026-03-22T10:33:51.001Z</time></trkpt><trkpt lat="24.669549003251355" lon="120.84695587976798"><ele>2.0</ele><time>2026-03-22T10:33:52.001Z</time></trkpt><trkpt lat="24.669652198510956" lon="120.84698270325073"><ele>2.0</ele><time>2026-03-22T10:33:53.001Z</time></trkpt><trkpt lat="24.669757499299166" lon="120.84701055425948"><ele>2.0</ele><time>2026-03-22T10:33:54.001Z</time></trkpt><trkpt lat="24.669871235419333" lon="120.84703558030438"><ele>2.0</ele><time>2026-03-22T10:33:55.001Z</time></trkpt><trkpt lat="24.669987794093167" lon="120.8470638239832"><ele>2.0</ele><time>2026-03-22T10:33:56.001Z</time></trkpt><trkpt lat="24.670106193857826" lon="120.84708790629116"><ele>2.0</ele><time>2026-03-22T10:33:57.001Z</time></trkpt><trkpt lat="24.67023442071004" lon="120.84711512768327"><ele>2.0</ele><time>2026-03-22T10:33:58.001Z</time></trkpt><trkpt lat="24.670364355474586" lon="120.84714051335092"><ele>2.0</ele><time>2026-03-22T10:33:59.001Z</time></trkpt><trkpt lat="24.670499420415723" lon="120.84716754960449"><ele>2.0</ele><time>2026-03-22T10:34:00.001Z</time></trkpt><trkpt lat="24.67063677458023" lon="120.8472000306099"><ele>2.25</ele><time>2026-03-22T10:34:01.001Z</time></trkpt><trkpt lat="24.670772821242963" lon="120.8472248832902"><ele>2.5</ele><time>2026-03-22T10:34:02.001Z</time></trkpt><trkpt lat="24.67091596955334" lon="120.84725326562442"><ele>2.75</ele><time>2026-03-22T10:34:03.001Z</time></trkpt><trkpt lat="24.67106723714306" lon="120.84727919107016"><ele>3.0</ele><time>2026-03-22T10:34:04.001Z</time></trkpt><trkpt lat="24.67122439789279" lon="120.84729641190047"><ele>3.0</ele><time>2026-03-22T10:34:05.001Z</time></trkpt><trkpt lat="24.671389089413534" lon="120.8473145403786"><ele>3.0</ele><time>2026-03-22T10:34:06.001Z</time></trkpt><trkpt lat="24.671556473515164" lon="120.84733201139495"><ele>3.0</ele><time>2026-03-22T10:34:07.001Z</time></trkpt><trkpt lat="24.67172242902503" lon="120.84734918089478"><ele>3.0</ele><time>2026-03-22T10:34:08.001Z</time></trkpt><trkpt lat="24.671883520551404" lon="120.84736570467973"><ele>3.0</ele><time>2026-03-22T10:34:09.001Z</time></trkpt><trkpt lat="24.672043925183218" lon="120.84738125686945"><ele>3.0</ele><time>2026-03-22T10:34:10.001Z</time></trkpt><trkpt lat="24.672204385110255" lon="120.84739655497089"><ele>3.0</ele><time>2026-03-22T10:34:11.001Z</time></trkpt><trkpt lat="24.672361466570162" lon="120.84740593734563"><ele>3.0</ele><time>2026-03-22T10:34:12.001Z</time></trkpt><trkpt lat="24.672517115625183" lon="120.84741663129878"><ele>3.0</ele><time>2026-03-22T10:34:13.001Z</time></trkpt><trkpt lat="24.672673800643445" lon="120.84742580416014"><ele>4.333333333333334</ele><time>2026-03-22T10:34:14.001Z</time></trkpt><trkpt lat="24.672828443758583" lon="120.84743378167494"><ele>5.666666666666667</ele><time>2026-03-22T10:34:15.001Z</time></trkpt><trkpt lat="24.672979311821752" lon="120.84743826701282"><ele>7.0</ele><time>2026-03-22T10:34:16.001Z</time></trkpt><trkpt lat="24.673130682700346" lon="120.8474439728351"><ele>7.0</ele><time>2026-03-22T10:34:17.001Z</time></trkpt><trkpt lat="24.673279139881252" lon="120.84744862328851"><ele>7.0</ele><time>2026-03-22T10:34:18.001Z</time></trkpt><trkpt lat="24.673424393496443" lon="120.84745197071578"><ele>7.0</ele><time>2026-03-22T10:34:19.001Z</time></trkpt><trkpt lat="24.673567022182837" lon="120.84745489033284"><ele>7.0</ele><time>2026-03-22T10:34:20.001Z</time></trkpt><trkpt lat="24.673699505820643" lon="120.84745784631657"><ele>6.3999999999999995</ele><time>2026-03-22T10:34:21.001Z</time></trkpt><trkpt lat="24.673819214448663" lon="120.847460532468"><ele>5.799999999999999</ele><time>2026-03-22T10:34:22.001Z</time></trkpt><trkpt lat="24.673930820985067" lon="120.84746058476543"><ele>5.2</ele><time>2026-03-22T10:34:23.001Z</time></trkpt><trkpt lat="24.67403119183692" lon="120.84746290185616"><ele>4.6</ele><time>2026-03-22T10:34:24.001Z</time></trkpt><trkpt lat="24.674120944597654" lon="120.84746070431657"><ele>4.0</ele><time>2026-03-22T10:34:25.001Z</time></trkpt><trkpt lat="24.674204200225486" lon="120.84746036468178"><ele>4.0</ele><time>2026-03-22T10:34:26.001Z</time></trkpt><trkpt lat="24.674279703125244" lon="120.84746282030126"><ele>3.9999999999999996</ele><time>2026-03-22T10:34:27.001Z</time></trkpt><trkpt lat="24.67435353062268" lon="120.84746317332609"><ele>4.0</ele><time>2026-03-22T10:34:28.001Z</time></trkpt><trkpt lat="24.6744239711416" lon="120.84746222440704"><ele>4.0</ele><time>2026-03-22T10:34:29.001Z</time></trkpt><trkpt lat="24.6744937951628" lon="120.84746176770653"><ele>3.9999999999999996</ele><time>2026-03-22T10:34:30.001Z</time></trkpt><trkpt lat="24.674563910730214" lon="120.8474595738274"><ele>4.0</ele><time>2026-03-22T10:34:31.001Z</time></trkpt><trkpt lat="24.67463193225028" lon="120.84745696205701"><ele>4.0</ele><time>2026-03-22T10:34:32.001Z</time></trkpt><trkpt lat="24.674700479582626" lon="120.84745475021609"><ele>3.8571428571428568</ele><time>2026-03-22T10:34:33.001Z</time></trkpt><trkpt lat="24.67476672245701" lon="120.84745257668557"><ele>3.714285714285714</ele><time>2026-03-22T10:34:34.001Z</time></trkpt><trkpt lat="24.67483380513458" lon="120.84745163541272"><ele>3.571428571428571</ele><time>2026-03-22T10:34:35.001Z</time></trkpt><trkpt lat="24.67490013104396" lon="120.84745011111853"><ele>3.4285714285714284</ele><time>2026-03-22T10:34:36.001Z</time></trkpt><trkpt lat="24.674964008290395" lon="120.84744770495274"><ele>3.2857142857142856</ele><time>2026-03-22T10:34:37.001Z</time></trkpt><trkpt lat="24.675028998345013" lon="120.84744494209669"><ele>3.1428571428571423</ele><time>2026-03-22T10:34:38.001Z</time></trkpt><trkpt lat="24.67509320554432" lon="120.84744145498857"><ele>3.0</ele><time>2026-03-22T10:34:39.001Z</time></trkpt><trkpt lat="24.675157231401425" lon="120.847437988771"><ele>2.9999999999999996</ele><time>2026-03-22T10:34:40.001Z</time></trkpt><trkpt lat="24.675225175966407" lon="120.8474340942444"><ele>3.0</ele><time>2026-03-22T10:34:41.001Z</time></trkpt><trkpt lat="24.67529735217447" lon="120.84742888923108"><ele>3.0</ele><time>2026-03-22T10:34:42.001Z</time></trkpt><trkpt lat="24.6753691539472" lon="120.8474241646713"><ele>3.0</ele><time>2026-03-22T10:34:43.001Z</time></trkpt><trkpt lat="24.675439976870443" lon="120.84741984014269"><ele>3.0</ele><time>2026-03-22T10:34:44.001Z</time></trkpt><trkpt lat="24.675506811051914" lon="120.84741660963944"><ele>2.9999999999999996</ele><time>2026-03-22T10:34:45.001Z</time></trkpt><trkpt lat="24.675572611051816" lon="120.84741181986148"><ele>3.0</ele><time>2026-03-22T10:34:46.001Z</time></trkpt><trkpt lat="24.675642386307885" lon="120.84740663080613"><ele>3.3333333333333335</ele><time>2026-03-22T10:34:47.001Z</time></trkpt><trkpt lat="24.675718957392053" lon="120.84740063571294"><ele>3.666666666666667</ele><time>2026-03-22T10:34:48.001Z</time></trkpt><trkpt lat="24.67579693155829" lon="120.84739644219898"><ele>4.0</ele><time>2026-03-22T10:34:49.001Z</time></trkpt><trkpt lat="24.675872360726547" lon="120.84739251447594"><ele>4.333333333333334</ele><time>2026-03-22T10:34:50.001Z</time></trkpt><trkpt lat="24.675947514121383" lon="120.84738828588728"><ele>4.666666666666667</ele><time>2026-03-22T10:34:51.001Z</time></trkpt><trkpt lat="24.67602334394854" lon="120.84738372541933"><ele>5.0</ele><time>2026-03-22T10:34:52.001Z</time></trkpt><trkpt lat="24.676095079301422" lon="120.8473792765245"><ele>5.0</ele><time>2026-03-22T10:34:53.001Z</time></trkpt><trkpt lat="24.676165567536593" lon="120.84737588238465"><ele>5.0</ele><time>2026-03-22T10:34:54.001Z</time></trkpt><trkpt lat="24.676234847105643" lon="120.84737124670876"><ele>5.0</ele><time>2026-03-22T10:34:55.001Z</time></trkpt><trkpt lat="24.67630440429772" lon="120.84736562351806"><ele>5.0</ele><time>2026-03-22T10:34:56.001Z</time></trkpt><trkpt lat="24.67637073402548" lon="120.84736084019737"><ele>5.0</ele><time>2026-03-22T10:34:57.001Z</time></trkpt><trkpt lat="24.676437883025535" lon="120.84735570298119"><ele>5.0</ele><time>2026-03-22T10:34:58.001Z</time></trkpt><trkpt lat="24.676503785871216" lon="120.84735122979853"><ele>5.0</ele><time>2026-03-22T10:34:59.001Z</time></trkpt><trkpt lat="24.676568731694246" lon="120.8473474601207"><ele>5.0</ele><time>2026-03-22T10:35:00.001Z</time></trkpt><trkpt lat="24.676635590230507" lon="120.84734270488048"><ele>5.0</ele><time>2026-03-22T10:35:01.001Z</time></trkpt><trkpt lat="24.676703249817912" lon="120.8473375586011"><ele>5.0</ele><time>2026-03-22T10:35:02.001Z</time></trkpt><trkpt lat="24.676772608646836" lon="120.8473310119999"><ele>5.0</ele><time>2026-03-22T10:35:03.001Z</time></trkpt><trkpt lat="24.67684655776459" lon="120.84732645523732"><ele>5.0</ele><time>2026-03-22T10:35:04.001Z</time></trkpt><trkpt lat="24.67692824476326" lon="120.84731959504397"><ele>5.0</ele><time>2026-03-22T10:35:05.001Z</time></trkpt><trkpt lat="24.67701402023822" lon="120.84731254930334"><ele>5.0</ele><time>2026-03-22T10:35:06.001Z</time></trkpt><trkpt lat="24.677102707928498" lon="120.8473056804056"><ele>4.8</ele><time>2026-03-22T10:35:07.001Z</time></trkpt><trkpt lat="24.67719527864739" lon="120.84730008009342"><ele>4.6</ele><time>2026-03-22T10:35:08.001Z</time></trkpt><trkpt lat="24.677290006685922" lon="120.84729392651774"><ele>4.4</ele><time>2026-03-22T10:35:09.001Z</time></trkpt><trkpt lat="24.677382684492173" lon="120.84728747132164"><ele>4.2</ele><time>2026-03-22T10:35:10.001Z</time></trkpt><trkpt lat="24.677475932380588" lon="120.84728094392509"><ele>4.0</ele><time>2026-03-22T10:35:11.001Z</time></trkpt><trkpt lat="24.67756843547769" lon="120.84727396960598"><ele>3.9999999999999996</ele><time>2026-03-22T10:35:12.001Z</time></trkpt><trkpt lat="24.677659866719058" lon="120.84726813952116"><ele>4.0</ele><time>2026-03-22T10:35:13.001Z</time></trkpt><trkpt lat="24.677749294744796" lon="120.8472624625718"><ele>4.0</ele><time>2026-03-22T10:35:14.001Z</time></trkpt><trkpt lat="24.67783619867598" lon="120.84725721889117"><ele>4.0</ele><time>2026-03-22T10:35:15.001Z</time></trkpt><trkpt lat="24.67792054290354" lon="120.84725156404032"><ele>3.9999999999999996</ele><time>2026-03-22T10:35:16.001Z</time></trkpt><trkpt lat="24.67800173261616" lon="120.84724565584473"><ele>4.0</ele><time>2026-03-22T10:35:17.001Z</time></trkpt><trkpt lat="24.67808277812542" lon="120.84724160348706"><ele>3.8000000000000003</ele><time>2026-03-22T10:35:18.001Z</time></trkpt><trkpt lat="24.678167043866686" lon="120.847237627187"><ele>3.6000000000000005</ele><time>2026-03-22T10:35:19.001Z</time></trkpt><trkpt lat="24.678256995309717" lon="120.84723376203593"><ele>3.4</ele><time>2026-03-22T10:35:20.001Z</time></trkpt><trkpt lat="24.678352510329056" lon="120.84723215818633"><ele>3.2</ele><time>2026-03-22T10:35:21.001Z</time></trkpt><trkpt lat="24.678452067492646" lon="120.84722981894403"><ele>3.0</ele><time>2026-03-22T10:35:22.001Z</time></trkpt><trkpt lat="24.678554130707273" lon="120.84722932208835"><ele>3.0</ele><time>2026-03-22T10:35:23.001Z</time></trkpt><trkpt lat="24.678654370855877" lon="120.84722924414844"><ele>3.0</ele><time>2026-03-22T10:35:24.001Z</time></trkpt><trkpt lat="24.678753636494665" lon="120.84723003926202"><ele>3.0</ele><time>2026-03-22T10:35:25.001Z</time></trkpt><trkpt lat="24.678856805363733" lon="120.8472300406735"><ele>3.0</ele><time>2026-03-22T10:35:26.001Z</time></trkpt><trkpt lat="24.678962924824937" lon="120.84723156420924"><ele>3.0</ele><time>2026-03-22T10:35:27.001Z</time></trkpt><trkpt lat="24.679072740260178" lon="120.84723252198053"><ele>3.0</ele><time>2026-03-22T10:35:28.001Z</time></trkpt><trkpt lat="24.679183580973305" lon="120.84723503424127"><ele>3.0</ele><time>2026-03-22T10:35:29.001Z</time></trkpt><trkpt lat="24.679296103475494" lon="120.84723828296836"><ele>3.0</ele><time>2026-03-22T10:35:30.001Z</time></trkpt><trkpt lat="24.67940972956488" lon="120.84724253564698"><ele>3.0</ele><time>2026-03-22T10:35:31.001Z</time></trkpt><trkpt lat="24.67952173392153" lon="120.84724730914513"><ele>3.0</ele><time>2026-03-22T10:35:32.001Z</time></trkpt><trkpt lat="24.6796321558753" lon="120.84725220495382"><ele>3.5999999999999996</ele><time>2026-03-22T10:35:33.001Z</time></trkpt><trkpt lat="24.67974101068034" lon="120.84725836611109"><ele>4.199999999999999</ele><time>2026-03-22T10:35:34.001Z</time></trkpt><trkpt lat="24.679846699631117" lon="120.84726642876716"><ele>4.8</ele><time>2026-03-22T10:35:35.001Z</time></trkpt><trkpt lat="24.679950504623836" lon="120.84727332729462"><ele>5.3999999999999995</ele><time>2026-03-22T10:35:36.001Z</time></trkpt><trkpt lat="24.680051059900975" lon="120.84728095021617"><ele>6.0</ele><time>2026-03-22T10:35:37.001Z</time></trkpt><trkpt lat="24.68015048571215" lon="120.84728849313346"><ele>6.0</ele><time>2026-03-22T10:35:38.001Z</time></trkpt><trkpt lat="24.68024468698286" lon="120.84729539072356"><ele>6.0</ele><time>2026-03-22T10:35:39.001Z</time></trkpt><trkpt lat="24.680331058538275" lon="120.84730242775497"><ele>6.0</ele><time>2026-03-22T10:35:40.001Z</time></trkpt><trkpt lat="24.680407795219303" lon="120.84730925655357"><ele>6.0</ele><time>2026-03-22T10:35:41.001Z</time></trkpt><trkpt lat="24.68047323821555" lon="120.8473164092742"><ele>6.0</ele><time>2026-03-22T10:35:42.001Z</time></trkpt><trkpt lat="24.68057953703679" lon="120.84732964464061"><ele>6.0</ele><time>2026-03-22T10:35:44.001Z</time></trkpt><trkpt lat="24.68066803299341" lon="120.84734055912989"><ele>6.0</ele><time>2026-03-22T10:35:46.001Z</time></trkpt><trkpt lat="24.680743735399975" lon="120.84734994569507"><ele>6.0</ele><time>2026-03-22T10:35:48.001Z</time></trkpt><trkpt lat="24.680807828238287" lon="120.84735742132469"><ele>6.0</ele><time>2026-03-22T10:35:50.001Z</time></trkpt><trkpt lat="24.680899005645593" lon="120.84736744533944"><ele>6.0</ele><time>2026-03-22T10:35:53.001Z</time></trkpt><trkpt lat="24.68096978919429" lon="120.84737630375267"><ele>6.0</ele><time>2026-03-22T10:35:55.001Z</time></trkpt><trkpt lat="24.681046274764096" lon="120.84738770080699"><ele>6.0</ele><time>2026-03-22T10:35:57.001Z</time></trkpt><trkpt lat="24.68112944941887" lon="120.84739933965515"><ele>6.0</ele><time>2026-03-22T10:35:59.001Z</time></trkpt><trkpt lat="24.681203914345105" lon="120.8474124971777"><ele>6.0</ele><time>2026-03-22T10:36:01.001Z</time></trkpt><trkpt lat="24.68127172321985" lon="120.84742496696404"><ele>6.0</ele><time>2026-03-22T10:36:03.001Z</time></trkpt><trkpt lat="24.68134347888165" lon="120.84743816862594"><ele>6.0</ele><time>2026-03-22T10:36:05.001Z</time></trkpt><trkpt lat="24.6814380886292" lon="120.84745489370624"><ele>6.0</ele><time>2026-03-22T10:36:07.001Z</time></trkpt><trkpt lat="24.6815364064625" lon="120.84747809159295"><ele>6.0</ele><time>2026-03-22T10:36:09.001Z</time></trkpt><trkpt lat="24.681624789365493" lon="120.84749655415021"><ele>6.0</ele><time>2026-03-22T10:36:11.001Z</time></trkpt><trkpt lat="24.68170714329324" lon="120.84751453661666"><ele>6.0</ele><time>2026-03-22T10:36:13.001Z</time></trkpt><trkpt lat="24.681807627716736" lon="120.84753546789622"><ele>6.0</ele><time>2026-03-22T10:36:15.001Z</time></trkpt><trkpt lat="24.681870562962462" lon="120.84754883904138"><ele>6.0</ele><time>2026-03-22T10:36:16.001Z</time></trkpt><trkpt lat="24.68193783949047" lon="120.84756017683847"><ele>6.0</ele><time>2026-03-22T10:36:17.001Z</time></trkpt><trkpt lat="24.68201370385525" lon="120.84757492485176"><ele>6.0</ele><time>2026-03-22T10:36:18.001Z</time></trkpt><trkpt lat="24.682090890769818" lon="120.8475928178827"><ele>5.833333333333333</ele><time>2026-03-22T10:36:19.001Z</time></trkpt><trkpt lat="24.682165062771677" lon="120.84760920535396"><ele>5.666666666666667</ele><time>2026-03-22T10:36:20.001Z</time></trkpt><trkpt lat="24.682242900374344" lon="120.84762725837497"><ele>5.5</ele><time>2026-03-22T10:36:21.001Z</time></trkpt><trkpt lat="24.68232208806979" lon="120.84764613486497"><ele>5.333333333333334</ele><time>2026-03-22T10:36:22.001Z</time></trkpt><trkpt lat="24.682402682383568" lon="120.84766443769385"><ele>5.166666666666667</ele><time>2026-03-22T10:36:23.001Z</time></trkpt><trkpt lat="24.682482671326525" lon="120.8476813884263"><ele>5.0</ele><time>2026-03-22T10:36:24.001Z</time></trkpt><trkpt lat="24.6825637782418" lon="120.8477007359913"><ele>5.0</ele><time>2026-03-22T10:36:25.001Z</time></trkpt><trkpt lat="24.68264435278095" lon="120.84772184583272"><ele>5.0</ele><time>2026-03-22T10:36:26.001Z</time></trkpt><trkpt lat="24.682724322081285" lon="120.84774294581722"><ele>5.0</ele><time>2026-03-22T10:36:27.001Z</time></trkpt><trkpt lat="24.682799451436416" lon="120.84776267960719"><ele>5.0</ele><time>2026-03-22T10:36:28.001Z</time></trkpt><trkpt lat="24.682869059372905" lon="120.84778137704897"><ele>5.0</ele><time>2026-03-22T10:36:29.001Z</time></trkpt><trkpt lat="24.682964738338935" lon="120.84780844139489"><ele>5.0</ele><time>2026-03-22T10:36:31.001Z</time></trkpt><trkpt lat="24.68305076047627" lon="120.84783032613622"><ele>4.833333333333334</ele><time>2026-03-22T10:36:33.001Z</time></trkpt><trkpt lat="24.683128472753083" lon="120.84785259205152"><ele>4.666666666666667</ele><time>2026-03-22T10:36:35.001Z</time></trkpt><trkpt lat="24.68320141166963" lon="120.84787330754865"><ele>4.5</ele><time>2026-03-22T10:36:37.001Z</time></trkpt><trkpt lat="24.683283328766063" lon="120.8478985567648"><ele>4.333333333333333</ele><time>2026-03-22T10:36:39.001Z</time></trkpt><trkpt lat="24.68337056000181" lon="120.84792467731499"><ele>4.166666666666666</ele><time>2026-03-22T10:36:41.001Z</time></trkpt><trkpt lat="24.683463461319622" lon="120.84795256045385"><ele>4.0</ele><time>2026-03-22T10:36:43.001Z</time></trkpt><trkpt lat="24.68357330029084" lon="120.84798809641936"><ele>4.166666666666666</ele><time>2026-03-22T10:36:45.001Z</time></trkpt><trkpt lat="24.683690134848664" lon="120.84802555235588"><ele>4.333333333333333</ele><time>2026-03-22T10:36:47.001Z</time></trkpt><trkpt lat="24.683754655576045" lon="120.84804891229466"><ele>4.5</ele><time>2026-03-22T10:36:48.001Z</time></trkpt><trkpt lat="24.683822666447657" lon="120.84807073872274"><ele>4.666666666666667</ele><time>2026-03-22T10:36:49.001Z</time></trkpt><trkpt lat="24.68388528895819" lon="120.84808986976223"><ele>4.833333333333334</ele><time>2026-03-22T10:36:50.001Z</time></trkpt><trkpt lat="24.6840025324376" lon="120.84813044795008"><ele>5.0</ele><time>2026-03-22T10:36:52.001Z</time></trkpt><trkpt lat="24.684122241294254" lon="120.8481696418397"><ele>5.0</ele><time>2026-03-22T10:36:54.001Z</time></trkpt><trkpt lat="24.684185379520724" lon="120.84819049362345"><ele>5.0</ele><time>2026-03-22T10:36:55.001Z</time></trkpt><trkpt lat="24.68425095567979" lon="120.84821648093848"><ele>5.0</ele><time>2026-03-22T10:36:56.001Z</time></trkpt><trkpt lat="24.68433438008087" lon="120.84825131186064"><ele>5.0</ele><time>2026-03-22T10:36:58.001Z</time></trkpt><trkpt lat="24.684400679826126" lon="120.84827743272092"><ele>5.0</ele><time>2026-03-22T10:37:01.001Z</time></trkpt><trkpt lat="24.684466029758802" lon="120.8483032272381"><ele>5.0</ele><time>2026-03-22T10:37:04.001Z</time></trkpt><trkpt lat="24.68454734137597" lon="120.84833547183928"><ele>5.166666666666667</ele><time>2026-03-22T10:37:07.001Z</time></trkpt><trkpt lat="24.68463523768886" lon="120.84837322436329"><ele>5.333333333333334</ele><time>2026-03-22T10:37:09.001Z</time></trkpt><trkpt lat="24.684725979420744" lon="120.84841277283249"><ele>5.5</ele><time>2026-03-22T10:37:11.001Z</time></trkpt><trkpt lat="24.684784995403252" lon="120.84843830382594"><ele>5.666666666666667</ele><time>2026-03-22T10:37:12.001Z</time></trkpt><trkpt lat="24.68484487650736" lon="120.84846553761254"><ele>5.833333333333333</ele><time>2026-03-22T10:37:13.001Z</time></trkpt><trkpt lat="24.684904129217912" lon="120.84849269720833"><ele>6.0</ele><time>2026-03-22T10:37:14.001Z</time></trkpt><trkpt lat="24.685008873352263" lon="120.84853940217593"><ele>5.833333333333333</ele><time>2026-03-22T10:37:16.001Z</time></trkpt><trkpt lat="24.6851058779064" lon="120.8485852548354"><ele>5.666666666666667</ele><time>2026-03-22T10:37:18.001Z</time></trkpt><trkpt lat="24.6851894850537" lon="120.84862162820464"><ele>5.5</ele><time>2026-03-22T10:37:20.001Z</time></trkpt><trkpt lat="24.68525901133976" lon="120.84865253197913"><ele>5.333333333333334</ele><time>2026-03-22T10:37:22.001Z</time></trkpt><trkpt lat="24.685337312941964" lon="120.84869293326861"><ele>5.166666666666667</ele><time>2026-03-22T10:37:25.001Z</time></trkpt><trkpt lat="24.68540324797754" lon="120.848720569302"><ele>5.0</ele><time>2026-03-22T10:37:29.001Z</time></trkpt><trkpt lat="24.685466561586654" lon="120.84875334646917"><ele>5.0</ele><time>2026-03-22T10:37:31.001Z</time></trkpt><trkpt lat="24.685546681420643" lon="120.84879406873334"><ele>5.0</ele><time>2026-03-22T10:37:33.001Z</time></trkpt><trkpt lat="24.68563059457084" lon="120.84883982938653"><ele>5.0</ele><time>2026-03-22T10:37:35.001Z</time></trkpt><trkpt lat="24.68569423461015" lon="120.84887264118385"><ele>5.0</ele><time>2026-03-22T10:37:41Z</time></trkpt><trkpt lat="24.685760959599996" lon="120.84890200915373"><ele>5.0</ele><time>2026-03-22T10:37:46Z</time></trkpt><trkpt lat="24.685832121770012" lon="120.84893908250363"><ele>5.0</ele><time>2026-03-22T10:37:48Z</time></trkpt><trkpt lat="24.685904283112478" lon="120.84896976009854"><ele>5.0</ele><time>2026-03-22T10:37:50Z</time></trkpt><trkpt lat="24.686011851513545" lon="120.84901095141456"><ele>5.0</ele><time>2026-03-22T10:37:52Z</time></trkpt><trkpt lat="24.686134230809937" lon="120.84906949621632"><ele>5.0</ele><time>2026-03-22T10:37:54Z</time></trkpt><trkpt lat="24.68621613709183" lon="120.84911474987668"><ele>5.0</ele><time>2026-03-22T10:37:55Z</time></trkpt><trkpt lat="24.686288937027367" lon="120.84915461100957"><ele>5.0</ele><time>2026-03-22T10:37:56Z</time></trkpt><trkpt lat="24.686363001255526" lon="120.84920305786599"><ele>5.2</ele><time>2026-03-22T10:37:57Z</time></trkpt><trkpt lat="24.686451167957657" lon="120.84924991506585"><ele>5.4</ele><time>2026-03-22T10:37:58Z</time></trkpt><trkpt lat="24.686545872877048" lon="120.84930343689594"><ele>5.6</ele><time>2026-03-22T10:37:59Z</time></trkpt><trkpt lat="24.68664349344837" lon="120.84936440939924"><ele>5.8</ele><time>2026-03-22T10:38:00Z</time></trkpt><trkpt lat="24.686730998395163" lon="120.84941839225107"><ele>6.0</ele><time>2026-03-22T10:38:01Z</time></trkpt><trkpt lat="24.686818597364354" lon="120.84946845193397"><ele>5.2</ele><time>2026-03-22T10:38:02Z</time></trkpt><trkpt lat="24.686911363974403" lon="120.84952628847488"><ele>4.3999999999999995</ele><time>2026-03-22T10:38:03Z</time></trkpt><trkpt lat="24.68700401078294" lon="120.84958473856902"><ele>3.6</ele><time>2026-03-22T10:38:04Z</time></trkpt><trkpt lat="24.687089348785097" lon="120.8496364215769"><ele>2.8</ele><time>2026-03-22T10:38:05Z</time></trkpt><trkpt lat="24.687156207072956" lon="120.8496803533326"><ele>2.0</ele><time>2026-03-22T10:38:06Z</time></trkpt><trkpt lat="24.687222700628816" lon="120.84972066416047"><ele>1.2857142857142856</ele><time>2026-03-22T10:38:07Z</time></trkpt><trkpt lat="24.6872879781074" lon="120.84976252367575"><ele>0.5714285714285713</ele><time>2026-03-22T10:38:08Z</time></trkpt><trkpt lat="24.687358409183272" lon="120.84980827603735"><ele>-0.1428571428571428</ele><time>2026-03-22T10:38:09.001Z</time></trkpt><trkpt lat="24.687426436906964" lon="120.84985384797592"><ele>-0.8571428571428571</ele><time>2026-03-22T10:38:10.001Z</time></trkpt><trkpt lat="24.687488622076355" lon="120.84989541306683"><ele>-1.5714285714285714</ele><time>2026-03-22T10:38:11.001Z</time></trkpt><trkpt lat="24.687548058579413" lon="120.8499338897888"><ele>-2.2857142857142856</ele><time>2026-03-22T10:38:12.001Z</time></trkpt><trkpt lat="24.687607842121558" lon="120.84997325670855"><ele>-3.0</ele><time>2026-03-22T10:38:13.001Z</time></trkpt><trkpt lat="24.687662697516146" lon="120.85001212973715"><ele>-3.0</ele><time>2026-03-22T10:38:14.001Z</time></trkpt><trkpt lat="24.687757502748003" lon="120.85008480664158"><ele>-3.0</ele><time>2026-03-22T10:38:16.001Z</time></trkpt><trkpt lat="24.68784389455488" lon="120.8501387048629"><ele>-3.0</ele><time>2026-03-22T10:38:18.001Z</time></trkpt><trkpt lat="24.687935768802042" lon="120.85020242646004"><ele>-3.0</ele><time>2026-03-22T10:38:20.001Z</time></trkpt><trkpt lat="24.688036964456114" lon="120.85027306703404"><ele>-3.0</ele><time>2026-03-22T10:38:22.001Z</time></trkpt><trkpt lat="24.68813968320451" lon="120.85034575779832"><ele>-1.4</ele><time>2026-03-22T10:38:24.001Z</time></trkpt><trkpt lat="24.688237379382834" lon="120.85041896721545"><ele>0.20000000000000018</ele><time>2026-03-22T10:38:26.001Z</time></trkpt><trkpt lat="24.688325777955033" lon="120.85048211979576"><ele>1.8</ele><time>2026-03-22T10:38:28.001Z</time></trkpt><trkpt lat="24.688409424786645" lon="120.85054270202035"><ele>3.4</ele><time>2026-03-22T10:38:30.001Z</time></trkpt><trkpt lat="24.688489820991336" lon="120.85059991155617"><ele>5.0</ele><time>2026-03-22T10:38:32.001Z</time></trkpt><trkpt lat="24.68857733964974" lon="120.85066304446893"><ele>4.8</ele><time>2026-03-22T10:38:34.001Z</time></trkpt><trkpt lat="24.688667059735806" lon="120.85073076015051"><ele>4.6</ele><time>2026-03-22T10:38:36.001Z</time></trkpt><trkpt lat="24.68875643456468" lon="120.85079665446618"><ele>4.4</ele><time>2026-03-22T10:38:38.001Z</time></trkpt><trkpt lat="24.68885515895158" lon="120.85087152008374"><ele>4.2</ele><time>2026-03-22T10:38:40.001Z</time></trkpt><trkpt lat="24.688908276261024" lon="120.85091324273776"><ele>4.0</ele><time>2026-03-22T10:38:41.001Z</time></trkpt><trkpt lat="24.689010970458053" lon="120.85099196196391"><ele>3.9999999999999996</ele><time>2026-03-22T10:38:43.001Z</time></trkpt><trkpt lat="24.68906318600525" lon="120.85103251439772"><ele>4.0</ele><time>2026-03-22T10:38:44.001Z</time></trkpt><trkpt lat="24.689116607943582" lon="120.85107367118475"><ele>4.0</ele><time>2026-03-22T10:38:45.001Z</time></trkpt><trkpt lat="24.68916817882374" lon="120.85111406069606"><ele>4.0</ele><time>2026-03-22T10:38:46.001Z</time></trkpt><trkpt lat="24.689269226101178" lon="120.85119434023177"><ele>3.9999999999999996</ele><time>2026-03-22T10:38:48.001Z</time></trkpt><trkpt lat="24.689320470836698" lon="120.85123539060505"><ele>4.0</ele><time>2026-03-22T10:38:49.001Z</time></trkpt><trkpt lat="24.689421777590894" lon="120.85131733149703"><ele>4.166666666666666</ele><time>2026-03-22T10:38:51.001Z</time></trkpt><trkpt lat="24.689473903732896" lon="120.85136068522966"><ele>4.333333333333333</ele><time>2026-03-22T10:38:52.001Z</time></trkpt><trkpt lat="24.689525473235918" lon="120.85140349528724"><ele>4.5</ele><time>2026-03-22T10:38:53.001Z</time></trkpt><trkpt lat="24.689629749013797" lon="120.8514862967634"><ele>4.666666666666667</ele><time>2026-03-22T10:38:55.001Z</time></trkpt><trkpt lat="24.68968510285057" lon="120.85153033962223"><ele>4.833333333333334</ele><time>2026-03-22T10:38:56.001Z</time></trkpt><trkpt lat="24.689743376822722" lon="120.85157789860042"><ele>5.0</ele><time>2026-03-22T10:38:57.001Z</time></trkpt><trkpt lat="24.689806618210504" lon="120.85163005666287"><ele>5.0</ele><time>2026-03-22T10:38:58.001Z</time></trkpt><trkpt lat="24.689868957884638" lon="120.8516798602379"><ele>5.0</ele><time>2026-03-22T10:38:59.001Z</time></trkpt><trkpt lat="24.689930926812686" lon="120.85173236643264"><ele>5.0</ele><time>2026-03-22T10:39:00.001Z</time></trkpt><trkpt lat="24.689987888640246" lon="120.85177913065652"><ele>5.0</ele><time>2026-03-22T10:39:01.001Z</time></trkpt><trkpt lat="24.690040514182748" lon="120.851820117687"><ele>5.0</ele><time>2026-03-22T10:39:02.001Z</time></trkpt><trkpt lat="24.690097340196736" lon="120.85186896182881"><ele>5.0</ele><time>2026-03-22T10:39:03.001Z</time></trkpt><trkpt lat="24.690148166243787" lon="120.85191109797724"><ele>5.0</ele><time>2026-03-22T10:39:04.001Z</time></trkpt><trkpt lat="24.69025123606427" lon="120.85199685505286"><ele>5.0</ele><time>2026-03-22T10:39:06.001Z</time></trkpt><trkpt lat="24.690302769729325" lon="120.85203999525956"><ele>5.0</ele><time>2026-03-22T10:39:07.001Z</time></trkpt><trkpt lat="24.69035440823177" lon="120.85208285711781"><ele>5.0</ele><time>2026-03-22T10:39:08.001Z</time></trkpt><trkpt lat="24.690406004730043" lon="120.85212716312905"><ele>5.0</ele><time>2026-03-22T10:39:09.001Z</time></trkpt><trkpt lat="24.690460317316575" lon="120.85217691057994"><ele>5.0</ele><time>2026-03-22T10:39:10.001Z</time></trkpt><trkpt lat="24.690518306175193" lon="120.85222828839083"><ele>5.0</ele><time>2026-03-22T10:39:11.001Z</time></trkpt><trkpt lat="24.69057241065381" lon="120.85227605476773"><ele>5.0</ele><time>2026-03-22T10:39:12.001Z</time></trkpt><trkpt lat="24.690630937262128" lon="120.85232244811503"><ele>5.0</ele><time>2026-03-22T10:39:13.001Z</time></trkpt><trkpt lat="24.690690208398912" lon="120.85237155570708"><ele>5.0</ele><time>2026-03-22T10:39:14.001Z</time></trkpt><trkpt lat="24.690747925869182" lon="120.85241793318431"><ele>5.0</ele><time>2026-03-22T10:39:15.001Z</time></trkpt><trkpt lat="24.690805755325535" lon="120.85246448670482"><ele>5.0</ele><time>2026-03-22T10:39:16.001Z</time></trkpt><trkpt lat="24.690866031920745" lon="120.85251494892564"><ele>5.0</ele><time>2026-03-22T10:39:17.001Z</time></trkpt><trkpt lat="24.690925939908272" lon="120.85256818879988"><ele>5.0</ele><time>2026-03-22T10:39:18.001Z</time></trkpt><trkpt lat="24.690985760822738" lon="120.85261807799546"><ele>5.0</ele><time>2026-03-22T10:39:19.001Z</time></trkpt><trkpt lat="24.691044437941095" lon="120.85266400128778"><ele>5.142857142857142</ele><time>2026-03-22T10:39:20.001Z</time></trkpt><trkpt lat="24.69110223684738" lon="120.85271258019468"><ele>5.285714285714286</ele><time>2026-03-22T10:39:21.001Z</time></trkpt><trkpt lat="24.691164869414752" lon="120.85277173353856"><ele>5.428571428571429</ele><time>2026-03-22T10:39:22.001Z</time></trkpt><trkpt lat="24.691225106023392" lon="120.85283053921454"><ele>5.571428571428571</ele><time>2026-03-22T10:39:23.001Z</time></trkpt><trkpt lat="24.691281723750766" lon="120.85288493186896"><ele>5.714285714285714</ele><time>2026-03-22T10:39:24.001Z</time></trkpt><trkpt lat="24.691333130137846" lon="120.85293699036292"><ele>5.857142857142857</ele><time>2026-03-22T10:39:25.001Z</time></trkpt><trkpt lat="24.691381960466565" lon="120.8529867204024"><ele>6.0</ele><time>2026-03-22T10:39:26.001Z</time></trkpt><trkpt lat="24.6914717427366" lon="120.85307751989231"><ele>6.0</ele><time>2026-03-22T10:39:28.001Z</time></trkpt><trkpt lat="24.691554764047698" lon="120.8531528523693"><ele>6.0</ele><time>2026-03-22T10:39:30.001Z</time></trkpt><trkpt lat="24.691632060256502" lon="120.85322117340264"><ele>6.0</ele><time>2026-03-22T10:39:32.001Z</time></trkpt><trkpt lat="24.69171877285368" lon="120.85329161269969"><ele>6.0</ele><time>2026-03-22T10:39:34.001Z</time></trkpt><trkpt lat="24.69179623648781" lon="120.85336185804083"><ele>6.0</ele><time>2026-03-22T10:39:36.001Z</time></trkpt><trkpt lat="24.69186948179138" lon="120.85342190507112"><ele>6.166666666666667</ele><time>2026-03-22T10:39:38.001Z</time></trkpt><trkpt lat="24.691959889601502" lon="120.85350142655597"><ele>6.333333333333334</ele><time>2026-03-22T10:39:40.001Z</time></trkpt><trkpt lat="24.692010634433185" lon="120.85354736149122"><ele>6.5</ele><time>2026-03-22T10:39:41.001Z</time></trkpt><trkpt lat="24.692061679059535" lon="120.85359344091975"><ele>6.666666666666667</ele><time>2026-03-22T10:39:42.001Z</time></trkpt><trkpt lat="24.692112734601" lon="120.85363992710447"><ele>6.833333333333334</ele><time>2026-03-22T10:39:43.001Z</time></trkpt><trkpt lat="24.692164997726696" lon="120.85368573850928"><ele>7.0</ele><time>2026-03-22T10:39:44.001Z</time></trkpt><trkpt lat="24.692220626253537" lon="120.85373808218172"><ele>7.000000000000001</ele><time>2026-03-22T10:39:45.001Z</time></trkpt><trkpt lat="24.69227329080055" lon="120.85378481795205"><ele>7.0</ele><time>2026-03-22T10:39:46.001Z</time></trkpt><trkpt lat="24.69232673190853" lon="120.85383345388574"><ele>7.0</ele><time>2026-03-22T10:39:47.001Z</time></trkpt><trkpt lat="24.692377769693742" lon="120.85387886777382"><ele>7.0</ele><time>2026-03-22T10:39:48.001Z</time></trkpt><trkpt lat="24.692426980926058" lon="120.85392516882297"><ele>7.000000000000001</ele><time>2026-03-22T10:39:49.001Z</time></trkpt><trkpt lat="24.692517528107796" lon="120.85400835395033"><ele>7.0</ele><time>2026-03-22T10:39:51.001Z</time></trkpt><trkpt lat="24.69261333857876" lon="120.85409694428455"><ele>7.0</ele><time>2026-03-22T10:39:53.001Z</time></trkpt><trkpt lat="24.692664166783747" lon="120.8541439525184"><ele>7.0</ele><time>2026-03-22T10:39:54.001Z</time></trkpt><trkpt lat="24.692713192571127" lon="120.85418929368566"><ele>7.0</ele><time>2026-03-22T10:39:55.001Z</time></trkpt><trkpt lat="24.692763206476744" lon="120.85423606987538"><ele>7.0</ele><time>2026-03-22T10:39:56.001Z</time></trkpt><trkpt lat="24.692812131370424" lon="120.85428120043777"><ele>7.0</ele><time>2026-03-22T10:39:57.001Z</time></trkpt><trkpt lat="24.692861491430357" lon="120.85432592988984"><ele>7.0</ele><time>2026-03-22T10:39:58.001Z</time></trkpt><trkpt lat="24.69291137836674" lon="120.85437329843488"><ele>7.0</ele><time>2026-03-22T10:39:59.001Z</time></trkpt><trkpt lat="24.69296030651546" lon="120.85441952622443"><ele>6.3999999999999995</ele><time>2026-03-22T10:40:00.001Z</time></trkpt><trkpt lat="24.693051856187473" lon="120.85450701865757"><ele>5.799999999999999</ele><time>2026-03-22T10:40:02.001Z</time></trkpt><trkpt lat="24.693135524776892" lon="120.85458530656534"><ele>5.2</ele><time>2026-03-22T10:40:04.001Z</time></trkpt><trkpt lat="24.69321681452844" lon="120.85466326065094"><ele>4.6</ele><time>2026-03-22T10:40:06.001Z</time></trkpt><trkpt lat="24.693299196446805" lon="120.8547420467263"><ele>4.0</ele><time>2026-03-22T10:40:08.001Z</time></trkpt><trkpt lat="24.69338493026621" lon="120.85482057989282"><ele>4.0</ele><time>2026-03-22T10:40:10.001Z</time></trkpt><trkpt lat="24.693434749772248" lon="120.85486900972428"><ele>3.9999999999999996</ele><time>2026-03-22T10:40:11.001Z</time></trkpt><trkpt lat="24.693485459730255" lon="120.8549161270146"><ele>4.0</ele><time>2026-03-22T10:40:12.001Z</time></trkpt><trkpt lat="24.69354084553753" lon="120.85497145926475"><ele>4.0</ele><time>2026-03-22T10:40:13.001Z</time></trkpt><trkpt lat="24.6935979168819" lon="120.8550279069276"><ele>3.9999999999999996</ele><time>2026-03-22T10:40:14.001Z</time></trkpt><trkpt lat="24.6936536673004" lon="120.85508459699666"><ele>4.0</ele><time>2026-03-22T10:40:15.001Z</time></trkpt><trkpt lat="24.69370662589402" lon="120.85513591643966"><ele>4.0</ele><time>2026-03-22T10:40:16.001Z</time></trkpt><trkpt lat="24.693760605315113" lon="120.85519162332167"><ele>3.8571428571428568</ele><time>2026-03-22T10:40:17.001Z</time></trkpt><trkpt lat="24.693809378794743" lon="120.85523930801052"><ele>3.714285714285714</ele><time>2026-03-22T10:40:18.001Z</time></trkpt><trkpt lat="24.693861694000653" lon="120.85529133278926"><ele>3.571428571428571</ele><time>2026-03-22T10:40:19.001Z</time></trkpt><trkpt lat="24.693914050028237" lon="120.85534799171475"><ele>3.4285714285714284</ele><time>2026-03-22T10:40:20.001Z</time></trkpt><trkpt lat="24.693967007488055" lon="120.85540037101221"><ele>3.2857142857142856</ele><time>2026-03-22T10:40:21.001Z</time></trkpt><trkpt lat="24.69402081357649" lon="120.85545205548996"><ele>3.1428571428571423</ele><time>2026-03-22T10:40:22.001Z</time></trkpt><trkpt lat="24.694077975216434" lon="120.85551115878822"><ele>3.0</ele><time>2026-03-22T10:40:23.001Z</time></trkpt><trkpt lat="24.694137682295057" lon="120.85556849041282"><ele>3.0</ele><time>2026-03-22T10:40:24.001Z</time></trkpt><trkpt lat="24.694200118584813" lon="120.85562706922136"><ele>3.0</ele><time>2026-03-22T10:40:25.001Z</time></trkpt><trkpt lat="24.694268173804634" lon="120.85569963218916"><ele>3.0</ele><time>2026-03-22T10:40:26.001Z</time></trkpt><trkpt lat="24.6943339685246" lon="120.85576902008981"><ele>3.0</ele><time>2026-03-22T10:40:27.001Z</time></trkpt><trkpt lat="24.694400211415562" lon="120.85583789509177"><ele>3.0</ele><time>2026-03-22T10:40:28.001Z</time></trkpt><trkpt lat="24.694465503159503" lon="120.85590436853347"><ele>3.0</ele><time>2026-03-22T10:40:29.001Z</time></trkpt><trkpt lat="24.69453045372486" lon="120.85596946876883"><ele>3.5999999999999996</ele><time>2026-03-22T10:40:30.001Z</time></trkpt><trkpt lat="24.69460100254663" lon="120.85604145871989"><ele>4.199999999999999</ele><time>2026-03-22T10:40:31.001Z</time></trkpt><trkpt lat="24.694674022411952" lon="120.85611589589294"><ele>4.8</ele><time>2026-03-22T10:40:32.001Z</time></trkpt><trkpt lat="24.694749106950823" lon="120.85619397519689"><ele>5.3999999999999995</ele><time>2026-03-22T10:40:33.001Z</time></trkpt><trkpt lat="24.69482562670824" lon="120.85627561783022"><ele>6.0</ele><time>2026-03-22T10:40:34.001Z</time></trkpt><trkpt lat="24.694897917664775" lon="120.85634902601238"><ele>6.0</ele><time>2026-03-22T10:40:35.001Z</time></trkpt><trkpt lat="24.69497104486991" lon="120.85642929340273"><ele>6.0</ele><time>2026-03-22T10:40:36.001Z</time></trkpt><trkpt lat="24.695039363687677" lon="120.8565023007046"><ele>6.0</ele><time>2026-03-22T10:40:37.001Z</time></trkpt><trkpt lat="24.695108174881728" lon="120.85657491703834"><ele>6.0</ele><time>2026-03-22T10:40:38.001Z</time></trkpt><trkpt lat="24.695171274992727" lon="120.85664153509327"><ele>6.0</ele><time>2026-03-22T10:40:39.001Z</time></trkpt><trkpt lat="24.69522786035112" lon="120.85670319605734"><ele>6.333333333333333</ele><time>2026-03-22T10:40:40.001Z</time></trkpt><trkpt lat="24.695279245642684" lon="120.85675845846723"><ele>6.666666666666666</ele><time>2026-03-22T10:40:41.001Z</time></trkpt><trkpt lat="24.695325928189025" lon="120.8568101311406"><ele>7.0</ele><time>2026-03-22T10:40:42.001Z</time></trkpt><trkpt lat="24.695418638799406" lon="120.85690696834493"><ele>7.333333333333333</ele><time>2026-03-22T10:40:44.001Z</time></trkpt><trkpt lat="24.695471944679486" lon="120.85696541751749"><ele>7.666666666666666</ele><time>2026-03-22T10:40:45.001Z</time></trkpt><trkpt lat="24.695526724069175" lon="120.85702271704203"><ele>8.0</ele><time>2026-03-22T10:40:46.001Z</time></trkpt><trkpt lat="24.69558622522565" lon="120.85708816256691"><ele>7.999999999999999</ele><time>2026-03-22T10:40:47.001Z</time></trkpt><trkpt lat="24.695644497989385" lon="120.85715421786905"><ele>8.0</ele><time>2026-03-22T10:40:48.001Z</time></trkpt><trkpt lat="24.695700340898316" lon="120.85721694263967"><ele>8.0</ele><time>2026-03-22T10:40:49.001Z</time></trkpt><trkpt lat="24.695754331199804" lon="120.85727702368357"><ele>8.0</ele><time>2026-03-22T10:40:50.001Z</time></trkpt><trkpt lat="24.69580714057513" lon="120.85733438730435"><ele>7.999999999999999</ele><time>2026-03-22T10:40:51.001Z</time></trkpt><trkpt lat="24.695861310493605" lon="120.85739506290889"><ele>8.0</ele><time>2026-03-22T10:40:52.001Z</time></trkpt><trkpt lat="24.695919479430025" lon="120.85745975819167"><ele>7.999999999999999</ele><time>2026-03-22T10:40:53.001Z</time></trkpt><trkpt lat="24.695979597404584" lon="120.85752736015202"><ele>8.0</ele><time>2026-03-22T10:40:54.001Z</time></trkpt><trkpt lat="24.69604140883054" lon="120.85759644505683"><ele>8.0</ele><time>2026-03-22T10:40:55.001Z</time></trkpt><trkpt lat="24.696101405309374" lon="120.85766533637148"><ele>8.0</ele><time>2026-03-22T10:40:56.001Z</time></trkpt><trkpt lat="24.696162156733415" lon="120.85773462981872"><ele>7.999999999999999</ele><time>2026-03-22T10:40:57.001Z</time></trkpt><trkpt lat="24.696224981535856" lon="120.85780734503071"><ele>8.0</ele><time>2026-03-22T10:40:58.001Z</time></trkpt><trkpt lat="24.69628923384857" lon="120.85788265150714"><ele>6.2</ele><time>2026-03-22T10:40:59.001Z</time></trkpt><trkpt lat="24.696353657619877" lon="120.85795808607546"><ele>4.4</ele><time>2026-03-22T10:41:00.001Z</time></trkpt><trkpt lat="24.696418016705135" lon="120.85803453607012"><ele>2.6</ele><time>2026-03-22T10:41:01.001Z</time></trkpt><trkpt lat="24.696484123326872" lon="120.85811258334182"><ele>0.8</ele><time>2026-03-22T10:41:02.001Z</time></trkpt><trkpt lat="24.696546804737157" lon="120.85818771814145"><ele>-1.0</ele><time>2026-03-22T10:41:03.001Z</time></trkpt><trkpt lat="24.696607143638463" lon="120.85825991637523"><ele>-0.9999999999999999</ele><time>2026-03-22T10:41:04.001Z</time></trkpt><trkpt lat="24.69666618955326" lon="120.85833191627832"><ele>-1.0</ele><time>2026-03-22T10:41:05.001Z</time></trkpt><trkpt lat="24.696723106565344" lon="120.85840224046898"><ele>-1.0</ele><time>2026-03-22T10:41:06.001Z</time></trkpt><trkpt lat="24.696778496945708" lon="120.85846981497647"><ele>-1.0</ele><time>2026-03-22T10:41:07.001Z</time></trkpt><trkpt lat="24.696831871367927" lon="120.85853612258644"><ele>-0.9999999999999999</ele><time>2026-03-22T10:41:08.001Z</time></trkpt><trkpt lat="24.69688376273915" lon="120.85860135713831"><ele>-1.0</ele><time>2026-03-22T10:41:09.001Z</time></trkpt><trkpt lat="24.696933328611394" lon="120.85866487584799"><ele>-0.16666666666666663</ele><time>2026-03-22T10:41:10.001Z</time></trkpt><trkpt lat="24.696982006593093" lon="120.85872768974305"><ele>0.6666666666666666</ele><time>2026-03-22T10:41:11.001Z</time></trkpt><trkpt lat="24.69703116303879" lon="120.85879166931213"><ele>1.5</ele><time>2026-03-22T10:41:12.001Z</time></trkpt><trkpt lat="24.697082774378657" lon="120.85885790424885"><ele>2.333333333333333</ele><time>2026-03-22T10:41:13.001Z</time></trkpt><trkpt lat="24.69713418961269" lon="120.85892274637173"><ele>3.1666666666666665</ele><time>2026-03-22T10:41:14.001Z</time></trkpt><trkpt lat="24.6971845886977" lon="120.85898657003649"><ele>4.0</ele><time>2026-03-22T10:41:15.001Z</time></trkpt><trkpt lat="24.69723419685151" lon="120.85905067899918"><ele>3.9999999999999996</ele><time>2026-03-22T10:41:16.001Z</time></trkpt><trkpt lat="24.69728590613409" lon="120.85911763977194"><ele>4.0</ele><time>2026-03-22T10:41:17.001Z</time></trkpt><trkpt lat="24.69733680603462" lon="120.85918448782398"><ele>4.0</ele><time>2026-03-22T10:41:18.001Z</time></trkpt><trkpt lat="24.69739124303934" lon="120.85925592593439"><ele>4.0</ele><time>2026-03-22T10:41:19.001Z</time></trkpt><trkpt lat="24.697442914519662" lon="120.85932361309747"><ele>3.9999999999999996</ele><time>2026-03-22T10:41:20.001Z</time></trkpt><trkpt lat="24.69749652746628" lon="120.85939453445289"><ele>4.0</ele><time>2026-03-22T10:41:21.001Z</time></trkpt><trkpt lat="24.69755213821759" lon="120.85947110140914"><ele>4.2</ele><time>2026-03-22T10:41:22.001Z</time></trkpt><trkpt lat="24.69760880388949" lon="120.85954724387264"><ele>4.4</ele><time>2026-03-22T10:41:23.001Z</time></trkpt><trkpt lat="24.697665493456846" lon="120.8596247255879"><ele>4.6</ele><time>2026-03-22T10:41:24.001Z</time></trkpt><trkpt lat="24.697724313886177" lon="120.859703653339"><ele>4.8</ele><time>2026-03-22T10:41:25.001Z</time></trkpt><trkpt lat="24.697779943949534" lon="120.85978058167623"><ele>5.0</ele><time>2026-03-22T10:41:26.001Z</time></trkpt><trkpt lat="24.697835865005228" lon="120.85985662333108"><ele>5.2</ele><time>2026-03-22T10:41:27.001Z</time></trkpt><trkpt lat="24.69789106345299" lon="120.85993401067786"><ele>5.4</ele><time>2026-03-22T10:41:28.001Z</time></trkpt><trkpt lat="24.69794731350558" lon="120.86001305802989"><ele>5.6</ele><time>2026-03-22T10:41:29.001Z</time></trkpt><trkpt lat="24.698003878951454" lon="120.86009590098685"><ele>5.8</ele><time>2026-03-22T10:41:30.001Z</time></trkpt><trkpt lat="24.6980568283379" lon="120.86017784728496"><ele>6.0</ele><time>2026-03-22T10:41:31.001Z</time></trkpt><trkpt lat="24.698113143823218" lon="120.86025512774815"><ele>6.0</ele><time>2026-03-22T10:41:32.001Z</time></trkpt><trkpt lat="24.69817245286499" lon="120.86034160238516"><ele>6.0</ele><time>2026-03-22T10:41:33.001Z</time></trkpt><trkpt lat="24.698228142878925" lon="120.86042233810886"><ele>6.0</ele><time>2026-03-22T10:41:34.001Z</time></trkpt><trkpt lat="24.69828078304795" lon="120.86050506780342"><ele>6.0</ele><time>2026-03-22T10:41:35.001Z</time></trkpt><trkpt lat="24.6983311253016" lon="120.86058060605855"><ele>6.0</ele><time>2026-03-22T10:41:36.001Z</time></trkpt><trkpt lat="24.69838107447018" lon="120.86065488712902"><ele>6.0</ele><time>2026-03-22T10:41:37.001Z</time></trkpt><trkpt lat="24.698428123692945" lon="120.86072739646147"><ele>6.0</ele><time>2026-03-22T10:41:38.001Z</time></trkpt><trkpt lat="24.69847536078459" lon="120.86079986629741"><ele>6.0</ele><time>2026-03-22T10:41:39.001Z</time></trkpt><trkpt lat="24.69852293845161" lon="120.86087183758816"><ele>6.0</ele><time>2026-03-22T10:41:40.001Z</time></trkpt><trkpt lat="24.698571990019325" lon="120.8609474226138"><ele>6.0</ele><time>2026-03-22T10:41:41.001Z</time></trkpt><trkpt lat="24.69862226819969" lon="120.8610276788293"><ele>6.0</ele><time>2026-03-22T10:41:42.001Z</time></trkpt><trkpt lat="24.69867350575098" lon="120.86110978885081"><ele>6.199999999999999</ele><time>2026-03-22T10:41:43.001Z</time></trkpt><trkpt lat="24.698724161254876" lon="120.8611903419768"><ele>6.3999999999999995</ele><time>2026-03-22T10:41:44.001Z</time></trkpt><trkpt lat="24.698775902230523" lon="120.86127335980392"><ele>6.6</ele><time>2026-03-22T10:41:45.001Z</time></trkpt><trkpt lat="24.698827359500847" lon="120.86135862736297"><ele>6.8</ele><time>2026-03-22T10:41:46.001Z</time></trkpt><trkpt lat="24.698879685969327" lon="120.86144399512214"><ele>7.0</ele><time>2026-03-22T10:41:47.001Z</time></trkpt><trkpt lat="24.698932213444614" lon="120.86152973814094"><ele>7.0</ele><time>2026-03-22T10:41:48.001Z</time></trkpt><trkpt lat="24.698984482327187" lon="120.86161934918384"><ele>6.999999999999999</ele><time>2026-03-22T10:41:49.001Z</time></trkpt><trkpt lat="24.69903774453419" lon="120.86170993736842"><ele>6.999999999999999</ele><time>2026-03-22T10:41:50.001Z</time></trkpt><trkpt lat="24.69909067057901" lon="120.86180008326555"><ele>7.0</ele><time>2026-03-22T10:41:51.001Z</time></trkpt><trkpt lat="24.699144425136286" lon="120.86189157375284"><ele>7.0</ele><time>2026-03-22T10:41:52.001Z</time></trkpt><trkpt lat="24.699198073912516" lon="120.86198499494829"><ele>6.6</ele><time>2026-03-22T10:41:53.001Z</time></trkpt><trkpt lat="24.699251895174704" lon="120.86208289584098"><ele>6.199999999999999</ele><time>2026-03-22T10:41:54.001Z</time></trkpt><trkpt lat="24.699309420299667" lon="120.86218543777733"><ele>5.8</ele><time>2026-03-22T10:41:55.001Z</time></trkpt><trkpt lat="24.699366414915257" lon="120.86228915050894"><ele>5.4</ele><time>2026-03-22T10:41:56.001Z</time></trkpt><trkpt lat="24.699424790485686" lon="120.86239542690997"><ele>5.0</ele><time>2026-03-22T10:41:57.001Z</time></trkpt><trkpt lat="24.69948553153375" lon="120.8625070052523"><ele>4.75</ele><time>2026-03-22T10:41:58.001Z</time></trkpt><trkpt lat="24.699546805679383" lon="120.86262059622533"><ele>4.5</ele><time>2026-03-22T10:41:59.001Z</time></trkpt><trkpt lat="24.69961043550033" lon="120.86273833249145"><ele>4.25</ele><time>2026-03-22T10:42:00.001Z</time></trkpt><trkpt lat="24.69967349448789" lon="120.86285658919809"><ele>4.0</ele><time>2026-03-22T10:42:01.001Z</time></trkpt><trkpt lat="24.699737442664183" lon="120.86297807371483"><ele>4.0</ele><time>2026-03-22T10:42:02.001Z</time></trkpt><trkpt lat="24.699801980146248" lon="120.86310154530514"><ele>4.0</ele><time>2026-03-22T10:42:03.001Z</time></trkpt><trkpt lat="24.699866103951674" lon="120.86322708208256"><ele>4.0</ele><time>2026-03-22T10:42:04.001Z</time></trkpt><trkpt lat="24.699929985049828" lon="120.86335517969803"><ele>4.0</ele><time>2026-03-22T10:42:05.001Z</time></trkpt><trkpt lat="24.699993849962286" lon="120.86348133207137"><ele>4.5</ele><time>2026-03-22T10:42:06.001Z</time></trkpt><trkpt lat="24.700059280880545" lon="120.863618475642"><ele>5.0</ele><time>2026-03-22T10:42:07.001Z</time></trkpt><trkpt lat="24.700117908556262" lon="120.86373525138521"><ele>5.5</ele><time>2026-03-22T10:42:08.001Z</time></trkpt><trkpt lat="24.700179666730598" lon="120.8638618343036"><ele>6.0</ele><time>2026-03-22T10:42:09.001Z</time></trkpt><trkpt lat="24.70024233768451" lon="120.86399162546978"><ele>5.5</ele><time>2026-03-22T10:42:10.001Z</time></trkpt><trkpt lat="24.70030414252444" lon="120.86411871139391"><ele>5.0</ele><time>2026-03-22T10:42:11.001Z</time></trkpt><trkpt lat="24.70036417956171" lon="120.8642443028327"><ele>4.5</ele><time>2026-03-22T10:42:12.001Z</time></trkpt><trkpt lat="24.700422026323405" lon="120.86436896924954"><ele>4.0</ele><time>2026-03-22T10:42:13.001Z</time></trkpt><trkpt lat="24.70047602014282" lon="120.86449000433261"><ele>3.25</ele><time>2026-03-22T10:42:14.001Z</time></trkpt><trkpt lat="24.700529072497464" lon="120.86460704218892"><ele>2.5</ele><time>2026-03-22T10:42:15.001Z</time></trkpt><trkpt lat="24.700581334640574" lon="120.8647233026616"><ele>1.75</ele><time>2026-03-22T10:42:16.001Z</time></trkpt><trkpt lat="24.7006322121167" lon="120.86483743049287"><ele>1.0</ele><time>2026-03-22T10:42:17.001Z</time></trkpt><trkpt lat="24.700681621491864" lon="120.86494808380037"><ele>1.0</ele><time>2026-03-22T10:42:18.001Z</time></trkpt><trkpt lat="24.70072994279673" lon="120.86505619485959"><ele>1.0</ele><time>2026-03-22T10:42:19.001Z</time></trkpt><trkpt lat="24.700776168899527" lon="120.8651601580006"><ele>1.0</ele><time>2026-03-22T10:42:20.001Z</time></trkpt><trkpt lat="24.70081746257094" lon="120.86525830261027"><ele>1.0</ele><time>2026-03-22T10:42:21.001Z</time></trkpt><trkpt lat="24.700854040508776" lon="120.86534599172953"><ele>1.0</ele><time>2026-03-22T10:42:22.001Z</time></trkpt><trkpt lat="24.700891947408845" lon="120.8654348064306"><ele>1.6666666666666665</ele><time>2026-03-22T10:42:23.001Z</time></trkpt><trkpt lat="24.70093002171759" lon="120.8655262186517"><ele>2.3333333333333335</ele><time>2026-03-22T10:42:24.001Z</time></trkpt><trkpt lat="24.700970178948694" lon="120.86562008120798"><ele>3.0</ele><time>2026-03-22T10:42:25.001Z</time></trkpt><trkpt lat="24.701007581219308" lon="120.86570923343989"><ele>3.666666666666667</ele><time>2026-03-22T10:42:26.001Z</time></trkpt><trkpt lat="24.701041823335714" lon="120.8657945035824"><ele>4.333333333333334</ele><time>2026-03-22T10:42:27.001Z</time></trkpt><trkpt lat="24.701075224734915" lon="120.8658741866529"><ele>5.0</ele><time>2026-03-22T10:42:28.001Z</time></trkpt><trkpt lat="24.70110781838874" lon="120.86595376030637"><ele>5.333333333333334</ele><time>2026-03-22T10:42:29.001Z</time></trkpt><trkpt lat="24.70113908548634" lon="120.86603033856721"><ele>5.666666666666667</ele><time>2026-03-22T10:42:30.001Z</time></trkpt><trkpt lat="24.701168986973244" lon="120.8661050710348"><ele>6.0</ele><time>2026-03-22T10:42:31.001Z</time></trkpt><trkpt lat="24.701200572515884" lon="120.86617891319182"><ele>6.333333333333334</ele><time>2026-03-22T10:42:32.001Z</time></trkpt><trkpt lat="24.70123060028559" lon="120.86625280978505"><ele>6.666666666666667</ele><time>2026-03-22T10:42:33.001Z</time></trkpt><trkpt lat="24.701262016102216" lon="120.86633021996961"><ele>7.0</ele><time>2026-03-22T10:42:34.001Z</time></trkpt><trkpt lat="24.701294670807517" lon="120.86640891954508"><ele>7.000000000000001</ele><time>2026-03-22T10:42:35.001Z</time></trkpt><trkpt lat="24.701327336122205" lon="120.86648800077977"><ele>7.0</ele><time>2026-03-22T10:42:36.001Z</time></trkpt><trkpt lat="24.70135893393058" lon="120.8665678378784"><ele>7.0</ele><time>2026-03-22T10:42:37.001Z</time></trkpt><trkpt lat="24.70138870663326" lon="120.86664316418239"><ele>7.0</ele><time>2026-03-22T10:42:38.001Z</time></trkpt><trkpt lat="24.701419040289178" lon="120.86671969670185"><ele>7.000000000000001</ele><time>2026-03-22T10:42:39.001Z</time></trkpt><trkpt lat="24.70145210770979" lon="120.86679978823908"><ele>7.0</ele><time>2026-03-22T10:42:40.001Z</time></trkpt><trkpt lat="24.70148364347079" lon="120.86687998073648"><ele>7.142857142857142</ele><time>2026-03-22T10:42:41.001Z</time></trkpt><trkpt lat="24.70151523070735" lon="120.86695876678866"><ele>7.285714285714286</ele><time>2026-03-22T10:42:42.001Z</time></trkpt><trkpt lat="24.701546173311762" lon="120.867035090461"><ele>7.428571428571429</ele><time>2026-03-22T10:42:43.001Z</time></trkpt><trkpt lat="24.70157677839507" lon="120.86711338593362"><ele>7.571428571428571</ele><time>2026-03-22T10:42:44.001Z</time></trkpt><trkpt lat="24.701607235806854" lon="120.86718813496131"><ele>7.7142857142857135</ele><time>2026-03-22T10:42:45.001Z</time></trkpt><trkpt lat="24.70163639367592" lon="120.86726161372627"><ele>7.857142857142857</ele><time>2026-03-22T10:42:46.001Z</time></trkpt><trkpt lat="24.70166344443719" lon="120.86732970706866"><ele>8.0</ele><time>2026-03-22T10:42:47.001Z</time></trkpt><trkpt lat="24.701689120538262" lon="120.86739671278255"><ele>8.0</ele><time>2026-03-22T10:42:48.001Z</time></trkpt><trkpt lat="24.70173710040944" lon="120.86751867649178"><ele>8.0</ele><time>2026-03-22T10:42:50.001Z</time></trkpt><trkpt lat="24.70178337018852" lon="120.86764196400271"><ele>8.0</ele><time>2026-03-22T10:42:52.001Z</time></trkpt><trkpt lat="24.70183034185713" lon="120.86776095697172"><ele>8.0</ele><time>2026-03-22T10:42:54.001Z</time></trkpt><trkpt lat="24.701874302839247" lon="120.86787273368085"><ele>7.800000000000001</ele><time>2026-03-22T10:42:56.001Z</time></trkpt><trkpt lat="24.701917166282794" lon="120.86798339088864"><ele>7.6000000000000005</ele><time>2026-03-22T10:42:58.001Z</time></trkpt><trkpt lat="24.701956811273867" lon="120.86808598882126"><ele>7.3999999999999995</ele><time>2026-03-22T10:43:00.001Z</time></trkpt><trkpt lat="24.701995813699845" lon="120.8681865684275"><ele>7.199999999999999</ele><time>2026-03-22T10:43:02.001Z</time></trkpt><trkpt lat="24.70203413438398" lon="120.86828892761005"><ele>7.0</ele><time>2026-03-22T10:43:04.001Z</time></trkpt><trkpt lat="24.702069270626954" lon="120.86838628523877"><ele>7.666666666666667</ele><time>2026-03-22T10:43:06.001Z</time></trkpt><trkpt lat="24.702101017951673" lon="120.86846885678257"><ele>8.333333333333334</ele><time>2026-03-22T10:43:08.001Z</time></trkpt><trkpt lat="24.70213050647681" lon="120.86854388960265"><ele>9.0</ele><time>2026-03-22T10:43:10.001Z</time></trkpt><trkpt lat="24.702160823703142" lon="120.8686189799411"><ele>9.666666666666666</ele><time>2026-03-22T10:43:12.001Z</time></trkpt><trkpt lat="24.702196152676468" lon="120.8687066216737"><ele>10.333333333333332</ele><time>2026-03-22T10:43:14.001Z</time></trkpt><trkpt lat="24.70223839946154" lon="120.8688130194467"><ele>11.0</ele><time>2026-03-22T10:43:16.001Z</time></trkpt><trkpt lat="24.702286453371052" lon="120.86894039754544"><ele>11.0</ele><time>2026-03-22T10:43:18.001Z</time></trkpt><trkpt lat="24.702314333230163" lon="120.8690099532066"><ele>11.0</ele><time>2026-03-22T10:43:19.001Z</time></trkpt><trkpt lat="24.70234235718946" lon="120.86908222648495"><ele>11.0</ele><time>2026-03-22T10:43:20.001Z</time></trkpt><trkpt lat="24.702371456951198" lon="120.86915537314403"><ele>11.0</ele><time>2026-03-22T10:43:21.001Z</time></trkpt><trkpt lat="24.702399409152957" lon="120.86922418030984"><ele>11.0</ele><time>2026-03-22T10:43:22.001Z</time></trkpt><trkpt lat="24.702428484180835" lon="120.86929502262952"><ele>11.0</ele><time>2026-03-22T10:43:23.001Z</time></trkpt><trkpt lat="24.702458391176865" lon="120.86937026934943"><ele>11.0</ele><time>2026-03-22T10:43:24.001Z</time></trkpt><trkpt lat="24.702488514298082" lon="120.86944672378607"><ele>11.333333333333332</ele><time>2026-03-22T10:43:25.001Z</time></trkpt><trkpt lat="24.702519540669822" lon="120.86952428933868"><ele>11.666666666666666</ele><time>2026-03-22T10:43:26.001Z</time></trkpt><trkpt lat="24.702550023653593" lon="120.86960372501429"><ele>12.0</ele><time>2026-03-22T10:43:27.001Z</time></trkpt><trkpt lat="24.702584103750237" lon="120.86968767183869"><ele>12.333333333333332</ele><time>2026-03-22T10:43:28.001Z</time></trkpt><trkpt lat="24.702617225887774" lon="120.86977103300602"><ele>12.666666666666666</ele><time>2026-03-22T10:43:29.001Z</time></trkpt><trkpt lat="24.70264976807863" lon="120.86985028729192"><ele>13.0</ele><time>2026-03-22T10:43:30.001Z</time></trkpt><trkpt lat="24.702681277738005" lon="120.86992880682106"><ele>12.999999999999998</ele><time>2026-03-22T10:43:31.001Z</time></trkpt><trkpt lat="24.702711815772957" lon="120.87000770216191"><ele>13.0</ele><time>2026-03-22T10:43:32.001Z</time></trkpt><trkpt lat="24.7027438814264" lon="120.87008953862745"><ele>13.0</ele><time>2026-03-22T10:43:33.001Z</time></trkpt><trkpt lat="24.70277455174671" lon="120.87016886736842"><ele>13.0</ele><time>2026-03-22T10:43:34.001Z</time></trkpt><trkpt lat="24.702805227508637" lon="120.87024841642972"><ele>12.999999999999998</ele><time>2026-03-22T10:43:35.001Z</time></trkpt><trkpt lat="24.70283789440504" lon="120.87033082191606"><ele>13.0</ele><time>2026-03-22T10:43:36.001Z</time></trkpt><trkpt lat="24.702869492683405" lon="120.87040903501294"><ele>12.499999999999998</ele><time>2026-03-22T10:43:37.001Z</time></trkpt><trkpt lat="24.702901083534822" lon="120.87048968357665"><ele>12.0</ele><time>2026-03-22T10:43:38.001Z</time></trkpt><trkpt lat="24.702933840300254" lon="120.87057283973942"><ele>11.5</ele><time>2026-03-22T10:43:39.001Z</time></trkpt><trkpt lat="24.702966593361353" lon="120.87065526166862"><ele>11.0</ele><time>2026-03-22T10:43:40.001Z</time></trkpt><trkpt lat="24.70299933989265" lon="120.8707394687927"><ele>10.5</ele><time>2026-03-22T10:43:41.001Z</time></trkpt><trkpt lat="24.703031727080766" lon="120.8708233040415"><ele>10.0</ele><time>2026-03-22T10:43:42.001Z</time></trkpt><trkpt lat="24.703064227812643" lon="120.8709064767547"><ele>10.333333333333334</ele><time>2026-03-22T10:43:43.001Z</time></trkpt><trkpt lat="24.70309586911709" lon="120.87098884595805"><ele>10.666666666666668</ele><time>2026-03-22T10:43:44.001Z</time></trkpt><trkpt lat="24.703127588141417" lon="120.87107098760094"><ele>11.0</ele><time>2026-03-22T10:43:45.001Z</time></trkpt><trkpt lat="24.703159453961643" lon="120.87115121656299"><ele>11.333333333333334</ele><time>2026-03-22T10:43:46.001Z</time></trkpt><trkpt lat="24.703191174971753" lon="120.87123365620502"><ele>11.666666666666666</ele><time>2026-03-22T10:43:47.001Z</time></trkpt><trkpt lat="24.703223211542273" lon="120.87131474023631"><ele>12.0</ele><time>2026-03-22T10:43:48.001Z</time></trkpt><trkpt lat="24.7032552805587" lon="120.87139345896426"><ele>12.0</ele><time>2026-03-22T10:43:49.001Z</time></trkpt><trkpt lat="24.703287365163664" lon="120.87147127856542"><ele>12.0</ele><time>2026-03-22T10:43:50.001Z</time></trkpt><trkpt lat="24.703318928496632" lon="120.87154851638114"><ele>12.0</ele><time>2026-03-22T10:43:51.001Z</time></trkpt><trkpt lat="24.703350002306408" lon="120.87162581118132"><ele>12.0</ele><time>2026-03-22T10:43:52.001Z</time></trkpt><trkpt lat="24.703379880766246" lon="120.8717041910798"><ele>12.0</ele><time>2026-03-22T10:43:53.001Z</time></trkpt><trkpt lat="24.703410362017806" lon="120.87178278937111"><ele>12.0</ele><time>2026-03-22T10:43:54.001Z</time></trkpt><trkpt lat="24.703441166636576" lon="120.87186206999263"><ele>12.5</ele><time>2026-03-22T10:43:55.001Z</time></trkpt><trkpt lat="24.70347226091389" lon="120.87194404616086"><ele>13.0</ele><time>2026-03-22T10:43:56.001Z</time></trkpt><trkpt lat="24.703504141205105" lon="120.872028808925"><ele>13.5</ele><time>2026-03-22T10:43:57.001Z</time></trkpt><trkpt lat="24.70353656709775" lon="120.87211412717278"><ele>14.0</ele><time>2026-03-22T10:43:58.001Z</time></trkpt><trkpt lat="24.703569983016482" lon="120.87219977145647"><ele>14.5</ele><time>2026-03-22T10:43:59.001Z</time></trkpt><trkpt lat="24.70360307687378" lon="120.87228354496419"><ele>15.0</ele><time>2026-03-22T10:44:00.001Z</time></trkpt><trkpt lat="24.703636165443875" lon="120.87236666926592"><ele>15.0</ele><time>2026-03-22T10:44:01.001Z</time></trkpt><trkpt lat="24.70367146974597" lon="120.87245316166808"><ele>15.0</ele><time>2026-03-22T10:44:02.001Z</time></trkpt><trkpt lat="24.703707352193597" lon="120.87254331367883"><ele>15.0</ele><time>2026-03-22T10:44:03.001Z</time></trkpt><trkpt lat="24.70374284476704" lon="120.87263264803572"><ele>15.0</ele><time>2026-03-22T10:44:04.001Z</time></trkpt><trkpt lat="24.703778168938175" lon="120.8727223743025"><ele>15.0</ele><time>2026-03-22T10:44:05.001Z</time></trkpt><trkpt lat="24.703812858324955" lon="120.87281028827961"><ele>15.0</ele><time>2026-03-22T10:44:06.001Z</time></trkpt><trkpt lat="24.703847389111516" lon="120.87289918869439"><ele>14.8</ele><time>2026-03-22T10:44:07.001Z</time></trkpt><trkpt lat="24.703881677280183" lon="120.87298839887858"><ele>14.6</ele><time>2026-03-22T10:44:08.001Z</time></trkpt><trkpt lat="24.703916788320285" lon="120.87307927286004"><ele>14.399999999999999</ele><time>2026-03-22T10:44:09.001Z</time></trkpt><trkpt lat="24.703951984578637" lon="120.87317064144895"><ele>14.2</ele><time>2026-03-22T10:44:10.001Z</time></trkpt><trkpt lat="24.703987384000907" lon="120.87326423479507"><ele>14.0</ele><time>2026-03-22T10:44:11.001Z</time></trkpt><trkpt lat="24.70402472096222" lon="120.87335936290319"><ele>14.2</ele><time>2026-03-22T10:44:12.001Z</time></trkpt><trkpt lat="24.704062142000282" lon="120.87345646582864"><ele>14.399999999999999</ele><time>2026-03-22T10:44:13.001Z</time></trkpt><trkpt lat="24.704099086859564" lon="120.87354919696209"><ele>14.6</ele><time>2026-03-22T10:44:14.001Z</time></trkpt><trkpt lat="24.704136564191483" lon="120.87364193083768"><ele>14.8</ele><time>2026-03-22T10:44:15.001Z</time></trkpt><trkpt lat="24.704175401003585" lon="120.8737383435403"><ele>15.0</ele><time>2026-03-22T10:44:16.001Z</time></trkpt><trkpt lat="24.704214731343917" lon="120.87383821902603"><ele>15.0</ele><time>2026-03-22T10:44:17.001Z</time></trkpt><trkpt lat="24.70425493604305" lon="120.87393995721443"><ele>15.0</ele><time>2026-03-22T10:44:18.001Z</time></trkpt><trkpt lat="24.70429490561278" lon="120.87404090361254"><ele>15.0</ele><time>2026-03-22T10:44:19.001Z</time></trkpt><trkpt lat="24.70433483933981" lon="120.8741411980238"><ele>15.0</ele><time>2026-03-22T10:44:20.001Z</time></trkpt><trkpt lat="24.70437571354126" lon="120.87424366459179"><ele>15.0</ele><time>2026-03-22T10:44:21.001Z</time></trkpt><trkpt lat="24.704416354039406" lon="120.87434708159479"><ele>15.4</ele><time>2026-03-22T10:44:22.001Z</time></trkpt><trkpt lat="24.704455285236918" lon="120.87444624184705"><ele>15.8</ele><time>2026-03-22T10:44:23.001Z</time></trkpt><trkpt lat="24.70449513078028" lon="120.87454749227045"><ele>16.2</ele><time>2026-03-22T10:44:24.001Z</time></trkpt><trkpt lat="24.704534266385277" lon="120.8746474208407"><ele>16.6</ele><time>2026-03-22T10:44:25.001Z</time></trkpt><trkpt lat="24.70457339853294" lon="120.87474759937169"><ele>17.0</ele><time>2026-03-22T10:44:26.001Z</time></trkpt><trkpt lat="24.704612219989677" lon="120.87484727209068"><ele>17.0</ele><time>2026-03-22T10:44:27Z</time></trkpt><trkpt lat="24.704652962883987" lon="120.87494970296392"><ele>17.0</ele><time>2026-03-22T10:44:28Z</time></trkpt><trkpt lat="24.704691966239075" lon="120.87505127673865"><ele>17.0</ele><time>2026-03-22T10:44:29Z</time></trkpt><trkpt lat="24.70473065256575" lon="120.8751518914222"><ele>17.0</ele><time>2026-03-22T10:44:30Z</time></trkpt><trkpt lat="24.704767591852903" lon="120.87525049840562"><ele>17.0</ele><time>2026-03-22T10:44:31Z</time></trkpt><trkpt lat="24.704804168360422" lon="120.87534727404548"><ele>17.833333333333336</ele><time>2026-03-22T10:44:32Z</time></trkpt><trkpt lat="24.704840324254757" lon="120.87544358869349"><ele>18.666666666666668</ele><time>2026-03-22T10:44:33Z</time></trkpt><trkpt lat="24.70487515062494" lon="120.87553350481618"><ele>19.5</ele><time>2026-03-22T10:44:34Z</time></trkpt><trkpt lat="24.704909172955794" lon="120.87562220191177"><ele>20.333333333333332</ele><time>2026-03-22T10:44:35Z</time></trkpt><trkpt lat="24.704942205764063" lon="120.87570959373024"><ele>21.166666666666664</ele><time>2026-03-22T10:44:36Z</time></trkpt><trkpt lat="24.70497577555477" lon="120.87579338619447"><ele>22.0</ele><time>2026-03-22T10:44:37Z</time></trkpt><trkpt lat="24.705009051022657" lon="120.87587828611072"><ele>22.5</ele><time>2026-03-22T10:44:38Z</time></trkpt><trkpt lat="24.705043995720366" lon="120.87596352961305"><ele>23.0</ele><time>2026-03-22T10:44:39Z</time></trkpt><trkpt lat="24.70507761789351" lon="120.87604664747539"><ele>23.5</ele><time>2026-03-22T10:44:40Z</time></trkpt><trkpt lat="24.70511061718696" lon="120.87613094562596"><ele>24.0</ele><time>2026-03-22T10:44:41Z</time></trkpt><trkpt lat="24.705142117393102" lon="120.8762086689888"><ele>24.500000000000004</ele><time>2026-03-22T10:44:42Z</time></trkpt><trkpt lat="24.705171840850536" lon="120.87628569600771"><ele>25.0</ele><time>2026-03-22T10:44:43Z</time></trkpt><trkpt lat="24.705201714281763" lon="120.87636020149417"><ele>25.000000000000004</ele><time>2026-03-22T10:44:44Z</time></trkpt><trkpt lat="24.705230251300705" lon="120.87643417708891"><ele>25.0</ele><time>2026-03-22T10:44:45Z</time></trkpt><trkpt lat="24.705259060612565" lon="120.87650998703519"><ele>25.0</ele><time>2026-03-22T10:44:46Z</time></trkpt><trkpt lat="24.705291215524117" lon="120.8765900166875"><ele>25.0</ele><time>2026-03-22T10:44:47Z</time></trkpt><trkpt lat="24.705324244810058" lon="120.87667581402098"><ele>25.000000000000004</ele><time>2026-03-22T10:44:48Z</time></trkpt><trkpt lat="24.70535898994013" lon="120.87676636668004"><ele>25.0</ele><time>2026-03-22T10:44:49Z</time></trkpt><trkpt lat="24.70539593900977" lon="120.8768605300366"><ele>24.8</ele><time>2026-03-22T10:44:50Z</time></trkpt><trkpt lat="24.70543503771137" lon="120.87695830980343"><ele>24.6</ele><time>2026-03-22T10:44:51Z</time></trkpt><trkpt lat="24.70547466268063" lon="120.87705501438997"><ele>24.4</ele><time>2026-03-22T10:44:52Z</time></trkpt><trkpt lat="24.70551318102307" lon="120.87715030422196"><ele>24.2</ele><time>2026-03-22T10:44:53Z</time></trkpt><trkpt lat="24.705551364863634" lon="120.87724711400405"><ele>24.0</ele><time>2026-03-22T10:44:54Z</time></trkpt><trkpt lat="24.705591364497895" lon="120.87734853524472"><ele>24.0</ele><time>2026-03-22T10:44:55Z</time></trkpt><trkpt lat="24.70563062011647" lon="120.87745142434649"><ele>24.0</ele><time>2026-03-22T10:44:56Z</time></trkpt><trkpt lat="24.705671467263624" lon="120.87755344493613"><ele>24.0</ele><time>2026-03-22T10:44:57Z</time></trkpt><trkpt lat="24.70571203172855" lon="120.87765610736503"><ele>24.0</ele><time>2026-03-22T10:44:58Z</time></trkpt><trkpt lat="24.705751308913964" lon="120.8777577089619"><ele>24.0</ele><time>2026-03-22T10:44:59Z</time></trkpt><trkpt lat="24.705791995377535" lon="120.87785942948665"><ele>23.6</ele><time>2026-03-22T10:45:00Z</time></trkpt><trkpt lat="24.705831879800158" lon="120.87796249898804"><ele>23.2</ele><time>2026-03-22T10:45:01Z</time></trkpt><trkpt lat="24.70587099246197" lon="120.87806252412015"><ele>22.8</ele><time>2026-03-22T10:45:02Z</time></trkpt><trkpt lat="24.705910253034155" lon="120.87816344788745"><ele>22.400000000000002</ele><time>2026-03-22T10:45:03Z</time></trkpt><trkpt lat="24.705949716979013" lon="120.87826339127709"><ele>22.0</ele><time>2026-03-22T10:45:04Z</time></trkpt><trkpt lat="24.705987782040015" lon="120.8783600242179"><ele>20.8</ele><time>2026-03-22T10:45:05Z</time></trkpt><trkpt lat="24.706026017836283" lon="120.87845583000423"><ele>19.6</ele><time>2026-03-22T10:45:06Z</time></trkpt><trkpt lat="24.70606389878577" lon="120.87855170914024"><ele>18.400000000000002</ele><time>2026-03-22T10:45:07Z</time></trkpt><trkpt lat="24.706102471693466" lon="120.87864849983418"><ele>17.200000000000003</ele><time>2026-03-22T10:45:08Z</time></trkpt><trkpt lat="24.706142656516263" lon="120.87875034108396"><ele>16.0</ele><time>2026-03-22T10:45:09Z</time></trkpt><trkpt lat="24.7061826121621" lon="120.87885518210565"><ele>15.5</ele><time>2026-03-22T10:45:10Z</time></trkpt><trkpt lat="24.70622465992935" lon="120.87896458815803"><ele>15.0</ele><time>2026-03-22T10:45:11Z</time></trkpt><trkpt lat="24.70626890817291" lon="120.87907847831424"><ele>14.5</ele><time>2026-03-22T10:45:12Z</time></trkpt><trkpt lat="24.70631514202987" lon="120.8791952645371"><ele>14.0</ele><time>2026-03-22T10:45:13Z</time></trkpt><trkpt lat="24.706364298554718" lon="120.8793143541311"><ele>13.75</ele><time>2026-03-22T10:45:14Z</time></trkpt><trkpt lat="24.706413633310735" lon="120.87943498021043"><ele>13.5</ele><time>2026-03-22T10:45:15Z</time></trkpt><trkpt lat="24.706461319079484" lon="120.87955709402077"><ele>13.25</ele><time>2026-03-22T10:45:16Z</time></trkpt><trkpt lat="24.706508064156594" lon="120.87967875597572"><ele>13.0</ele><time>2026-03-22T10:45:17Z</time></trkpt><trkpt lat="24.706553339403698" lon="120.87979934595408"><ele>13.0</ele><time>2026-03-22T10:45:18Z</time></trkpt><trkpt lat="24.706601670788658" lon="120.8799200156107"><ele>13.0</ele><time>2026-03-22T10:45:19Z</time></trkpt><trkpt lat="24.706650222753854" lon="120.88004250449187"><ele>13.0</ele><time>2026-03-22T10:45:20Z</time></trkpt><trkpt lat="24.706699652689327" lon="120.88016890415307"><ele>13.0</ele><time>2026-03-22T10:45:21Z</time></trkpt><trkpt lat="24.706751123503192" lon="120.88030166156851"><ele>14.0</ele><time>2026-03-22T10:45:22Z</time></trkpt><trkpt lat="24.706804923799382" lon="120.8804418294313"><ele>15.0</ele><time>2026-03-22T10:45:23Z</time></trkpt><trkpt lat="24.706858926587703" lon="120.88058332804285"><ele>16.0</ele><time>2026-03-22T10:45:24Z</time></trkpt><trkpt lat="24.70691328431463" lon="120.88072177567402"><ele>17.0</ele><time>2026-03-22T10:45:25Z</time></trkpt><trkpt lat="24.706968542007562" lon="120.88086253619059"><ele>19.0</ele><time>2026-03-22T10:45:26Z</time></trkpt><trkpt lat="24.707026733431487" lon="120.88101086673439"><ele>21.0</ele><time>2026-03-22T10:45:27Z</time></trkpt><trkpt lat="24.70708644591552" lon="120.88116160882923"><ele>23.0</ele><time>2026-03-22T10:45:28Z</time></trkpt><trkpt lat="24.70714789824158" lon="120.8813173399171"><ele>23.0</ele><time>2026-03-22T10:45:29Z</time></trkpt><trkpt lat="24.707210230517283" lon="120.88147515186736"><ele>23.0</ele><time>2026-03-22T10:45:30Z</time></trkpt><trkpt lat="24.70727324977356" lon="120.88163579319819"><ele>23.0</ele><time>2026-03-22T10:45:31Z</time></trkpt><trkpt lat="24.70733735439292" lon="120.88179878551861"><ele>23.666666666666668</ele><time>2026-03-22T10:45:32Z</time></trkpt><trkpt lat="24.707403937907653" lon="120.88196196033572"><ele>24.333333333333336</ele><time>2026-03-22T10:45:33Z</time></trkpt><trkpt lat="24.707472672736337" lon="120.8821263220834"><ele>25.0</ele><time>2026-03-22T10:45:34Z</time></trkpt><trkpt lat="24.707541867588578" lon="120.88229156330704"><ele>25.0</ele><time>2026-03-22T10:45:35Z</time></trkpt><trkpt lat="24.707609556193994" lon="120.88245503836792"><ele>25.0</ele><time>2026-03-22T10:45:36Z</time></trkpt><trkpt lat="24.707676143801734" lon="120.882614252414"><ele>25.0</ele><time>2026-03-22T10:45:37Z</time></trkpt><trkpt lat="24.707741323602104" lon="120.88277133568968"><ele>25.333333333333336</ele><time>2026-03-22T10:45:38Z</time></trkpt><trkpt lat="24.707805577789284" lon="120.88292553928623"><ele>25.666666666666664</ele><time>2026-03-22T10:45:39Z</time></trkpt><trkpt lat="24.70786845969738" lon="120.8830789042449"><ele>26.0</ele><time>2026-03-22T10:45:40Z</time></trkpt><trkpt lat="24.707931643234875" lon="120.8832295834835"><ele>26.0</ele><time>2026-03-22T10:45:41Z</time></trkpt><trkpt lat="24.707997216568934" lon="120.8833821097057"><ele>26.0</ele><time>2026-03-22T10:45:42Z</time></trkpt><trkpt lat="24.708062708267622" lon="120.88353590147254"><ele>26.0</ele><time>2026-03-22T10:45:43Z</time></trkpt><trkpt lat="24.708128175234645" lon="120.88368712416109"><ele>26.333333333333332</ele><time>2026-03-22T10:45:44Z</time></trkpt><trkpt lat="24.708193325083037" lon="120.88383755788966"><ele>26.666666666666664</ele><time>2026-03-22T10:45:45Z</time></trkpt><trkpt lat="24.708262631288886" lon="120.88399285512268"><ele>27.0</ele><time>2026-03-22T10:45:46Z</time></trkpt><trkpt lat="24.708330285087545" lon="120.88414796417224"><ele>28.0</ele><time>2026-03-22T10:45:47Z</time></trkpt><trkpt lat="24.708400728374333" lon="120.88430518705736"><ele>29.0</ele><time>2026-03-22T10:45:48Z</time></trkpt><trkpt lat="24.708470296882858" lon="120.88446146491617"><ele>30.0</ele><time>2026-03-22T10:45:49Z</time></trkpt><trkpt lat="24.70854198358345" lon="120.88461837635913"><ele>29.0</ele><time>2026-03-22T10:45:50Z</time></trkpt><trkpt lat="24.708614461898538" lon="120.8847758773492"><ele>28.0</ele><time>2026-03-22T10:45:51Z</time></trkpt><trkpt lat="24.708687081642893" lon="120.88493142800505"><ele>27.0</ele><time>2026-03-22T10:45:52Z</time></trkpt><trkpt lat="24.70876037143571" lon="120.88508731307869"><ele>27.666666666666664</ele><time>2026-03-22T10:45:53Z</time></trkpt><trkpt lat="24.708833329587623" lon="120.88524197274575"><ele>28.333333333333332</ele><time>2026-03-22T10:45:54Z</time></trkpt><trkpt lat="24.70890752757821" lon="120.88539777955225"><ele>29.0</ele><time>2026-03-22T10:45:55Z</time></trkpt><trkpt lat="24.70898180801381" lon="120.88555292796984"><ele>29.0</ele><time>2026-03-22T10:45:56Z</time></trkpt><trkpt lat="24.70905913665404" lon="120.88570955608209"><ele>29.0</ele><time>2026-03-22T10:45:57Z</time></trkpt><trkpt lat="24.70913667522139" lon="120.88586536387041"><ele>29.0</ele><time>2026-03-22T10:45:58Z</time></trkpt><trkpt lat="24.70921436756613" lon="120.88602011116501"><ele>30.0</ele><time>2026-03-22T10:45:59Z</time></trkpt><trkpt lat="24.709292764581683" lon="120.88617423017885"><ele>31.0</ele><time>2026-03-22T10:46:00Z</time></trkpt><trkpt lat="24.70937254216622" lon="120.8863271465172"><ele>32.0</ele><time>2026-03-22T10:46:01Z</time></trkpt><trkpt lat="24.70945344273804" lon="120.88648060742936"><ele>32.0</ele><time>2026-03-22T10:46:02Z</time></trkpt><trkpt lat="24.709534785104132" lon="120.88663421466678"><ele>32.0</ele><time>2026-03-22T10:46:03Z</time></trkpt><trkpt lat="24.709617348833998" lon="120.88678995947288"><ele>32.0</ele><time>2026-03-22T10:46:04.001Z</time></trkpt><trkpt lat="24.709700979995713" lon="120.88694593757106"><ele>30.333333333333332</ele><time>2026-03-22T10:46:05.001Z</time></trkpt><trkpt lat="24.709787267246302" lon="120.88710371305513"><ele>28.666666666666664</ele><time>2026-03-22T10:46:06.001Z</time></trkpt><trkpt lat="24.70987629108751" lon="120.88726159501901"><ele>27.0</ele><time>2026-03-22T10:46:07.001Z</time></trkpt><trkpt lat="24.709967126629042" lon="120.8874222810333"><ele>27.0</ele><time>2026-03-22T10:46:08.001Z</time></trkpt><trkpt lat="24.71006067066888" lon="120.88758411004488"><ele>27.0</ele><time>2026-03-22T10:46:09.001Z</time></trkpt><trkpt lat="24.710156622768828" lon="120.88774680971798"><ele>27.0</ele><time>2026-03-22T10:46:10.001Z</time></trkpt><trkpt lat="24.710253470016006" lon="120.88791270834874"><ele>27.333333333333336</ele><time>2026-03-22T10:46:11.001Z</time></trkpt><trkpt lat="24.7103515493608" lon="120.88807919291324"><ele>27.666666666666668</ele><time>2026-03-22T10:46:12.001Z</time></trkpt><trkpt lat="24.710452832952278" lon="120.88824683695012"><ele>28.0</ele><time>2026-03-22T10:46:13.001Z</time></trkpt><trkpt lat="24.710556424602977" lon="120.88841549111545"><ele>28.333333333333336</ele><time>2026-03-22T10:46:14.001Z</time></trkpt><trkpt lat="24.710660094852617" lon="120.88858079319242"><ele>28.666666666666664</ele><time>2026-03-22T10:46:15.001Z</time></trkpt><trkpt lat="24.71076292718916" lon="120.88874337192061"><ele>29.0</ele><time>2026-03-22T10:46:16.001Z</time></trkpt><trkpt lat="24.710867033420797" lon="120.8889051892567"><ele>29.0</ele><time>2026-03-22T10:46:17Z</time></trkpt><trkpt lat="24.71097337082909" lon="120.88906866650235"><ele>29.0</ele><time>2026-03-22T10:46:18Z</time></trkpt><trkpt lat="24.711080889178003" lon="120.88923570728622"><ele>29.0</ele><time>2026-03-22T10:46:19Z</time></trkpt><trkpt lat="24.711191633094522" lon="120.88940122710397"><ele>30.333333333333332</ele><time>2026-03-22T10:46:20Z</time></trkpt><trkpt lat="24.711304685330127" lon="120.88956768753339"><ele>31.666666666666664</ele><time>2026-03-22T10:46:21Z</time></trkpt><trkpt lat="24.711419785018077" lon="120.88973613315676"><ele>33.0</ele><time>2026-03-22T10:46:22Z</time></trkpt><trkpt lat="24.711536640765136" lon="120.88990406935491"><ele>33.0</ele><time>2026-03-22T10:46:23Z</time></trkpt><trkpt lat="24.711658242918425" lon="120.89007521884766"><ele>33.0</ele><time>2026-03-22T10:46:24Z</time></trkpt><trkpt lat="24.711780268112843" lon="120.89024538690083"><ele>33.0</ele><time>2026-03-22T10:46:25Z</time></trkpt><trkpt lat="24.711904191411726" lon="120.89041600655928"><ele>33.333333333333336</ele><time>2026-03-22T10:46:26Z</time></trkpt><trkpt lat="24.712029289902016" lon="120.89058787554687"><ele>33.66666666666667</ele><time>2026-03-22T10:46:27Z</time></trkpt><trkpt lat="24.712155061581253" lon="120.89075677666666"><ele>34.0</ele><time>2026-03-22T10:46:28Z</time></trkpt><trkpt lat="24.712280511190453" lon="120.89092163029883"><ele>34.333333333333336</ele><time>2026-03-22T10:46:29Z</time></trkpt><trkpt lat="24.7124042684312" lon="120.89108321179827"><ele>34.666666666666664</ele><time>2026-03-22T10:46:30Z</time></trkpt><trkpt lat="24.712526311502504" lon="120.89124207253455"><ele>35.0</ele><time>2026-03-22T10:46:31Z</time></trkpt><trkpt lat="24.712649168303617" lon="120.89139930006131"><ele>35.0</ele><time>2026-03-22T10:46:32Z</time></trkpt><trkpt lat="24.712774919698067" lon="120.89155656931258"><ele>35.0</ele><time>2026-03-22T10:46:33Z</time></trkpt><trkpt lat="24.71290335453628" lon="120.89171283665166"><ele>35.0</ele><time>2026-03-22T10:46:34Z</time></trkpt><trkpt lat="24.713033774842437" lon="120.89186842120088"><ele>34.666666666666664</ele><time>2026-03-22T10:46:35Z</time></trkpt><trkpt lat="24.71316690590603" lon="120.89202582803487"><ele>34.333333333333336</ele><time>2026-03-22T10:46:36Z</time></trkpt><trkpt lat="24.713301404527414" lon="120.89218479568115"><ele>34.0</ele><time>2026-03-22T10:46:37Z</time></trkpt><trkpt lat="24.713439549100116" lon="120.89234409634419"><ele>36.0</ele><time>2026-03-22T10:46:38Z</time></trkpt><trkpt lat="24.713581833555597" lon="120.89250624638693"><ele>38.0</ele><time>2026-03-22T10:46:39Z</time></trkpt><trkpt lat="24.713725461242205" lon="120.89266769039028"><ele>40.0</ele><time>2026-03-22T10:46:40Z</time></trkpt><trkpt lat="24.71387113072657" lon="120.89283067589629"><ele>40.66666666666667</ele><time>2026-03-22T10:46:41Z</time></trkpt><trkpt lat="24.71401899603255" lon="120.8929940303804"><ele>41.333333333333336</ele><time>2026-03-22T10:46:42Z</time></trkpt><trkpt lat="24.714169838875005" lon="120.89315804587666"><ele>42.0</ele><time>2026-03-22T10:46:43Z</time></trkpt><trkpt lat="24.714324308449193" lon="120.89332267523399"><ele>42.0</ele><time>2026-03-22T10:46:44Z</time></trkpt><trkpt lat="24.714480152443905" lon="120.8934873373986"><ele>42.0</ele><time>2026-03-22T10:46:45Z</time></trkpt><trkpt lat="24.71463855066164" lon="120.89365170315676"><ele>42.0</ele><time>2026-03-22T10:46:46Z</time></trkpt><trkpt lat="24.71479955162076" lon="120.89381811804208"><ele>42.0</ele><time>2026-03-22T10:46:47Z</time></trkpt><trkpt lat="24.71496071473314" lon="120.89397793486864"><ele>42.0</ele><time>2026-03-22T10:46:48Z</time></trkpt><trkpt lat="24.7151214053802" lon="120.89413615792684"><ele>42.0</ele><time>2026-03-22T10:46:49Z</time></trkpt><trkpt lat="24.715284146380608" lon="120.89429427922572"><ele>43.0</ele><time>2026-03-22T10:46:50Z</time></trkpt><trkpt lat="24.71544814224901" lon="120.8944513350641"><ele>44.0</ele><time>2026-03-22T10:46:51Z</time></trkpt><trkpt lat="24.71561403234489" lon="120.89460771950287"><ele>45.0</ele><time>2026-03-22T10:46:52Z</time></trkpt><trkpt lat="24.715781911229264" lon="120.89476233308464"><ele>45.0</ele><time>2026-03-22T10:46:53Z</time></trkpt><trkpt lat="24.71595133490779" lon="120.89491637419408"><ele>45.0</ele><time>2026-03-22T10:46:54Z</time></trkpt><trkpt lat="24.716122430457418" lon="120.89507004686395"><ele>45.0</ele><time>2026-03-22T10:46:55Z</time></trkpt><trkpt lat="24.71629043672115" lon="120.89521958334224"><ele>45.333333333333336</ele><time>2026-03-22T10:46:56Z</time></trkpt><trkpt lat="24.716458701826006" lon="120.89536611462148"><ele>45.66666666666667</ele><time>2026-03-22T10:46:57Z</time></trkpt><trkpt lat="24.71662729044495" lon="120.89550846136508"><ele>46.0</ele><time>2026-03-22T10:46:58Z</time></trkpt><trkpt lat="24.716795842058797" lon="120.89565213089709"><ele>48.0</ele><time>2026-03-22T10:46:59Z</time></trkpt><trkpt lat="24.716963253299102" lon="120.89579563939283"><ele>50.0</ele><time>2026-03-22T10:47:00Z</time></trkpt><trkpt lat="24.717131524065774" lon="120.89593750591524"><ele>52.0</ele><time>2026-03-22T10:47:01Z</time></trkpt><trkpt lat="24.71730239126812" lon="120.89607608222089"><ele>52.666666666666664</ele><time>2026-03-22T10:47:02Z</time></trkpt><trkpt lat="24.7174743654628" lon="120.89621581538387"><ele>53.33333333333333</ele><time>2026-03-22T10:47:03Z</time></trkpt><trkpt lat="24.717648119239065" lon="120.89635385252834"><ele>54.0</ele><time>2026-03-22T10:47:04Z</time></trkpt><trkpt lat="24.717822127435483" lon="120.8964912615007"><ele>56.0</ele><time>2026-03-22T10:47:05Z</time></trkpt><trkpt lat="24.71799699950016" lon="120.8966276032014"><ele>58.0</ele><time>2026-03-22T10:47:06Z</time></trkpt><trkpt lat="24.718172967167902" lon="120.89676278220433"><ele>60.0</ele><time>2026-03-22T10:47:07Z</time></trkpt><trkpt lat="24.718350472494237" lon="120.89689852649745"><ele>61.66666666666667</ele><time>2026-03-22T10:47:08Z</time></trkpt><trkpt lat="24.71852962284139" lon="120.89703516186812"><ele>63.333333333333336</ele><time>2026-03-22T10:47:09Z</time></trkpt><trkpt lat="24.71871020051166" lon="120.89717090652728"><ele>65.0</ele><time>2026-03-22T10:47:10Z</time></trkpt><trkpt lat="24.71889291940911" lon="120.89730672460732"><ele>65.33333333333334</ele><time>2026-03-22T10:47:11Z</time></trkpt><trkpt lat="24.719077316059344" lon="120.8974428387766"><ele>65.66666666666667</ele><time>2026-03-22T10:47:12Z</time></trkpt><trkpt lat="24.71926371593268" lon="120.89757789674586"><ele>66.0</ele><time>2026-03-22T10:47:13Z</time></trkpt><trkpt lat="24.719452598949275" lon="120.89771296849607"><ele>68.0</ele><time>2026-03-22T10:47:14Z</time></trkpt><trkpt lat="24.71964241471334" lon="120.89784383141173"><ele>70.0</ele><time>2026-03-22T10:47:15Z</time></trkpt><trkpt lat="24.719834222935805" lon="120.89797636878353"><ele>70.0</ele><time>2026-03-22T10:47:16Z</time></trkpt><trkpt lat="24.720029736600527" lon="120.89810632472087"><ele>70.0</ele><time>2026-03-22T10:47:17Z</time></trkpt><trkpt lat="24.720226095337534" lon="120.89823653285279"><ele>70.5</ele><time>2026-03-22T10:47:18Z</time></trkpt><trkpt lat="24.720424871231035" lon="120.898366324606"><ele>71.0</ele><time>2026-03-22T10:47:19Z</time></trkpt><trkpt lat="24.72062443154753" lon="120.89848993056887"><ele>70.0</ele><time>2026-03-22T10:47:20Z</time></trkpt><trkpt lat="24.720823904853074" lon="120.89862454797364"><ele>69.0</ele><time>2026-03-22T10:47:21Z</time></trkpt><trkpt lat="24.7210174888449" lon="120.89875229410484"><ele>66.5</ele><time>2026-03-22T10:47:22Z</time></trkpt><trkpt lat="24.721217560008142" lon="120.89887786305069"><ele>64.0</ele><time>2026-03-22T10:47:23Z</time></trkpt><trkpt lat="24.721411084198817" lon="120.89901055000352"><ele>64.0</ele><time>2026-03-22T10:47:24Z</time></trkpt><trkpt lat="24.721610030355624" lon="120.89913403677608"><ele>64.0</ele><time>2026-03-22T10:47:25Z</time></trkpt><trkpt lat="24.721809523373125" lon="120.89925504354193"><ele>64.33333333333333</ele><time>2026-03-22T10:47:26Z</time></trkpt><trkpt lat="24.72200164401539" lon="120.89937082355452"><ele>64.66666666666667</ele><time>2026-03-22T10:47:27Z</time></trkpt><trkpt lat="24.722201360161616" lon="120.89948250896862"><ele>65.0</ele><time>2026-03-22T10:47:28Z</time></trkpt><trkpt lat="24.722395561129417" lon="120.8995998432205"><ele>65.0</ele><time>2026-03-22T10:47:29Z</time></trkpt><trkpt lat="24.72258601133352" lon="120.89971409617786"><ele>65.0</ele><time>2026-03-22T10:47:30Z</time></trkpt><trkpt lat="24.722779479492456" lon="120.89983067756712"><ele>65.0</ele><time>2026-03-22T10:47:31Z</time></trkpt><trkpt lat="24.72297047461782" lon="120.89993254284362"><ele>63.5</ele><time>2026-03-22T10:47:32Z</time></trkpt><trkpt lat="24.72317191259105" lon="120.9000531638222"><ele>62.0</ele><time>2026-03-22T10:47:33Z</time></trkpt><trkpt lat="24.723371625615904" lon="120.9001707949875"><ele>55.0</ele><time>2026-03-22T10:47:34Z</time></trkpt><trkpt lat="24.723571667262703" lon="120.90028758534753"><ele>48.0</ele><time>2026-03-22T10:47:35Z</time></trkpt><trkpt lat="24.723770391951327" lon="120.90041210193259"><ele>48.0</ele><time>2026-03-22T10:47:36Z</time></trkpt><trkpt lat="24.7239694492343" lon="120.90053104286052"><ele>48.0</ele><time>2026-03-22T10:47:37Z</time></trkpt><trkpt lat="24.72417720499962" lon="120.90062580914002"><ele>48.0</ele><time>2026-03-22T10:47:38Z</time></trkpt><trkpt lat="24.724378854507215" lon="120.90074623913668"><ele>48.0</ele><time>2026-03-22T10:47:39Z</time></trkpt><trkpt lat="24.72457677050585" lon="120.90083900744646"><ele>48.0</ele><time>2026-03-22T10:47:40Z</time></trkpt><trkpt lat="24.72477538393136" lon="120.90095236685536"><ele>45.0</ele><time>2026-03-22T10:47:41Z</time></trkpt><trkpt lat="24.724975768944102" lon="120.90106497147976"><ele>42.0</ele><time>2026-03-22T10:47:42Z</time></trkpt><trkpt lat="24.725180083397994" lon="120.90117514893004"><ele>36.5</ele><time>2026-03-22T10:47:43Z</time></trkpt><trkpt lat="24.725385154908448" lon="120.90129658465119"><ele>31.0</ele><time>2026-03-22T10:47:44Z</time></trkpt><trkpt lat="24.7255890934595" lon="120.90141468592894"><ele>31.0</ele><time>2026-03-22T10:47:45Z</time></trkpt><trkpt lat="24.725794270817456" lon="120.90153645623444"><ele>31.0</ele><time>2026-03-22T10:47:46Z</time></trkpt><trkpt lat="24.725997417164685" lon="120.90165003960713"><ele>32.0</ele><time>2026-03-22T10:47:47Z</time></trkpt><trkpt lat="24.72620020065567" lon="120.90176153594292"><ele>33.0</ele><time>2026-03-22T10:47:48Z</time></trkpt><trkpt lat="24.726410431681597" lon="120.90187247191022"><ele>33.0</ele><time>2026-03-22T10:47:49Z</time></trkpt><trkpt lat="24.72661790162525" lon="120.90198260830417"><ele>33.0</ele><time>2026-03-22T10:47:50Z</time></trkpt><trkpt lat="24.72682956909509" lon="120.90210217574855"><ele>37.5</ele><time>2026-03-22T10:47:51Z</time></trkpt><trkpt lat="24.7270417613086" lon="120.90222347973662"><ele>42.0</ele><time>2026-03-22T10:47:52Z</time></trkpt><trkpt lat="24.72725061918491" lon="120.90234581958072"><ele>42.0</ele><time>2026-03-22T10:47:53Z</time></trkpt><trkpt lat="24.727458481591533" lon="120.90246956744926"><ele>42.0</ele><time>2026-03-22T10:47:54Z</time></trkpt><trkpt lat="24.72766626948818" lon="120.90259095116548"><ele>38.0</ele><time>2026-03-22T10:47:55Z</time></trkpt><trkpt lat="24.727876859783866" lon="120.90271060885563"><ele>34.0</ele><time>2026-03-22T10:47:56Z</time></trkpt><trkpt lat="24.72808320125653" lon="120.90283362339964"><ele>34.0</ele><time>2026-03-22T10:47:57Z</time></trkpt><trkpt lat="24.72828904343444" lon="120.90295824521934"><ele>34.0</ele><time>2026-03-22T10:47:58Z</time></trkpt><trkpt lat="24.728495955623625" lon="120.90308479349441"><ele>36.5</ele><time>2026-03-22T10:47:59Z</time></trkpt><trkpt lat="24.728700780791787" lon="120.90321327385766"><ele>39.0</ele><time>2026-03-22T10:48:00Z</time></trkpt><trkpt lat="24.728902794035232" lon="120.90334731001155"><ele>37.0</ele><time>2026-03-22T10:48:01Z</time></trkpt><trkpt lat="24.729104588371627" lon="120.90347953922264"><ele>35.0</ele><time>2026-03-22T10:48:02Z</time></trkpt><trkpt lat="24.72930775747234" lon="120.90361453695847"><ele>33.5</ele><time>2026-03-22T10:48:03Z</time></trkpt><trkpt lat="24.729507014340264" lon="120.9037546564064"><ele>32.0</ele><time>2026-03-22T10:48:04Z</time></trkpt><trkpt lat="24.729707299896145" lon="120.90389773842583"><ele>32.0</ele><time>2026-03-22T10:48:05Z</time></trkpt><trkpt lat="24.729907228560805" lon="120.9040433264534"><ele>32.0</ele><time>2026-03-22T10:48:06Z</time></trkpt><trkpt lat="24.73010795785554" lon="120.90419418925188"><ele>27.0</ele><time>2026-03-22T10:48:07Z</time></trkpt><trkpt lat="24.73030688862885" lon="120.90434719475226"><ele>22.0</ele><time>2026-03-22T10:48:08Z</time></trkpt><trkpt lat="24.730503038843068" lon="120.90450527518374"><ele>22.0</ele><time>2026-03-22T10:48:09Z</time></trkpt><trkpt lat="24.730695723114344" lon="120.9046684110373"><ele>22.0</ele><time>2026-03-22T10:48:10Z</time></trkpt><trkpt lat="24.73088785210611" lon="120.9048338285121"><ele>22.0</ele><time>2026-03-22T10:48:11Z</time></trkpt><trkpt lat="24.73107950482532" lon="120.90500029630006"><ele>22.0</ele><time>2026-03-22T10:48:12Z</time></trkpt><trkpt lat="24.731267671237283" lon="120.90516789228835"><ele>19.5</ele><time>2026-03-22T10:48:13Z</time></trkpt><trkpt lat="24.73145394435817" lon="120.9053286558976"><ele>17.0</ele><time>2026-03-22T10:48:14Z</time></trkpt><trkpt lat="24.73163435787438" lon="120.90548306788331"><ele>17.0</ele><time>2026-03-22T10:48:15Z</time></trkpt><trkpt lat="24.731826008183805" lon="120.90563676296411"><ele>17.0</ele><time>2026-03-22T10:48:16Z</time></trkpt><trkpt lat="24.732006970590305" lon="120.90580472179512"><ele>19.0</ele><time>2026-03-22T10:48:17Z</time></trkpt><trkpt lat="24.732189979684353" lon="120.90599420575293"><ele>21.0</ele><time>2026-03-22T10:48:18Z</time></trkpt><trkpt lat="24.73236702335875" lon="120.90617450429684"><ele>21.0</ele><time>2026-03-22T10:48:19Z</time></trkpt><trkpt lat="24.73253437879659" lon="120.90637536289928"><ele>21.0</ele><time>2026-03-22T10:48:20Z</time></trkpt><trkpt lat="24.732705105883962" lon="120.90656789325672"><ele>18.5</ele><time>2026-03-22T10:48:21Z</time></trkpt><trkpt lat="24.732870677141666" lon="120.9067580434954"><ele>16.0</ele><time>2026-03-22T10:48:22Z</time></trkpt><trkpt lat="24.733035372881147" lon="120.9069479116582"><ele>16.0</ele><time>2026-03-22T10:48:23Z</time></trkpt><trkpt lat="24.733200909440367" lon="120.90713808402185"><ele>16.0</ele><time>2026-03-22T10:48:24Z</time></trkpt><trkpt lat="24.733363516832927" lon="120.90733159701067"><ele>16.0</ele><time>2026-03-22T10:48:25Z</time></trkpt><trkpt lat="24.733525178737732" lon="120.90752493038974"><ele>16.0</ele><time>2026-03-22T10:48:26Z</time></trkpt><trkpt lat="24.733680775721666" lon="120.90772056690635"><ele>14.5</ele><time>2026-03-22T10:48:27Z</time></trkpt><trkpt lat="24.733834344145773" lon="120.90791749209768"><ele>13.0</ele><time>2026-03-22T10:48:28.001Z</time></trkpt><trkpt lat="24.733983398936008" lon="120.90811665403963"><ele>13.0</ele><time>2026-03-22T10:48:29Z</time></trkpt><trkpt lat="24.734130764093607" lon="120.90831459356302"><ele>13.0</ele><time>2026-03-22T10:48:30Z</time></trkpt><trkpt lat="24.73427766989856" lon="120.9085144482582"><ele>11.0</ele><time>2026-03-22T10:48:31Z</time></trkpt><trkpt lat="24.73442144368953" lon="120.90871645250103"><ele>9.0</ele><time>2026-03-22T10:48:32Z</time></trkpt><trkpt lat="24.734562408612724" lon="120.90891894446165"><ele>9.0</ele><time>2026-03-22T10:48:33Z</time></trkpt><trkpt lat="24.73469964344321" lon="120.90912361124846"><ele>9.0</ele><time>2026-03-22T10:48:34Z</time></trkpt><trkpt lat="24.734834554710577" lon="120.90932913850762"><ele>8.5</ele><time>2026-03-22T10:48:35Z</time></trkpt><trkpt lat="24.73496675099387" lon="120.90953843862206"><ele>8.0</ele><time>2026-03-22T10:48:36Z</time></trkpt><trkpt lat="24.73509538297304" lon="120.90974857810549"><ele>8.5</ele><time>2026-03-22T10:48:37Z</time></trkpt><trkpt lat="24.735224578058773" lon="120.9099573713585"><ele>9.0</ele><time>2026-03-22T10:48:38Z</time></trkpt><trkpt lat="24.73534892044594" lon="120.91016689510681"><ele>10.0</ele><time>2026-03-22T10:48:39Z</time></trkpt><trkpt lat="24.735473019742216" lon="120.91037758807278"><ele>11.0</ele><time>2026-03-22T10:48:40Z</time></trkpt><trkpt lat="24.735594176785387" lon="120.91059126551177"><ele>11.0</ele><time>2026-03-22T10:48:41Z</time></trkpt><trkpt lat="24.735713422078987" lon="120.91080519735985"><ele>11.0</ele><time>2026-03-22T10:48:42Z</time></trkpt><trkpt lat="24.735830711771538" lon="120.91102114322923"><ele>11.0</ele><time>2026-03-22T10:48:43Z</time></trkpt><trkpt lat="24.735945304380902" lon="120.91123781559105"><ele>11.0</ele><time>2026-03-22T10:48:44Z</time></trkpt><trkpt lat="24.736058654249742" lon="120.91145527313716"><ele>11.0</ele><time>2026-03-22T10:48:45Z</time></trkpt><trkpt lat="24.736170762043688" lon="120.91167624082986"><ele>11.0</ele><time>2026-03-22T10:48:46Z</time></trkpt><trkpt lat="24.736280602546184" lon="120.91189851016152"><ele>13.0</ele><time>2026-03-22T10:48:47Z</time></trkpt><trkpt lat="24.736387270293818" lon="120.91212311835972"><ele>15.0</ele><time>2026-03-22T10:48:48Z</time></trkpt><trkpt lat="24.736493833064277" lon="120.91234825257874"><ele>15.0</ele><time>2026-03-22T10:48:49Z</time></trkpt><trkpt lat="24.73659992148797" lon="120.9125752075526"><ele>15.0</ele><time>2026-03-22T10:48:50Z</time></trkpt><trkpt lat="24.736705842055954" lon="120.91280384032858"><ele>15.0</ele><time>2026-03-22T10:48:51Z</time></trkpt><trkpt lat="24.736809069906172" lon="120.91303022214115"><ele>15.0</ele><time>2026-03-22T10:48:52Z</time></trkpt><trkpt lat="24.73691117737172" lon="120.91325451486712"><ele>16.5</ele><time>2026-03-22T10:48:53Z</time></trkpt><trkpt lat="24.737011334844272" lon="120.91347802688797"><ele>18.0</ele><time>2026-03-22T10:48:54Z</time></trkpt><trkpt lat="24.737111106950675" lon="120.91369856616362"><ele>18.0</ele><time>2026-03-22T10:48:55Z</time></trkpt><trkpt lat="24.737208009152766" lon="120.91391711242605"><ele>18.0</ele><time>2026-03-22T10:48:56Z</time></trkpt><trkpt lat="24.737302609669996" lon="120.91413332301804"><ele>18.0</ele><time>2026-03-22T10:48:57Z</time></trkpt><trkpt lat="24.737397371974037" lon="120.91434599895707"><ele>20.666666666666664</ele><time>2026-03-22T10:48:58Z</time></trkpt><trkpt lat="24.737489206483872" lon="120.91455649769328"><ele>23.333333333333332</ele><time>2026-03-22T10:48:59Z</time></trkpt><trkpt lat="24.737581678143645" lon="120.91476658512298"><ele>26.0</ele><time>2026-03-22T10:49:00Z</time></trkpt><trkpt lat="24.737674041127413" lon="120.9149754581924"><ele>24.333333333333332</ele><time>2026-03-22T10:49:01Z</time></trkpt><trkpt lat="24.73776299334665" lon="120.91518114207187"><ele>22.666666666666664</ele><time>2026-03-22T10:49:02Z</time></trkpt><trkpt lat="24.737852623415737" lon="120.91538471568967"><ele>21.0</ele><time>2026-03-22T10:49:03Z</time></trkpt><trkpt lat="24.737944052636003" lon="120.91558741388506"><ele>21.0</ele><time>2026-03-22T10:49:04Z</time></trkpt><trkpt lat="24.738034287027013" lon="120.91578499465884"><ele>21.0</ele><time>2026-03-22T10:49:05Z</time></trkpt><trkpt lat="24.738124275096595" lon="120.91598122973036"><ele>21.0</ele><time>2026-03-22T10:49:06Z</time></trkpt><trkpt lat="24.73821277019779" lon="120.91617554070261"><ele>21.0</ele><time>2026-03-22T10:49:07Z</time></trkpt><trkpt lat="24.738300886931874" lon="120.91636623854811"><ele>21.0</ele><time>2026-03-22T10:49:08Z</time></trkpt><trkpt lat="24.738389485353597" lon="120.91655392935762"><ele>21.0</ele><time>2026-03-22T10:49:09Z</time></trkpt><trkpt lat="24.738478084909655" lon="120.91673920388922"><ele>22.333333333333336</ele><time>2026-03-22T10:49:10Z</time></trkpt><trkpt lat="24.738565636869076" lon="120.91692188583394"><ele>23.666666666666668</ele><time>2026-03-22T10:49:11Z</time></trkpt><trkpt lat="24.738654362096103" lon="120.91710087834602"><ele>25.0</ele><time>2026-03-22T10:49:12Z</time></trkpt><trkpt lat="24.738744930603097" lon="120.91727911020956"><ele>25.0</ele><time>2026-03-22T10:49:13Z</time></trkpt><trkpt lat="24.738834812244768" lon="120.91745867933997"><ele>25.0</ele><time>2026-03-22T10:49:14Z</time></trkpt><trkpt lat="24.73893042083715" lon="120.91764076736897"><ele>25.0</ele><time>2026-03-22T10:49:15Z</time></trkpt><trkpt lat="24.739027861011603" lon="120.91782538400919"><ele>26.0</ele><time>2026-03-22T10:49:16Z</time></trkpt><trkpt lat="24.73912618344082" lon="120.91801228671831"><ele>27.0</ele><time>2026-03-22T10:49:17Z</time></trkpt><trkpt lat="24.739227033271746" lon="120.9182015931927"><ele>28.0</ele><time>2026-03-22T10:49:18Z</time></trkpt><trkpt lat="24.73932957118641" lon="120.91839329929051"><ele>26.333333333333336</ele><time>2026-03-22T10:49:19Z</time></trkpt><trkpt lat="24.739435624645342" lon="120.9185829055573"><ele>24.666666666666668</ele><time>2026-03-22T10:49:20Z</time></trkpt><trkpt lat="24.739548477612846" lon="120.91877173916343"><ele>23.0</ele><time>2026-03-22T10:49:21Z</time></trkpt><trkpt lat="24.73966206119646" lon="120.91896247484625"><ele>23.0</ele><time>2026-03-22T10:49:22Z</time></trkpt><trkpt lat="24.739780131095763" lon="120.9191556934267"><ele>23.0</ele><time>2026-03-22T10:49:23Z</time></trkpt><trkpt lat="24.739900268901284" lon="120.91934605458758"><ele>23.0</ele><time>2026-03-22T10:49:24Z</time></trkpt><trkpt lat="24.74002316162148" lon="120.91953840123615"><ele>25.0</ele><time>2026-03-22T10:49:25Z</time></trkpt><trkpt lat="24.74015107938656" lon="120.91973180855139"><ele>27.0</ele><time>2026-03-22T10:49:26Z</time></trkpt><trkpt lat="24.740277816122656" lon="120.9199173592543"><ele>29.0</ele><time>2026-03-22T10:49:27Z</time></trkpt><trkpt lat="24.74040664916065" lon="120.92010291317763"><ele>29.0</ele><time>2026-03-22T10:49:28Z</time></trkpt><trkpt lat="24.740539478513462" lon="120.9202873166034"><ele>29.0</ele><time>2026-03-22T10:49:29Z</time></trkpt><trkpt lat="24.740674517803445" lon="120.92047343135535"><ele>29.0</ele><time>2026-03-22T10:49:30Z</time></trkpt><trkpt lat="24.740813247221976" lon="120.92065718138018"><ele>29.0</ele><time>2026-03-22T10:49:31Z</time></trkpt><trkpt lat="24.74095413852443" lon="120.92084190747045"><ele>29.0</ele><time>2026-03-22T10:49:32Z</time></trkpt><trkpt lat="24.741097250338925" lon="120.92102420966864"><ele>29.0</ele><time>2026-03-22T10:49:33Z</time></trkpt><trkpt lat="24.74124414959766" lon="120.92120693456789"><ele>26.666666666666664</ele><time>2026-03-22T10:49:34Z</time></trkpt><trkpt lat="24.741392713907654" lon="120.92138617185361"><ele>24.333333333333332</ele><time>2026-03-22T10:49:35Z</time></trkpt><trkpt lat="24.74154536922486" lon="120.92156578005763"><ele>22.0</ele><time>2026-03-22T10:49:36Z</time></trkpt><trkpt lat="24.741700579165762" lon="120.92174348718557"><ele>22.0</ele><time>2026-03-22T10:49:37Z</time></trkpt><trkpt lat="24.741858949815683" lon="120.92192067829885"><ele>22.0</ele><time>2026-03-22T10:49:38Z</time></trkpt><trkpt lat="24.742016867223654" lon="120.92209443193956"><ele>22.0</ele><time>2026-03-22T10:49:39Z</time></trkpt><trkpt lat="24.742175846783855" lon="120.92226280699008"><ele>22.0</ele><time>2026-03-22T10:49:40Z</time></trkpt><trkpt lat="24.742338347123145" lon="120.92242953863014"><ele>22.0</ele><time>2026-03-22T10:49:41Z</time></trkpt><trkpt lat="24.742499525317655" lon="120.92259027089231"><ele>22.0</ele><time>2026-03-22T10:49:42Z</time></trkpt><trkpt lat="24.742660722764743" lon="120.92274927673033"><ele>20.666666666666664</ele><time>2026-03-22T10:49:43Z</time></trkpt><trkpt lat="24.742822268844545" lon="120.92290525566501"><ele>19.333333333333332</ele><time>2026-03-22T10:49:44Z</time></trkpt><trkpt lat="24.74298358366652" lon="120.92306044804967"><ele>18.0</ele><time>2026-03-22T10:49:45Z</time></trkpt><trkpt lat="24.743145631999923" lon="120.92321023887735"><ele>18.0</ele><time>2026-03-22T10:49:46Z</time></trkpt><trkpt lat="24.743307694678055" lon="120.92335746775841"><ele>18.0</ele><time>2026-03-22T10:49:47Z</time></trkpt><trkpt lat="24.743467786554795" lon="120.9235004952856"><ele>18.0</ele><time>2026-03-22T10:49:48Z</time></trkpt><trkpt lat="24.743628425079486" lon="120.92364234608031"><ele>16.666666666666668</ele><time>2026-03-22T10:49:49Z</time></trkpt><trkpt lat="24.74378689584265" lon="120.92378262409953"><ele>15.333333333333334</ele><time>2026-03-22T10:49:50Z</time></trkpt><trkpt lat="24.743946532511316" lon="120.92391928948662"><ele>14.0</ele><time>2026-03-22T10:49:51Z</time></trkpt><trkpt lat="24.744105427744838" lon="120.92405236413941"><ele>14.0</ele><time>2026-03-22T10:49:52Z</time></trkpt><trkpt lat="24.744262548235653" lon="120.92418611201305"><ele>14.0</ele><time>2026-03-22T10:49:53Z</time></trkpt><trkpt lat="24.744419178797838" lon="120.92431629149125"><ele>14.0</ele><time>2026-03-22T10:49:54Z</time></trkpt><trkpt lat="24.744577742794945" lon="120.9244452280572"><ele>15.666666666666668</ele><time>2026-03-22T10:49:55Z</time></trkpt><trkpt lat="24.744734734453615" lon="120.92457270716929"><ele>17.333333333333332</ele><time>2026-03-22T10:49:56Z</time></trkpt><trkpt lat="24.744890476311376" lon="120.92469800480374"><ele>19.0</ele><time>2026-03-22T10:49:57Z</time></trkpt><trkpt lat="24.74504662028707" lon="120.9248225563861"><ele>19.0</ele><time>2026-03-22T10:49:58Z</time></trkpt><trkpt lat="24.7452038126978" lon="120.92494733957027"><ele>19.0</ele><time>2026-03-22T10:49:59Z</time></trkpt><trkpt lat="24.74536274225904" lon="120.92507375319775"><ele>19.0</ele><time>2026-03-22T10:50:00Z</time></trkpt><trkpt lat="24.745521941338826" lon="120.92520018799962"><ele>21.333333333333332</ele><time>2026-03-22T10:50:01Z</time></trkpt><trkpt lat="24.74568199163933" lon="120.92532629291682"><ele>23.666666666666664</ele><time>2026-03-22T10:50:02Z</time></trkpt><trkpt lat="24.74584052982173" lon="120.9254523994908"><ele>26.0</ele><time>2026-03-22T10:50:03Z</time></trkpt><trkpt lat="24.745999317146705" lon="120.92557753966584"><ele>29.0</ele><time>2026-03-22T10:50:04Z</time></trkpt><trkpt lat="24.74615829500608" lon="120.92570392226797"><ele>32.0</ele><time>2026-03-22T10:50:05Z</time></trkpt><trkpt lat="24.74631615367232" lon="120.925831136535"><ele>35.0</ele><time>2026-03-22T10:50:06Z</time></trkpt><trkpt lat="24.746474936948086" lon="120.92595634368959"><ele>35.0</ele><time>2026-03-22T10:50:07Z</time></trkpt><trkpt lat="24.746633561713452" lon="120.92608483006862"><ele>35.0</ele><time>2026-03-22T10:50:08Z</time></trkpt><trkpt lat="24.74679423380543" lon="120.92621292053337"><ele>35.0</ele><time>2026-03-22T10:50:09Z</time></trkpt><trkpt lat="24.746954343045363" lon="120.92634239601865"><ele>33.666666666666664</ele><time>2026-03-22T10:50:10Z</time></trkpt><trkpt lat="24.747114029319125" lon="120.92647458938384"><ele>32.333333333333336</ele><time>2026-03-22T10:50:11Z</time></trkpt><trkpt lat="24.74727539744859" lon="120.92660857838894"><ele>31.0</ele><time>2026-03-22T10:50:12Z</time></trkpt><trkpt lat="24.747436968586236" lon="120.92674548419883"><ele>31.0</ele><time>2026-03-22T10:50:13Z</time></trkpt><trkpt lat="24.747602369254718" lon="120.92688206331789"><ele>31.0</ele><time>2026-03-22T10:50:14Z</time></trkpt><trkpt lat="24.747767038941458" lon="120.92702224001172"><ele>31.0</ele><time>2026-03-22T10:50:15Z</time></trkpt><trkpt lat="24.747930412966365" lon="120.92716604700307"><ele>31.0</ele><time>2026-03-22T10:50:16Z</time></trkpt><trkpt lat="24.74809265139571" lon="120.92731439156613"><ele>31.0</ele><time>2026-03-22T10:50:17Z</time></trkpt><trkpt lat="24.74825316560979" lon="120.92746364604376"><ele>31.0</ele><time>2026-03-22T10:50:18Z</time></trkpt><trkpt lat="24.74841627924544" lon="120.92761320739908"><ele>33.333333333333336</ele><time>2026-03-22T10:50:19Z</time></trkpt><trkpt lat="24.74857936124601" lon="120.92776692150738"><ele>35.666666666666664</ele><time>2026-03-22T10:50:20Z</time></trkpt><trkpt lat="24.748739338246818" lon="120.92792509571557"><ele>38.0</ele><time>2026-03-22T10:50:21Z</time></trkpt><trkpt lat="24.74889537358864" lon="120.92808708001427"><ele>38.0</ele><time>2026-03-22T10:50:22Z</time></trkpt><trkpt lat="24.749046523999837" lon="120.92824745367656"><ele>38.0</ele><time>2026-03-22T10:50:23Z</time></trkpt><trkpt lat="24.74919577279554" lon="120.92840898136676"><ele>38.0</ele><time>2026-03-22T10:50:24Z</time></trkpt><trkpt lat="24.74934166912889" lon="120.9285736963161"><ele>40.0</ele><time>2026-03-22T10:50:25Z</time></trkpt><trkpt lat="24.749484496793663" lon="120.9287405480362"><ele>42.0</ele><time>2026-03-22T10:50:26Z</time></trkpt><trkpt lat="24.749624030087894" lon="120.9289093895505"><ele>44.0</ele><time>2026-03-22T10:50:27Z</time></trkpt><trkpt lat="24.749763058105213" lon="120.92907907501136"><ele>43.666666666666664</ele><time>2026-03-22T10:50:28Z</time></trkpt><trkpt lat="24.74989707601684" lon="120.9292519926292"><ele>43.333333333333336</ele><time>2026-03-22T10:50:29Z</time></trkpt><trkpt lat="24.750029933621498" lon="120.92942203815385"><ele>43.0</ele><time>2026-03-22T10:50:30Z</time></trkpt><trkpt lat="24.750157864617798" lon="120.92960196515358"><ele>43.66666666666667</ele><time>2026-03-22T10:50:31Z</time></trkpt><trkpt lat="24.750286475126057" lon="120.92978211135225"><ele>44.333333333333336</ele><time>2026-03-22T10:50:32Z</time></trkpt><trkpt lat="24.75041168942394" lon="120.92995488888764"><ele>45.0</ele><time>2026-03-22T10:50:33Z</time></trkpt><trkpt lat="24.750535903167627" lon="120.93013047851699"><ele>45.0</ele><time>2026-03-22T10:50:34Z</time></trkpt><trkpt lat="24.75065316370651" lon="120.93030294971939"><ele>45.0</ele><time>2026-03-22T10:50:35Z</time></trkpt><trkpt lat="24.750772310975474" lon="120.93048347127946"><ele>45.0</ele><time>2026-03-22T10:50:36Z</time></trkpt><trkpt lat="24.750886255277745" lon="120.9306680383651"><ele>45.0</ele><time>2026-03-22T10:50:37Z</time></trkpt><trkpt lat="24.750999845344772" lon="120.93085260572185"><ele>45.0</ele><time>2026-03-22T10:50:38Z</time></trkpt><trkpt lat="24.751107813563042" lon="120.93104261705115"><ele>45.0</ele><time>2026-03-22T10:50:39Z</time></trkpt><trkpt lat="24.751207881658225" lon="120.93122637974774"><ele>47.66666666666667</ele><time>2026-03-22T10:50:40Z</time></trkpt><trkpt lat="24.75131181470674" lon="120.9314178991189"><ele>50.333333333333336</ele><time>2026-03-22T10:50:41Z</time></trkpt><trkpt lat="24.751410328413144" lon="120.93160920479794"><ele>53.0</ele><time>2026-03-22T10:50:42Z</time></trkpt><trkpt lat="24.75150900418871" lon="120.93181426344663"><ele>53.0</ele><time>2026-03-22T10:50:43Z</time></trkpt><trkpt lat="24.75160844550231" lon="120.93201116065185"><ele>53.0</ele><time>2026-03-22T10:50:44Z</time></trkpt><trkpt lat="24.751698654516446" lon="120.93220126525036"><ele>53.0</ele><time>2026-03-22T10:50:45Z</time></trkpt><trkpt lat="24.75178423199319" lon="120.93238429408252"><ele>53.66666666666667</ele><time>2026-03-22T10:50:46Z</time></trkpt><trkpt lat="24.751871483149554" lon="120.93257477043758"><ele>54.33333333333333</ele><time>2026-03-22T10:50:47Z</time></trkpt><trkpt lat="24.751970853669803" lon="120.93278315457475"><ele>55.0</ele><time>2026-03-22T10:50:48Z</time></trkpt><trkpt lat="24.752055247933125" lon="120.93298019720025"><ele>55.0</ele><time>2026-03-22T10:50:49Z</time></trkpt><trkpt lat="24.752133668836517" lon="120.93317464743701"><ele>55.0</ele><time>2026-03-22T10:50:50Z</time></trkpt><trkpt lat="24.752215224339118" lon="120.93337290787545"><ele>55.0</ele><time>2026-03-22T10:50:51Z</time></trkpt><trkpt lat="24.752300199458997" lon="120.93355532172727"><ele>55.666666666666664</ele><time>2026-03-22T10:50:52Z</time></trkpt><trkpt lat="24.752378372470258" lon="120.93374085322749"><ele>56.33333333333333</ele><time>2026-03-22T10:50:53Z</time></trkpt><trkpt lat="24.752453721650248" lon="120.93392885153916"><ele>57.0</ele><time>2026-03-22T10:50:54Z</time></trkpt><trkpt lat="24.752531566967292" lon="120.93411557407669"><ele>55.0</ele><time>2026-03-22T10:50:55Z</time></trkpt><trkpt lat="24.752582634495983" lon="120.93431817986142"><ele>53.0</ele><time>2026-03-22T10:50:56Z</time></trkpt><trkpt lat="24.75264457588701" lon="120.93450924504805"><ele>51.0</ele><time>2026-03-22T10:50:57Z</time></trkpt><trkpt lat="24.752637046138783" lon="120.93471954401095"><ele>51.0</ele><time>2026-03-22T10:50:58Z</time></trkpt><trkpt lat="24.752686984980624" lon="120.93490774464081"><ele>51.0</ele><time>2026-03-22T10:50:59Z</time></trkpt><trkpt lat="24.752737278338167" lon="120.93510467831612"><ele>51.0</ele><time>2026-03-22T10:51:00Z</time></trkpt><trkpt lat="24.75278132478825" lon="120.93528560994591"><ele>51.0</ele><time>2026-03-22T10:51:01Z</time></trkpt><trkpt lat="24.75282530886352" lon="120.93547258856744"><ele>51.0</ele><time>2026-03-22T10:51:02Z</time></trkpt><trkpt lat="24.752865825983836" lon="120.93565407434731"><ele>51.0</ele><time>2026-03-22T10:51:03Z</time></trkpt><trkpt lat="24.752909077762535" lon="120.93585491565622"><ele>50.0</ele><time>2026-03-22T10:51:04Z</time></trkpt><trkpt lat="24.752947824032923" lon="120.93605504032348"><ele>49.0</ele><time>2026-03-22T10:51:05Z</time></trkpt><trkpt lat="24.75299807593654" lon="120.93626186424852"><ele>48.0</ele><time>2026-03-22T10:51:06Z</time></trkpt><trkpt lat="24.753019739435423" lon="120.93646380902486"><ele>48.0</ele><time>2026-03-22T10:51:07Z</time></trkpt><trkpt lat="24.753050772997142" lon="120.93667302434268"><ele>48.0</ele><time>2026-03-22T10:51:08Z</time></trkpt><trkpt lat="24.75306923040906" lon="120.93686929145048"><ele>48.0</ele><time>2026-03-22T10:51:09Z</time></trkpt><trkpt lat="24.753087182725757" lon="120.93707561881696"><ele>44.0</ele><time>2026-03-22T10:51:10Z</time></trkpt><trkpt lat="24.753115467281738" lon="120.93727975815848"><ele>40.0</ele><time>2026-03-22T10:51:11Z</time></trkpt><trkpt lat="24.75313687190098" lon="120.9374701582436"><ele>36.0</ele><time>2026-03-22T10:51:12Z</time></trkpt><trkpt lat="24.75315050300893" lon="120.93767188985639"><ele>33.666666666666664</ele><time>2026-03-22T10:51:13Z</time></trkpt><trkpt lat="24.753160757193722" lon="120.93788088097324"><ele>31.333333333333332</ele><time>2026-03-22T10:51:14Z</time></trkpt><trkpt lat="24.753170761191903" lon="120.93808776884798"><ele>29.0</ele><time>2026-03-22T10:51:15Z</time></trkpt><trkpt lat="24.753169084854896" lon="120.93827817902215"><ele>30.666666666666664</ele><time>2026-03-22T10:51:16Z</time></trkpt><trkpt lat="24.75316618386253" lon="120.93847767182719"><ele>32.333333333333336</ele><time>2026-03-22T10:51:17Z</time></trkpt><trkpt lat="24.75315713110518" lon="120.93867350166467"><ele>34.0</ele><time>2026-03-22T10:51:18Z</time></trkpt><trkpt lat="24.753157015508098" lon="120.93888179057892"><ele>34.0</ele><time>2026-03-22T10:51:19Z</time></trkpt><trkpt lat="24.7531553526138" lon="120.93907684923246"><ele>34.0</ele><time>2026-03-22T10:51:20Z</time></trkpt><trkpt lat="24.753151188330282" lon="120.9392765443134"><ele>34.0</ele><time>2026-03-22T10:51:21Z</time></trkpt><trkpt lat="24.753145512283947" lon="120.9394795861268"><ele>37.333333333333336</ele><time>2026-03-22T10:51:22Z</time></trkpt><trkpt lat="24.753138974995654" lon="120.9396756809984"><ele>40.666666666666664</ele><time>2026-03-22T10:51:23Z</time></trkpt><trkpt lat="24.753130229458243" lon="120.93987270863943"><ele>44.0</ele><time>2026-03-22T10:51:24Z</time></trkpt><trkpt lat="24.75311565064781" lon="120.94006661288303"><ele>47.666666666666664</ele><time>2026-03-22T10:51:25Z</time></trkpt><trkpt lat="24.75310711174192" lon="120.94025829726219"><ele>51.33333333333333</ele><time>2026-03-22T10:51:26Z</time></trkpt><trkpt lat="24.75309395127315" lon="120.94045266297596"><ele>55.0</ele><time>2026-03-22T10:51:27Z</time></trkpt><trkpt lat="24.753081593758004" lon="120.94064715700385"><ele>55.0</ele><time>2026-03-22T10:51:28Z</time></trkpt><trkpt lat="24.753068381501983" lon="120.94084201882822"><ele>55.0</ele><time>2026-03-22T10:51:29Z</time></trkpt><trkpt lat="24.753054804063975" lon="120.94103241897683"><ele>55.0</ele><time>2026-03-22T10:51:30Z</time></trkpt><trkpt lat="24.753041095261842" lon="120.94121949280168"><ele>55.0</ele><time>2026-03-22T10:51:31Z</time></trkpt><trkpt lat="24.753026858388846" lon="120.94140197223031"><ele>55.0</ele><time>2026-03-22T10:51:32Z</time></trkpt><trkpt lat="24.753017898482543" lon="120.94158827815224"><ele>55.0</ele><time>2026-03-22T10:51:33Z</time></trkpt><trkpt lat="24.753009747831264" lon="120.94177238659609"><ele>56.33333333333333</ele><time>2026-03-22T10:51:34Z</time></trkpt><trkpt lat="24.752998531702666" lon="120.94195880022795"><ele>57.66666666666667</ele><time>2026-03-22T10:51:35Z</time></trkpt><trkpt lat="24.752988678185396" lon="120.94214276705151"><ele>59.0</ele><time>2026-03-22T10:51:36Z</time></trkpt><trkpt lat="24.75297685887892" lon="120.94233029648969"><ele>59.0</ele><time>2026-03-22T10:51:37Z</time></trkpt><trkpt lat="24.75296525456822" lon="120.9425178809198"><ele>59.0</ele><time>2026-03-22T10:51:38Z</time></trkpt><trkpt lat="24.752954354980172" lon="120.94269133515631"><ele>59.0</ele><time>2026-03-22T10:51:39Z</time></trkpt><trkpt lat="24.752943370999365" lon="120.94286561877082"><ele>61.0</ele><time>2026-03-22T10:51:40Z</time></trkpt><trkpt lat="24.752939179065596" lon="120.94303903746987"><ele>63.0</ele><time>2026-03-22T10:51:41Z</time></trkpt><trkpt lat="24.75295164995194" lon="120.94321494569385"><ele>65.0</ele><time>2026-03-22T10:51:42Z</time></trkpt><trkpt lat="24.75294516546388" lon="120.94339060541452"><ele>65.0</ele><time>2026-03-22T10:51:43Z</time></trkpt><trkpt lat="24.75293875846161" lon="120.94356114390709"><ele>65.0</ele><time>2026-03-22T10:51:44Z</time></trkpt><trkpt lat="24.75292954980864" lon="120.94373771113548"><ele>65.0</ele><time>2026-03-22T10:51:45Z</time></trkpt><trkpt lat="24.752928103214092" lon="120.94391246945362"><ele>65.0</ele><time>2026-03-22T10:51:46Z</time></trkpt><trkpt lat="24.752932559305687" lon="120.94407996885205"><ele>65.0</ele><time>2026-03-22T10:51:47Z</time></trkpt><trkpt lat="24.752925330002547" lon="120.94426033885065"><ele>65.0</ele><time>2026-03-22T10:51:48Z</time></trkpt><trkpt lat="24.75292153630987" lon="120.94444197609432"><ele>65.66666666666667</ele><time>2026-03-22T10:51:49Z</time></trkpt><trkpt lat="24.75291802317599" lon="120.94462565213472"><ele>66.33333333333333</ele><time>2026-03-22T10:51:50Z</time></trkpt><trkpt lat="24.752916854313398" lon="120.94481301879479"><ele>67.0</ele><time>2026-03-22T10:51:51Z</time></trkpt><trkpt lat="24.75292232455289" lon="120.94499089683889"><ele>63.33333333333333</ele><time>2026-03-22T10:51:52Z</time></trkpt><trkpt lat="24.752933491740205" lon="120.94517592869015"><ele>59.66666666666667</ele><time>2026-03-22T10:51:53Z</time></trkpt><trkpt lat="24.752944864816907" lon="120.94536456560567"><ele>56.0</ele><time>2026-03-22T10:51:54Z</time></trkpt><trkpt lat="24.75295508202039" lon="120.94555769147918"><ele>56.0</ele><time>2026-03-22T10:51:55Z</time></trkpt><trkpt lat="24.752966551238295" lon="120.94574874838555"><ele>56.0</ele><time>2026-03-22T10:51:56Z</time></trkpt><trkpt lat="24.752982670408773" lon="120.94594381902054"><ele>56.0</ele><time>2026-03-22T10:51:57Z</time></trkpt><trkpt lat="24.7529976661549" lon="120.94613903306276"><ele>50.66666666666667</ele><time>2026-03-22T10:51:58Z</time></trkpt><trkpt lat="24.753013015805674" lon="120.94633346695971"><ele>45.333333333333336</ele><time>2026-03-22T10:51:59Z</time></trkpt><trkpt lat="24.753025546458115" lon="120.94652916630723"><ele>40.0</ele><time>2026-03-22T10:52:00Z</time></trkpt><trkpt lat="24.753059706757075" lon="120.94672956222587"><ele>39.333333333333336</ele><time>2026-03-22T10:52:01Z</time></trkpt><trkpt lat="24.753081769791653" lon="120.94692442383062"><ele>38.666666666666664</ele><time>2026-03-22T10:52:02Z</time></trkpt><trkpt lat="24.75309410453518" lon="120.94712479188574"><ele>38.0</ele><time>2026-03-22T10:52:03Z</time></trkpt><trkpt lat="24.753114498482375" lon="120.9473257029953"><ele>38.0</ele><time>2026-03-22T10:52:04Z</time></trkpt><trkpt lat="24.75314278291259" lon="120.94752459385136"><ele>38.0</ele><time>2026-03-22T10:52:05Z</time></trkpt><trkpt lat="24.753175546341478" lon="120.94771992941192"><ele>38.0</ele><time>2026-03-22T10:52:06Z</time></trkpt><trkpt lat="24.75320944362817" lon="120.94791604875006"><ele>38.666666666666664</ele><time>2026-03-22T10:52:07Z</time></trkpt><trkpt lat="24.753242239525395" lon="120.94810997857692"><ele>39.333333333333336</ele><time>2026-03-22T10:52:08Z</time></trkpt><trkpt lat="24.753276841923093" lon="120.94830828222764"><ele>40.0</ele><time>2026-03-22T10:52:09Z</time></trkpt><trkpt lat="24.753317291758897" lon="120.9485130373818"><ele>42.333333333333336</ele><time>2026-03-22T10:52:10Z</time></trkpt><trkpt lat="24.753353991383225" lon="120.94871941538098"><ele>44.666666666666664</ele><time>2026-03-22T10:52:11Z</time></trkpt><trkpt lat="24.753402856651352" lon="120.94891822729399"><ele>47.0</ele><time>2026-03-22T10:52:12Z</time></trkpt><trkpt lat="24.753454793950283" lon="120.94910759669627"><ele>47.33333333333333</ele><time>2026-03-22T10:52:13Z</time></trkpt><trkpt lat="24.75350507725802" lon="120.94929892147522"><ele>47.666666666666664</ele><time>2026-03-22T10:52:14Z</time></trkpt><trkpt lat="24.753551079734336" lon="120.94948645180547"><ele>48.0</ele><time>2026-03-22T10:52:15Z</time></trkpt><trkpt lat="24.753603548674175" lon="120.9496743714782"><ele>48.0</ele><time>2026-03-22T10:52:16Z</time></trkpt><trkpt lat="24.75365655201922" lon="120.94985650706451"><ele>48.0</ele><time>2026-03-22T10:52:17Z</time></trkpt><trkpt lat="24.75371135555473" lon="120.95003159076727"><ele>48.0</ele><time>2026-03-22T10:52:18Z</time></trkpt><trkpt lat="24.753766512527985" lon="120.95021476677847"><ele>50.66666666666667</ele><time>2026-03-22T10:52:19Z</time></trkpt><trkpt lat="24.7538217069574" lon="120.950388464928"><ele>53.333333333333336</ele><time>2026-03-22T10:52:20Z</time></trkpt><trkpt lat="24.753884778143277" lon="120.9505651201992"><ele>56.0</ele><time>2026-03-22T10:52:21Z</time></trkpt><trkpt lat="24.75394752893514" lon="120.950744384099"><ele>58.0</ele><time>2026-03-22T10:52:22Z</time></trkpt><trkpt lat="24.754012567363578" lon="120.95092794367089"><ele>60.0</ele><time>2026-03-22T10:52:23Z</time></trkpt><trkpt lat="24.754079912834875" lon="120.9511085341813"><ele>62.0</ele><time>2026-03-22T10:52:24Z</time></trkpt><trkpt lat="24.754147229989606" lon="120.95129386540737"><ele>62.0</ele><time>2026-03-22T10:52:25Z</time></trkpt><trkpt lat="24.754217190532874" lon="120.95147466418145"><ele>62.0</ele><time>2026-03-22T10:52:26Z</time></trkpt><trkpt lat="24.754291525952453" lon="120.95165939955638"><ele>62.0</ele><time>2026-03-22T10:52:27Z</time></trkpt><trkpt lat="24.75437274657235" lon="120.95184536431462"><ele>64.66666666666667</ele><time>2026-03-22T10:52:28Z</time></trkpt><trkpt lat="24.754450727836016" lon="120.9520290651206"><ele>67.33333333333333</ele><time>2026-03-22T10:52:29Z</time></trkpt><trkpt lat="24.754531353344902" lon="120.95221170987868"><ele>70.0</ele><time>2026-03-22T10:52:30Z</time></trkpt><trkpt lat="24.75461106070599" lon="120.95239399278307"><ele>72.0</ele><time>2026-03-22T10:52:31Z</time></trkpt><trkpt lat="24.754692422678804" lon="120.95257815208672"><ele>74.0</ele><time>2026-03-22T10:52:32Z</time></trkpt><trkpt lat="24.754779519579625" lon="120.9527687170194"><ele>76.0</ele><time>2026-03-22T10:52:33Z</time></trkpt><trkpt lat="24.754863175573536" lon="120.95295220883558"><ele>76.0</ele><time>2026-03-22T10:52:34Z</time></trkpt><trkpt lat="24.75495169959937" lon="120.9531413228775"><ele>76.0</ele><time>2026-03-22T10:52:35Z</time></trkpt><trkpt lat="24.755040704383543" lon="120.95333107347575"><ele>76.0</ele><time>2026-03-22T10:52:36Z</time></trkpt><trkpt lat="24.755130513619743" lon="120.95351720587918"><ele>78.0</ele><time>2026-03-22T10:52:37Z</time></trkpt><trkpt lat="24.755217278306368" lon="120.95369550398911"><ele>80.0</ele><time>2026-03-22T10:52:38Z</time></trkpt><trkpt lat="24.755305076532157" lon="120.95387991849876"><ele>82.0</ele><time>2026-03-22T10:52:39Z</time></trkpt><trkpt lat="24.755400037020657" lon="120.95406249686538"><ele>80.33333333333333</ele><time>2026-03-22T10:52:40Z</time></trkpt><trkpt lat="24.755493575046454" lon="120.9542498983155"><ele>78.66666666666667</ele><time>2026-03-22T10:52:41Z</time></trkpt><trkpt lat="24.755588015603138" lon="120.95443738897954"><ele>77.0</ele><time>2026-03-22T10:52:42Z</time></trkpt><trkpt lat="24.755681049918923" lon="120.95462188530738"><ele>77.0</ele><time>2026-03-22T10:52:43Z</time></trkpt><trkpt lat="24.75577976351591" lon="120.9548054951989"><ele>77.0</ele><time>2026-03-22T10:52:44Z</time></trkpt><trkpt lat="24.75587726174495" lon="120.9549934908119"><ele>77.0</ele><time>2026-03-22T10:52:45Z</time></trkpt><trkpt lat="24.75597099540415" lon="120.95518411665478"><ele>78.33333333333334</ele><time>2026-03-22T10:52:46Z</time></trkpt><trkpt lat="24.756073663910303" lon="120.95537818892146"><ele>79.66666666666667</ele><time>2026-03-22T10:52:47Z</time></trkpt><trkpt lat="24.756180675514305" lon="120.95558179943681"><ele>81.0</ele><time>2026-03-22T10:52:48Z</time></trkpt><trkpt lat="24.756284975156984" lon="120.955778727439"><ele>79.0</ele><time>2026-03-22T10:52:49Z</time></trkpt><trkpt lat="24.75639293990854" lon="120.95597548921623"><ele>77.0</ele><time>2026-03-22T10:52:50Z</time></trkpt><trkpt lat="24.75649865346637" lon="120.95617725638223"><ele>75.0</ele><time>2026-03-22T10:52:51Z</time></trkpt><trkpt lat="24.75659872372144" lon="120.95637141023637"><ele>75.0</ele><time>2026-03-22T10:52:52Z</time></trkpt><trkpt lat="24.756700420779826" lon="120.95656508971618"><ele>75.0</ele><time>2026-03-22T10:52:53Z</time></trkpt><trkpt lat="24.756794588168486" lon="120.95675452673726"><ele>75.0</ele><time>2026-03-22T10:52:54Z</time></trkpt><trkpt lat="24.756886332187264" lon="120.95694406711432"><ele>76.33333333333333</ele><time>2026-03-22T10:52:55Z</time></trkpt><trkpt lat="24.756978358202446" lon="120.95713834361742"><ele>77.66666666666666</ele><time>2026-03-22T10:52:56Z</time></trkpt><trkpt lat="24.75706819177478" lon="120.95732783713426"><ele>79.0</ele><time>2026-03-22T10:52:57Z</time></trkpt><trkpt lat="24.75716044755251" lon="120.95752050452096"><ele>80.33333333333333</ele><time>2026-03-22T10:52:58Z</time></trkpt><trkpt lat="24.757248341791477" lon="120.95771665669422"><ele>81.66666666666667</ele><time>2026-03-22T10:52:59Z</time></trkpt><trkpt lat="24.757334001734748" lon="120.9579096239739"><ele>83.0</ele><time>2026-03-22T10:53:00Z</time></trkpt><trkpt lat="24.75742240042774" lon="120.95810534074587"><ele>83.0</ele><time>2026-03-22T10:53:01Z</time></trkpt><trkpt lat="24.757504170640818" lon="120.95829921088273"><ele>83.0</ele><time>2026-03-22T10:53:02Z</time></trkpt><trkpt lat="24.757585853261602" lon="120.95849613240362"><ele>83.0</ele><time>2026-03-22T10:53:03Z</time></trkpt><trkpt lat="24.757665774843876" lon="120.95869535982439"><ele>82.0</ele><time>2026-03-22T10:53:04Z</time></trkpt><trkpt lat="24.757743939046488" lon="120.95889037093897"><ele>81.0</ele><time>2026-03-22T10:53:05Z</time></trkpt><trkpt lat="24.757821358492127" lon="120.9590906891485"><ele>80.0</ele><time>2026-03-22T10:53:06Z</time></trkpt><trkpt lat="24.757899072524157" lon="120.95929571002992"><ele>80.0</ele><time>2026-03-22T10:53:07Z</time></trkpt><trkpt lat="24.75797184560931" lon="120.95949978715949"><ele>80.0</ele><time>2026-03-22T10:53:08Z</time></trkpt><trkpt lat="24.758046627843225" lon="120.95970924349908"><ele>80.0</ele><time>2026-03-22T10:53:09Z</time></trkpt><trkpt lat="24.75811997931566" lon="120.95992052387038"><ele>82.33333333333334</ele><time>2026-03-22T10:53:10Z</time></trkpt><trkpt lat="24.758191234966777" lon="120.96013417556125"><ele>84.66666666666667</ele><time>2026-03-22T10:53:11Z</time></trkpt><trkpt lat="24.75825155356334" lon="120.96034585223445"><ele>87.0</ele><time>2026-03-22T10:53:12Z</time></trkpt><trkpt lat="24.75830472553479" lon="120.9605562754466"><ele>87.0</ele><time>2026-03-22T10:53:13Z</time></trkpt><trkpt lat="24.758361843567073" lon="120.96076914664212"><ele>87.0</ele><time>2026-03-22T10:53:14Z</time></trkpt><trkpt lat="24.75841743434988" lon="120.96098251158875"><ele>87.0</ele><time>2026-03-22T10:53:15Z</time></trkpt><trkpt lat="24.758471652569643" lon="120.96119900402051"><ele>87.33333333333333</ele><time>2026-03-22T10:53:16Z</time></trkpt><trkpt lat="24.75852242687394" lon="120.96141895540843"><ele>87.66666666666666</ele><time>2026-03-22T10:53:17Z</time></trkpt><trkpt lat="24.758570879416247" lon="120.9616391797967"><ele>88.0</ele><time>2026-03-22T10:53:18Z</time></trkpt><trkpt lat="24.758618255881245" lon="120.96185821516343"><ele>86.33333333333333</ele><time>2026-03-22T10:53:19Z</time></trkpt><trkpt lat="24.75866000882537" lon="120.96207275660092"><ele>84.66666666666667</ele><time>2026-03-22T10:53:20Z</time></trkpt><trkpt lat="24.758699464825423" lon="120.9622906075787"><ele>83.0</ele><time>2026-03-22T10:53:21Z</time></trkpt><trkpt lat="24.758740265095984" lon="120.96251110078278"><ele>81.0</ele><time>2026-03-22T10:53:22Z</time></trkpt><trkpt lat="24.758777141201097" lon="120.96273559408955"><ele>79.0</ele><time>2026-03-22T10:53:23Z</time></trkpt><trkpt lat="24.758810081031296" lon="120.96296226429571"><ele>77.0</ele><time>2026-03-22T10:53:24Z</time></trkpt><trkpt lat="24.758838950410738" lon="120.96319138597686"><ele>79.0</ele><time>2026-03-22T10:53:25Z</time></trkpt><trkpt lat="24.758863857911575" lon="120.9634199110589"><ele>81.0</ele><time>2026-03-22T10:53:26Z</time></trkpt><trkpt lat="24.75888663079456" lon="120.96365188029374"><ele>83.0</ele><time>2026-03-22T10:53:27Z</time></trkpt><trkpt lat="24.758907026414803" lon="120.96388611189934"><ele>83.0</ele><time>2026-03-22T10:53:28Z</time></trkpt><trkpt lat="24.758924112992084" lon="120.9641195027605"><ele>83.0</ele><time>2026-03-22T10:53:29Z</time></trkpt><trkpt lat="24.758938140408564" lon="120.96435360364721"><ele>83.0</ele><time>2026-03-22T10:53:30Z</time></trkpt><trkpt lat="24.758950706625633" lon="120.9645876931295"><ele>82.33333333333334</ele><time>2026-03-22T10:53:31Z</time></trkpt><trkpt lat="24.75895909955085" lon="120.96482296914714"><ele>81.66666666666667</ele><time>2026-03-22T10:53:32Z</time></trkpt><trkpt lat="24.758965028837217" lon="120.96506060330788"><ele>81.0</ele><time>2026-03-22T10:53:33Z</time></trkpt><trkpt lat="24.758964742218634" lon="120.96529133621533"><ele>83.0</ele><time>2026-03-22T10:53:34Z</time></trkpt><trkpt lat="24.75896248622205" lon="120.96552096610357"><ele>85.0</ele><time>2026-03-22T10:53:35Z</time></trkpt><trkpt lat="24.758957594563256" lon="120.96575231954593"><ele>87.0</ele><time>2026-03-22T10:53:36Z</time></trkpt><trkpt lat="24.758962137294006" lon="120.96598015303222"><ele>87.33333333333333</ele><time>2026-03-22T10:53:37Z</time></trkpt><trkpt lat="24.75895282082283" lon="120.966209920634"><ele>87.66666666666666</ele><time>2026-03-22T10:53:38Z</time></trkpt><trkpt lat="24.758937863228667" lon="120.9664364763814"><ele>88.0</ele><time>2026-03-22T10:53:39Z</time></trkpt><trkpt lat="24.7589217728477" lon="120.96666369804485"><ele>87.0</ele><time>2026-03-22T10:53:40Z</time></trkpt><trkpt lat="24.75890145551954" lon="120.96689364795004"><ele>86.0</ele><time>2026-03-22T10:53:41Z</time></trkpt><trkpt lat="24.758884298170972" lon="120.9671207069299"><ele>85.0</ele><time>2026-03-22T10:53:42Z</time></trkpt><trkpt lat="24.75886212683864" lon="120.96734712840403"><ele>84.66666666666666</ele><time>2026-03-22T10:53:43Z</time></trkpt><trkpt lat="24.758835751589164" lon="120.96757095715559"><ele>84.33333333333333</ele><time>2026-03-22T10:53:44Z</time></trkpt><trkpt lat="24.758803255401453" lon="120.96780348198041"><ele>84.0</ele><time>2026-03-22T10:53:45Z</time></trkpt><trkpt lat="24.758773856021673" lon="120.96803020885174"><ele>84.0</ele><time>2026-03-22T10:53:46Z</time></trkpt><trkpt lat="24.75874341166703" lon="120.96825429842417"><ele>84.0</ele><time>2026-03-22T10:53:47Z</time></trkpt><trkpt lat="24.758706758093773" lon="120.96848251024464"><ele>84.0</ele><time>2026-03-22T10:53:48Z</time></trkpt><trkpt lat="24.758669190884863" lon="120.96870114240632"><ele>81.66666666666667</ele><time>2026-03-22T10:53:49Z</time></trkpt><trkpt lat="24.758627512304223" lon="120.96891928818806"><ele>79.33333333333334</ele><time>2026-03-22T10:53:50Z</time></trkpt><trkpt lat="24.758585396373448" lon="120.96913507975974"><ele>77.0</ele><time>2026-03-22T10:53:51Z</time></trkpt><trkpt lat="24.75853870706656" lon="120.9693494824501"><ele>78.0</ele><time>2026-03-22T10:53:52Z</time></trkpt><trkpt lat="24.75849881958384" lon="120.96955033818078"><ele>79.0</ele><time>2026-03-22T10:53:53Z</time></trkpt><trkpt lat="24.758455503740976" lon="120.96974876384853"><ele>80.0</ele><time>2026-03-22T10:53:54Z</time></trkpt><trkpt lat="24.75840828252624" lon="120.96994492969739"><ele>76.66666666666667</ele><time>2026-03-22T10:53:55Z</time></trkpt><trkpt lat="24.75836492793554" lon="120.97013297643993"><ele>73.33333333333333</ele><time>2026-03-22T10:53:56Z</time></trkpt><trkpt lat="24.758322418012238" lon="120.97031452567475"><ele>70.0</ele><time>2026-03-22T10:53:57Z</time></trkpt><trkpt lat="24.758274853530356" lon="120.97050051218483"><ele>70.0</ele><time>2026-03-22T10:53:58Z</time></trkpt><trkpt lat="24.758233174448495" lon="120.9706844623962"><ele>70.0</ele><time>2026-03-22T10:53:59Z</time></trkpt><trkpt lat="24.758189919429572" lon="120.97086830755562"><ele>70.0</ele><time>2026-03-22T10:54:00Z</time></trkpt><trkpt lat="24.75814494806379" lon="120.97105210117054"><ele>70.66666666666666</ele><time>2026-03-22T10:54:01Z</time></trkpt><trkpt lat="24.758107478522785" lon="120.97123593720802"><ele>71.33333333333333</ele><time>2026-03-22T10:54:02Z</time></trkpt><trkpt lat="24.758051223563083" lon="120.97142828534741"><ele>72.0</ele><time>2026-03-22T10:54:03Z</time></trkpt><trkpt lat="24.758006408562135" lon="120.97161404969869"><ele>76.33333333333333</ele><time>2026-03-22T10:54:04Z</time></trkpt><trkpt lat="24.757966576991414" lon="120.97179501295311"><ele>80.66666666666666</ele><time>2026-03-22T10:54:05Z</time></trkpt><trkpt lat="24.757922249756863" lon="120.97197862055603"><ele>85.0</ele><time>2026-03-22T10:54:06Z</time></trkpt><trkpt lat="24.757881391589418" lon="120.97216398628551"><ele>85.0</ele><time>2026-03-22T10:54:07Z</time></trkpt><trkpt lat="24.757847984025446" lon="120.97235255062591"><ele>85.0</ele><time>2026-03-22T10:54:08Z</time></trkpt><trkpt lat="24.75780972432515" lon="120.97254363487214"><ele>85.0</ele><time>2026-03-22T10:54:09Z</time></trkpt><trkpt lat="24.757782590368237" lon="120.97272700862368"><ele>85.0</ele><time>2026-03-22T10:54:10Z</time></trkpt><trkpt lat="24.757754239668007" lon="120.97291591951155"><ele>85.0</ele><time>2026-03-22T10:54:11Z</time></trkpt><trkpt lat="24.757725539963033" lon="120.97310417709443"><ele>85.0</ele><time>2026-03-22T10:54:12Z</time></trkpt><trkpt lat="24.757701546801403" lon="120.97329165646345"><ele>81.33333333333333</ele><time>2026-03-22T10:54:13Z</time></trkpt><trkpt lat="24.757679630516648" lon="120.97347633735446"><ele>77.66666666666667</ele><time>2026-03-22T10:54:14Z</time></trkpt><trkpt lat="24.757655226904554" lon="120.97366203693126"><ele>74.0</ele><time>2026-03-22T10:54:15Z</time></trkpt><trkpt lat="24.75763563775833" lon="120.97385295837758"><ele>74.0</ele><time>2026-03-22T10:54:16Z</time></trkpt><trkpt lat="24.75761146294766" lon="120.97405407711767"><ele>74.0</ele><time>2026-03-22T10:54:17Z</time></trkpt><trkpt lat="24.757590320259904" lon="120.9742565150675"><ele>74.0</ele><time>2026-03-22T10:54:18Z</time></trkpt><trkpt lat="24.75757120094217" lon="120.97446050016732"><ele>73.0</ele><time>2026-03-22T10:54:19Z</time></trkpt><trkpt lat="24.757558926933864" lon="120.97466774129666"><ele>72.0</ele><time>2026-03-22T10:54:20Z</time></trkpt><trkpt lat="24.757550481736033" lon="120.97487822567668"><ele>71.0</ele><time>2026-03-22T10:54:21Z</time></trkpt><trkpt lat="24.75754384683026" lon="120.97509018348845"><ele>68.66666666666667</ele><time>2026-03-22T10:54:22Z</time></trkpt><trkpt lat="24.757538238655933" lon="120.97530158021397"><ele>66.33333333333333</ele><time>2026-03-22T10:54:23Z</time></trkpt><trkpt lat="24.75753512194683" lon="120.97550880065154"><ele>64.0</ele><time>2026-03-22T10:54:24Z</time></trkpt><trkpt lat="24.757534606625796" lon="120.97572668409171"><ele>63.33333333333333</ele><time>2026-03-22T10:54:25Z</time></trkpt><trkpt lat="24.7575353973711" lon="120.97594079523387"><ele>62.66666666666667</ele><time>2026-03-22T10:54:26Z</time></trkpt><trkpt lat="24.757537833548696" lon="120.97615816029275"><ele>62.0</ele><time>2026-03-22T10:54:27Z</time></trkpt><trkpt lat="24.757547167431802" lon="120.97637695645025"><ele>62.0</ele><time>2026-03-22T10:54:28Z</time></trkpt><trkpt lat="24.757553886678444" lon="120.97659822793464"><ele>62.0</ele><time>2026-03-22T10:54:29Z</time></trkpt><trkpt lat="24.757568589593074" lon="120.97682699833368"><ele>62.0</ele><time>2026-03-22T10:54:30Z</time></trkpt><trkpt lat="24.757582893855844" lon="120.97705706637831"><ele>65.66666666666667</ele><time>2026-03-22T10:54:31Z</time></trkpt><trkpt lat="24.757600606612854" lon="120.97729366673839"><ele>69.33333333333333</ele><time>2026-03-22T10:54:32Z</time></trkpt><trkpt lat="24.757623989021244" lon="120.97753820132124"><ele>73.0</ele><time>2026-03-22T10:54:33Z</time></trkpt><trkpt lat="24.75764969197196" lon="120.97778935744913"><ele>74.0</ele><time>2026-03-22T10:54:34Z</time></trkpt><trkpt lat="24.757681667234827" lon="120.97803504473531"><ele>75.0</ele><time>2026-03-22T10:54:35Z</time></trkpt><trkpt lat="24.757717336906122" lon="120.97828227872377"><ele>72.0</ele><time>2026-03-22T10:54:36Z</time></trkpt><trkpt lat="24.757759936909448" lon="120.97853545416974"><ele>69.0</ele><time>2026-03-22T10:54:37Z</time></trkpt><trkpt lat="24.757807211193942" lon="120.97879198454713"><ele>69.0</ele><time>2026-03-22T10:54:38Z</time></trkpt><trkpt lat="24.757852124785593" lon="120.97905400371006"><ele>69.0</ele><time>2026-03-22T10:54:39Z</time></trkpt><trkpt lat="24.757891249549207" lon="120.97931983449128"><ele>68.5</ele><time>2026-03-22T10:54:40Z</time></trkpt><trkpt lat="24.757938002945327" lon="120.97958839842764"><ele>68.0</ele><time>2026-03-22T10:54:41Z</time></trkpt><trkpt lat="24.75799016279225" lon="120.97985822495527"><ele>67.0</ele><time>2026-03-22T10:54:42Z</time></trkpt><trkpt lat="24.75804065604121" lon="120.98013574352392"><ele>66.0</ele><time>2026-03-22T10:54:43Z</time></trkpt><trkpt lat="24.7581006160785" lon="120.98041669530753"><ele>66.0</ele><time>2026-03-22T10:54:44Z</time></trkpt><trkpt lat="24.758147227339048" lon="120.98069878253945"><ele>66.0</ele><time>2026-03-22T10:54:45Z</time></trkpt><trkpt lat="24.758192158960018" lon="120.9809763895728"><ele>66.0</ele><time>2026-03-22T10:54:46Z</time></trkpt><trkpt lat="24.75823362997627" lon="120.98125485809892"><ele>66.0</ele><time>2026-03-22T10:54:47Z</time></trkpt><trkpt lat="24.758265889774716" lon="120.98153301119099"><ele>69.0</ele><time>2026-03-22T10:54:48Z</time></trkpt><trkpt lat="24.758296482536792" lon="120.98180956574478"><ele>72.0</ele><time>2026-03-22T10:54:49Z</time></trkpt><trkpt lat="24.75832128165262" lon="120.98208614280905"><ele>72.0</ele><time>2026-03-22T10:54:50Z</time></trkpt><trkpt lat="24.7583435370115" lon="120.98235809784218"><ele>72.0</ele><time>2026-03-22T10:54:51Z</time></trkpt><trkpt lat="24.758352974935974" lon="120.982633406156"><ele>70.5</ele><time>2026-03-22T10:54:52Z</time></trkpt><trkpt lat="24.758358402890128" lon="120.98290606916908"><ele>69.0</ele><time>2026-03-22T10:54:53Z</time></trkpt><trkpt lat="24.75834787546505" lon="120.9831826946995"><ele>70.0</ele><time>2026-03-22T10:54:54Z</time></trkpt><trkpt lat="24.75833493436461" lon="120.98345128842617"><ele>71.0</ele><time>2026-03-22T10:54:55Z</time></trkpt><trkpt lat="24.758314142115342" lon="120.98372189927065"><ele>71.0</ele><time>2026-03-22T10:54:56Z</time></trkpt><trkpt lat="24.758289079033677" lon="120.9839885140834"><ele>71.0</ele><time>2026-03-22T10:54:57Z</time></trkpt><trkpt lat="24.75825745491751" lon="120.98425252179292"><ele>72.0</ele><time>2026-03-22T10:54:58Z</time></trkpt><trkpt lat="24.75822807526933" lon="120.98451032236986"><ele>73.0</ele><time>2026-03-22T10:54:59Z</time></trkpt><trkpt lat="24.758192543554564" lon="120.98476592776046"><ele>75.5</ele><time>2026-03-22T10:55:00Z</time></trkpt><trkpt lat="24.75814907938639" lon="120.9850181486494"><ele>78.0</ele><time>2026-03-22T10:55:01Z</time></trkpt><trkpt lat="24.75810272975376" lon="120.9852673209"><ele>78.0</ele><time>2026-03-22T10:55:02Z</time></trkpt><trkpt lat="24.758048761276175" lon="120.98551836246241"><ele>78.0</ele><time>2026-03-22T10:55:03Z</time></trkpt><trkpt lat="24.757993964652528" lon="120.9857679927355"><ele>77.66666666666667</ele><time>2026-03-22T10:55:04Z</time></trkpt><trkpt lat="24.757936066009417" lon="120.98600298591833"><ele>77.33333333333334</ele><time>2026-03-22T10:55:05Z</time></trkpt><trkpt lat="24.75786720319123" lon="120.98623994522258"><ele>77.0</ele><time>2026-03-22T10:55:06Z</time></trkpt><trkpt lat="24.757800986304503" lon="120.986476306737"><ele>75.33333333333334</ele><time>2026-03-22T10:55:07Z</time></trkpt><trkpt lat="24.757731045031502" lon="120.98670922757618"><ele>73.66666666666667</ele><time>2026-03-22T10:55:08Z</time></trkpt><trkpt lat="24.757664883581523" lon="120.98693941865483"><ele>72.0</ele><time>2026-03-22T10:55:09Z</time></trkpt><trkpt lat="24.75759430603299" lon="120.98717197715438"><ele>70.0</ele><time>2026-03-22T10:55:10Z</time></trkpt><trkpt lat="24.757509051187228" lon="120.9874104892603"><ele>68.0</ele><time>2026-03-22T10:55:11Z</time></trkpt><trkpt lat="24.757426191110685" lon="120.98764941351592"><ele>66.5</ele><time>2026-03-22T10:55:12Z</time></trkpt><trkpt lat="24.75733621330247" lon="120.98788360612366"><ele>65.0</ele><time>2026-03-22T10:55:13Z</time></trkpt><trkpt lat="24.757247856172427" lon="120.98811342905675"><ele>65.0</ele><time>2026-03-22T10:55:14Z</time></trkpt><trkpt lat="24.75715711831845" lon="120.98834301330321"><ele>65.0</ele><time>2026-03-22T10:55:15Z</time></trkpt><trkpt lat="24.75706538987898" lon="120.9885895316401"><ele>68.0</ele><time>2026-03-22T10:55:16Z</time></trkpt><trkpt lat="24.756975583850405" lon="120.98882069672462"><ele>71.0</ele><time>2026-03-22T10:55:17Z</time></trkpt><trkpt lat="24.756889276562756" lon="120.9890542391541"><ele>71.0</ele><time>2026-03-22T10:55:18Z</time></trkpt><trkpt lat="24.756802292477644" lon="120.9892832283197"><ele>71.0</ele><time>2026-03-22T10:55:19Z</time></trkpt><trkpt lat="24.756715595442827" lon="120.98950710011025"><ele>71.0</ele><time>2026-03-22T10:55:20Z</time></trkpt><trkpt lat="24.75662868951652" lon="120.98972181320585"><ele>71.0</ele><time>2026-03-22T10:55:21Z</time></trkpt><trkpt lat="24.756546663008653" lon="120.98993816294113"><ele>71.0</ele><time>2026-03-22T10:55:22Z</time></trkpt><trkpt lat="24.756466608496893" lon="120.99016522447644"><ele>71.0</ele><time>2026-03-22T10:55:23Z</time></trkpt><trkpt lat="24.756392771253356" lon="120.99038505710668"><ele>71.0</ele><time>2026-03-22T10:55:24Z</time></trkpt><trkpt lat="24.75631430469462" lon="120.99060346794008"><ele>71.0</ele><time>2026-03-22T10:55:25Z</time></trkpt><trkpt lat="24.75624833616373" lon="120.99080832875221"><ele>71.0</ele><time>2026-03-22T10:55:26Z</time></trkpt><trkpt lat="24.756176002765066" lon="120.9910282436224"><ele>72.0</ele><time>2026-03-22T10:55:27Z</time></trkpt><trkpt lat="24.756097158096253" lon="120.99123586310051"><ele>73.0</ele><time>2026-03-22T10:55:28Z</time></trkpt><trkpt lat="24.7560523471398" lon="120.99145339838707"><ele>74.0</ele><time>2026-03-22T10:55:29Z</time></trkpt><trkpt lat="24.756000990408065" lon="120.99165962893787"><ele>74.0</ele><time>2026-03-22T10:55:30Z</time></trkpt><trkpt lat="24.75594843693487" lon="120.99186439413647"><ele>74.0</ele><time>2026-03-22T10:55:31Z</time></trkpt><trkpt lat="24.75590381273711" lon="120.99205915165196"><ele>74.0</ele><time>2026-03-22T10:55:32Z</time></trkpt><trkpt lat="24.75586101431169" lon="120.99224474509421"><ele>74.0</ele><time>2026-03-22T10:55:33Z</time></trkpt><trkpt lat="24.75582096495757" lon="120.99242387055058"><ele>74.0</ele><time>2026-03-22T10:55:34Z</time></trkpt><trkpt lat="24.755785818895536" lon="120.9925854977019"><ele>74.0</ele><time>2026-03-22T10:55:35Z</time></trkpt><trkpt lat="24.75575940673685" lon="120.99273791101304"><ele>73.25</ele><time>2026-03-22T10:55:36Z</time></trkpt><trkpt lat="24.75572991659021" lon="120.9928696858597"><ele>72.5</ele><time>2026-03-22T10:55:37Z</time></trkpt><trkpt lat="24.755708337285824" lon="120.99299335411455"><ele>71.75</ele><time>2026-03-22T10:55:38Z</time></trkpt><trkpt lat="24.755691005641058" lon="120.99311699545657"><ele>71.0</ele><time>2026-03-22T10:55:39Z</time></trkpt><trkpt lat="24.755678290569314" lon="120.99324441957181"><ele>70.6</ele><time>2026-03-22T10:55:40Z</time></trkpt><trkpt lat="24.75567509765812" lon="120.99337350659644"><ele>70.19999999999999</ele><time>2026-03-22T10:55:41Z</time></trkpt><trkpt lat="24.755662540742975" lon="120.99348548943121"><ele>69.80000000000001</ele><time>2026-03-22T10:55:42Z</time></trkpt><trkpt lat="24.755659794918824" lon="120.99360012758086"><ele>69.4</ele><time>2026-03-22T10:55:43Z</time></trkpt><trkpt lat="24.75565439402495" lon="120.9937117523177"><ele>69.0</ele><time>2026-03-22T10:55:44Z</time></trkpt><trkpt lat="24.755649229204376" lon="120.99382279423318"><ele>69.0</ele><time>2026-03-22T10:55:45Z</time></trkpt><trkpt lat="24.755641870857207" lon="120.99393130567258"><ele>69.0</ele><time>2026-03-22T10:55:46Z</time></trkpt><trkpt lat="24.75563519578518" lon="120.99404006044334"><ele>69.0</ele><time>2026-03-22T10:55:47Z</time></trkpt><trkpt lat="24.755627812037602" lon="120.99415018852253"><ele>69.0</ele><time>2026-03-22T10:55:48Z</time></trkpt><trkpt lat="24.755620295784066" lon="120.99425841131941"><ele>69.0</ele><time>2026-03-22T10:55:49Z</time></trkpt><trkpt lat="24.755615614840536" lon="120.99435943788828"><ele>68.83333333333333</ele><time>2026-03-22T10:55:50Z</time></trkpt><trkpt lat="24.755602261367383" lon="120.99446101696603"><ele>68.66666666666667</ele><time>2026-03-22T10:55:51Z</time></trkpt><trkpt lat="24.755595910104788" lon="120.99456831032423"><ele>68.5</ele><time>2026-03-22T10:55:52Z</time></trkpt><trkpt lat="24.755595846986562" lon="120.99465518454203"><ele>68.33333333333334</ele><time>2026-03-22T10:55:53Z</time></trkpt><trkpt lat="24.75559719796893" lon="120.99475157787217"><ele>68.16666666666667</ele><time>2026-03-22T10:55:54Z</time></trkpt><trkpt lat="24.755595515305163" lon="120.9948448232778"><ele>68.0</ele><time>2026-03-22T10:55:55Z</time></trkpt><trkpt lat="24.755595606619167" lon="120.99493689828526"><ele>66.57142857142857</ele><time>2026-03-22T10:55:56Z</time></trkpt><trkpt lat="24.755596631684345" lon="120.9950145600931"><ele>65.14285714285714</ele><time>2026-03-22T10:55:57Z</time></trkpt><trkpt lat="24.75559822654908" lon="120.99508871464114"><ele>63.714285714285715</ele><time>2026-03-22T10:55:58Z</time></trkpt><trkpt lat="24.755599930007204" lon="120.99515975790216"><ele>62.285714285714285</ele><time>2026-03-22T10:55:59Z</time></trkpt><trkpt lat="24.755602406536905" lon="120.99522914038505"><ele>60.85714285714286</ele><time>2026-03-22T10:56:00Z</time></trkpt><trkpt lat="24.755602841646546" lon="120.99530426074212"><ele>59.42857142857144</ele><time>2026-03-22T10:56:01Z</time></trkpt><trkpt lat="24.75560359572504" lon="120.99537398131119"><ele>58.00000000000001</ele><time>2026-03-22T10:56:02Z</time></trkpt><trkpt lat="24.755608446804796" lon="120.99544453747055"><ele>57.99999999999999</ele><time>2026-03-22T10:56:03Z</time></trkpt><trkpt lat="24.755615067971277" lon="120.99557888627375"><ele>58.0</ele><time>2026-03-22T10:56:05Z</time></trkpt><trkpt lat="24.755618369216016" lon="120.99565317599848"><ele>58.0</ele><time>2026-03-22T10:56:06Z</time></trkpt><trkpt lat="24.75562469276984" lon="120.9957366528077"><ele>58.0</ele><time>2026-03-22T10:56:07Z</time></trkpt><trkpt lat="24.75562490990031" lon="120.99586299007322"><ele>57.99999999999999</ele><time>2026-03-22T10:56:09Z</time></trkpt><trkpt lat="24.755627010796477" lon="120.99593232197961"><ele>58.0</ele><time>2026-03-22T10:56:10Z</time></trkpt><trkpt lat="24.755637785356264" lon="120.99606959428375"><ele>58.4</ele><time>2026-03-22T10:56:12Z</time></trkpt><trkpt lat="24.75564957069622" lon="120.9962152933143"><ele>58.8</ele><time>2026-03-22T10:56:14Z</time></trkpt><trkpt lat="24.7556583993792" lon="120.99630396337804"><ele>59.2</ele><time>2026-03-22T10:56:15Z</time></trkpt><trkpt lat="24.755667960638597" lon="120.9963999597358"><ele>59.6</ele><time>2026-03-22T10:56:16Z</time></trkpt><trkpt lat="24.75567866827975" lon="120.99649760082838"><ele>60.0</ele><time>2026-03-22T10:56:17Z</time></trkpt><trkpt lat="24.755691279278274" lon="120.9965973967592"><ele>62.166666666666664</ele><time>2026-03-22T10:56:18Z</time></trkpt><trkpt lat="24.755702846185848" lon="120.99670085293114"><ele>64.33333333333333</ele><time>2026-03-22T10:56:19Z</time></trkpt><trkpt lat="24.75571437318546" lon="120.99679782466005"><ele>66.5</ele><time>2026-03-22T10:56:20Z</time></trkpt><trkpt lat="24.75572614786701" lon="120.99689717605095"><ele>68.66666666666666</ele><time>2026-03-22T10:56:21Z</time></trkpt><trkpt lat="24.755736949202674" lon="120.99699197017398"><ele>70.83333333333333</ele><time>2026-03-22T10:56:22Z</time></trkpt><trkpt lat="24.755751363035536" lon="120.99707751442833"><ele>73.0</ele><time>2026-03-22T10:56:23Z</time></trkpt><trkpt lat="24.75576290050751" lon="120.99715746402045"><ele>73.0</ele><time>2026-03-22T10:56:24Z</time></trkpt><trkpt lat="24.755773307934767" lon="120.99723343314038"><ele>73.0</ele><time>2026-03-22T10:56:25Z</time></trkpt><trkpt lat="24.755785590581702" lon="120.99730464542468"><ele>73.0</ele><time>2026-03-22T10:56:26Z</time></trkpt><trkpt lat="24.755806399667865" lon="120.99742094744707"><ele>73.0</ele><time>2026-03-22T10:56:28Z</time></trkpt><trkpt lat="24.755824384309996" lon="120.99753573319104"><ele>73.0</ele><time>2026-03-22T10:56:30Z</time></trkpt><trkpt lat="24.755844524190287" lon="120.9976434896784"><ele>73.0</ele><time>2026-03-22T10:56:32Z</time></trkpt><trkpt lat="24.755864870933152" lon="120.99774318803847"><ele>72.5</ele><time>2026-03-22T10:56:34Z</time></trkpt><trkpt lat="24.755881120882822" lon="120.99782956535905"><ele>72.0</ele><time>2026-03-22T10:56:36Z</time></trkpt><trkpt lat="24.75589592258459" lon="120.99792102669045"><ele>71.5</ele><time>2026-03-22T10:56:38Z</time></trkpt><trkpt lat="24.755918855256464" lon="120.9980280181206"><ele>71.0</ele><time>2026-03-22T10:56:40Z</time></trkpt><trkpt lat="24.755931595469736" lon="120.99809619129832"><ele>70.5</ele><time>2026-03-22T10:56:41Z</time></trkpt><trkpt lat="24.755947272349268" lon="120.99816910626713"><ele>70.0</ele><time>2026-03-22T10:56:42Z</time></trkpt><trkpt lat="24.755963488617176" lon="120.99824859492982"><ele>70.0</ele><time>2026-03-22T10:56:43Z</time></trkpt><trkpt lat="24.7559795505565" lon="120.99832544165291"><ele>70.0</ele><time>2026-03-22T10:56:44Z</time></trkpt><trkpt lat="24.755993548036265" lon="120.9983940229183"><ele>70.0</ele><time>2026-03-22T10:56:45Z</time></trkpt><trkpt lat="24.75600794882382" lon="120.99846516343139"><ele>70.0</ele><time>2026-03-22T10:56:46Z</time></trkpt><trkpt lat="24.75602470345215" lon="120.99853630419624"><ele>70.0</ele><time>2026-03-22T10:56:47Z</time></trkpt><trkpt lat="24.756042118445144" lon="120.99861449866711"><ele>70.0</ele><time>2026-03-22T10:56:48Z</time></trkpt><trkpt lat="24.756059490660736" lon="120.99869679930211"><ele>70.0</ele><time>2026-03-22T10:56:49Z</time></trkpt><trkpt lat="24.756081518881565" lon="120.99878959510848"><ele>71.5</ele><time>2026-03-22T10:56:50Z</time></trkpt><trkpt lat="24.75610459051821" lon="120.9988796163067"><ele>73.0</ele><time>2026-03-22T10:56:51Z</time></trkpt><trkpt lat="24.756124062705748" lon="120.99896458641786"><ele>74.5</ele><time>2026-03-22T10:56:52Z</time></trkpt><trkpt lat="24.756142397763124" lon="120.99904819504195"><ele>76.0</ele><time>2026-03-22T10:56:53Z</time></trkpt><trkpt lat="24.756163642523582" lon="120.99913176796096"><ele>77.5</ele><time>2026-03-22T10:56:54Z</time></trkpt><trkpt lat="24.756188676317404" lon="120.9992093158354"><ele>79.0</ele><time>2026-03-22T10:56:55Z</time></trkpt><trkpt lat="24.756211797155196" lon="120.99928772948954"><ele>79.0</ele><time>2026-03-22T10:56:56Z</time></trkpt><trkpt lat="24.7562323130116" lon="120.99935790099548"><ele>79.0</ele><time>2026-03-22T10:56:57Z</time></trkpt><trkpt lat="24.7562491918417" lon="120.99942808432657"><ele>79.0</ele><time>2026-03-22T10:56:58Z</time></trkpt><trkpt lat="24.756263196815745" lon="120.99949812153561"><ele>79.0</ele><time>2026-03-22T10:56:59Z</time></trkpt><trkpt lat="24.75629044390056" lon="120.99962069839665"><ele>79.0</ele><time>2026-03-22T10:57:01Z</time></trkpt><trkpt lat="24.756313885241887" lon="120.99973115383195"><ele>79.0</ele><time>2026-03-22T10:57:03Z</time></trkpt><trkpt lat="24.75633974678973" lon="120.99984781762286"><ele>79.0</ele><time>2026-03-22T10:57:05Z</time></trkpt><trkpt lat="24.75636926545278" lon="120.99996961964206"><ele>79.0</ele><time>2026-03-22T10:57:07Z</time></trkpt><trkpt lat="24.756399786184012" lon="121.00009487035047"><ele>79.0</ele><time>2026-03-22T10:57:09Z</time></trkpt><trkpt lat="24.756429551803667" lon="121.00022290863225"><ele>79.0</ele><time>2026-03-22T10:57:11Z</time></trkpt><trkpt lat="24.756459980653155" lon="121.00035199300298"><ele>79.0</ele><time>2026-03-22T10:57:13Z</time></trkpt><trkpt lat="24.756490593172735" lon="121.00047545928649"><ele>79.0</ele><time>2026-03-22T10:57:15Z</time></trkpt><trkpt lat="24.756518486039862" lon="121.00059672831"><ele>79.0</ele><time>2026-03-22T10:57:17Z</time></trkpt><trkpt lat="24.75654420082868" lon="121.00071305134605"><ele>79.0</ele><time>2026-03-22T10:57:19Z</time></trkpt><trkpt lat="24.7565698698075" lon="121.00083285366924"><ele>78.0</ele><time>2026-03-22T10:57:21Z</time></trkpt><trkpt lat="24.756597359231392" lon="121.00095252791799"><ele>77.0</ele><time>2026-03-22T10:57:23Z</time></trkpt><trkpt lat="24.756624901720745" lon="121.00107261255384"><ele>76.0</ele><time>2026-03-22T10:57:25Z</time></trkpt><trkpt lat="24.756650602730716" lon="121.00119054867396"><ele>75.0</ele><time>2026-03-22T10:57:27Z</time></trkpt><trkpt lat="24.756675324433125" lon="121.00131362148238"><ele>74.0</ele><time>2026-03-22T10:57:29Z</time></trkpt><trkpt lat="24.756692728173668" lon="121.0013831593791"><ele>74.0</ele><time>2026-03-22T10:57:30Z</time></trkpt><trkpt lat="24.756721232398938" lon="121.00151990466411"><ele>74.0</ele><time>2026-03-22T10:57:32Z</time></trkpt><trkpt lat="24.756737824125867" lon="121.00159244156812"><ele>74.0</ele><time>2026-03-22T10:57:33Z</time></trkpt><trkpt lat="24.75675304313926" lon="121.0016647196843"><ele>74.0</ele><time>2026-03-22T10:57:34Z</time></trkpt><trkpt lat="24.75677004355118" lon="121.00174066159575"><ele>74.0</ele><time>2026-03-22T10:57:35Z</time></trkpt><trkpt lat="24.756784768762902" lon="121.00181336613551"><ele>74.0</ele><time>2026-03-22T10:57:36Z</time></trkpt><trkpt lat="24.75679873785356" lon="121.00188571203236"><ele>73.85714285714286</ele><time>2026-03-22T10:57:37Z</time></trkpt><trkpt lat="24.756813541967563" lon="121.00195796485069"><ele>73.71428571428571</ele><time>2026-03-22T10:57:38Z</time></trkpt><trkpt lat="24.756827860137864" lon="121.00203606726015"><ele>73.57142857142857</ele><time>2026-03-22T10:57:39Z</time></trkpt><trkpt lat="24.75684405812675" lon="121.0021166441401"><ele>73.42857142857143</ele><time>2026-03-22T10:57:40Z</time></trkpt><trkpt lat="24.756859211214095" lon="121.00219764158426"><ele>73.28571428571429</ele><time>2026-03-22T10:57:41Z</time></trkpt><trkpt lat="24.756874999896198" lon="121.00228313480224"><ele>73.14285714285714</ele><time>2026-03-22T10:57:42Z</time></trkpt><trkpt lat="24.756889592885095" lon="121.0023675907148"><ele>73.0</ele><time>2026-03-22T10:57:43Z</time></trkpt><trkpt lat="24.756906602959173" lon="121.0024514787476"><ele>72.28571428571428</ele><time>2026-03-22T10:57:44Z</time></trkpt><trkpt lat="24.75691951581664" lon="121.00253067736465"><ele>71.57142857142857</ele><time>2026-03-22T10:57:45Z</time></trkpt><trkpt lat="24.7569314950708" lon="121.00260906109862"><ele>70.85714285714286</ele><time>2026-03-22T10:57:46Z</time></trkpt><trkpt lat="24.756947729141498" lon="121.00269086096267"><ele>70.14285714285714</ele><time>2026-03-22T10:57:47Z</time></trkpt><trkpt lat="24.756958929121403" lon="121.00276991382462"><ele>69.42857142857143</ele><time>2026-03-22T10:57:48Z</time></trkpt><trkpt lat="24.756971557502865" lon="121.00284725194795"><ele>68.71428571428571</ele><time>2026-03-22T10:57:49Z</time></trkpt><trkpt lat="24.75698105602207" lon="121.00292208350908"><ele>68.0</ele><time>2026-03-22T10:57:50Z</time></trkpt><trkpt lat="24.756991246131044" lon="121.00299336730578"><ele>68.0</ele><time>2026-03-22T10:57:51Z</time></trkpt><trkpt lat="24.756999176913418" lon="121.00306333233937"><ele>68.0</ele><time>2026-03-22T10:57:52Z</time></trkpt><trkpt lat="24.757017154797584" lon="121.00319564611823"><ele>68.0</ele><time>2026-03-22T10:57:54Z</time></trkpt><trkpt lat="24.757034378718732" lon="121.00333356803519"><ele>68.0</ele><time>2026-03-22T10:57:56Z</time></trkpt><trkpt lat="24.757043680610597" lon="121.00340522462727"><ele>68.0</ele><time>2026-03-22T10:57:57Z</time></trkpt><trkpt lat="24.75705468373218" lon="121.00347813864865"><ele>68.0</ele><time>2026-03-22T10:57:58Z</time></trkpt><trkpt lat="24.757070734224442" lon="121.00361195144247"><ele>66.25</ele><time>2026-03-22T10:58:00Z</time></trkpt><trkpt lat="24.757083021771606" lon="121.00374055420139"><ele>64.5</ele><time>2026-03-22T10:58:02Z</time></trkpt><trkpt lat="24.757094219983514" lon="121.00386568412682"><ele>62.75</ele><time>2026-03-22T10:58:04Z</time></trkpt><trkpt lat="24.75710440253724" lon="121.00399969082198"><ele>61.0</ele><time>2026-03-22T10:58:06Z</time></trkpt><trkpt lat="24.757114201219576" lon="121.00413242069902"><ele>60.5</ele><time>2026-03-22T10:58:08Z</time></trkpt><trkpt lat="24.757122271243343" lon="121.0042623454454"><ele>60.0</ele><time>2026-03-22T10:58:10Z</time></trkpt><trkpt lat="24.75712768061399" lon="121.00439277087523"><ele>59.5</ele><time>2026-03-22T10:58:12Z</time></trkpt><trkpt lat="24.757134265704718" lon="121.00452389415895"><ele>59.0</ele><time>2026-03-22T10:58:14Z</time></trkpt><trkpt lat="24.75713533320438" lon="121.00465163635923"><ele>59.0</ele><time>2026-03-22T10:58:16Z</time></trkpt><trkpt lat="24.757139911339724" lon="121.00476637141782"><ele>59.00000000000001</ele><time>2026-03-22T10:58:18Z</time></trkpt><trkpt lat="24.757141849903615" lon="121.00486976461471"><ele>59.00000000000001</ele><time>2026-03-22T10:58:20Z</time></trkpt><trkpt lat="24.757142932073933" lon="121.00497526660263"><ele>59.0</ele><time>2026-03-22T10:58:22Z</time></trkpt><trkpt lat="24.75714531717217" lon="121.00510873729048"><ele>59.0</ele><time>2026-03-22T10:58:24Z</time></trkpt><trkpt lat="24.757145863497087" lon="121.00518780975032"><ele>58.833333333333336</ele><time>2026-03-22T10:58:25Z</time></trkpt><trkpt lat="24.757145546059686" lon="121.00527125153783"><ele>58.66666666666667</ele><time>2026-03-22T10:58:26Z</time></trkpt><trkpt lat="24.757145807808477" lon="121.0053528068631"><ele>58.5</ele><time>2026-03-22T10:58:27Z</time></trkpt><trkpt lat="24.757144841673117" lon="121.00543173983799"><ele>58.33333333333333</ele><time>2026-03-22T10:58:28Z</time></trkpt><trkpt lat="24.75714304023339" lon="121.00551684991576"><ele>58.166666666666664</ele><time>2026-03-22T10:58:29Z</time></trkpt><trkpt lat="24.757141412774512" lon="121.00561350114904"><ele>58.0</ele><time>2026-03-22T10:58:30Z</time></trkpt><trkpt lat="24.75713788518668" lon="121.00572399600367"><ele>57.599999999999994</ele><time>2026-03-22T10:58:31Z</time></trkpt><trkpt lat="24.757132253268665" lon="121.00583275171127"><ele>57.199999999999996</ele><time>2026-03-22T10:58:32Z</time></trkpt><trkpt lat="24.75712782485025" lon="121.00593673324359"><ele>56.8</ele><time>2026-03-22T10:58:33Z</time></trkpt><trkpt lat="24.75712249713429" lon="121.00603328025971"><ele>56.4</ele><time>2026-03-22T10:58:34Z</time></trkpt><trkpt lat="24.757116070436265" lon="121.00613286725246"><ele>56.0</ele><time>2026-03-22T10:58:35Z</time></trkpt><trkpt lat="24.757109380356216" lon="121.00623800746307"><ele>56.0</ele><time>2026-03-22T10:58:36Z</time></trkpt><trkpt lat="24.757101313204945" lon="121.00634672448645"><ele>55.99999999999999</ele><time>2026-03-22T10:58:37Z</time></trkpt><trkpt lat="24.757092496991856" lon="121.00645638560268"><ele>55.99999999999999</ele><time>2026-03-22T10:58:38Z</time></trkpt><trkpt lat="24.75708393992456" lon="121.00656394467754"><ele>56.0</ele><time>2026-03-22T10:58:39Z</time></trkpt><trkpt lat="24.75707367093751" lon="121.00666882682061"><ele>56.0</ele><time>2026-03-22T10:58:40Z</time></trkpt><trkpt lat="24.75706197000682" lon="121.00678106056084"><ele>57.599999999999994</ele><time>2026-03-22T10:58:41Z</time></trkpt><trkpt lat="24.7570498661341" lon="121.00689104819823"><ele>59.199999999999996</ele><time>2026-03-22T10:58:42Z</time></trkpt><trkpt lat="24.757037768095866" lon="121.00700093222437"><ele>60.800000000000004</ele><time>2026-03-22T10:58:43Z</time></trkpt><trkpt lat="24.757024235841754" lon="121.00711363788228"><ele>62.400000000000006</ele><time>2026-03-22T10:58:44Z</time></trkpt><trkpt lat="24.757008614310944" lon="121.00723061044572"><ele>64.0</ele><time>2026-03-22T10:58:45Z</time></trkpt><trkpt lat="24.756988274945957" lon="121.00734764093525"><ele>64.0</ele><time>2026-03-22T10:58:46Z</time></trkpt><trkpt lat="24.756971765622062" lon="121.00746589478001"><ele>64.0</ele><time>2026-03-22T10:58:47Z</time></trkpt><trkpt lat="24.756953213316763" lon="121.0075845933599"><ele>64.0</ele><time>2026-03-22T10:58:48Z</time></trkpt><trkpt lat="24.756933506122536" lon="121.00770012186773"><ele>64.0</ele><time>2026-03-22T10:58:49Z</time></trkpt><trkpt lat="24.756912602042906" lon="121.00781593661536"><ele>64.0</ele><time>2026-03-22T10:58:50Z</time></trkpt><trkpt lat="24.756891935124884" lon="121.00792888721085"><ele>64.4</ele><time>2026-03-22T10:58:51Z</time></trkpt><trkpt lat="24.75686951682381" lon="121.00803804003782"><ele>64.80000000000001</ele><time>2026-03-22T10:58:52Z</time></trkpt><trkpt lat="24.75684764713434" lon="121.00814245451062"><ele>65.19999999999999</ele><time>2026-03-22T10:58:53Z</time></trkpt><trkpt lat="24.756823611296404" lon="121.00825043241275"><ele>65.6</ele><time>2026-03-22T10:58:54Z</time></trkpt><trkpt lat="24.75679566467836" lon="121.00836257511624"><ele>66.0</ele><time>2026-03-22T10:58:55Z</time></trkpt><trkpt lat="24.75676413660037" lon="121.0084768350455"><ele>67.5</ele><time>2026-03-22T10:58:56Z</time></trkpt><trkpt lat="24.756728879340884" lon="121.00860069518149"><ele>69.0</ele><time>2026-03-22T10:58:57Z</time></trkpt><trkpt lat="24.7566917397273" lon="121.00872936922835"><ele>70.5</ele><time>2026-03-22T10:58:58Z</time></trkpt><trkpt lat="24.756653193119057" lon="121.00886584754963"><ele>72.0</ele><time>2026-03-22T10:58:59Z</time></trkpt><trkpt lat="24.756616981250755" lon="121.00900455740756"><ele>72.0</ele><time>2026-03-22T10:59:00Z</time></trkpt><trkpt lat="24.756580780617725" lon="121.00915572464643"><ele>72.0</ele><time>2026-03-22T10:59:01Z</time></trkpt><trkpt lat="24.756545210168298" lon="121.00929821239625"><ele>72.0</ele><time>2026-03-22T10:59:02Z</time></trkpt><trkpt lat="24.7565076836929" lon="121.00943909056484"><ele>72.0</ele><time>2026-03-22T10:59:03Z</time></trkpt><trkpt lat="24.756469243067226" lon="121.00958387999697"><ele>73.75</ele><time>2026-03-22T10:59:04Z</time></trkpt><trkpt lat="24.756428777223565" lon="121.0097302801665"><ele>75.5</ele><time>2026-03-22T10:59:05Z</time></trkpt><trkpt lat="24.75638934519783" lon="121.00987218535795"><ele>77.25</ele><time>2026-03-22T10:59:06Z</time></trkpt><trkpt lat="24.75634958812964" lon="121.01000952000808"><ele>79.0</ele><time>2026-03-22T10:59:07Z</time></trkpt><trkpt lat="24.75631070108803" lon="121.01014652659133"><ele>79.5</ele><time>2026-03-22T10:59:08Z</time></trkpt><trkpt lat="24.75626586473791" lon="121.01028468923977"><ele>80.0</ele><time>2026-03-22T10:59:09Z</time></trkpt><trkpt lat="24.75622664020755" lon="121.010426246001"><ele>80.5</ele><time>2026-03-22T10:59:10Z</time></trkpt><trkpt lat="24.75618198436238" lon="121.01056631484245"><ele>81.0</ele><time>2026-03-22T10:59:11Z</time></trkpt><trkpt lat="24.756138913394164" lon="121.01071079510648"><ele>80.75</ele><time>2026-03-22T10:59:12Z</time></trkpt><trkpt lat="24.756093524018667" lon="121.01085923590125"><ele>80.5</ele><time>2026-03-22T10:59:13Z</time></trkpt><trkpt lat="24.75604598240919" lon="121.011008343641"><ele>80.25</ele><time>2026-03-22T10:59:14Z</time></trkpt><trkpt lat="24.755997964084248" lon="121.0111600274602"><ele>80.0</ele><time>2026-03-22T10:59:15Z</time></trkpt><trkpt lat="24.75594826323547" lon="121.0113139741933"><ele>82.25</ele><time>2026-03-22T10:59:16Z</time></trkpt><trkpt lat="24.75589594549558" lon="121.01146944589382"><ele>84.5</ele><time>2026-03-22T10:59:17Z</time></trkpt><trkpt lat="24.755845544668976" lon="121.01162194283508"><ele>86.75</ele><time>2026-03-22T10:59:18Z</time></trkpt><trkpt lat="24.755795872541107" lon="121.01176950774989"><ele>89.0</ele><time>2026-03-22T10:59:19Z</time></trkpt><trkpt lat="24.75574778458384" lon="121.01191859434714"><ele>89.0</ele><time>2026-03-22T10:59:20Z</time></trkpt><trkpt lat="24.755699416624548" lon="121.0120699874284"><ele>89.0</ele><time>2026-03-22T10:59:21Z</time></trkpt><trkpt lat="24.755649531761335" lon="121.01222122810616"><ele>89.0</ele><time>2026-03-22T10:59:22Z</time></trkpt><trkpt lat="24.755600164392092" lon="121.01237337145825"><ele>89.0</ele><time>2026-03-22T10:59:23Z</time></trkpt><trkpt lat="24.755550740216158" lon="121.01252359562098"><ele>87.75</ele><time>2026-03-22T10:59:24Z</time></trkpt><trkpt lat="24.755505152287398" lon="121.01267128000678"><ele>86.5</ele><time>2026-03-22T10:59:25Z</time></trkpt><trkpt lat="24.755457264984617" lon="121.01282096495228"><ele>85.25</ele><time>2026-03-22T10:59:26Z</time></trkpt><trkpt lat="24.755412635003214" lon="121.01296953224808"><ele>84.0</ele><time>2026-03-22T10:59:27Z</time></trkpt><trkpt lat="24.75536727875698" lon="121.0131065083166"><ele>84.0</ele><time>2026-03-22T10:59:28Z</time></trkpt><trkpt lat="24.755317836525666" lon="121.01324490621374"><ele>84.0</ele><time>2026-03-22T10:59:29Z</time></trkpt><trkpt lat="24.75526954084476" lon="121.01339183070236"><ele>84.0</ele><time>2026-03-22T10:59:30Z</time></trkpt><trkpt lat="24.755221303129144" lon="121.0135404657751"><ele>84.0</ele><time>2026-03-22T10:59:31Z</time></trkpt><trkpt lat="24.755178346108423" lon="121.01368238165341"><ele>83.5</ele><time>2026-03-22T10:59:32Z</time></trkpt><trkpt lat="24.755132403667613" lon="121.01383037348391"><ele>83.0</ele><time>2026-03-22T10:59:33Z</time></trkpt><trkpt lat="24.755085154794646" lon="121.01397970995147"><ele>82.5</ele><time>2026-03-22T10:59:34Z</time></trkpt><trkpt lat="24.75504139935723" lon="121.0141295222924"><ele>82.0</ele><time>2026-03-22T10:59:35Z</time></trkpt><trkpt lat="24.75499690289649" lon="121.01428137707074"><ele>83.25</ele><time>2026-03-22T10:59:36Z</time></trkpt><trkpt lat="24.75495241856693" lon="121.01443389539729"><ele>84.5</ele><time>2026-03-22T10:59:37Z</time></trkpt><trkpt lat="24.754907305564707" lon="121.0145900484561"><ele>85.75</ele><time>2026-03-22T10:59:38Z</time></trkpt><trkpt lat="24.754862967133985" lon="121.01474617678487"><ele>87.0</ele><time>2026-03-22T10:59:39Z</time></trkpt><trkpt lat="24.754817963683664" lon="121.01490466380277"><ele>86.33333333333333</ele><time>2026-03-22T10:59:40Z</time></trkpt><trkpt lat="24.754772415957873" lon="121.0150659007017"><ele>85.66666666666666</ele><time>2026-03-22T10:59:41Z</time></trkpt><trkpt lat="24.754727868175255" lon="121.0152306354761"><ele>85.0</ele><time>2026-03-22T10:59:42Z</time></trkpt><trkpt lat="24.754683819720114" lon="121.01539998066859"><ele>85.0</ele><time>2026-03-22T10:59:43Z</time></trkpt><trkpt lat="24.754640176510353" lon="121.01557342894925"><ele>85.0</ele><time>2026-03-22T10:59:44Z</time></trkpt><trkpt lat="24.754596537919547" lon="121.0157511025325"><ele>85.0</ele><time>2026-03-22T10:59:45Z</time></trkpt><trkpt lat="24.75455458176599" lon="121.01593029551225"><ele>85.0</ele><time>2026-03-22T10:59:46Z</time></trkpt><trkpt lat="24.754516670502145" lon="121.01611321805316"><ele>85.0</ele><time>2026-03-22T10:59:47Z</time></trkpt><trkpt lat="24.75447754085998" lon="121.01630120960453"><ele>85.0</ele><time>2026-03-22T10:59:48Z</time></trkpt><trkpt lat="24.754439811622838" lon="121.01649618763753"><ele>89.66666666666666</ele><time>2026-03-22T10:59:49Z</time></trkpt><trkpt lat="24.75440259834581" lon="121.0166944971981"><ele>94.33333333333333</ele><time>2026-03-22T10:59:50Z</time></trkpt><trkpt lat="24.75436801590446" lon="121.01689849806955"><ele>99.0</ele><time>2026-03-22T10:59:51Z</time></trkpt><trkpt lat="24.75433415043459" lon="121.01710307615191"><ele>100.66666666666666</ele><time>2026-03-22T10:59:52Z</time></trkpt><trkpt lat="24.754304913431884" lon="121.0173043488011"><ele>102.33333333333333</ele><time>2026-03-22T10:59:53Z</time></trkpt><trkpt lat="24.754277143746027" lon="121.01750637752654"><ele>104.0</ele><time>2026-03-22T10:59:54Z</time></trkpt><trkpt lat="24.75424753820623" lon="121.01770856619527"><ele>104.33333333333333</ele><time>2026-03-22T10:59:55Z</time></trkpt><trkpt lat="24.754223619582145" lon="121.01791550853568"><ele>104.66666666666666</ele><time>2026-03-22T10:59:56Z</time></trkpt><trkpt lat="24.75420037701612" lon="121.01811977395694"><ele>105.0</ele><time>2026-03-22T10:59:57Z</time></trkpt><trkpt lat="24.75417886030144" lon="121.01832809172993"><ele>106.33333333333334</ele><time>2026-03-22T10:59:58Z</time></trkpt><trkpt lat="24.754167236806573" lon="121.01853643105561"><ele>107.66666666666667</ele><time>2026-03-22T10:59:59Z</time></trkpt><trkpt lat="24.754126365041806" lon="121.01872865799513"><ele>109.0</ele><time>2026-03-22T11:00:00Z</time></trkpt><trkpt lat="24.754142838688463" lon="121.01895626344898"><ele>110.0</ele><time>2026-03-22T11:00:01Z</time></trkpt><trkpt lat="24.754139778313046" lon="121.0191538571939"><ele>111.0</ele><time>2026-03-22T11:00:02Z</time></trkpt><trkpt lat="24.754135381710242" lon="121.0193504826316"><ele>112.0</ele><time>2026-03-22T11:00:03Z</time></trkpt><trkpt lat="24.754132655198834" lon="121.01955962044539"><ele>112.0</ele><time>2026-03-22T11:00:04Z</time></trkpt><trkpt lat="24.754131461100517" lon="121.01976758063219"><ele>112.0</ele><time>2026-03-22T11:00:05Z</time></trkpt><trkpt lat="24.75414022935903" lon="121.01997374598609"><ele>112.0</ele><time>2026-03-22T11:00:06Z</time></trkpt><trkpt lat="24.754149771208382" lon="121.02017864665702"><ele>111.0</ele><time>2026-03-22T11:00:07Z</time></trkpt><trkpt lat="24.75415966604342" lon="121.0203853057767"><ele>110.0</ele><time>2026-03-22T11:00:08Z</time></trkpt><trkpt lat="24.754169128320523" lon="121.02058955622914"><ele>109.0</ele><time>2026-03-22T11:00:09Z</time></trkpt><trkpt lat="24.75418042754168" lon="121.02079973304294"><ele>107.66666666666667</ele><time>2026-03-22T11:00:10Z</time></trkpt><trkpt lat="24.75419857570111" lon="121.02101296053422"><ele>106.33333333333334</ele><time>2026-03-22T11:00:11Z</time></trkpt><trkpt lat="24.75422239677589" lon="121.0212263370236"><ele>105.0</ele><time>2026-03-22T11:00:12Z</time></trkpt><trkpt lat="24.754245787916176" lon="121.02144525619805"><ele>107.66666666666666</ele><time>2026-03-22T11:00:13Z</time></trkpt><trkpt lat="24.75427021260242" lon="121.02166071172564"><ele>110.33333333333333</ele><time>2026-03-22T11:00:14Z</time></trkpt><trkpt lat="24.754298193510763" lon="121.02187566586954"><ele>113.0</ele><time>2026-03-22T11:00:15Z</time></trkpt><trkpt lat="24.754329997126973" lon="121.02208257139216"><ele>113.0</ele><time>2026-03-22T11:00:16Z</time></trkpt><trkpt lat="24.754362864795027" lon="121.02228704339805"><ele>113.0</ele><time>2026-03-22T11:00:17Z</time></trkpt><trkpt lat="24.754398063518156" lon="121.0224975345252"><ele>113.0</ele><time>2026-03-22T11:00:18Z</time></trkpt><trkpt lat="24.754437767057066" lon="121.02270975846922"><ele>116.0</ele><time>2026-03-22T11:00:19Z</time></trkpt><trkpt lat="24.75447962798581" lon="121.02292412552602"><ele>119.0</ele><time>2026-03-22T11:00:20Z</time></trkpt><trkpt lat="24.75452541307752" lon="121.02313784275157"><ele>122.0</ele><time>2026-03-22T11:00:21Z</time></trkpt><trkpt lat="24.754573082924377" lon="121.02335124865301"><ele>122.0</ele><time>2026-03-22T11:00:22Z</time></trkpt><trkpt lat="24.75462771204888" lon="121.0235657443282"><ele>122.0</ele><time>2026-03-22T11:00:23Z</time></trkpt><trkpt lat="24.754682717892628" lon="121.02377963244685"><ele>122.0</ele><time>2026-03-22T11:00:24Z</time></trkpt><trkpt lat="24.754742902289372" lon="121.02399395720764"><ele>120.33333333333333</ele><time>2026-03-22T11:00:25Z</time></trkpt><trkpt lat="24.754806720776067" lon="121.02420951885149"><ele>118.66666666666666</ele><time>2026-03-22T11:00:26Z</time></trkpt><trkpt lat="24.75487186843408" lon="121.02442486519814"><ele>117.0</ele><time>2026-03-22T11:00:27Z</time></trkpt><trkpt lat="24.75493990199674" lon="121.02463942095534"><ele>117.0</ele><time>2026-03-22T11:00:28Z</time></trkpt><trkpt lat="24.755010791373465" lon="121.02485430846079"><ele>117.0</ele><time>2026-03-22T11:00:29Z</time></trkpt><trkpt lat="24.75508501742503" lon="121.02506881193523"><ele>117.0</ele><time>2026-03-22T11:00:30Z</time></trkpt><trkpt lat="24.755162374858905" lon="121.02528213735211"><ele>120.0</ele><time>2026-03-22T11:00:31Z</time></trkpt><trkpt lat="24.755243938933354" lon="121.02549342485989"><ele>123.0</ele><time>2026-03-22T11:00:32Z</time></trkpt><trkpt lat="24.75532850188544" lon="121.02570144961356"><ele>126.0</ele><time>2026-03-22T11:00:33Z</time></trkpt><trkpt lat="24.755416692167046" lon="121.02590909930069"><ele>126.0</ele><time>2026-03-22T11:00:34Z</time></trkpt><trkpt lat="24.75550870036463" lon="121.0261160419954"><ele>126.0</ele><time>2026-03-22T11:00:35Z</time></trkpt><trkpt lat="24.75560303967151" lon="121.02632048061301"><ele>126.0</ele><time>2026-03-22T11:00:36Z</time></trkpt><trkpt lat="24.755697473307194" lon="121.02652342873965"><ele>125.66666666666666</ele><time>2026-03-22T11:00:37Z</time></trkpt><trkpt lat="24.755794356104822" lon="121.02672631415103"><ele>125.33333333333333</ele><time>2026-03-22T11:00:38Z</time></trkpt><trkpt lat="24.755894939890627" lon="121.02692843298921"><ele>125.0</ele><time>2026-03-22T11:00:39Z</time></trkpt><trkpt lat="24.756000552111956" lon="121.02712936084299"><ele>129.0</ele><time>2026-03-22T11:00:40Z</time></trkpt><trkpt lat="24.756110310787218" lon="121.02732827174731"><ele>133.0</ele><time>2026-03-22T11:00:41Z</time></trkpt><trkpt lat="24.756225687625758" lon="121.02752752745187"><ele>137.0</ele><time>2026-03-22T11:00:42Z</time></trkpt><trkpt lat="24.756341250425" lon="121.02772427455405"><ele>137.66666666666666</ele><time>2026-03-22T11:00:43Z</time></trkpt><trkpt lat="24.75645547683299" lon="121.02791858284557"><ele>138.33333333333334</ele><time>2026-03-22T11:00:44Z</time></trkpt><trkpt lat="24.756572538501363" lon="121.02810752247302"><ele>139.0</ele><time>2026-03-22T11:00:45Z</time></trkpt><trkpt lat="24.756694111217055" lon="121.02828964441125"><ele>140.33333333333334</ele><time>2026-03-22T11:00:46Z</time></trkpt><trkpt lat="24.756818523276074" lon="121.0284702179696"><ele>141.66666666666666</ele><time>2026-03-22T11:00:47Z</time></trkpt><trkpt lat="24.756943374788342" lon="121.02865026353588"><ele>143.0</ele><time>2026-03-22T11:00:48Z</time></trkpt><trkpt lat="24.757070544698692" lon="121.02882996947358"><ele>141.0</ele><time>2026-03-22T11:00:49Z</time></trkpt><trkpt lat="24.757202597098548" lon="121.02900427375204"><ele>139.0</ele><time>2026-03-22T11:00:50Z</time></trkpt><trkpt lat="24.757331957618927" lon="121.0291774270209"><ele>137.0</ele><time>2026-03-22T11:00:51Z</time></trkpt><trkpt lat="24.757460016947192" lon="121.02934747085773"><ele>137.0</ele><time>2026-03-22T11:00:52Z</time></trkpt><trkpt lat="24.757589175220637" lon="121.02951219977449"><ele>137.0</ele><time>2026-03-22T11:00:53Z</time></trkpt><trkpt lat="24.757718726773557" lon="121.02967555223859"><ele>137.0</ele><time>2026-03-22T11:00:54Z</time></trkpt><trkpt lat="24.757844957261963" lon="121.02983167654372"><ele>139.33333333333331</ele><time>2026-03-22T11:00:55Z</time></trkpt><trkpt lat="24.757975319385455" lon="121.02999246129032"><ele>141.66666666666666</ele><time>2026-03-22T11:00:56Z</time></trkpt><trkpt lat="24.75810442213589" lon="121.03014691563477"><ele>144.0</ele><time>2026-03-22T11:00:57Z</time></trkpt><trkpt lat="24.758234440744047" lon="121.03029790092495"><ele>144.0</ele><time>2026-03-22T11:00:58Z</time></trkpt><trkpt lat="24.758363102657423" lon="121.03044711080418"><ele>144.0</ele><time>2026-03-22T11:00:59Z</time></trkpt><trkpt lat="24.7584922482534" lon="121.03059686511862"><ele>144.0</ele><time>2026-03-22T11:01:00Z</time></trkpt><trkpt lat="24.75862256991786" lon="121.03074854262157"><ele>145.0</ele><time>2026-03-22T11:01:01Z</time></trkpt><trkpt lat="24.758755737492617" lon="121.03090098477395"><ele>146.0</ele><time>2026-03-22T11:01:02Z</time></trkpt><trkpt lat="24.75888858187397" lon="121.03105619766143"><ele>147.0</ele><time>2026-03-22T11:01:03Z</time></trkpt><trkpt lat="24.759019439581312" lon="121.03120829611717"><ele>147.0</ele><time>2026-03-22T11:01:04Z</time></trkpt><trkpt lat="24.75915231095921" lon="121.03135933250026"><ele>147.0</ele><time>2026-03-22T11:01:05Z</time></trkpt><trkpt lat="24.759281990310505" lon="121.03151192814906"><ele>147.0</ele><time>2026-03-22T11:01:06Z</time></trkpt><trkpt lat="24.75940956187907" lon="121.03165724655125"><ele>146.66666666666666</ele><time>2026-03-22T11:01:07Z</time></trkpt><trkpt lat="24.75954167364525" lon="121.03181193118829"><ele>146.33333333333331</ele><time>2026-03-22T11:01:08Z</time></trkpt><trkpt lat="24.759673772933834" lon="121.03197043941842"><ele>146.0</ele><time>2026-03-22T11:01:09Z</time></trkpt><trkpt lat="24.75981063375717" lon="121.03213130541265"><ele>146.0</ele><time>2026-03-22T11:01:10Z</time></trkpt><trkpt lat="24.759941905697097" lon="121.03228721422663"><ele>146.0</ele><time>2026-03-22T11:01:11Z</time></trkpt><trkpt lat="24.760071604595716" lon="121.03244246113856"><ele>146.0</ele><time>2026-03-22T11:01:12Z</time></trkpt><trkpt lat="24.760202253826456" lon="121.03260324324731"><ele>146.66666666666666</ele><time>2026-03-22T11:01:13Z</time></trkpt><trkpt lat="24.76033327996598" lon="121.03276536474577"><ele>147.33333333333334</ele><time>2026-03-22T11:01:14Z</time></trkpt><trkpt lat="24.760462439968958" lon="121.03293162259968"><ele>148.0</ele><time>2026-03-22T11:01:15Z</time></trkpt><trkpt lat="24.760589228031815" lon="121.03310160900729"><ele>148.0</ele><time>2026-03-22T11:01:16Z</time></trkpt><trkpt lat="24.76071433261265" lon="121.03327094282447"><ele>148.0</ele><time>2026-03-22T11:01:17Z</time></trkpt><trkpt lat="24.760838025777964" lon="121.0334399631788"><ele>148.0</ele><time>2026-03-22T11:01:18Z</time></trkpt><trkpt lat="24.760957343286968" lon="121.03361160073383"><ele>150.33333333333334</ele><time>2026-03-22T11:01:19Z</time></trkpt><trkpt lat="24.761073491284222" lon="121.03378367087412"><ele>152.66666666666666</ele><time>2026-03-22T11:01:20Z</time></trkpt><trkpt lat="24.761188564574002" lon="121.03395659883142"><ele>155.0</ele><time>2026-03-22T11:01:21Z</time></trkpt><trkpt lat="24.76130248180655" lon="121.03413467679655"><ele>149.66666666666666</ele><time>2026-03-22T11:01:22Z</time></trkpt><trkpt lat="24.76141085630531" lon="121.03431513354828"><ele>144.33333333333334</ele><time>2026-03-22T11:01:23Z</time></trkpt><trkpt lat="24.76152071167279" lon="121.03449909929809"><ele>139.0</ele><time>2026-03-22T11:01:24Z</time></trkpt><trkpt lat="24.761630823051668" lon="121.03468701427965"><ele>139.0</ele><time>2026-03-22T11:01:25Z</time></trkpt><trkpt lat="24.76173702123585" lon="121.03488072809704"><ele>139.0</ele><time>2026-03-22T11:01:26Z</time></trkpt><trkpt lat="24.76184055766732" lon="121.03507959925614"><ele>139.0</ele><time>2026-03-22T11:01:27Z</time></trkpt><trkpt lat="24.761943733476866" lon="121.03528054149966"><ele>139.33333333333334</ele><time>2026-03-22T11:01:28Z</time></trkpt><trkpt lat="24.76204360554056" lon="121.03548657132896"><ele>139.66666666666666</ele><time>2026-03-22T11:01:29Z</time></trkpt><trkpt lat="24.762141519053095" lon="121.03569547799796"><ele>140.0</ele><time>2026-03-22T11:01:30Z</time></trkpt><trkpt lat="24.762236396802294" lon="121.03590819009479"><ele>137.66666666666666</ele><time>2026-03-22T11:01:31Z</time></trkpt><trkpt lat="24.76233043018384" lon="121.03612308601089"><ele>135.33333333333334</ele><time>2026-03-22T11:01:32Z</time></trkpt><trkpt lat="24.76242089277823" lon="121.0363399394948"><ele>133.0</ele><time>2026-03-22T11:01:33Z</time></trkpt><trkpt lat="24.762511371092195" lon="121.03656064506785"><ele>131.33333333333334</ele><time>2026-03-22T11:01:34Z</time></trkpt><trkpt lat="24.762595391530315" lon="121.036785677508"><ele>129.66666666666666</ele><time>2026-03-22T11:01:35Z</time></trkpt><trkpt lat="24.762672523085104" lon="121.03700621029888"><ele>128.0</ele><time>2026-03-22T11:01:36Z</time></trkpt><trkpt lat="24.76275036482944" lon="121.0372349954551"><ele>129.33333333333331</ele><time>2026-03-22T11:01:37Z</time></trkpt><trkpt lat="24.762820841557286" lon="121.03746083551172"><ele>130.66666666666666</ele><time>2026-03-22T11:01:38Z</time></trkpt><trkpt lat="24.76288926391937" lon="121.03768930924927"><ele>132.0</ele><time>2026-03-22T11:01:39Z</time></trkpt><trkpt lat="24.76295384364745" lon="121.03792090835928"><ele>132.0</ele><time>2026-03-22T11:01:40Z</time></trkpt><trkpt lat="24.76301573319688" lon="121.03815705960697"><ele>132.0</ele><time>2026-03-22T11:01:41Z</time></trkpt><trkpt lat="24.76307530168932" lon="121.03839269948597"><ele>132.0</ele><time>2026-03-22T11:01:42Z</time></trkpt><trkpt lat="24.76312942965504" lon="121.0386258679513"><ele>128.66666666666666</ele><time>2026-03-22T11:01:43Z</time></trkpt><trkpt lat="24.763181017893743" lon="121.03885771308752"><ele>125.33333333333333</ele><time>2026-03-22T11:01:44Z</time></trkpt><trkpt lat="24.76322559719452" lon="121.03908915538413"><ele>122.0</ele><time>2026-03-22T11:01:45Z</time></trkpt><trkpt lat="24.763267523264503" lon="121.03931841379857"><ele>119.66666666666666</ele><time>2026-03-22T11:01:46Z</time></trkpt><trkpt lat="24.763305117059648" lon="121.03954643318373"><ele>117.33333333333334</ele><time>2026-03-22T11:01:47Z</time></trkpt><trkpt lat="24.763339385332426" lon="121.03977424466012"><ele>115.0</ele><time>2026-03-22T11:01:48Z</time></trkpt><trkpt lat="24.76336945326321" lon="121.04000093901232"><ele>115.0</ele><time>2026-03-22T11:01:49Z</time></trkpt><trkpt lat="24.763394745317527" lon="121.04022731552422"><ele>115.0</ele><time>2026-03-22T11:01:50Z</time></trkpt><trkpt lat="24.763415722172194" lon="121.04044937993395"><ele>115.0</ele><time>2026-03-22T11:01:51Z</time></trkpt><trkpt lat="24.763438219384366" lon="121.04067292927084"><ele>116.66666666666667</ele><time>2026-03-22T11:01:52Z</time></trkpt><trkpt lat="24.763457150337505" lon="121.04089594750401"><ele>118.33333333333334</ele><time>2026-03-22T11:01:53Z</time></trkpt><trkpt lat="24.76347089524383" lon="121.04111320426074"><ele>120.0</ele><time>2026-03-22T11:01:54Z</time></trkpt><trkpt lat="24.76348106635062" lon="121.04132882531947"><ele>120.0</ele><time>2026-03-22T11:01:55Z</time></trkpt><trkpt lat="24.76348553125413" lon="121.04153723586396"><ele>120.0</ele><time>2026-03-22T11:01:56Z</time></trkpt><trkpt lat="24.76348724411538" lon="121.04174328106717"><ele>120.0</ele><time>2026-03-22T11:01:57Z</time></trkpt><trkpt lat="24.76348636466412" lon="121.0419460520815"><ele>124.0</ele><time>2026-03-22T11:01:58Z</time></trkpt><trkpt lat="24.76348243745142" lon="121.0421449714512"><ele>128.0</ele><time>2026-03-22T11:01:59Z</time></trkpt><trkpt lat="24.763477157335856" lon="121.04234364787584"><ele>132.0</ele><time>2026-03-22T11:02:00Z</time></trkpt><trkpt lat="24.763469667828417" lon="121.0425439756089"><ele>132.33333333333334</ele><time>2026-03-22T11:02:01Z</time></trkpt><trkpt lat="24.76345877291259" lon="121.04273791840252"><ele>132.66666666666669</ele><time>2026-03-22T11:02:02Z</time></trkpt><trkpt lat="24.76344652076552" lon="121.0429285303605"><ele>133.0</ele><time>2026-03-22T11:02:03Z</time></trkpt><trkpt lat="24.763433389926217" lon="121.0431192302622"><ele>136.66666666666669</ele><time>2026-03-22T11:02:04Z</time></trkpt><trkpt lat="24.763415427283586" lon="121.04331116859694"><ele>140.33333333333334</ele><time>2026-03-22T11:02:05Z</time></trkpt><trkpt lat="24.763395631979552" lon="121.04350391353098"><ele>144.0</ele><time>2026-03-22T11:02:06Z</time></trkpt><trkpt lat="24.76337437784513" lon="121.04369899800676"><ele>144.0</ele><time>2026-03-22T11:02:07Z</time></trkpt><trkpt lat="24.76335114074823" lon="121.04389419765117"><ele>144.0</ele><time>2026-03-22T11:02:08Z</time></trkpt><trkpt lat="24.763324785128304" lon="121.04409144978416"><ele>144.0</ele><time>2026-03-22T11:02:09Z</time></trkpt><trkpt lat="24.76329529323119" lon="121.04428925363497"><ele>144.33333333333334</ele><time>2026-03-22T11:02:10Z</time></trkpt><trkpt lat="24.76326141976033" lon="121.0444895939769"><ele>144.66666666666669</ele><time>2026-03-22T11:02:11Z</time></trkpt><trkpt lat="24.763225406878835" lon="121.04469227998307"><ele>145.0</ele><time>2026-03-22T11:02:12Z</time></trkpt><trkpt lat="24.76318404813546" lon="121.0448968362324"><ele>145.0</ele><time>2026-03-22T11:02:13Z</time></trkpt><trkpt lat="24.763141779429944" lon="121.04510205615406"><ele>145.0</ele><time>2026-03-22T11:02:14Z</time></trkpt><trkpt lat="24.763095580275987" lon="121.04530729151496"><ele>145.0</ele><time>2026-03-22T11:02:15Z</time></trkpt><trkpt lat="24.763046418364176" lon="121.04551537323123"><ele>145.0</ele><time>2026-03-22T11:02:16Z</time></trkpt><trkpt lat="24.762991648676948" lon="121.04572312519143"><ele>145.0</ele><time>2026-03-22T11:02:17Z</time></trkpt><trkpt lat="24.762934461068898" lon="121.04593120699126"><ele>145.0</ele><time>2026-03-22T11:02:18Z</time></trkpt><trkpt lat="24.762874208932104" lon="121.04613801485556"><ele>146.0</ele><time>2026-03-22T11:02:19Z</time></trkpt><trkpt lat="24.762808053581853" lon="121.04634440997347"><ele>147.0</ele><time>2026-03-22T11:02:20Z</time></trkpt><trkpt lat="24.76274010945571" lon="121.04655442579644"><ele>148.0</ele><time>2026-03-22T11:02:21Z</time></trkpt><trkpt lat="24.762669654066777" lon="121.04676704110528"><ele>148.0</ele><time>2026-03-22T11:02:22Z</time></trkpt><trkpt lat="24.762598537583525" lon="121.04698220137901"><ele>148.0</ele><time>2026-03-22T11:02:23Z</time></trkpt><trkpt lat="24.7625167872429" lon="121.04719788921456"><ele>148.0</ele><time>2026-03-22T11:02:24Z</time></trkpt><trkpt lat="24.76243373944373" lon="121.0474022573566"><ele>146.66666666666669</ele><time>2026-03-22T11:02:25Z</time></trkpt><trkpt lat="24.76234845883866" lon="121.04760528951205"><ele>145.33333333333334</ele><time>2026-03-22T11:02:26Z</time></trkpt><trkpt lat="24.76226216167832" lon="121.04780690517882"><ele>144.0</ele><time>2026-03-22T11:02:27Z</time></trkpt><trkpt lat="24.76217170517515" lon="121.0480097256494"><ele>144.0</ele><time>2026-03-22T11:02:28Z</time></trkpt><trkpt lat="24.762076868262096" lon="121.04820966080366"><ele>144.0</ele><time>2026-03-22T11:02:29Z</time></trkpt><trkpt lat="24.76197969591712" lon="121.0484094710368"><ele>144.0</ele><time>2026-03-22T11:02:30Z</time></trkpt><trkpt lat="24.761883940521315" lon="121.04860471521106"><ele>144.33333333333334</ele><time>2026-03-22T11:02:31Z</time></trkpt><trkpt lat="24.761787242603802" lon="121.0487951800244"><ele>144.66666666666669</ele><time>2026-03-22T11:02:32Z</time></trkpt><trkpt lat="24.761689651673226" lon="121.04898215733753"><ele>145.0</ele><time>2026-03-22T11:02:33Z</time></trkpt><trkpt lat="24.7615881089687" lon="121.04916577585632"><ele>145.0</ele><time>2026-03-22T11:02:34Z</time></trkpt><trkpt lat="24.761486952710236" lon="121.04935077380524"><ele>145.0</ele><time>2026-03-22T11:02:35Z</time></trkpt><trkpt lat="24.761383105696297" lon="121.04953269765501"><ele>145.0</ele><time>2026-03-22T11:02:36Z</time></trkpt><trkpt lat="24.761276577842423" lon="121.04971794060906"><ele>145.0</ele><time>2026-03-22T11:02:37Z</time></trkpt><trkpt lat="24.761167612049793" lon="121.04990309111953"><ele>145.0</ele><time>2026-03-22T11:02:38Z</time></trkpt><trkpt lat="24.761056291715253" lon="121.05008907693774"><ele>145.0</ele><time>2026-03-22T11:02:39Z</time></trkpt><trkpt lat="24.76094481316798" lon="121.05027551470224"><ele>145.33333333333334</ele><time>2026-03-22T11:02:40Z</time></trkpt><trkpt lat="24.76083334538146" lon="121.05046053030685"><ele>145.66666666666666</ele><time>2026-03-22T11:02:41Z</time></trkpt><trkpt lat="24.760721449621535" lon="121.0506459944628"><ele>146.0</ele><time>2026-03-22T11:02:42Z</time></trkpt><trkpt lat="24.760607345191048" lon="121.05083142711402"><ele>146.0</ele><time>2026-03-22T11:02:43Z</time></trkpt><trkpt lat="24.760492016754622" lon="121.05101627644672"><ele>146.0</ele><time>2026-03-22T11:02:44Z</time></trkpt><trkpt lat="24.76037804854958" lon="121.05120093786023"><ele>146.0</ele><time>2026-03-22T11:02:45Z</time></trkpt><trkpt lat="24.760264614093852" lon="121.05138619627061"><ele>147.33333333333331</ele><time>2026-03-22T11:02:46Z</time></trkpt><trkpt lat="24.760152078922577" lon="121.05157201421231"><ele>148.66666666666666</ele><time>2026-03-22T11:02:47Z</time></trkpt><trkpt lat="24.760039484502457" lon="121.05175926113922"><ele>150.0</ele><time>2026-03-22T11:02:48Z</time></trkpt><trkpt lat="24.75992659815775" lon="121.05194351611225"><ele>150.0</ele><time>2026-03-22T11:02:49Z</time></trkpt><trkpt lat="24.759815362077266" lon="121.05212792923476"><ele>150.0</ele><time>2026-03-22T11:02:50Z</time></trkpt><trkpt lat="24.759703655885517" lon="121.05231226537656"><ele>150.0</ele><time>2026-03-22T11:02:51Z</time></trkpt><trkpt lat="24.759591712888575" lon="121.0525004026606"><ele>150.33333333333334</ele><time>2026-03-22T11:02:52Z</time></trkpt><trkpt lat="24.759479773320294" lon="121.05269159191762"><ele>150.66666666666669</ele><time>2026-03-22T11:02:53Z</time></trkpt><trkpt lat="24.759367744838972" lon="121.05288593471944"><ele>151.0</ele><time>2026-03-22T11:02:54Z</time></trkpt><trkpt lat="24.759256852761133" lon="121.05308266088461"><ele>151.0</ele><time>2026-03-22T11:02:55Z</time></trkpt><trkpt lat="24.75914653807832" lon="121.05328074982958"><ele>151.0</ele><time>2026-03-22T11:02:56Z</time></trkpt><trkpt lat="24.75903702244078" lon="121.0534832300256"><ele>151.0</ele><time>2026-03-22T11:02:57Z</time></trkpt><trkpt lat="24.758927341286906" lon="121.05368704020071"><ele>151.0</ele><time>2026-03-22T11:02:58Z</time></trkpt><trkpt lat="24.758816997557638" lon="121.05389187788985"><ele>151.0</ele><time>2026-03-22T11:02:59Z</time></trkpt><trkpt lat="24.758710327473874" lon="121.05409414748294"><ele>151.0</ele><time>2026-03-22T11:03:00Z</time></trkpt><trkpt lat="24.758607726315873" lon="121.05430056917795"><ele>151.66666666666669</ele><time>2026-03-22T11:03:01Z</time></trkpt><trkpt lat="24.758505476330253" lon="121.05451108329643"><ele>152.33333333333334</ele><time>2026-03-22T11:03:02Z</time></trkpt><trkpt lat="24.758404223056946" lon="121.0547247195173"><ele>153.0</ele><time>2026-03-22T11:03:03Z</time></trkpt><trkpt lat="24.758306356970643" lon="121.05494436389915"><ele>153.0</ele><time>2026-03-22T11:03:04Z</time></trkpt><trkpt lat="24.758207199526694" lon="121.05516843508943"><ele>153.0</ele><time>2026-03-22T11:03:05Z</time></trkpt><trkpt lat="24.758124508906175" lon="121.05539270127953"><ele>153.0</ele><time>2026-03-22T11:03:06Z</time></trkpt><trkpt lat="24.758031234938187" lon="121.05562810278317"><ele>151.5</ele><time>2026-03-22T11:03:07Z</time></trkpt><trkpt lat="24.75793819954881" lon="121.05586328021525"><ele>150.0</ele><time>2026-03-22T11:03:08Z</time></trkpt><trkpt lat="24.757843543001876" lon="121.05610001774548"><ele>150.0</ele><time>2026-03-22T11:03:09Z</time></trkpt><trkpt lat="24.757759589173972" lon="121.05634606300438"><ele>150.0</ele><time>2026-03-22T11:03:10Z</time></trkpt><trkpt lat="24.75767355038441" lon="121.05659239942722"><ele>149.5</ele><time>2026-03-22T11:03:11Z</time></trkpt><trkpt lat="24.757586868541292" lon="121.05683498320074"><ele>149.0</ele><time>2026-03-22T11:03:12Z</time></trkpt><trkpt lat="24.757506245424082" lon="121.05708794918577"><ele>149.0</ele><time>2026-03-22T11:03:13Z</time></trkpt><trkpt lat="24.75742632933459" lon="121.05734505719926"><ele>149.0</ele><time>2026-03-22T11:03:14Z</time></trkpt><trkpt lat="24.75735399822843" lon="121.05760669952926"><ele>149.0</ele><time>2026-03-22T11:03:15Z</time></trkpt><trkpt lat="24.757284206683277" lon="121.05786959518412"><ele>149.0</ele><time>2026-03-22T11:03:16Z</time></trkpt><trkpt lat="24.757218306984928" lon="121.0581299613378"><ele>146.5</ele><time>2026-03-22T11:03:17Z</time></trkpt><trkpt lat="24.757154991002068" lon="121.05839321846852"><ele>144.0</ele><time>2026-03-22T11:03:18Z</time></trkpt><trkpt lat="24.757095596116645" lon="121.05865881039252"><ele>144.0</ele><time>2026-03-22T11:03:19Z</time></trkpt><trkpt lat="24.757041999545695" lon="121.05892275068399"><ele>144.0</ele><time>2026-03-22T11:03:20Z</time></trkpt><trkpt lat="24.756991187454943" lon="121.05918372483127"><ele>141.5</ele><time>2026-03-22T11:03:21Z</time></trkpt><trkpt lat="24.756940240755533" lon="121.05945188046951"><ele>139.0</ele><time>2026-03-22T11:03:22Z</time></trkpt><trkpt lat="24.756894065864017" lon="121.05971816567863"><ele>143.0</ele><time>2026-03-22T11:03:23Z</time></trkpt><trkpt lat="24.756850529334322" lon="121.05998181797973"><ele>147.0</ele><time>2026-03-22T11:03:24Z</time></trkpt><trkpt lat="24.756810806737963" lon="121.06024505941811"><ele>147.0</ele><time>2026-03-22T11:03:25Z</time></trkpt><trkpt lat="24.756775831472947" lon="121.06051897720059"><ele>147.0</ele><time>2026-03-22T11:03:26Z</time></trkpt><trkpt lat="24.756745984917877" lon="121.0607865381152"><ele>145.0</ele><time>2026-03-22T11:03:27Z</time></trkpt><trkpt lat="24.756718938301006" lon="121.06105195266535"><ele>143.0</ele><time>2026-03-22T11:03:28Z</time></trkpt><trkpt lat="24.7566929254315" lon="121.06131947195223"><ele>143.0</ele><time>2026-03-22T11:03:29Z</time></trkpt><trkpt lat="24.756667764673036" lon="121.06159079957627"><ele>143.0</ele><time>2026-03-22T11:03:30Z</time></trkpt><trkpt lat="24.75665324833713" lon="121.06186210723605"><ele>145.0</ele><time>2026-03-22T11:03:31Z</time></trkpt><trkpt lat="24.756637869924358" lon="121.06213276427333"><ele>147.0</ele><time>2026-03-22T11:03:32Z</time></trkpt><trkpt lat="24.756630796679808" lon="121.06240268424777"><ele>149.5</ele><time>2026-03-22T11:03:33Z</time></trkpt><trkpt lat="24.75661764823152" lon="121.0626700623947"><ele>152.0</ele><time>2026-03-22T11:03:34Z</time></trkpt><trkpt lat="24.75661694424305" lon="121.06294373176947"><ele>152.0</ele><time>2026-03-22T11:03:35Z</time></trkpt><trkpt lat="24.756629399439404" lon="121.06321016030921"><ele>152.0</ele><time>2026-03-22T11:03:36Z</time></trkpt><trkpt lat="24.756639652142752" lon="121.06348435793966"><ele>150.0</ele><time>2026-03-22T11:03:37Z</time></trkpt><trkpt lat="24.75665391034441" lon="121.06375506733225"><ele>148.0</ele><time>2026-03-22T11:03:38Z</time></trkpt><trkpt lat="24.756669763336124" lon="121.06402638315605"><ele>148.5</ele><time>2026-03-22T11:03:39Z</time></trkpt><trkpt lat="24.756691710697726" lon="121.06429229459572"><ele>149.0</ele><time>2026-03-22T11:03:40Z</time></trkpt><trkpt lat="24.75671426441887" lon="121.06456016036323"><ele>149.0</ele><time>2026-03-22T11:03:41Z</time></trkpt><trkpt lat="24.756741051687616" lon="121.0648255186576"><ele>149.0</ele><time>2026-03-22T11:03:42Z</time></trkpt><trkpt lat="24.75677117860558" lon="121.0650934443251"><ele>148.0</ele><time>2026-03-22T11:03:43Z</time></trkpt><trkpt lat="24.75680680883481" lon="121.06535685917545"><ele>147.0</ele><time>2026-03-22T11:03:44Z</time></trkpt><trkpt lat="24.756840257359283" lon="121.06561761221963"><ele>145.5</ele><time>2026-03-22T11:03:45Z</time></trkpt><trkpt lat="24.756877702242313" lon="121.06587235065398"><ele>144.0</ele><time>2026-03-22T11:03:46Z</time></trkpt><trkpt lat="24.756919673137638" lon="121.06612259530158"><ele>144.0</ele><time>2026-03-22T11:03:47Z</time></trkpt><trkpt lat="24.756964082706585" lon="121.06637438829024"><ele>144.0</ele><time>2026-03-22T11:03:48Z</time></trkpt><trkpt lat="24.757009960206606" lon="121.06661833944759"><ele>142.66666666666666</ele><time>2026-03-22T11:03:49Z</time></trkpt><trkpt lat="24.757058726727195" lon="121.06685288599363"><ele>141.33333333333331</ele><time>2026-03-22T11:03:50Z</time></trkpt><trkpt lat="24.757110461126175" lon="121.06708638555068"><ele>140.0</ele><time>2026-03-22T11:03:51Z</time></trkpt><trkpt lat="24.757164677581116" lon="121.06732443110585"><ele>139.33333333333331</ele><time>2026-03-22T11:03:52Z</time></trkpt><trkpt lat="24.75722523525985" lon="121.06755876112207"><ele>138.66666666666666</ele><time>2026-03-22T11:03:53Z</time></trkpt><trkpt lat="24.757286344866333" lon="121.06779301360768"><ele>138.0</ele><time>2026-03-22T11:03:54Z</time></trkpt><trkpt lat="24.75734883004482" lon="121.06802640935763"><ele>138.0</ele><time>2026-03-22T11:03:55Z</time></trkpt><trkpt lat="24.757413669369093" lon="121.06825815494145"><ele>138.0</ele><time>2026-03-22T11:03:56Z</time></trkpt><trkpt lat="24.75748276340275" lon="121.0684872688231"><ele>138.0</ele><time>2026-03-22T11:03:57Z</time></trkpt><trkpt lat="24.757552096715024" lon="121.06871485329393"><ele>137.66666666666666</ele><time>2026-03-22T11:03:58Z</time></trkpt><trkpt lat="24.757626321346773" lon="121.06894781416817"><ele>137.33333333333331</ele><time>2026-03-22T11:03:59Z</time></trkpt><trkpt lat="24.757706630098948" lon="121.06917592754819"><ele>137.0</ele><time>2026-03-22T11:04:00Z</time></trkpt><trkpt lat="24.75778544917493" lon="121.06940261504275"><ele>134.66666666666666</ele><time>2026-03-22T11:04:01Z</time></trkpt><trkpt lat="24.757867326014676" lon="121.06963215391337"><ele>132.33333333333334</ele><time>2026-03-22T11:04:02Z</time></trkpt><trkpt lat="24.75795327547621" lon="121.06986002771241"><ele>130.0</ele><time>2026-03-22T11:04:03Z</time></trkpt><trkpt lat="24.75803820612859" lon="121.07008220730359"><ele>130.0</ele><time>2026-03-22T11:04:04Z</time></trkpt><trkpt lat="24.758125805333375" lon="121.0703029911613"><ele>130.0</ele><time>2026-03-22T11:04:05Z</time></trkpt><trkpt lat="24.758210335159788" lon="121.07051943143107"><ele>130.0</ele><time>2026-03-22T11:04:06Z</time></trkpt><trkpt lat="24.758300625750138" lon="121.0707305926181"><ele>130.0</ele><time>2026-03-22T11:04:07Z</time></trkpt><trkpt lat="24.758387847911635" lon="121.0709382858107"><ele>130.0</ele><time>2026-03-22T11:04:08Z</time></trkpt><trkpt lat="24.758477458101233" lon="121.07113744020309"><ele>130.0</ele><time>2026-03-22T11:04:09Z</time></trkpt><trkpt lat="24.75857237899303" lon="121.07133729061303"><ele>125.33333333333334</ele><time>2026-03-22T11:04:10Z</time></trkpt><trkpt lat="24.758662086878097" lon="121.07153181758105"><ele>120.66666666666666</ele><time>2026-03-22T11:04:11Z</time></trkpt><trkpt lat="24.758759689364155" lon="121.07173252676228"><ele>116.0</ele><time>2026-03-22T11:04:12Z</time></trkpt><trkpt lat="24.758858096466845" lon="121.07193302488741"><ele>111.66666666666666</ele><time>2026-03-22T11:04:13Z</time></trkpt><trkpt lat="24.758959409093197" lon="121.07213270644402"><ele>107.33333333333334</ele><time>2026-03-22T11:04:14Z</time></trkpt><trkpt lat="24.759061417182238" lon="121.0723299629541"><ele>103.0</ele><time>2026-03-22T11:04:15Z</time></trkpt><trkpt lat="24.759164753571575" lon="121.07252942151945"><ele>100.33333333333334</ele><time>2026-03-22T11:04:16Z</time></trkpt><trkpt lat="24.75926962398024" lon="121.07273155978547"><ele>97.66666666666667</ele><time>2026-03-22T11:04:17Z</time></trkpt><trkpt lat="24.759379523148173" lon="121.0729322880572"><ele>95.0</ele><time>2026-03-22T11:04:18Z</time></trkpt><trkpt lat="24.759494020385095" lon="121.073134894344"><ele>92.33333333333334</ele><time>2026-03-22T11:04:19Z</time></trkpt><trkpt lat="24.759609447555775" lon="121.0733367301782"><ele>89.66666666666667</ele><time>2026-03-22T11:04:20Z</time></trkpt><trkpt lat="24.759725314248996" lon="121.07354022162393"><ele>87.0</ele><time>2026-03-22T11:04:21Z</time></trkpt><trkpt lat="24.759842672401412" lon="121.07374156838108"><ele>87.0</ele><time>2026-03-22T11:04:22Z</time></trkpt><trkpt lat="24.759962642159053" lon="121.0739418131842"><ele>87.0</ele><time>2026-03-22T11:04:23Z</time></trkpt><trkpt lat="24.76008454430496" lon="121.07414205060462"><ele>87.0</ele><time>2026-03-22T11:04:24Z</time></trkpt><trkpt lat="24.760208687643775" lon="121.07433993700549"><ele>84.5</ele><time>2026-03-22T11:04:25Z</time></trkpt><trkpt lat="24.7603375385627" lon="121.07454162130293"><ele>82.0</ele><time>2026-03-22T11:04:26Z</time></trkpt><trkpt lat="24.760471598534185" lon="121.07474613922307"><ele>83.0</ele><time>2026-03-22T11:04:27Z</time></trkpt><trkpt lat="24.76061010200534" lon="121.07495115418033"><ele>84.0</ele><time>2026-03-22T11:04:28Z</time></trkpt><trkpt lat="24.76075064943401" lon="121.07515442652414"><ele>84.0</ele><time>2026-03-22T11:04:29Z</time></trkpt><trkpt lat="24.760892782563985" lon="121.07535874507393"><ele>84.0</ele><time>2026-03-22T11:04:30Z</time></trkpt><trkpt lat="24.761036747926823" lon="121.07556206885042"><ele>83.5</ele><time>2026-03-22T11:04:31Z</time></trkpt><trkpt lat="24.7611816512359" lon="121.07576523818456"><ele>83.0</ele><time>2026-03-22T11:04:32Z</time></trkpt><trkpt lat="24.76132979525144" lon="121.07596539707065"><ele>83.0</ele><time>2026-03-22T11:04:33Z</time></trkpt><trkpt lat="24.761479526457265" lon="121.07616516922009"><ele>83.0</ele><time>2026-03-22T11:04:34Z</time></trkpt><trkpt lat="24.76163175875511" lon="121.07636100982111"><ele>83.0</ele><time>2026-03-22T11:04:35Z</time></trkpt><trkpt lat="24.76178778198367" lon="121.07655378752466"><ele>83.0</ele><time>2026-03-22T11:04:36Z</time></trkpt><trkpt lat="24.761936367786937" lon="121.07673811310475"><ele>86.33333333333334</ele><time>2026-03-22T11:04:37Z</time></trkpt><trkpt lat="24.762083025070442" lon="121.07691686031258"><ele>89.66666666666667</ele><time>2026-03-22T11:04:38Z</time></trkpt><trkpt lat="24.762227220484416" lon="121.07708850895492"><ele>93.0</ele><time>2026-03-22T11:04:39Z</time></trkpt><trkpt lat="24.762364476166955" lon="121.07725393026745"><ele>93.0</ele><time>2026-03-22T11:04:40Z</time></trkpt><trkpt lat="24.762512169742294" lon="121.07741790793965"><ele>93.0</ele><time>2026-03-22T11:04:41Z</time></trkpt><trkpt lat="24.76265901238711" lon="121.07758330437892"><ele>93.0</ele><time>2026-03-22T11:04:42Z</time></trkpt><trkpt lat="24.762805276078442" lon="121.0777458407574"><ele>93.33333333333333</ele><time>2026-03-22T11:04:43Z</time></trkpt><trkpt lat="24.76295474335753" lon="121.07791058272431"><ele>93.66666666666666</ele><time>2026-03-22T11:04:44Z</time></trkpt><trkpt lat="24.76310649253845" lon="121.07807381401359"><ele>94.0</ele><time>2026-03-22T11:04:45Z</time></trkpt><trkpt lat="24.763260256010284" lon="121.07823598473627"><ele>94.0</ele><time>2026-03-22T11:04:46Z</time></trkpt><trkpt lat="24.7634162206368" lon="121.07839784000423"><ele>94.0</ele><time>2026-03-22T11:04:47Z</time></trkpt><trkpt lat="24.763573126312163" lon="121.07855826928733"><ele>94.0</ele><time>2026-03-22T11:04:48Z</time></trkpt><trkpt lat="24.763730530978332" lon="121.07871526497817"><ele>94.0</ele><time>2026-03-22T11:04:49Z</time></trkpt><trkpt lat="24.763889406567774" lon="121.07887047005322"><ele>94.0</ele><time>2026-03-22T11:04:50Z</time></trkpt><trkpt lat="24.764050879791572" lon="121.07902256114386"><ele>94.0</ele><time>2026-03-22T11:04:51Z</time></trkpt><trkpt lat="24.764211668366666" lon="121.07917558883324"><ele>94.0</ele><time>2026-03-22T11:04:52Z</time></trkpt><trkpt lat="24.76437128077758" lon="121.0793281049733"><ele>94.0</ele><time>2026-03-22T11:04:53Z</time></trkpt><trkpt lat="24.76453164150398" lon="121.0794774940057"><ele>94.0</ele><time>2026-03-22T11:04:54Z</time></trkpt><trkpt lat="24.764694833859195" lon="121.07962405471625"><ele>94.0</ele><time>2026-03-22T11:04:55Z</time></trkpt><trkpt lat="24.764856514739442" lon="121.07977090573249"><ele>94.0</ele><time>2026-03-22T11:04:56Z</time></trkpt><trkpt lat="24.765020935783088" lon="121.07991887139843"><ele>94.0</ele><time>2026-03-22T11:04:56.999Z</time></trkpt><trkpt lat="24.76518729771269" lon="121.0800700307912"><ele>95.66666666666666</ele><time>2026-03-22T11:04:57.999Z</time></trkpt><trkpt lat="24.765357505980123" lon="121.08022040454412"><ele>97.33333333333333</ele><time>2026-03-22T11:04:58.999Z</time></trkpt><trkpt lat="24.76552667602669" lon="121.08036990692626"><ele>99.0</ele><time>2026-03-22T11:04:59.999Z</time></trkpt><trkpt lat="24.765696465579605" lon="121.08052074397865"><ele>99.0</ele><time>2026-03-22T11:05:00.999Z</time></trkpt><trkpt lat="24.765868971772324" lon="121.08067194641352"><ele>99.0</ele><time>2026-03-22T11:05:01.999Z</time></trkpt><trkpt lat="24.766042665116988" lon="121.08082133876354"><ele>99.0</ele><time>2026-03-22T11:05:02.999Z</time></trkpt><trkpt lat="24.76621879014438" lon="121.08097009193662"><ele>97.33333333333333</ele><time>2026-03-22T11:05:03.999Z</time></trkpt><trkpt lat="24.7663948457277" lon="121.08112169569573"><ele>95.66666666666666</ele><time>2026-03-22T11:05:04.999Z</time></trkpt><trkpt lat="24.76657103343128" lon="121.08127441188184"><ele>94.0</ele><time>2026-03-22T11:05:05.999Z</time></trkpt><trkpt lat="24.76674662636699" lon="121.08142853353135"><ele>94.33333333333333</ele><time>2026-03-22T11:05:06.999Z</time></trkpt><trkpt lat="24.76692203193043" lon="121.0815845513194"><ele>94.66666666666667</ele><time>2026-03-22T11:05:07.999Z</time></trkpt><trkpt lat="24.76710003642662" lon="121.08173388527987"><ele>95.0</ele><time>2026-03-22T11:05:08.999Z</time></trkpt><trkpt lat="24.767278862402822" lon="121.08188719755229"><ele>95.0</ele><time>2026-03-22T11:05:09.999Z</time></trkpt><trkpt lat="24.76745640683525" lon="121.08204125920923"><ele>95.0</ele><time>2026-03-22T11:05:11Z</time></trkpt><trkpt lat="24.767633478604246" lon="121.08219624642483"><ele>95.0</ele><time>2026-03-22T11:05:12Z</time></trkpt><trkpt lat="24.767809575105055" lon="121.08234753389375"><ele>95.0</ele><time>2026-03-22T11:05:13Z</time></trkpt><trkpt lat="24.76798372224207" lon="121.08249761399033"><ele>95.0</ele><time>2026-03-22T11:05:14Z</time></trkpt><trkpt lat="24.768156722989396" lon="121.08264591808869"><ele>95.0</ele><time>2026-03-22T11:05:15Z</time></trkpt><trkpt lat="24.768326781053243" lon="121.08279436673058"><ele>95.0</ele><time>2026-03-22T11:05:16Z</time></trkpt><trkpt lat="24.76849079741561" lon="121.08293953866334"><ele>95.0</ele><time>2026-03-22T11:05:17Z</time></trkpt><trkpt lat="24.768649435227623" lon="121.08307997386056"><ele>95.33333333333334</ele><time>2026-03-22T11:05:18Z</time></trkpt><trkpt lat="24.768806784491957" lon="121.08321801820847"><ele>95.66666666666667</ele><time>2026-03-22T11:05:19Z</time></trkpt><trkpt lat="24.768957867061058" lon="121.08335185138324"><ele>96.0</ele><time>2026-03-22T11:05:20Z</time></trkpt><trkpt lat="24.76910559780511" lon="121.08348232273475"><ele>96.0</ele><time>2026-03-22T11:05:21Z</time></trkpt><trkpt lat="24.76924793579263" lon="121.08361066230991"><ele>96.0</ele><time>2026-03-22T11:05:22Z</time></trkpt><trkpt lat="24.76938333764619" lon="121.0837319867305"><ele>96.0</ele><time>2026-03-22T11:05:23Z</time></trkpt><trkpt lat="24.76951205602544" lon="121.08384685217652"><ele>97.0</ele><time>2026-03-22T11:05:24Z</time></trkpt><trkpt lat="24.769637812529854" lon="121.08396034908917"><ele>98.0</ele><time>2026-03-22T11:05:25Z</time></trkpt><trkpt lat="24.769758811287662" lon="121.08407331663464"><ele>99.0</ele><time>2026-03-22T11:05:26Z</time></trkpt><trkpt lat="24.769877853603134" lon="121.08418498436781"><ele>99.0</ele><time>2026-03-22T11:05:27Z</time></trkpt><trkpt lat="24.76999601217007" lon="121.0842939318778"><ele>99.0</ele><time>2026-03-22T11:05:28Z</time></trkpt><trkpt lat="24.77010973945037" lon="121.08440253937681"><ele>99.0</ele><time>2026-03-22T11:05:29Z</time></trkpt><trkpt lat="24.77022417319169" lon="121.08450898566183"><ele>97.33333333333333</ele><time>2026-03-22T11:05:30Z</time></trkpt><trkpt lat="24.77033861601186" lon="121.0846176733659"><ele>95.66666666666666</ele><time>2026-03-22T11:05:31Z</time></trkpt><trkpt lat="24.770452132973265" lon="121.08472999423942"><ele>94.0</ele><time>2026-03-22T11:05:32Z</time></trkpt><trkpt lat="24.77056666508941" lon="121.08484381422596"><ele>96.33333333333333</ele><time>2026-03-22T11:05:33Z</time></trkpt><trkpt lat="24.77068369967574" lon="121.08495935126948"><ele>98.66666666666666</ele><time>2026-03-22T11:05:34Z</time></trkpt><trkpt lat="24.77080064231947" lon="121.0850760690003"><ele>101.0</ele><time>2026-03-22T11:05:35Z</time></trkpt><trkpt lat="24.770917234063877" lon="121.08519476991145"><ele>100.66666666666666</ele><time>2026-03-22T11:05:36Z</time></trkpt><trkpt lat="24.771034458802667" lon="121.08531237765546"><ele>100.33333333333334</ele><time>2026-03-22T11:05:37Z</time></trkpt><trkpt lat="24.771150555275014" lon="121.08543002310364"><ele>100.0</ele><time>2026-03-22T11:05:38Z</time></trkpt><trkpt lat="24.771264314816882" lon="121.08554469419164"><ele>100.0</ele><time>2026-03-22T11:05:39Z</time></trkpt><trkpt lat="24.771379091846555" lon="121.08566212178329"><ele>100.0</ele><time>2026-03-22T11:05:40Z</time></trkpt><trkpt lat="24.771494637910628" lon="121.08578309818415"><ele>100.0</ele><time>2026-03-22T11:05:41Z</time></trkpt><trkpt lat="24.771610173552254" lon="121.08590593195129"><ele>99.66666666666667</ele><time>2026-03-22T11:05:42Z</time></trkpt><trkpt lat="24.771724685024985" lon="121.08602926428921"><ele>99.33333333333334</ele><time>2026-03-22T11:05:43Z</time></trkpt><trkpt lat="24.77184059688801" lon="121.08615424854125"><ele>99.0</ele><time>2026-03-22T11:05:44Z</time></trkpt><trkpt lat="24.771955750140847" lon="121.08628088297887"><ele>98.33333333333334</ele><time>2026-03-22T11:05:45Z</time></trkpt><trkpt lat="24.77207083878009" lon="121.08640931789346"><ele>97.66666666666667</ele><time>2026-03-22T11:05:46Z</time></trkpt><trkpt lat="24.772187208471596" lon="121.08653942275295"><ele>97.0</ele><time>2026-03-22T11:05:47Z</time></trkpt><trkpt lat="24.772303311383656" lon="121.08667043611291"><ele>100.33333333333334</ele><time>2026-03-22T11:05:48Z</time></trkpt><trkpt lat="24.77241913017018" lon="121.08680387743367"><ele>103.66666666666666</ele><time>2026-03-22T11:05:49Z</time></trkpt><trkpt lat="24.772534449258224" lon="121.08693761429325"><ele>107.0</ele><time>2026-03-22T11:05:50Z</time></trkpt><trkpt lat="24.772649428008872" lon="121.08707481664091"><ele>106.33333333333333</ele><time>2026-03-22T11:05:51Z</time></trkpt><trkpt lat="24.772763756459916" lon="121.08721306071509"><ele>105.66666666666666</ele><time>2026-03-22T11:05:52Z</time></trkpt><trkpt lat="24.772877338891917" lon="121.08735360668011"><ele>105.0</ele><time>2026-03-22T11:05:53Z</time></trkpt><trkpt lat="24.772991082926954" lon="121.08749442620882"><ele>105.0</ele><time>2026-03-22T11:05:54Z</time></trkpt><trkpt lat="24.77310447635504" lon="121.08763641731373"><ele>105.0</ele><time>2026-03-22T11:05:55Z</time></trkpt><trkpt lat="24.773222268405718" lon="121.08777896453749"><ele>105.0</ele><time>2026-03-22T11:05:56Z</time></trkpt><trkpt lat="24.773332717817393" lon="121.08792197867263"><ele>105.0</ele><time>2026-03-22T11:05:57Z</time></trkpt><trkpt lat="24.773442072263602" lon="121.08806734635773"><ele>105.0</ele><time>2026-03-22T11:05:58Z</time></trkpt><trkpt lat="24.773549687379287" lon="121.08821493243272"><ele>105.0</ele><time>2026-03-22T11:05:59Z</time></trkpt><trkpt lat="24.773657040387832" lon="121.08836454300864"><ele>104.33333333333334</ele><time>2026-03-22T11:06:00Z</time></trkpt><trkpt lat="24.773763054808583" lon="121.08850816434736"><ele>103.66666666666667</ele><time>2026-03-22T11:06:01Z</time></trkpt><trkpt lat="24.773865321881328" lon="121.08865255642256"><ele>103.0</ele><time>2026-03-22T11:06:02Z</time></trkpt><trkpt lat="24.773967574857206" lon="121.08880003542386"><ele>103.0</ele><time>2026-03-22T11:06:03Z</time></trkpt><trkpt lat="24.774069078971323" lon="121.08894657195442"><ele>103.0</ele><time>2026-03-22T11:06:04Z</time></trkpt><trkpt lat="24.774168949373042" lon="121.08909403923187"><ele>103.0</ele><time>2026-03-22T11:06:05Z</time></trkpt><trkpt lat="24.77426830292732" lon="121.08924196386037"><ele>104.0</ele><time>2026-03-22T11:06:06Z</time></trkpt><trkpt lat="24.774367876302108" lon="121.08939299228244"><ele>105.0</ele><time>2026-03-22T11:06:07Z</time></trkpt><trkpt lat="24.774465441109584" lon="121.08954263133381"><ele>106.0</ele><time>2026-03-22T11:06:08Z</time></trkpt><trkpt lat="24.77456238219293" lon="121.08969354372815"><ele>106.0</ele><time>2026-03-22T11:06:09Z</time></trkpt><trkpt lat="24.774658851465954" lon="121.08984498221976"><ele>106.0</ele><time>2026-03-22T11:06:10Z</time></trkpt><trkpt lat="24.774755483333163" lon="121.08999692037447"><ele>106.0</ele><time>2026-03-22T11:06:11Z</time></trkpt><trkpt lat="24.77485086172934" lon="121.09015060275823"><ele>106.33333333333334</ele><time>2026-03-22T11:06:12Z</time></trkpt><trkpt lat="24.774944718825456" lon="121.0903053837093"><ele>106.66666666666666</ele><time>2026-03-22T11:06:13Z</time></trkpt><trkpt lat="24.77503798585435" lon="121.09046199099528"><ele>107.0</ele><time>2026-03-22T11:06:14Z</time></trkpt><trkpt lat="24.775130007739023" lon="121.09061903083413"><ele>108.33333333333333</ele><time>2026-03-22T11:06:15Z</time></trkpt><trkpt lat="24.77522077523651" lon="121.0907771150093"><ele>109.66666666666666</ele><time>2026-03-22T11:06:16Z</time></trkpt><trkpt lat="24.77531090997355" lon="121.09093595191857"><ele>111.0</ele><time>2026-03-22T11:06:17Z</time></trkpt><trkpt lat="24.775400009465212" lon="121.09109510571136"><ele>111.0</ele><time>2026-03-22T11:06:18Z</time></trkpt><trkpt lat="24.775488690825973" lon="121.09125422927616"><ele>111.0</ele><time>2026-03-22T11:06:19Z</time></trkpt><trkpt lat="24.77557533709728" lon="121.09141489878253"><ele>111.0</ele><time>2026-03-22T11:06:20Z</time></trkpt><trkpt lat="24.775660873878746" lon="121.09157578969206"><ele>112.0</ele><time>2026-03-22T11:06:21Z</time></trkpt><trkpt lat="24.775746936432345" lon="121.09173686216191"><ele>113.0</ele><time>2026-03-22T11:06:22Z</time></trkpt><trkpt lat="24.775833510150292" lon="121.09189917271361"><ele>114.0</ele><time>2026-03-22T11:06:23Z</time></trkpt><trkpt lat="24.77591749208716" lon="121.09206420750134"><ele>114.0</ele><time>2026-03-22T11:06:24Z</time></trkpt><trkpt lat="24.77600349276097" lon="121.09222945259505"><ele>114.0</ele><time>2026-03-22T11:06:25Z</time></trkpt><trkpt lat="24.776087173040217" lon="121.09239671308886"><ele>114.0</ele><time>2026-03-22T11:06:26Z</time></trkpt><trkpt lat="24.776169189286655" lon="121.09256682679907"><ele>117.33333333333334</ele><time>2026-03-22T11:06:27Z</time></trkpt><trkpt lat="24.776250979643773" lon="121.0927388983161"><ele>120.66666666666667</ele><time>2026-03-22T11:06:28Z</time></trkpt><trkpt lat="24.776333803483737" lon="121.09291349169379"><ele>124.0</ele><time>2026-03-22T11:06:29Z</time></trkpt><trkpt lat="24.776415651070206" lon="121.09309223557591"><ele>125.66666666666667</ele><time>2026-03-22T11:06:30Z</time></trkpt><trkpt lat="24.77649763136522" lon="121.09327558945601"><ele>127.33333333333334</ele><time>2026-03-22T11:06:31Z</time></trkpt><trkpt lat="24.77658111985279" lon="121.09346012642236"><ele>129.0</ele><time>2026-03-22T11:06:32Z</time></trkpt><trkpt lat="24.77666274080399" lon="121.09364682830477"><ele>129.0</ele><time>2026-03-22T11:06:33Z</time></trkpt><trkpt lat="24.776742690487165" lon="121.09383383075138"><ele>129.0</ele><time>2026-03-22T11:06:34Z</time></trkpt><trkpt lat="24.776820864904177" lon="121.09401605019676"><ele>129.0</ele><time>2026-03-22T11:06:35Z</time></trkpt><trkpt lat="24.776895970490475" lon="121.09419988752384"><ele>133.0</ele><time>2026-03-22T11:06:36Z</time></trkpt><trkpt lat="24.776970739706783" lon="121.09438467991988"><ele>137.0</ele><time>2026-03-22T11:06:37Z</time></trkpt><trkpt lat="24.77704432187257" lon="121.09457027222946"><ele>141.0</ele><time>2026-03-22T11:06:38Z</time></trkpt><trkpt lat="24.777118220304995" lon="121.09475850396177"><ele>140.66666666666666</ele><time>2026-03-22T11:06:39Z</time></trkpt><trkpt lat="24.777190878505994" lon="121.09495150494732"><ele>140.33333333333331</ele><time>2026-03-22T11:06:40Z</time></trkpt><trkpt lat="24.777263511902156" lon="121.09514593514037"><ele>140.0</ele><time>2026-03-22T11:06:41Z</time></trkpt><trkpt lat="24.77733343037076" lon="121.09533729679345"><ele>140.0</ele><time>2026-03-22T11:06:42Z</time></trkpt><trkpt lat="24.77739933956792" lon="121.09552737147833"><ele>140.0</ele><time>2026-03-22T11:06:43Z</time></trkpt><trkpt lat="24.77746606470285" lon="121.09571903964087"><ele>140.0</ele><time>2026-03-22T11:06:44Z</time></trkpt><trkpt lat="24.77753334520039" lon="121.09591310531424"><ele>139.0</ele><time>2026-03-22T11:06:45Z</time></trkpt><trkpt lat="24.77759874768739" lon="121.09611281306366"><ele>138.0</ele><time>2026-03-22T11:06:46Z</time></trkpt><trkpt lat="24.777662966036026" lon="121.09631667470441"><ele>137.0</ele><time>2026-03-22T11:06:47Z</time></trkpt><trkpt lat="24.77772775857339" lon="121.09652266808288"><ele>140.33333333333331</ele><time>2026-03-22T11:06:48Z</time></trkpt><trkpt lat="24.777791714533958" lon="121.09673078068279"><ele>143.66666666666666</ele><time>2026-03-22T11:06:49Z</time></trkpt><trkpt lat="24.77785466592376" lon="121.09694031672507"><ele>147.0</ele><time>2026-03-22T11:06:50Z</time></trkpt><trkpt lat="24.777919115837385" lon="121.09715389091225"><ele>147.0</ele><time>2026-03-22T11:06:51Z</time></trkpt><trkpt lat="24.777976640028573" lon="121.09737137612358"><ele>147.0</ele><time>2026-03-22T11:06:52Z</time></trkpt><trkpt lat="24.77803551169124" lon="121.09759180485433"><ele>147.0</ele><time>2026-03-22T11:06:53Z</time></trkpt><trkpt lat="24.77809296011288" lon="121.09781273883051"><ele>146.0</ele><time>2026-03-22T11:06:54Z</time></trkpt><trkpt lat="24.778150595953573" lon="121.0980348911004"><ele>145.0</ele><time>2026-03-22T11:06:55Z</time></trkpt><trkpt lat="24.77820531497047" lon="121.09826000430336"><ele>144.0</ele><time>2026-03-22T11:06:56Z</time></trkpt><trkpt lat="24.77825953333454" lon="121.09848770794834"><ele>144.0</ele><time>2026-03-22T11:06:57Z</time></trkpt><trkpt lat="24.77831455273344" lon="121.0987166893183"><ele>144.0</ele><time>2026-03-22T11:06:58Z</time></trkpt><trkpt lat="24.77836556304533" lon="121.09894309705777"><ele>144.0</ele><time>2026-03-22T11:06:59Z</time></trkpt><trkpt lat="24.778415467812945" lon="121.09916896696087"><ele>144.0</ele><time>2026-03-22T11:07:00Z</time></trkpt><trkpt lat="24.778461973193647" lon="121.09939569541993"><ele>144.0</ele><time>2026-03-22T11:07:01Z</time></trkpt><trkpt lat="24.77850538942134" lon="121.09961798183633"><ele>144.0</ele><time>2026-03-22T11:07:02Z</time></trkpt><trkpt lat="24.77854800846376" lon="121.09983946424182"><ele>146.0</ele><time>2026-03-22T11:07:03Z</time></trkpt><trkpt lat="24.77858651650111" lon="121.10005757573825"><ele>148.0</ele><time>2026-03-22T11:07:04Z</time></trkpt><trkpt lat="24.778622856533502" lon="121.10027363098129"><ele>150.0</ele><time>2026-03-22T11:07:05Z</time></trkpt><trkpt lat="24.778657196995827" lon="121.1004922843113"><ele>150.0</ele><time>2026-03-22T11:07:06Z</time></trkpt><trkpt lat="24.778691648422182" lon="121.10071464619108"><ele>150.0</ele><time>2026-03-22T11:07:07Z</time></trkpt><trkpt lat="24.778726022776926" lon="121.10094025305634"><ele>150.0</ele><time>2026-03-22T11:07:08Z</time></trkpt><trkpt lat="24.77875266600331" lon="121.1011673751445"><ele>147.0</ele><time>2026-03-22T11:07:09Z</time></trkpt><trkpt lat="24.778799978834442" lon="121.1013955341055"><ele>144.0</ele><time>2026-03-22T11:07:10Z</time></trkpt><trkpt lat="24.778830302513825" lon="121.10162013314259"><ele>141.0</ele><time>2026-03-22T11:07:11Z</time></trkpt><trkpt lat="24.77885665057864" lon="121.1018547661439"><ele>139.66666666666666</ele><time>2026-03-22T11:07:12Z</time></trkpt><trkpt lat="24.778881480228126" lon="121.10208681810057"><ele>138.33333333333331</ele><time>2026-03-22T11:07:13Z</time></trkpt><trkpt lat="24.778906373865233" lon="121.10231684123823"><ele>137.0</ele><time>2026-03-22T11:07:14Z</time></trkpt><trkpt lat="24.77892912813009" lon="121.10255092993346"><ele>136.0</ele><time>2026-03-22T11:07:15Z</time></trkpt><trkpt lat="24.77895104632397" lon="121.10278164247232"><ele>135.0</ele><time>2026-03-22T11:07:16Z</time></trkpt><trkpt lat="24.77897310506064" lon="121.10301150439834"><ele>134.0</ele><time>2026-03-22T11:07:17Z</time></trkpt><trkpt lat="24.778988904217094" lon="121.10324246720546"><ele>136.66666666666666</ele><time>2026-03-22T11:07:18Z</time></trkpt><trkpt lat="24.77900247441218" lon="121.10346854169373"><ele>139.33333333333334</ele><time>2026-03-22T11:07:19Z</time></trkpt><trkpt lat="24.779019954164205" lon="121.1036908009567"><ele>142.0</ele><time>2026-03-22T11:07:20Z</time></trkpt><trkpt lat="24.779032947338223" lon="121.10391170310739"><ele>144.0</ele><time>2026-03-22T11:07:21Z</time></trkpt><trkpt lat="24.779045595193452" lon="121.10413027098852"><ele>146.0</ele><time>2026-03-22T11:07:22Z</time></trkpt><trkpt lat="24.779059158756674" lon="121.10434614621792"><ele>148.0</ele><time>2026-03-22T11:07:23Z</time></trkpt><trkpt lat="24.77907073961215" lon="121.104559389041"><ele>148.0</ele><time>2026-03-22T11:07:24Z</time></trkpt><trkpt lat="24.779079443900223" lon="121.10477402384558"><ele>148.0</ele><time>2026-03-22T11:07:25Z</time></trkpt><trkpt lat="24.7790906264205" lon="121.1049899679748"><ele>148.0</ele><time>2026-03-22T11:07:26Z</time></trkpt><trkpt lat="24.77910179232851" lon="121.1052080781428"><ele>148.33333333333334</ele><time>2026-03-22T11:07:27Z</time></trkpt><trkpt lat="24.77911152822011" lon="121.10542833925784"><ele>148.66666666666666</ele><time>2026-03-22T11:07:28Z</time></trkpt><trkpt lat="24.77911841830096" lon="121.10564814833809"><ele>149.0</ele><time>2026-03-22T11:07:29Z</time></trkpt><trkpt lat="24.77912488025621" lon="121.10586362166725"><ele>149.0</ele><time>2026-03-22T11:07:30Z</time></trkpt><trkpt lat="24.77913135064438" lon="121.10607597595133"><ele>149.0</ele><time>2026-03-22T11:07:31Z</time></trkpt><trkpt lat="24.77913668438046" lon="121.10628890147161"><ele>149.0</ele><time>2026-03-22T11:07:32Z</time></trkpt><trkpt lat="24.779144598733936" lon="121.1065054303407"><ele>146.0</ele><time>2026-03-22T11:07:33Z</time></trkpt><trkpt lat="24.779151113321298" lon="121.10672318917538"><ele>143.0</ele><time>2026-03-22T11:07:34Z</time></trkpt><trkpt lat="24.779155163002567" lon="121.10694287387467"><ele>140.0</ele><time>2026-03-22T11:07:35Z</time></trkpt><trkpt lat="24.779160334136826" lon="121.10716148917777"><ele>140.0</ele><time>2026-03-22T11:07:36Z</time></trkpt><trkpt lat="24.77916524613892" lon="121.10737750775185"><ele>140.0</ele><time>2026-03-22T11:07:37Z</time></trkpt><trkpt lat="24.779168474324017" lon="121.10759146338452"><ele>140.0</ele><time>2026-03-22T11:07:38Z</time></trkpt><trkpt lat="24.779170904504312" lon="121.10780782390732"><ele>140.33333333333331</ele><time>2026-03-22T11:07:39Z</time></trkpt><trkpt lat="24.779172738818012" lon="121.10802568583894"><ele>140.66666666666666</ele><time>2026-03-22T11:07:40Z</time></trkpt><trkpt lat="24.779174695913515" lon="121.10824132045023"><ele>141.0</ele><time>2026-03-22T11:07:41Z</time></trkpt><trkpt lat="24.77917858001647" lon="121.10845829314611"><ele>142.66666666666666</ele><time>2026-03-22T11:07:42Z</time></trkpt><trkpt lat="24.779183158804038" lon="121.10867145004308"><ele>144.33333333333331</ele><time>2026-03-22T11:07:43Z</time></trkpt><trkpt lat="24.779187370045385" lon="121.10888149156645"><ele>146.0</ele><time>2026-03-22T11:07:44Z</time></trkpt><trkpt lat="24.779192609758738" lon="121.10909330881621"><ele>148.33333333333331</ele><time>2026-03-22T11:07:45Z</time></trkpt><trkpt lat="24.77919996506924" lon="121.10930668689974"><ele>150.66666666666666</ele><time>2026-03-22T11:07:46Z</time></trkpt><trkpt lat="24.77920511361244" lon="121.10952077731032"><ele>153.0</ele><time>2026-03-22T11:07:47Z</time></trkpt><trkpt lat="24.779211516789406" lon="121.10973521084253"><ele>153.33333333333334</ele><time>2026-03-22T11:07:48Z</time></trkpt><trkpt lat="24.77921757024014" lon="121.10995195068533"><ele>153.66666666666669</ele><time>2026-03-22T11:07:49Z</time></trkpt><trkpt lat="24.7792257770625" lon="121.11016899534036"><ele>154.0</ele><time>2026-03-22T11:07:50Z</time></trkpt><trkpt lat="24.779233634638008" lon="121.11039121335315"><ele>154.0</ele><time>2026-03-22T11:07:51Z</time></trkpt><trkpt lat="24.779242481031723" lon="121.11061540551"><ele>154.0</ele><time>2026-03-22T11:07:52Z</time></trkpt><trkpt lat="24.77925427058386" lon="121.11084245965546"><ele>154.0</ele><time>2026-03-22T11:07:53Z</time></trkpt><trkpt lat="24.779265937526493" lon="121.11106908047213"><ele>153.33333333333334</ele><time>2026-03-22T11:07:54Z</time></trkpt><trkpt lat="24.77928164022681" lon="121.11129994630033"><ele>152.66666666666666</ele><time>2026-03-22T11:07:55Z</time></trkpt><trkpt lat="24.77929924648959" lon="121.11153343548747"><ele>152.0</ele><time>2026-03-22T11:07:56Z</time></trkpt><trkpt lat="24.779318828844005" lon="121.11176920029092"><ele>151.66666666666666</ele><time>2026-03-22T11:07:57Z</time></trkpt><trkpt lat="24.77934369739683" lon="121.11200654556598"><ele>151.33333333333334</ele><time>2026-03-22T11:07:58Z</time></trkpt><trkpt lat="24.77937169465054" lon="121.11225083957149"><ele>151.0</ele><time>2026-03-22T11:07:59Z</time></trkpt><trkpt lat="24.77940135271601" lon="121.11248826668998"><ele>157.33333333333334</ele><time>2026-03-22T11:08:00Z</time></trkpt><trkpt lat="24.779431626996878" lon="121.11272427568922"><ele>163.66666666666666</ele><time>2026-03-22T11:08:01Z</time></trkpt><trkpt lat="24.779467327632414" lon="121.11296201207327"><ele>170.0</ele><time>2026-03-22T11:08:02Z</time></trkpt><trkpt lat="24.779499272540146" lon="121.11319977377987"><ele>168.33333333333331</ele><time>2026-03-22T11:08:03Z</time></trkpt><trkpt lat="24.779545101548944" lon="121.11343717851967"><ele>166.66666666666666</ele><time>2026-03-22T11:08:04Z</time></trkpt><trkpt lat="24.77959442321944" lon="121.11367604298154"><ele>165.0</ele><time>2026-03-22T11:08:05Z</time></trkpt><trkpt lat="24.779643360550217" lon="121.11391602673565"><ele>164.5</ele><time>2026-03-22T11:08:06Z</time></trkpt><trkpt lat="24.779695486077806" lon="121.11415254959512"><ele>164.0</ele><time>2026-03-22T11:08:07Z</time></trkpt><trkpt lat="24.779754782019904" lon="121.11439751623314"><ele>164.0</ele><time>2026-03-22T11:08:08Z</time></trkpt><trkpt lat="24.779819736474398" lon="121.11464141627032"><ele>164.0</ele><time>2026-03-22T11:08:09Z</time></trkpt><trkpt lat="24.77988878574651" lon="121.1148904889686"><ele>168.5</ele><time>2026-03-22T11:08:10Z</time></trkpt><trkpt lat="24.779964966792623" lon="121.11513864148348"><ele>173.0</ele><time>2026-03-22T11:08:11Z</time></trkpt><trkpt lat="24.780046910050135" lon="121.11538595916845"><ele>173.0</ele><time>2026-03-22T11:08:12Z</time></trkpt><trkpt lat="24.780126312891745" lon="121.1156059807595"><ele>173.0</ele><time>2026-03-22T11:08:13Z</time></trkpt><trkpt lat="24.78019331040302" lon="121.11585544940337"><ele>180.0</ele><time>2026-03-22T11:08:14Z</time></trkpt><trkpt lat="24.780283185435987" lon="121.1161091126024"><ele>187.0</ele><time>2026-03-22T11:08:15Z</time></trkpt><trkpt lat="24.78036006275989" lon="121.11634513180175"><ele>182.0</ele><time>2026-03-22T11:08:16Z</time></trkpt><trkpt lat="24.78045996371217" lon="121.11657697606009"><ele>177.0</ele><time>2026-03-22T11:08:17Z</time></trkpt><trkpt lat="24.78057775322643" lon="121.11683356994904"><ele>177.0</ele><time>2026-03-22T11:08:18Z</time></trkpt><trkpt lat="24.780691564423453" lon="121.11709164939931"><ele>177.0</ele><time>2026-03-22T11:08:19Z</time></trkpt><trkpt lat="24.780818152928926" lon="121.11734759649936"><ele>179.5</ele><time>2026-03-22T11:08:20Z</time></trkpt><trkpt lat="24.78093894928146" lon="121.11759699027418"><ele>182.0</ele><time>2026-03-22T11:08:21Z</time></trkpt><trkpt lat="24.78106802271928" lon="121.11784500236267"><ele>182.0</ele><time>2026-03-22T11:08:22Z</time></trkpt><trkpt lat="24.781197981772245" lon="121.11809143800808"><ele>182.0</ele><time>2026-03-22T11:08:23Z</time></trkpt><trkpt lat="24.781311291966038" lon="121.1183367348891"><ele>177.5</ele><time>2026-03-22T11:08:24Z</time></trkpt><trkpt lat="24.78149101348914" lon="121.11858969352888"><ele>173.0</ele><time>2026-03-22T11:08:25Z</time></trkpt><trkpt lat="24.781642909435863" lon="121.1188340477334"><ele>170.5</ele><time>2026-03-22T11:08:26Z</time></trkpt><trkpt lat="24.781797329146407" lon="121.11906800423355"><ele>168.0</ele><time>2026-03-22T11:08:27Z</time></trkpt><trkpt lat="24.781951695573504" lon="121.11930824341111"><ele>176.5</ele><time>2026-03-22T11:08:28Z</time></trkpt><trkpt lat="24.782103840289057" lon="121.11954002565213"><ele>185.0</ele><time>2026-03-22T11:08:29Z</time></trkpt><trkpt lat="24.782257952624118" lon="121.11976358216751"><ele>176.5</ele><time>2026-03-22T11:08:30Z</time></trkpt><trkpt lat="24.7824280077054" lon="121.11998620506068"><ele>168.0</ele><time>2026-03-22T11:08:31Z</time></trkpt><trkpt lat="24.78259720459823" lon="121.12020019625623"><ele>177.5</ele><time>2026-03-22T11:08:32Z</time></trkpt><trkpt lat="24.782760602867906" lon="121.120405225346"><ele>187.0</ele><time>2026-03-22T11:08:33Z</time></trkpt><trkpt lat="24.78293224720924" lon="121.1206033990577"><ele>175.0</ele><time>2026-03-22T11:08:34Z</time></trkpt><trkpt lat="24.783106830393752" lon="121.12079496878955"><ele>163.0</ele><time>2026-03-22T11:08:35Z</time></trkpt><trkpt lat="24.783291847773047" lon="121.12098680350941"><ele>163.0</ele><time>2026-03-22T11:08:36Z</time></trkpt><trkpt lat="24.78346950681726" lon="121.12117398893083"><ele>163.0</ele><time>2026-03-22T11:08:37Z</time></trkpt><trkpt lat="24.783652904272717" lon="121.1213674376399"><ele>162.0</ele><time>2026-03-22T11:08:38Z</time></trkpt><trkpt lat="24.783842968804702" lon="121.12155167929163"><ele>161.0</ele><time>2026-03-22T11:08:39Z</time></trkpt><trkpt lat="24.784031024138724" lon="121.12173961461242"><ele>161.0</ele><time>2026-03-22T11:08:40Z</time></trkpt><trkpt lat="24.784221356875015" lon="121.12192283023684"><ele>161.0</ele><time>2026-03-22T11:08:41Z</time></trkpt><trkpt lat="24.784418463452425" lon="121.12209807310477"><ele>156.0</ele><time>2026-03-22T11:08:42Z</time></trkpt><trkpt lat="24.784618535368928" lon="121.12226760287292"><ele>151.0</ele><time>2026-03-22T11:08:43Z</time></trkpt><trkpt lat="24.78481482804911" lon="121.1224325831137"><ele>151.0</ele><time>2026-03-22T11:08:44Z</time></trkpt><trkpt lat="24.78500930679214" lon="121.12259289045146"><ele>151.0</ele><time>2026-03-22T11:08:45Z</time></trkpt><trkpt lat="24.785208256053885" lon="121.12274035218597"><ele>150.5</ele><time>2026-03-22T11:08:46Z</time></trkpt><trkpt lat="24.78540727869004" lon="121.12288733805568"><ele>150.0</ele><time>2026-03-22T11:08:47Z</time></trkpt><trkpt lat="24.78560933655124" lon="121.12303401682074"><ele>150.0</ele><time>2026-03-22T11:08:48Z</time></trkpt><trkpt lat="24.78581635304808" lon="121.12317734472082"><ele>150.0</ele><time>2026-03-22T11:08:49Z</time></trkpt><trkpt lat="24.78602957284186" lon="121.12331686828988"><ele>146.0</ele><time>2026-03-22T11:08:50Z</time></trkpt><trkpt lat="24.786242678005724" lon="121.12345437558979"><ele>142.0</ele><time>2026-03-22T11:08:51Z</time></trkpt><trkpt lat="24.78645799278836" lon="121.12358475169017"><ele>142.0</ele><time>2026-03-22T11:08:52Z</time></trkpt><trkpt lat="24.7866760829054" lon="121.12371228498499"><ele>142.0</ele><time>2026-03-22T11:08:53Z</time></trkpt><trkpt lat="24.786898134346735" lon="121.12384029637754"><ele>142.5</ele><time>2026-03-22T11:08:54Z</time></trkpt><trkpt lat="24.7871238630932" lon="121.12396793671344"><ele>143.0</ele><time>2026-03-22T11:08:55Z</time></trkpt><trkpt lat="24.787349387590744" lon="121.12408981597139"><ele>144.0</ele><time>2026-03-22T11:08:56Z</time></trkpt><trkpt lat="24.787575108615297" lon="121.12420787725239"><ele>145.0</ele><time>2026-03-22T11:08:57Z</time></trkpt><trkpt lat="24.787801121900348" lon="121.12432451466213"><ele>145.0</ele><time>2026-03-22T11:08:58Z</time></trkpt><trkpt lat="24.788028032290235" lon="121.12444081481912"><ele>145.0</ele><time>2026-03-22T11:08:59Z</time></trkpt><trkpt lat="24.78825872689272" lon="121.12455779893364"><ele>145.0</ele><time>2026-03-22T11:09:00Z</time></trkpt><trkpt lat="24.788492731347777" lon="121.12467207713374"><ele>145.0</ele><time>2026-03-22T11:09:01Z</time></trkpt><trkpt lat="24.788734198123926" lon="121.12478387586943"><ele>144.0</ele><time>2026-03-22T11:09:02Z</time></trkpt><trkpt lat="24.788976460549673" lon="121.12489891433788"><ele>143.0</ele><time>2026-03-22T11:09:03Z</time></trkpt><trkpt lat="24.789223914126186" lon="121.12501400323968"><ele>146.5</ele><time>2026-03-22T11:09:04Z</time></trkpt><trkpt lat="24.789476085509516" lon="121.12512874000278"><ele>150.0</ele><time>2026-03-22T11:09:05Z</time></trkpt><trkpt lat="24.789730154456343" lon="121.12524509361525"><ele>150.0</ele><time>2026-03-22T11:09:06Z</time></trkpt><trkpt lat="24.78998298094938" lon="121.1253609419805"><ele>150.0</ele><time>2026-03-22T11:09:07Z</time></trkpt><trkpt lat="24.790237080860212" lon="121.12547762546163"><ele>148.5</ele><time>2026-03-22T11:09:08Z</time></trkpt><trkpt lat="24.790489447053" lon="121.12559564388911"><ele>147.0</ele><time>2026-03-22T11:09:09Z</time></trkpt><trkpt lat="24.790738429866142" lon="121.12571628444186"><ele>148.5</ele><time>2026-03-22T11:09:10Z</time></trkpt><trkpt lat="24.790985708762165" lon="121.12583841146856"><ele>150.0</ele><time>2026-03-22T11:09:11Z</time></trkpt><trkpt lat="24.791230337649854" lon="121.12596301793707"><ele>150.0</ele><time>2026-03-22T11:09:12Z</time></trkpt><trkpt lat="24.791473720073306" lon="121.12608897882002"><ele>150.0</ele><time>2026-03-22T11:09:13Z</time></trkpt><trkpt lat="24.791715177348973" lon="121.12621521812544"><ele>158.0</ele><time>2026-03-22T11:09:14Z</time></trkpt><trkpt lat="24.7919559694861" lon="121.12634352868955"><ele>166.0</ele><time>2026-03-22T11:09:15Z</time></trkpt><trkpt lat="24.792198002816832" lon="121.12647210439381"><ele>159.5</ele><time>2026-03-22T11:09:16Z</time></trkpt><trkpt lat="24.792440876975718" lon="121.12660540634272"><ele>153.0</ele><time>2026-03-22T11:09:17Z</time></trkpt><trkpt lat="24.79268539423151" lon="121.12674321665531"><ele>150.5</ele><time>2026-03-22T11:09:18Z</time></trkpt><trkpt lat="24.79293051448531" lon="121.12688792242393"><ele>148.0</ele><time>2026-03-22T11:09:19Z</time></trkpt><trkpt lat="24.79317397552654" lon="121.12703463076363"><ele>148.0</ele><time>2026-03-22T11:09:20Z</time></trkpt><trkpt lat="24.793415469971183" lon="121.12718344903334"><ele>148.0</ele><time>2026-03-22T11:09:21Z</time></trkpt><trkpt lat="24.793655184766436" lon="121.12733170685281"><ele>149.0</ele><time>2026-03-22T11:09:22Z</time></trkpt><trkpt lat="24.793891231136932" lon="121.12748178149953"><ele>150.0</ele><time>2026-03-22T11:09:23Z</time></trkpt><trkpt lat="24.79412491465437" lon="121.12763212032583"><ele>151.0</ele><time>2026-03-22T11:09:24Z</time></trkpt><trkpt lat="24.794355616223783" lon="121.12778604698639"><ele>152.0</ele><time>2026-03-22T11:09:25Z</time></trkpt><trkpt lat="24.794583899224133" lon="121.1279430420907"><ele>152.0</ele><time>2026-03-22T11:09:26Z</time></trkpt><trkpt lat="24.794810462584632" lon="121.12809999014696"><ele>152.0</ele><time>2026-03-22T11:09:27Z</time></trkpt><trkpt lat="24.795034426031517" lon="121.12825665819831"><ele>150.5</ele><time>2026-03-22T11:09:28Z</time></trkpt><trkpt lat="24.795254931875913" lon="121.1284174047496"><ele>149.0</ele><time>2026-03-22T11:09:29Z</time></trkpt><trkpt lat="24.795473970764302" lon="121.12858020178213"><ele>149.0</ele><time>2026-03-22T11:09:30Z</time></trkpt><trkpt lat="24.79568635410011" lon="121.12874168497085"><ele>149.0</ele><time>2026-03-22T11:09:31Z</time></trkpt><trkpt lat="24.795888063587476" lon="121.12889922327257"><ele>147.5</ele><time>2026-03-22T11:09:32Z</time></trkpt><trkpt lat="24.796082970687905" lon="121.1290528572828"><ele>146.0</ele><time>2026-03-22T11:09:33Z</time></trkpt><trkpt lat="24.796279455511936" lon="121.1292097615481"><ele>146.0</ele><time>2026-03-22T11:09:34Z</time></trkpt><trkpt lat="24.796477719592875" lon="121.1293684428051"><ele>146.0</ele><time>2026-03-22T11:09:35Z</time></trkpt><trkpt lat="24.796676013701653" lon="121.12953449991906"><ele>156.0</ele><time>2026-03-22T11:09:36Z</time></trkpt><trkpt lat="24.796875841202738" lon="121.12970534162903"><ele>166.0</ele><time>2026-03-22T11:09:37Z</time></trkpt><trkpt lat="24.797076769166118" lon="121.12987935644382"><ele>153.5</ele><time>2026-03-22T11:09:38Z</time></trkpt><trkpt lat="24.797276836185816" lon="121.13005557179685"><ele>141.0</ele><time>2026-03-22T11:09:39Z</time></trkpt><trkpt lat="24.797475840332677" lon="121.13023486158606"><ele>142.0</ele><time>2026-03-22T11:09:40Z</time></trkpt><trkpt lat="24.797675193827477" lon="121.13041785327678"><ele>143.0</ele><time>2026-03-22T11:09:41Z</time></trkpt><trkpt lat="24.797873836621584" lon="121.13060429692702"><ele>136.0</ele><time>2026-03-22T11:09:42Z</time></trkpt><trkpt lat="24.798073398752624" lon="121.13079507533155"><ele>129.0</ele><time>2026-03-22T11:09:43Z</time></trkpt><trkpt lat="24.798273876639943" lon="121.13098979074886"><ele>129.0</ele><time>2026-03-22T11:09:44Z</time></trkpt><trkpt lat="24.798474254024526" lon="121.13118998655523"><ele>129.0</ele><time>2026-03-22T11:09:45Z</time></trkpt><trkpt lat="24.798673539963545" lon="121.13139337053424"><ele>120.0</ele><time>2026-03-22T11:09:46Z</time></trkpt><trkpt lat="24.798870498251162" lon="121.13159929540622"><ele>111.0</ele><time>2026-03-22T11:09:47Z</time></trkpt><trkpt lat="24.799067715933123" lon="121.13180991907436"><ele>111.0</ele><time>2026-03-22T11:09:48Z</time></trkpt><trkpt lat="24.799265249714782" lon="121.13202081346665"><ele>111.0</ele><time>2026-03-22T11:09:49Z</time></trkpt><trkpt lat="24.79946204465898" lon="121.13223881989582"><ele>111.0</ele><time>2026-03-22T11:09:50Z</time></trkpt><trkpt lat="24.79965944608975" lon="121.13246113214312"><ele>111.0</ele><time>2026-03-22T11:09:51Z</time></trkpt><trkpt lat="24.799855984905918" lon="121.13268705846787"><ele>111.0</ele><time>2026-03-22T11:09:52Z</time></trkpt><trkpt lat="24.8000492961884" lon="121.13291597620729"><ele>111.0</ele><time>2026-03-22T11:09:53Z</time></trkpt><trkpt lat="24.80024145301114" lon="121.13314745930265"><ele>117.0</ele><time>2026-03-22T11:09:54Z</time></trkpt><trkpt lat="24.800431615843724" lon="121.13338031230543"><ele>123.0</ele><time>2026-03-22T11:09:55Z</time></trkpt><trkpt lat="24.800619344888798" lon="121.13361714479309"><ele>123.0</ele><time>2026-03-22T11:09:56Z</time></trkpt><trkpt lat="24.800805037583444" lon="121.13385298528003"><ele>123.0</ele><time>2026-03-22T11:09:57Z</time></trkpt><trkpt lat="24.80098869629092" lon="121.1340922218143"><ele>122.5</ele><time>2026-03-22T11:09:58Z</time></trkpt><trkpt lat="24.801168460003705" lon="121.13433226527991"><ele>122.0</ele><time>2026-03-22T11:09:59Z</time></trkpt><trkpt lat="24.801345534456487" lon="121.13457371483197"><ele>122.0</ele><time>2026-03-22T11:10:00Z</time></trkpt><trkpt lat="24.80152056745208" lon="121.13481699961733"><ele>122.0</ele><time>2026-03-22T11:10:01Z</time></trkpt><trkpt lat="24.801691472239842" lon="121.13506262101552"><ele>120.0</ele><time>2026-03-22T11:10:02Z</time></trkpt><trkpt lat="24.801861228926075" lon="121.13531023915675"><ele>118.0</ele><time>2026-03-22T11:10:03Z</time></trkpt><trkpt lat="24.802027420107088" lon="121.13555785418886"><ele>115.5</ele><time>2026-03-22T11:10:04Z</time></trkpt><trkpt lat="24.80219028202988" lon="121.13580781834156"><ele>113.0</ele><time>2026-03-22T11:10:05Z</time></trkpt><trkpt lat="24.802350112976853" lon="121.13605897013755"><ele>113.0</ele><time>2026-03-22T11:10:06Z</time></trkpt><trkpt lat="24.802507175569495" lon="121.13631058860737"><ele>113.0</ele><time>2026-03-22T11:10:07Z</time></trkpt><trkpt lat="24.802662283425764" lon="121.13656253738974"><ele>112.0</ele><time>2026-03-22T11:10:08Z</time></trkpt><trkpt lat="24.80281478267141" lon="121.13681701582067"><ele>111.0</ele><time>2026-03-22T11:10:09Z</time></trkpt><trkpt lat="24.80296253690356" lon="121.13707266559159"><ele>111.0</ele><time>2026-03-22T11:10:10Z</time></trkpt><trkpt lat="24.803109891814515" lon="121.1373281910922"><ele>111.0</ele><time>2026-03-22T11:10:11Z</time></trkpt><trkpt lat="24.803253885759254" lon="121.13758258445677"><ele>111.5</ele><time>2026-03-22T11:10:12Z</time></trkpt><trkpt lat="24.803394253597737" lon="121.13783886385929"><ele>112.0</ele><time>2026-03-22T11:10:13Z</time></trkpt><trkpt lat="24.803532322474265" lon="121.13809436373705"><ele>111.0</ele><time>2026-03-22T11:10:14Z</time></trkpt><trkpt lat="24.80366568646747" lon="121.13834619170763"><ele>110.0</ele><time>2026-03-22T11:10:15Z</time></trkpt><trkpt lat="24.80378761925293" lon="121.13858226739869"><ele>110.0</ele><time>2026-03-22T11:10:16Z</time></trkpt><trkpt lat="24.803903405868038" lon="121.13880939725907"><ele>110.0</ele><time>2026-03-22T11:10:17Z</time></trkpt><trkpt lat="24.80401036454141" lon="121.13902055115729"><ele>110.0</ele><time>2026-03-22T11:10:18Z</time></trkpt><trkpt lat="24.804114810853953" lon="121.13922772583386"><ele>110.0</ele><time>2026-03-22T11:10:19Z</time></trkpt><trkpt lat="24.80421783062937" lon="121.13943890034443"><ele>110.0</ele><time>2026-03-22T11:10:20Z</time></trkpt><trkpt lat="24.8043159206709" lon="121.13965123944426"><ele>109.0</ele><time>2026-03-22T11:10:21Z</time></trkpt><trkpt lat="24.804413347270327" lon="121.13986317465799"><ele>108.0</ele><time>2026-03-22T11:10:22Z</time></trkpt><trkpt lat="24.804504802988053" lon="121.14007560634111"><ele>107.0</ele><time>2026-03-22T11:10:23Z</time></trkpt><trkpt lat="24.804597350904178" lon="121.14028942159335"><ele>107.0</ele><time>2026-03-22T11:10:24Z</time></trkpt><trkpt lat="24.804689808167243" lon="121.14050370983794"><ele>107.0</ele><time>2026-03-22T11:10:25Z</time></trkpt><trkpt lat="24.804779369731968" lon="121.14072298362417"><ele>107.0</ele><time>2026-03-22T11:10:26Z</time></trkpt><trkpt lat="24.804868277620532" lon="121.1409464458149"><ele>107.5</ele><time>2026-03-22T11:10:27Z</time></trkpt><trkpt lat="24.80495771166088" lon="121.14117337478922"><ele>108.0</ele><time>2026-03-22T11:10:28Z</time></trkpt><trkpt lat="24.805048135689212" lon="121.14140362126757"><ele>103.0</ele><time>2026-03-22T11:10:29Z</time></trkpt><trkpt lat="24.805137999844014" lon="121.14164222428015"><ele>98.0</ele><time>2026-03-22T11:10:30Z</time></trkpt><trkpt lat="24.80522840343712" lon="121.14188405143463"><ele>94.5</ele><time>2026-03-22T11:10:31Z</time></trkpt><trkpt lat="24.80531731717349" lon="121.14212882339483"><ele>91.0</ele><time>2026-03-22T11:10:32Z</time></trkpt><trkpt lat="24.80540671013614" lon="121.14237869684936"><ele>91.5</ele><time>2026-03-22T11:10:33Z</time></trkpt><trkpt lat="24.805493845265502" lon="121.14263047983465"><ele>92.0</ele><time>2026-03-22T11:10:34Z</time></trkpt><trkpt lat="24.805577669361835" lon="121.14287998166503"><ele>92.0</ele><time>2026-03-22T11:10:35Z</time></trkpt><trkpt lat="24.80566134920228" lon="121.14313177341472"><ele>92.0</ele><time>2026-03-22T11:10:36Z</time></trkpt><trkpt lat="24.80574039839516" lon="121.14338641928578"><ele>91.5</ele><time>2026-03-22T11:10:37Z</time></trkpt><trkpt lat="24.805818247762748" lon="121.14364507499685"><ele>91.0</ele><time>2026-03-22T11:10:38Z</time></trkpt><trkpt lat="24.805893715902126" lon="121.1439024104917"><ele>93.0</ele><time>2026-03-22T11:10:39Z</time></trkpt><trkpt lat="24.805965327758532" lon="121.14415787108365"><ele>95.0</ele><time>2026-03-22T11:10:40Z</time></trkpt><trkpt lat="24.806035822568465" lon="121.14441228458892"><ele>96.0</ele><time>2026-03-22T11:10:41Z</time></trkpt><trkpt lat="24.806104729605106" lon="121.14466799957503"><ele>97.0</ele><time>2026-03-22T11:10:42Z</time></trkpt><trkpt lat="24.80617145163654" lon="121.14492160556134"><ele>99.5</ele><time>2026-03-22T11:10:43Z</time></trkpt><trkpt lat="24.80623723521568" lon="121.14517547005758"><ele>102.0</ele><time>2026-03-22T11:10:44Z</time></trkpt><trkpt lat="24.806300235227464" lon="121.14542799019965"><ele>102.0</ele><time>2026-03-22T11:10:45Z</time></trkpt><trkpt lat="24.806358909717456" lon="121.14567747716518"><ele>102.0</ele><time>2026-03-22T11:10:46Z</time></trkpt><trkpt lat="24.806414684273605" lon="121.14592592419002"><ele>108.5</ele><time>2026-03-22T11:10:47Z</time></trkpt><trkpt lat="24.80646805697754" lon="121.14617513312058"><ele>115.0</ele><time>2026-03-22T11:10:48Z</time></trkpt><trkpt lat="24.806520334217883" lon="121.14642632404849"><ele>124.5</ele><time>2026-03-22T11:10:49Z</time></trkpt><trkpt lat="24.806569599751317" lon="121.14667680255785"><ele>134.0</ele><time>2026-03-22T11:10:50Z</time></trkpt><trkpt lat="24.80661699508274" lon="121.14692158580185"><ele>134.0</ele><time>2026-03-22T11:10:51Z</time></trkpt><trkpt lat="24.806661571080458" lon="121.14716364846667"><ele>134.0</ele><time>2026-03-22T11:10:52Z</time></trkpt><trkpt lat="24.806703483422883" lon="121.14739860185333"><ele>134.0</ele><time>2026-03-22T11:10:53Z</time></trkpt><trkpt lat="24.806742205651272" lon="121.14762919232552"><ele>131.66666666666666</ele><time>2026-03-22T11:10:54Z</time></trkpt><trkpt lat="24.80678069877679" lon="121.1478575626949"><ele>129.33333333333334</ele><time>2026-03-22T11:10:55Z</time></trkpt><trkpt lat="24.806816407541262" lon="121.14808107640765"><ele>127.0</ele><time>2026-03-22T11:10:56Z</time></trkpt><trkpt lat="24.806848643079494" lon="121.1483000491173"><ele>127.0</ele><time>2026-03-22T11:10:57Z</time></trkpt><trkpt lat="24.806878327761265" lon="121.14851470238881"><ele>127.0</ele><time>2026-03-22T11:10:58Z</time></trkpt><trkpt lat="24.806905859030763" lon="121.14872486029206"><ele>127.0</ele><time>2026-03-22T11:10:59Z</time></trkpt><trkpt lat="24.806931425393433" lon="121.14893033720418"><ele>125.66666666666667</ele><time>2026-03-22T11:11:00Z</time></trkpt><trkpt lat="24.806957789828022" lon="121.14913464241462"><ele>124.33333333333334</ele><time>2026-03-22T11:11:01Z</time></trkpt><trkpt lat="24.806981913124517" lon="121.14933830309707"><ele>123.0</ele><time>2026-03-22T11:11:02Z</time></trkpt><trkpt lat="24.807003570957594" lon="121.14954162631855"><ele>123.0</ele><time>2026-03-22T11:11:03Z</time></trkpt><trkpt lat="24.80702246870495" lon="121.1497422840191"><ele>123.0</ele><time>2026-03-22T11:11:04Z</time></trkpt><trkpt lat="24.80703961777526" lon="121.14994061460027"><ele>123.0</ele><time>2026-03-22T11:11:05Z</time></trkpt><trkpt lat="24.807055482372125" lon="121.15013627581628"><ele>129.0</ele><time>2026-03-22T11:11:06Z</time></trkpt><trkpt lat="24.80707180211576" lon="121.15033358818765"><ele>135.0</ele><time>2026-03-22T11:11:07Z</time></trkpt><trkpt lat="24.807087936617616" lon="121.15053639125144"><ele>141.0</ele><time>2026-03-22T11:11:08Z</time></trkpt><trkpt lat="24.807108653763166" lon="121.15073057537789"><ele>143.0</ele><time>2026-03-22T11:11:09Z</time></trkpt><trkpt lat="24.807123657620366" lon="121.15093216152466"><ele>145.0</ele><time>2026-03-22T11:11:10Z</time></trkpt><trkpt lat="24.80713408507527" lon="121.15113590781051"><ele>147.0</ele><time>2026-03-22T11:11:11Z</time></trkpt><trkpt lat="24.80714441697167" lon="121.15134249161545"><ele>147.0</ele><time>2026-03-22T11:11:12.001Z</time></trkpt><trkpt lat="24.807154313298447" lon="121.15155333229738"><ele>147.0</ele><time>2026-03-22T11:11:13.001Z</time></trkpt><trkpt lat="24.80716318901312" lon="121.1517674013198"><ele>147.0</ele><time>2026-03-22T11:11:14.001Z</time></trkpt><trkpt lat="24.807170571621015" lon="121.1519874501542"><ele>147.0</ele><time>2026-03-22T11:11:14.999Z</time></trkpt><trkpt lat="24.807175886545437" lon="121.15221068618924"><ele>147.0</ele><time>2026-03-22T11:11:15.999Z</time></trkpt><trkpt lat="24.807180838441614" lon="121.1524359207381"><ele>147.0</ele><time>2026-03-22T11:11:16.999Z</time></trkpt><trkpt lat="24.80718363220415" lon="121.15266504768113"><ele>148.0</ele><time>2026-03-22T11:11:17.999Z</time></trkpt><trkpt lat="24.807184933778647" lon="121.15289916080778"><ele>149.0</ele><time>2026-03-22T11:11:18.999Z</time></trkpt><trkpt lat="24.807185114687286" lon="121.15313486732718"><ele>150.0</ele><time>2026-03-22T11:11:19.999Z</time></trkpt><trkpt lat="24.807182971511907" lon="121.15337640898449"><ele>151.33333333333334</ele><time>2026-03-22T11:11:20.999Z</time></trkpt><trkpt lat="24.807178430500112" lon="121.15362192899052"><ele>152.66666666666669</ele><time>2026-03-22T11:11:21.999Z</time></trkpt><trkpt lat="24.807172847609632" lon="121.15386993742055"><ele>154.0</ele><time>2026-03-22T11:11:22.999Z</time></trkpt><trkpt lat="24.807165600221776" lon="121.1541211637019"><ele>154.0</ele><time>2026-03-22T11:11:23.999Z</time></trkpt><trkpt lat="24.80715648901152" lon="121.15437515254257"><ele>154.0</ele><time>2026-03-22T11:11:24.999Z</time></trkpt><trkpt lat="24.80714424115288" lon="121.15462555634289"><ele>154.0</ele><time>2026-03-22T11:11:25.999Z</time></trkpt><trkpt lat="24.807131095416196" lon="121.15487467426198"><ele>154.0</ele><time>2026-03-22T11:11:26.999Z</time></trkpt><trkpt lat="24.807114636390214" lon="121.15512117268098"><ele>154.0</ele><time>2026-03-22T11:11:27.999Z</time></trkpt><trkpt lat="24.807096287602647" lon="121.1553707037348"><ele>154.0</ele><time>2026-03-22T11:11:29Z</time></trkpt><trkpt lat="24.807074459748485" lon="121.15562167276346"><ele>154.0</ele><time>2026-03-22T11:11:30Z</time></trkpt><trkpt lat="24.80705198612213" lon="121.15587595059563"><ele>154.0</ele><time>2026-03-22T11:11:31Z</time></trkpt><trkpt lat="24.807028502378035" lon="121.15612864107851"><ele>154.0</ele><time>2026-03-22T11:11:32Z</time></trkpt><trkpt lat="24.807003328700098" lon="121.15638464661752"><ele>154.0</ele><time>2026-03-22T11:11:33Z</time></trkpt><trkpt lat="24.806974039774797" lon="121.15664178235686"><ele>151.5</ele><time>2026-03-22T11:11:34Z</time></trkpt><trkpt lat="24.80694201305621" lon="121.1568984153782"><ele>149.0</ele><time>2026-03-22T11:11:35Z</time></trkpt><trkpt lat="24.80690976242594" lon="121.15715681956085"><ele>157.0</ele><time>2026-03-22T11:11:36Z</time></trkpt><trkpt lat="24.806875075289614" lon="121.15741576343103"><ele>165.0</ele><time>2026-03-22T11:11:37Z</time></trkpt><trkpt lat="24.806839734915677" lon="121.15767827185783"><ele>163.5</ele><time>2026-03-22T11:11:38Z</time></trkpt><trkpt lat="24.806800038501372" lon="121.15794223470313"><ele>162.0</ele><time>2026-03-22T11:11:39Z</time></trkpt><trkpt lat="24.806757765182653" lon="121.1582068125027"><ele>162.0</ele><time>2026-03-22T11:11:40Z</time></trkpt><trkpt lat="24.806712994600577" lon="121.15847436987858"><ele>162.0</ele><time>2026-03-22T11:11:41Z</time></trkpt><trkpt lat="24.806666167166426" lon="121.15874297460891"><ele>162.0</ele><time>2026-03-22T11:11:42Z</time></trkpt><trkpt lat="24.806616621636042" lon="121.1590127805712"><ele>162.0</ele><time>2026-03-22T11:11:43Z</time></trkpt><trkpt lat="24.806563879428676" lon="121.15928379430947"><ele>160.0</ele><time>2026-03-22T11:11:44Z</time></trkpt><trkpt lat="24.806508676383107" lon="121.15955403184317"><ele>158.0</ele><time>2026-03-22T11:11:45Z</time></trkpt><trkpt lat="24.806449437695985" lon="121.15982785174188"><ele>158.5</ele><time>2026-03-22T11:11:46Z</time></trkpt><trkpt lat="24.80638812603007" lon="121.1601019559862"><ele>159.0</ele><time>2026-03-22T11:11:47Z</time></trkpt><trkpt lat="24.806325019217812" lon="121.16037739963292"><ele>159.0</ele><time>2026-03-22T11:11:48Z</time></trkpt><trkpt lat="24.80625946912013" lon="121.16065625873865"><ele>159.0</ele><time>2026-03-22T11:11:49Z</time></trkpt><trkpt lat="24.80618886670428" lon="121.16093793395414"><ele>167.0</ele><time>2026-03-22T11:11:50Z</time></trkpt><trkpt lat="24.806114435811082" lon="121.16121628305895"><ele>175.0</ele><time>2026-03-22T11:11:51Z</time></trkpt><trkpt lat="24.80603833979711" lon="121.16149093352476"><ele>169.5</ele><time>2026-03-22T11:11:52Z</time></trkpt><trkpt lat="24.805960188105335" lon="121.1617577210269"><ele>164.0</ele><time>2026-03-22T11:11:53Z</time></trkpt><trkpt lat="24.80587675575333" lon="121.16202306811061"><ele>164.0</ele><time>2026-03-22T11:11:54Z</time></trkpt><trkpt lat="24.80579153513327" lon="121.16228749044434"><ele>164.0</ele><time>2026-03-22T11:11:55Z</time></trkpt><trkpt lat="24.805705151583567" lon="121.16255566824859"><ele>168.5</ele><time>2026-03-22T11:11:56Z</time></trkpt><trkpt lat="24.80561978587646" lon="121.16282422593314"><ele>173.0</ele><time>2026-03-22T11:11:57Z</time></trkpt><trkpt lat="24.80553206476655" lon="121.16309432454196"><ele>174.0</ele><time>2026-03-22T11:11:58Z</time></trkpt><trkpt lat="24.80543969767808" lon="121.16336866582442"><ele>175.0</ele><time>2026-03-22T11:11:59Z</time></trkpt><trkpt lat="24.80534212645789" lon="121.16364173492143"><ele>175.0</ele><time>2026-03-22T11:12:00Z</time></trkpt><trkpt lat="24.80524204478513" lon="121.16391853251744"><ele>175.0</ele><time>2026-03-22T11:12:01Z</time></trkpt><trkpt lat="24.805138266005276" lon="121.16419474742337"><ele>168.5</ele><time>2026-03-22T11:12:02Z</time></trkpt><trkpt lat="24.805034538262227" lon="121.16446554128837"><ele>162.0</ele><time>2026-03-22T11:12:03Z</time></trkpt><trkpt lat="24.804928981822727" lon="121.16473251771895"><ele>165.0</ele><time>2026-03-22T11:12:04Z</time></trkpt><trkpt lat="24.80481761147603" lon="121.16499636904753"><ele>168.0</ele><time>2026-03-22T11:12:05Z</time></trkpt><trkpt lat="24.804701774194307" lon="121.16526311069538"><ele>168.0</ele><time>2026-03-22T11:12:06Z</time></trkpt><trkpt lat="24.804582020773168" lon="121.1655249238516"><ele>168.0</ele><time>2026-03-22T11:12:07Z</time></trkpt><trkpt lat="24.804460855592318" lon="121.16578061978039"><ele>164.0</ele><time>2026-03-22T11:12:08Z</time></trkpt><trkpt lat="24.804343879777736" lon="121.16603504358501"><ele>160.0</ele><time>2026-03-22T11:12:09Z</time></trkpt><trkpt lat="24.80422506753615" lon="121.16629055236055"><ele>164.5</ele><time>2026-03-22T11:12:10Z</time></trkpt><trkpt lat="24.804105864438434" lon="121.16654499633437"><ele>169.0</ele><time>2026-03-22T11:12:11Z</time></trkpt><trkpt lat="24.803986995643" lon="121.16679454213589"><ele>169.0</ele><time>2026-03-22T11:12:12Z</time></trkpt><trkpt lat="24.803867973380825" lon="121.1670368770286"><ele>169.0</ele><time>2026-03-22T11:12:13Z</time></trkpt><trkpt lat="24.803747263520595" lon="121.16727711755428"><ele>165.0</ele><time>2026-03-22T11:12:14Z</time></trkpt><trkpt lat="24.8036270237779" lon="121.16751243163563"><ele>161.0</ele><time>2026-03-22T11:12:15Z</time></trkpt><trkpt lat="24.803504749138803" lon="121.1677434320378"><ele>160.5</ele><time>2026-03-22T11:12:16Z</time></trkpt><trkpt lat="24.803382517437267" lon="121.1679747286913"><ele>160.0</ele><time>2026-03-22T11:12:17Z</time></trkpt><trkpt lat="24.80326187618356" lon="121.16819983979053"><ele>164.5</ele><time>2026-03-22T11:12:18Z</time></trkpt><trkpt lat="24.803139016058303" lon="121.16842115668403"><ele>169.0</ele><time>2026-03-22T11:12:19Z</time></trkpt><trkpt lat="24.803017832682198" lon="121.16863974162521"><ele>169.0</ele><time>2026-03-22T11:12:20Z</time></trkpt><trkpt lat="24.802896469629786" lon="121.16885807024747"><ele>169.0</ele><time>2026-03-22T11:12:21Z</time></trkpt><trkpt lat="24.802776264968067" lon="121.16907834083314"><ele>165.0</ele><time>2026-03-22T11:12:22Z</time></trkpt><trkpt lat="24.802657120296857" lon="121.16929898169491"><ele>161.0</ele><time>2026-03-22T11:12:23Z</time></trkpt><trkpt lat="24.802536302127173" lon="121.16952276137427"><ele>161.0</ele><time>2026-03-22T11:12:24Z</time></trkpt><trkpt lat="24.802415824797848" lon="121.16974790220583"><ele>161.0</ele><time>2026-03-22T11:12:25Z</time></trkpt><trkpt lat="24.80229078081914" lon="121.16997254694425"><ele>169.0</ele><time>2026-03-22T11:12:26Z</time></trkpt><trkpt lat="24.802160370579333" lon="121.17019379165076"><ele>177.0</ele><time>2026-03-22T11:12:27Z</time></trkpt><trkpt lat="24.80202610484718" lon="121.17041653682075"><ele>177.0</ele><time>2026-03-22T11:12:28Z</time></trkpt><trkpt lat="24.801891831491407" lon="121.17064072036526"><ele>177.0</ele><time>2026-03-22T11:12:29Z</time></trkpt><trkpt lat="24.801754205422935" lon="121.1708642255951"><ele>173.5</ele><time>2026-03-22T11:12:30Z</time></trkpt><trkpt lat="24.801615360155587" lon="121.17108723069796"><ele>170.0</ele><time>2026-03-22T11:12:31Z</time></trkpt><trkpt lat="24.801476957802763" lon="121.17131101578661"><ele>172.0</ele><time>2026-03-22T11:12:32Z</time></trkpt><trkpt lat="24.80134050294247" lon="121.17153249977093"><ele>174.0</ele><time>2026-03-22T11:12:33Z</time></trkpt><trkpt lat="24.801204444417145" lon="121.17175066901787"><ele>174.0</ele><time>2026-03-22T11:12:34Z</time></trkpt><trkpt lat="24.801069903733502" lon="121.17196767317215"><ele>174.0</ele><time>2026-03-22T11:12:35Z</time></trkpt><trkpt lat="24.80093520154186" lon="121.17218237999603"><ele>173.0</ele><time>2026-03-22T11:12:36Z</time></trkpt><trkpt lat="24.800799744213812" lon="121.17239826059189"><ele>172.0</ele><time>2026-03-22T11:12:37Z</time></trkpt><trkpt lat="24.800663748178135" lon="121.17261171634907"><ele>172.0</ele><time>2026-03-22T11:12:38Z</time></trkpt><trkpt lat="24.800527662399745" lon="121.17282520170963"><ele>172.0</ele><time>2026-03-22T11:12:39Z</time></trkpt><trkpt lat="24.80039366945161" lon="121.17304052905968"><ele>172.5</ele><time>2026-03-22T11:12:40Z</time></trkpt><trkpt lat="24.80025992291601" lon="121.17325284513517"><ele>173.0</ele><time>2026-03-22T11:12:41Z</time></trkpt><trkpt lat="24.800128821595013" lon="121.17346104661583"><ele>173.0</ele><time>2026-03-22T11:12:42Z</time></trkpt><trkpt lat="24.79999550190974" lon="121.17367215264463"><ele>173.0</ele><time>2026-03-22T11:12:43Z</time></trkpt><trkpt lat="24.79986288962373" lon="121.17388340475661"><ele>177.0</ele><time>2026-03-22T11:12:44Z</time></trkpt><trkpt lat="24.799731379190373" lon="121.17409544345843"><ele>181.0</ele><time>2026-03-22T11:12:45Z</time></trkpt><trkpt lat="24.799598777286718" lon="121.17430680844916"><ele>181.0</ele><time>2026-03-22T11:12:46Z</time></trkpt><trkpt lat="24.799469369114604" lon="121.17451895791763"><ele>181.0</ele><time>2026-03-22T11:12:47Z</time></trkpt><trkpt lat="24.79934016105765" lon="121.17473350071619"><ele>181.5</ele><time>2026-03-22T11:12:48Z</time></trkpt><trkpt lat="24.799210923604345" lon="121.17494870831077"><ele>182.0</ele><time>2026-03-22T11:12:49Z</time></trkpt><trkpt lat="24.799084169317208" lon="121.17516465478592"><ele>182.0</ele><time>2026-03-22T11:12:50Z</time></trkpt><trkpt lat="24.798960748734594" lon="121.17537818274728"><ele>182.0</ele><time>2026-03-22T11:12:51Z</time></trkpt><trkpt lat="24.79883935416301" lon="121.17559201931824"><ele>189.0</ele><time>2026-03-22T11:12:52Z</time></trkpt><trkpt lat="24.79871836587114" lon="121.17580658172811"><ele>196.0</ele><time>2026-03-22T11:12:53Z</time></trkpt><trkpt lat="24.798600382852428" lon="121.17602291867776"><ele>187.5</ele><time>2026-03-22T11:12:54Z</time></trkpt><trkpt lat="24.79848285894446" lon="121.17624179133816"><ele>179.0</ele><time>2026-03-22T11:12:55Z</time></trkpt><trkpt lat="24.79836929837467" lon="121.17646082927318"><ele>183.33333333333331</ele><time>2026-03-22T11:12:56Z</time></trkpt><trkpt lat="24.798259966677545" lon="121.1766788196682"><ele>187.66666666666666</ele><time>2026-03-22T11:12:57Z</time></trkpt><trkpt lat="24.798153931777474" lon="121.17689363401564"><ele>192.0</ele><time>2026-03-22T11:12:58Z</time></trkpt><trkpt lat="24.798050722288412" lon="121.17710640860243"><ele>192.0</ele><time>2026-03-22T11:12:59Z</time></trkpt><trkpt lat="24.797952034476832" lon="121.17731792943557"><ele>192.0</ele><time>2026-03-22T11:13:00Z</time></trkpt><trkpt lat="24.797854826268207" lon="121.17753064366201"><ele>192.0</ele><time>2026-03-22T11:13:01Z</time></trkpt><trkpt lat="24.797762419565842" lon="121.17774133905148"><ele>192.0</ele><time>2026-03-22T11:13:02Z</time></trkpt><trkpt lat="24.797673798633443" lon="121.17795564920124"><ele>192.0</ele><time>2026-03-22T11:13:03Z</time></trkpt><trkpt lat="24.797584770438526" lon="121.17817673340289"><ele>192.0</ele><time>2026-03-22T11:13:04Z</time></trkpt><trkpt lat="24.79749967586439" lon="121.1783998823931"><ele>192.0</ele><time>2026-03-22T11:13:05Z</time></trkpt><trkpt lat="24.797417170683147" lon="121.17862081477772"><ele>192.0</ele><time>2026-03-22T11:13:06Z</time></trkpt><trkpt lat="24.797335837608568" lon="121.17884041007659"><ele>192.0</ele><time>2026-03-22T11:13:07Z</time></trkpt><trkpt lat="24.797260465868252" lon="121.17905969687456"><ele>193.0</ele><time>2026-03-22T11:13:08Z</time></trkpt><trkpt lat="24.79718553561015" lon="121.17928819015873"><ele>194.0</ele><time>2026-03-22T11:13:09Z</time></trkpt><trkpt lat="24.7971111481044" lon="121.17951534391173"><ele>195.0</ele><time>2026-03-22T11:13:10Z</time></trkpt><trkpt lat="24.797042222205338" lon="121.17975102836162"><ele>200.0</ele><time>2026-03-22T11:13:11.001Z</time></trkpt><trkpt lat="24.796977649746704" lon="121.17999113998955"><ele>205.0</ele><time>2026-03-22T11:13:12.001Z</time></trkpt><trkpt lat="24.796915670075187" lon="121.18023318048523"><ele>205.0</ele><time>2026-03-22T11:13:13.001Z</time></trkpt><trkpt lat="24.796854290590538" lon="121.18048042098962"><ele>205.0</ele><time>2026-03-22T11:13:14.001Z</time></trkpt><trkpt lat="24.796796888640753" lon="121.18073148530466"><ele>201.5</ele><time>2026-03-22T11:13:15.001Z</time></trkpt><trkpt lat="24.796742864995494" lon="121.18098784420769"><ele>198.0</ele><time>2026-03-22T11:13:16.001Z</time></trkpt><trkpt lat="24.796692144842797" lon="121.18124735980385"><ele>198.0</ele><time>2026-03-22T11:13:17.001Z</time></trkpt><trkpt lat="24.796644455858296" lon="121.18151034877411"><ele>198.0</ele><time>2026-03-22T11:13:18.001Z</time></trkpt><trkpt lat="24.79660121199375" lon="121.18177555601903"><ele>197.0</ele><time>2026-03-22T11:13:19.001Z</time></trkpt><trkpt lat="24.79656125892725" lon="121.18204750032896"><ele>196.0</ele><time>2026-03-22T11:13:20Z</time></trkpt><trkpt lat="24.79652440916072" lon="121.18232236216545"><ele>189.5</ele><time>2026-03-22T11:13:21Z</time></trkpt><trkpt lat="24.79649010534732" lon="121.18259944814328"><ele>183.0</ele><time>2026-03-22T11:13:22Z</time></trkpt><trkpt lat="24.796460488301385" lon="121.18287577026398"><ele>183.0</ele><time>2026-03-22T11:13:23Z</time></trkpt><trkpt lat="24.79643568413019" lon="121.1831492752964"><ele>183.0</ele><time>2026-03-22T11:13:24Z</time></trkpt><trkpt lat="24.796418299475" lon="121.18341961357721"><ele>173.5</ele><time>2026-03-22T11:13:25Z</time></trkpt><trkpt lat="24.796402208305903" lon="121.18368617282277"><ele>164.0</ele><time>2026-03-22T11:13:26Z</time></trkpt><trkpt lat="24.796390744417458" lon="121.18395048370809"><ele>163.0</ele><time>2026-03-22T11:13:27Z</time></trkpt><trkpt lat="24.796382291357354" lon="121.18421381973404"><ele>162.0</ele><time>2026-03-22T11:13:28Z</time></trkpt><trkpt lat="24.796378391724254" lon="121.1844784100624"><ele>162.0</ele><time>2026-03-22T11:13:29Z</time></trkpt><trkpt lat="24.796380506562315" lon="121.18474080576476"><ele>162.0</ele><time>2026-03-22T11:13:30Z</time></trkpt><trkpt lat="24.796374732360587" lon="121.1850034832228"><ele>158.5</ele><time>2026-03-22T11:13:31Z</time></trkpt><trkpt lat="24.796389416237115" lon="121.1852579309848"><ele>155.0</ele><time>2026-03-22T11:13:32Z</time></trkpt><trkpt lat="24.796399274687474" lon="121.18551286180868"><ele>154.5</ele><time>2026-03-22T11:13:33Z</time></trkpt><trkpt lat="24.79641303025307" lon="121.18576758421041"><ele>154.0</ele><time>2026-03-22T11:13:34Z</time></trkpt><trkpt lat="24.79642946742268" lon="121.1860173769115"><ele>154.0</ele><time>2026-03-22T11:13:35Z</time></trkpt><trkpt lat="24.796451463978638" lon="121.18626333323132"><ele>154.0</ele><time>2026-03-22T11:13:36Z</time></trkpt><trkpt lat="24.796477257328426" lon="121.1865062872804"><ele>154.0</ele><time>2026-03-22T11:13:37Z</time></trkpt><trkpt lat="24.796503588175163" lon="121.18674738141716"><ele>156.66666666666669</ele><time>2026-03-22T11:13:38Z</time></trkpt><trkpt lat="24.79653570026606" lon="121.18698278286274"><ele>159.33333333333334</ele><time>2026-03-22T11:13:39Z</time></trkpt><trkpt lat="24.79657170200118" lon="121.1872123975079"><ele>162.0</ele><time>2026-03-22T11:13:40Z</time></trkpt><trkpt lat="24.79660932817685" lon="121.18744089286582"><ele>167.66666666666666</ele><time>2026-03-22T11:13:41Z</time></trkpt><trkpt lat="24.79665007751742" lon="121.18766791042594"><ele>173.33333333333331</ele><time>2026-03-22T11:13:42Z</time></trkpt><trkpt lat="24.796692931030844" lon="121.18789327415875"><ele>179.0</ele><time>2026-03-22T11:13:43Z</time></trkpt><trkpt lat="24.79673881516247" lon="121.18811745771058"><ele>181.66666666666666</ele><time>2026-03-22T11:13:44Z</time></trkpt><trkpt lat="24.796788785653188" lon="121.18834410251863"><ele>184.33333333333334</ele><time>2026-03-22T11:13:45Z</time></trkpt><trkpt lat="24.796841316263265" lon="121.1885744708013"><ele>187.0</ele><time>2026-03-22T11:13:46Z</time></trkpt><trkpt lat="24.796898100694957" lon="121.18880802964124"><ele>189.33333333333334</ele><time>2026-03-22T11:13:47Z</time></trkpt><trkpt lat="24.796958104477195" lon="121.18904099242623"><ele>191.66666666666669</ele><time>2026-03-22T11:13:48Z</time></trkpt><trkpt lat="24.7970209540288" lon="121.1892773642894"><ele>194.0</ele><time>2026-03-22T11:13:49Z</time></trkpt><trkpt lat="24.79709136347891" lon="121.18951245637267"><ele>194.0</ele><time>2026-03-22T11:13:50Z</time></trkpt><trkpt lat="24.797166307082254" lon="121.18974933624045"><ele>194.0</ele><time>2026-03-22T11:13:51Z</time></trkpt><trkpt lat="24.797242858605465" lon="121.18998737059486"><ele>199.0</ele><time>2026-03-22T11:13:52Z</time></trkpt><trkpt lat="24.797321260038608" lon="121.19022597474131"><ele>204.0</ele><time>2026-03-22T11:13:53Z</time></trkpt><trkpt lat="24.797406221116038" lon="121.19046479523034"><ele>204.0</ele><time>2026-03-22T11:13:54Z</time></trkpt><trkpt lat="24.79749831101151" lon="121.19070402328872"><ele>204.0</ele><time>2026-03-22T11:13:55Z</time></trkpt><trkpt lat="24.797592752898492" lon="121.19094508067792"><ele>214.0</ele><time>2026-03-22T11:13:56Z</time></trkpt><trkpt lat="24.79768979350918" lon="121.19118532294289"><ele>224.0</ele><time>2026-03-22T11:13:57Z</time></trkpt><trkpt lat="24.79779193691218" lon="121.19142701697118"><ele>222.5</ele><time>2026-03-22T11:13:58Z</time></trkpt><trkpt lat="24.797896391577183" lon="121.19166920819761"><ele>221.0</ele><time>2026-03-22T11:13:59Z</time></trkpt><trkpt lat="24.79800163079161" lon="121.19191293413989"><ele>221.0</ele><time>2026-03-22T11:14:00Z</time></trkpt><trkpt lat="24.798107821563672" lon="121.19215368226344"><ele>221.0</ele><time>2026-03-22T11:14:01Z</time></trkpt><trkpt lat="24.79821905452395" lon="121.19238677794914"><ele>217.5</ele><time>2026-03-22T11:14:02Z</time></trkpt><trkpt lat="24.79833187069833" lon="121.19261073030503"><ele>214.0</ele><time>2026-03-22T11:14:03Z</time></trkpt><trkpt lat="24.79844704536345" lon="121.19282753928697"><ele>216.66666666666666</ele><time>2026-03-22T11:14:04Z</time></trkpt><trkpt lat="24.798565711535176" lon="121.19303719636441"><ele>219.33333333333331</ele><time>2026-03-22T11:14:05Z</time></trkpt><trkpt lat="24.79868523883453" lon="121.19324272598544"><ele>222.0</ele><time>2026-03-22T11:14:06Z</time></trkpt><trkpt lat="24.798803403860685" lon="121.19344448114508"><ele>222.0</ele><time>2026-03-22T11:14:07Z</time></trkpt><trkpt lat="24.798918943122583" lon="121.19364309754361"><ele>222.0</ele><time>2026-03-22T11:14:08Z</time></trkpt><trkpt lat="24.799031447465836" lon="121.19383794010172"><ele>222.0</ele><time>2026-03-22T11:14:09Z</time></trkpt><trkpt lat="24.79914557027706" lon="121.1940267279008"><ele>224.33333333333331</ele><time>2026-03-22T11:14:10Z</time></trkpt><trkpt lat="24.799262848126844" lon="121.19420857700764"><ele>226.66666666666666</ele><time>2026-03-22T11:14:11Z</time></trkpt><trkpt lat="24.799383394825647" lon="121.19438309627819"><ele>229.0</ele><time>2026-03-22T11:14:12Z</time></trkpt><trkpt lat="24.799502935156283" lon="121.19455356088935"><ele>229.0</ele><time>2026-03-22T11:14:13Z</time></trkpt><trkpt lat="24.7996210012622" lon="121.1947202516474"><ele>229.0</ele><time>2026-03-22T11:14:14Z</time></trkpt><trkpt lat="24.799739015069544" lon="121.1948800814003"><ele>229.0</ele><time>2026-03-22T11:14:15Z</time></trkpt><trkpt lat="24.799853466294017" lon="121.19503790349117"><ele>226.33333333333331</ele><time>2026-03-22T11:14:16Z</time></trkpt><trkpt lat="24.79996349157612" lon="121.19519365859959"><ele>223.66666666666669</ele><time>2026-03-22T11:14:17Z</time></trkpt><trkpt lat="24.800068781189506" lon="121.1953484980702"><ele>221.0</ele><time>2026-03-22T11:14:18Z</time></trkpt><trkpt lat="24.800163068111043" lon="121.19550482724952"><ele>223.33333333333334</ele><time>2026-03-22T11:14:19Z</time></trkpt><trkpt lat="24.800249855736077" lon="121.19565970076933"><ele>225.66666666666669</ele><time>2026-03-22T11:14:20Z</time></trkpt><trkpt lat="24.80032768886494" lon="121.1958164867208"><ele>228.0</ele><time>2026-03-22T11:14:21Z</time></trkpt><trkpt lat="24.800393714974522" lon="121.19597612212313"><ele>228.0</ele><time>2026-03-22T11:14:22Z</time></trkpt><trkpt lat="24.800446264612773" lon="121.19613928762936"><ele>228.0</ele><time>2026-03-22T11:14:23Z</time></trkpt><trkpt lat="24.800488472899147" lon="121.1963000033955"><ele>228.0</ele><time>2026-03-22T11:14:24Z</time></trkpt><trkpt lat="24.800520073815097" lon="121.19646086702583"><ele>227.75</ele><time>2026-03-22T11:14:25Z</time></trkpt><trkpt lat="24.800548214633388" lon="121.19661590315559"><ele>227.5</ele><time>2026-03-22T11:14:26Z</time></trkpt><trkpt lat="24.80057061322903" lon="121.19676723118336"><ele>227.25</ele><time>2026-03-22T11:14:27Z</time></trkpt><trkpt lat="24.800584500835285" lon="121.19691333731338"><ele>227.0</ele><time>2026-03-22T11:14:28Z</time></trkpt><trkpt lat="24.800599321829257" lon="121.19705571619072"><ele>227.0</ele><time>2026-03-22T11:14:29Z</time></trkpt><trkpt lat="24.8006187377994" lon="121.19719428357631"><ele>227.0</ele><time>2026-03-22T11:14:30Z</time></trkpt><trkpt lat="24.800643431268597" lon="121.19732400414051"><ele>227.0</ele><time>2026-03-22T11:14:31Z</time></trkpt><trkpt lat="24.800676777803137" lon="121.19745295332139"><ele>227.0</ele><time>2026-03-22T11:14:32Z</time></trkpt><trkpt lat="24.800722084248193" lon="121.19757692917506"><ele>226.8</ele><time>2026-03-22T11:14:33Z</time></trkpt><trkpt lat="24.800777985126604" lon="121.19770190112128"><ele>226.6</ele><time>2026-03-22T11:14:34Z</time></trkpt><trkpt lat="24.80084322927063" lon="121.19781254804217"><ele>226.40000000000003</ele><time>2026-03-22T11:14:35Z</time></trkpt><trkpt lat="24.80089935563838" lon="121.1978945788453"><ele>226.20000000000002</ele><time>2026-03-22T11:14:36Z</time></trkpt><trkpt lat="24.800948379505787" lon="121.19795540506654"><ele>226.0</ele><time>2026-03-22T11:14:37Z</time></trkpt><trkpt lat="24.80099226562027" lon="121.19800719593263"><ele>227.8</ele><time>2026-03-22T11:14:38.001Z</time></trkpt><trkpt lat="24.80107974544786" lon="121.19808573850483"><ele>229.60000000000002</ele><time>2026-03-22T11:14:40.001Z</time></trkpt><trkpt lat="24.801160096618375" lon="121.1981470088656"><ele>231.4</ele><time>2026-03-22T11:14:42.001Z</time></trkpt><trkpt lat="24.801233713324716" lon="121.19818796697177"><ele>233.2</ele><time>2026-03-22T11:14:44.001Z</time></trkpt><trkpt lat="24.801319717984043" lon="121.19823504649025"><ele>235.0</ele><time>2026-03-22T11:14:46.001Z</time></trkpt><trkpt lat="24.801407067303344" lon="121.19826996050799"><ele>234.99999999999997</ele><time>2026-03-22T11:14:48.001Z</time></trkpt><trkpt lat="24.801487166273844" lon="121.19829153249954"><ele>235.0</ele><time>2026-03-22T11:14:50.001Z</time></trkpt><trkpt lat="24.801585925003913" lon="121.19830988494039"><ele>235.0</ele><time>2026-03-22T11:14:52.001Z</time></trkpt><trkpt lat="24.801651589005" lon="121.19831802234506"><ele>235.0</ele><time>2026-03-22T11:14:53.001Z</time></trkpt><trkpt lat="24.801716345433817" lon="121.19832382467429"><ele>234.99999999999997</ele><time>2026-03-22T11:14:54.001Z</time></trkpt><trkpt lat="24.80184113870812" lon="121.19831929968119"><ele>235.0</ele><time>2026-03-22T11:14:56.001Z</time></trkpt><trkpt lat="24.801910848590826" lon="121.19831062092427"><ele>235.49999999999997</ele><time>2026-03-22T11:14:57.001Z</time></trkpt><trkpt lat="24.80197530926636" lon="121.19829552827595"><ele>236.0</ele><time>2026-03-22T11:14:58.001Z</time></trkpt><trkpt lat="24.80208434280161" lon="121.19826406881198"><ele>236.5</ele><time>2026-03-22T11:15:00.001Z</time></trkpt><trkpt lat="24.80217073638565" lon="121.19823128715429"><ele>237.0</ele><time>2026-03-22T11:15:02.001Z</time></trkpt><trkpt lat="24.802243415061607" lon="121.1981979557829"><ele>237.49999999999997</ele><time>2026-03-22T11:15:04.001Z</time></trkpt><trkpt lat="24.802328196604062" lon="121.19815677326496"><ele>238.0</ele><time>2026-03-22T11:15:06.001Z</time></trkpt><trkpt lat="24.802435811249158" lon="121.1980913130167"><ele>237.99999999999997</ele><time>2026-03-22T11:15:08.001Z</time></trkpt><trkpt lat="24.80249347423359" lon="121.19805277280156"><ele>238.0</ele><time>2026-03-22T11:15:09.001Z</time></trkpt><trkpt lat="24.802546319773917" lon="121.19801242529493"><ele>238.0</ele><time>2026-03-22T11:15:10.001Z</time></trkpt><trkpt lat="24.802633599495582" lon="121.19794090055524"><ele>238.0</ele><time>2026-03-22T11:15:12.001Z</time></trkpt><trkpt lat="24.80270310378962" lon="121.19787605845546"><ele>237.99999999999997</ele><time>2026-03-22T11:15:14.001Z</time></trkpt><trkpt lat="24.80278290972454" lon="121.19779486779444"><ele>238.0</ele><time>2026-03-22T11:15:16.001Z</time></trkpt><trkpt lat="24.80285478516007" lon="121.19771429862779"><ele>239.16666666666666</ele><time>2026-03-22T11:15:18.001Z</time></trkpt><trkpt lat="24.802917821915713" lon="121.19763687901789"><ele>240.33333333333331</ele><time>2026-03-22T11:15:20.001Z</time></trkpt><trkpt lat="24.802979976627583" lon="121.1975528562251"><ele>241.5</ele><time>2026-03-22T11:15:22.001Z</time></trkpt><trkpt lat="24.8030473181922" lon="121.19744561089928"><ele>242.66666666666669</ele><time>2026-03-22T11:15:24.001Z</time></trkpt><trkpt lat="24.803082341102808" lon="121.19738382731579"><ele>243.83333333333334</ele><time>2026-03-22T11:15:25.001Z</time></trkpt><trkpt lat="24.803117575464853" lon="121.19731642794545"><ele>245.0</ele><time>2026-03-22T11:15:26Z</time></trkpt><trkpt lat="24.803154080407218" lon="121.19724505559542"><ele>246.16666666666669</ele><time>2026-03-22T11:15:27Z</time></trkpt><trkpt lat="24.803188519265102" lon="121.19717096543626"><ele>247.33333333333334</ele><time>2026-03-22T11:15:28Z</time></trkpt><trkpt lat="24.803219668049955" lon="121.19709943862482"><ele>248.5</ele><time>2026-03-22T11:15:29Z</time></trkpt><trkpt lat="24.803247359137632" lon="121.19702680839058"><ele>249.66666666666669</ele><time>2026-03-22T11:15:30Z</time></trkpt><trkpt lat="24.803273027762287" lon="121.19694961997783"><ele>250.83333333333334</ele><time>2026-03-22T11:15:31Z</time></trkpt><trkpt lat="24.803297895177987" lon="121.19686709203448"><ele>252.0</ele><time>2026-03-22T11:15:32Z</time></trkpt><trkpt lat="24.80331807095005" lon="121.19678198707498"><ele>252.0</ele><time>2026-03-22T11:15:33Z</time></trkpt><trkpt lat="24.80333847623395" lon="121.19669402980021"><ele>252.0</ele><time>2026-03-22T11:15:34Z</time></trkpt><trkpt lat="24.803353480770415" lon="121.1966072215361"><ele>252.0</ele><time>2026-03-22T11:15:35Z</time></trkpt><trkpt lat="24.803365690280987" lon="121.19652818021781"><ele>252.0</ele><time>2026-03-22T11:15:36Z</time></trkpt><trkpt lat="24.80337328385785" lon="121.19644777787695"><ele>252.0</ele><time>2026-03-22T11:15:37Z</time></trkpt><trkpt lat="24.803379294398546" lon="121.1963628419604"><ele>252.0</ele><time>2026-03-22T11:15:38Z</time></trkpt><trkpt lat="24.803380316923572" lon="121.19627346476905"><ele>251.28571428571428</ele><time>2026-03-22T11:15:39Z</time></trkpt><trkpt lat="24.803379396876952" lon="121.19619161574849"><ele>250.57142857142856</ele><time>2026-03-22T11:15:40Z</time></trkpt><trkpt lat="24.803376105364844" lon="121.19611011631149"><ele>249.85714285714286</ele><time>2026-03-22T11:15:41Z</time></trkpt><trkpt lat="24.80337068954329" lon="121.19603082281351"><ele>249.14285714285714</ele><time>2026-03-22T11:15:42Z</time></trkpt><trkpt lat="24.80336505132144" lon="121.19595702460487"><ele>248.42857142857142</ele><time>2026-03-22T11:15:43Z</time></trkpt><trkpt lat="24.80335769913288" lon="121.1958859119646"><ele>247.71428571428572</ele><time>2026-03-22T11:15:44Z</time></trkpt><trkpt lat="24.803349461992866" lon="121.19580824377296"><ele>247.0</ele><time>2026-03-22T11:15:45Z</time></trkpt><trkpt lat="24.803329208759838" lon="121.19571908838411"><ele>245.6</ele><time>2026-03-22T11:15:46Z</time></trkpt><trkpt lat="24.80330520769186" lon="121.1956386562837"><ele>244.2</ele><time>2026-03-22T11:15:47Z</time></trkpt><trkpt lat="24.80327023629853" lon="121.19553455113471"><ele>242.8</ele><time>2026-03-22T11:15:48Z</time></trkpt><trkpt lat="24.803235069611905" lon="121.19543644421063"><ele>241.4</ele><time>2026-03-22T11:15:49Z</time></trkpt><trkpt lat="24.803198589433418" lon="121.19534491547222"><ele>240.0</ele><time>2026-03-22T11:15:50Z</time></trkpt><trkpt lat="24.80316075380632" lon="121.19525524313094"><ele>240.0</ele><time>2026-03-22T11:15:51Z</time></trkpt><trkpt lat="24.803120971826896" lon="121.19516347391765"><ele>240.0</ele><time>2026-03-22T11:15:52Z</time></trkpt><trkpt lat="24.803087921853407" lon="121.19508867351459"><ele>240.0</ele><time>2026-03-22T11:15:53Z</time></trkpt><trkpt lat="24.80305014453972" lon="121.19500480550809"><ele>240.0</ele><time>2026-03-22T11:15:54Z</time></trkpt><trkpt lat="24.803010184707613" lon="121.19491609217309"><ele>240.0</ele><time>2026-03-22T11:15:55Z</time></trkpt><trkpt lat="24.80296705914866" lon="121.19482035073288"><ele>240.0</ele><time>2026-03-22T11:15:56Z</time></trkpt><trkpt lat="24.80293012868866" lon="121.19473970380302"><ele>235.6</ele><time>2026-03-22T11:15:57Z</time></trkpt><trkpt lat="24.80288167293631" lon="121.19463619963449"><ele>231.2</ele><time>2026-03-22T11:15:58Z</time></trkpt><trkpt lat="24.80284075430042" lon="121.19454855762314"><ele>226.8</ele><time>2026-03-22T11:15:59Z</time></trkpt><trkpt lat="24.80280670927479" lon="121.19445508349203"><ele>222.4</ele><time>2026-03-22T11:16:00Z</time></trkpt><trkpt lat="24.80276656466435" lon="121.19436348121359"><ele>218.0</ele><time>2026-03-22T11:16:01Z</time></trkpt><trkpt lat="24.80272116844765" lon="121.19427480374115"><ele>218.0</ele><time>2026-03-22T11:16:02Z</time></trkpt><trkpt lat="24.802670974541826" lon="121.19418657659381"><ele>218.0</ele><time>2026-03-22T11:16:03Z</time></trkpt><trkpt lat="24.802613951397124" lon="121.19407017613729"><ele>218.0</ele><time>2026-03-22T11:16:04Z</time></trkpt><trkpt lat="24.802564606959006" lon="121.1939657745987"><ele>218.0</ele><time>2026-03-22T11:16:05Z</time></trkpt><trkpt lat="24.802511011609678" lon="121.19385590905377"><ele>218.0</ele><time>2026-03-22T11:16:06Z</time></trkpt><trkpt lat="24.802456577043454" lon="121.19374947426316"><ele>221.0</ele><time>2026-03-22T11:16:07Z</time></trkpt><trkpt lat="24.802404260921225" lon="121.19364814370448"><ele>224.0</ele><time>2026-03-22T11:16:08Z</time></trkpt><trkpt lat="24.802371947330137" lon="121.1935670680628"><ele>227.0</ele><time>2026-03-22T11:16:09Z</time></trkpt><trkpt lat="24.802332170167738" lon="121.19347796174857"><ele>230.0</ele><time>2026-03-22T11:16:10Z</time></trkpt><trkpt lat="24.802286510595643" lon="121.19339901384541"><ele>233.0</ele><time>2026-03-22T11:16:11Z</time></trkpt><trkpt lat="24.802244736858324" lon="121.19331213103709"><ele>233.00000000000003</ele><time>2026-03-22T11:16:12Z</time></trkpt><trkpt lat="24.802202962596876" lon="121.19323189966622"><ele>233.0</ele><time>2026-03-22T11:16:13Z</time></trkpt><trkpt lat="24.802166310674863" lon="121.1931580806014"><ele>233.0</ele><time>2026-03-22T11:16:14.001Z</time></trkpt><trkpt lat="24.802127252718073" lon="121.19308140978612"><ele>233.0</ele><time>2026-03-22T11:16:15.001Z</time></trkpt><trkpt lat="24.802086701274913" lon="121.19300506082645"><ele>233.00000000000003</ele><time>2026-03-22T11:16:16.001Z</time></trkpt><trkpt lat="24.802044836277542" lon="121.19293408543669"><ele>233.0</ele><time>2026-03-22T11:16:17.001Z</time></trkpt><trkpt lat="24.802010124446735" lon="121.19286185015159"><ele>234.33333333333334</ele><time>2026-03-22T11:16:18.001Z</time></trkpt><trkpt lat="24.801978480914038" lon="121.19279959262987"><ele>235.66666666666669</ele><time>2026-03-22T11:16:19.001Z</time></trkpt><trkpt lat="24.801947663371205" lon="121.19273681034367"><ele>237.0</ele><time>2026-03-22T11:16:20.001Z</time></trkpt><trkpt lat="24.801914235339673" lon="121.19266971274692"><ele>238.33333333333331</ele><time>2026-03-22T11:16:21.001Z</time></trkpt><trkpt lat="24.801851553952375" lon="121.19255135406726"><ele>239.66666666666666</ele><time>2026-03-22T11:16:23.001Z</time></trkpt><trkpt lat="24.801791978444083" lon="121.19243811424228"><ele>241.0</ele><time>2026-03-22T11:16:25.001Z</time></trkpt><trkpt lat="24.801756418799698" lon="121.19236406025513"><ele>237.99999999999997</ele><time>2026-03-22T11:16:26.001Z</time></trkpt><trkpt lat="24.801705346548903" lon="121.19229507145494"><ele>235.0</ele><time>2026-03-22T11:16:27.001Z</time></trkpt><trkpt lat="24.801660986075817" lon="121.19221398571106"><ele>232.0</ele><time>2026-03-22T11:16:28.001Z</time></trkpt><trkpt lat="24.801612708288843" lon="121.19214702990857"><ele>229.0</ele><time>2026-03-22T11:16:29.001Z</time></trkpt><trkpt lat="24.80157046501894" lon="121.19207482991544"><ele>225.99999999999997</ele><time>2026-03-22T11:16:30.001Z</time></trkpt><trkpt lat="24.801525283419785" lon="121.19199760784456"><ele>223.0</ele><time>2026-03-22T11:16:31.001Z</time></trkpt><trkpt lat="24.80147620343283" lon="121.19191325071992"><ele>222.99999999999997</ele><time>2026-03-22T11:16:32.001Z</time></trkpt><trkpt lat="24.801429822512166" lon="121.19183366834304"><ele>223.0</ele><time>2026-03-22T11:16:33.001Z</time></trkpt><trkpt lat="24.801388403878512" lon="121.19176116772653"><ele>223.0</ele><time>2026-03-22T11:16:34.001Z</time></trkpt><trkpt lat="24.801341932242252" lon="121.19168534979207"><ele>223.0</ele><time>2026-03-22T11:16:35.001Z</time></trkpt><trkpt lat="24.80130520616262" lon="121.19162249169271"><ele>222.99999999999997</ele><time>2026-03-22T11:16:36.001Z</time></trkpt><trkpt lat="24.80126815690144" lon="121.19156084617448"><ele>223.0</ele><time>2026-03-22T11:16:37.001Z</time></trkpt><trkpt lat="24.801222586961373" lon="121.19148623074311"><ele>226.0</ele><time>2026-03-22T11:16:38.001Z</time></trkpt><trkpt lat="24.80117365401138" lon="121.19140946717307"><ele>229.0</ele><time>2026-03-22T11:16:39.001Z</time></trkpt><trkpt lat="24.8011239455044" lon="121.191331519539"><ele>232.0</ele><time>2026-03-22T11:16:40.001Z</time></trkpt><trkpt lat="24.801084835247277" lon="121.1912701326175"><ele>235.0</ele><time>2026-03-22T11:16:41.001Z</time></trkpt><trkpt lat="24.800965292028486" lon="121.19107747173341"><ele>235.0</ele><time>2026-03-22T11:16:43.001Z</time></trkpt><trkpt lat="24.80088685343525" lon="121.1909561962554"><ele>235.0</ele><time>2026-03-22T11:16:44.001Z</time></trkpt><trkpt lat="24.80083415288871" lon="121.19087688903953"><ele>235.0</ele><time>2026-03-22T11:16:45.001Z</time></trkpt><trkpt lat="24.800761997006372" lon="121.19077526766903"><ele>235.0</ele><time>2026-03-22T11:16:46.001Z</time></trkpt><trkpt lat="24.800696053358006" lon="121.19068451205133"><ele>235.0</ele><time>2026-03-22T11:16:47.001Z</time></trkpt><trkpt lat="24.800627383887868" lon="121.1905927934816"><ele>235.0</ele><time>2026-03-22T11:16:48.001Z</time></trkpt><trkpt lat="24.8005505411545" lon="121.19049505898724"><ele>235.0</ele><time>2026-03-22T11:16:49.076Z</time></trkpt><trkpt lat="24.80045698673141" lon="121.19039608441666"><ele>235.0</ele><time>2026-03-22T11:16:50.04Z</time></trkpt><trkpt lat="24.800822731170864" lon="121.19092956108344"><ele>240.0</ele><time>2026-03-22T11:16:51.038Z</time></trkpt><trkpt lat="24.799867048542286" lon="121.19172572124937"><ele>240.0</ele><time>2026-03-22T11:17:24.318Z</time></trkpt><trkpt lat="24.799843511332863" lon="121.1917902881836"><ele>240.0</ele><time>2026-03-22T11:17:27.396Z</time></trkpt><trkpt lat="24.800448361945246" lon="121.19085051768542"><ele>240.66666666666669</ele><time>2026-03-22T11:17:30.001Z</time></trkpt><trkpt lat="24.80040487681674" lon="121.19095415416709"><ele>241.33333333333334</ele><time>2026-03-22T11:17:31.001Z</time></trkpt><trkpt lat="24.80026351747894" lon="121.19113711399022"><ele>242.0</ele><time>2026-03-22T11:17:33.001Z</time></trkpt><trkpt lat="24.80013173653195" lon="121.19124718576481"><ele>242.0</ele><time>2026-03-22T11:17:34.001Z</time></trkpt><trkpt lat="24.799929302709938" lon="121.19133188153837"><ele>242.0</ele><time>2026-03-22T11:17:35.001Z</time></trkpt><trkpt lat="24.79962962556506" lon="121.19140616932037"><ele>242.00000000000003</ele><time>2026-03-22T11:17:36Z</time></trkpt><trkpt lat="24.799633200813886" lon="121.19149444618401"><ele>242.0</ele><time>2026-03-22T11:17:38Z</time></trkpt><trkpt lat="24.7996761026292" lon="121.19158670008996"><ele>242.0</ele><time>2026-03-22T11:17:40Z</time></trkpt><trkpt lat="24.79970741059547" lon="121.19167530359819"><ele>242.0</ele><time>2026-03-22T11:17:42Z</time></trkpt><trkpt lat="24.799715638910055" lon="121.19175441514122"><ele>242.00000000000003</ele><time>2026-03-22T11:17:44Z</time></trkpt><trkpt lat="24.79969476756121" lon="121.19185170865978"><ele>242.0</ele><time>2026-03-22T11:17:47Z</time></trkpt><trkpt lat="24.799668939954817" lon="121.191926667506"><ele>241.7142857142857</ele><time>2026-03-22T11:18:50.001Z</time></trkpt><trkpt lat="24.799639217862637" lon="121.1918603397833"><ele>241.4285714285714</ele><time>2026-03-22T11:19:14.001Z</time></trkpt><trkpt lat="24.799648362029345" lon="121.19177979719176"><ele>241.14285714285714</ele><time>2026-03-22T11:19:21.001Z</time></trkpt><trkpt lat="24.799678760398535" lon="121.19170638485254"><ele>240.85714285714283</ele><time>2026-03-22T11:19:30.001Z</time></trkpt><trkpt lat="24.799723817220972" lon="121.19165791575516"><ele>240.57142857142856</ele><time>2026-03-22T11:19:37.001Z</time></trkpt><trkpt lat="24.79979580018835" lon="121.19160991770534"><ele>240.28571428571428</ele><time>2026-03-22T11:19:47Z</time></trkpt><trkpt lat="24.79987515113741" lon="121.19159738343436"><ele>240.0</ele><time>2026-03-22T11:19:56Z</time></trkpt><trkpt lat="24.79988400552974" lon="121.19166736161179"><ele>240.0</ele><time>2026-03-22T11:20:02Z</time></trkpt><trkpt lat="24.799963936118935" lon="121.19167688176157"><ele>240.0</ele><time>2026-03-22T11:20:08Z</time></trkpt><trkpt lat="24.800000638440334" lon="121.19173835303089"><ele>240.0</ele><time>2026-03-22T11:20:14Z</time></trkpt><trkpt lat="24.79996211129792" lon="121.19181327457547"><ele>240.0</ele><time>2026-03-22T11:20:28.068Z</time></trkpt><trkpt lat="24.800078018017363" lon="121.19179060048607"><ele>240.0</ele><time>2026-03-22T11:21:14.029Z</time></trkpt><trkpt lat="24.799990004981822" lon="121.19184023163358"><ele>240.0</ele><time>2026-03-22T11:21:17.03Z</time></trkpt><trkpt lat="24.79996672341711" lon="121.19170614263591"><ele>240.0</ele><time>2026-03-22T11:21:18.028Z</time></trkpt><trkpt lat="24.79990230152462" lon="121.19168118944707"><ele>240.0</ele><time>2026-03-22T11:21:20.032Z</time></trkpt><trkpt lat="24.799858298057817" lon="121.19176536972134"><ele>240.0</ele><time>2026-03-22T11:21:27.001Z</time></trkpt><trkpt lat="24.79986192920957" lon="121.1916932180415"><ele>240.0</ele><time>2026-03-22T11:21:32.001Z</time></trkpt><trkpt lat="24.799887922648857" lon="121.19161242770008"><ele>240.0</ele><time>2026-03-22T11:21:58.001Z</time></trkpt><trkpt lat="24.799823886670875" lon="121.19160626467165"><ele>240.0</ele><time>2026-03-22T11:22:11.001Z</time></trkpt><trkpt lat="24.799778741405444" lon="121.19167285455761"><ele>240.0</ele><time>2026-03-22T11:22:19.001Z</time></trkpt><trkpt lat="24.799723105647615" lon="121.19172454003258"><ele>240.0</ele><time>2026-03-22T11:22:26.001Z</time></trkpt><trkpt lat="24.799668556778897" lon="121.19176899642882"><ele>240.0</ele><time>2026-03-22T11:22:32.001Z</time></trkpt><trkpt lat="24.79961980895792" lon="121.19182632053418"><ele>240.0</ele><time>2026-03-22T11:22:41.001Z</time></trkpt><trkpt lat="24.79967007044646" lon="121.19190939988924"><ele>240.0</ele><time>2026-03-22T11:23:36.001Z</time></trkpt><trkpt lat="24.799659596257715" lon="121.19183775272995"><ele>240.0</ele><time>2026-03-22T11:23:40.001Z</time></trkpt><trkpt lat="24.79966141060061" lon="121.19176772808383"><ele>240.0</ele><time>2026-03-22T11:23:48.001Z</time></trkpt><trkpt lat="24.799672618191465" lon="121.19169158087865"><ele>240.0</ele><time>2026-03-22T11:23:54.001Z</time></trkpt><trkpt lat="24.799728640107954" lon="121.19165292763834"><ele>240.0</ele><time>2026-03-22T11:23:59.001Z</time></trkpt><trkpt lat="24.799791042149163" lon="121.19163093922974"><ele>240.0</ele><time>2026-03-22T11:24:08.001Z</time></trkpt><trkpt lat="24.79982603134532" lon="121.19157018412437"><ele>240.0</ele><time>2026-03-22T11:24:12.001Z</time></trkpt><trkpt lat="24.79978682835325" lon="121.19163784619182"><ele>240.0</ele><time>2026-03-22T11:24:45.001Z</time></trkpt><trkpt lat="24.799750241034793" lon="121.19169574084914"><ele>240.0</ele><time>2026-03-22T11:24:53.001Z</time></trkpt><trkpt lat="24.799716194285804" lon="121.19177099773594"><ele>240.0</ele><time>2026-03-22T11:25:00.001Z</time></trkpt><trkpt lat="24.799659151595677" lon="121.19183698150412"><ele>240.0</ele><time>2026-03-22T11:25:04.001Z</time></trkpt><trkpt lat="24.79964435315276" lon="121.19198992537167"><ele>240.0</ele><time>2026-03-22T11:26:23.001Z</time></trkpt><trkpt lat="24.799644757352628" lon="121.19207190115813"><ele>240.0</ele><time>2026-03-22T11:26:27.001Z</time></trkpt><trkpt lat="24.799689430490304" lon="121.19212852645623"><ele>240.0</ele><time>2026-03-22T11:26:30.001Z</time></trkpt><trkpt lat="24.79974000761339" lon="121.19219497255988"><ele>240.0</ele><time>2026-03-22T11:26:33.001Z</time></trkpt><trkpt lat="24.799772309372273" lon="121.19225777620731"><ele>240.0</ele><time>2026-03-22T11:26:35.001Z</time></trkpt><trkpt lat="24.799774895679647" lon="121.19233692600663"><ele>240.0</ele><time>2026-03-22T11:26:37.001Z</time></trkpt><trkpt lat="24.79974758372166" lon="121.19240051541392"><ele>240.0</ele><time>2026-03-22T11:26:39.001Z</time></trkpt><trkpt lat="24.79969279963603" lon="121.19245019416368"><ele>239.83333333333334</ele><time>2026-03-22T11:26:41.001Z</time></trkpt><trkpt lat="24.79964637420604" lon="121.19250520169251"><ele>239.66666666666669</ele><time>2026-03-22T11:26:43.001Z</time></trkpt><trkpt lat="24.799587416790054" lon="121.19257520134002"><ele>239.5</ele><time>2026-03-22T11:26:45.001Z</time></trkpt><trkpt lat="24.799553784535767" lon="121.19268800028615"><ele>239.33333333333334</ele><time>2026-03-22T11:26:47.001Z</time></trkpt><trkpt lat="24.79954089894295" lon="121.19279705149077"><ele>239.16666666666669</ele><time>2026-03-22T11:26:49.001Z</time></trkpt><trkpt lat="24.79954605901637" lon="121.19288508663277"><ele>239.0</ele><time>2026-03-22T11:26:51.001Z</time></trkpt><trkpt lat="24.799589351777215" lon="121.19298638396778"><ele>239.0</ele><time>2026-03-22T11:26:53.001Z</time></trkpt><trkpt lat="24.799638489032084" lon="121.1930802394889"><ele>238.99999999999997</ele><time>2026-03-22T11:26:55.001Z</time></trkpt><trkpt lat="24.799682058091996" lon="121.19316030845914"><ele>238.99999999999997</ele><time>2026-03-22T11:26:57.001Z</time></trkpt><trkpt lat="24.799727317270246" lon="121.19325150358519"><ele>239.0</ele><time>2026-03-22T11:26:59.001Z</time></trkpt><trkpt lat="24.799776052475053" lon="121.19333137122241"><ele>239.0</ele><time>2026-03-22T11:27:01.001Z</time></trkpt><trkpt lat="24.7998292071968" lon="121.19342576787778"><ele>238.39999999999998</ele><time>2026-03-22T11:27:03.001Z</time></trkpt><trkpt lat="24.79988043462549" lon="121.19350663969483"><ele>237.79999999999998</ele><time>2026-03-22T11:27:05.001Z</time></trkpt><trkpt lat="24.79993529646969" lon="121.19359799133873"><ele>237.20000000000002</ele><time>2026-03-22T11:27:07.001Z</time></trkpt><trkpt lat="24.800006025710022" lon="121.19370301987313"><ele>236.60000000000002</ele><time>2026-03-22T11:27:09.001Z</time></trkpt><trkpt lat="24.800067429355416" lon="121.19379394337156"><ele>236.0</ele><time>2026-03-22T11:27:11.001Z</time></trkpt><trkpt lat="24.800120891020192" lon="121.19388042109517"><ele>236.20000000000002</ele><time>2026-03-22T11:27:13.001Z</time></trkpt><trkpt lat="24.8001738064756" lon="121.19395473584046"><ele>236.40000000000003</ele><time>2026-03-22T11:27:15.001Z</time></trkpt><trkpt lat="24.800219324281564" lon="121.19402348138283"><ele>236.6</ele><time>2026-03-22T11:27:17.001Z</time></trkpt><trkpt lat="24.800274048069237" lon="121.1941058394888"><ele>236.8</ele><time>2026-03-22T11:27:19.001Z</time></trkpt><trkpt lat="24.800350941437824" lon="121.19418723676358"><ele>237.0</ele><time>2026-03-22T11:27:21.001Z</time></trkpt><trkpt lat="24.80040836501686" lon="121.19426337442508"><ele>237.0</ele><time>2026-03-22T11:27:23.001Z</time></trkpt><trkpt lat="24.800461186589246" lon="121.19433139689085"><ele>237.0</ele><time>2026-03-22T11:27:25.001Z</time></trkpt><trkpt lat="24.80051733596585" lon="121.19440934687813"><ele>237.0</ele><time>2026-03-22T11:27:28.001Z</time></trkpt><trkpt lat="24.80056065564665" lon="121.19448262447227"><ele>237.0</ele><time>2026-03-22T11:27:31.001Z</time></trkpt><trkpt lat="24.80062867462552" lon="121.19454068890866"><ele>237.0</ele><time>2026-03-22T11:27:34.001Z</time></trkpt><trkpt lat="24.80067650610921" lon="121.19460199992331"><ele>237.0</ele><time>2026-03-22T11:27:37.001Z</time></trkpt><trkpt lat="24.800728407355983" lon="121.19467539009317"><ele>237.0</ele><time>2026-03-22T11:27:39.001Z</time></trkpt><trkpt lat="24.80082466648165" lon="121.19475923976066"><ele>237.0</ele><time>2026-03-22T11:27:41.001Z</time></trkpt><trkpt lat="24.800934612002912" lon="121.19483094783607"><ele>237.0</ele><time>2026-03-22T11:27:43.001Z</time></trkpt><trkpt lat="24.800992066633285" lon="121.1948825159961"><ele>237.0</ele><time>2026-03-22T11:27:44.001Z</time></trkpt><trkpt lat="24.80104994174147" lon="121.19491132520132"><ele>237.0</ele><time>2026-03-22T11:27:45.001Z</time></trkpt><trkpt lat="24.801135216882134" lon="121.19494113989929"><ele>237.66666666666666</ele><time>2026-03-22T11:27:46.001Z</time></trkpt><trkpt lat="24.801213062877824" lon="121.1949541636555"><ele>238.33333333333331</ele><time>2026-03-22T11:27:47.001Z</time></trkpt><trkpt lat="24.801315679057574" lon="121.19495829427517"><ele>239.0</ele><time>2026-03-22T11:27:48.001Z</time></trkpt><trkpt lat="24.801394012549487" lon="121.19495070675575"><ele>239.66666666666666</ele><time>2026-03-22T11:27:49.001Z</time></trkpt><trkpt lat="24.801471690661565" lon="121.19493523143328"><ele>240.33333333333331</ele><time>2026-03-22T11:27:50.001Z</time></trkpt><trkpt lat="24.801555502310922" lon="121.19491045688977"><ele>241.0</ele><time>2026-03-22T11:27:51.001Z</time></trkpt><trkpt lat="24.801635259775917" lon="121.19488023317729"><ele>240.83333333333331</ele><time>2026-03-22T11:27:52.001Z</time></trkpt><trkpt lat="24.801697237322163" lon="121.1948343055524"><ele>240.66666666666666</ele><time>2026-03-22T11:27:53.001Z</time></trkpt><trkpt lat="24.801770991358687" lon="121.19481347747654"><ele>240.5</ele><time>2026-03-22T11:27:54.001Z</time></trkpt><trkpt lat="24.80185501444951" lon="121.19476681349096"><ele>240.33333333333331</ele><time>2026-03-22T11:27:55.001Z</time></trkpt><trkpt lat="24.80194143373333" lon="121.19472205377885"><ele>240.16666666666666</ele><time>2026-03-22T11:27:56.001Z</time></trkpt><trkpt lat="24.802027812950797" lon="121.19469456923262"><ele>240.0</ele><time>2026-03-22T11:27:57.001Z</time></trkpt><trkpt lat="24.802111232219307" lon="121.19467655448148"><ele>240.0</ele><time>2026-03-22T11:27:58.001Z</time></trkpt><trkpt lat="24.802206430092866" lon="121.19466353843188"><ele>240.0</ele><time>2026-03-22T11:27:59.001Z</time></trkpt><trkpt lat="24.802298791785848" lon="121.19466211377328"><ele>240.0</ele><time>2026-03-22T11:28:00.001Z</time></trkpt><trkpt lat="24.80238656097981" lon="121.19466932972921"><ele>240.0</ele><time>2026-03-22T11:28:01.001Z</time></trkpt><trkpt lat="24.802468915985152" lon="121.19468186583997"><ele>240.0</ele><time>2026-03-22T11:28:02.001Z</time></trkpt><trkpt lat="24.802552155072775" lon="121.19470132972323"><ele>240.0</ele><time>2026-03-22T11:28:03.001Z</time></trkpt><trkpt lat="24.8026206196757" lon="121.19474777359369"><ele>240.0</ele><time>2026-03-22T11:28:04.001Z</time></trkpt><trkpt lat="24.802686228344047" lon="121.19478970004155"><ele>240.0</ele><time>2026-03-22T11:28:05.001Z</time></trkpt><trkpt lat="24.80274933045115" lon="121.19483787299511"><ele>240.0</ele><time>2026-03-22T11:28:06.001Z</time></trkpt><trkpt lat="24.80281226359185" lon="121.19489217601249"><ele>240.0</ele><time>2026-03-22T11:28:07.001Z</time></trkpt><trkpt lat="24.802857461128752" lon="121.19495773494857"><ele>240.0</ele><time>2026-03-22T11:28:08.001Z</time></trkpt><trkpt lat="24.802907986430448" lon="121.19503486939142"><ele>240.0</ele><time>2026-03-22T11:28:09.001Z</time></trkpt><trkpt lat="24.8029522582201" lon="121.19510596322236"><ele>240.0</ele><time>2026-03-22T11:28:10.001Z</time></trkpt><trkpt lat="24.802996697258923" lon="121.1951828888512"><ele>240.0</ele><time>2026-03-22T11:28:11.001Z</time></trkpt><trkpt lat="24.803041484231795" lon="121.1952608411101"><ele>240.0</ele><time>2026-03-22T11:28:12.001Z</time></trkpt><trkpt lat="24.803085859429366" lon="121.19533667644497"><ele>240.0</ele><time>2026-03-22T11:28:13.001Z</time></trkpt><trkpt lat="24.803147041203847" lon="121.19540679362693"><ele>240.0</ele><time>2026-03-22T11:28:14.001Z</time></trkpt><trkpt lat="24.80318385342881" lon="121.1955066366286"><ele>240.0</ele><time>2026-03-22T11:28:15Z</time></trkpt><trkpt lat="24.803212064124857" lon="121.19560430400028"><ele>241.4</ele><time>2026-03-22T11:28:16Z</time></trkpt><trkpt lat="24.80323763721816" lon="121.19570960836164"><ele>242.8</ele><time>2026-03-22T11:28:17Z</time></trkpt><trkpt lat="24.80326084184668" lon="121.19581599731397"><ele>244.2</ele><time>2026-03-22T11:28:18Z</time></trkpt><trkpt lat="24.803276624560333" lon="121.19592226754818"><ele>245.6</ele><time>2026-03-22T11:28:19Z</time></trkpt><trkpt lat="24.80329587768409" lon="121.19602430824399"><ele>247.0</ele><time>2026-03-22T11:28:20Z</time></trkpt><trkpt lat="24.803306801998055" lon="121.1961288603133"><ele>247.0</ele><time>2026-03-22T11:28:21Z</time></trkpt><trkpt lat="24.803311853699086" lon="121.19623560551763"><ele>247.0</ele><time>2026-03-22T11:28:22Z</time></trkpt><trkpt lat="24.803311318955743" lon="121.19634160833604"><ele>247.0</ele><time>2026-03-22T11:28:23Z</time></trkpt><trkpt lat="24.803305006428804" lon="121.19645344628091"><ele>247.0</ele><time>2026-03-22T11:28:24Z</time></trkpt><trkpt lat="24.803290668551902" lon="121.1965604052283"><ele>247.0</ele><time>2026-03-22T11:28:25Z</time></trkpt><trkpt lat="24.80327260601865" lon="121.19666471311773"><ele>248.0</ele><time>2026-03-22T11:28:26Z</time></trkpt><trkpt lat="24.80325003208896" lon="121.19676867740831"><ele>249.0</ele><time>2026-03-22T11:28:27Z</time></trkpt><trkpt lat="24.803220206429053" lon="121.19687521689946"><ele>250.0</ele><time>2026-03-22T11:28:28Z</time></trkpt><trkpt lat="24.803185160432506" lon="121.19698144383185"><ele>251.0</ele><time>2026-03-22T11:28:29Z</time></trkpt><trkpt lat="24.803145743108136" lon="121.1970869957678"><ele>252.0</ele><time>2026-03-22T11:28:30Z</time></trkpt><trkpt lat="24.803101044373346" lon="121.19718907715989"><ele>252.0</ele><time>2026-03-22T11:28:31Z</time></trkpt><trkpt lat="24.80305015224486" lon="121.19728859869986"><ele>252.0</ele><time>2026-03-22T11:28:32Z</time></trkpt><trkpt lat="24.802999572652528" lon="121.19737718574747"><ele>252.0</ele><time>2026-03-22T11:28:33Z</time></trkpt><trkpt lat="24.802940281582945" lon="121.19746855724321"><ele>252.0</ele><time>2026-03-22T11:28:34Z</time></trkpt><trkpt lat="24.802878600900208" lon="121.19755920526187"><ele>252.0</ele><time>2026-03-22T11:28:35Z</time></trkpt><trkpt lat="24.802812594234958" lon="121.19764257609431"><ele>250.6</ele><time>2026-03-22T11:28:36Z</time></trkpt><trkpt lat="24.802740749525583" lon="121.19772093121887"><ele>249.2</ele><time>2026-03-22T11:28:37Z</time></trkpt><trkpt lat="24.802667311031744" lon="121.19779357061371"><ele>247.8</ele><time>2026-03-22T11:28:38Z</time></trkpt><trkpt lat="24.80258909414584" lon="121.1978601666237"><ele>246.4</ele><time>2026-03-22T11:28:39Z</time></trkpt><trkpt lat="24.802511384705177" lon="121.19792119421375"><ele>245.0</ele><time>2026-03-22T11:28:40Z</time></trkpt><trkpt lat="24.80243041586354" lon="121.19798096508792"><ele>244.6</ele><time>2026-03-22T11:28:41Z</time></trkpt><trkpt lat="24.80234518906927" lon="121.19803454366145"><ele>244.2</ele><time>2026-03-22T11:28:42Z</time></trkpt><trkpt lat="24.80225422805334" lon="121.19808294017628"><ele>243.8</ele><time>2026-03-22T11:28:43Z</time></trkpt><trkpt lat="24.802161963301412" lon="121.19812952793757"><ele>243.4</ele><time>2026-03-22T11:28:44Z</time></trkpt><trkpt lat="24.80206194938538" lon="121.19817010413773"><ele>243.0</ele><time>2026-03-22T11:28:45Z</time></trkpt><trkpt lat="24.801961121200428" lon="121.19819924978931"><ele>243.0</ele><time>2026-03-22T11:28:46Z</time></trkpt><trkpt lat="24.80185895845015" lon="121.19822050218855"><ele>243.0</ele><time>2026-03-22T11:28:47Z</time></trkpt><trkpt lat="24.801752639231896" lon="121.19822569927575"><ele>243.0</ele><time>2026-03-22T11:28:48Z</time></trkpt><trkpt lat="24.801645742837678" lon="121.19823821170462"><ele>243.0</ele><time>2026-03-22T11:28:49Z</time></trkpt><trkpt lat="24.801536688298757" lon="121.1982196978093"><ele>243.0</ele><time>2026-03-22T11:28:50Z</time></trkpt><trkpt lat="24.80142694424818" lon="121.19819046334545"><ele>241.60000000000002</ele><time>2026-03-22T11:28:51Z</time></trkpt><trkpt lat="24.801324525411687" lon="121.19814858081945"><ele>240.20000000000002</ele><time>2026-03-22T11:28:52Z</time></trkpt><trkpt lat="24.80123485307967" lon="121.19807996478244"><ele>238.8</ele><time>2026-03-22T11:28:53Z</time></trkpt><trkpt lat="24.801139045392606" lon="121.19802040031334"><ele>237.4</ele><time>2026-03-22T11:28:54Z</time></trkpt><trkpt lat="24.80105555568454" lon="121.19794943029811"><ele>236.0</ele><time>2026-03-22T11:28:55Z</time></trkpt><trkpt lat="24.800987492786152" lon="121.19786594007029"><ele>234.20000000000002</ele><time>2026-03-22T11:28:56Z</time></trkpt><trkpt lat="24.800937253762935" lon="121.1977644506219"><ele>232.40000000000003</ele><time>2026-03-22T11:28:57Z</time></trkpt><trkpt lat="24.80088538119324" lon="121.19766692895593"><ele>230.6</ele><time>2026-03-22T11:28:58Z</time></trkpt><trkpt lat="24.800871802224503" lon="121.19755578962882"><ele>228.8</ele><time>2026-03-22T11:28:59Z</time></trkpt><trkpt lat="24.80089598379529" lon="121.19744148899188"><ele>227.0</ele><time>2026-03-22T11:29:00Z</time></trkpt><trkpt lat="24.800924989279412" lon="121.19732849448032"><ele>227.0</ele><time>2026-03-22T11:29:01Z</time></trkpt><trkpt lat="24.800973958299835" lon="121.19722344947877"><ele>227.0</ele><time>2026-03-22T11:29:02Z</time></trkpt><trkpt lat="24.80103819227613" lon="121.19712208012109"><ele>227.0</ele><time>2026-03-22T11:29:03Z</time></trkpt><trkpt lat="24.80111679287412" lon="121.19703704125689"><ele>227.0</ele><time>2026-03-22T11:29:04Z</time></trkpt><trkpt lat="24.80121003391768" lon="121.19698766123673"><ele>227.0</ele><time>2026-03-22T11:29:05Z</time></trkpt><trkpt lat="24.801302012505673" lon="121.19695691189915"><ele>228.39999999999998</ele><time>2026-03-22T11:29:06Z</time></trkpt><trkpt lat="24.80137894142479" lon="121.19695424925588"><ele>229.79999999999998</ele><time>2026-03-22T11:29:07Z</time></trkpt><trkpt lat="24.8014432075504" lon="121.19693696204874"><ele>231.2</ele><time>2026-03-22T11:29:09Z</time></trkpt><trkpt lat="24.801544109471948" lon="121.19698181186273"><ele>232.6</ele><time>2026-03-22T11:29:11Z</time></trkpt><trkpt lat="24.801667393911668" lon="121.1970268970988"><ele>234.0</ele><time>2026-03-22T11:29:12Z</time></trkpt><trkpt lat="24.801793220062017" lon="121.19709927662228"><ele>235.0</ele><time>2026-03-22T11:29:13Z</time></trkpt><trkpt lat="24.801904840421678" lon="121.19718081714278"><ele>236.0</ele><time>2026-03-22T11:29:14Z</time></trkpt><trkpt lat="24.801987701526425" lon="121.197241348547"><ele>237.0</ele><time>2026-03-22T11:29:15Z</time></trkpt><trkpt lat="24.80210923974312" lon="121.1973328065794"><ele>238.0</ele><time>2026-03-22T11:29:16Z</time></trkpt><trkpt lat="24.802268206739143" lon="121.19745392430445"><ele>238.0</ele><time>2026-03-22T11:29:17Z</time></trkpt><trkpt lat="24.802406684901896" lon="121.19752628952557"><ele>238.0</ele><time>2026-03-22T11:29:18Z</time></trkpt><trkpt lat="24.802521456266195" lon="121.19762520590048"><ele>238.0</ele><time>2026-03-22T11:29:19Z</time></trkpt><trkpt lat="24.80265090946221" lon="121.1977324434854"><ele>239.75</ele><time>2026-03-22T11:29:20Z</time></trkpt><trkpt lat="24.80274635873189" lon="121.19779417677734"><ele>241.5</ele><time>2026-03-22T11:29:21Z</time></trkpt><trkpt lat="24.80287742428229" lon="121.19788073897936"><ele>243.25</ele><time>2026-03-22T11:29:22Z</time></trkpt><trkpt lat="24.80298351683596" lon="121.19795666918934"><ele>245.0</ele><time>2026-03-22T11:29:23Z</time></trkpt><trkpt lat="24.80310936850313" lon="121.1980359716013"><ele>245.0</ele><time>2026-03-22T11:29:24Z</time></trkpt><trkpt lat="24.803288675228046" lon="121.19815330636814"><ele>245.0</ele><time>2026-03-22T11:29:25Z</time></trkpt><trkpt lat="24.80341601236125" lon="121.19823088138297"><ele>245.0</ele><time>2026-03-22T11:29:26Z</time></trkpt><trkpt lat="24.803555980874037" lon="121.19831036721934"><ele>243.0</ele><time>2026-03-22T11:29:27Z</time></trkpt><trkpt lat="24.803704180326804" lon="121.19838600277451"><ele>241.0</ele><time>2026-03-22T11:29:28Z</time></trkpt><trkpt lat="24.803833187992808" lon="121.19845249346896"><ele>239.0</ele><time>2026-03-22T11:29:29Z</time></trkpt><trkpt lat="24.803976774708367" lon="121.19853514627837"><ele>239.0</ele><time>2026-03-22T11:29:30.001Z</time></trkpt><trkpt lat="24.804125263193818" lon="121.19862437994267"><ele>239.0</ele><time>2026-03-22T11:29:31.001Z</time></trkpt><trkpt lat="24.804291027104302" lon="121.19872486135253"><ele>239.0</ele><time>2026-03-22T11:29:32.001Z</time></trkpt><trkpt lat="24.804483078176563" lon="121.1988459278417"><ele>241.33333333333334</ele><time>2026-03-22T11:29:33.001Z</time></trkpt><trkpt lat="24.80465424022158" lon="121.19895391103346"><ele>243.66666666666669</ele><time>2026-03-22T11:29:34.001Z</time></trkpt><trkpt lat="24.804842123364292" lon="121.19902837175923"><ele>246.0</ele><time>2026-03-22T11:29:35.001Z</time></trkpt><trkpt lat="24.805049176089994" lon="121.19913217978846"><ele>247.0</ele><time>2026-03-22T11:29:36.001Z</time></trkpt><trkpt lat="24.805233613796325" lon="121.19924006524462"><ele>248.0</ele><time>2026-03-22T11:29:37.001Z</time></trkpt><trkpt lat="24.80543735578213" lon="121.1993463068608"><ele>249.0</ele><time>2026-03-22T11:29:38.001Z</time></trkpt><trkpt lat="24.80559730411676" lon="121.19943373535446"><ele>249.0</ele><time>2026-03-22T11:29:39.001Z</time></trkpt><trkpt lat="24.805817088667652" lon="121.19954948181095"><ele>249.0</ele><time>2026-03-22T11:29:40.001Z</time></trkpt><trkpt lat="24.805989221293885" lon="121.19963675194094"><ele>249.0</ele><time>2026-03-22T11:29:41.001Z</time></trkpt><trkpt lat="24.80617327242823" lon="121.19969198042219"><ele>249.33333333333331</ele><time>2026-03-22T11:29:42.001Z</time></trkpt><trkpt lat="24.806368021155528" lon="121.19976328749247"><ele>249.66666666666666</ele><time>2026-03-22T11:29:43.001Z</time></trkpt><trkpt lat="24.806550114058307" lon="121.19984652707872"><ele>250.0</ele><time>2026-03-22T11:29:44.001Z</time></trkpt><trkpt lat="24.806771017454476" lon="121.19990173134242"><ele>251.33333333333331</ele><time>2026-03-22T11:29:45.001Z</time></trkpt><trkpt lat="24.80699121850247" lon="121.19994973751083"><ele>252.66666666666669</ele><time>2026-03-22T11:29:46.001Z</time></trkpt><trkpt lat="24.80720064260635" lon="121.20000279876926"><ele>254.0</ele><time>2026-03-22T11:29:47.001Z</time></trkpt><trkpt lat="24.80739768281849" lon="121.20005352456162"><ele>254.0</ele><time>2026-03-22T11:29:48.001Z</time></trkpt><trkpt lat="24.80761255082613" lon="121.20010853218628"><ele>254.0</ele><time>2026-03-22T11:29:49.001Z</time></trkpt><trkpt lat="24.807840311547984" lon="121.20015675904736"><ele>254.0</ele><time>2026-03-22T11:29:50.001Z</time></trkpt><trkpt lat="24.808064100893915" lon="121.20019813661058"><ele>254.0</ele><time>2026-03-22T11:29:51.001Z</time></trkpt><trkpt lat="24.808281079792433" lon="121.2002467134961"><ele>254.0</ele><time>2026-03-22T11:29:52.001Z</time></trkpt><trkpt lat="24.808506637768712" lon="121.20028917338439"><ele>251.0</ele><time>2026-03-22T11:29:53.001Z</time></trkpt><trkpt lat="24.80872306853331" lon="121.20032485217406"><ele>248.0</ele><time>2026-03-22T11:29:54.001Z</time></trkpt><trkpt lat="24.808937458516994" lon="121.20035836910264"><ele>245.0</ele><time>2026-03-22T11:29:55.001Z</time></trkpt><trkpt lat="24.809157099714977" lon="121.2003913392039"><ele>238.66666666666669</ele><time>2026-03-22T11:29:56.001Z</time></trkpt><trkpt lat="24.80937994021935" lon="121.2004217546408"><ele>232.33333333333331</ele><time>2026-03-22T11:29:57.001Z</time></trkpt><trkpt lat="24.809588505125987" lon="121.20044134135037"><ele>226.0</ele><time>2026-03-22T11:29:58.001Z</time></trkpt><trkpt lat="24.809797616129355" lon="121.20046623816233"><ele>226.0</ele><time>2026-03-22T11:29:59.001Z</time></trkpt><trkpt lat="24.8100050217464" lon="121.2004878805224"><ele>226.0</ele><time>2026-03-22T11:30:00.001Z</time></trkpt><trkpt lat="24.81021889051993" lon="121.20050766164819"><ele>226.0</ele><time>2026-03-22T11:30:01.001Z</time></trkpt><trkpt lat="24.810425287881806" lon="121.20051655665452"><ele>223.33333333333331</ele><time>2026-03-22T11:30:02.001Z</time></trkpt><trkpt lat="24.810624812040857" lon="121.20053576731512"><ele>220.66666666666669</ele><time>2026-03-22T11:30:03.001Z</time></trkpt><trkpt lat="24.810830506688898" lon="121.2005478226494"><ele>218.0</ele><time>2026-03-22T11:30:04.001Z</time></trkpt><trkpt lat="24.811034811842937" lon="121.2005552663816"><ele>218.0</ele><time>2026-03-22T11:30:05.001Z</time></trkpt><trkpt lat="24.81123607964222" lon="121.20056252786384"><ele>218.0</ele><time>2026-03-22T11:30:06.001Z</time></trkpt><trkpt lat="24.81143996601944" lon="121.20056786058767"><ele>218.0</ele><time>2026-03-22T11:30:07.001Z</time></trkpt><trkpt lat="24.811643508765" lon="121.20057272465769"><ele>220.0</ele><time>2026-03-22T11:30:08.001Z</time></trkpt><trkpt lat="24.81184565337127" lon="121.20057897825248"><ele>222.0</ele><time>2026-03-22T11:30:09.001Z</time></trkpt><trkpt lat="24.81205058465284" lon="121.20058269807845"><ele>224.0</ele><time>2026-03-22T11:30:10.001Z</time></trkpt><trkpt lat="24.812256236296182" lon="121.20058378200503"><ele>224.0</ele><time>2026-03-22T11:30:11Z</time></trkpt><trkpt lat="24.812459797968916" lon="121.2005851840652"><ele>224.0</ele><time>2026-03-22T11:30:12Z</time></trkpt><trkpt lat="24.812663801770274" lon="121.2005826740548"><ele>224.0</ele><time>2026-03-22T11:30:13Z</time></trkpt><trkpt lat="24.812863879308058" lon="121.20057999684423"><ele>229.33333333333334</ele><time>2026-03-22T11:30:14Z</time></trkpt><trkpt lat="24.813065391155803" lon="121.20057959945883"><ele>234.66666666666669</ele><time>2026-03-22T11:30:15Z</time></trkpt><trkpt lat="24.81326770861698" lon="121.20057548439121"><ele>240.0</ele><time>2026-03-22T11:30:16Z</time></trkpt><trkpt lat="24.81346925332871" lon="121.20056709683419"><ele>247.0</ele><time>2026-03-22T11:30:17Z</time></trkpt><trkpt lat="24.813666958237985" lon="121.20055967483934"><ele>254.0</ele><time>2026-03-22T11:30:18Z</time></trkpt><trkpt lat="24.813862507001193" lon="121.20055483569585"><ele>261.0</ele><time>2026-03-22T11:30:19Z</time></trkpt><trkpt lat="24.814057354081186" lon="121.20055017338687"><ele>261.0</ele><time>2026-03-22T11:30:20Z</time></trkpt><trkpt lat="24.814254426918747" lon="121.20054291209377"><ele>261.0</ele><time>2026-03-22T11:30:21Z</time></trkpt><trkpt lat="24.81444935555831" lon="121.2005347046598"><ele>261.0</ele><time>2026-03-22T11:30:22Z</time></trkpt><trkpt lat="24.81464307572633" lon="121.20052609052999"><ele>263.3333333333333</ele><time>2026-03-22T11:30:23Z</time></trkpt><trkpt lat="24.814835029585712" lon="121.20051531847417"><ele>265.66666666666663</ele><time>2026-03-22T11:30:24Z</time></trkpt><trkpt lat="24.81502720875921" lon="121.20050227883584"><ele>268.0</ele><time>2026-03-22T11:30:25Z</time></trkpt><trkpt lat="24.81521561165562" lon="121.20049008542189"><ele>269.66666666666663</ele><time>2026-03-22T11:30:26Z</time></trkpt><trkpt lat="24.815401690720456" lon="121.20048260836973"><ele>271.3333333333333</ele><time>2026-03-22T11:30:27Z</time></trkpt><trkpt lat="24.815584641826607" lon="121.20047525002988"><ele>273.0</ele><time>2026-03-22T11:30:28Z</time></trkpt><trkpt lat="24.815766326179386" lon="121.20046598816079"><ele>273.0</ele><time>2026-03-22T11:30:29Z</time></trkpt><trkpt lat="24.81594785027401" lon="121.20045618468042"><ele>273.0</ele><time>2026-03-22T11:30:30Z</time></trkpt><trkpt lat="24.816129654687494" lon="121.20044600238982"><ele>273.0</ele><time>2026-03-22T11:30:31Z</time></trkpt><trkpt lat="24.816312894848718" lon="121.20043621072232"><ele>272.6666666666667</ele><time>2026-03-22T11:30:32Z</time></trkpt><trkpt lat="24.816497024827687" lon="121.20042822452976"><ele>272.33333333333337</ele><time>2026-03-22T11:30:33Z</time></trkpt><trkpt lat="24.816681329736365" lon="121.20041792917779"><ele>272.0</ele><time>2026-03-22T11:30:34Z</time></trkpt><trkpt lat="24.81686633630281" lon="121.20040791972507"><ele>273.6666666666667</ele><time>2026-03-22T11:30:35Z</time></trkpt><trkpt lat="24.817050463684346" lon="121.20039665300638"><ele>275.3333333333333</ele><time>2026-03-22T11:30:36Z</time></trkpt><trkpt lat="24.817235529248446" lon="121.20038511144037"><ele>277.0</ele><time>2026-03-22T11:30:37Z</time></trkpt><trkpt lat="24.817418881203857" lon="121.20037482101962"><ele>277.0</ele><time>2026-03-22T11:30:38Z</time></trkpt><trkpt lat="24.817605146763167" lon="121.20036458163067"><ele>277.0</ele><time>2026-03-22T11:30:39Z</time></trkpt><trkpt lat="24.817788790962467" lon="121.2003531540691"><ele>277.0</ele><time>2026-03-22T11:30:40Z</time></trkpt><trkpt lat="24.8179702843828" lon="121.20034216219348"><ele>275.0</ele><time>2026-03-22T11:30:41Z</time></trkpt><trkpt lat="24.8181477429142" lon="121.20033246757409"><ele>273.0</ele><time>2026-03-22T11:30:42Z</time></trkpt><trkpt lat="24.818323378245893" lon="121.20032334217903"><ele>271.0</ele><time>2026-03-22T11:30:43Z</time></trkpt><trkpt lat="24.818500396721944" lon="121.20031445875287"><ele>271.0</ele><time>2026-03-22T11:30:44Z</time></trkpt><trkpt lat="24.81867471343277" lon="121.20030398406254"><ele>271.0</ele><time>2026-03-22T11:30:45Z</time></trkpt><trkpt lat="24.81884910213102" lon="121.20029338497292"><ele>271.0</ele><time>2026-03-22T11:30:46Z</time></trkpt><trkpt lat="24.81902423764028" lon="121.20028359721168"><ele>271.0</ele><time>2026-03-22T11:30:47Z</time></trkpt><trkpt lat="24.81919973571246" lon="121.20027278399479"><ele>271.0</ele><time>2026-03-22T11:30:48Z</time></trkpt><trkpt lat="24.81937597380532" lon="121.20026184061064"><ele>271.0</ele><time>2026-03-22T11:30:49Z</time></trkpt><trkpt lat="24.81955386351824" lon="121.20025090557391"><ele>272.0</ele><time>2026-03-22T11:30:50Z</time></trkpt><trkpt lat="24.819729936354186" lon="121.20024759158453"><ele>273.0</ele><time>2026-03-22T11:30:51Z</time></trkpt><trkpt lat="24.819907709783692" lon="121.20023643257855"><ele>274.0</ele><time>2026-03-22T11:30:52Z</time></trkpt><trkpt lat="24.820088160161557" lon="121.20022616852548"><ele>274.3333333333333</ele><time>2026-03-22T11:30:53Z</time></trkpt><trkpt lat="24.820273687568342" lon="121.20021341377522"><ele>274.6666666666667</ele><time>2026-03-22T11:30:54Z</time></trkpt><trkpt lat="24.820460534317096" lon="121.20020135607763"><ele>275.0</ele><time>2026-03-22T11:30:55Z</time></trkpt><trkpt lat="24.82064792007126" lon="121.20019039870832"><ele>275.0</ele><time>2026-03-22T11:30:56Z</time></trkpt><trkpt lat="24.820833688955233" lon="121.20017952861403"><ele>275.0</ele><time>2026-03-22T11:30:57Z</time></trkpt><trkpt lat="24.82101956752659" lon="121.2001687299368"><ele>275.0</ele><time>2026-03-22T11:30:58Z</time></trkpt><trkpt lat="24.821206375458754" lon="121.2001559093383"><ele>273.33333333333337</ele><time>2026-03-22T11:30:59Z</time></trkpt><trkpt lat="24.82139589493082" lon="121.20014406906972"><ele>271.6666666666667</ele><time>2026-03-22T11:31:00Z</time></trkpt><trkpt lat="24.82158581892725" lon="121.20013407640452"><ele>270.0</ele><time>2026-03-22T11:31:01Z</time></trkpt><trkpt lat="24.821776423434752" lon="121.20012370638084"><ele>267.3333333333333</ele><time>2026-03-22T11:31:02Z</time></trkpt><trkpt lat="24.821968708770093" lon="121.20011358725736"><ele>264.66666666666663</ele><time>2026-03-22T11:31:03Z</time></trkpt><trkpt lat="24.82216118181439" lon="121.20010626033456"><ele>262.0</ele><time>2026-03-22T11:31:04Z</time></trkpt><trkpt lat="24.82235303501992" lon="121.2000982223126"><ele>262.0</ele><time>2026-03-22T11:31:05Z</time></trkpt><trkpt lat="24.82254445789352" lon="121.20009081679218"><ele>262.0</ele><time>2026-03-22T11:31:06Z</time></trkpt><trkpt lat="24.82273542243241" lon="121.20008142329257"><ele>262.0</ele><time>2026-03-22T11:31:07Z</time></trkpt><trkpt lat="24.822925959879324" lon="121.20007202601234"><ele>266.0</ele><time>2026-03-22T11:31:08Z</time></trkpt><trkpt lat="24.823116775991902" lon="121.20006290650774"><ele>270.0</ele><time>2026-03-22T11:31:09Z</time></trkpt><trkpt lat="24.823306869836966" lon="121.20005396517251"><ele>274.0</ele><time>2026-03-22T11:31:10Z</time></trkpt><trkpt lat="24.823497202856927" lon="121.20004449877706"><ele>274.66666666666663</ele><time>2026-03-22T11:31:11Z</time></trkpt><trkpt lat="24.82368779602104" lon="121.20003469885629"><ele>275.3333333333333</ele><time>2026-03-22T11:31:12Z</time></trkpt><trkpt lat="24.823878362770486" lon="121.2000231069714"><ele>276.0</ele><time>2026-03-22T11:31:13Z</time></trkpt><trkpt lat="24.824069427043852" lon="121.20001320471344"><ele>276.0</ele><time>2026-03-22T11:31:14Z</time></trkpt><trkpt lat="24.824259696090856" lon="121.20000269060183"><ele>276.0</ele><time>2026-03-22T11:31:15Z</time></trkpt><trkpt lat="24.82445043929365" lon="121.19999175578039"><ele>276.0</ele><time>2026-03-22T11:31:16Z</time></trkpt><trkpt lat="24.824641735323564" lon="121.1999814014487"><ele>276.3333333333333</ele><time>2026-03-22T11:31:17Z</time></trkpt><trkpt lat="24.82483309582729" lon="121.19997074785991"><ele>276.66666666666663</ele><time>2026-03-22T11:31:18Z</time></trkpt><trkpt lat="24.82502574306089" lon="121.19996141100722"><ele>277.0</ele><time>2026-03-22T11:31:19Z</time></trkpt><trkpt lat="24.825217896827844" lon="121.1999511109052"><ele>278.0</ele><time>2026-03-22T11:31:20Z</time></trkpt><trkpt lat="24.82541129660926" lon="121.19994101360352"><ele>279.0</ele><time>2026-03-22T11:31:21Z</time></trkpt><trkpt lat="24.825604809335918" lon="121.19992909689849"><ele>280.0</ele><time>2026-03-22T11:31:22Z</time></trkpt><trkpt lat="24.825800117239705" lon="121.19991822007484"><ele>279.3333333333333</ele><time>2026-03-22T11:31:23Z</time></trkpt><trkpt lat="24.82599444704812" lon="121.19990724806055"><ele>278.6666666666667</ele><time>2026-03-22T11:31:24Z</time></trkpt><trkpt lat="24.82618999044196" lon="121.1998961952749"><ele>278.0</ele><time>2026-03-22T11:31:25Z</time></trkpt><trkpt lat="24.826382334108665" lon="121.19988512237197"><ele>278.0</ele><time>2026-03-22T11:31:26Z</time></trkpt><trkpt lat="24.82657099514558" lon="121.19987599026655"><ele>278.0</ele><time>2026-03-22T11:31:27Z</time></trkpt><trkpt lat="24.826755638506064" lon="121.19986606565179"><ele>278.0</ele><time>2026-03-22T11:31:28Z</time></trkpt><trkpt lat="24.826939844452824" lon="121.1998563744988"><ele>280.0</ele><time>2026-03-22T11:31:29Z</time></trkpt><trkpt lat="24.827123556750273" lon="121.1998467148579"><ele>282.0</ele><time>2026-03-22T11:31:30Z</time></trkpt><trkpt lat="24.827307100845065" lon="121.1998373757729"><ele>284.0</ele><time>2026-03-22T11:31:31Z</time></trkpt><trkpt lat="24.827491190158828" lon="121.19982626108127"><ele>287.0</ele><time>2026-03-22T11:31:32Z</time></trkpt><trkpt lat="24.8276715720808" lon="121.19981537840738"><ele>290.0</ele><time>2026-03-22T11:31:33Z</time></trkpt><trkpt lat="24.827849977602074" lon="121.19980594174037"><ele>293.0</ele><time>2026-03-22T11:31:34Z</time></trkpt><trkpt lat="24.828024547162244" lon="121.19979587909037"><ele>293.0</ele><time>2026-03-22T11:31:35Z</time></trkpt><trkpt lat="24.828197184815576" lon="121.19978630177587"><ele>293.0</ele><time>2026-03-22T11:31:36Z</time></trkpt><trkpt lat="24.828370600495038" lon="121.19977677811298"><ele>293.0</ele><time>2026-03-22T11:31:37Z</time></trkpt><trkpt lat="24.82854502236485" lon="121.19976854189382"><ele>292.0</ele><time>2026-03-22T11:31:38Z</time></trkpt><trkpt lat="24.828720888541547" lon="121.19975915549306"><ele>291.0</ele><time>2026-03-22T11:31:39Z</time></trkpt><trkpt lat="24.828896792712694" lon="121.1997491906113"><ele>290.0</ele><time>2026-03-22T11:31:40Z</time></trkpt><trkpt lat="24.829073757490722" lon="121.19973995898233"><ele>290.0</ele><time>2026-03-22T11:31:41Z</time></trkpt><trkpt lat="24.829250673495014" lon="121.19973099730969"><ele>290.0</ele><time>2026-03-22T11:31:42Z</time></trkpt><trkpt lat="24.829427499767633" lon="121.19972075403273"><ele>290.0</ele><time>2026-03-22T11:31:43Z</time></trkpt><trkpt lat="24.829604425619397" lon="121.19971130890784"><ele>293.0</ele><time>2026-03-22T11:31:44Z</time></trkpt><trkpt lat="24.829780555805694" lon="121.19970242751117"><ele>296.0</ele><time>2026-03-22T11:31:45Z</time></trkpt><trkpt lat="24.829957366229465" lon="121.19969303924326"><ele>299.0</ele><time>2026-03-22T11:31:46Z</time></trkpt><trkpt lat="24.830135399944577" lon="121.19968422510601"><ele>299.33333333333337</ele><time>2026-03-22T11:31:47Z</time></trkpt><trkpt lat="24.830313281236286" lon="121.19967451580258"><ele>299.6666666666667</ele><time>2026-03-22T11:31:48Z</time></trkpt><trkpt lat="24.83049175684986" lon="121.19966449505407"><ele>300.0</ele><time>2026-03-22T11:31:49Z</time></trkpt><trkpt lat="24.830670124988806" lon="121.19965502770862"><ele>300.0</ele><time>2026-03-22T11:31:50Z</time></trkpt><trkpt lat="24.83084765477067" lon="121.19964495278533"><ele>300.0</ele><time>2026-03-22T11:31:51Z</time></trkpt><trkpt lat="24.831022363680066" lon="121.19963503814233"><ele>300.0</ele><time>2026-03-22T11:31:52Z</time></trkpt><trkpt lat="24.831195231000937" lon="121.19962585308544"><ele>299.0</ele><time>2026-03-22T11:31:53Z</time></trkpt><trkpt lat="24.83136537076148" lon="121.19961615470984"><ele>298.0</ele><time>2026-03-22T11:31:54Z</time></trkpt><trkpt lat="24.831534918950144" lon="121.19960695353478"><ele>297.0</ele><time>2026-03-22T11:31:55Z</time></trkpt><trkpt lat="24.831706055713905" lon="121.19960225438176"><ele>296.6666666666667</ele><time>2026-03-22T11:31:56Z</time></trkpt><trkpt lat="24.831868246691926" lon="121.19958916602073"><ele>296.33333333333337</ele><time>2026-03-22T11:31:57Z</time></trkpt><trkpt lat="24.8320229703794" lon="121.19957853462661"><ele>296.0</ele><time>2026-03-22T11:31:58Z</time></trkpt><trkpt lat="24.832180864578884" lon="121.19957149759513"><ele>296.0</ele><time>2026-03-22T11:31:59Z</time></trkpt><trkpt lat="24.832343006894778" lon="121.19956666912508"><ele>296.0</ele><time>2026-03-22T11:32:00Z</time></trkpt><trkpt lat="24.832501481179072" lon="121.1995583353569"><ele>296.0</ele><time>2026-03-22T11:32:01Z</time></trkpt><trkpt lat="24.832654788079456" lon="121.19954911176214"><ele>296.0</ele><time>2026-03-22T11:32:02Z</time></trkpt><trkpt lat="24.832806885442363" lon="121.1995399600333"><ele>296.0</ele><time>2026-03-22T11:32:03Z</time></trkpt><trkpt lat="24.832958807240168" lon="121.19953007648165"><ele>296.0</ele><time>2026-03-22T11:32:04Z</time></trkpt><trkpt lat="24.83311329855177" lon="121.19951969164103"><ele>296.0</ele><time>2026-03-22T11:32:05Z</time></trkpt><trkpt lat="24.83326927146966" lon="121.19951001616857"><ele>296.0</ele><time>2026-03-22T11:32:06Z</time></trkpt><trkpt lat="24.833427194181027" lon="121.19950164470563"><ele>296.0</ele><time>2026-03-22T11:32:07Z</time></trkpt><trkpt lat="24.83358576535443" lon="121.19949354935677"><ele>296.6666666666667</ele><time>2026-03-22T11:32:08Z</time></trkpt><trkpt lat="24.83374525032903" lon="121.19948648300087"><ele>297.3333333333333</ele><time>2026-03-22T11:32:09Z</time></trkpt><trkpt lat="24.8339044563116" lon="121.19947900492171"><ele>298.0</ele><time>2026-03-22T11:32:10Z</time></trkpt><trkpt lat="24.834064864452937" lon="121.19947228209334"><ele>298.0</ele><time>2026-03-22T11:32:11Z</time></trkpt><trkpt lat="24.834226245822144" lon="121.1994643839608"><ele>298.0</ele><time>2026-03-22T11:32:12Z</time></trkpt><trkpt lat="24.834388196169787" lon="121.19945625504741"><ele>298.0</ele><time>2026-03-22T11:32:13Z</time></trkpt><trkpt lat="24.83455088495446" lon="121.19944759880852"><ele>299.3333333333333</ele><time>2026-03-22T11:32:14Z</time></trkpt><trkpt lat="24.834712703637706" lon="121.19943869432433"><ele>300.6666666666667</ele><time>2026-03-22T11:32:15Z</time></trkpt><trkpt lat="24.83487433746662" lon="121.19942930546652"><ele>302.0</ele><time>2026-03-22T11:32:16Z</time></trkpt><trkpt lat="24.83503231916419" lon="121.19941861898045"><ele>302.0</ele><time>2026-03-22T11:32:17Z</time></trkpt><trkpt lat="24.835191084573214" lon="121.19940917157696"><ele>302.0</ele><time>2026-03-22T11:32:18Z</time></trkpt><trkpt lat="24.835350357257738" lon="121.1994000749856"><ele>302.0</ele><time>2026-03-22T11:32:19Z</time></trkpt><trkpt lat="24.83551007988224" lon="121.19939071748779"><ele>302.0</ele><time>2026-03-22T11:32:20Z</time></trkpt><trkpt lat="24.835668881355637" lon="121.1993789564142"><ele>302.0</ele><time>2026-03-22T11:32:21Z</time></trkpt><trkpt lat="24.835828951731195" lon="121.19937027497708"><ele>302.0</ele><time>2026-03-22T11:32:22Z</time></trkpt><trkpt lat="24.835990267043" lon="121.19936112398959"><ele>301.6666666666667</ele><time>2026-03-22T11:32:23Z</time></trkpt><trkpt lat="24.836152004092227" lon="121.19935261662877"><ele>301.3333333333333</ele><time>2026-03-22T11:32:24Z</time></trkpt><trkpt lat="24.836314248547495" lon="121.19934398508686"><ele>301.0</ele><time>2026-03-22T11:32:25Z</time></trkpt><trkpt lat="24.83647731718368" lon="121.19933506807565"><ele>301.0</ele><time>2026-03-22T11:32:26Z</time></trkpt><trkpt lat="24.836640417657293" lon="121.19932727742844"><ele>301.0</ele><time>2026-03-22T11:32:27Z</time></trkpt><trkpt lat="24.836803902695845" lon="121.19931880456114"><ele>301.0</ele><time>2026-03-22T11:32:28Z</time></trkpt><trkpt lat="24.836966119317438" lon="121.19930935954457"><ele>301.3333333333333</ele><time>2026-03-22T11:32:29Z</time></trkpt><trkpt lat="24.837129731917237" lon="121.19930057505377"><ele>301.6666666666667</ele><time>2026-03-22T11:32:30Z</time></trkpt><trkpt lat="24.837295890082892" lon="121.19929160950299"><ele>302.0</ele><time>2026-03-22T11:32:31Z</time></trkpt><trkpt lat="24.837464355840517" lon="121.19928310261857"><ele>302.0</ele><time>2026-03-22T11:32:32Z</time></trkpt><trkpt lat="24.83762950617908" lon="121.19927234083673"><ele>302.0</ele><time>2026-03-22T11:32:33Z</time></trkpt><trkpt lat="24.837792636235513" lon="121.19926232618815"><ele>302.0</ele><time>2026-03-22T11:32:34Z</time></trkpt><trkpt lat="24.837955090412734" lon="121.19925304892283"><ele>302.33333333333337</ele><time>2026-03-22T11:32:35Z</time></trkpt><trkpt lat="24.83811754309807" lon="121.19924425535147"><ele>302.6666666666667</ele><time>2026-03-22T11:32:36Z</time></trkpt><trkpt lat="24.83827830569524" lon="121.19923463432639"><ele>303.0</ele><time>2026-03-22T11:32:37Z</time></trkpt><trkpt lat="24.838436835184694" lon="121.19922706108723"><ele>303.0</ele><time>2026-03-22T11:32:38Z</time></trkpt><trkpt lat="24.838595065121517" lon="121.1992187522611"><ele>303.0</ele><time>2026-03-22T11:32:39Z</time></trkpt><trkpt lat="24.838750794709743" lon="121.19921014636314"><ele>303.0</ele><time>2026-03-22T11:32:40Z</time></trkpt><trkpt lat="24.838904168716034" lon="121.19920212223202"><ele>303.0</ele><time>2026-03-22T11:32:41Z</time></trkpt><trkpt lat="24.839057941830955" lon="121.19919480479358"><ele>303.0</ele><time>2026-03-22T11:32:42Z</time></trkpt><trkpt lat="24.839210633279325" lon="121.19918821906886"><ele>303.0</ele><time>2026-03-22T11:32:43Z</time></trkpt><trkpt lat="24.83936250671085" lon="121.19917998121056"><ele>302.6666666666667</ele><time>2026-03-22T11:32:44Z</time></trkpt><trkpt lat="24.839513561489326" lon="121.19917336498061"><ele>302.33333333333337</ele><time>2026-03-22T11:32:45Z</time></trkpt><trkpt lat="24.83966325158036" lon="121.19916459201556"><ele>302.0</ele><time>2026-03-22T11:32:46Z</time></trkpt><trkpt lat="24.839813665235674" lon="121.19916120940594"><ele>302.0</ele><time>2026-03-22T11:32:47Z</time></trkpt><trkpt lat="24.839961646371" lon="121.19915268623866"><ele>302.0</ele><time>2026-03-22T11:32:48Z</time></trkpt><trkpt lat="24.840111972237267" lon="121.19914590151481"><ele>302.0</ele><time>2026-03-22T11:32:49Z</time></trkpt><trkpt lat="24.84026349294626" lon="121.199140894721"><ele>302.5</ele><time>2026-03-22T11:32:50Z</time></trkpt><trkpt lat="24.84041175843214" lon="121.19913696704685"><ele>303.0</ele><time>2026-03-22T11:32:51Z</time></trkpt><trkpt lat="24.840557470206853" lon="121.19913445639003"><ele>303.5</ele><time>2026-03-22T11:32:52Z</time></trkpt><trkpt lat="24.840697997278646" lon="121.19912994785297"><ele>304.0</ele><time>2026-03-22T11:32:53Z</time></trkpt><trkpt lat="24.84083448790297" lon="121.19912773108535"><ele>304.0</ele><time>2026-03-22T11:32:54Z</time></trkpt><trkpt lat="24.84096457553977" lon="121.19912668838002"><ele>304.0</ele><time>2026-03-22T11:32:55Z</time></trkpt><trkpt lat="24.841090496672983" lon="121.199124926304"><ele>304.0</ele><time>2026-03-22T11:32:56Z</time></trkpt><trkpt lat="24.84121512414559" lon="121.19912438382299"><ele>304.0</ele><time>2026-03-22T11:32:57Z</time></trkpt><trkpt lat="24.841336166377673" lon="121.19912471177133"><ele>303.75</ele><time>2026-03-22T11:32:58Z</time></trkpt><trkpt lat="24.841453519181012" lon="121.19912371930833"><ele>303.5</ele><time>2026-03-22T11:32:59Z</time></trkpt><trkpt lat="24.84156629109658" lon="121.19912468638428"><ele>303.25</ele><time>2026-03-22T11:33:00Z</time></trkpt><trkpt lat="24.841679087625177" lon="121.19912766644974"><ele>303.0</ele><time>2026-03-22T11:33:01Z</time></trkpt><trkpt lat="24.84179088637074" lon="121.19912937778784"><ele>302.25</ele><time>2026-03-22T11:33:02Z</time></trkpt><trkpt lat="24.841903665667104" lon="121.19913294777244"><ele>301.5</ele><time>2026-03-22T11:33:03Z</time></trkpt><trkpt lat="24.84201585333829" lon="121.19913747707564"><ele>300.75</ele><time>2026-03-22T11:33:04Z</time></trkpt><trkpt lat="24.842128522437424" lon="121.19914321051579"><ele>300.0</ele><time>2026-03-22T11:33:05Z</time></trkpt><trkpt lat="24.84224175048394" lon="121.19914963673492"><ele>300.0</ele><time>2026-03-22T11:33:06Z</time></trkpt><trkpt lat="24.842353847886812" lon="121.19915694771322"><ele>300.0</ele><time>2026-03-22T11:33:07Z</time></trkpt><trkpt lat="24.842466129950562" lon="121.19916597080241"><ele>300.0</ele><time>2026-03-22T11:33:08Z</time></trkpt><trkpt lat="24.842578332826882" lon="121.19917454535359"><ele>300.0</ele><time>2026-03-22T11:33:09Z</time></trkpt><trkpt lat="24.84268851599803" lon="121.1991860360273"><ele>300.0</ele><time>2026-03-22T11:33:10Z</time></trkpt><trkpt lat="24.84279808973111" lon="121.19919572244893"><ele>300.0</ele><time>2026-03-22T11:33:11Z</time></trkpt><trkpt lat="24.84290942423728" lon="121.19920829041858"><ele>300.0</ele><time>2026-03-22T11:33:12Z</time></trkpt><trkpt lat="24.843022024026634" lon="121.19922231532549"><ele>300.0</ele><time>2026-03-22T11:33:13Z</time></trkpt><trkpt lat="24.84313141651802" lon="121.1992342920234"><ele>300.0</ele><time>2026-03-22T11:33:14Z</time></trkpt><trkpt lat="24.843240819271468" lon="121.19924786398923"><ele>300.0</ele><time>2026-03-22T11:33:15Z</time></trkpt><trkpt lat="24.843348961047298" lon="121.1992638545383"><ele>300.0</ele><time>2026-03-22T11:33:16Z</time></trkpt><trkpt lat="24.84345625328006" lon="121.19928072285929"><ele>300.0</ele><time>2026-03-22T11:33:17Z</time></trkpt><trkpt lat="24.843558919115733" lon="121.19929400570123"><ele>300.0</ele><time>2026-03-22T11:33:18Z</time></trkpt><trkpt lat="24.843656711540735" lon="121.19931071574437"><ele>300.0</ele><time>2026-03-22T11:33:19Z</time></trkpt><trkpt lat="24.8437556403355" lon="121.19932965724428"><ele>300.0</ele><time>2026-03-22T11:33:20Z</time></trkpt><trkpt lat="24.843848895869332" lon="121.19934721805754"><ele>300.2</ele><time>2026-03-22T11:33:21Z</time></trkpt><trkpt lat="24.843941217363696" lon="121.19936506398287"><ele>300.4</ele><time>2026-03-22T11:33:22Z</time></trkpt><trkpt lat="24.84403131451371" lon="121.19938120451886"><ele>300.6</ele><time>2026-03-22T11:33:23Z</time></trkpt><trkpt lat="24.844118382359756" lon="121.1993962417077"><ele>300.8</ele><time>2026-03-22T11:33:24Z</time></trkpt><trkpt lat="24.84420820938875" lon="121.19941429844627"><ele>301.0</ele><time>2026-03-22T11:33:25Z</time></trkpt><trkpt lat="24.84429961075676" lon="121.19943325326466"><ele>301.8</ele><time>2026-03-22T11:33:26Z</time></trkpt><trkpt lat="24.84438974806461" lon="121.19945268674994"><ele>302.6</ele><time>2026-03-22T11:33:27Z</time></trkpt><trkpt lat="24.844480393620646" lon="121.19947469461457"><ele>303.4</ele><time>2026-03-22T11:33:28Z</time></trkpt><trkpt lat="24.844570602933455" lon="121.19949422598076"><ele>304.2</ele><time>2026-03-22T11:33:29Z</time></trkpt><trkpt lat="24.84466162468943" lon="121.1995148701816"><ele>305.0</ele><time>2026-03-22T11:33:30Z</time></trkpt><trkpt lat="24.844756899574907" lon="121.19954015663342"><ele>305.0</ele><time>2026-03-22T11:33:31Z</time></trkpt><trkpt lat="24.844855512341468" lon="121.19956514689243"><ele>305.0</ele><time>2026-03-22T11:33:32Z</time></trkpt><trkpt lat="24.84495378534815" lon="121.19959064662035"><ele>305.0</ele><time>2026-03-22T11:33:33Z</time></trkpt><trkpt lat="24.84505730695571" lon="121.19961551901153"><ele>305.0</ele><time>2026-03-22T11:33:34Z</time></trkpt><trkpt lat="24.845161040559027" lon="121.19964660234382"><ele>305.0</ele><time>2026-03-22T11:33:35Z</time></trkpt><trkpt lat="24.845261171413668" lon="121.19968024588525"><ele>304.75</ele><time>2026-03-22T11:33:36Z</time></trkpt><trkpt lat="24.84535986649065" lon="121.19971098477774"><ele>304.5</ele><time>2026-03-22T11:33:37Z</time></trkpt><trkpt lat="24.845469805064013" lon="121.19974103294058"><ele>304.25</ele><time>2026-03-22T11:33:38Z</time></trkpt><trkpt lat="24.845583451268173" lon="121.19977181379014"><ele>304.0</ele><time>2026-03-22T11:33:39Z</time></trkpt><trkpt lat="24.845701377274384" lon="121.19980023657975"><ele>304.0</ele><time>2026-03-22T11:33:40Z</time></trkpt><trkpt lat="24.845811550912337" lon="121.1998309914534"><ele>304.0</ele><time>2026-03-22T11:33:41Z</time></trkpt><trkpt lat="24.84592310881649" lon="121.19986442926253"><ele>304.0</ele><time>2026-03-22T11:33:42Z</time></trkpt><trkpt lat="24.846034138381494" lon="121.19990077913535"><ele>304.0</ele><time>2026-03-22T11:33:43Z</time></trkpt><trkpt lat="24.846143878988347" lon="121.19993829164832"><ele>301.2</ele><time>2026-03-22T11:33:44Z</time></trkpt><trkpt lat="24.846247238400416" lon="121.1999714915531"><ele>298.4</ele><time>2026-03-22T11:33:45Z</time></trkpt><trkpt lat="24.84634416841967" lon="121.20000370246774"><ele>295.6</ele><time>2026-03-22T11:33:46Z</time></trkpt><trkpt lat="24.846441625894194" lon="121.20003397135335"><ele>292.8</ele><time>2026-03-22T11:33:47Z</time></trkpt><trkpt lat="24.84653768357021" lon="121.20006504750087"><ele>290.0</ele><time>2026-03-22T11:33:48Z</time></trkpt><trkpt lat="24.846635428754507" lon="121.20009630277569"><ele>290.0</ele><time>2026-03-22T11:33:49Z</time></trkpt><trkpt lat="24.846733776506007" lon="121.20013038200565"><ele>290.0</ele><time>2026-03-22T11:33:50Z</time></trkpt><trkpt lat="24.846832069324392" lon="121.20016401427125"><ele>290.0</ele><time>2026-03-22T11:33:51Z</time></trkpt><trkpt lat="24.84693113787464" lon="121.2001982992604"><ele>290.0</ele><time>2026-03-22T11:33:52Z</time></trkpt><trkpt lat="24.84702969930824" lon="121.2002342836115"><ele>290.0</ele><time>2026-03-22T11:33:53Z</time></trkpt><trkpt lat="24.847123835778156" lon="121.20026867130035"><ele>290.83333333333337</ele><time>2026-03-22T11:33:54Z</time></trkpt><trkpt lat="24.84721314160103" lon="121.20030268791878"><ele>291.6666666666667</ele><time>2026-03-22T11:33:55Z</time></trkpt><trkpt lat="24.847296728774722" lon="121.20033525834172"><ele>292.5</ele><time>2026-03-22T11:33:56Z</time></trkpt><trkpt lat="24.84737437374226" lon="121.20036470858273"><ele>293.3333333333333</ele><time>2026-03-22T11:33:57Z</time></trkpt><trkpt lat="24.847444360713798" lon="121.20039139948229"><ele>294.16666666666663</ele><time>2026-03-22T11:33:58Z</time></trkpt><trkpt lat="24.847512484236717" lon="121.20042072677766"><ele>295.0</ele><time>2026-03-22T11:33:59Z</time></trkpt><trkpt lat="24.8475748395545" lon="121.20044764006661"><ele>295.4</ele><time>2026-03-22T11:34:00Z</time></trkpt><trkpt lat="24.847681200854883" lon="121.20049780059696"><ele>295.8</ele><time>2026-03-22T11:34:02Z</time></trkpt><trkpt lat="24.847776124331393" lon="121.20053928451986"><ele>296.2</ele><time>2026-03-22T11:34:04Z</time></trkpt><trkpt lat="24.847868588228422" lon="121.20058227488433"><ele>296.6</ele><time>2026-03-22T11:34:06Z</time></trkpt><trkpt lat="24.847959765341855" lon="121.20062320730972"><ele>297.0</ele><time>2026-03-22T11:34:08Z</time></trkpt><trkpt lat="24.848047589342166" lon="121.20066524309837"><ele>294.8333333333333</ele><time>2026-03-22T11:34:10Z</time></trkpt><trkpt lat="24.848139161994926" lon="121.2007080323199"><ele>292.6666666666667</ele><time>2026-03-22T11:34:12Z</time></trkpt><trkpt lat="24.84825070358068" lon="121.20076170452656"><ele>290.5</ele><time>2026-03-22T11:34:14Z</time></trkpt><trkpt lat="24.84830906560856" lon="121.2007897027557"><ele>288.33333333333337</ele><time>2026-03-22T11:34:15Z</time></trkpt><trkpt lat="24.848371250967002" lon="121.20081920243825"><ele>286.1666666666667</ele><time>2026-03-22T11:34:16Z</time></trkpt><trkpt lat="24.848439296641075" lon="121.20085157729223"><ele>284.0</ele><time>2026-03-22T11:34:17Z</time></trkpt><trkpt lat="24.84851017871485" lon="121.200884488406"><ele>283.5</ele><time>2026-03-22T11:34:18Z</time></trkpt><trkpt lat="24.848582195585106" lon="121.20091836757682"><ele>283.0</ele><time>2026-03-22T11:34:19Z</time></trkpt><trkpt lat="24.848658256699835" lon="121.20095332428795"><ele>282.5</ele><time>2026-03-22T11:34:20Z</time></trkpt><trkpt lat="24.848736590357575" lon="121.20099094638965"><ele>282.0</ele><time>2026-03-22T11:34:21Z</time></trkpt><trkpt lat="24.848815036048084" lon="121.20103219072817"><ele>281.5</ele><time>2026-03-22T11:34:22Z</time></trkpt><trkpt lat="24.84889447654506" lon="121.20107494793223"><ele>281.0</ele><time>2026-03-22T11:34:23Z</time></trkpt><trkpt lat="24.848974677717678" lon="121.20111778759323"><ele>281.0</ele><time>2026-03-22T11:34:24Z</time></trkpt><trkpt lat="24.849057011891755" lon="121.20116228403033"><ele>281.0</ele><time>2026-03-22T11:34:25Z</time></trkpt><trkpt lat="24.84914030291195" lon="121.2012099717144"><ele>281.0</ele><time>2026-03-22T11:34:26Z</time></trkpt><trkpt lat="24.849224089505157" lon="121.20125662952711"><ele>281.0</ele><time>2026-03-22T11:34:27Z</time></trkpt><trkpt lat="24.849310382835217" lon="121.20130294289547"><ele>281.0</ele><time>2026-03-22T11:34:28Z</time></trkpt><trkpt lat="24.849396049621163" lon="121.20134863741126"><ele>279.6</ele><time>2026-03-22T11:34:29Z</time></trkpt><trkpt lat="24.849481293890566" lon="121.20139397293838"><ele>278.20000000000005</ele><time>2026-03-22T11:34:30Z</time></trkpt><trkpt lat="24.849564564576713" lon="121.20143859270568"><ele>276.79999999999995</ele><time>2026-03-22T11:34:31Z</time></trkpt><trkpt lat="24.84964839869504" lon="121.20148688870603"><ele>275.4</ele><time>2026-03-22T11:34:32Z</time></trkpt><trkpt lat="24.849732879473517" lon="121.20153706752271"><ele>274.0</ele><time>2026-03-22T11:34:33Z</time></trkpt><trkpt lat="24.849816026865973" lon="121.20158778256905"><ele>274.0</ele><time>2026-03-22T11:34:34Z</time></trkpt><trkpt lat="24.849898500318407" lon="121.20163857648453"><ele>274.0</ele><time>2026-03-22T11:34:35Z</time></trkpt><trkpt lat="24.849980647257613" lon="121.20168867078509"><ele>274.0</ele><time>2026-03-22T11:34:36Z</time></trkpt><trkpt lat="24.850066028161276" lon="121.20173921020135"><ele>274.0</ele><time>2026-03-22T11:34:37Z</time></trkpt><trkpt lat="24.850146010274507" lon="121.20178888089465"><ele>274.0</ele><time>2026-03-22T11:34:38Z</time></trkpt><trkpt lat="24.850221302227542" lon="121.20183463280318"><ele>275.0</ele><time>2026-03-22T11:34:39Z</time></trkpt><trkpt lat="24.850289927306047" lon="121.20187803006033"><ele>276.0</ele><time>2026-03-22T11:34:40Z</time></trkpt><trkpt lat="24.850353442925954" lon="121.20191886271338"><ele>277.0</ele><time>2026-03-22T11:34:41Z</time></trkpt><trkpt lat="24.8504126235892" lon="121.20195992924944"><ele>278.0</ele><time>2026-03-22T11:34:42Z</time></trkpt><trkpt lat="24.850466966526703" lon="121.20199771799042"><ele>279.0</ele><time>2026-03-22T11:34:43Z</time></trkpt><trkpt lat="24.850561678016433" lon="121.20205923351507"><ele>280.0</ele><time>2026-03-22T11:34:45Z</time></trkpt><trkpt lat="24.85064688578644" lon="121.20211087425699"><ele>280.0</ele><time>2026-03-22T11:34:47Z</time></trkpt><trkpt lat="24.850719261148846" lon="121.2021540309174"><ele>280.0</ele><time>2026-03-22T11:34:49Z</time></trkpt><trkpt lat="24.850792325056013" lon="121.2022137436361"><ele>280.0</ele><time>2026-03-22T11:34:52Z</time></trkpt><trkpt lat="24.850860886013386" lon="121.20226533239607"><ele>280.0</ele><time>2026-03-22T11:34:55Z</time></trkpt><trkpt lat="24.850941564234603" lon="121.20232245498859"><ele>280.0</ele><time>2026-03-22T11:34:58Z</time></trkpt><trkpt lat="24.850998820777857" lon="121.20236655662843"><ele>280.0</ele><time>2026-03-22T11:35:00Z</time></trkpt><trkpt lat="24.85106383680811" lon="121.20241726088766"><ele>278.4</ele><time>2026-03-22T11:35:02Z</time></trkpt><trkpt lat="24.851138493185516" lon="121.20246461692383"><ele>276.8</ele><time>2026-03-22T11:35:04Z</time></trkpt><trkpt lat="24.851214767040194" lon="121.20251715142071"><ele>275.2</ele><time>2026-03-22T11:35:06Z</time></trkpt><trkpt lat="24.85129214871096" lon="121.20258277449557"><ele>273.6</ele><time>2026-03-22T11:35:08Z</time></trkpt><trkpt lat="24.851370690316156" lon="121.2026364181047"><ele>272.0</ele><time>2026-03-22T11:35:10Z</time></trkpt><trkpt lat="24.85146089379694" lon="121.20271090188663"><ele>272.0</ele><time>2026-03-22T11:35:12Z</time></trkpt><trkpt lat="24.851561264246683" lon="121.20278783198025"><ele>272.0</ele><time>2026-03-22T11:35:14Z</time></trkpt><trkpt lat="24.85161435386942" lon="121.20282927338154"><ele>272.0</ele><time>2026-03-22T11:35:15Z</time></trkpt><trkpt lat="24.851667703558643" lon="121.20287083958996"><ele>272.0</ele><time>2026-03-22T11:35:16Z</time></trkpt><trkpt lat="24.85176991925695" lon="121.20295219272565"><ele>272.0</ele><time>2026-03-22T11:35:18Z</time></trkpt><trkpt lat="24.851865471007557" lon="121.20303493093091"><ele>270.0</ele><time>2026-03-22T11:35:20Z</time></trkpt><trkpt lat="24.851962749055478" lon="121.20311297376543"><ele>268.0</ele><time>2026-03-22T11:35:22Z</time></trkpt><trkpt lat="24.85205431069258" lon="121.20319149392196"><ele>266.0</ele><time>2026-03-22T11:35:24Z</time></trkpt><trkpt lat="24.85213995071737" lon="121.20326447167936"><ele>264.0</ele><time>2026-03-22T11:35:26Z</time></trkpt><trkpt lat="24.85222091576386" lon="121.20333395694921"><ele>262.0</ele><time>2026-03-22T11:35:28Z</time></trkpt><trkpt lat="24.85229235428584" lon="121.203395370732"><ele>262.0</ele><time>2026-03-22T11:35:30Z</time></trkpt><trkpt lat="24.852358679959053" lon="121.20345481493824"><ele>262.0</ele><time>2026-03-22T11:35:32Z</time></trkpt><trkpt lat="24.85242511256972" lon="121.20351296625273"><ele>262.0</ele><time>2026-03-22T11:35:34Z</time></trkpt><trkpt lat="24.852490415571427" lon="121.20357204962818"><ele>262.0</ele><time>2026-03-22T11:35:36Z</time></trkpt><trkpt lat="24.852552225794373" lon="121.20362413726225"><ele>262.0</ele><time>2026-03-22T11:35:38Z</time></trkpt><trkpt lat="24.852610457237233" lon="121.20367695390051"><ele>262.0</ele><time>2026-03-22T11:35:40Z</time></trkpt><trkpt lat="24.8526659870368" lon="121.20372835773198"><ele>262.2857142857143</ele><time>2026-03-22T11:35:42Z</time></trkpt><trkpt lat="24.85272270955819" lon="121.2037874784496"><ele>262.5714285714286</ele><time>2026-03-22T11:35:45Z</time></trkpt><trkpt lat="24.852773536126236" lon="121.20383558422193"><ele>262.8571428571429</ele><time>2026-03-22T11:35:57Z</time></trkpt><trkpt lat="24.852829643173134" lon="121.20388197431346"><ele>263.14285714285717</ele><time>2026-03-22T11:36:02Z</time></trkpt><trkpt lat="24.85288294853654" lon="121.2039302832153"><ele>263.42857142857144</ele><time>2026-03-22T11:36:05Z</time></trkpt><trkpt lat="24.85293378776481" lon="121.20398692791274"><ele>263.7142857142857</ele><time>2026-03-22T11:36:08Z</time></trkpt><trkpt lat="24.852986529842365" lon="121.2040574144677"><ele>264.0</ele><time>2026-03-22T11:36:12Z</time></trkpt><trkpt lat="24.853033695776194" lon="121.20411156892962"><ele>261.0</ele><time>2026-03-22T11:36:15Z</time></trkpt><trkpt lat="24.85309912328156" lon="121.20417358557823"><ele>258.0</ele><time>2026-03-22T11:36:18Z</time></trkpt><trkpt lat="24.853150629778867" lon="121.2042214678479"><ele>255.0</ele><time>2026-03-22T11:36:20Z</time></trkpt><trkpt lat="24.853209424011744" lon="121.20427670431152"><ele>252.0</ele><time>2026-03-22T11:36:22Z</time></trkpt><trkpt lat="24.85326249056115" lon="121.20433049034418"><ele>249.0</ele><time>2026-03-22T11:36:24Z</time></trkpt><trkpt lat="24.853313485110668" lon="121.20438459756618"><ele>246.0</ele><time>2026-03-22T11:36:26.001Z</time></trkpt><trkpt lat="24.85337480584326" lon="121.20444390034247"><ele>246.0</ele><time>2026-03-22T11:36:28.001Z</time></trkpt><trkpt lat="24.853437599617163" lon="121.20451063616197"><ele>246.00000000000003</ele><time>2026-03-22T11:36:30Z</time></trkpt><trkpt lat="24.85350144130841" lon="121.2045791008374"><ele>246.00000000000003</ele><time>2026-03-22T11:36:32Z</time></trkpt><trkpt lat="24.85357118361095" lon="121.20465308419088"><ele>246.0</ele><time>2026-03-22T11:36:34Z</time></trkpt><trkpt lat="24.853640105140013" lon="121.20472820497164"><ele>246.0</ele><time>2026-03-22T11:36:36Z</time></trkpt><trkpt lat="24.8537065770881" lon="121.20479805602938"><ele>245.33333333333334</ele><time>2026-03-22T11:36:38Z</time></trkpt><trkpt lat="24.853768986146978" lon="121.20486644600145"><ele>244.66666666666669</ele><time>2026-03-22T11:36:40Z</time></trkpt><trkpt lat="24.853828629107138" lon="121.20493569581826"><ele>244.0</ele><time>2026-03-22T11:36:42Z</time></trkpt><trkpt lat="24.853885493562796" lon="121.2050027192081"><ele>243.33333333333334</ele><time>2026-03-22T11:36:44Z</time></trkpt><trkpt lat="24.85394750151697" lon="121.20507283361668"><ele>242.66666666666669</ele><time>2026-03-22T11:36:46Z</time></trkpt><trkpt lat="24.8540148010784" lon="121.20514554575826"><ele>242.0</ele><time>2026-03-22T11:36:48Z</time></trkpt><trkpt lat="24.854078821789614" lon="121.2052186057909"><ele>242.0</ele><time>2026-03-22T11:36:50Z</time></trkpt><trkpt lat="24.85414873555554" lon="121.20530018076958"><ele>242.0</ele><time>2026-03-22T11:36:52Z</time></trkpt><trkpt lat="24.85422652571158" lon="121.20539015065637"><ele>242.0</ele><time>2026-03-22T11:36:54Z</time></trkpt><trkpt lat="24.854300694240205" lon="121.20547681537018"><ele>242.0</ele><time>2026-03-22T11:36:56Z</time></trkpt><trkpt lat="24.854373772689982" lon="121.20556306032331"><ele>242.0</ele><time>2026-03-22T11:36:58Z</time></trkpt><trkpt lat="24.854452849503968" lon="121.20566676430549"><ele>241.33333333333334</ele><time>2026-03-22T11:37:00Z</time></trkpt><trkpt lat="24.854539927856692" lon="121.20577134591579"><ele>240.66666666666669</ele><time>2026-03-22T11:37:02Z</time></trkpt><trkpt lat="24.85458513436743" lon="121.20582785772102"><ele>240.0</ele><time>2026-03-22T11:37:03Z</time></trkpt><trkpt lat="24.85463338232303" lon="121.2058882872883"><ele>239.33333333333331</ele><time>2026-03-22T11:37:04Z</time></trkpt><trkpt lat="24.854683379389808" lon="121.20594923844853"><ele>238.66666666666666</ele><time>2026-03-22T11:37:05Z</time></trkpt><trkpt lat="24.85473273696424" lon="121.20601292829096"><ele>238.0</ele><time>2026-03-22T11:37:06Z</time></trkpt><trkpt lat="24.854785547198986" lon="121.2060768024699"><ele>237.99999999999997</ele><time>2026-03-22T11:37:07Z</time></trkpt><trkpt lat="24.85483683070254" lon="121.20614238379336"><ele>238.0</ele><time>2026-03-22T11:37:08Z</time></trkpt><trkpt lat="24.85488750668647" lon="121.20620914713233"><ele>238.0</ele><time>2026-03-22T11:37:09Z</time></trkpt><trkpt lat="24.854939586895075" lon="121.2062797167071"><ele>238.0</ele><time>2026-03-22T11:37:10Z</time></trkpt><trkpt lat="24.854992311375966" lon="121.2063475099706"><ele>237.99999999999997</ele><time>2026-03-22T11:37:11Z</time></trkpt><trkpt lat="24.855042429637926" lon="121.20641757377771"><ele>238.0</ele><time>2026-03-22T11:37:12Z</time></trkpt><trkpt lat="24.855094759016048" lon="121.20648625816229"><ele>237.33333333333331</ele><time>2026-03-22T11:37:13Z</time></trkpt><trkpt lat="24.85514217495916" lon="121.20655572731518"><ele>236.66666666666666</ele><time>2026-03-22T11:37:14Z</time></trkpt><trkpt lat="24.85519208863255" lon="121.20662219473836"><ele>236.0</ele><time>2026-03-22T11:37:15Z</time></trkpt><trkpt lat="24.85524085920094" lon="121.20668924209657"><ele>235.33333333333331</ele><time>2026-03-22T11:37:16Z</time></trkpt><trkpt lat="24.85528987431748" lon="121.20675563662952"><ele>234.66666666666666</ele><time>2026-03-22T11:37:17Z</time></trkpt><trkpt lat="24.85533757298987" lon="121.20682408729365"><ele>234.0</ele><time>2026-03-22T11:37:18Z</time></trkpt><trkpt lat="24.85538539307901" lon="121.20689275579744"><ele>234.0</ele><time>2026-03-22T11:37:19Z</time></trkpt><trkpt lat="24.855433864841444" lon="121.20696116814304"><ele>234.0</ele><time>2026-03-22T11:37:20Z</time></trkpt><trkpt lat="24.855480786226373" lon="121.20703161355402"><ele>234.0</ele><time>2026-03-22T11:37:21Z</time></trkpt><trkpt lat="24.85552626394532" lon="121.20709712250613"><ele>234.0</ele><time>2026-03-22T11:37:22Z</time></trkpt><trkpt lat="24.855573084955214" lon="121.20716117281133"><ele>234.0</ele><time>2026-03-22T11:37:23Z</time></trkpt><trkpt lat="24.855619818361248" lon="121.207228656237"><ele>234.0</ele><time>2026-03-22T11:37:24Z</time></trkpt><trkpt lat="24.855662606899816" lon="121.20729482470333"><ele>234.66666666666666</ele><time>2026-03-22T11:37:25Z</time></trkpt><trkpt lat="24.855707303591963" lon="121.20736106890261"><ele>235.33333333333331</ele><time>2026-03-22T11:37:26Z</time></trkpt><trkpt lat="24.855753149163185" lon="121.20742775920995"><ele>236.0</ele><time>2026-03-22T11:37:27Z</time></trkpt><trkpt lat="24.855793460096987" lon="121.20749943197383"><ele>236.66666666666666</ele><time>2026-03-22T11:37:28Z</time></trkpt><trkpt lat="24.855837125991346" lon="121.20756564395968"><ele>237.33333333333331</ele><time>2026-03-22T11:37:29Z</time></trkpt><trkpt lat="24.855879206027847" lon="121.20763489471517"><ele>238.0</ele><time>2026-03-22T11:37:30Z</time></trkpt><trkpt lat="24.85592070988755" lon="121.2077002519066"><ele>237.28571428571428</ele><time>2026-03-22T11:37:31Z</time></trkpt><trkpt lat="24.855962503068966" lon="121.20776345760477"><ele>236.57142857142856</ele><time>2026-03-22T11:37:32Z</time></trkpt><trkpt lat="24.856002800396567" lon="121.20782613019043"><ele>235.85714285714286</ele><time>2026-03-22T11:37:33Z</time></trkpt><trkpt lat="24.856042625862028" lon="121.20789072068831"><ele>235.14285714285714</ele><time>2026-03-22T11:37:34Z</time></trkpt><trkpt lat="24.85608297561411" lon="121.2079512409433"><ele>234.42857142857142</ele><time>2026-03-22T11:37:35Z</time></trkpt><trkpt lat="24.856121890509364" lon="121.20801154395954"><ele>233.71428571428572</ele><time>2026-03-22T11:37:36Z</time></trkpt><trkpt lat="24.856162793618243" lon="121.20807082687928"><ele>233.0</ele><time>2026-03-22T11:37:37Z</time></trkpt><trkpt lat="24.856197140917562" lon="121.20813247948"><ele>233.66666666666669</ele><time>2026-03-22T11:37:38Z</time></trkpt><trkpt lat="24.85622988430457" lon="121.20819510991063"><ele>234.33333333333334</ele><time>2026-03-22T11:37:39Z</time></trkpt><trkpt lat="24.856264255710258" lon="121.20825808982896"><ele>235.0</ele><time>2026-03-22T11:37:40Z</time></trkpt><trkpt lat="24.856298740875527" lon="121.20831799876134"><ele>235.66666666666669</ele><time>2026-03-22T11:37:41Z</time></trkpt><trkpt lat="24.85636629109086" lon="121.20843349780034"><ele>236.33333333333334</ele><time>2026-03-22T11:37:43Z</time></trkpt><trkpt lat="24.856432912336295" lon="121.20854757475328"><ele>237.0</ele><time>2026-03-22T11:37:45Z</time></trkpt><trkpt lat="24.856467532987505" lon="121.20860587723121"><ele>236.99999999999997</ele><time>2026-03-22T11:37:46Z</time></trkpt><trkpt lat="24.85650360877443" lon="121.208663305016"><ele>237.0</ele><time>2026-03-22T11:37:47Z</time></trkpt><trkpt lat="24.856541559288058" lon="121.20872446654606"><ele>236.99999999999997</ele><time>2026-03-22T11:37:48Z</time></trkpt><trkpt lat="24.856577763911343" lon="121.2087886721107"><ele>236.99999999999997</ele><time>2026-03-22T11:37:49Z</time></trkpt><trkpt lat="24.85661227453622" lon="121.20885371092027"><ele>237.0</ele><time>2026-03-22T11:37:50Z</time></trkpt><trkpt lat="24.856645838509834" lon="121.20892085137729"><ele>236.99999999999997</ele><time>2026-03-22T11:37:51Z</time></trkpt><trkpt lat="24.856679895158667" lon="121.20899143648415"><ele>236.99999999999997</ele><time>2026-03-22T11:37:52Z</time></trkpt><trkpt lat="24.856716335294255" lon="121.20906045015512"><ele>237.33333333333334</ele><time>2026-03-22T11:37:53Z</time></trkpt><trkpt lat="24.85675291394594" lon="121.20912379299821"><ele>237.66666666666669</ele><time>2026-03-22T11:37:54Z</time></trkpt><trkpt lat="24.85679206617718" lon="121.20917909265867"><ele>238.0</ele><time>2026-03-22T11:37:55Z</time></trkpt><trkpt lat="24.856852396324626" lon="121.20930297478488"><ele>238.33333333333334</ele><time>2026-03-22T11:37:57Z</time></trkpt><trkpt lat="24.8568884104471" lon="121.20936808342184"><ele>238.66666666666669</ele><time>2026-03-22T11:37:58Z</time></trkpt><trkpt lat="24.856924966568826" lon="121.20943592249343"><ele>239.0</ele><time>2026-03-22T11:37:59Z</time></trkpt><trkpt lat="24.856961035827908" lon="121.20950567025497"><ele>238.42857142857144</ele><time>2026-03-22T11:38:00Z</time></trkpt><trkpt lat="24.856997408355777" lon="121.20957624828512"><ele>237.85714285714286</ele><time>2026-03-22T11:38:01Z</time></trkpt><trkpt lat="24.85703474982996" lon="121.20964502685051"><ele>237.28571428571428</ele><time>2026-03-22T11:38:02Z</time></trkpt><trkpt lat="24.8570668838741" lon="121.20971197674402"><ele>236.71428571428572</ele><time>2026-03-22T11:38:03Z</time></trkpt><trkpt lat="24.85710132928207" lon="121.20978184421683"><ele>236.1428571428571</ele><time>2026-03-22T11:38:04Z</time></trkpt><trkpt lat="24.857137934983395" lon="121.20985144197896"><ele>235.57142857142856</ele><time>2026-03-22T11:38:05Z</time></trkpt><trkpt lat="24.85717505892662" lon="121.20992522555147"><ele>235.0</ele><time>2026-03-22T11:38:06Z</time></trkpt><trkpt lat="24.857213658806053" lon="121.21000086582201"><ele>234.28571428571428</ele><time>2026-03-22T11:38:07Z</time></trkpt><trkpt lat="24.85725058576749" lon="121.21007522669453"><ele>233.57142857142856</ele><time>2026-03-22T11:38:08Z</time></trkpt><trkpt lat="24.85728765880996" lon="121.21014600253508"><ele>232.85714285714283</ele><time>2026-03-22T11:38:09Z</time></trkpt><trkpt lat="24.85732361756254" lon="121.21021747927597"><ele>232.1428571428571</ele><time>2026-03-22T11:38:10Z</time></trkpt><trkpt lat="24.85735933881708" lon="121.21029036430645"><ele>231.42857142857142</ele><time>2026-03-22T11:38:11Z</time></trkpt><trkpt lat="24.85739324338213" lon="121.21035978972454"><ele>230.71428571428567</ele><time>2026-03-22T11:38:12Z</time></trkpt><trkpt lat="24.857426445256642" lon="121.2104258611882"><ele>229.99999999999997</ele><time>2026-03-22T11:38:13Z</time></trkpt><trkpt lat="24.857458303435617" lon="121.21049015050018"><ele>230.0</ele><time>2026-03-22T11:38:14Z</time></trkpt><trkpt lat="24.857489470332688" lon="121.21055258973004"><ele>230.0</ele><time>2026-03-22T11:38:15Z</time></trkpt><trkpt lat="24.85754780138367" lon="121.21067409621958"><ele>230.0</ele><time>2026-03-22T11:38:17Z</time></trkpt><trkpt lat="24.85760078763339" lon="121.21078946485909"><ele>230.0</ele><time>2026-03-22T11:38:19Z</time></trkpt><trkpt lat="24.857659094770995" lon="121.21091498358535"><ele>230.0</ele><time>2026-03-22T11:38:21Z</time></trkpt><trkpt lat="24.857693102477675" lon="121.21098538262156"><ele>230.50000000000003</ele><time>2026-03-22T11:38:22Z</time></trkpt><trkpt lat="24.857724915950968" lon="121.21105339953974"><ele>231.0</ele><time>2026-03-22T11:38:23Z</time></trkpt><trkpt lat="24.85775562298894" lon="121.21111667081637"><ele>231.5</ele><time>2026-03-22T11:38:24Z</time></trkpt><trkpt lat="24.857784403693625" lon="121.21117920317137"><ele>232.0</ele><time>2026-03-22T11:38:25Z</time></trkpt><trkpt lat="24.857840579220724" lon="121.21129946822097"><ele>232.50000000000003</ele><time>2026-03-22T11:38:27Z</time></trkpt><trkpt lat="24.857897894666664" lon="121.21141781692272"><ele>233.0</ele><time>2026-03-22T11:38:29Z</time></trkpt><trkpt lat="24.857953745404213" lon="121.2115355932645"><ele>233.2</ele><time>2026-03-22T11:38:31.001Z</time></trkpt><trkpt lat="24.858005963174104" lon="121.21165211675728"><ele>233.4</ele><time>2026-03-22T11:38:33.001Z</time></trkpt><trkpt lat="24.85806391454733" lon="121.21177875289816"><ele>233.59999999999997</ele><time>2026-03-22T11:38:35Z</time></trkpt><trkpt lat="24.858094767572368" lon="121.21184510194055"><ele>233.79999999999998</ele><time>2026-03-22T11:38:36Z</time></trkpt><trkpt lat="24.85812853998613" lon="121.21191823664003"><ele>234.0</ele><time>2026-03-22T11:38:37Z</time></trkpt><trkpt lat="24.858164249170336" lon="121.21199759765236"><ele>234.0</ele><time>2026-03-22T11:38:38Z</time></trkpt><trkpt lat="24.8582010543671" lon="121.21207883520414"><ele>234.0</ele><time>2026-03-22T11:38:39Z</time></trkpt><trkpt lat="24.858232584626553" lon="121.21215450234995"><ele>234.0</ele><time>2026-03-22T11:38:40Z</time></trkpt><trkpt lat="24.85826598908174" lon="121.21222952953055"><ele>234.0</ele><time>2026-03-22T11:38:41Z</time></trkpt><trkpt lat="24.858301903148018" lon="121.2123092749439"><ele>234.0</ele><time>2026-03-22T11:38:42Z</time></trkpt><trkpt lat="24.858339072186713" lon="121.21239275670376"><ele>234.0</ele><time>2026-03-22T11:38:43Z</time></trkpt><trkpt lat="24.85837655364042" lon="121.21247993186132"><ele>234.0</ele><time>2026-03-22T11:38:44Z</time></trkpt><trkpt lat="24.85841377299343" lon="121.21256714614798"><ele>233.99999999999997</ele><time>2026-03-22T11:38:45Z</time></trkpt><trkpt lat="24.85845310534273" lon="121.2126591952374"><ele>233.99999999999997</ele><time>2026-03-22T11:38:46Z</time></trkpt><trkpt lat="24.858491949162264" lon="121.21275330304667"><ele>234.0</ele><time>2026-03-22T11:38:47Z</time></trkpt><trkpt lat="24.858531023721998" lon="121.21284684442642"><ele>234.0</ele><time>2026-03-22T11:38:48Z</time></trkpt><trkpt lat="24.858572935844297" lon="121.21294572112788"><ele>234.0</ele><time>2026-03-22T11:38:49Z</time></trkpt><trkpt lat="24.858615825994168" lon="121.21304757807691"><ele>233.99999999999997</ele><time>2026-03-22T11:38:50Z</time></trkpt><trkpt lat="24.8586627609827" lon="121.21315245867595"><ele>233.99999999999997</ele><time>2026-03-22T11:38:51Z</time></trkpt><trkpt lat="24.858709480420384" lon="121.2132656626925"><ele>234.0</ele><time>2026-03-22T11:38:52Z</time></trkpt><trkpt lat="24.858755558420434" lon="121.21338550820612"><ele>234.0</ele><time>2026-03-22T11:38:53Z</time></trkpt><trkpt lat="24.858800790337632" lon="121.21350448595742"><ele>234.0</ele><time>2026-03-22T11:38:54Z</time></trkpt><trkpt lat="24.85884411134468" lon="121.21361930168551"><ele>234.0</ele><time>2026-03-22T11:38:55Z</time></trkpt><trkpt lat="24.85888939737268" lon="121.21373205483789"><ele>234.0</ele><time>2026-03-22T11:38:56Z</time></trkpt><trkpt lat="24.85893273053041" lon="121.21384604321848"><ele>234.0</ele><time>2026-03-22T11:38:57Z</time></trkpt><trkpt lat="24.858978383024862" lon="121.21396407136734"><ele>234.75</ele><time>2026-03-22T11:38:58Z</time></trkpt><trkpt lat="24.859023406257975" lon="121.2140812156096"><ele>235.5</ele><time>2026-03-22T11:38:59Z</time></trkpt><trkpt lat="24.859070910051134" lon="121.21420325895212"><ele>236.25</ele><time>2026-03-22T11:39:00Z</time></trkpt><trkpt lat="24.859119006000473" lon="121.21432967216083"><ele>237.0</ele><time>2026-03-22T11:39:01Z</time></trkpt><trkpt lat="24.85916767264028" lon="121.21445938871479"><ele>237.0</ele><time>2026-03-22T11:39:02Z</time></trkpt><trkpt lat="24.85921699691214" lon="121.21459160905869"><ele>237.0</ele><time>2026-03-22T11:39:03Z</time></trkpt><trkpt lat="24.859265984029594" lon="121.21472579203643"><ele>237.0</ele><time>2026-03-22T11:39:04Z</time></trkpt><trkpt lat="24.859314344566716" lon="121.21485831309951"><ele>237.0</ele><time>2026-03-22T11:39:05Z</time></trkpt><trkpt lat="24.859362529289168" lon="121.21499349370286"><ele>237.25</ele><time>2026-03-22T11:39:06Z</time></trkpt><trkpt lat="24.85940944534814" lon="121.21512577748703"><ele>237.5</ele><time>2026-03-22T11:39:07Z</time></trkpt><trkpt lat="24.85945526640899" lon="121.21526046932878"><ele>237.75</ele><time>2026-03-22T11:39:08Z</time></trkpt><trkpt lat="24.859502912040067" lon="121.21539300884488"><ele>238.0</ele><time>2026-03-22T11:39:09Z</time></trkpt><trkpt lat="24.859549378339587" lon="121.21552775763399"><ele>237.25</ele><time>2026-03-22T11:39:10Z</time></trkpt><trkpt lat="24.859596549338967" lon="121.21566405371318"><ele>236.5</ele><time>2026-03-22T11:39:11Z</time></trkpt><trkpt lat="24.85964172925417" lon="121.21579707587571"><ele>235.75</ele><time>2026-03-22T11:39:12Z</time></trkpt><trkpt lat="24.85968540712499" lon="121.21592960517314"><ele>235.0</ele><time>2026-03-22T11:39:13Z</time></trkpt><trkpt lat="24.859726949675476" lon="121.21606094400256"><ele>235.0</ele><time>2026-03-22T11:39:14Z</time></trkpt><trkpt lat="24.859768305059305" lon="121.21619155269491"><ele>235.0</ele><time>2026-03-22T11:39:15Z</time></trkpt><trkpt lat="24.859810012067484" lon="121.21632206162455"><ele>235.0</ele><time>2026-03-22T11:39:16Z</time></trkpt><trkpt lat="24.859850072204004" lon="121.21645068693536"><ele>235.0</ele><time>2026-03-22T11:39:17Z</time></trkpt><trkpt lat="24.85988838759403" lon="121.21657723512801"><ele>234.5</ele><time>2026-03-22T11:39:18Z</time></trkpt><trkpt lat="24.85992823131688" lon="121.21670638369257"><ele>234.0</ele><time>2026-03-22T11:39:19Z</time></trkpt><trkpt lat="24.8599693697777" lon="121.21683829320959"><ele>233.5</ele><time>2026-03-22T11:39:20Z</time></trkpt><trkpt lat="24.860010627154256" lon="121.21697256348914"><ele>233.0</ele><time>2026-03-22T11:39:21Z</time></trkpt><trkpt lat="24.860053013812504" lon="121.2171082095023"><ele>233.0</ele><time>2026-03-22T11:39:22Z</time></trkpt><trkpt lat="24.860094195080936" lon="121.21724522899272"><ele>233.0</ele><time>2026-03-22T11:39:23Z</time></trkpt><trkpt lat="24.860135659850773" lon="121.21738241160125"><ele>233.0</ele><time>2026-03-22T11:39:24Z</time></trkpt><trkpt lat="24.86017637201852" lon="121.21752173592998"><ele>233.0</ele><time>2026-03-22T11:39:25Z</time></trkpt><trkpt lat="24.860217362136144" lon="121.2176635252673"><ele>233.0</ele><time>2026-03-22T11:39:26Z</time></trkpt><trkpt lat="24.860257715925343" lon="121.21780469821664"><ele>233.0</ele><time>2026-03-22T11:39:27Z</time></trkpt><trkpt lat="24.860297819215678" lon="121.21794522721375"><ele>233.0</ele><time>2026-03-22T11:39:28Z</time></trkpt><trkpt lat="24.860337897175803" lon="121.21808393508223"><ele>233.0</ele><time>2026-03-22T11:39:29Z</time></trkpt><trkpt lat="24.860376206590868" lon="121.21821977774164"><ele>232.5</ele><time>2026-03-22T11:39:30Z</time></trkpt><trkpt lat="24.860413151159104" lon="121.2183548716629"><ele>232.0</ele><time>2026-03-22T11:39:31Z</time></trkpt><trkpt lat="24.86044909785088" lon="121.21848781145839"><ele>231.5</ele><time>2026-03-22T11:39:32Z</time></trkpt><trkpt lat="24.860484551097798" lon="121.21862080508845"><ele>231.0</ele><time>2026-03-22T11:39:33Z</time></trkpt><trkpt lat="24.86052077262072" lon="121.2187546511598"><ele>231.0</ele><time>2026-03-22T11:39:34Z</time></trkpt><trkpt lat="24.860555722743676" lon="121.21888591482929"><ele>231.0</ele><time>2026-03-22T11:39:35Z</time></trkpt><trkpt lat="24.860589106785863" lon="121.2190138746101"><ele>231.0</ele><time>2026-03-22T11:39:36Z</time></trkpt><trkpt lat="24.86062177534785" lon="121.21914123704754"><ele>231.0</ele><time>2026-03-22T11:39:37Z</time></trkpt><trkpt lat="24.860654390976247" lon="121.21926581879256"><ele>231.0</ele><time>2026-03-22T11:39:38Z</time></trkpt><trkpt lat="24.860686892423725" lon="121.21938477930227"><ele>231.00000000000003</ele><time>2026-03-22T11:39:39Z</time></trkpt><trkpt lat="24.86071589409096" lon="121.21949762375333"><ele>231.00000000000003</ele><time>2026-03-22T11:39:40Z</time></trkpt><trkpt lat="24.860743198378895" lon="121.21960277449203"><ele>231.0</ele><time>2026-03-22T11:39:41Z</time></trkpt><trkpt lat="24.860769325067004" lon="121.21970274817598"><ele>231.0</ele><time>2026-03-22T11:39:42Z</time></trkpt><trkpt lat="24.86079307605857" lon="121.21979874528888"><ele>231.8</ele><time>2026-03-22T11:39:43Z</time></trkpt><trkpt lat="24.86081613495127" lon="121.21989096765589"><ele>232.60000000000002</ele><time>2026-03-22T11:39:44Z</time></trkpt><trkpt lat="24.86083940729569" lon="121.21998678521942"><ele>233.4</ele><time>2026-03-22T11:39:45Z</time></trkpt><trkpt lat="24.860864980625536" lon="121.22008917280169"><ele>234.2</ele><time>2026-03-22T11:39:46Z</time></trkpt><trkpt lat="24.860890912823535" lon="121.22019619472158"><ele>235.0</ele><time>2026-03-22T11:39:47Z</time></trkpt><trkpt lat="24.860917293661178" lon="121.22030341239262"><ele>235.0</ele><time>2026-03-22T11:39:48Z</time></trkpt><trkpt lat="24.860944076198976" lon="121.22041081017538"><ele>235.0</ele><time>2026-03-22T11:39:49Z</time></trkpt><trkpt lat="24.860970868628627" lon="121.22052495953673"><ele>235.0</ele><time>2026-03-22T11:39:50Z</time></trkpt><trkpt lat="24.861000201607176" lon="121.22064343677353"><ele>235.0</ele><time>2026-03-22T11:39:51Z</time></trkpt><trkpt lat="24.8610298763915" lon="121.22076623454811"><ele>235.0</ele><time>2026-03-22T11:39:52Z</time></trkpt><trkpt lat="24.861061392236827" lon="121.22089049006568"><ele>234.75</ele><time>2026-03-22T11:39:53Z</time></trkpt><trkpt lat="24.86109307002416" lon="121.22101677249196"><ele>234.5</ele><time>2026-03-22T11:39:54Z</time></trkpt><trkpt lat="24.861121975268407" lon="121.22113997602607"><ele>234.25</ele><time>2026-03-22T11:39:55Z</time></trkpt><trkpt lat="24.861152247255124" lon="121.22126282098525"><ele>234.0</ele><time>2026-03-22T11:39:56Z</time></trkpt><trkpt lat="24.861181097315455" lon="121.22138378489949"><ele>234.25</ele><time>2026-03-22T11:39:57Z</time></trkpt><trkpt lat="24.861211805702872" lon="121.22150356671243"><ele>234.5</ele><time>2026-03-22T11:39:58Z</time></trkpt><trkpt lat="24.861239690044542" lon="121.22162303805146"><ele>234.75</ele><time>2026-03-22T11:39:59Z</time></trkpt><trkpt lat="24.861268296981336" lon="121.22174481622683"><ele>235.0</ele><time>2026-03-22T11:40:00Z</time></trkpt><trkpt lat="24.861298906345382" lon="121.22187056044494"><ele>235.0</ele><time>2026-03-22T11:40:01Z</time></trkpt><trkpt lat="24.861328645416148" lon="121.22199706715156"><ele>235.0</ele><time>2026-03-22T11:40:02Z</time></trkpt><trkpt lat="24.86135766862474" lon="121.22212172559647"><ele>235.0</ele><time>2026-03-22T11:40:03Z</time></trkpt><trkpt lat="24.86138658321993" lon="121.22224452770105"><ele>235.0</ele><time>2026-03-22T11:40:04Z</time></trkpt><trkpt lat="24.861417034782438" lon="121.22236432944734"><ele>235.4</ele><time>2026-03-22T11:40:05Z</time></trkpt><trkpt lat="24.86144528033966" lon="121.22248308249755"><ele>235.8</ele><time>2026-03-22T11:40:06Z</time></trkpt><trkpt lat="24.86147292671534" lon="121.222599767901"><ele>236.2</ele><time>2026-03-22T11:40:07Z</time></trkpt><trkpt lat="24.86149914778177" lon="121.22271362173743"><ele>236.6</ele><time>2026-03-22T11:40:08Z</time></trkpt><trkpt lat="24.861524108671006" lon="121.2228244155219"><ele>237.0</ele><time>2026-03-22T11:40:09Z</time></trkpt><trkpt lat="24.86154776470838" lon="121.22292875806927"><ele>237.0</ele><time>2026-03-22T11:40:10Z</time></trkpt><trkpt lat="24.861569707445856" lon="121.22302411759887"><ele>237.0</ele><time>2026-03-22T11:40:11Z</time></trkpt><trkpt lat="24.8615896153032" lon="121.22311399548482"><ele>237.0</ele><time>2026-03-22T11:40:12Z</time></trkpt><trkpt lat="24.861611054111613" lon="121.22320087368351"><ele>237.0</ele><time>2026-03-22T11:40:13Z</time></trkpt><trkpt lat="24.861631729304683" lon="121.2232880215512"><ele>237.0</ele><time>2026-03-22T11:40:14Z</time></trkpt><trkpt lat="24.861650488132415" lon="121.22337131362039"><ele>237.0</ele><time>2026-03-22T11:40:15Z</time></trkpt><trkpt lat="24.861668367277236" lon="121.22345448348544"><ele>236.33333333333334</ele><time>2026-03-22T11:40:16Z</time></trkpt><trkpt lat="24.86168511205377" lon="121.22353629302883"><ele>235.66666666666669</ele><time>2026-03-22T11:40:17Z</time></trkpt><trkpt lat="24.861703854285167" lon="121.22361697503625"><ele>235.0</ele><time>2026-03-22T11:40:18Z</time></trkpt><trkpt lat="24.861722587586407" lon="121.22370244565762"><ele>234.33333333333334</ele><time>2026-03-22T11:40:19Z</time></trkpt><trkpt lat="24.86174341357664" lon="121.2237960896581"><ele>233.66666666666669</ele><time>2026-03-22T11:40:20Z</time></trkpt><trkpt lat="24.861765946964635" lon="121.22389138252491"><ele>233.0</ele><time>2026-03-22T11:40:21Z</time></trkpt><trkpt lat="24.861786548769963" lon="121.22398516073599"><ele>232.8</ele><time>2026-03-22T11:40:22Z</time></trkpt><trkpt lat="24.861809166418347" lon="121.2240800251104"><ele>232.60000000000002</ele><time>2026-03-22T11:40:23Z</time></trkpt><trkpt lat="24.861834630722665" lon="121.22417808346037"><ele>232.39999999999998</ele><time>2026-03-22T11:40:24Z</time></trkpt><trkpt lat="24.86185791121716" lon="121.22428084550339"><ele>232.2</ele><time>2026-03-22T11:40:25Z</time></trkpt><trkpt lat="24.86188026355388" lon="121.22438063925419"><ele>232.0</ele><time>2026-03-22T11:40:26Z</time></trkpt><trkpt lat="24.86190562473777" lon="121.22448371109776"><ele>232.0</ele><time>2026-03-22T11:40:27.001Z</time></trkpt><trkpt lat="24.86193273202112" lon="121.22459198249433"><ele>232.0</ele><time>2026-03-22T11:40:28.001Z</time></trkpt><trkpt lat="24.861961176181264" lon="121.22470836622828"><ele>232.0</ele><time>2026-03-22T11:40:29.001Z</time></trkpt><trkpt lat="24.86199103218617" lon="121.22483397732178"><ele>232.0</ele><time>2026-03-22T11:40:30.001Z</time></trkpt><trkpt lat="24.86202163600134" lon="121.22496695633619"><ele>232.0</ele><time>2026-03-22T11:40:31.001Z</time></trkpt><trkpt lat="24.862056336126074" lon="121.22510779501081"><ele>232.0</ele><time>2026-03-22T11:40:32.001Z</time></trkpt><trkpt lat="24.862091380551888" lon="121.22524855213447"><ele>232.0</ele><time>2026-03-22T11:40:33.001Z</time></trkpt><trkpt lat="24.862124392264278" lon="121.22538926983314"><ele>232.0</ele><time>2026-03-22T11:40:34.001Z</time></trkpt><trkpt lat="24.86215824324181" lon="121.22553460598901"><ele>232.0</ele><time>2026-03-22T11:40:35.001Z</time></trkpt><trkpt lat="24.862194850641462" lon="121.22568184045535"><ele>232.0</ele><time>2026-03-22T11:40:36.001Z</time></trkpt><trkpt lat="24.862230906156626" lon="121.22582651917138"><ele>232.0</ele><time>2026-03-22T11:40:37.001Z</time></trkpt><trkpt lat="24.862267588625514" lon="121.22597008637398"><ele>232.0</ele><time>2026-03-22T11:40:38.001Z</time></trkpt><trkpt lat="24.862302597622488" lon="121.22611193606565"><ele>232.0</ele><time>2026-03-22T11:40:39.001Z</time></trkpt><trkpt lat="24.862338731335136" lon="121.22625221442058"><ele>232.0</ele><time>2026-03-22T11:40:40.001Z</time></trkpt><trkpt lat="24.86237204844591" lon="121.22639100964868"><ele>232.0</ele><time>2026-03-22T11:40:41Z</time></trkpt><trkpt lat="24.862408083596407" lon="121.22652918074868"><ele>232.0</ele><time>2026-03-22T11:40:42Z</time></trkpt><trkpt lat="24.862442071601635" lon="121.22666511995006"><ele>231.25</ele><time>2026-03-22T11:40:43Z</time></trkpt><trkpt lat="24.86247645726834" lon="121.22680109221027"><ele>230.5</ele><time>2026-03-22T11:40:44Z</time></trkpt><trkpt lat="24.86251305000559" lon="121.22693573037729"><ele>229.75</ele><time>2026-03-22T11:40:45Z</time></trkpt><trkpt lat="24.862549881450363" lon="121.22706882083622"><ele>229.0</ele><time>2026-03-22T11:40:46Z</time></trkpt><trkpt lat="24.862585624950306" lon="121.22720164737083"><ele>229.25</ele><time>2026-03-22T11:40:47Z</time></trkpt><trkpt lat="24.86262152009317" lon="121.22733211121054"><ele>229.5</ele><time>2026-03-22T11:40:48Z</time></trkpt><trkpt lat="24.86265649270255" lon="121.22746289254026"><ele>229.75</ele><time>2026-03-22T11:40:49Z</time></trkpt><trkpt lat="24.86269308008968" lon="121.22759180712931"><ele>230.0</ele><time>2026-03-22T11:40:50Z</time></trkpt><trkpt lat="24.86272794152925" lon="121.22771740869781"><ele>230.0</ele><time>2026-03-22T11:40:51Z</time></trkpt><trkpt lat="24.8627635391265" lon="121.22784159163487"><ele>230.0</ele><time>2026-03-22T11:40:52Z</time></trkpt><trkpt lat="24.86279781644086" lon="121.22796284287088"><ele>230.0</ele><time>2026-03-22T11:40:53Z</time></trkpt><trkpt lat="24.862831274826338" lon="121.22808350496155"><ele>230.0</ele><time>2026-03-22T11:40:54Z</time></trkpt><trkpt lat="24.862865872383402" lon="121.2282018181718"><ele>230.4</ele><time>2026-03-22T11:40:55Z</time></trkpt><trkpt lat="24.862901034154895" lon="121.22831696013162"><ele>230.8</ele><time>2026-03-22T11:40:56Z</time></trkpt><trkpt lat="24.86293309064822" lon="121.22842342175991"><ele>231.2</ele><time>2026-03-22T11:40:57Z</time></trkpt><trkpt lat="24.862959834067233" lon="121.22851391289488"><ele>231.6</ele><time>2026-03-22T11:40:58Z</time></trkpt><trkpt lat="24.862989310673914" lon="121.22860940453359"><ele>232.0</ele><time>2026-03-22T11:40:59Z</time></trkpt><trkpt lat="24.863017817847307" lon="121.2287017610882"><ele>231.99999999999997</ele><time>2026-03-22T11:41:00Z</time></trkpt><trkpt lat="24.8630456896778" lon="121.22879377846947"><ele>232.0</ele><time>2026-03-22T11:41:01Z</time></trkpt><trkpt lat="24.863073430913385" lon="121.22888270669797"><ele>232.0</ele><time>2026-03-22T11:41:02Z</time></trkpt><trkpt lat="24.863100757559625" lon="121.22897128459098"><ele>232.0</ele><time>2026-03-22T11:41:03Z</time></trkpt><trkpt lat="24.863126887572584" lon="121.22905683770215"><ele>231.99999999999997</ele><time>2026-03-22T11:41:04Z</time></trkpt><trkpt lat="24.863153906328538" lon="121.22914370964438"><ele>232.0</ele><time>2026-03-22T11:41:05Z</time></trkpt><trkpt lat="24.863183809538164" lon="121.22923932953444"><ele>231.6</ele><time>2026-03-22T11:41:06Z</time></trkpt><trkpt lat="24.863218282380476" lon="121.22934192904094"><ele>231.2</ele><time>2026-03-22T11:41:07Z</time></trkpt><trkpt lat="24.86325462422881" lon="121.22945009935646"><ele>230.8</ele><time>2026-03-22T11:41:08Z</time></trkpt><trkpt lat="24.863290657860183" lon="121.22955498296018"><ele>230.4</ele><time>2026-03-22T11:41:09Z</time></trkpt><trkpt lat="24.8633255314919" lon="121.2296583346321"><ele>230.0</ele><time>2026-03-22T11:41:10Z</time></trkpt><trkpt lat="24.86336010526216" lon="121.22976032095454"><ele>229.8</ele><time>2026-03-22T11:41:11Z</time></trkpt><trkpt lat="24.86339288005932" lon="121.22986250628156"><ele>229.6</ele><time>2026-03-22T11:41:12Z</time></trkpt><trkpt lat="24.863427310878283" lon="121.22996193591433"><ele>229.39999999999998</ele><time>2026-03-22T11:41:13Z</time></trkpt><trkpt lat="24.863461722210015" lon="121.23006166513424"><ele>229.2</ele><time>2026-03-22T11:41:14Z</time></trkpt><trkpt lat="24.86349810459772" lon="121.23016456227202"><ele>229.0</ele><time>2026-03-22T11:41:15Z</time></trkpt><trkpt lat="24.86353519829475" lon="121.23026803276555"><ele>228.6</ele><time>2026-03-22T11:41:16Z</time></trkpt><trkpt lat="24.86357173239681" lon="121.23036828595285"><ele>228.2</ele><time>2026-03-22T11:41:17Z</time></trkpt><trkpt lat="24.86360951806498" lon="121.23046151548404"><ele>227.79999999999998</ele><time>2026-03-22T11:41:18Z</time></trkpt><trkpt lat="24.863645069318085" lon="121.2305614399313"><ele>227.39999999999998</ele><time>2026-03-22T11:41:19Z</time></trkpt><trkpt lat="24.86368313671187" lon="121.2306584862827"><ele>227.0</ele><time>2026-03-22T11:41:20Z</time></trkpt><trkpt lat="24.863719253476773" lon="121.23075493925641"><ele>227.8</ele><time>2026-03-22T11:41:21Z</time></trkpt><trkpt lat="24.863755956687392" lon="121.23084958930552"><ele>228.6</ele><time>2026-03-22T11:41:22Z</time></trkpt><trkpt lat="24.86379176457156" lon="121.23094164446266"><ele>229.40000000000003</ele><time>2026-03-22T11:41:23Z</time></trkpt><trkpt lat="24.86382709748975" lon="121.2310330505479"><ele>230.20000000000002</ele><time>2026-03-22T11:41:24Z</time></trkpt><trkpt lat="24.86386178531844" lon="121.23112093538705"><ele>231.0</ele><time>2026-03-22T11:41:25Z</time></trkpt><trkpt lat="24.86389682988917" lon="121.23121016404619"><ele>231.0</ele><time>2026-03-22T11:41:26Z</time></trkpt><trkpt lat="24.863932809389393" lon="121.23130079303805"><ele>231.00000000000003</ele><time>2026-03-22T11:41:27Z</time></trkpt><trkpt lat="24.86397421504524" lon="121.23140015726594"><ele>231.00000000000003</ele><time>2026-03-22T11:41:28Z</time></trkpt><trkpt lat="24.864019688269128" lon="121.23150888231075"><ele>231.0</ele><time>2026-03-22T11:41:29Z</time></trkpt><trkpt lat="24.864064757421442" lon="121.23161313728102"><ele>231.0</ele><time>2026-03-22T11:41:30Z</time></trkpt><trkpt lat="24.86411121835858" lon="121.23172002547926"><ele>231.0</ele><time>2026-03-22T11:41:31Z</time></trkpt><trkpt lat="24.864160094142488" lon="121.2318312881563"><ele>231.0</ele><time>2026-03-22T11:41:32Z</time></trkpt><trkpt lat="24.864211106320834" lon="121.23194637738384"><ele>231.0</ele><time>2026-03-22T11:41:33Z</time></trkpt><trkpt lat="24.86426320901015" lon="121.2320651146891"><ele>231.0</ele><time>2026-03-22T11:41:34Z</time></trkpt><trkpt lat="24.864318161740666" lon="121.23218616909601"><ele>230.75</ele><time>2026-03-22T11:41:35Z</time></trkpt><trkpt lat="24.864373513257014" lon="121.23230440374927"><ele>230.5</ele><time>2026-03-22T11:41:36Z</time></trkpt><trkpt lat="24.864429580038824" lon="121.23241776209032"><ele>230.25</ele><time>2026-03-22T11:41:37Z</time></trkpt><trkpt lat="24.864480883172266" lon="121.23253003252246"><ele>230.0</ele><time>2026-03-22T11:41:38Z</time></trkpt><trkpt lat="24.864533365421856" lon="121.23264049285578"><ele>230.0</ele><time>2026-03-22T11:41:39Z</time></trkpt><trkpt lat="24.86458491805393" lon="121.23275246882946"><ele>230.0</ele><time>2026-03-22T11:41:40Z</time></trkpt><trkpt lat="24.864637701211123" lon="121.23285958623997"><ele>230.0</ele><time>2026-03-22T11:41:41Z</time></trkpt><trkpt lat="24.86469130418736" lon="121.23296304074904"><ele>230.0</ele><time>2026-03-22T11:41:42Z</time></trkpt><trkpt lat="24.86474276402739" lon="121.23306304760551"><ele>230.0</ele><time>2026-03-22T11:41:43Z</time></trkpt><trkpt lat="24.86479667043975" lon="121.23316750799155"><ele>229.6</ele><time>2026-03-22T11:41:44Z</time></trkpt><trkpt lat="24.86485013278024" lon="121.23326887022418"><ele>229.2</ele><time>2026-03-22T11:41:45Z</time></trkpt><trkpt lat="24.864901171961293" lon="121.23336441919989"><ele>228.8</ele><time>2026-03-22T11:41:46Z</time></trkpt><trkpt lat="24.86495360603887" lon="121.23346085181497"><ele>228.4</ele><time>2026-03-22T11:41:47Z</time></trkpt><trkpt lat="24.865009016991426" lon="121.23355916112052"><ele>228.0</ele><time>2026-03-22T11:41:48Z</time></trkpt><trkpt lat="24.865066433508908" lon="121.2336629594207"><ele>227.75</ele><time>2026-03-22T11:41:49Z</time></trkpt><trkpt lat="24.865127128095253" lon="121.23376901107783"><ele>227.5</ele><time>2026-03-22T11:41:50Z</time></trkpt><trkpt lat="24.865188902372132" lon="121.23387985888489"><ele>227.25</ele><time>2026-03-22T11:41:51Z</time></trkpt><trkpt lat="24.865248507007802" lon="121.23398833748834"><ele>227.0</ele><time>2026-03-22T11:41:52Z</time></trkpt><trkpt lat="24.865309051555993" lon="121.23409468558762"><ele>226.39999999999998</ele><time>2026-03-22T11:41:53Z</time></trkpt><trkpt lat="24.86536916392397" lon="121.23419889246776"><ele>225.79999999999998</ele><time>2026-03-22T11:41:54Z</time></trkpt><trkpt lat="24.86542785005611" lon="121.23429811614217"><ele>225.2</ele><time>2026-03-22T11:41:55Z</time></trkpt><trkpt lat="24.865479884292544" lon="121.23438306559669"><ele>224.6</ele><time>2026-03-22T11:41:56Z</time></trkpt><trkpt lat="24.865527187742554" lon="121.23445627579534"><ele>224.0</ele><time>2026-03-22T11:41:57Z</time></trkpt><trkpt lat="24.86556531795265" lon="121.2345198656952"><ele>224.0</ele><time>2026-03-22T11:41:58Z</time></trkpt><trkpt lat="24.86563260445531" lon="121.23462765952101"><ele>223.99999999999997</ele><time>2026-03-22T11:42:00Z</time></trkpt><trkpt lat="24.865689110012415" lon="121.23472069567568"><ele>223.99999999999997</ele><time>2026-03-22T11:42:02Z</time></trkpt><trkpt lat="24.865753768079365" lon="121.23481930700788"><ele>224.0</ele><time>2026-03-22T11:42:04Z</time></trkpt><trkpt lat="24.865793773452427" lon="121.23488054849597"><ele>224.0</ele><time>2026-03-22T11:42:05Z</time></trkpt><trkpt lat="24.865841100225012" lon="121.23495555657031"><ele>224.0</ele><time>2026-03-22T11:42:06Z</time></trkpt><trkpt lat="24.865894631963776" lon="121.23503706572512"><ele>223.99999999999997</ele><time>2026-03-22T11:42:07Z</time></trkpt><trkpt lat="24.865954853150555" lon="121.2351248075654"><ele>223.99999999999997</ele><time>2026-03-22T11:42:08Z</time></trkpt><trkpt lat="24.866015239449354" lon="121.23521481981616"><ele>224.0</ele><time>2026-03-22T11:42:09Z</time></trkpt><trkpt lat="24.86607442839837" lon="121.23530067797037"><ele>224.0</ele><time>2026-03-22T11:42:10Z</time></trkpt><trkpt lat="24.866136985351478" lon="121.2353948435313"><ele>224.6</ele><time>2026-03-22T11:42:11Z</time></trkpt><trkpt lat="24.866202033230596" lon="121.2354932393186"><ele>225.2</ele><time>2026-03-22T11:42:12Z</time></trkpt><trkpt lat="24.86626999336272" lon="121.23559121281284"><ele>225.79999999999998</ele><time>2026-03-22T11:42:13Z</time></trkpt><trkpt lat="24.866336821384596" lon="121.23568578356786"><ele>226.39999999999998</ele><time>2026-03-22T11:42:14Z</time></trkpt><trkpt lat="24.86640411463121" lon="121.23578131503628"><ele>227.0</ele><time>2026-03-22T11:42:15Z</time></trkpt><trkpt lat="24.866472598295076" lon="121.23587716051077"><ele>227.0</ele><time>2026-03-22T11:42:16Z</time></trkpt><trkpt lat="24.866541815859968" lon="121.23597355167675"><ele>227.0</ele><time>2026-03-22T11:42:17.001Z</time></trkpt><trkpt lat="24.86661352734462" lon="121.23606903568904"><ele>227.0</ele><time>2026-03-22T11:42:18.001Z</time></trkpt><trkpt lat="24.866684188150394" lon="121.23616522511317"><ele>227.0</ele><time>2026-03-22T11:42:19.001Z</time></trkpt><trkpt lat="24.86675323276139" lon="121.23625573161024"><ele>227.0</ele><time>2026-03-22T11:42:20.001Z</time></trkpt><trkpt lat="24.866821495751847" lon="121.23634284213549"><ele>226.8</ele><time>2026-03-22T11:42:21.001Z</time></trkpt><trkpt lat="24.86689257270581" lon="121.23643657252757"><ele>226.6</ele><time>2026-03-22T11:42:22.001Z</time></trkpt><trkpt lat="24.86696207950141" lon="121.23652494202423"><ele>226.40000000000003</ele><time>2026-03-22T11:42:23.001Z</time></trkpt><trkpt lat="24.86702999547856" lon="121.23660999498395"><ele>226.20000000000002</ele><time>2026-03-22T11:42:24.001Z</time></trkpt><trkpt lat="24.867098200597887" lon="121.2366959046299"><ele>226.0</ele><time>2026-03-22T11:42:25.001Z</time></trkpt><trkpt lat="24.867164874711854" lon="121.23677824701689"><ele>226.0</ele><time>2026-03-22T11:42:26.001Z</time></trkpt><trkpt lat="24.867230293726564" lon="121.23686087705136"><ele>226.00000000000003</ele><time>2026-03-22T11:42:27.001Z</time></trkpt><trkpt lat="24.867295425735" lon="121.23694162084031"><ele>226.00000000000003</ele><time>2026-03-22T11:42:28.001Z</time></trkpt><trkpt lat="24.867359968352186" lon="121.23702124082098"><ele>226.0</ele><time>2026-03-22T11:42:29.001Z</time></trkpt><trkpt lat="24.867425204761624" lon="121.2371012296611"><ele>226.0</ele><time>2026-03-22T11:42:30.001Z</time></trkpt><trkpt lat="24.86749393628128" lon="121.2371795197419"><ele>226.0</ele><time>2026-03-22T11:42:31.001Z</time></trkpt><trkpt lat="24.867566170198256" lon="121.23726287978367"><ele>226.00000000000003</ele><time>2026-03-22T11:42:32.001Z</time></trkpt><trkpt lat="24.867632691841383" lon="121.23734329046357"><ele>226.00000000000003</ele><time>2026-03-22T11:42:33.001Z</time></trkpt><trkpt lat="24.867704179999418" lon="121.23742941218035"><ele>226.0</ele><time>2026-03-22T11:42:34.001Z</time></trkpt><trkpt lat="24.867781333538904" lon="121.23751777593567"><ele>226.0</ele><time>2026-03-22T11:42:35.001Z</time></trkpt><trkpt lat="24.867860580380103" lon="121.23760502867536"><ele>226.20000000000002</ele><time>2026-03-22T11:42:36.001Z</time></trkpt><trkpt lat="24.867934006915558" lon="121.23768986200743"><ele>226.40000000000003</ele><time>2026-03-22T11:42:37.001Z</time></trkpt><trkpt lat="24.868006354365622" lon="121.23777541332817"><ele>226.6</ele><time>2026-03-22T11:42:38.001Z</time></trkpt><trkpt lat="24.868081451534962" lon="121.23785901895224"><ele>226.8</ele><time>2026-03-22T11:42:39.001Z</time></trkpt><trkpt lat="24.868154617770568" lon="121.237938314621"><ele>227.0</ele><time>2026-03-22T11:42:40.001Z</time></trkpt><trkpt lat="24.868226891759463" lon="121.23802306937989"><ele>227.00000000000003</ele><time>2026-03-22T11:42:41.001Z</time></trkpt><trkpt lat="24.86829653849459" lon="121.23809626230052"><ele>227.0</ele><time>2026-03-22T11:42:42.001Z</time></trkpt><trkpt lat="24.868357468831572" lon="121.2381619702292"><ele>227.0</ele><time>2026-03-22T11:42:43.001Z</time></trkpt><trkpt lat="24.868415083998556" lon="121.23822215078197"><ele>227.0</ele><time>2026-03-22T11:42:44.001Z</time></trkpt><trkpt lat="24.868468334234613" lon="121.23827958545722"><ele>227.00000000000003</ele><time>2026-03-22T11:42:45.001Z</time></trkpt><trkpt lat="24.868526039867103" lon="121.23834572836502"><ele>227.0</ele><time>2026-03-22T11:42:46.001Z</time></trkpt><trkpt lat="24.868584335927768" lon="121.23841312720343"><ele>226.83333333333334</ele><time>2026-03-22T11:42:47Z</time></trkpt><trkpt lat="24.86863665003672" lon="121.23848015391927"><ele>226.66666666666669</ele><time>2026-03-22T11:42:48Z</time></trkpt><trkpt lat="24.868706780936876" lon="121.23854036058437"><ele>226.5</ele><time>2026-03-22T11:42:49Z</time></trkpt><trkpt lat="24.868787951733484" lon="121.2386234124074"><ele>226.33333333333331</ele><time>2026-03-22T11:42:51Z</time></trkpt><trkpt lat="24.868855342916998" lon="121.23868084488473"><ele>226.16666666666666</ele><time>2026-03-22T11:42:53Z</time></trkpt><trkpt lat="24.86891122660798" lon="121.23873924894122"><ele>226.0</ele><time>2026-03-22T11:42:55Z</time></trkpt><trkpt lat="24.868981027961727" lon="121.2387996840229"><ele>225.99999999999997</ele><time>2026-03-22T11:42:57Z</time></trkpt><trkpt lat="24.86905240505888" lon="121.238869634297"><ele>226.0</ele><time>2026-03-22T11:42:59Z</time></trkpt><trkpt lat="24.86911906273706" lon="121.23893324620457"><ele>226.0</ele><time>2026-03-22T11:43:01Z</time></trkpt><trkpt lat="24.869184666074364" lon="121.23899844234758"><ele>226.0</ele><time>2026-03-22T11:43:03Z</time></trkpt><trkpt lat="24.8692492789476" lon="121.23905748165701"><ele>225.99999999999997</ele><time>2026-03-22T11:43:05Z</time></trkpt><trkpt lat="24.86930537255449" lon="121.23911434926379"><ele>226.0</ele><time>2026-03-22T11:43:07Z</time></trkpt><trkpt lat="24.869357600820482" lon="121.23916474361161"><ele>225.57142857142858</ele><time>2026-03-22T11:43:09Z</time></trkpt><trkpt lat="24.869404736942684" lon="121.23921420815734"><ele>225.14285714285714</ele><time>2026-03-22T11:43:11Z</time></trkpt><trkpt lat="24.869450718980406" lon="121.23926266068759"><ele>224.71428571428572</ele><time>2026-03-22T11:43:13Z</time></trkpt><trkpt lat="24.869502502846846" lon="121.2393138189825"><ele>224.28571428571428</ele><time>2026-03-22T11:43:17Z</time></trkpt><trkpt lat="24.86954914303518" lon="121.2393606010673"><ele>223.85714285714283</ele><time>2026-03-22T11:43:22Z</time></trkpt><trkpt lat="24.869604956639908" lon="121.23941176434167"><ele>223.42857142857142</ele><time>2026-03-22T11:43:27Z</time></trkpt><trkpt lat="24.86966011582689" lon="121.23946758619383"><ele>223.0</ele><time>2026-03-22T11:43:30Z</time></trkpt><trkpt lat="24.86971724019029" lon="121.2395197600154"><ele>222.99999999999997</ele><time>2026-03-22T11:43:33Z</time></trkpt><trkpt lat="24.869785647959958" lon="121.23958526163848"><ele>223.0</ele><time>2026-03-22T11:43:36Z</time></trkpt><trkpt lat="24.869841510526822" lon="121.23963900798394"><ele>223.0</ele><time>2026-03-22T11:43:38Z</time></trkpt><trkpt lat="24.869894263131332" lon="121.23968654724447"><ele>223.0</ele><time>2026-03-22T11:43:40Z</time></trkpt><trkpt lat="24.869959590252613" lon="121.23974712096367"><ele>222.99999999999997</ele><time>2026-03-22T11:43:43Z</time></trkpt><trkpt lat="24.870020696527643" lon="121.23980404904341"><ele>223.0</ele><time>2026-03-22T11:43:46Z</time></trkpt><trkpt lat="24.87007196859059" lon="121.23985194927697"><ele>222.8</ele><time>2026-03-22T11:43:48Z</time></trkpt><trkpt lat="24.870130537573726" lon="121.23990615291669"><ele>222.60000000000002</ele><time>2026-03-22T11:43:50Z</time></trkpt><trkpt lat="24.87020886882581" lon="121.23997932789311"><ele>222.39999999999998</ele><time>2026-03-22T11:43:52Z</time></trkpt><trkpt lat="24.870287341965128" lon="121.24005357467162"><ele>222.2</ele><time>2026-03-22T11:43:54Z</time></trkpt><trkpt lat="24.870361500015946" lon="121.24012397945937"><ele>222.0</ele><time>2026-03-22T11:43:56Z</time></trkpt><trkpt lat="24.87043541589982" lon="121.24019379928752"><ele>222.0</ele><time>2026-03-22T11:43:58Z</time></trkpt><trkpt lat="24.870508524739492" lon="121.24026059031983"><ele>222.0</ele><time>2026-03-22T11:44:00Z</time></trkpt><trkpt lat="24.870578409191584" lon="121.24032514440701"><ele>222.0</ele><time>2026-03-22T11:44:02Z</time></trkpt><trkpt lat="24.87064991901841" lon="121.24038777875293"><ele>222.0</ele><time>2026-03-22T11:44:04Z</time></trkpt><trkpt lat="24.870722182985514" lon="121.24045251852702"><ele>222.0</ele><time>2026-03-22T11:44:06Z</time></trkpt><trkpt lat="24.870797300130377" lon="121.24051463767385"><ele>222.0</ele><time>2026-03-22T11:44:08Z</time></trkpt><trkpt lat="24.870883062570577" lon="121.24059460155317"><ele>222.0</ele><time>2026-03-22T11:44:10.001Z</time></trkpt><trkpt lat="24.87097167715023" lon="121.2406768969619"><ele>222.0</ele><time>2026-03-22T11:44:12.001Z</time></trkpt><trkpt lat="24.87106397272722" lon="121.24076144915851"><ele>222.0</ele><time>2026-03-22T11:44:14.001Z</time></trkpt><trkpt lat="24.8711586976798" lon="121.2408476304375"><ele>222.14285714285714</ele><time>2026-03-22T11:44:16.001Z</time></trkpt><trkpt lat="24.871207434365424" lon="121.24089316943274"><ele>222.2857142857143</ele><time>2026-03-22T11:44:17.001Z</time></trkpt><trkpt lat="24.87125959313901" lon="121.2409398218141"><ele>222.42857142857144</ele><time>2026-03-22T11:44:18.001Z</time></trkpt><trkpt lat="24.871311378777285" lon="121.2409877736266"><ele>222.57142857142856</ele><time>2026-03-22T11:44:19.001Z</time></trkpt><trkpt lat="24.87136552346353" lon="121.2410346875591"><ele>222.71428571428572</ele><time>2026-03-22T11:44:20.001Z</time></trkpt><trkpt lat="24.871417139790523" lon="121.24108484672793"><ele>222.85714285714286</ele><time>2026-03-22T11:44:21.001Z</time></trkpt><trkpt lat="24.871471111135175" lon="121.24113531084107"><ele>223.0</ele><time>2026-03-22T11:44:22.001Z</time></trkpt><trkpt lat="24.87152702115013" lon="121.24118729159633"><ele>222.99999999999997</ele><time>2026-03-22T11:44:23.001Z</time></trkpt><trkpt lat="24.871584220432556" lon="121.24123884145676"><ele>223.0</ele><time>2026-03-22T11:44:24.001Z</time></trkpt><trkpt lat="24.871645687659523" lon="121.24128913317567"><ele>223.0</ele><time>2026-03-22T11:44:25.001Z</time></trkpt><trkpt lat="24.871699949989996" lon="121.24133881477296"><ele>223.0</ele><time>2026-03-22T11:44:26.001Z</time></trkpt><trkpt lat="24.87175192183753" lon="121.24138845500045"><ele>222.99999999999997</ele><time>2026-03-22T11:44:27.001Z</time></trkpt><trkpt lat="24.87180452642959" lon="121.24143842182302"><ele>223.0</ele><time>2026-03-22T11:44:28.001Z</time></trkpt><trkpt lat="24.871907018684382" lon="121.24153197338106"><ele>223.0</ele><time>2026-03-22T11:44:30.001Z</time></trkpt><trkpt lat="24.872003901611947" lon="121.2416190827092"><ele>223.0</ele><time>2026-03-22T11:44:32.001Z</time></trkpt><trkpt lat="24.872098658634457" lon="121.24170423014392"><ele>223.0</ele><time>2026-03-22T11:44:34.001Z</time></trkpt><trkpt lat="24.872182582053835" lon="121.24178017454928"><ele>223.0</ele><time>2026-03-22T11:44:36.001Z</time></trkpt><trkpt lat="24.872263847131045" lon="121.2418528570359"><ele>223.0</ele><time>2026-03-22T11:44:38.001Z</time></trkpt><trkpt lat="24.87234211156643" lon="121.24192045901916"><ele>223.0</ele><time>2026-03-22T11:44:40.001Z</time></trkpt><trkpt lat="24.872423946930144" lon="121.24199522585653"><ele>223.0</ele><time>2026-03-22T11:44:42.001Z</time></trkpt><trkpt lat="24.87250818877397" lon="121.242067946635"><ele>223.0</ele><time>2026-03-22T11:44:44.001Z</time></trkpt><trkpt lat="24.87258613720087" lon="121.24214255381895"><ele>223.0</ele><time>2026-03-22T11:44:46.001Z</time></trkpt><trkpt lat="24.87265861910271" lon="121.24220561520801"><ele>222.66666666666666</ele><time>2026-03-22T11:44:48.001Z</time></trkpt><trkpt lat="24.872722798950807" lon="121.24226854603168"><ele>222.33333333333331</ele><time>2026-03-22T11:44:50.001Z</time></trkpt><trkpt lat="24.872783810560712" lon="121.24232695478499"><ele>222.0</ele><time>2026-03-22T11:44:52.001Z</time></trkpt><trkpt lat="24.872848249575295" lon="121.24239130762659"><ele>221.66666666666669</ele><time>2026-03-22T11:44:54Z</time></trkpt><trkpt lat="24.87290746182642" lon="121.24245040000717"><ele>221.33333333333334</ele><time>2026-03-22T11:44:56Z</time></trkpt><trkpt lat="24.872963487305235" lon="121.24250479911123"><ele>221.0</ele><time>2026-03-22T11:44:58Z</time></trkpt><trkpt lat="24.873016537730503" lon="121.24255403519807"><ele>221.00000000000003</ele><time>2026-03-22T11:45:00Z</time></trkpt><trkpt lat="24.873074265897785" lon="121.24260456520007"><ele>221.0</ele><time>2026-03-22T11:45:02Z</time></trkpt><trkpt lat="24.873133938607534" lon="121.2426578798028"><ele>221.0</ele><time>2026-03-22T11:45:04Z</time></trkpt><trkpt lat="24.873197996834698" lon="121.24271775649042"><ele>221.0</ele><time>2026-03-22T11:45:06Z</time></trkpt><trkpt lat="24.873265106796882" lon="121.2427839777905"><ele>221.00000000000003</ele><time>2026-03-22T11:45:08Z</time></trkpt><trkpt lat="24.873338206738882" lon="121.2428525710117"><ele>221.0</ele><time>2026-03-22T11:45:10Z</time></trkpt><trkpt lat="24.87341006153611" lon="121.2429262699196"><ele>221.20000000000002</ele><time>2026-03-22T11:45:12Z</time></trkpt><trkpt lat="24.873486333431785" lon="121.243005699541"><ele>221.40000000000003</ele><time>2026-03-22T11:45:14Z</time></trkpt><trkpt lat="24.873558128183827" lon="121.24307951422516"><ele>221.6</ele><time>2026-03-22T11:45:16Z</time></trkpt><trkpt lat="24.873627585028515" lon="121.24315140202239"><ele>221.8</ele><time>2026-03-22T11:45:18Z</time></trkpt><trkpt lat="24.873699424817264" lon="121.24322022911275"><ele>222.0</ele><time>2026-03-22T11:45:20Z</time></trkpt><trkpt lat="24.87376842802303" lon="121.24328573712383"><ele>222.0</ele><time>2026-03-22T11:45:22Z</time></trkpt><trkpt lat="24.873837575475882" lon="121.24335251716995"><ele>222.0</ele><time>2026-03-22T11:45:24Z</time></trkpt><trkpt lat="24.873914221408597" lon="121.24342719160066"><ele>222.0</ele><time>2026-03-22T11:45:26Z</time></trkpt><trkpt lat="24.873998416500434" lon="121.24351332437527"><ele>222.0</ele><time>2026-03-22T11:45:28Z</time></trkpt><trkpt lat="24.874079751132484" lon="121.2435921577264"><ele>222.0</ele><time>2026-03-22T11:45:30Z</time></trkpt><trkpt lat="24.874156163651488" lon="121.2436650813778"><ele>222.0</ele><time>2026-03-22T11:45:32Z</time></trkpt><trkpt lat="24.874242133505096" lon="121.24375004415046"><ele>222.0</ele><time>2026-03-22T11:45:34Z</time></trkpt><trkpt lat="24.87428851184339" lon="121.24379855340801"><ele>222.0</ele><time>2026-03-22T11:45:35Z</time></trkpt><trkpt lat="24.874335779468577" lon="121.24384799809795"><ele>222.0</ele><time>2026-03-22T11:45:36Z</time></trkpt><trkpt lat="24.874381949355666" lon="121.2438963086409"><ele>222.0</ele><time>2026-03-22T11:45:37Z</time></trkpt><trkpt lat="24.874473598596555" lon="121.24398865817193"><ele>222.0</ele><time>2026-03-22T11:45:39Z</time></trkpt><trkpt lat="24.874560404849387" lon="121.244082424278"><ele>220.39999999999998</ele><time>2026-03-22T11:45:41Z</time></trkpt><trkpt lat="24.874648057110107" lon="121.24418150179602"><ele>218.79999999999998</ele><time>2026-03-22T11:45:43Z</time></trkpt><trkpt lat="24.874735543069704" lon="121.24427689804425"><ele>217.2</ele><time>2026-03-22T11:45:45Z</time></trkpt><trkpt lat="24.87482395131594" lon="121.24437327427796"><ele>215.6</ele><time>2026-03-22T11:45:47Z</time></trkpt><trkpt lat="24.874873250334836" lon="121.24442757025146"><ele>214.0</ele><time>2026-03-22T11:45:48Z</time></trkpt><trkpt lat="24.87492166432807" lon="121.24448493226852"><ele>213.99999999999997</ele><time>2026-03-22T11:45:49Z</time></trkpt><trkpt lat="24.874970877652142" lon="121.24454408206876"><ele>214.0</ele><time>2026-03-22T11:45:50Z</time></trkpt><trkpt lat="24.875023168182988" lon="121.24460417498396"><ele>214.0</ele><time>2026-03-22T11:45:51Z</time></trkpt><trkpt lat="24.875075990400763" lon="121.24466847377965"><ele>214.0</ele><time>2026-03-22T11:45:52Z</time></trkpt><trkpt lat="24.875129779462764" lon="121.24473248154554"><ele>213.99999999999997</ele><time>2026-03-22T11:45:53.001Z</time></trkpt><trkpt lat="24.875186144317137" lon="121.2447999215254"><ele>214.0</ele><time>2026-03-22T11:45:54.001Z</time></trkpt><trkpt lat="24.875242003194828" lon="121.2448671098574"><ele>214.33333333333331</ele><time>2026-03-22T11:45:55.001Z</time></trkpt><trkpt lat="24.875298385098684" lon="121.24493445727708"><ele>214.66666666666666</ele><time>2026-03-22T11:45:56.001Z</time></trkpt><trkpt lat="24.87535310518036" lon="121.24500309499963"><ele>215.0</ele><time>2026-03-22T11:45:57.001Z</time></trkpt><trkpt lat="24.87540774460081" lon="121.24507092182719"><ele>215.33333333333331</ele><time>2026-03-22T11:45:58.001Z</time></trkpt><trkpt lat="24.87546298541087" lon="121.24513857437559"><ele>215.66666666666666</ele><time>2026-03-22T11:45:59.001Z</time></trkpt><trkpt lat="24.875518245381723" lon="121.24520740274129"><ele>216.0</ele><time>2026-03-22T11:46:00.001Z</time></trkpt><trkpt lat="24.875572254996822" lon="121.24527614453561"><ele>216.0</ele><time>2026-03-22T11:46:01.001Z</time></trkpt><trkpt lat="24.875626092299083" lon="121.24534697865653"><ele>216.0</ele><time>2026-03-22T11:46:02.001Z</time></trkpt><trkpt lat="24.875679882746102" lon="121.24541843303905"><ele>216.0</ele><time>2026-03-22T11:46:03.001Z</time></trkpt><trkpt lat="24.87573468850504" lon="121.24548695488714"><ele>216.0</ele><time>2026-03-22T11:46:04.001Z</time></trkpt><trkpt lat="24.875788775080952" lon="121.24555758311493"><ele>216.0</ele><time>2026-03-22T11:46:05.001Z</time></trkpt><trkpt lat="24.875842557791515" lon="121.24562790999384"><ele>216.0</ele><time>2026-03-22T11:46:06.001Z</time></trkpt><trkpt lat="24.875895726264314" lon="121.24569877876246"><ele>216.16666666666666</ele><time>2026-03-22T11:46:07.001Z</time></trkpt><trkpt lat="24.875948844285098" lon="121.24576973921513"><ele>216.33333333333331</ele><time>2026-03-22T11:46:08.001Z</time></trkpt><trkpt lat="24.876001198895036" lon="121.24584157670648"><ele>216.5</ele><time>2026-03-22T11:46:09.001Z</time></trkpt><trkpt lat="24.876052780761118" lon="121.24591412321297"><ele>216.66666666666666</ele><time>2026-03-22T11:46:10.001Z</time></trkpt><trkpt lat="24.87610343278609" lon="121.24598391199457"><ele>216.83333333333331</ele><time>2026-03-22T11:46:11.001Z</time></trkpt><trkpt lat="24.876152180825574" lon="121.24605195014796"><ele>217.0</ele><time>2026-03-22T11:46:12.001Z</time></trkpt><trkpt lat="24.876200868206567" lon="121.24612017869623"><ele>216.99999999999997</ele><time>2026-03-22T11:46:13.001Z</time></trkpt><trkpt lat="24.876248401888123" lon="121.246187390108"><ele>217.0</ele><time>2026-03-22T11:46:14.001Z</time></trkpt><trkpt lat="24.876291906558922" lon="121.2462523814394"><ele>217.0</ele><time>2026-03-22T11:46:15.001Z</time></trkpt><trkpt lat="24.876336427976053" lon="121.24631720066766"><ele>217.0</ele><time>2026-03-22T11:46:16.001Z</time></trkpt><trkpt lat="24.87637727170442" lon="121.24637856186811"><ele>216.99999999999997</ele><time>2026-03-22T11:46:17.001Z</time></trkpt><trkpt lat="24.876414631908602" lon="121.2464344710725"><ele>217.0</ele><time>2026-03-22T11:46:18.001Z</time></trkpt><trkpt lat="24.87648234425728" lon="121.24653826533194"><ele>216.49999999999997</ele><time>2026-03-22T11:46:20.001Z</time></trkpt><trkpt lat="24.876555937910293" lon="121.24665444035966"><ele>216.0</ele><time>2026-03-22T11:46:22.001Z</time></trkpt><trkpt lat="24.876595629914352" lon="121.24671583022648"><ele>215.5</ele><time>2026-03-22T11:46:23.001Z</time></trkpt><trkpt lat="24.876636815600115" lon="121.24678055657782"><ele>215.0</ele><time>2026-03-22T11:46:24.001Z</time></trkpt><trkpt lat="24.876677515199827" lon="121.24684407447094"><ele>214.49999999999997</ele><time>2026-03-22T11:46:25.001Z</time></trkpt><trkpt lat="24.876720492835247" lon="121.24691014078913"><ele>214.0</ele><time>2026-03-22T11:46:26.001Z</time></trkpt><trkpt lat="24.876762508064846" lon="121.24697922496576"><ele>214.14285714285717</ele><time>2026-03-22T11:46:27.001Z</time></trkpt><trkpt lat="24.876802122518782" lon="121.24704398082075"><ele>214.28571428571428</ele><time>2026-03-22T11:46:28.001Z</time></trkpt><trkpt lat="24.876845819265338" lon="121.24710682467195"><ele>214.42857142857144</ele><time>2026-03-22T11:46:29.001Z</time></trkpt><trkpt lat="24.876885351793504" lon="121.24718198395081"><ele>214.57142857142858</ele><time>2026-03-22T11:46:30.001Z</time></trkpt><trkpt lat="24.87692614679872" lon="121.24724542681341"><ele>214.71428571428572</ele><time>2026-03-22T11:46:31.001Z</time></trkpt><trkpt lat="24.876966364160126" lon="121.24731255987808"><ele>214.85714285714286</ele><time>2026-03-22T11:46:32.001Z</time></trkpt><trkpt lat="24.877006239178602" lon="121.24737786012643"><ele>215.0</ele><time>2026-03-22T11:46:33.001Z</time></trkpt><trkpt lat="24.877047632549125" lon="121.24744332022064"><ele>215.66666666666669</ele><time>2026-03-22T11:46:34.001Z</time></trkpt><trkpt lat="24.877092977501963" lon="121.24751659808422"><ele>216.33333333333334</ele><time>2026-03-22T11:46:35.001Z</time></trkpt><trkpt lat="24.877142525424258" lon="121.24758206727834"><ele>217.0</ele><time>2026-03-22T11:46:36.001Z</time></trkpt><trkpt lat="24.87717676829095" lon="121.24764555178432"><ele>217.66666666666669</ele><time>2026-03-22T11:46:37.001Z</time></trkpt><trkpt lat="24.877239439490122" lon="121.24777987330796"><ele>218.33333333333334</ele><time>2026-03-22T11:46:39.001Z</time></trkpt><trkpt lat="24.877276111461548" lon="121.24784584760168"><ele>219.0</ele><time>2026-03-22T11:46:40.001Z</time></trkpt><trkpt lat="24.877311170072748" lon="121.24793791599456"><ele>219.0</ele><time>2026-03-22T11:46:41.001Z</time></trkpt><trkpt lat="24.877352087923796" lon="121.24802383435352"><ele>219.0</ele><time>2026-03-22T11:46:42.001Z</time></trkpt><trkpt lat="24.877375527185794" lon="121.24810590491234"><ele>219.0</ele><time>2026-03-22T11:46:43.001Z</time></trkpt><trkpt lat="24.877411615029853" lon="121.24819219631614"><ele>219.0</ele><time>2026-03-22T11:46:44.001Z</time></trkpt><trkpt lat="24.877445973639688" lon="121.24827158963339"><ele>219.0</ele><time>2026-03-22T11:46:45.001Z</time></trkpt><trkpt lat="24.877486810768282" lon="121.24836577720095"><ele>219.0</ele><time>2026-03-22T11:46:46.001Z</time></trkpt><trkpt lat="24.877555614763498" lon="121.24846238387637"><ele>218.79999999999998</ele><time>2026-03-22T11:46:47.001Z</time></trkpt><trkpt lat="24.87761332493323" lon="121.24855127755073"><ele>218.59999999999997</ele><time>2026-03-22T11:46:48.001Z</time></trkpt><trkpt lat="24.87766556928291" lon="121.24865240479654"><ele>218.4</ele><time>2026-03-22T11:46:49.001Z</time></trkpt><trkpt lat="24.877715218942846" lon="121.24875313292395"><ele>218.2</ele><time>2026-03-22T11:46:50.001Z</time></trkpt><trkpt lat="24.877764416712484" lon="121.24884631341668"><ele>218.0</ele><time>2026-03-22T11:46:51.001Z</time></trkpt><trkpt lat="24.877815713198075" lon="121.24894492434014"><ele>217.33333333333334</ele><time>2026-03-22T11:46:52.001Z</time></trkpt><trkpt lat="24.877863671486704" lon="121.24903469735928"><ele>216.66666666666669</ele><time>2026-03-22T11:46:53.001Z</time></trkpt><trkpt lat="24.877906887593927" lon="121.24911940226892"><ele>216.0</ele><time>2026-03-22T11:46:54.001Z</time></trkpt><trkpt lat="24.877949572119732" lon="121.24920056155732"><ele>215.33333333333331</ele><time>2026-03-22T11:46:55.001Z</time></trkpt><trkpt lat="24.87799609214731" lon="121.24928446131361"><ele>214.66666666666666</ele><time>2026-03-22T11:46:56.001Z</time></trkpt><trkpt lat="24.878039773932873" lon="121.24937182241352"><ele>214.0</ele><time>2026-03-22T11:46:57.001Z</time></trkpt><trkpt lat="24.87808068349739" lon="121.24946015732621"><ele>214.0</ele><time>2026-03-22T11:46:58.001Z</time></trkpt><trkpt lat="24.878122272991554" lon="121.24954743002331"><ele>213.99999999999997</ele><time>2026-03-22T11:46:59Z</time></trkpt><trkpt lat="24.878162754824327" lon="121.24963468383693"><ele>213.99999999999997</ele><time>2026-03-22T11:47:00Z</time></trkpt><trkpt lat="24.87820840994307" lon="121.24973051801258"><ele>214.0</ele><time>2026-03-22T11:47:01Z</time></trkpt><trkpt lat="24.878254582203873" lon="121.249832824155"><ele>214.0</ele><time>2026-03-22T11:47:02Z</time></trkpt><trkpt lat="24.878300370200524" lon="121.24993593086413"><ele>213.2</ele><time>2026-03-22T11:47:03Z</time></trkpt><trkpt lat="24.878346109374487" lon="121.2500412421651"><ele>212.39999999999998</ele><time>2026-03-22T11:47:04Z</time></trkpt><trkpt lat="24.878394706445984" lon="121.2501468788051"><ele>211.6</ele><time>2026-03-22T11:47:05Z</time></trkpt><trkpt lat="24.878442722321513" lon="121.25025295965418"><ele>210.8</ele><time>2026-03-22T11:47:06Z</time></trkpt><trkpt lat="24.878494766546268" lon="121.25036278815989"><ele>210.0</ele><time>2026-03-22T11:47:07Z</time></trkpt><trkpt lat="24.878549283253047" lon="121.2504675111271"><ele>210.0</ele><time>2026-03-22T11:47:08Z</time></trkpt><trkpt lat="24.878596182280518" lon="121.2505902557383"><ele>210.0</ele><time>2026-03-22T11:47:09Z</time></trkpt><trkpt lat="24.878642158590246" lon="121.25070800505853"><ele>210.0</ele><time>2026-03-22T11:47:10Z</time></trkpt><trkpt lat="24.878689485321633" lon="121.25081555943477"><ele>210.0</ele><time>2026-03-22T11:47:11Z</time></trkpt><trkpt lat="24.878735886463325" lon="121.25091996170919"><ele>207.6</ele><time>2026-03-22T11:47:12Z</time></trkpt><trkpt lat="24.878782377120736" lon="121.25102357630095"><ele>205.2</ele><time>2026-03-22T11:47:13Z</time></trkpt><trkpt lat="24.878826713837288" lon="121.25112850228774"><ele>202.8</ele><time>2026-03-22T11:47:14Z</time></trkpt><trkpt lat="24.878869820930312" lon="121.2512369945254"><ele>200.4</ele><time>2026-03-22T11:47:15Z</time></trkpt><trkpt lat="24.87891289060665" lon="121.25133513479969"><ele>198.0</ele><time>2026-03-22T11:47:16Z</time></trkpt><trkpt lat="24.87895393293327" lon="121.25142984732813"><ele>196.83333333333334</ele><time>2026-03-22T11:47:17Z</time></trkpt><trkpt lat="24.878993358405136" lon="121.25152099647708"><ele>195.66666666666666</ele><time>2026-03-22T11:47:18Z</time></trkpt><trkpt lat="24.87903222537457" lon="121.25161229000447"><ele>194.5</ele><time>2026-03-22T11:47:19Z</time></trkpt><trkpt lat="24.879072692877028" lon="121.2516983491003"><ele>193.33333333333331</ele><time>2026-03-22T11:47:20Z</time></trkpt><trkpt lat="24.87911175110555" lon="121.25178080995985"><ele>192.16666666666666</ele><time>2026-03-22T11:47:21Z</time></trkpt><trkpt lat="24.8791485786561" lon="121.25186096561394"><ele>191.0</ele><time>2026-03-22T11:47:22Z</time></trkpt><trkpt lat="24.879184563314976" lon="121.25194062088178"><ele>191.0</ele><time>2026-03-22T11:47:23Z</time></trkpt><trkpt lat="24.879219391880664" lon="121.25202162046395"><ele>191.0</ele><time>2026-03-22T11:47:24Z</time></trkpt><trkpt lat="24.87925448909595" lon="121.25210156813787"><ele>191.0</ele><time>2026-03-22T11:47:25Z</time></trkpt><trkpt lat="24.8792892638413" lon="121.25217887086286"><ele>191.0</ele><time>2026-03-22T11:47:26Z</time></trkpt><trkpt lat="24.879318856249935" lon="121.25225245711178"><ele>191.0</ele><time>2026-03-22T11:47:27Z</time></trkpt><trkpt lat="24.87935264432732" lon="121.25232637893353"><ele>191.0</ele><time>2026-03-22T11:47:28Z</time></trkpt><trkpt lat="24.879382171407965" lon="121.25239738865022"><ele>191.16666666666666</ele><time>2026-03-22T11:47:29Z</time></trkpt><trkpt lat="24.87941358262784" lon="121.25246487881121"><ele>191.33333333333331</ele><time>2026-03-22T11:47:30Z</time></trkpt><trkpt lat="24.879439587807855" lon="121.25253075183798"><ele>191.5</ele><time>2026-03-22T11:47:31Z</time></trkpt><trkpt lat="24.879467446658058" lon="121.25259514323618"><ele>191.66666666666666</ele><time>2026-03-22T11:47:32Z</time></trkpt><trkpt lat="24.879493086600352" lon="121.25265999990931"><ele>191.83333333333334</ele><time>2026-03-22T11:47:33Z</time></trkpt><trkpt lat="24.879544088352837" lon="121.25278169930176"><ele>192.0</ele><time>2026-03-22T11:47:35Z</time></trkpt><trkpt lat="24.879595199338976" lon="121.2528960405173"><ele>192.0</ele><time>2026-03-22T11:47:37Z</time></trkpt><trkpt lat="24.87964442308475" lon="121.25300742910456"><ele>192.0</ele><time>2026-03-22T11:47:39Z</time></trkpt><trkpt lat="24.879696281112928" lon="121.2531193488489"><ele>192.0</ele><time>2026-03-22T11:47:41Z</time></trkpt><trkpt lat="24.87974968233035" lon="121.25323509108422"><ele>192.0</ele><time>2026-03-22T11:47:43Z</time></trkpt><trkpt lat="24.879798934429626" lon="121.25334961658332"><ele>191.6</ele><time>2026-03-22T11:47:45Z</time></trkpt><trkpt lat="24.87984928017391" lon="121.25345569398773"><ele>191.2</ele><time>2026-03-22T11:47:47Z</time></trkpt><trkpt lat="24.879895968954255" lon="121.25355813803463"><ele>190.8</ele><time>2026-03-22T11:47:49Z</time></trkpt><trkpt lat="24.879939887896537" lon="121.25365355198507"><ele>190.4</ele><time>2026-03-22T11:47:51Z</time></trkpt><trkpt lat="24.879983202818966" lon="121.25374582803153"><ele>190.0</ele><time>2026-03-22T11:47:53Z</time></trkpt><trkpt lat="24.880018453883267" lon="121.25382366156677"><ele>190.0</ele><time>2026-03-22T11:47:55Z</time></trkpt><trkpt lat="24.8800541883124" lon="121.25390421012438"><ele>190.0</ele><time>2026-03-22T11:47:58Z</time></trkpt><trkpt lat="24.88008722083527" lon="121.25396723258949"><ele>190.0</ele><time>2026-03-22T11:48:01Z</time></trkpt><trkpt lat="24.88011700016191" lon="121.25403119844158"><ele>190.0</ele><time>2026-03-22T11:48:04Z</time></trkpt><trkpt lat="24.88014567548281" lon="121.25409691555453"><ele>190.0</ele><time>2026-03-22T11:48:07.001Z</time></trkpt><trkpt lat="24.88018152533533" lon="121.25416296646819"><ele>190.0</ele><time>2026-03-22T11:48:10.001Z</time></trkpt><trkpt lat="24.880223384988902" lon="121.25423945144856"><ele>190.0</ele><time>2026-03-22T11:48:13.001Z</time></trkpt><trkpt lat="24.880268562221826" lon="121.25432863392489"><ele>190.28571428571428</ele><time>2026-03-22T11:48:16.001Z</time></trkpt><trkpt lat="24.88030045029776" lon="121.25439279435504"><ele>190.57142857142858</ele><time>2026-03-22T11:48:18.001Z</time></trkpt><trkpt lat="24.880332696879332" lon="121.25445628156842"><ele>190.85714285714283</ele><time>2026-03-22T11:48:20.001Z</time></trkpt><trkpt lat="24.880364424251045" lon="121.25451787964202"><ele>191.14285714285714</ele><time>2026-03-22T11:48:22.001Z</time></trkpt><trkpt lat="24.88039630734486" lon="121.254578676854"><ele>191.42857142857142</ele><time>2026-03-22T11:48:24.001Z</time></trkpt><trkpt lat="24.88044130645904" lon="121.25466620571517"><ele>191.7142857142857</ele><time>2026-03-22T11:48:27.001Z</time></trkpt><trkpt lat="24.880482744102466" lon="121.2547456135681"><ele>192.0</ele><time>2026-03-22T11:48:30.001Z</time></trkpt><trkpt lat="24.880515474949924" lon="121.25480724255115"><ele>192.0</ele><time>2026-03-22T11:48:32.001Z</time></trkpt><trkpt lat="24.880552672728356" lon="121.25487756337398"><ele>192.0</ele><time>2026-03-22T11:48:34.001Z</time></trkpt><trkpt lat="24.88059069257704" lon="121.2549502050261"><ele>192.0</ele><time>2026-03-22T11:48:36.001Z</time></trkpt><trkpt lat="24.88063237763526" lon="121.25502673559971"><ele>192.0</ele><time>2026-03-22T11:48:38.001Z</time></trkpt><trkpt lat="24.880677296059723" lon="121.25510783652491"><ele>192.0</ele><time>2026-03-22T11:48:40.001Z</time></trkpt><trkpt lat="24.880723750844425" lon="121.25519497371623"><ele>192.0</ele><time>2026-03-22T11:48:42.001Z</time></trkpt><trkpt lat="24.880767796810577" lon="121.25527678002148"><ele>192.0</ele><time>2026-03-22T11:48:44.001Z</time></trkpt><trkpt lat="24.880810672280283" lon="121.25535700314465"><ele>192.0</ele><time>2026-03-22T11:48:46.001Z</time></trkpt><trkpt lat="24.880857733847733" lon="121.2554419236525"><ele>192.0</ele><time>2026-03-22T11:48:48.001Z</time></trkpt><trkpt lat="24.880906692618726" lon="121.2555270534003"><ele>192.0</ele><time>2026-03-22T11:48:50.001Z</time></trkpt><trkpt lat="24.88095481664977" lon="121.25560933017812"><ele>192.0</ele><time>2026-03-22T11:48:52.001Z</time></trkpt><trkpt lat="24.881004851013092" lon="121.25569477011288"><ele>192.0</ele><time>2026-03-22T11:48:54.001Z</time></trkpt><trkpt lat="24.881065526972215" lon="121.25579996852251"><ele>191.6</ele><time>2026-03-22T11:48:56.001Z</time></trkpt><trkpt lat="24.881128004447255" lon="121.25590807277709"><ele>191.2</ele><time>2026-03-22T11:48:58.001Z</time></trkpt><trkpt lat="24.88119037247971" lon="121.25601564773498"><ele>190.8</ele><time>2026-03-22T11:49:00.001Z</time></trkpt><trkpt lat="24.881258396664094" lon="121.25612990021962"><ele>190.4</ele><time>2026-03-22T11:49:02.001Z</time></trkpt><trkpt lat="24.88129468933035" lon="121.25618784248823"><ele>190.0</ele><time>2026-03-22T11:49:03.001Z</time></trkpt><trkpt lat="24.881331934780192" lon="121.25624584403003"><ele>190.0</ele><time>2026-03-22T11:49:04.001Z</time></trkpt><trkpt lat="24.88136809854726" lon="121.25630357177262"><ele>190.0</ele><time>2026-03-22T11:49:05.001Z</time></trkpt><trkpt lat="24.88140606641296" lon="121.25636262942994"><ele>190.0</ele><time>2026-03-22T11:49:06.001Z</time></trkpt><trkpt lat="24.881443370193956" lon="121.25642086342908"><ele>190.0</ele><time>2026-03-22T11:49:07.001Z</time></trkpt><trkpt lat="24.881513848500887" lon="121.25653019701694"><ele>190.0</ele><time>2026-03-22T11:49:09.001Z</time></trkpt><trkpt lat="24.881581461717126" lon="121.25663161597154"><ele>190.0</ele><time>2026-03-22T11:49:11.001Z</time></trkpt><trkpt lat="24.88161855379846" lon="121.25668771409937"><ele>190.14285714285714</ele><time>2026-03-22T11:49:12.001Z</time></trkpt><trkpt lat="24.881657776926485" lon="121.25674624141496"><ele>190.28571428571428</ele><time>2026-03-22T11:49:13.001Z</time></trkpt><trkpt lat="24.88170297664832" lon="121.25681199091403"><ele>190.42857142857144</ele><time>2026-03-22T11:49:14.001Z</time></trkpt><trkpt lat="24.881747460872244" lon="121.25687672837599"><ele>190.57142857142856</ele><time>2026-03-22T11:49:15.001Z</time></trkpt><trkpt lat="24.88179350800528" lon="121.25694363138571"><ele>190.7142857142857</ele><time>2026-03-22T11:49:16.001Z</time></trkpt><trkpt lat="24.881841880022225" lon="121.25701255313167"><ele>190.85714285714286</ele><time>2026-03-22T11:49:17.001Z</time></trkpt><trkpt lat="24.881890527989665" lon="121.25708152447159"><ele>191.0</ele><time>2026-03-22T11:49:18.001Z</time></trkpt><trkpt lat="24.881941170995074" lon="121.2571537559736"><ele>191.0</ele><time>2026-03-22T11:49:19.001Z</time></trkpt><trkpt lat="24.88199194132157" lon="121.25722552968722"><ele>191.0</ele><time>2026-03-22T11:49:20.001Z</time></trkpt><trkpt lat="24.882043184219892" lon="121.25729697847179"><ele>191.0</ele><time>2026-03-22T11:49:21.001Z</time></trkpt><trkpt lat="24.882093743414693" lon="121.25736636884363"><ele>191.0</ele><time>2026-03-22T11:49:22.001Z</time></trkpt><trkpt lat="24.88214197802843" lon="121.25742983008882"><ele>191.0</ele><time>2026-03-22T11:49:23.001Z</time></trkpt><trkpt lat="24.88218558497184" lon="121.25748595309646"><ele>191.0</ele><time>2026-03-22T11:49:24.001Z</time></trkpt><trkpt lat="24.88222977717532" lon="121.25754479396805"><ele>191.0</ele><time>2026-03-22T11:49:25.001Z</time></trkpt><trkpt lat="24.882271943110702" lon="121.25760177258087"><ele>191.0</ele><time>2026-03-22T11:49:26.001Z</time></trkpt><trkpt lat="24.882313951463072" lon="121.25765899635391"><ele>191.0</ele><time>2026-03-22T11:49:27.001Z</time></trkpt><trkpt lat="24.88235943979418" lon="121.25771896572701"><ele>191.0</ele><time>2026-03-22T11:49:28.001Z</time></trkpt><trkpt lat="24.88240605526452" lon="121.25777916496762"><ele>191.0</ele><time>2026-03-22T11:49:29.001Z</time></trkpt><trkpt lat="24.882450989603356" lon="121.25783606932504"><ele>191.0</ele><time>2026-03-22T11:49:30Z</time></trkpt><trkpt lat="24.88249434821737" lon="121.25789091699828"><ele>191.0</ele><time>2026-03-22T11:49:31Z</time></trkpt><trkpt lat="24.882535544430414" lon="121.25794469944438"><ele>191.0</ele><time>2026-03-22T11:49:32Z</time></trkpt><trkpt lat="24.882578471689097" lon="121.25799955201975"><ele>191.0</ele><time>2026-03-22T11:49:33Z</time></trkpt><trkpt lat="24.882623031995596" lon="121.2580566205171"><ele>191.0</ele><time>2026-03-22T11:49:34Z</time></trkpt><trkpt lat="24.882667220698814" lon="121.25811297458603"><ele>191.0</ele><time>2026-03-22T11:49:35Z</time></trkpt><trkpt lat="24.882709250185457" lon="121.25816511260123"><ele>191.0</ele><time>2026-03-22T11:49:36Z</time></trkpt><trkpt lat="24.882751382411744" lon="121.25821695907597"><ele>191.0</ele><time>2026-03-22T11:49:37Z</time></trkpt><trkpt lat="24.882796718568436" lon="121.25827363557389"><ele>191.0</ele><time>2026-03-22T11:49:38Z</time></trkpt><trkpt lat="24.88284438372034" lon="121.25833229279806"><ele>191.0</ele><time>2026-03-22T11:49:39Z</time></trkpt><trkpt lat="24.882893386237264" lon="121.2583931769754"><ele>191.0</ele><time>2026-03-22T11:49:40Z</time></trkpt><trkpt lat="24.882945014921198" lon="121.25845644220664"><ele>191.0</ele><time>2026-03-22T11:49:41Z</time></trkpt><trkpt lat="24.883000807193092" lon="121.25852444258058"><ele>191.0</ele><time>2026-03-22T11:49:42Z</time></trkpt><trkpt lat="24.883061210432786" lon="121.25859695683032"><ele>191.0</ele><time>2026-03-22T11:49:43Z</time></trkpt><trkpt lat="24.883123491933198" lon="121.25867192424677"><ele>191.0</ele><time>2026-03-22T11:49:44Z</time></trkpt><trkpt lat="24.883187247941308" lon="121.2587443187735"><ele>191.0</ele><time>2026-03-22T11:49:45Z</time></trkpt><trkpt lat="24.88325135507304" lon="121.25881417967058"><ele>191.0</ele><time>2026-03-22T11:49:46Z</time></trkpt><trkpt lat="24.883314720235038" lon="121.25888320866517"><ele>191.0</ele><time>2026-03-22T11:49:47Z</time></trkpt><trkpt lat="24.88337731418099" lon="121.2589527923871"><ele>191.0</ele><time>2026-03-22T11:49:48Z</time></trkpt><trkpt lat="24.883439381646323" lon="121.25902113203377"><ele>191.0</ele><time>2026-03-22T11:49:49Z</time></trkpt><trkpt lat="24.883499179164986" lon="121.2590875079903"><ele>191.0</ele><time>2026-03-22T11:49:50Z</time></trkpt><trkpt lat="24.883559215307162" lon="121.25915343043054"><ele>191.83333333333331</ele><time>2026-03-22T11:49:51Z</time></trkpt><trkpt lat="24.883617672039076" lon="121.25921866306754"><ele>192.66666666666666</ele><time>2026-03-22T11:49:52Z</time></trkpt><trkpt lat="24.88367549345117" lon="121.2592816745689"><ele>193.5</ele><time>2026-03-22T11:49:53Z</time></trkpt><trkpt lat="24.88373384489327" lon="121.25934186655401"><ele>194.33333333333331</ele><time>2026-03-22T11:49:54Z</time></trkpt><trkpt lat="24.883790715251777" lon="121.25940096479061"><ele>195.16666666666666</ele><time>2026-03-22T11:49:55Z</time></trkpt><trkpt lat="24.883846922552262" lon="121.25945843404244"><ele>196.0</ele><time>2026-03-22T11:49:56Z</time></trkpt><trkpt lat="24.883902419004382" lon="121.25951626752087"><ele>196.0</ele><time>2026-03-22T11:49:57Z</time></trkpt><trkpt lat="24.88395813459965" lon="121.2595719849727"><ele>196.0</ele><time>2026-03-22T11:49:58.001Z</time></trkpt><trkpt lat="24.884010435917023" lon="121.25962505032231"><ele>196.0</ele><time>2026-03-22T11:49:59.001Z</time></trkpt><trkpt lat="24.8840623275023" lon="121.25967739662656"><ele>196.0</ele><time>2026-03-22T11:50:00.001Z</time></trkpt><trkpt lat="24.884112062803684" lon="121.25972708004966"><ele>196.0</ele><time>2026-03-22T11:50:01.001Z</time></trkpt><trkpt lat="24.884160422896404" lon="121.2597764612581"><ele>196.0</ele><time>2026-03-22T11:50:02.001Z</time></trkpt><trkpt lat="24.88420862221494" lon="121.2598239711297"><ele>196.0</ele><time>2026-03-22T11:50:03.001Z</time></trkpt><trkpt lat="24.884300998838956" lon="121.25991405919115"><ele>196.0</ele><time>2026-03-22T11:50:05.001Z</time></trkpt><trkpt lat="24.88439095512054" lon="121.2600016565994"><ele>196.0</ele><time>2026-03-22T11:50:07.001Z</time></trkpt><trkpt lat="24.88448296272939" lon="121.26009170239763"><ele>196.0</ele><time>2026-03-22T11:50:09.001Z</time></trkpt><trkpt lat="24.884572744962888" lon="121.260175900854"><ele>196.0</ele><time>2026-03-22T11:50:11.001Z</time></trkpt><trkpt lat="24.884648604932462" lon="121.26024526744973"><ele>195.99999999999997</ele><time>2026-03-22T11:50:13.001Z</time></trkpt><trkpt lat="24.884696750800373" lon="121.26029218236046"><ele>196.0</ele><time>2026-03-22T11:50:15.001Z</time></trkpt><trkpt lat="24.88477187502716" lon="121.2603609589144"><ele>196.0</ele><time>2026-03-22T11:50:18.001Z</time></trkpt><trkpt lat="24.8848328117495" lon="121.2604131844481"><ele>196.0</ele><time>2026-03-22T11:50:20.001Z</time></trkpt><trkpt lat="24.88489260346565" lon="121.26046775801211"><ele>195.99999999999997</ele><time>2026-03-22T11:50:22.001Z</time></trkpt><trkpt lat="24.884956821290082" lon="121.26052599159095"><ele>196.0</ele><time>2026-03-22T11:50:24.001Z</time></trkpt><trkpt lat="24.885022181598153" lon="121.26058294416346"><ele>195.83333333333331</ele><time>2026-03-22T11:50:26.001Z</time></trkpt><trkpt lat="24.885077588188764" lon="121.26063200521979"><ele>195.66666666666666</ele><time>2026-03-22T11:50:28.001Z</time></trkpt><trkpt lat="24.885144804919694" lon="121.26069360656855"><ele>195.5</ele><time>2026-03-22T11:50:31.001Z</time></trkpt><trkpt lat="24.885199507993168" lon="121.26074208732261"><ele>195.33333333333331</ele><time>2026-03-22T11:50:34.001Z</time></trkpt><trkpt lat="24.885251955295125" lon="121.26078281460005"><ele>195.16666666666666</ele><time>2026-03-22T11:50:37.001Z</time></trkpt><trkpt lat="24.885310563145694" lon="121.26082905633656"><ele>195.0</ele><time>2026-03-22T11:50:43.001Z</time></trkpt><trkpt lat="24.885378007036486" lon="121.260886211122"><ele>194.16666666666666</ele><time>2026-03-22T11:50:47.001Z</time></trkpt><trkpt lat="24.8854521524199" lon="121.26094832622671"><ele>193.33333333333334</ele><time>2026-03-22T11:50:50.001Z</time></trkpt><trkpt lat="24.885528519616276" lon="121.2610108984901"><ele>192.5</ele><time>2026-03-22T11:50:53.001Z</time></trkpt><trkpt lat="24.885599875942773" lon="121.26106734073419"><ele>191.66666666666669</ele><time>2026-03-22T11:50:56.001Z</time></trkpt><trkpt lat="24.885657021776467" lon="121.26111002321393"><ele>190.83333333333334</ele><time>2026-03-22T11:50:58.001Z</time></trkpt><trkpt lat="24.885715247133106" lon="121.26115621494792"><ele>190.0</ele><time>2026-03-22T11:51:00.001Z</time></trkpt><trkpt lat="24.885784484489598" lon="121.26120805869625"><ele>190.0</ele><time>2026-03-22T11:51:02.001Z</time></trkpt><trkpt lat="24.885852242772035" lon="121.26125740068595"><ele>190.0</ele><time>2026-03-22T11:51:04.001Z</time></trkpt><trkpt lat="24.88592111156441" lon="121.26130632473648"><ele>190.0</ele><time>2026-03-22T11:51:06.001Z</time></trkpt><trkpt lat="24.88598067995665" lon="121.26135330437735"><ele>190.0</ele><time>2026-03-22T11:51:08.001Z</time></trkpt><trkpt lat="24.8860433794129" lon="121.26140671337676"><ele>190.0</ele><time>2026-03-22T11:51:10.001Z</time></trkpt><trkpt lat="24.886108463806714" lon="121.26145771356936"><ele>190.0</ele><time>2026-03-22T11:51:12.001Z</time></trkpt><trkpt lat="24.886174242733716" lon="121.26150398542408"><ele>190.33333333333334</ele><time>2026-03-22T11:51:14.001Z</time></trkpt><trkpt lat="24.886241716427698" lon="121.26155469976409"><ele>190.66666666666669</ele><time>2026-03-22T11:51:16.001Z</time></trkpt><trkpt lat="24.886347658812156" lon="121.26162902164262"><ele>191.0</ele><time>2026-03-22T11:51:18.001Z</time></trkpt><trkpt lat="24.886401399512017" lon="121.26166819700026"><ele>191.33333333333334</ele><time>2026-03-22T11:51:19.001Z</time></trkpt><trkpt lat="24.88645925290344" lon="121.2617139967424"><ele>191.66666666666666</ele><time>2026-03-22T11:51:20.001Z</time></trkpt><trkpt lat="24.886518399964256" lon="121.26175553251102"><ele>192.0</ele><time>2026-03-22T11:51:21.001Z</time></trkpt><trkpt lat="24.88657526550977" lon="121.26180016345933"><ele>192.0</ele><time>2026-03-22T11:51:22.001Z</time></trkpt><trkpt lat="24.886646482280227" lon="121.26184924728433"><ele>192.0</ele><time>2026-03-22T11:51:23.001Z</time></trkpt><trkpt lat="24.88673297215172" lon="121.26190469975845"><ele>192.0</ele><time>2026-03-22T11:51:24.001Z</time></trkpt><trkpt lat="24.88682192790228" lon="121.26196035350692"><ele>192.0</ele><time>2026-03-22T11:51:25.001Z</time></trkpt><trkpt lat="24.886902809356673" lon="121.26201880501755"><ele>192.0</ele><time>2026-03-22T11:51:26.001Z</time></trkpt><trkpt lat="24.887002660877734" lon="121.26209041943487"><ele>191.2</ele><time>2026-03-22T11:51:27.001Z</time></trkpt><trkpt lat="24.887070302876335" lon="121.26214727248178"><ele>190.39999999999998</ele><time>2026-03-22T11:51:28.001Z</time></trkpt><trkpt lat="24.88715428830903" lon="121.26219598525319"><ele>189.60000000000002</ele><time>2026-03-22T11:51:29.001Z</time></trkpt><trkpt lat="24.887232841075168" lon="121.26224674818843"><ele>188.8</ele><time>2026-03-22T11:51:30.001Z</time></trkpt><trkpt lat="24.887315976168903" lon="121.26230162764605"><ele>188.0</ele><time>2026-03-22T11:51:31.001Z</time></trkpt><trkpt lat="24.88742525700939" lon="121.26235410343834"><ele>188.0</ele><time>2026-03-22T11:51:32.001Z</time></trkpt><trkpt lat="24.887516531831633" lon="121.26240305351729"><ele>188.0</ele><time>2026-03-22T11:51:33.001Z</time></trkpt><trkpt lat="24.88760933919877" lon="121.26245024652185"><ele>188.0</ele><time>2026-03-22T11:51:34.001Z</time></trkpt><trkpt lat="24.88770693979584" lon="121.26250976804506"><ele>188.0</ele><time>2026-03-22T11:51:35.001Z</time></trkpt><trkpt lat="24.887810164958996" lon="121.26257425192969"><ele>188.0</ele><time>2026-03-22T11:51:36.001Z</time></trkpt><trkpt lat="24.88790851940759" lon="121.26263001614524"><ele>187.4</ele><time>2026-03-22T11:51:37.001Z</time></trkpt><trkpt lat="24.88799825372418" lon="121.26267802752345"><ele>186.8</ele><time>2026-03-22T11:51:38Z</time></trkpt><trkpt lat="24.888086859040676" lon="121.26272919868686"><ele>186.2</ele><time>2026-03-22T11:51:39Z</time></trkpt><trkpt lat="24.888165096812727" lon="121.26277394455253"><ele>185.6</ele><time>2026-03-22T11:51:40Z</time></trkpt><trkpt lat="24.88825582835161" lon="121.26283385459566"><ele>185.0</ele><time>2026-03-22T11:51:41Z</time></trkpt><trkpt lat="24.88833493806038" lon="121.26288583930659"><ele>185.0</ele><time>2026-03-22T11:51:42Z</time></trkpt><trkpt lat="24.888410657938476" lon="121.26293491131905"><ele>185.0</ele><time>2026-03-22T11:51:43Z</time></trkpt><trkpt lat="24.88849427404725" lon="121.26297494850766"><ele>185.0</ele><time>2026-03-22T11:51:44Z</time></trkpt><trkpt lat="24.88856301159806" lon="121.2630071565709"><ele>185.0</ele><time>2026-03-22T11:51:45Z</time></trkpt><trkpt lat="24.88863131199259" lon="121.26304180370853"><ele>185.0</ele><time>2026-03-22T11:51:46Z</time></trkpt><trkpt lat="24.888747019092175" lon="121.26309672504502"><ele>184.99999999999997</ele><time>2026-03-22T11:51:48Z</time></trkpt><trkpt lat="24.88881313409723" lon="121.26313130359283"><ele>185.0</ele><time>2026-03-22T11:51:49Z</time></trkpt><trkpt lat="24.888878740330117" lon="121.26316394621459"><ele>185.0</ele><time>2026-03-22T11:51:50Z</time></trkpt><trkpt lat="24.888942505067984" lon="121.2631939725827"><ele>185.0</ele><time>2026-03-22T11:51:51Z</time></trkpt><trkpt lat="24.889009394173222" lon="121.26322750705586"><ele>185.0</ele><time>2026-03-22T11:51:52Z</time></trkpt><trkpt lat="24.88907517520915" lon="121.26326041907257"><ele>184.99999999999997</ele><time>2026-03-22T11:51:53Z</time></trkpt><trkpt lat="24.8891451991715" lon="121.26329462098909"><ele>185.0</ele><time>2026-03-22T11:51:54Z</time></trkpt><trkpt lat="24.889212263345243" lon="121.26333047195602"><ele>185.16666666666666</ele><time>2026-03-22T11:51:55Z</time></trkpt><trkpt lat="24.88928417168728" lon="121.26336880288352"><ele>185.33333333333331</ele><time>2026-03-22T11:51:56Z</time></trkpt><trkpt lat="24.889354093879486" lon="121.26340314518981"><ele>185.5</ele><time>2026-03-22T11:51:57Z</time></trkpt><trkpt lat="24.88942002700161" lon="121.26343527111617"><ele>185.66666666666666</ele><time>2026-03-22T11:51:58Z</time></trkpt><trkpt lat="24.889486545473876" lon="121.26346900895122"><ele>185.83333333333334</ele><time>2026-03-22T11:51:59Z</time></trkpt><trkpt lat="24.889560548490234" lon="121.2635058835364"><ele>186.0</ele><time>2026-03-22T11:52:00Z</time></trkpt><trkpt lat="24.889639547533104" lon="121.26354607841807"><ele>186.0</ele><time>2026-03-22T11:52:01Z</time></trkpt><trkpt lat="24.889719123840724" lon="121.26358493641465"><ele>186.0</ele><time>2026-03-22T11:52:02Z</time></trkpt><trkpt lat="24.889797162626977" lon="121.26362218402947"><ele>186.0</ele><time>2026-03-22T11:52:03Z</time></trkpt><trkpt lat="24.889878650108248" lon="121.26365873854266"><ele>186.0</ele><time>2026-03-22T11:52:04Z</time></trkpt><trkpt lat="24.889965650233474" lon="121.26369961679892"><ele>186.0</ele><time>2026-03-22T11:52:05Z</time></trkpt><trkpt lat="24.890054616915634" lon="121.26373995703628"><ele>186.0</ele><time>2026-03-22T11:52:06Z</time></trkpt><trkpt lat="24.890143056622012" lon="121.26378016090558"><ele>186.0</ele><time>2026-03-22T11:52:07Z</time></trkpt><trkpt lat="24.890233261462562" lon="121.26382180392072"><ele>186.0</ele><time>2026-03-22T11:52:08Z</time></trkpt><trkpt lat="24.890328199062353" lon="121.26386284434467"><ele>186.0</ele><time>2026-03-22T11:52:09Z</time></trkpt><trkpt lat="24.890425892053912" lon="121.26390706595808"><ele>186.0</ele><time>2026-03-22T11:52:10Z</time></trkpt><trkpt lat="24.89052450446968" lon="121.26394985255074"><ele>186.0</ele><time>2026-03-22T11:52:11Z</time></trkpt><trkpt lat="24.89062384455496" lon="121.26399414821459"><ele>186.0</ele><time>2026-03-22T11:52:12Z</time></trkpt><trkpt lat="24.89072585883149" lon="121.26403805686667"><ele>186.0</ele><time>2026-03-22T11:52:13Z</time></trkpt><trkpt lat="24.890833182432896" lon="121.26408609697879"><ele>186.0</ele><time>2026-03-22T11:52:14Z</time></trkpt><trkpt lat="24.89094507559869" lon="121.26413651309811"><ele>184.25</ele><time>2026-03-22T11:52:15.001Z</time></trkpt><trkpt lat="24.89106270399618" lon="121.26418865236978"><ele>182.5</ele><time>2026-03-22T11:52:16.001Z</time></trkpt><trkpt lat="24.891188858511544" lon="121.26424338422011"><ele>180.75</ele><time>2026-03-22T11:52:17.001Z</time></trkpt><trkpt lat="24.891301652904747" lon="121.26429379758571"><ele>179.0</ele><time>2026-03-22T11:52:18.001Z</time></trkpt><trkpt lat="24.891396113123278" lon="121.26433785542986"><ele>179.0</ele><time>2026-03-22T11:52:19.001Z</time></trkpt><trkpt lat="24.891483109188258" lon="121.26437751865959"><ele>179.0</ele><time>2026-03-22T11:52:20.001Z</time></trkpt><trkpt lat="24.891565447706196" lon="121.26441521901995"><ele>179.0</ele><time>2026-03-22T11:52:21.001Z</time></trkpt><trkpt lat="24.891645309458333" lon="121.26445384415594"><ele>179.0</ele><time>2026-03-22T11:52:22.001Z</time></trkpt><trkpt lat="24.89172579670827" lon="121.26449061383083"><ele>179.0</ele><time>2026-03-22T11:52:23.001Z</time></trkpt><trkpt lat="24.89181580461666" lon="121.26453304231781"><ele>179.75</ele><time>2026-03-22T11:52:24.001Z</time></trkpt><trkpt lat="24.89191438560357" lon="121.26458096673983"><ele>180.5</ele><time>2026-03-22T11:52:25.001Z</time></trkpt><trkpt lat="24.89202254285173" lon="121.2646321415496"><ele>181.25</ele><time>2026-03-22T11:52:26.001Z</time></trkpt><trkpt lat="24.892137460393148" lon="121.2646856535109"><ele>182.0</ele><time>2026-03-22T11:52:27.001Z</time></trkpt><trkpt lat="24.892267337935706" lon="121.26474440220983"><ele>182.5</ele><time>2026-03-22T11:52:28.001Z</time></trkpt><trkpt lat="24.892401235231095" lon="121.2648022592922"><ele>183.0</ele><time>2026-03-22T11:52:29.001Z</time></trkpt><trkpt lat="24.89253258347833" lon="121.26485473168795"><ele>183.5</ele><time>2026-03-22T11:52:30.001Z</time></trkpt><trkpt lat="24.89266112420827" lon="121.2649089368009"><ele>184.0</ele><time>2026-03-22T11:52:31.001Z</time></trkpt><trkpt lat="24.8927906879939" lon="121.26496471484626"><ele>184.0</ele><time>2026-03-22T11:52:32.001Z</time></trkpt><trkpt lat="24.89292101235083" lon="121.26502199081023"><ele>184.0</ele><time>2026-03-22T11:52:33.001Z</time></trkpt><trkpt lat="24.89305478746802" lon="121.26508137510804"><ele>184.0</ele><time>2026-03-22T11:52:34.001Z</time></trkpt><trkpt lat="24.89319580793626" lon="121.26514159061082"><ele>184.0</ele><time>2026-03-22T11:52:35.001Z</time></trkpt><trkpt lat="24.893343857386412" lon="121.26520994442625"><ele>183.33333333333334</ele><time>2026-03-22T11:52:36.001Z</time></trkpt><trkpt lat="24.893489524196532" lon="121.26527762533117"><ele>182.66666666666666</ele><time>2026-03-22T11:52:37.001Z</time></trkpt><trkpt lat="24.893643596656098" lon="121.26534875915206"><ele>182.0</ele><time>2026-03-22T11:52:38.001Z</time></trkpt><trkpt lat="24.89379640166821" lon="121.26542213577208"><ele>182.0</ele><time>2026-03-22T11:52:39.001Z</time></trkpt><trkpt lat="24.89394447613255" lon="121.26549354370351"><ele>182.0</ele><time>2026-03-22T11:52:40.001Z</time></trkpt><trkpt lat="24.894094885508792" lon="121.26556496374151"><ele>182.0</ele><time>2026-03-22T11:52:41.001Z</time></trkpt><trkpt lat="24.89424576642616" lon="121.26563506376203"><ele>180.66666666666666</ele><time>2026-03-22T11:52:42.001Z</time></trkpt><trkpt lat="24.894392793433354" lon="121.26570387483916"><ele>179.33333333333334</ele><time>2026-03-22T11:52:43.001Z</time></trkpt><trkpt lat="24.894540931529242" lon="121.26577617915731"><ele>178.0</ele><time>2026-03-22T11:52:44.001Z</time></trkpt><trkpt lat="24.894693819137753" lon="121.26585201292649"><ele>178.0</ele><time>2026-03-22T11:52:45.001Z</time></trkpt><trkpt lat="24.894842894949875" lon="121.26592541788662"><ele>178.0</ele><time>2026-03-22T11:52:46.001Z</time></trkpt><trkpt lat="24.89499632513962" lon="121.26600335827682"><ele>178.0</ele><time>2026-03-22T11:52:47.001Z</time></trkpt><trkpt lat="24.895149417606994" lon="121.26608280988336"><ele>179.5</ele><time>2026-03-22T11:52:48.001Z</time></trkpt><trkpt lat="24.895289800406033" lon="121.26615606037724"><ele>181.0</ele><time>2026-03-22T11:52:49.001Z</time></trkpt><trkpt lat="24.895400424344082" lon="121.26621334012269"><ele>182.5</ele><time>2026-03-22T11:52:50.001Z</time></trkpt><trkpt lat="24.895504511733456" lon="121.26626752957397"><ele>184.0</ele><time>2026-03-22T11:52:51.001Z</time></trkpt><trkpt lat="24.89561170110008" lon="121.26632168464714"><ele>184.0</ele><time>2026-03-22T11:52:52.001Z</time></trkpt><trkpt lat="24.89571815090234" lon="121.26637713323814"><ele>184.0</ele><time>2026-03-22T11:52:53.001Z</time></trkpt><trkpt lat="24.89583204030415" lon="121.26643613041726"><ele>184.0</ele><time>2026-03-22T11:52:54.001Z</time></trkpt><trkpt lat="24.895952957827806" lon="121.26650300341"><ele>184.0</ele><time>2026-03-22T11:52:55.001Z</time></trkpt><trkpt lat="24.896078253838464" lon="121.26657082051622"><ele>184.0</ele><time>2026-03-22T11:52:56.001Z</time></trkpt><trkpt lat="24.89620161535191" lon="121.26664119600618"><ele>184.0</ele><time>2026-03-22T11:52:57.001Z</time></trkpt><trkpt lat="24.896326760757717" lon="121.26671759181964"><ele>184.0</ele><time>2026-03-22T11:52:58.001Z</time></trkpt><trkpt lat="24.8964583838897" lon="121.26679629284641"><ele>184.0</ele><time>2026-03-22T11:52:59.001Z</time></trkpt><trkpt lat="24.896592711777913" lon="121.26687845778042"><ele>184.0</ele><time>2026-03-22T11:53:00.001Z</time></trkpt><trkpt lat="24.896728772298047" lon="121.26696154538466"><ele>184.0</ele><time>2026-03-22T11:53:01.001Z</time></trkpt><trkpt lat="24.89686834438265" lon="121.26704801895356"><ele>184.0</ele><time>2026-03-22T11:53:02.001Z</time></trkpt><trkpt lat="24.89700991305655" lon="121.26713920448545"><ele>181.33333333333334</ele><time>2026-03-22T11:53:03.001Z</time></trkpt><trkpt lat="24.897151152423334" lon="121.26723304958509"><ele>178.66666666666666</ele><time>2026-03-22T11:53:04.001Z</time></trkpt><trkpt lat="24.89729302158133" lon="121.26732743997496"><ele>176.0</ele><time>2026-03-22T11:53:05.001Z</time></trkpt><trkpt lat="24.897434604412013" lon="121.26742243208687"><ele>176.0</ele><time>2026-03-22T11:53:06.001Z</time></trkpt><trkpt lat="24.897576814562886" lon="121.26751809142199"><ele>176.0</ele><time>2026-03-22T11:53:07.001Z</time></trkpt><trkpt lat="24.897716745400754" lon="121.26761635320243"><ele>176.0</ele><time>2026-03-22T11:53:08.001Z</time></trkpt><trkpt lat="24.897858058373032" lon="121.26771590047633"><ele>175.0</ele><time>2026-03-22T11:53:09.001Z</time></trkpt><trkpt lat="24.897998118208474" lon="121.26781731120046"><ele>174.0</ele><time>2026-03-22T11:53:10.001Z</time></trkpt><trkpt lat="24.898139392583193" lon="121.26791874348106"><ele>173.0</ele><time>2026-03-22T11:53:11.001Z</time></trkpt><trkpt lat="24.898280122171162" lon="121.26802078855631"><ele>173.66666666666666</ele><time>2026-03-22T11:53:12.001Z</time></trkpt><trkpt lat="24.8984210285807" lon="121.2681240165078"><ele>174.33333333333334</ele><time>2026-03-22T11:53:13.001Z</time></trkpt><trkpt lat="24.89856187945688" lon="121.2682293693848"><ele>175.0</ele><time>2026-03-22T11:53:14.001Z</time></trkpt><trkpt lat="24.898702019398474" lon="121.26833705516334"><ele>175.0</ele><time>2026-03-22T11:53:15.001Z</time></trkpt><trkpt lat="24.898835364540076" lon="121.2684395033627"><ele>175.0</ele><time>2026-03-22T11:53:16.001Z</time></trkpt><trkpt lat="24.898958893710603" lon="121.26853518411602"><ele>175.0</ele><time>2026-03-22T11:53:17.001Z</time></trkpt><trkpt lat="24.89907753234542" lon="121.2686241716199"><ele>175.0</ele><time>2026-03-22T11:53:18.001Z</time></trkpt><trkpt lat="24.899189675053773" lon="121.26870969014414"><ele>175.0</ele><time>2026-03-22T11:53:19.001Z</time></trkpt><trkpt lat="24.899291225379475" lon="121.26878907103648"><ele>175.0</ele><time>2026-03-22T11:53:20.001Z</time></trkpt><trkpt lat="24.899387648040612" lon="121.26886418213375"><ele>175.0</ele><time>2026-03-22T11:53:21.001Z</time></trkpt><trkpt lat="24.899475976456852" lon="121.26893351791655"><ele>174.33333333333334</ele><time>2026-03-22T11:53:22.001Z</time></trkpt><trkpt lat="24.899555345477243" lon="121.2689971661537"><ele>173.66666666666669</ele><time>2026-03-22T11:53:23.001Z</time></trkpt><trkpt lat="24.899625410095357" lon="121.26905205974495"><ele>173.0</ele><time>2026-03-22T11:53:24.001Z</time></trkpt><trkpt lat="24.899699638715763" lon="121.26911720875964"><ele>172.33333333333334</ele><time>2026-03-22T11:53:25.001Z</time></trkpt><trkpt lat="24.899770496323374" lon="121.26917551044974"><ele>171.66666666666666</ele><time>2026-03-22T11:53:26.001Z</time></trkpt><trkpt lat="24.899836174882044" lon="121.26922512608513"><ele>171.0</ele><time>2026-03-22T11:53:27.001Z</time></trkpt><trkpt lat="24.899901771665228" lon="121.2692761220653"><ele>171.0</ele><time>2026-03-22T11:53:28.001Z</time></trkpt><trkpt lat="24.89997343886627" lon="121.2693259699414"><ele>171.0</ele><time>2026-03-22T11:53:29.001Z</time></trkpt><trkpt lat="24.900049938282645" lon="121.26937645419292"><ele>171.0</ele><time>2026-03-22T11:53:30.001Z</time></trkpt><trkpt lat="24.90016735563516" lon="121.2694602919911"><ele>171.0</ele><time>2026-03-22T11:53:32Z</time></trkpt><trkpt lat="24.900233758343123" lon="121.26951278412002"><ele>171.0</ele><time>2026-03-22T11:53:33Z</time></trkpt><trkpt lat="24.900290765313567" lon="121.26955486166436"><ele>170.5</ele><time>2026-03-22T11:53:34Z</time></trkpt><trkpt lat="24.900345356649805" lon="121.26960323705552"><ele>170.0</ele><time>2026-03-22T11:53:35Z</time></trkpt><trkpt lat="24.900445955461873" lon="121.26969805090383"><ele>169.5</ele><time>2026-03-22T11:53:37Z</time></trkpt><trkpt lat="24.90049628039695" lon="121.26975154699409"><ele>169.0</ele><time>2026-03-22T11:53:38Z</time></trkpt><trkpt lat="24.900548817514565" lon="121.26980237765336"><ele>168.5</ele><time>2026-03-22T11:53:39Z</time></trkpt><trkpt lat="24.9005999854444" lon="121.26985451120905"><ele>168.0</ele><time>2026-03-22T11:53:40Z</time></trkpt><trkpt lat="24.900645304943655" lon="121.26990495836834"><ele>167.83333333333334</ele><time>2026-03-22T11:53:41Z</time></trkpt><trkpt lat="24.900698800346188" lon="121.269955213296"><ele>167.66666666666666</ele><time>2026-03-22T11:53:42Z</time></trkpt><trkpt lat="24.90075512395585" lon="121.27001259013839"><ele>167.5</ele><time>2026-03-22T11:53:43Z</time></trkpt><trkpt lat="24.90084861194072" lon="121.27010815462857"><ele>167.33333333333331</ele><time>2026-03-22T11:53:45Z</time></trkpt><trkpt lat="24.90090254611851" lon="121.27015449374655"><ele>167.16666666666666</ele><time>2026-03-22T11:53:46Z</time></trkpt><trkpt lat="24.900954273657703" lon="121.27019740924094"><ele>167.0</ele><time>2026-03-22T11:53:47Z</time></trkpt><trkpt lat="24.901006378333847" lon="121.27024023543504"><ele>167.33333333333331</ele><time>2026-03-22T11:53:48Z</time></trkpt><trkpt lat="24.90105585192227" lon="121.2702873581801"><ele>167.66666666666666</ele><time>2026-03-22T11:53:49Z</time></trkpt><trkpt lat="24.901110121171868" lon="121.27033935660725"><ele>168.0</ele><time>2026-03-22T11:53:50Z</time></trkpt><trkpt lat="24.901173420828535" lon="121.27039637119613"><ele>168.33333333333334</ele><time>2026-03-22T11:53:51Z</time></trkpt><trkpt lat="24.90123272827374" lon="121.27045359826035"><ele>168.66666666666669</ele><time>2026-03-22T11:53:52Z</time></trkpt><trkpt lat="24.901283053520103" lon="121.27051110624609"><ele>169.0</ele><time>2026-03-22T11:53:53Z</time></trkpt><trkpt lat="24.901348971973864" lon="121.27057546356843"><ele>169.2</ele><time>2026-03-22T11:53:54Z</time></trkpt><trkpt lat="24.90140602665299" lon="121.27065475188698"><ele>169.39999999999998</ele><time>2026-03-22T11:53:55Z</time></trkpt><trkpt lat="24.901479004737677" lon="121.27071919450772"><ele>169.6</ele><time>2026-03-22T11:53:56Z</time></trkpt><trkpt lat="24.901552600138217" lon="121.27077927133196"><ele>169.8</ele><time>2026-03-22T11:53:57Z</time></trkpt><trkpt lat="24.90162048007226" lon="121.2708436038526"><ele>170.0</ele><time>2026-03-22T11:53:58Z</time></trkpt><trkpt lat="24.901684632568937" lon="121.27090792195516"><ele>170.0</ele><time>2026-03-22T11:53:59Z</time></trkpt><trkpt lat="24.901738394563804" lon="121.27097018663501"><ele>170.0</ele><time>2026-03-22T11:54:00Z</time></trkpt><trkpt lat="24.901811200626167" lon="121.27105235651572"><ele>170.0</ele><time>2026-03-22T11:54:01Z</time></trkpt><trkpt lat="24.901864717140906" lon="121.27112676115891"><ele>170.0</ele><time>2026-03-22T11:54:02Z</time></trkpt><trkpt lat="24.90191430312121" lon="121.27119734336188"><ele>170.0</ele><time>2026-03-22T11:54:03Z</time></trkpt><trkpt lat="24.90196430751651" lon="121.27125967459425"><ele>170.0</ele><time>2026-03-22T11:54:04Z</time></trkpt><trkpt lat="24.90201830414359" lon="121.27133500472169"><ele>170.16666666666666</ele><time>2026-03-22T11:54:05Z</time></trkpt><trkpt lat="24.90207947054838" lon="121.27140452633864"><ele>170.33333333333331</ele><time>2026-03-22T11:54:06Z</time></trkpt><trkpt lat="24.90212660178232" lon="121.27146784820303"><ele>170.5</ele><time>2026-03-22T11:54:07Z</time></trkpt><trkpt lat="24.902189799960684" lon="121.27154056155327"><ele>170.66666666666666</ele><time>2026-03-22T11:54:08Z</time></trkpt><trkpt lat="24.902243648614547" lon="121.271603922929"><ele>170.83333333333334</ele><time>2026-03-22T11:54:09Z</time></trkpt><trkpt lat="24.90230031161299" lon="121.27167345473414"><ele>171.0</ele><time>2026-03-22T11:54:10Z</time></trkpt><trkpt lat="24.902355123915136" lon="121.27174338903534"><ele>170.66666666666666</ele><time>2026-03-22T11:54:11Z</time></trkpt><trkpt lat="24.902414903752653" lon="121.27181528755185"><ele>170.33333333333334</ele><time>2026-03-22T11:54:12Z</time></trkpt><trkpt lat="24.902473932679186" lon="121.27188742840083"><ele>170.0</ele><time>2026-03-22T11:54:13Z</time></trkpt><trkpt lat="24.90252401668838" lon="121.27195006603128"><ele>169.66666666666669</ele><time>2026-03-22T11:54:14Z</time></trkpt><trkpt lat="24.902576481819473" lon="121.27201348926751"><ele>169.33333333333334</ele><time>2026-03-22T11:54:15Z</time></trkpt><trkpt lat="24.902627816214427" lon="121.27208624880232"><ele>169.0</ele><time>2026-03-22T11:54:16Z</time></trkpt><trkpt lat="24.902683116011612" lon="121.2721727851108"><ele>169.0</ele><time>2026-03-22T11:54:17Z</time></trkpt><trkpt lat="24.902747527559328" lon="121.27224446322879"><ele>169.0</ele><time>2026-03-22T11:54:18Z</time></trkpt><trkpt lat="24.902850281010835" lon="121.27233292207217"><ele>169.0</ele><time>2026-03-22T11:54:20Z</time></trkpt><trkpt lat="24.902918818518188" lon="121.27240955086364"><ele>169.0</ele><time>2026-03-22T11:54:21Z</time></trkpt><trkpt lat="24.902987846952414" lon="121.27248976180873"><ele>169.0</ele><time>2026-03-22T11:54:22Z</time></trkpt><trkpt lat="24.90303625911879" lon="121.27255111852365"><ele>169.16666666666669</ele><time>2026-03-22T11:54:23Z</time></trkpt><trkpt lat="24.903096831577223" lon="121.2726303457431"><ele>169.33333333333334</ele><time>2026-03-22T11:54:24Z</time></trkpt><trkpt lat="24.903148326315957" lon="121.27268994746458"><ele>169.5</ele><time>2026-03-22T11:54:25Z</time></trkpt><trkpt lat="24.90320019620484" lon="121.27275207862169"><ele>169.66666666666666</ele><time>2026-03-22T11:54:26Z</time></trkpt><trkpt lat="24.90326107899452" lon="121.27281872388876"><ele>169.83333333333331</ele><time>2026-03-22T11:54:27Z</time></trkpt><trkpt lat="24.903315245192427" lon="121.27289346559373"><ele>170.0</ele><time>2026-03-22T11:54:28Z</time></trkpt><trkpt lat="24.90336416749394" lon="121.27297334119633"><ele>170.0</ele><time>2026-03-22T11:54:29Z</time></trkpt><trkpt lat="24.903421924634838" lon="121.27304742097715"><ele>170.0</ele><time>2026-03-22T11:54:30Z</time></trkpt><trkpt lat="24.903482998945766" lon="121.27312897828217"><ele>170.0</ele><time>2026-03-22T11:54:31Z</time></trkpt><trkpt lat="24.90354166718451" lon="121.27321724989153"><ele>170.0</ele><time>2026-03-22T11:54:32Z</time></trkpt><trkpt lat="24.903590669792493" lon="121.2732902241057"><ele>170.0</ele><time>2026-03-22T11:54:33Z</time></trkpt><trkpt lat="24.903645854029435" lon="121.27335797173434"><ele>170.0</ele><time>2026-03-22T11:54:34Z</time></trkpt><trkpt lat="24.903687951023134" lon="121.27342558924656"><ele>169.5</ele><time>2026-03-22T11:54:35Z</time></trkpt><trkpt lat="24.903736799567685" lon="121.27350016971894"><ele>169.0</ele><time>2026-03-22T11:54:36Z</time></trkpt><trkpt lat="24.90379124443787" lon="121.27357509152084"><ele>168.5</ele><time>2026-03-22T11:54:37Z</time></trkpt><trkpt lat="24.903850126598314" lon="121.27364378442633"><ele>168.0</ele><time>2026-03-22T11:54:38Z</time></trkpt><trkpt lat="24.903898696064367" lon="121.2737087723893"><ele>167.5</ele><time>2026-03-22T11:54:39Z</time></trkpt><trkpt lat="24.90396320356726" lon="121.27378256054809"><ele>167.0</ele><time>2026-03-22T11:54:40Z</time></trkpt><trkpt lat="24.904018155079964" lon="121.27385495504771"><ele>167.0</ele><time>2026-03-22T11:54:41Z</time></trkpt><trkpt lat="24.904062890136956" lon="121.27391996811066"><ele>167.0</ele><time>2026-03-22T11:54:42Z</time></trkpt><trkpt lat="24.904104654584255" lon="121.27398005790742"><ele>167.0</ele><time>2026-03-22T11:54:43Z</time></trkpt><trkpt lat="24.904151574437293" lon="121.2740316262777"><ele>167.0</ele><time>2026-03-22T11:54:44Z</time></trkpt><trkpt lat="24.904193585626746" lon="121.27409197723253"><ele>167.0</ele><time>2026-03-22T11:54:45Z</time></trkpt><trkpt lat="24.904259653867403" lon="121.2742009265448"><ele>167.0</ele><time>2026-03-22T11:54:47Z</time></trkpt><trkpt lat="24.904329511002427" lon="121.27429734006611"><ele>167.0</ele><time>2026-03-22T11:54:49Z</time></trkpt><trkpt lat="24.904388160846505" lon="121.27438077335452"><ele>167.0</ele><time>2026-03-22T11:54:51Z</time></trkpt><trkpt lat="24.904446581288596" lon="121.27447281241169"><ele>167.0</ele><time>2026-03-22T11:54:53Z</time></trkpt><trkpt lat="24.904511920873343" lon="121.2745599887538"><ele>167.0</ele><time>2026-03-22T11:54:55Z</time></trkpt><trkpt lat="24.904579951864328" lon="121.27465356292191"><ele>167.0</ele><time>2026-03-22T11:54:57Z</time></trkpt><trkpt lat="24.904633705089115" lon="121.27474429197107"><ele>167.39999999999998</ele><time>2026-03-22T11:54:59Z</time></trkpt><trkpt lat="24.904688449711816" lon="121.27483749579551"><ele>167.79999999999998</ele><time>2026-03-22T11:55:01Z</time></trkpt><trkpt lat="24.904752217256668" lon="121.27493461013134"><ele>168.2</ele><time>2026-03-22T11:55:03Z</time></trkpt><trkpt lat="24.904819062577328" lon="121.27503229370161"><ele>168.6</ele><time>2026-03-22T11:55:05Z</time></trkpt><trkpt lat="24.904873037580863" lon="121.2751397024471"><ele>169.0</ele><time>2026-03-22T11:55:07Z</time></trkpt><trkpt lat="24.90493495786431" lon="121.27525583523496"><ele>169.0</ele><time>2026-03-22T11:55:09Z</time></trkpt><trkpt lat="24.904988766513807" lon="121.27532631240278"><ele>169.0</ele><time>2026-03-22T11:55:10Z</time></trkpt><trkpt lat="24.905026709852113" lon="121.27538904370215"><ele>169.0</ele><time>2026-03-22T11:55:11Z</time></trkpt><trkpt lat="24.905102669494603" lon="121.27550806457879"><ele>169.0</ele><time>2026-03-22T11:55:13Z</time></trkpt><trkpt lat="24.9051685546114" lon="121.27562095525148"><ele>169.0</ele><time>2026-03-22T11:55:15Z</time></trkpt><trkpt lat="24.905227128844334" lon="121.27573496648428"><ele>167.6</ele><time>2026-03-22T11:55:17Z</time></trkpt><trkpt lat="24.905267013190745" lon="121.27579512693113"><ele>166.2</ele><time>2026-03-22T11:55:18Z</time></trkpt><trkpt lat="24.905338706298007" lon="121.27591554529621"><ele>164.79999999999998</ele><time>2026-03-22T11:55:20Z</time></trkpt><trkpt lat="24.905391798694673" lon="121.27604849365686"><ele>163.39999999999998</ele><time>2026-03-22T11:55:22Z</time></trkpt><trkpt lat="24.90542080074587" lon="121.27612614192212"><ele>162.0</ele><time>2026-03-22T11:55:23Z</time></trkpt><trkpt lat="24.905467054777347" lon="121.27619636366343"><ele>162.0</ele><time>2026-03-22T11:55:24Z</time></trkpt><trkpt lat="24.905505012692686" lon="121.2762654666571"><ele>162.0</ele><time>2026-03-22T11:55:25Z</time></trkpt><trkpt lat="24.905542852170576" lon="121.27633611220405"><ele>162.0</ele><time>2026-03-22T11:55:26Z</time></trkpt><trkpt lat="24.905568549241714" lon="121.27640386490631"><ele>162.0</ele><time>2026-03-22T11:55:27Z</time></trkpt><trkpt lat="24.905597458832606" lon="121.27647257768172"><ele>162.0</ele><time>2026-03-22T11:55:28Z</time></trkpt><trkpt lat="24.905643746693876" lon="121.27653933020026"><ele>162.0</ele><time>2026-03-22T11:55:29Z</time></trkpt><trkpt lat="24.905677360900235" lon="121.27661571331349"><ele>162.0</ele><time>2026-03-22T11:55:30Z</time></trkpt><trkpt lat="24.90569884027584" lon="121.27668102741119"><ele>162.0</ele><time>2026-03-22T11:55:31Z</time></trkpt><trkpt lat="24.9057316087844" lon="121.27675602040215"><ele>162.0</ele><time>2026-03-22T11:55:32Z</time></trkpt><trkpt lat="24.905767760112372" lon="121.27682536959931"><ele>162.0</ele><time>2026-03-22T11:55:33Z</time></trkpt><trkpt lat="24.905805051747738" lon="121.27690591339044"><ele>162.0</ele><time>2026-03-22T11:55:34Z</time></trkpt><trkpt lat="24.905836845957186" lon="121.27697812178046"><ele>162.0</ele><time>2026-03-22T11:55:35Z</time></trkpt><trkpt lat="24.90586839120588" lon="121.27705551197106"><ele>162.0</ele><time>2026-03-22T11:55:36Z</time></trkpt><trkpt lat="24.90589552803251" lon="121.27712857818922"><ele>162.0</ele><time>2026-03-22T11:55:37Z</time></trkpt><trkpt lat="24.905925126403517" lon="121.277200644811"><ele>162.0</ele><time>2026-03-22T11:55:38Z</time></trkpt><trkpt lat="24.905954357912705" lon="121.27727259791585"><ele>162.0</ele><time>2026-03-22T11:55:39Z</time></trkpt><trkpt lat="24.905983907174342" lon="121.27734646231698"><ele>162.0</ele><time>2026-03-22T11:55:40Z</time></trkpt><trkpt lat="24.906011144964783" lon="121.27740959926129"><ele>162.0</ele><time>2026-03-22T11:55:41Z</time></trkpt><trkpt lat="24.906038702539846" lon="121.27747347740619"><ele>162.0</ele><time>2026-03-22T11:55:42.08Z</time></trkpt><trkpt lat="24.905953129838334" lon="121.27729561430098"><ele>165.0</ele><time>2026-03-22T11:55:44.054Z</time></trkpt><trkpt lat="24.90682826192429" lon="121.27950879710684"><ele>162.0</ele><time>2026-03-22T11:55:48.16Z</time></trkpt><trkpt lat="24.905950811997908" lon="121.27727356930949"><ele>151.0</ele><time>2026-03-22T11:56:21.033Z</time></trkpt><trkpt lat="24.908672591873227" lon="121.2883159522616"><ele>151.0</ele><time>2026-03-22T11:58:00Z</time></trkpt><trkpt lat="24.908714160530987" lon="121.28845774744634"><ele>151.0</ele><time>2026-03-22T11:58:02Z</time></trkpt><trkpt lat="24.908735251484817" lon="121.28852877383888"><ele>151.0</ele><time>2026-03-22T11:58:03Z</time></trkpt><trkpt lat="24.908804804561907" lon="121.28859433812826"><ele>151.0</ele><time>2026-03-22T11:58:04Z</time></trkpt><trkpt lat="24.908841231982233" lon="121.28867046077005"><ele>151.0</ele><time>2026-03-22T11:58:05Z</time></trkpt><trkpt lat="24.9088741316643" lon="121.28873830218409"><ele>151.0</ele><time>2026-03-22T11:58:06Z</time></trkpt><trkpt lat="24.908916732315518" lon="121.28881820426237"><ele>151.0</ele><time>2026-03-22T11:58:07Z</time></trkpt><trkpt lat="24.90895712335155" lon="121.28888692930786"><ele>151.0</ele><time>2026-03-22T11:58:08Z</time></trkpt><trkpt lat="24.90899932593509" lon="121.28895928015564"><ele>151.0</ele><time>2026-03-22T11:58:09Z</time></trkpt><trkpt lat="24.90904619052748" lon="121.2890403565069"><ele>151.0</ele><time>2026-03-22T11:58:10Z</time></trkpt><trkpt lat="24.90909530945512" lon="121.28911951497324"><ele>151.0</ele><time>2026-03-22T11:58:11Z</time></trkpt><trkpt lat="24.909142057610243" lon="121.28919544657938"><ele>151.0</ele><time>2026-03-22T11:58:12Z</time></trkpt><trkpt lat="24.9091929537722" lon="121.28927505184036"><ele>151.4</ele><time>2026-03-22T11:58:13Z</time></trkpt><trkpt lat="24.909241405469107" lon="121.2893552568846"><ele>151.8</ele><time>2026-03-22T11:58:14Z</time></trkpt><trkpt lat="24.909289277523257" lon="121.2894356802614"><ele>152.20000000000002</ele><time>2026-03-22T11:58:15Z</time></trkpt><trkpt lat="24.909342208111724" lon="121.28951911394734"><ele>152.6</ele><time>2026-03-22T11:58:16Z</time></trkpt><trkpt lat="24.909396609296827" lon="121.28960501935126"><ele>153.0</ele><time>2026-03-22T11:58:17Z</time></trkpt><trkpt lat="24.90945739406944" lon="121.28969724459283"><ele>150.0</ele><time>2026-03-22T11:58:18Z</time></trkpt><trkpt lat="24.909515079322308" lon="121.28978410399165"><ele>147.0</ele><time>2026-03-22T11:58:19Z</time></trkpt><trkpt lat="24.90957096616613" lon="121.289902387841"><ele>144.0</ele><time>2026-03-22T11:58:20Z</time></trkpt><trkpt lat="24.909629913385775" lon="121.28998592757593"><ele>141.0</ele><time>2026-03-22T11:58:21Z</time></trkpt><trkpt lat="24.90968916141081" lon="121.29007750533677"><ele>138.0</ele><time>2026-03-22T11:58:22Z</time></trkpt><trkpt lat="24.909747628461382" lon="121.29015967378507"><ele>138.0</ele><time>2026-03-22T11:58:23Z</time></trkpt><trkpt lat="24.909803421397502" lon="121.29022856009824"><ele>138.0</ele><time>2026-03-22T11:58:24Z</time></trkpt><trkpt lat="24.90986076340748" lon="121.29030805189552"><ele>138.0</ele><time>2026-03-22T11:58:25Z</time></trkpt><trkpt lat="24.909918012403057" lon="121.29038703297698"><ele>138.0</ele><time>2026-03-22T11:58:26Z</time></trkpt><trkpt lat="24.90997460785319" lon="121.29046465755178"><ele>138.0</ele><time>2026-03-22T11:58:27Z</time></trkpt><trkpt lat="24.910029826381372" lon="121.29054217448059"><ele>138.0</ele><time>2026-03-22T11:58:28Z</time></trkpt><trkpt lat="24.910089536489046" lon="121.29061967316602"><ele>136.83333333333334</ele><time>2026-03-22T11:58:29Z</time></trkpt><trkpt lat="24.910142968195338" lon="121.29069281340419"><ele>135.66666666666666</ele><time>2026-03-22T11:58:30Z</time></trkpt><trkpt lat="24.910201759642494" lon="121.29076230178023"><ele>134.5</ele><time>2026-03-22T11:58:31Z</time></trkpt><trkpt lat="24.910263974465952" lon="121.29082507142907"><ele>133.33333333333331</ele><time>2026-03-22T11:58:32Z</time></trkpt><trkpt lat="24.91032796504105" lon="121.29088343238828"><ele>132.16666666666666</ele><time>2026-03-22T11:58:33Z</time></trkpt><trkpt lat="24.91039152291279" lon="121.29094916639384"><ele>131.0</ele><time>2026-03-22T11:58:34Z</time></trkpt><trkpt lat="24.910445978491826" lon="121.29103651525718"><ele>131.0</ele><time>2026-03-22T11:58:35Z</time></trkpt><trkpt lat="24.91048749377797" lon="121.29109259947737"><ele>131.0</ele><time>2026-03-22T11:58:36Z</time></trkpt><trkpt lat="24.91053055455336" lon="121.29115572220631"><ele>131.0</ele><time>2026-03-22T11:58:37Z</time></trkpt><trkpt lat="24.910577561058993" lon="121.29121891404141"><ele>131.0</ele><time>2026-03-22T11:58:38Z</time></trkpt><trkpt lat="24.910630683018354" lon="121.29128641334924"><ele>131.0</ele><time>2026-03-22T11:58:39Z</time></trkpt><trkpt lat="24.910690297058732" lon="121.29135482050756"><ele>131.0</ele><time>2026-03-22T11:58:40Z</time></trkpt><trkpt lat="24.91075240371268" lon="121.29142066386538"><ele>130.83333333333331</ele><time>2026-03-22T11:58:41Z</time></trkpt><trkpt lat="24.910810061544996" lon="121.29148605894805"><ele>130.66666666666666</ele><time>2026-03-22T11:58:42Z</time></trkpt><trkpt lat="24.910872825532895" lon="121.29155605918598"><ele>130.5</ele><time>2026-03-22T11:58:43Z</time></trkpt><trkpt lat="24.910940167073605" lon="121.29162548673568"><ele>130.33333333333334</ele><time>2026-03-22T11:58:44Z</time></trkpt><trkpt lat="24.911006068833156" lon="121.29169603910563"><ele>130.16666666666669</ele><time>2026-03-22T11:58:45Z</time></trkpt><trkpt lat="24.911072094083266" lon="121.29176262773684"><ele>130.0</ele><time>2026-03-22T11:58:46Z</time></trkpt><trkpt lat="24.911139652782772" lon="121.29183077816718"><ele>130.0</ele><time>2026-03-22T11:58:47Z</time></trkpt><trkpt lat="24.911211390709234" lon="121.29190468915058"><ele>130.0</ele><time>2026-03-22T11:58:48Z</time></trkpt><trkpt lat="24.911281308132224" lon="121.29197573416383"><ele>130.0</ele><time>2026-03-22T11:58:49Z</time></trkpt><trkpt lat="24.911353189955147" lon="121.29204490520063"><ele>130.0</ele><time>2026-03-22T11:58:50Z</time></trkpt><trkpt lat="24.911424725207695" lon="121.29211041874201"><ele>130.0</ele><time>2026-03-22T11:58:51Z</time></trkpt><trkpt lat="24.91149058758946" lon="121.29217083999187"><ele>130.0</ele><time>2026-03-22T11:58:52Z</time></trkpt><trkpt lat="24.91156633320241" lon="121.2922370293279"><ele>130.0</ele><time>2026-03-22T11:58:53Z</time></trkpt><trkpt lat="24.911633938499882" lon="121.29229776983424"><ele>130.0</ele><time>2026-03-22T11:58:54Z</time></trkpt><trkpt lat="24.91170728931883" lon="121.29236484961699"><ele>130.0</ele><time>2026-03-22T11:58:55Z</time></trkpt><trkpt lat="24.911787702051107" lon="121.29243553040968"><ele>130.0</ele><time>2026-03-22T11:58:56Z</time></trkpt><trkpt lat="24.911859075722994" lon="121.29249845465006"><ele>128.2</ele><time>2026-03-22T11:58:57Z</time></trkpt><trkpt lat="24.911934425024025" lon="121.29256247815738"><ele>126.4</ele><time>2026-03-22T11:58:58Z</time></trkpt><trkpt lat="24.912011192158335" lon="121.292624265051"><ele>124.6</ele><time>2026-03-22T11:58:59Z</time></trkpt><trkpt lat="24.91208552803979" lon="121.29268491592737"><ele>122.8</ele><time>2026-03-22T11:59:00Z</time></trkpt><trkpt lat="24.91216057390366" lon="121.2927464330882"><ele>121.0</ele><time>2026-03-22T11:59:01Z</time></trkpt><trkpt lat="24.912234651468488" lon="121.29280637200215"><ele>121.0</ele><time>2026-03-22T11:59:02Z</time></trkpt><trkpt lat="24.91231639141929" lon="121.2928648830826"><ele>121.0</ele><time>2026-03-22T11:59:03Z</time></trkpt><trkpt lat="24.912398773130555" lon="121.29292800523899"><ele>121.0</ele><time>2026-03-22T11:59:04Z</time></trkpt><trkpt lat="24.91247979299435" lon="121.29298621506037"><ele>121.0</ele><time>2026-03-22T11:59:05Z</time></trkpt><trkpt lat="24.91256635261789" lon="121.29304416574983"><ele>121.0</ele><time>2026-03-22T11:59:06Z</time></trkpt><trkpt lat="24.91264889559988" lon="121.29310064136288"><ele>120.0</ele><time>2026-03-22T11:59:07Z</time></trkpt><trkpt lat="24.912732974370133" lon="121.29315850445204"><ele>119.0</ele><time>2026-03-22T11:59:08Z</time></trkpt><trkpt lat="24.91281655553231" lon="121.29321575877239"><ele>118.0</ele><time>2026-03-22T11:59:09Z</time></trkpt><trkpt lat="24.91290033289362" lon="121.29327036418553"><ele>117.0</ele><time>2026-03-22T11:59:10Z</time></trkpt><trkpt lat="24.912992189961898" lon="121.29332786784663"><ele>116.0</ele><time>2026-03-22T11:59:11Z</time></trkpt><trkpt lat="24.91307008825034" lon="121.29337456878152"><ele>115.99999999999999</ele><time>2026-03-22T11:59:12Z</time></trkpt><trkpt lat="24.913147433201395" lon="121.2934273331169"><ele>116.0</ele><time>2026-03-22T11:59:13Z</time></trkpt><trkpt lat="24.913217015559667" lon="121.29346894137774"><ele>116.0</ele><time>2026-03-22T11:59:14Z</time></trkpt><trkpt lat="24.91329087761153" lon="121.29352060223857"><ele>116.0</ele><time>2026-03-22T11:59:15Z</time></trkpt><trkpt lat="24.913359002444164" lon="121.29356696363178"><ele>115.99999999999999</ele><time>2026-03-22T11:59:16Z</time></trkpt><trkpt lat="24.913441748885724" lon="121.29361832109586"><ele>116.0</ele><time>2026-03-22T11:59:17Z</time></trkpt><trkpt lat="24.913528878494787" lon="121.29366881303174"><ele>115.83333333333333</ele><time>2026-03-22T11:59:18Z</time></trkpt><trkpt lat="24.913614048538463" lon="121.29371646636305"><ele>115.66666666666666</ele><time>2026-03-22T11:59:19Z</time></trkpt><trkpt lat="24.913683974734198" lon="121.29375730527796"><ele>115.5</ele><time>2026-03-22T11:59:20Z</time></trkpt><trkpt lat="24.913763922058084" lon="121.29380391473329"><ele>115.33333333333334</ele><time>2026-03-22T11:59:21Z</time></trkpt><trkpt lat="24.91384147773414" lon="121.29384436564007"><ele>115.16666666666667</ele><time>2026-03-22T11:59:22Z</time></trkpt><trkpt lat="24.913923955055502" lon="121.29388999072968"><ele>115.0</ele><time>2026-03-22T11:59:23Z</time></trkpt><trkpt lat="24.913996501033317" lon="121.29393054729202"><ele>114.66666666666667</ele><time>2026-03-22T11:59:24Z</time></trkpt><trkpt lat="24.91407294146944" lon="121.29396655506615"><ele>114.33333333333334</ele><time>2026-03-22T11:59:25Z</time></trkpt><trkpt lat="24.9141442792743" lon="121.29400388374896"><ele>114.0</ele><time>2026-03-22T11:59:26Z</time></trkpt><trkpt lat="24.91421660953568" lon="121.2940422968003"><ele>113.66666666666666</ele><time>2026-03-22T11:59:27Z</time></trkpt><trkpt lat="24.91429253943298" lon="121.2940824566961"><ele>113.33333333333333</ele><time>2026-03-22T11:59:28Z</time></trkpt><trkpt lat="24.914366111282227" lon="121.29411906971403"><ele>113.0</ele><time>2026-03-22T11:59:29Z</time></trkpt><trkpt lat="24.91444015638674" lon="121.29415672524742"><ele>112.99999999999999</ele><time>2026-03-22T11:59:30Z</time></trkpt><trkpt lat="24.914508783926667" lon="121.29419864833777"><ele>113.0</ele><time>2026-03-22T11:59:31Z</time></trkpt><trkpt lat="24.91457727893462" lon="121.29423541989358"><ele>113.0</ele><time>2026-03-22T11:59:32Z</time></trkpt><trkpt lat="24.914648495706285" lon="121.29427449655562"><ele>113.0</ele><time>2026-03-22T11:59:33Z</time></trkpt><trkpt lat="24.914719939283632" lon="121.29430950402711"><ele>112.99999999999999</ele><time>2026-03-22T11:59:34Z</time></trkpt><trkpt lat="24.91479402969895" lon="121.29434694933875"><ele>113.0</ele><time>2026-03-22T11:59:35Z</time></trkpt><trkpt lat="24.914861011074578" lon="121.2943824608514"><ele>112.99999999999999</ele><time>2026-03-22T11:59:36Z</time></trkpt><trkpt lat="24.914923161396676" lon="121.29441747853302"><ele>113.0</ele><time>2026-03-22T11:59:37Z</time></trkpt><trkpt lat="24.914989088441683" lon="121.2944551772682"><ele>113.0</ele><time>2026-03-22T11:59:38Z</time></trkpt><trkpt lat="24.91505051169202" lon="121.29449093086997"><ele>113.0</ele><time>2026-03-22T11:59:39Z</time></trkpt><trkpt lat="24.915117028574624" lon="121.29452312935518"><ele>112.99999999999999</ele><time>2026-03-22T11:59:40Z</time></trkpt><trkpt lat="24.91517712868378" lon="121.29455037949232"><ele>113.0</ele><time>2026-03-22T11:59:41Z</time></trkpt><trkpt lat="24.915279704651493" lon="121.29459709720823"><ele>112.83333333333333</ele><time>2026-03-22T11:59:43Z</time></trkpt><trkpt lat="24.915359554301627" lon="121.29461711455605"><ele>112.66666666666666</ele><time>2026-03-22T11:59:45Z</time></trkpt><trkpt lat="24.915457013335615" lon="121.29466956679141"><ele>112.5</ele><time>2026-03-22T11:59:48Z</time></trkpt><trkpt lat="24.915556997299316" lon="121.29470428757728"><ele>112.33333333333334</ele><time>2026-03-22T11:59:51Z</time></trkpt><trkpt lat="24.915620917676296" lon="121.2947435336003"><ele>112.16666666666667</ele><time>2026-03-22T12:00:00Z</time></trkpt><trkpt lat="24.91567771452293" lon="121.29477941623797"><ele>112.0</ele><time>2026-03-22T12:00:03Z</time></trkpt><trkpt lat="24.91575548675192" lon="121.2948353356077"><ele>112.0</ele><time>2026-03-22T12:00:07Z</time></trkpt><trkpt lat="24.91583565698264" lon="121.29488688298709"><ele>111.99999999999999</ele><time>2026-03-22T12:00:10Z</time></trkpt><trkpt lat="24.91590997389318" lon="121.29492749479019"><ele>111.99999999999999</ele><time>2026-03-22T12:00:12Z</time></trkpt><trkpt lat="24.916007449220846" lon="121.29497685717256"><ele>112.0</ele><time>2026-03-22T12:00:14Z</time></trkpt><trkpt lat="24.91609141645801" lon="121.29502651316795"><ele>112.0</ele><time>2026-03-22T12:00:16Z</time></trkpt><trkpt lat="24.916176791191386" lon="121.2950681707276"><ele>114.0</ele><time>2026-03-22T12:00:18Z</time></trkpt><trkpt lat="24.916264357315654" lon="121.29511298408306"><ele>115.99999999999999</ele><time>2026-03-22T12:00:20Z</time></trkpt><trkpt lat="24.91634198982972" lon="121.29515983524267"><ele>117.99999999999999</ele><time>2026-03-22T12:00:22Z</time></trkpt><trkpt lat="24.916418430361734" lon="121.29520654304115"><ele>120.0</ele><time>2026-03-22T12:00:24Z</time></trkpt><trkpt lat="24.916512733322072" lon="121.2952506298443"><ele>122.0</ele><time>2026-03-22T12:00:26Z</time></trkpt><trkpt lat="24.916594351992234" lon="121.29529241370362"><ele>122.0</ele><time>2026-03-22T12:00:28Z</time></trkpt><trkpt lat="24.916674296834028" lon="121.29533036839607"><ele>121.99999999999999</ele><time>2026-03-22T12:00:30Z</time></trkpt><trkpt lat="24.91677460793886" lon="121.29538054882225"><ele>121.99999999999999</ele><time>2026-03-22T12:00:32Z</time></trkpt><trkpt lat="24.916880046233157" lon="121.29543343652341"><ele>122.0</ele><time>2026-03-22T12:00:34Z</time></trkpt><trkpt lat="24.916977459274673" lon="121.29548648482353"><ele>122.0</ele><time>2026-03-22T12:00:36Z</time></trkpt><trkpt lat="24.91703843428694" lon="121.29552064226468"><ele>120.49999999999999</ele><time>2026-03-22T12:00:37Z</time></trkpt><trkpt lat="24.917105135163162" lon="121.29555760333169"><ele>119.0</ele><time>2026-03-22T12:00:38Z</time></trkpt><trkpt lat="24.917171640274493" lon="121.29559474591834"><ele>117.5</ele><time>2026-03-22T12:00:39Z</time></trkpt><trkpt lat="24.917240226373533" lon="121.29563417581"><ele>116.0</ele><time>2026-03-22T12:00:40Z</time></trkpt><trkpt lat="24.917314033671396" lon="121.2956748951718"><ele>114.49999999999999</ele><time>2026-03-22T12:00:41Z</time></trkpt><trkpt lat="24.917389151175264" lon="121.29571391918286"><ele>113.0</ele><time>2026-03-22T12:00:42Z</time></trkpt><trkpt lat="24.917465100278147" lon="121.29575528028515"><ele>113.0</ele><time>2026-03-22T12:00:43Z</time></trkpt><trkpt lat="24.91754386146827" lon="121.29579841935627"><ele>113.00000000000001</ele><time>2026-03-22T12:00:44Z</time></trkpt><trkpt lat="24.9176225165713" lon="121.29584347906622"><ele>113.00000000000001</ele><time>2026-03-22T12:00:45Z</time></trkpt><trkpt lat="24.917703027456096" lon="121.29589453440254"><ele>113.0</ele><time>2026-03-22T12:00:46Z</time></trkpt><trkpt lat="24.91778076599981" lon="121.29594319924188"><ele>113.0</ele><time>2026-03-22T12:00:47Z</time></trkpt><trkpt lat="24.917860017083594" lon="121.2959931189538"><ele>114.80000000000001</ele><time>2026-03-22T12:00:48Z</time></trkpt><trkpt lat="24.917933130022405" lon="121.29603817827262"><ele>116.60000000000001</ele><time>2026-03-22T12:00:49Z</time></trkpt><trkpt lat="24.91801384629559" lon="121.2960881614656"><ele>118.39999999999999</ele><time>2026-03-22T12:00:50Z</time></trkpt><trkpt lat="24.918094762621426" lon="121.29614039581463"><ele>120.19999999999999</ele><time>2026-03-22T12:00:51Z</time></trkpt><trkpt lat="24.918178020000727" lon="121.29619561352574"><ele>122.0</ele><time>2026-03-22T12:00:52Z</time></trkpt><trkpt lat="24.9182761181276" lon="121.29625578698315"><ele>122.0</ele><time>2026-03-22T12:00:53Z</time></trkpt><trkpt lat="24.918359392600767" lon="121.29631065519953"><ele>121.99999999999999</ele><time>2026-03-22T12:00:54Z</time></trkpt><trkpt lat="24.91844101410418" lon="121.2963683225815"><ele>121.99999999999999</ele><time>2026-03-22T12:00:55Z</time></trkpt><trkpt lat="24.918522725405072" lon="121.29642527596533"><ele>122.0</ele><time>2026-03-22T12:00:56Z</time></trkpt><trkpt lat="24.918607084227908" lon="121.29648684304323"><ele>122.0</ele><time>2026-03-22T12:00:57Z</time></trkpt><trkpt lat="24.91869398499945" lon="121.29654940081183"><ele>120.39999999999999</ele><time>2026-03-22T12:00:58Z</time></trkpt><trkpt lat="24.918784663686985" lon="121.29661166526164"><ele>118.79999999999998</ele><time>2026-03-22T12:00:59Z</time></trkpt><trkpt lat="24.918874979321956" lon="121.29667747471333"><ele>117.2</ele><time>2026-03-22T12:01:00Z</time></trkpt><trkpt lat="24.918961246861226" lon="121.29674030587195"><ele>115.6</ele><time>2026-03-22T12:01:01Z</time></trkpt><trkpt lat="24.919043257591486" lon="121.29680430280013"><ele>114.0</ele><time>2026-03-22T12:01:02Z</time></trkpt><trkpt lat="24.919124229589475" lon="121.29686772639415"><ele>114.0</ele><time>2026-03-22T12:01:03Z</time></trkpt><trkpt lat="24.919209981082464" lon="121.2969344363134"><ele>114.0</ele><time>2026-03-22T12:01:04Z</time></trkpt><trkpt lat="24.919291055771623" lon="121.29699757798129"><ele>114.0</ele><time>2026-03-22T12:01:05Z</time></trkpt><trkpt lat="24.919372259972324" lon="121.29706060726093"><ele>114.0</ele><time>2026-03-22T12:01:06Z</time></trkpt><trkpt lat="24.919452195976056" lon="121.29712557205586"><ele>114.0</ele><time>2026-03-22T12:01:07Z</time></trkpt><trkpt lat="24.919532761360074" lon="121.2971912212654"><ele>112.2</ele><time>2026-03-22T12:01:08Z</time></trkpt><trkpt lat="24.91961288280321" lon="121.29726182256611"><ele>110.4</ele><time>2026-03-22T12:01:09Z</time></trkpt><trkpt lat="24.9196936775536" lon="121.29733457440861"><ele>108.6</ele><time>2026-03-22T12:01:10Z</time></trkpt><trkpt lat="24.919775457589125" lon="121.29740381430433"><ele>106.8</ele><time>2026-03-22T12:01:11Z</time></trkpt><trkpt lat="24.919848410887884" lon="121.29746956531093"><ele>105.0</ele><time>2026-03-22T12:01:12Z</time></trkpt><trkpt lat="24.91992488147002" lon="121.29754347170612"><ele>105.0</ele><time>2026-03-22T12:01:13Z</time></trkpt><trkpt lat="24.920008846477334" lon="121.29760952428718"><ele>105.0</ele><time>2026-03-22T12:01:14Z</time></trkpt><trkpt lat="24.920095639875363" lon="121.29768928623963"><ele>105.0</ele><time>2026-03-22T12:01:15Z</time></trkpt><trkpt lat="24.920180056787583" lon="121.29776861816889"><ele>105.0</ele><time>2026-03-22T12:01:16Z</time></trkpt><trkpt lat="24.920278940101888" lon="121.29786632919397"><ele>105.0</ele><time>2026-03-22T12:01:17Z</time></trkpt><trkpt lat="24.920358554918554" lon="121.29794497395785"><ele>105.0</ele><time>2026-03-22T12:01:18Z</time></trkpt><trkpt lat="24.920443182702567" lon="121.29802995004808"><ele>105.0</ele><time>2026-03-22T12:01:19Z</time></trkpt><trkpt lat="24.92053515474625" lon="121.29812240681419"><ele>105.0</ele><time>2026-03-22T12:01:20Z</time></trkpt><trkpt lat="24.920616829107136" lon="121.29820923421472"><ele>105.0</ele><time>2026-03-22T12:01:21Z</time></trkpt><trkpt lat="24.920693703546974" lon="121.29829078120821"><ele>105.0</ele><time>2026-03-22T12:01:22Z</time></trkpt><trkpt lat="24.920771710290843" lon="121.2983755373709"><ele>105.0</ele><time>2026-03-22T12:01:23Z</time></trkpt><trkpt lat="24.92084261146556" lon="121.29845201378714"><ele>105.0</ele><time>2026-03-22T12:01:24Z</time></trkpt><trkpt lat="24.920910884949166" lon="121.29852537829525"><ele>105.0</ele><time>2026-03-22T12:01:25Z</time></trkpt><trkpt lat="24.920976867356714" lon="121.2985981025853"><ele>104.4</ele><time>2026-03-22T12:01:26Z</time></trkpt><trkpt lat="24.92103529777307" lon="121.29866258116621"><ele>103.8</ele><time>2026-03-22T12:01:27Z</time></trkpt><trkpt lat="24.92109871448702" lon="121.29873459003969"><ele>103.19999999999999</ele><time>2026-03-22T12:01:28Z</time></trkpt><trkpt lat="24.92116415616309" lon="121.29881289606803"><ele>102.6</ele><time>2026-03-22T12:01:29Z</time></trkpt><trkpt lat="24.921232860046622" lon="121.29889786651485"><ele>102.0</ele><time>2026-03-22T12:01:30Z</time></trkpt><trkpt lat="24.921294559915818" lon="121.298978164804"><ele>102.0</ele><time>2026-03-22T12:01:31Z</time></trkpt><trkpt lat="24.921351832587437" lon="121.29905652714702"><ele>102.0</ele><time>2026-03-22T12:01:32Z</time></trkpt><trkpt lat="24.921422471543817" lon="121.29914812694687"><ele>102.0</ele><time>2026-03-22T12:01:33Z</time></trkpt><trkpt lat="24.921508676481587" lon="121.29925871592012"><ele>102.0</ele><time>2026-03-22T12:01:34Z</time></trkpt><trkpt lat="24.92159313480843" lon="121.29937347861285"><ele>102.0</ele><time>2026-03-22T12:01:35Z</time></trkpt><trkpt lat="24.921684447823257" lon="121.29949067862692"><ele>102.0</ele><time>2026-03-22T12:01:36Z</time></trkpt><trkpt lat="24.921791327872786" lon="121.29961394736257"><ele>102.0</ele><time>2026-03-22T12:01:37Z</time></trkpt><trkpt lat="24.921897813841834" lon="121.29977105184906"><ele>100.75</ele><time>2026-03-22T12:01:38Z</time></trkpt><trkpt lat="24.921984730213396" lon="121.2998927842571"><ele>99.5</ele><time>2026-03-22T12:01:39Z</time></trkpt><trkpt lat="24.922075030632158" lon="121.30002662377572"><ele>98.25</ele><time>2026-03-22T12:01:40Z</time></trkpt><trkpt lat="24.92216964202118" lon="121.30016480114544"><ele>97.0</ele><time>2026-03-22T12:01:41Z</time></trkpt><trkpt lat="24.922262726126863" lon="121.30030802269827"><ele>97.0</ele><time>2026-03-22T12:01:42Z</time></trkpt><trkpt lat="24.922351723424754" lon="121.30045615561228"><ele>97.0</ele><time>2026-03-22T12:01:43Z</time></trkpt><trkpt lat="24.922446709738335" lon="121.30059577220614"><ele>97.0</ele><time>2026-03-22T12:01:44Z</time></trkpt><trkpt lat="24.922535082326267" lon="121.30073771803902"><ele>97.0</ele><time>2026-03-22T12:01:45Z</time></trkpt><trkpt lat="24.9226182999305" lon="121.30087584067502"><ele>97.0</ele><time>2026-03-22T12:01:46Z</time></trkpt><trkpt lat="24.92268918154767" lon="121.30100858314017"><ele>97.0</ele><time>2026-03-22T12:01:47Z</time></trkpt><trkpt lat="24.922777559168566" lon="121.30116622368558"><ele>97.0</ele><time>2026-03-22T12:01:48Z</time></trkpt><trkpt lat="24.92270860920785" lon="121.30098347340865"><ele>97.0</ele><time>2026-03-22T12:01:49Z</time></trkpt><trkpt lat="24.92277870676477" lon="121.30110170069385"><ele>97.0</ele><time>2026-03-22T12:01:50Z</time></trkpt><trkpt lat="24.922846226259" lon="121.30122291559259"><ele>97.0</ele><time>2026-03-22T12:01:51Z</time></trkpt><trkpt lat="24.92291281021685" lon="121.30133777532703"><ele>95.5</ele><time>2026-03-22T12:01:52Z</time></trkpt><trkpt lat="24.92297762647902" lon="121.30145148566973"><ele>94.0</ele><time>2026-03-22T12:01:53Z</time></trkpt><trkpt lat="24.923042790759663" lon="121.30157979883208"><ele>92.5</ele><time>2026-03-22T12:01:54Z</time></trkpt><trkpt lat="24.923109321813648" lon="121.30170499344904"><ele>91.0</ele><time>2026-03-22T12:01:55Z</time></trkpt><trkpt lat="24.923177236994512" lon="121.30183304800585"><ele>91.0</ele><time>2026-03-22T12:01:56Z</time></trkpt><trkpt lat="24.92324338226169" lon="121.301962607935"><ele>91.0</ele><time>2026-03-22T12:01:57Z</time></trkpt><trkpt lat="24.923311715899565" lon="121.30208900619506"><ele>91.0</ele><time>2026-03-22T12:01:58Z</time></trkpt><trkpt lat="24.923383304675585" lon="121.30222040683277"><ele>91.0</ele><time>2026-03-22T12:01:59Z</time></trkpt><trkpt lat="24.923450812193764" lon="121.30235082941103"><ele>90.5</ele><time>2026-03-22T12:02:00Z</time></trkpt><trkpt lat="24.923513251477495" lon="121.30247689986109"><ele>90.0</ele><time>2026-03-22T12:02:01Z</time></trkpt><trkpt lat="24.923577309533446" lon="121.30260935758798"><ele>89.5</ele><time>2026-03-22T12:02:02Z</time></trkpt><trkpt lat="24.92363527469644" lon="121.3027326538953"><ele>89.0</ele><time>2026-03-22T12:02:03Z</time></trkpt><trkpt lat="24.9236898483188" lon="121.30284167558123"><ele>89.0</ele><time>2026-03-22T12:02:04Z</time></trkpt><trkpt lat="24.923743948699148" lon="121.30295215251071"><ele>89.0</ele><time>2026-03-22T12:02:05Z</time></trkpt><trkpt lat="24.923797365141013" lon="121.30306538131927"><ele>89.0</ele><time>2026-03-22T12:02:06Z</time></trkpt><trkpt lat="24.923851782899362" lon="121.30318536502183"><ele>89.0</ele><time>2026-03-22T12:02:07Z</time></trkpt><trkpt lat="24.923907942256456" lon="121.30330326850117"><ele>89.5</ele><time>2026-03-22T12:02:08Z</time></trkpt><trkpt lat="24.923960222465816" lon="121.30341455351186"><ele>90.0</ele><time>2026-03-22T12:02:09Z</time></trkpt><trkpt lat="24.92400955555503" lon="121.30352838492739"><ele>90.5</ele><time>2026-03-22T12:02:10Z</time></trkpt><trkpt lat="24.924070884937237" lon="121.30365329339116"><ele>91.0</ele><time>2026-03-22T12:02:11Z</time></trkpt><trkpt lat="24.924132396823843" lon="121.30378195605502"><ele>91.0</ele><time>2026-03-22T12:02:12Z</time></trkpt><trkpt lat="24.9241867289241" lon="121.30390383566998"><ele>91.0</ele><time>2026-03-22T12:02:13Z</time></trkpt><trkpt lat="24.9242423484761" lon="121.3040207621996"><ele>91.0</ele><time>2026-03-22T12:02:14Z</time></trkpt><trkpt lat="24.92429615369537" lon="121.30414502547825"><ele>91.0</ele><time>2026-03-22T12:02:15Z</time></trkpt><trkpt lat="24.92435369131848" lon="121.30427853713574"><ele>90.5</ele><time>2026-03-22T12:02:16Z</time></trkpt><trkpt lat="24.924415109799433" lon="121.30440414710002"><ele>90.0</ele><time>2026-03-22T12:02:17Z</time></trkpt><trkpt lat="24.924472492211418" lon="121.3045276172522"><ele>89.5</ele><time>2026-03-22T12:02:18Z</time></trkpt><trkpt lat="24.924527609575218" lon="121.30465139641917"><ele>89.0</ele><time>2026-03-22T12:02:19Z</time></trkpt><trkpt lat="24.92458112049609" lon="121.30476903379765"><ele>88.75</ele><time>2026-03-22T12:02:20Z</time></trkpt><trkpt lat="24.924639378169815" lon="121.30489246623596"><ele>88.5</ele><time>2026-03-22T12:02:21Z</time></trkpt><trkpt lat="24.92469695427847" lon="121.30501635502397"><ele>88.25</ele><time>2026-03-22T12:02:22Z</time></trkpt><trkpt lat="24.924750990698325" lon="121.30513183401433"><ele>88.0</ele><time>2026-03-22T12:02:23Z</time></trkpt><trkpt lat="24.924807393778007" lon="121.30524940432186"><ele>88.0</ele><time>2026-03-22T12:02:24Z</time></trkpt><trkpt lat="24.924866015237082" lon="121.30536875741117"><ele>88.0</ele><time>2026-03-22T12:02:25Z</time></trkpt><trkpt lat="24.924927766141987" lon="121.30549191918108"><ele>88.0</ele><time>2026-03-22T12:02:26Z</time></trkpt><trkpt lat="24.924981960518785" lon="121.30560643778426"><ele>88.0</ele><time>2026-03-22T12:02:27Z</time></trkpt><trkpt lat="24.925040503982096" lon="121.30572912181765"><ele>87.5</ele><time>2026-03-22T12:02:28Z</time></trkpt><trkpt lat="24.92509887178902" lon="121.30585004313401"><ele>87.0</ele><time>2026-03-22T12:02:29Z</time></trkpt><trkpt lat="24.925159540631537" lon="121.30596500381095"><ele>86.5</ele><time>2026-03-22T12:02:30Z</time></trkpt><trkpt lat="24.925218134224256" lon="121.3060782127187"><ele>86.0</ele><time>2026-03-22T12:02:31Z</time></trkpt><trkpt lat="24.925274707605567" lon="121.30619215204914"><ele>86.0</ele><time>2026-03-22T12:02:32Z</time></trkpt><trkpt lat="24.925331927665773" lon="121.3063001330681"><ele>86.0</ele><time>2026-03-22T12:02:33Z</time></trkpt><trkpt lat="24.925381678468543" lon="121.30640139753606"><ele>86.0</ele><time>2026-03-22T12:02:34Z</time></trkpt><trkpt lat="24.92542970291244" lon="121.30648580585812"><ele>86.0</ele><time>2026-03-22T12:02:35Z</time></trkpt><trkpt lat="24.925475525876926" lon="121.30656832592666"><ele>86.0</ele><time>2026-03-22T12:02:36Z</time></trkpt><trkpt lat="24.925525303893092" lon="121.3066520417782"><ele>85.83333333333334</ele><time>2026-03-22T12:02:37Z</time></trkpt><trkpt lat="24.925572050698662" lon="121.30674223336672"><ele>85.66666666666667</ele><time>2026-03-22T12:02:38Z</time></trkpt><trkpt lat="24.925616657969798" lon="121.30683728169446"><ele>85.5</ele><time>2026-03-22T12:02:39Z</time></trkpt><trkpt lat="24.925659590595743" lon="121.30691871082065"><ele>85.33333333333333</ele><time>2026-03-22T12:02:40Z</time></trkpt><trkpt lat="24.925701492430232" lon="121.30698693070605"><ele>85.16666666666666</ele><time>2026-03-22T12:02:41Z</time></trkpt><trkpt lat="24.925743901056375" lon="121.30704953194683"><ele>85.0</ele><time>2026-03-22T12:02:42Z</time></trkpt><trkpt lat="24.925781637693984" lon="121.30712073750414"><ele>85.0</ele><time>2026-03-22T12:02:43Z</time></trkpt><trkpt lat="24.925821800549787" lon="121.30719798343341"><ele>85.0</ele><time>2026-03-22T12:02:44Z</time></trkpt><trkpt lat="24.92586509804227" lon="121.30727187574264"><ele>85.0</ele><time>2026-03-22T12:02:45Z</time></trkpt><trkpt lat="24.925908258844597" lon="121.30734355031099"><ele>85.0</ele><time>2026-03-22T12:02:46Z</time></trkpt><trkpt lat="24.925951287198632" lon="121.307415894049"><ele>85.0</ele><time>2026-03-22T12:02:47Z</time></trkpt><trkpt lat="24.925993436309568" lon="121.30748739930024"><ele>85.0</ele><time>2026-03-22T12:02:48Z</time></trkpt><trkpt lat="24.926033283881747" lon="121.3075556520068"><ele>84.42857142857143</ele><time>2026-03-22T12:02:49Z</time></trkpt><trkpt lat="24.926073830435808" lon="121.3076221917523"><ele>83.85714285714285</ele><time>2026-03-22T12:02:50Z</time></trkpt><trkpt lat="24.9261133254856" lon="121.30768837924906"><ele>83.28571428571428</ele><time>2026-03-22T12:02:51Z</time></trkpt><trkpt lat="24.926153858930576" lon="121.30775574408635"><ele>82.71428571428572</ele><time>2026-03-22T12:02:52Z</time></trkpt><trkpt lat="24.926192542449144" lon="121.30782186767809"><ele>82.14285714285714</ele><time>2026-03-22T12:02:53Z</time></trkpt><trkpt lat="24.926230842510165" lon="121.30788209276308"><ele>81.57142857142857</ele><time>2026-03-22T12:02:54Z</time></trkpt><trkpt lat="24.92626983443807" lon="121.30794538384039"><ele>81.0</ele><time>2026-03-22T12:02:55Z</time></trkpt><trkpt lat="24.92632928578828" lon="121.30804064193549"><ele>82.19999999999999</ele><time>2026-03-22T12:02:57Z</time></trkpt><trkpt lat="24.926389675642444" lon="121.30813348167545"><ele>83.39999999999999</ele><time>2026-03-22T12:02:59Z</time></trkpt><trkpt lat="24.926450939176213" lon="121.30823126904306"><ele>84.6</ele><time>2026-03-22T12:03:01Z</time></trkpt><trkpt lat="24.92651255933053" lon="121.30832235080031"><ele>85.8</ele><time>2026-03-22T12:03:03Z</time></trkpt><trkpt lat="24.926576253452094" lon="121.3084166389334"><ele>87.0</ele><time>2026-03-22T12:03:05Z</time></trkpt><trkpt lat="24.926649808587104" lon="121.30852404938837"><ele>87.0</ele><time>2026-03-22T12:03:07Z</time></trkpt><trkpt lat="24.926689155043892" lon="121.30858330035412"><ele>87.0</ele><time>2026-03-22T12:03:08Z</time></trkpt><trkpt lat="24.926765490131814" lon="121.3086946099519"><ele>87.0</ele><time>2026-03-22T12:03:10Z</time></trkpt><trkpt lat="24.926803633615034" lon="121.30875372879909"><ele>87.0</ele><time>2026-03-22T12:03:11Z</time></trkpt><trkpt lat="24.926841176564185" lon="121.30881408455596"><ele>87.0</ele><time>2026-03-22T12:03:12Z</time></trkpt><trkpt lat="24.926926958745277" lon="121.30893687024334"><ele>86.66666666666667</ele><time>2026-03-22T12:03:14Z</time></trkpt><trkpt lat="24.92697136617985" lon="121.30900087910547"><ele>86.33333333333333</ele><time>2026-03-22T12:03:15Z</time></trkpt><trkpt lat="24.927015686410186" lon="121.30906278860138"><ele>86.0</ele><time>2026-03-22T12:03:16Z</time></trkpt><trkpt lat="24.92706545947055" lon="121.30912601986424"><ele>85.66666666666666</ele><time>2026-03-22T12:03:17Z</time></trkpt><trkpt lat="24.927118386340055" lon="121.3091908630106"><ele>85.33333333333333</ele><time>2026-03-22T12:03:18Z</time></trkpt><trkpt lat="24.927163927123573" lon="121.30925851309088"><ele>85.0</ele><time>2026-03-22T12:03:19Z</time></trkpt><trkpt lat="24.927207033252625" lon="121.30932589261673"><ele>85.0</ele><time>2026-03-22T12:03:20Z</time></trkpt><trkpt lat="24.927251797146766" lon="121.30939009942637"><ele>85.0</ele><time>2026-03-22T12:03:21Z</time></trkpt><trkpt lat="24.92730014422564" lon="121.30945083999022"><ele>85.0</ele><time>2026-03-22T12:03:22Z</time></trkpt><trkpt lat="24.927355221282824" lon="121.3095141874425"><ele>85.0</ele><time>2026-03-22T12:03:23Z</time></trkpt><trkpt lat="24.9274064098835" lon="121.30957737347309"><ele>85.0</ele><time>2026-03-22T12:03:24Z</time></trkpt><trkpt lat="24.927458202792895" lon="121.30964318365947"><ele>85.0</ele><time>2026-03-22T12:03:25Z</time></trkpt><trkpt lat="24.927512577737552" lon="121.30971343477027"><ele>85.16666666666666</ele><time>2026-03-22T12:03:26Z</time></trkpt><trkpt lat="24.92756682387128" lon="121.30978305707383"><ele>85.33333333333333</ele><time>2026-03-22T12:03:27Z</time></trkpt><trkpt lat="24.92762286062957" lon="121.30985626304653"><ele>85.5</ele><time>2026-03-22T12:03:28Z</time></trkpt><trkpt lat="24.927674384043076" lon="121.30992390731942"><ele>85.66666666666667</ele><time>2026-03-22T12:03:29Z</time></trkpt><trkpt lat="24.9277322392597" lon="121.30999242550678"><ele>85.83333333333334</ele><time>2026-03-22T12:03:30Z</time></trkpt><trkpt lat="24.927791753629" lon="121.31006259453405"><ele>86.0</ele><time>2026-03-22T12:03:31Z</time></trkpt><trkpt lat="24.927846740218676" lon="121.310128022721"><ele>86.0</ele><time>2026-03-22T12:03:32Z</time></trkpt><trkpt lat="24.927907122498016" lon="121.31020237351709"><ele>86.0</ele><time>2026-03-22T12:03:33Z</time></trkpt><trkpt lat="24.92796835350859" lon="121.31028118442129"><ele>86.0</ele><time>2026-03-22T12:03:34Z</time></trkpt><trkpt lat="24.92803113307165" lon="121.31035222538594"><ele>86.0</ele><time>2026-03-22T12:03:35Z</time></trkpt><trkpt lat="24.928101474560663" lon="121.31042753162131"><ele>86.0</ele><time>2026-03-22T12:03:36Z</time></trkpt><trkpt lat="24.92816474030825" lon="121.31049821371816"><ele>86.0</ele><time>2026-03-22T12:03:37Z</time></trkpt><trkpt lat="24.92822407088568" lon="121.31056234415362"><ele>86.0</ele><time>2026-03-22T12:03:38Z</time></trkpt><trkpt lat="24.928300418149043" lon="121.3106324086692"><ele>86.0</ele><time>2026-03-22T12:03:39Z</time></trkpt><trkpt lat="24.92837347361327" lon="121.31071429766803"><ele>86.0</ele><time>2026-03-22T12:03:40Z</time></trkpt><trkpt lat="24.928449614172226" lon="121.31078961249443"><ele>86.0</ele><time>2026-03-22T12:03:41Z</time></trkpt><trkpt lat="24.928525671954304" lon="121.31086494493697"><ele>85.8</ele><time>2026-03-22T12:03:42Z</time></trkpt><trkpt lat="24.92859923483876" lon="121.31094153774986"><ele>85.6</ele><time>2026-03-22T12:03:43Z</time></trkpt><trkpt lat="24.928668220062793" lon="121.31101421805076"><ele>85.4</ele><time>2026-03-22T12:03:44Z</time></trkpt><trkpt lat="24.92874579495707" lon="121.31107535715424"><ele>85.2</ele><time>2026-03-22T12:03:45Z</time></trkpt><trkpt lat="24.928823823244088" lon="121.3111389815532"><ele>85.0</ele><time>2026-03-22T12:03:46Z</time></trkpt><trkpt lat="24.928900210974657" lon="121.31120934856305"><ele>85.0</ele><time>2026-03-22T12:03:47Z</time></trkpt><trkpt lat="24.928963460489275" lon="121.31128197690077"><ele>85.0</ele><time>2026-03-22T12:03:48Z</time></trkpt><trkpt lat="24.92903244127055" lon="121.31134728877902"><ele>85.0</ele><time>2026-03-22T12:03:49Z</time></trkpt><trkpt lat="24.92909884511322" lon="121.3114033861462"><ele>85.0</ele><time>2026-03-22T12:03:50Z</time></trkpt><trkpt lat="24.929166449105985" lon="121.31147806000516"><ele>85.0</ele><time>2026-03-22T12:03:51Z</time></trkpt><trkpt lat="24.929239600716357" lon="121.31154921841485"><ele>84.2</ele><time>2026-03-22T12:03:52Z</time></trkpt><trkpt lat="24.929297501561056" lon="121.31161443430477"><ele>83.4</ele><time>2026-03-22T12:03:53Z</time></trkpt><trkpt lat="24.929364103970517" lon="121.31168231115834"><ele>82.6</ele><time>2026-03-22T12:03:54Z</time></trkpt><trkpt lat="24.929424730481845" lon="121.31175681235622"><ele>81.8</ele><time>2026-03-22T12:03:55Z</time></trkpt><trkpt lat="24.929491218473625" lon="121.3118304376933"><ele>81.0</ele><time>2026-03-22T12:03:56Z</time></trkpt><trkpt lat="24.929565038064112" lon="121.31190852916333"><ele>81.0</ele><time>2026-03-22T12:03:57Z</time></trkpt><trkpt lat="24.92963388735353" lon="121.31198155209756"><ele>81.0</ele><time>2026-03-22T12:03:58Z</time></trkpt><trkpt lat="24.929703630244774" lon="121.31206072446841"><ele>81.0</ele><time>2026-03-22T12:03:59Z</time></trkpt><trkpt lat="24.929780684704422" lon="121.31213932583691"><ele>81.0</ele><time>2026-03-22T12:04:00Z</time></trkpt><trkpt lat="24.929857079971953" lon="121.31220439962141"><ele>81.0</ele><time>2026-03-22T12:04:01Z</time></trkpt><trkpt lat="24.929936091114225" lon="121.31227488006365"><ele>81.19999999999999</ele><time>2026-03-22T12:04:02Z</time></trkpt><trkpt lat="24.93001856090251" lon="121.31235823948663"><ele>81.39999999999999</ele><time>2026-03-22T12:04:03Z</time></trkpt><trkpt lat="24.930097350222837" lon="121.31243315009746"><ele>81.6</ele><time>2026-03-22T12:04:04Z</time></trkpt><trkpt lat="24.93018434675403" lon="121.31249836025971"><ele>81.8</ele><time>2026-03-22T12:04:05Z</time></trkpt><trkpt lat="24.930259915458027" lon="121.31256981512448"><ele>82.0</ele><time>2026-03-22T12:04:06Z</time></trkpt><trkpt lat="24.93035170884599" lon="121.31261829276498"><ele>82.19999999999999</ele><time>2026-03-22T12:04:07Z</time></trkpt><trkpt lat="24.930430783120105" lon="121.31268209005128"><ele>82.4</ele><time>2026-03-22T12:04:08Z</time></trkpt><trkpt lat="24.930506154957772" lon="121.31274529329083"><ele>82.6</ele><time>2026-03-22T12:04:09Z</time></trkpt><trkpt lat="24.930573228824034" lon="121.31280703504456"><ele>82.80000000000001</ele><time>2026-03-22T12:04:10Z</time></trkpt><trkpt lat="24.930649847372276" lon="121.31286296491766"><ele>83.0</ele><time>2026-03-22T12:04:11Z</time></trkpt><trkpt lat="24.930721185177976" lon="121.31291715290419"><ele>83.0</ele><time>2026-03-22T12:04:12Z</time></trkpt><trkpt lat="24.93078859282632" lon="121.31298418686072"><ele>83.0</ele><time>2026-03-22T12:04:13Z</time></trkpt><trkpt lat="24.930839501248705" lon="121.31304010689799"><ele>83.0</ele><time>2026-03-22T12:04:14Z</time></trkpt><trkpt lat="24.930903693382124" lon="121.31309434999501"><ele>83.0</ele><time>2026-03-22T12:04:15Z</time></trkpt><trkpt lat="24.930969163622606" lon="121.31315075381741"><ele>83.0</ele><time>2026-03-22T12:04:16Z</time></trkpt><trkpt lat="24.931038867233568" lon="121.31319929411842"><ele>83.0</ele><time>2026-03-22T12:04:17Z</time></trkpt><trkpt lat="24.93110628830988" lon="121.31325548844377"><ele>82.83333333333334</ele><time>2026-03-22T12:04:18Z</time></trkpt><trkpt lat="24.93117725976411" lon="121.31335782408169"><ele>82.66666666666667</ele><time>2026-03-22T12:04:20Z</time></trkpt><trkpt lat="24.931215961115527" lon="121.31342851584738"><ele>82.5</ele><time>2026-03-22T12:04:22Z</time></trkpt><trkpt lat="24.93128768974033" lon="121.31350149275887"><ele>82.33333333333333</ele><time>2026-03-22T12:04:24Z</time></trkpt><trkpt lat="24.93133122755167" lon="121.31355235479626"><ele>82.16666666666666</ele><time>2026-03-22T12:04:25Z</time></trkpt><trkpt lat="24.931396824515605" lon="121.31362348474812"><ele>82.0</ele><time>2026-03-22T12:04:27Z</time></trkpt><trkpt lat="24.93145655965404" lon="121.31366980690505"><ele>82.0</ele><time>2026-03-22T12:04:29Z</time></trkpt><trkpt lat="24.93150509305794" lon="121.31372153317515"><ele>82.0</ele><time>2026-03-22T12:04:30Z</time></trkpt><trkpt lat="24.9315963671755" lon="121.3137936690869"><ele>82.0</ele><time>2026-03-22T12:04:32Z</time></trkpt><trkpt lat="24.93169874217178" lon="121.3138813880215"><ele>82.0</ele><time>2026-03-22T12:04:34Z</time></trkpt><trkpt lat="24.931764336783683" lon="121.31394192265225"><ele>82.0</ele><time>2026-03-22T12:04:35Z</time></trkpt><trkpt lat="24.931815940184702" lon="121.31399388486697"><ele>81.33333333333333</ele><time>2026-03-22T12:04:36Z</time></trkpt><trkpt lat="24.931875779814778" lon="121.31404636281803"><ele>80.66666666666666</ele><time>2026-03-22T12:04:37Z</time></trkpt><trkpt lat="24.931950669310275" lon="121.314104095208"><ele>80.0</ele><time>2026-03-22T12:04:38Z</time></trkpt><trkpt lat="24.932022313921912" lon="121.31415179354619"><ele>79.33333333333333</ele><time>2026-03-22T12:04:39Z</time></trkpt><trkpt lat="24.932095412562727" lon="121.31420509243036"><ele>78.66666666666667</ele><time>2026-03-22T12:04:40Z</time></trkpt><trkpt lat="24.932163587715923" lon="121.31426240426134"><ele>78.0</ele><time>2026-03-22T12:04:41Z</time></trkpt><trkpt lat="24.932228902235057" lon="121.31431562642597"><ele>78.0</ele><time>2026-03-22T12:04:42Z</time></trkpt><trkpt lat="24.932312054040626" lon="121.31438148980507"><ele>78.0</ele><time>2026-03-22T12:04:43Z</time></trkpt><trkpt lat="24.93236800196344" lon="121.31442486074674"><ele>78.0</ele><time>2026-03-22T12:04:44Z</time></trkpt><trkpt lat="24.932442913207055" lon="121.3144810037577"><ele>78.0</ele><time>2026-03-22T12:04:45Z</time></trkpt><trkpt lat="24.93251823031738" lon="121.31454372518031"><ele>78.0</ele><time>2026-03-22T12:04:46Z</time></trkpt><trkpt lat="24.9326000431184" lon="121.31461455775079"><ele>78.0</ele><time>2026-03-22T12:04:47Z</time></trkpt><trkpt lat="24.932677589035304" lon="121.31468636713656"><ele>78.0</ele><time>2026-03-22T12:04:48Z</time></trkpt><trkpt lat="24.9327552396771" lon="121.31475757086722"><ele>78.0</ele><time>2026-03-22T12:04:49Z</time></trkpt><trkpt lat="24.9328358163176" lon="121.31482565625943"><ele>78.0</ele><time>2026-03-22T12:04:50Z</time></trkpt><trkpt lat="24.93291374839693" lon="121.31488890609161"><ele>78.0</ele><time>2026-03-22T12:04:51Z</time></trkpt><trkpt lat="24.932994129470945" lon="121.31496010179322"><ele>78.0</ele><time>2026-03-22T12:04:52Z</time></trkpt><trkpt lat="24.933083922875948" lon="121.3150310811967"><ele>78.0</ele><time>2026-03-22T12:04:53Z</time></trkpt><trkpt lat="24.933154499478814" lon="121.31508435648604"><ele>78.0</ele><time>2026-03-22T12:04:54Z</time></trkpt><trkpt lat="24.933233762182102" lon="121.31516597621561"><ele>78.0</ele><time>2026-03-22T12:04:55Z</time></trkpt><trkpt lat="24.933323351674673" lon="121.31525619996054"><ele>78.0</ele><time>2026-03-22T12:04:56Z</time></trkpt><trkpt lat="24.93340203608804" lon="121.31534479334906"><ele>78.25</ele><time>2026-03-22T12:04:57Z</time></trkpt><trkpt lat="24.9334811509903" lon="121.31541756524364"><ele>78.5</ele><time>2026-03-22T12:04:58Z</time></trkpt><trkpt lat="24.93358079257051" lon="121.31546958348513"><ele>78.75</ele><time>2026-03-22T12:04:59Z</time></trkpt><trkpt lat="24.93367862652171" lon="121.3155652920719"><ele>79.0</ele><time>2026-03-22T12:05:00Z</time></trkpt><trkpt lat="24.9337980012275" lon="121.31567094586387"><ele>79.0</ele><time>2026-03-22T12:05:01Z</time></trkpt><trkpt lat="24.93391511978505" lon="121.3157839489647"><ele>79.0</ele><time>2026-03-22T12:05:02Z</time></trkpt><trkpt lat="24.93399023301168" lon="121.31585348776213"><ele>79.0</ele><time>2026-03-22T12:05:03Z</time></trkpt><trkpt lat="24.934120034743465" lon="121.31597707335581"><ele>79.0</ele><time>2026-03-22T12:05:04Z</time></trkpt><trkpt lat="24.934204635832376" lon="121.31606376864184"><ele>79.75</ele><time>2026-03-22T12:05:05Z</time></trkpt><trkpt lat="24.934284316572505" lon="121.31614748978312"><ele>80.5</ele><time>2026-03-22T12:05:06Z</time></trkpt><trkpt lat="24.934379499432545" lon="121.31623717629336"><ele>81.25</ele><time>2026-03-22T12:05:07Z</time></trkpt><trkpt lat="24.93449616337992" lon="121.31635324896503"><ele>82.0</ele><time>2026-03-22T12:05:08Z</time></trkpt><trkpt lat="24.93460297615165" lon="121.31646301872493"><ele>82.5</ele><time>2026-03-22T12:05:09Z</time></trkpt><trkpt lat="24.934705892500318" lon="121.31656700143891"><ele>83.0</ele><time>2026-03-22T12:05:10Z</time></trkpt><trkpt lat="24.934811401390288" lon="121.31667067973997"><ele>83.5</ele><time>2026-03-22T12:05:11Z</time></trkpt><trkpt lat="24.934914244743794" lon="121.31676396519585"><ele>84.0</ele><time>2026-03-22T12:05:12Z</time></trkpt><trkpt lat="24.935016829806827" lon="121.31685844559017"><ele>84.25</ele><time>2026-03-22T12:05:13Z</time></trkpt><trkpt lat="24.935116525965093" lon="121.3169532253194"><ele>84.5</ele><time>2026-03-22T12:05:14Z</time></trkpt><trkpt lat="24.935202108694906" lon="121.31705096457338"><ele>84.75</ele><time>2026-03-22T12:05:15Z</time></trkpt><trkpt lat="24.93529677440788" lon="121.31714718717578"><ele>85.0</ele><time>2026-03-22T12:05:16Z</time></trkpt><trkpt lat="24.935383423858156" lon="121.31724366246843"><ele>83.75</ele><time>2026-03-22T12:05:17Z</time></trkpt><trkpt lat="24.935485730130655" lon="121.31735046971181"><ele>82.5</ele><time>2026-03-22T12:05:18Z</time></trkpt><trkpt lat="24.9355891877404" lon="121.31745886043824"><ele>81.25</ele><time>2026-03-22T12:05:19Z</time></trkpt><trkpt lat="24.93568238714414" lon="121.31754728894892"><ele>80.0</ele><time>2026-03-22T12:05:20Z</time></trkpt><trkpt lat="24.935747984001193" lon="121.31763713693599"><ele>80.0</ele><time>2026-03-22T12:05:21Z</time></trkpt><trkpt lat="24.93582791292832" lon="121.31771875278844"><ele>80.0</ele><time>2026-03-22T12:05:22Z</time></trkpt><trkpt lat="24.935912823461706" lon="121.31782488894365"><ele>80.0</ele><time>2026-03-22T12:05:23Z</time></trkpt><trkpt lat="24.936027183798917" lon="121.3179415769511"><ele>80.0</ele><time>2026-03-22T12:05:24Z</time></trkpt><trkpt lat="24.936131463961324" lon="121.31808528128995"><ele>80.25</ele><time>2026-03-22T12:05:25Z</time></trkpt><trkpt lat="24.9362119995556" lon="121.31819542139247"><ele>80.5</ele><time>2026-03-22T12:05:26Z</time></trkpt><trkpt lat="24.936270364537176" lon="121.31827779107272"><ele>80.75</ele><time>2026-03-22T12:05:27Z</time></trkpt><trkpt lat="24.93635291284402" lon="121.31838666860244"><ele>81.0</ele><time>2026-03-22T12:05:28Z</time></trkpt><trkpt lat="24.936426936615693" lon="121.31848803909548"><ele>81.0</ele><time>2026-03-22T12:05:29Z</time></trkpt><trkpt lat="24.936500237347236" lon="121.31858378289422"><ele>81.0</ele><time>2026-03-22T12:05:30Z</time></trkpt><trkpt lat="24.936560065727143" lon="121.31867536350525"><ele>81.0</ele><time>2026-03-22T12:05:31Z</time></trkpt><trkpt lat="24.9366137963634" lon="121.31875188081032"><ele>81.0</ele><time>2026-03-22T12:05:32Z</time></trkpt><trkpt lat="24.936671558205592" lon="121.31883375679344"><ele>81.0</ele><time>2026-03-22T12:05:33Z</time></trkpt><trkpt lat="24.93671632362837" lon="121.31889812861499"><ele>81.4</ele><time>2026-03-22T12:05:34Z</time></trkpt><trkpt lat="24.936834085062227" lon="121.31892445020655"><ele>81.8</ele><time>2026-03-22T12:05:35Z</time></trkpt><trkpt lat="24.93692503825008" lon="121.31898521511125"><ele>82.2</ele><time>2026-03-22T12:05:36Z</time></trkpt><trkpt lat="24.93698139231511" lon="121.31906766212201"><ele>82.60000000000001</ele><time>2026-03-22T12:05:37Z</time></trkpt><trkpt lat="24.937034862684822" lon="121.31913135547855"><ele>83.0</ele><time>2026-03-22T12:05:38Z</time></trkpt><trkpt lat="24.937073754218858" lon="121.31919785746402"><ele>83.0</ele><time>2026-03-22T12:05:39Z</time></trkpt><trkpt lat="24.937007360193885" lon="121.31932232180517"><ele>83.0</ele><time>2026-03-22T12:05:40Z</time></trkpt><trkpt lat="24.93711578112636" lon="121.31941521283744"><ele>83.0</ele><time>2026-03-22T12:05:42Z</time></trkpt><trkpt lat="24.937100525120627" lon="121.3194959135844"><ele>83.0</ele><time>2026-03-22T12:05:43Z</time></trkpt><trkpt lat="24.937163962889667" lon="121.3195944348325"><ele>83.0</ele><time>2026-03-22T12:05:45Z</time></trkpt><trkpt lat="24.937211802037094" lon="121.31965054745231"><ele>83.0</ele><time>2026-03-22T12:05:46Z</time></trkpt><trkpt lat="24.937255449056373" lon="121.31972040636771"><ele>83.0</ele><time>2026-03-22T12:05:47Z</time></trkpt><trkpt lat="24.937295454845465" lon="121.31978013488158"><ele>83.0</ele><time>2026-03-22T12:05:48Z</time></trkpt><trkpt lat="24.937332133881593" lon="121.31984158586387"><ele>83.0</ele><time>2026-03-22T12:05:49Z</time></trkpt><trkpt lat="24.93737376145351" lon="121.31991413598446"><ele>83.0</ele><time>2026-03-22T12:05:50Z</time></trkpt><trkpt lat="24.937414494022295" lon="121.31999853241216"><ele>83.0</ele><time>2026-03-22T12:05:51Z</time></trkpt><trkpt lat="24.93745891689921" lon="121.32011093691293"><ele>82.80000000000001</ele><time>2026-03-22T12:05:52Z</time></trkpt><trkpt lat="24.93751050729621" lon="121.32019301337616"><ele>82.6</ele><time>2026-03-22T12:05:53Z</time></trkpt><trkpt lat="24.937624925906494" lon="121.3202847901912"><ele>82.4</ele><time>2026-03-22T12:05:54Z</time></trkpt><trkpt lat="24.9376331746167" lon="121.32039059838917"><ele>82.19999999999999</ele><time>2026-03-22T12:05:55Z</time></trkpt><trkpt lat="24.9376848705714" lon="121.32048378601064"><ele>82.0</ele><time>2026-03-22T12:05:56Z</time></trkpt><trkpt lat="24.93773366283763" lon="121.32057179529869"><ele>81.16666666666666</ele><time>2026-03-22T12:05:57Z</time></trkpt><trkpt lat="24.937778296382184" lon="121.32064488423167"><ele>80.33333333333333</ele><time>2026-03-22T12:05:58Z</time></trkpt><trkpt lat="24.937811626682734" lon="121.32071044184893"><ele>79.5</ele><time>2026-03-22T12:05:59Z</time></trkpt><trkpt lat="24.93784659296976" lon="121.32079761448281"><ele>78.66666666666667</ele><time>2026-03-22T12:06:00Z</time></trkpt><trkpt lat="24.93789291324365" lon="121.32087614894252"><ele>77.83333333333334</ele><time>2026-03-22T12:06:01Z</time></trkpt><trkpt lat="24.937901792889953" lon="121.32098838686684"><ele>77.0</ele><time>2026-03-22T12:06:02Z</time></trkpt><trkpt lat="24.937932223296528" lon="121.32105018469345"><ele>77.0</ele><time>2026-03-22T12:06:03Z</time></trkpt><trkpt lat="24.937977493862377" lon="121.3211407165198"><ele>77.0</ele><time>2026-03-22T12:06:04Z</time></trkpt><trkpt lat="24.938014758295107" lon="121.32122712782018"><ele>77.0</ele><time>2026-03-22T12:06:05Z</time></trkpt><trkpt lat="24.938065420751883" lon="121.32132032625131"><ele>77.0</ele><time>2026-03-22T12:06:06Z</time></trkpt><trkpt lat="24.9381285629865" lon="121.32139515977947"><ele>77.0</ele><time>2026-03-22T12:06:07Z</time></trkpt><trkpt lat="24.938145549007828" lon="121.32151210703583"><ele>76.33333333333334</ele><time>2026-03-22T12:06:08Z</time></trkpt><trkpt lat="24.938209529884098" lon="121.32159506783941"><ele>75.66666666666667</ele><time>2026-03-22T12:06:10Z</time></trkpt><trkpt lat="24.93824898046594" lon="121.32166824434316"><ele>75.0</ele><time>2026-03-22T12:06:11Z</time></trkpt><trkpt lat="24.93826078467445" lon="121.32178550980004"><ele>74.33333333333333</ele><time>2026-03-22T12:06:12Z</time></trkpt><trkpt lat="24.938307905862587" lon="121.32184944258395"><ele>73.66666666666666</ele><time>2026-03-22T12:06:13Z</time></trkpt><trkpt lat="24.938347721113068" lon="121.3219299907827"><ele>73.0</ele><time>2026-03-22T12:06:14Z</time></trkpt><trkpt lat="24.93837994445545" lon="121.32200814265488"><ele>73.4</ele><time>2026-03-22T12:06:15Z</time></trkpt><trkpt lat="24.938409505678955" lon="121.32208615095533"><ele>73.8</ele><time>2026-03-22T12:06:16Z</time></trkpt><trkpt lat="24.938465065296402" lon="121.3221898186875"><ele>74.2</ele><time>2026-03-22T12:06:17Z</time></trkpt><trkpt lat="24.938481094041773" lon="121.32236329375691"><ele>74.6</ele><time>2026-03-22T12:06:18Z</time></trkpt><trkpt lat="24.938510083946554" lon="121.32244953072903"><ele>75.0</ele><time>2026-03-22T12:06:19Z</time></trkpt><trkpt lat="24.938537826784863" lon="121.32253535580709"><ele>74.2</ele><time>2026-03-22T12:06:20Z</time></trkpt><trkpt lat="24.938576507020578" lon="121.32261472257645"><ele>73.4</ele><time>2026-03-22T12:06:21Z</time></trkpt><trkpt lat="24.938626610376414" lon="121.32269337750746"><ele>72.6</ele><time>2026-03-22T12:06:23Z</time></trkpt><trkpt lat="24.938679068065042" lon="121.3227949674245"><ele>71.8</ele><time>2026-03-22T12:06:25Z</time></trkpt><trkpt lat="24.938704211241554" lon="121.32289790551386"><ele>71.0</ele><time>2026-03-22T12:06:26Z</time></trkpt><trkpt lat="24.938755263782053" lon="121.32307445575616"><ele>71.0</ele><time>2026-03-22T12:06:27Z</time></trkpt><trkpt lat="24.938808318514234" lon="121.32325152320134"><ele>71.0</ele><time>2026-03-22T12:06:28Z</time></trkpt><trkpt lat="24.938840870802526" lon="121.32336267374043"><ele>71.0</ele><time>2026-03-22T12:06:29Z</time></trkpt><trkpt lat="24.938871766348914" lon="121.32349662429164"><ele>71.0</ele><time>2026-03-22T12:06:30Z</time></trkpt><trkpt lat="24.93891710635479" lon="121.32368675961077"><ele>71.33333333333334</ele><time>2026-03-22T12:06:31Z</time></trkpt><trkpt lat="24.93897488656158" lon="121.32391103746173"><ele>71.66666666666667</ele><time>2026-03-22T12:06:32Z</time></trkpt><trkpt lat="24.939003632756467" lon="121.32398704262037"><ele>72.0</ele><time>2026-03-22T12:06:33Z</time></trkpt><trkpt lat="24.93909667468738" lon="121.32424305860445"><ele>72.0</ele><time>2026-03-22T12:06:34Z</time></trkpt><trkpt lat="24.939158592728944" lon="121.32447449684247"><ele>72.0</ele><time>2026-03-22T12:06:35Z</time></trkpt><trkpt lat="24.939172207302963" lon="121.32458513372947"><ele>72.0</ele><time>2026-03-22T12:06:36Z</time></trkpt><trkpt lat="24.939199432689456" lon="121.32469646092086"><ele>72.0</ele><time>2026-03-22T12:06:37Z</time></trkpt><trkpt lat="24.939227879950224" lon="121.32481278244249"><ele>71.2</ele><time>2026-03-22T12:06:38Z</time></trkpt><trkpt lat="24.93924456726958" lon="121.32490831726408"><ele>70.4</ele><time>2026-03-22T12:06:39Z</time></trkpt><trkpt lat="24.939261882131017" lon="121.32499792851767"><ele>69.6</ele><time>2026-03-22T12:06:40Z</time></trkpt><trkpt lat="24.93928519207122" lon="121.32511497739715"><ele>68.8</ele><time>2026-03-22T12:06:42Z</time></trkpt><trkpt lat="24.9393049520447" lon="121.32521457395634"><ele>68.0</ele><time>2026-03-22T12:06:43Z</time></trkpt><trkpt lat="24.93934346949473" lon="121.32540871309146"><ele>68.0</ele><time>2026-03-22T12:06:44Z</time></trkpt><trkpt lat="24.939360792386307" lon="121.32553693480486"><ele>68.0</ele><time>2026-03-22T12:06:46Z</time></trkpt><trkpt lat="24.939371612953778" lon="121.32560949600777"><ele>68.0</ele><time>2026-03-22T12:06:47Z</time></trkpt><trkpt lat="24.93938248118337" lon="121.32567842517415"><ele>68.0</ele><time>2026-03-22T12:06:48Z</time></trkpt><trkpt lat="24.939368512471145" lon="121.32558870429865"><ele>68.0</ele><time>2026-03-22T12:06:51.042Z</time></trkpt><trkpt lat="24.93934528552261" lon="121.32543294831514"><ele>68.0</ele><time>2026-03-22T12:06:52.041Z</time></trkpt><trkpt lat="24.93936357191809" lon="121.3255305659142"><ele>68.0</ele><time>2026-03-22T12:06:54.041Z</time></trkpt><trkpt lat="24.939363853292548" lon="121.32573414301136"><ele>68.0</ele><time>2026-03-22T12:06:55.038Z</time></trkpt><trkpt lat="24.939404755391482" lon="121.32591599124461"><ele>68.0</ele><time>2026-03-22T12:06:56.043Z</time></trkpt><trkpt lat="24.93942620630648" lon="121.32607202910141"><ele>68.25</ele><time>2026-03-22T12:06:57.041Z</time></trkpt><trkpt lat="24.939442263051273" lon="121.32621317234106"><ele>68.5</ele><time>2026-03-22T12:06:58.04Z</time></trkpt><trkpt lat="24.93945916443613" lon="121.32631555417827"><ele>68.75</ele><time>2026-03-22T12:06:59.04Z</time></trkpt><trkpt lat="24.939489744429444" lon="121.32646629090483"><ele>69.0</ele><time>2026-03-22T12:07:00.041Z</time></trkpt><trkpt lat="24.939498624468126" lon="121.32659347181323"><ele>69.0</ele><time>2026-03-22T12:07:01.04Z</time></trkpt><trkpt lat="24.93952742699529" lon="121.32673628479026"><ele>69.0</ele><time>2026-03-22T12:07:02.041Z</time></trkpt><trkpt lat="24.939531504881014" lon="121.32686882122039"><ele>69.0</ele><time>2026-03-22T12:07:03.039Z</time></trkpt><trkpt lat="24.9395455384508" lon="121.3270253068028"><ele>69.0</ele><time>2026-03-22T12:07:04.038Z</time></trkpt><trkpt lat="24.939539544587863" lon="121.32722396444234"><ele>69.0</ele><time>2026-03-22T12:07:05.041Z</time></trkpt><trkpt lat="24.93951553818206" lon="121.32736199655392"><ele>69.0</ele><time>2026-03-22T12:07:06.039Z</time></trkpt><trkpt lat="24.939506570951966" lon="121.32747182884832"><ele>69.0</ele><time>2026-03-22T12:07:07.041Z</time></trkpt><trkpt lat="24.939502286851045" lon="121.32758629598018"><ele>69.0</ele><time>2026-03-22T12:07:08.04Z</time></trkpt><trkpt lat="24.939513421363493" lon="121.32768017538342"><ele>69.0</ele><time>2026-03-22T12:07:09.044Z</time></trkpt><trkpt lat="24.939512028628872" lon="121.32778792499005"><ele>69.0</ele><time>2026-03-22T12:07:10.04Z</time></trkpt><trkpt lat="24.93950137804171" lon="121.3278667884397"><ele>69.0</ele><time>2026-03-22T12:07:11.039Z</time></trkpt><trkpt lat="24.93945394494642" lon="121.32800404237693"><ele>69.0</ele><time>2026-03-22T12:07:13.038Z</time></trkpt><trkpt lat="24.939443820106185" lon="121.32808514435082"><ele>69.0</ele><time>2026-03-22T12:07:14.043Z</time></trkpt><trkpt lat="24.939447919935198" lon="121.3282164659862"><ele>69.0</ele><time>2026-03-22T12:07:16.042Z</time></trkpt><trkpt lat="24.939457296900695" lon="121.32829272993514"><ele>68.75</ele><time>2026-03-22T12:07:17.042Z</time></trkpt><trkpt lat="24.93945729690549" lon="121.32836329851824"><ele>68.5</ele><time>2026-03-22T12:07:18.04Z</time></trkpt><trkpt lat="24.939457498010604" lon="121.32851523455199"><ele>68.25</ele><time>2026-03-22T12:07:20.043Z</time></trkpt><trkpt lat="24.93945632093621" lon="121.3286344538723"><ele>68.0</ele><time>2026-03-22T12:07:21.039Z</time></trkpt><trkpt lat="24.93945378804457" lon="121.32889099550205"><ele>64.0</ele><time>2026-03-22T12:07:33.031Z</time></trkpt><trkpt lat="24.93937078076484" lon="121.33171661424636"><ele>64.0</ele><time>2026-03-22T12:07:43Z</time></trkpt><trkpt lat="24.9393084299584" lon="121.33183552107457"><ele>64.0</ele><time>2026-03-22T12:07:44Z</time></trkpt><trkpt lat="24.939245843522095" lon="121.33200369951172"><ele>64.0</ele><time>2026-03-22T12:07:45Z</time></trkpt><trkpt lat="24.939174566242812" lon="121.33214819343256"><ele>64.0</ele><time>2026-03-22T12:07:46Z</time></trkpt><trkpt lat="24.93910014895734" lon="121.33226909923496"><ele>65.5</ele><time>2026-03-22T12:07:47Z</time></trkpt><trkpt lat="24.939055624771733" lon="121.33239601721567"><ele>67.0</ele><time>2026-03-22T12:07:48Z</time></trkpt><trkpt lat="24.93902092877745" lon="121.33252926423653"><ele>68.5</ele><time>2026-03-22T12:07:49Z</time></trkpt><trkpt lat="24.938989162639533" lon="121.33266582384421"><ele>70.0</ele><time>2026-03-22T12:07:50Z</time></trkpt><trkpt lat="24.938956711803087" lon="121.33280514365462"><ele>70.0</ele><time>2026-03-22T12:07:51Z</time></trkpt><trkpt lat="24.93892400035424" lon="121.33293974301954"><ele>70.0</ele><time>2026-03-22T12:07:52Z</time></trkpt><trkpt lat="24.93889081844942" lon="121.33307832124996"><ele>70.0</ele><time>2026-03-22T12:07:53Z</time></trkpt><trkpt lat="24.938856612824498" lon="121.33321960852412"><ele>70.0</ele><time>2026-03-22T12:07:54Z</time></trkpt><trkpt lat="24.93882093264859" lon="121.33335735761109"><ele>70.0</ele><time>2026-03-22T12:07:55Z</time></trkpt><trkpt lat="24.93878434947769" lon="121.33349228306822"><ele>70.0</ele><time>2026-03-22T12:07:56Z</time></trkpt><trkpt lat="24.938745552714753" lon="121.33362962702458"><ele>70.0</ele><time>2026-03-22T12:07:57Z</time></trkpt><trkpt lat="24.93870622734603" lon="121.33376958477174"><ele>70.0</ele><time>2026-03-22T12:07:58Z</time></trkpt><trkpt lat="24.93866981294702" lon="121.33390475949965"><ele>69.75</ele><time>2026-03-22T12:07:59Z</time></trkpt><trkpt lat="24.938624809120807" lon="121.33404771552583"><ele>69.5</ele><time>2026-03-22T12:08:00Z</time></trkpt><trkpt lat="24.938584148896187" lon="121.33418887592268"><ele>69.25</ele><time>2026-03-22T12:08:01Z</time></trkpt><trkpt lat="24.938545410266617" lon="121.33433037435091"><ele>69.0</ele><time>2026-03-22T12:08:02Z</time></trkpt><trkpt lat="24.938506015925917" lon="121.33446772737715"><ele>69.0</ele><time>2026-03-22T12:08:03Z</time></trkpt><trkpt lat="24.93846333126145" lon="121.33461101493506"><ele>69.0</ele><time>2026-03-22T12:08:04Z</time></trkpt><trkpt lat="24.9384183303414" lon="121.33475678874366"><ele>69.0</ele><time>2026-03-22T12:08:05Z</time></trkpt><trkpt lat="24.938372917360628" lon="121.33490205881375"><ele>69.0</ele><time>2026-03-22T12:08:06Z</time></trkpt><trkpt lat="24.938326709820128" lon="121.33504938828176"><ele>68.5</ele><time>2026-03-22T12:08:07Z</time></trkpt><trkpt lat="24.938269739598507" lon="121.33519475315263"><ele>68.0</ele><time>2026-03-22T12:08:08Z</time></trkpt><trkpt lat="24.93822132220955" lon="121.33533787859835"><ele>67.5</ele><time>2026-03-22T12:08:09Z</time></trkpt><trkpt lat="24.938166390287083" lon="121.33548226032647"><ele>67.0</ele><time>2026-03-22T12:08:10Z</time></trkpt><trkpt lat="24.938114861050508" lon="121.33562459825043"><ele>67.0</ele><time>2026-03-22T12:08:11Z</time></trkpt><trkpt lat="24.93806426575009" lon="121.33576869225504"><ele>67.0</ele><time>2026-03-22T12:08:12Z</time></trkpt><trkpt lat="24.93801551471353" lon="121.33591613022425"><ele>67.0</ele><time>2026-03-22T12:08:13Z</time></trkpt><trkpt lat="24.937966414931005" lon="121.33606064048824"><ele>67.0</ele><time>2026-03-22T12:08:14Z</time></trkpt><trkpt lat="24.93791843570221" lon="121.33620185135184"><ele>67.0</ele><time>2026-03-22T12:08:15Z</time></trkpt><trkpt lat="24.93786717570746" lon="121.33634237183603"><ele>67.0</ele><time>2026-03-22T12:08:16Z</time></trkpt><trkpt lat="24.937818896942872" lon="121.33648067874219"><ele>67.0</ele><time>2026-03-22T12:08:17Z</time></trkpt><trkpt lat="24.9377714665278" lon="121.33662030816609"><ele>67.0</ele><time>2026-03-22T12:08:18Z</time></trkpt><trkpt lat="24.93772703262431" lon="121.33675089925147"><ele>66.5</ele><time>2026-03-22T12:08:19Z</time></trkpt><trkpt lat="24.93768271992335" lon="121.33687847470691"><ele>66.0</ele><time>2026-03-22T12:08:20Z</time></trkpt><trkpt lat="24.93763516039299" lon="121.33700707688475"><ele>65.5</ele><time>2026-03-22T12:08:21Z</time></trkpt><trkpt lat="24.937588304647342" lon="121.33713767367982"><ele>65.0</ele><time>2026-03-22T12:08:22Z</time></trkpt><trkpt lat="24.937542218874775" lon="121.33726706454925"><ele>64.5</ele><time>2026-03-22T12:08:23Z</time></trkpt><trkpt lat="24.93749584373168" lon="121.33739352563774"><ele>64.0</ele><time>2026-03-22T12:08:24Z</time></trkpt><trkpt lat="24.937448944500478" lon="121.3375186697003"><ele>63.5</ele><time>2026-03-22T12:08:25Z</time></trkpt><trkpt lat="24.9374070333636" lon="121.33764664460894"><ele>63.0</ele><time>2026-03-22T12:08:26Z</time></trkpt><trkpt lat="24.937364895446553" lon="121.337780330588"><ele>63.0</ele><time>2026-03-22T12:08:27Z</time></trkpt><trkpt lat="24.93731505608783" lon="121.33791853364993"><ele>63.0</ele><time>2026-03-22T12:08:28Z</time></trkpt><trkpt lat="24.93726590220738" lon="121.33805825611424"><ele>63.0</ele><time>2026-03-22T12:08:29Z</time></trkpt><trkpt lat="24.93721219116054" lon="121.33820359306971"><ele>63.0</ele><time>2026-03-22T12:08:30Z</time></trkpt><trkpt lat="24.93715376668167" lon="121.33835941459216"><ele>63.0</ele><time>2026-03-22T12:08:31Z</time></trkpt><trkpt lat="24.93709331800793" lon="121.3385227924002"><ele>63.0</ele><time>2026-03-22T12:08:32Z</time></trkpt><trkpt lat="24.937033028617748" lon="121.33868908357911"><ele>63.0</ele><time>2026-03-22T12:08:33Z</time></trkpt><trkpt lat="24.936969550136975" lon="121.33886287215198"><ele>61.0</ele><time>2026-03-22T12:08:34Z</time></trkpt><trkpt lat="24.93690739945277" lon="121.33903496696621"><ele>59.0</ele><time>2026-03-22T12:08:35Z</time></trkpt><trkpt lat="24.93685018983699" lon="121.33919801812831"><ele>57.0</ele><time>2026-03-22T12:08:36Z</time></trkpt><trkpt lat="24.936792054073567" lon="121.3393675681239"><ele>57.0</ele><time>2026-03-22T12:08:37Z</time></trkpt><trkpt lat="24.936727629950763" lon="121.33953908236285"><ele>57.0</ele><time>2026-03-22T12:08:38Z</time></trkpt><trkpt lat="24.936659172925633" lon="121.33972594804368"><ele>57.0</ele><time>2026-03-22T12:08:39Z</time></trkpt><trkpt lat="24.9365921710814" lon="121.33991714172024"><ele>57.0</ele><time>2026-03-22T12:08:40Z</time></trkpt><trkpt lat="24.93652647274248" lon="121.3401007263177"><ele>57.0</ele><time>2026-03-22T12:08:41Z</time></trkpt><trkpt lat="24.936464793356908" lon="121.34027870895298"><ele>57.0</ele><time>2026-03-22T12:08:42Z</time></trkpt><trkpt lat="24.936403648303365" lon="121.3404546370794"><ele>57.0</ele><time>2026-03-22T12:08:43Z</time></trkpt><trkpt lat="24.936337545266166" lon="121.34062734281379"><ele>57.0</ele><time>2026-03-22T12:08:44Z</time></trkpt><trkpt lat="24.936272301758116" lon="121.34080664275261"><ele>57.0</ele><time>2026-03-22T12:08:45Z</time></trkpt><trkpt lat="24.936205642271062" lon="121.34099317909845"><ele>57.0</ele><time>2026-03-22T12:08:46Z</time></trkpt><trkpt lat="24.936139971943682" lon="121.34118574699252"><ele>57.0</ele><time>2026-03-22T12:08:47Z</time></trkpt><trkpt lat="24.93607874968178" lon="121.34137132667672"><ele>57.0</ele><time>2026-03-22T12:08:48Z</time></trkpt><trkpt lat="24.936016292193923" lon="121.34155788492515"><ele>56.66666666666667</ele><time>2026-03-22T12:08:49Z</time></trkpt><trkpt lat="24.935954282755063" lon="121.34174628895703"><ele>56.333333333333336</ele><time>2026-03-22T12:08:50Z</time></trkpt><trkpt lat="24.935894325769972" lon="121.34193072924342"><ele>56.0</ele><time>2026-03-22T12:08:51Z</time></trkpt><trkpt lat="24.93583278179775" lon="121.34211636735908"><ele>55.0</ele><time>2026-03-22T12:08:52Z</time></trkpt><trkpt lat="24.935775415099936" lon="121.34229998914802"><ele>54.0</ele><time>2026-03-22T12:08:53Z</time></trkpt><trkpt lat="24.935719220764415" lon="121.34248657457381"><ele>53.0</ele><time>2026-03-22T12:08:54Z</time></trkpt><trkpt lat="24.935660960139817" lon="121.34266628439369"><ele>53.0</ele><time>2026-03-22T12:08:55Z</time></trkpt><trkpt lat="24.935606097358452" lon="121.34285206222182"><ele>53.0</ele><time>2026-03-22T12:08:56Z</time></trkpt><trkpt lat="24.935554080402035" lon="121.3430344031582"><ele>53.0</ele><time>2026-03-22T12:08:57Z</time></trkpt><trkpt lat="24.93549855265541" lon="121.34322049803168"><ele>52.66666666666667</ele><time>2026-03-22T12:08:58Z</time></trkpt><trkpt lat="24.935443412216745" lon="121.34340645012254"><ele>52.33333333333333</ele><time>2026-03-22T12:08:59Z</time></trkpt><trkpt lat="24.935392666836837" lon="121.34359055175854"><ele>52.0</ele><time>2026-03-22T12:09:00Z</time></trkpt><trkpt lat="24.935340340547622" lon="121.34378094964497"><ele>50.666666666666664</ele><time>2026-03-22T12:09:01Z</time></trkpt><trkpt lat="24.935288787625492" lon="121.34397053365637"><ele>49.33333333333333</ele><time>2026-03-22T12:09:02Z</time></trkpt><trkpt lat="24.93524211293637" lon="121.34415999988387"><ele>48.0</ele><time>2026-03-22T12:09:03Z</time></trkpt><trkpt lat="24.935192150007044" lon="121.34435635009407"><ele>48.0</ele><time>2026-03-22T12:09:04Z</time></trkpt><trkpt lat="24.935142805208336" lon="121.34455882166948"><ele>48.0</ele><time>2026-03-22T12:09:05Z</time></trkpt><trkpt lat="24.93509381983722" lon="121.34476294267387"><ele>48.0</ele><time>2026-03-22T12:09:06Z</time></trkpt><trkpt lat="24.935048262731375" lon="121.34496919611176"><ele>48.0</ele><time>2026-03-22T12:09:07Z</time></trkpt><trkpt lat="24.935006750136246" lon="121.34517637483653"><ele>48.0</ele><time>2026-03-22T12:09:08Z</time></trkpt><trkpt lat="24.9349677000124" lon="121.34537954738983"><ele>48.0</ele><time>2026-03-22T12:09:09Z</time></trkpt><trkpt lat="24.934927896693562" lon="121.34558232139324"><ele>48.0</ele><time>2026-03-22T12:09:10Z</time></trkpt><trkpt lat="24.93488786189453" lon="121.34578365975277"><ele>48.0</ele><time>2026-03-22T12:09:11Z</time></trkpt><trkpt lat="24.934851684367857" lon="121.34598399346277"><ele>48.0</ele><time>2026-03-22T12:09:12Z</time></trkpt><trkpt lat="24.93481801441658" lon="121.3461832762667"><ele>45.666666666666664</ele><time>2026-03-22T12:09:13Z</time></trkpt><trkpt lat="24.934785672624344" lon="121.34638105182101"><ele>43.33333333333333</ele><time>2026-03-22T12:09:14Z</time></trkpt><trkpt lat="24.934756598036248" lon="121.34657827123189"><ele>41.0</ele><time>2026-03-22T12:09:15Z</time></trkpt><trkpt lat="24.934729352588352" lon="121.34677175485834"><ele>41.0</ele><time>2026-03-22T12:09:16Z</time></trkpt><trkpt lat="24.934709030226866" lon="121.3469661697278"><ele>41.0</ele><time>2026-03-22T12:09:17Z</time></trkpt><trkpt lat="24.934686074981112" lon="121.34715819776763"><ele>41.0</ele><time>2026-03-22T12:09:18Z</time></trkpt><trkpt lat="24.934662470841133" lon="121.34735424048237"><ele>39.666666666666664</ele><time>2026-03-22T12:09:19Z</time></trkpt><trkpt lat="24.93464043579927" lon="121.3475520334646"><ele>38.333333333333336</ele><time>2026-03-22T12:09:20Z</time></trkpt><trkpt lat="24.934616152251166" lon="121.34775180231313"><ele>37.0</ele><time>2026-03-22T12:09:21Z</time></trkpt><trkpt lat="24.9346028904245" lon="121.34794926196412"><ele>36.66666666666667</ele><time>2026-03-22T12:09:22Z</time></trkpt><trkpt lat="24.934591619477995" lon="121.34814730458392"><ele>36.333333333333336</ele><time>2026-03-22T12:09:23Z</time></trkpt><trkpt lat="24.93458256859795" lon="121.3483457535872"><ele>36.0</ele><time>2026-03-22T12:09:24Z</time></trkpt><trkpt lat="24.93457327459282" lon="121.3485442162125"><ele>36.0</ele><time>2026-03-22T12:09:25Z</time></trkpt><trkpt lat="24.93456773891323" lon="121.34873883839819"><ele>36.0</ele><time>2026-03-22T12:09:26Z</time></trkpt><trkpt lat="24.934563471363234" lon="121.34893207618327"><ele>36.0</ele><time>2026-03-22T12:09:27Z</time></trkpt><trkpt lat="24.934561948391153" lon="121.34912312517261"><ele>37.333333333333336</ele><time>2026-03-22T12:09:28Z</time></trkpt><trkpt lat="24.934561087785646" lon="121.34931479034272"><ele>38.66666666666667</ele><time>2026-03-22T12:09:29Z</time></trkpt><trkpt lat="24.93456503788898" lon="121.34950469864337"><ele>40.0</ele><time>2026-03-22T12:09:30Z</time></trkpt><trkpt lat="24.934571451109175" lon="121.3496917118899"><ele>41.333333333333336</ele><time>2026-03-22T12:09:31Z</time></trkpt><trkpt lat="24.93457930758674" lon="121.34988051849015"><ele>42.666666666666664</ele><time>2026-03-22T12:09:32Z</time></trkpt><trkpt lat="24.934588888649756" lon="121.35006401695969"><ele>44.0</ele><time>2026-03-22T12:09:33Z</time></trkpt><trkpt lat="24.934598456898446" lon="121.35024929523115"><ele>44.0</ele><time>2026-03-22T12:09:34Z</time></trkpt><trkpt lat="24.934609897941886" lon="121.35043759399562"><ele>44.0</ele><time>2026-03-22T12:09:35Z</time></trkpt><trkpt lat="24.934624882838975" lon="121.35062948922997"><ele>44.0</ele><time>2026-03-22T12:09:36Z</time></trkpt><trkpt lat="24.934644100394753" lon="121.35082197061885"><ele>45.0</ele><time>2026-03-22T12:09:37Z</time></trkpt><trkpt lat="24.9346671646674" lon="121.35101120443011"><ele>46.0</ele><time>2026-03-22T12:09:38Z</time></trkpt><trkpt lat="24.93469084044392" lon="121.35119817647902"><ele>47.0</ele><time>2026-03-22T12:09:39Z</time></trkpt><trkpt lat="24.934720144020268" lon="121.3513891111821"><ele>48.0</ele><time>2026-03-22T12:09:40Z</time></trkpt><trkpt lat="24.934752023611637" lon="121.35157813337604"><ele>49.0</ele><time>2026-03-22T12:09:41Z</time></trkpt><trkpt lat="24.934787273517976" lon="121.35176098337335"><ele>50.0</ele><time>2026-03-22T12:09:42Z</time></trkpt><trkpt lat="24.93482349865706" lon="121.3519424681191"><ele>50.0</ele><time>2026-03-22T12:09:43Z</time></trkpt><trkpt lat="24.934860188907525" lon="121.35212216762353"><ele>50.0</ele><time>2026-03-22T12:09:44Z</time></trkpt><trkpt lat="24.934894527585254" lon="121.35229518846064"><ele>50.0</ele><time>2026-03-22T12:09:45Z</time></trkpt><trkpt lat="24.93492793408116" lon="121.35246685985972"><ele>51.333333333333336</ele><time>2026-03-22T12:09:46Z</time></trkpt><trkpt lat="24.93496337849806" lon="121.35263535558995"><ele>52.66666666666667</ele><time>2026-03-22T12:09:47Z</time></trkpt><trkpt lat="24.93499931590969" lon="121.35280096976992"><ele>54.0</ele><time>2026-03-22T12:09:48Z</time></trkpt><trkpt lat="24.935033741094404" lon="121.35295732799172"><ele>52.5</ele><time>2026-03-22T12:09:49Z</time></trkpt><trkpt lat="24.935072252939303" lon="121.35311335637184"><ele>51.0</ele><time>2026-03-22T12:09:50Z</time></trkpt><trkpt lat="24.935114257678887" lon="121.35327116320568"><ele>49.5</ele><time>2026-03-22T12:09:51Z</time></trkpt><trkpt lat="24.935157571629937" lon="121.35342754578777"><ele>48.0</ele><time>2026-03-22T12:09:52Z</time></trkpt><trkpt lat="24.935201613090324" lon="121.35358177412225"><ele>48.0</ele><time>2026-03-22T12:09:53Z</time></trkpt><trkpt lat="24.935245413268625" lon="121.35373385578234"><ele>48.0</ele><time>2026-03-22T12:09:54Z</time></trkpt><trkpt lat="24.935291863151274" lon="121.35388470975315"><ele>48.0</ele><time>2026-03-22T12:09:55Z</time></trkpt><trkpt lat="24.935338660985067" lon="121.3540392148651"><ele>48.0</ele><time>2026-03-22T12:09:56Z</time></trkpt><trkpt lat="24.93538953903683" lon="121.35419848546611"><ele>48.66666666666667</ele><time>2026-03-22T12:09:57Z</time></trkpt><trkpt lat="24.935443466264363" lon="121.35435775171477"><ele>49.333333333333336</ele><time>2026-03-22T12:09:58Z</time></trkpt><trkpt lat="24.935499843308534" lon="121.35452166368229"><ele>50.0</ele><time>2026-03-22T12:09:59Z</time></trkpt><trkpt lat="24.935556962414864" lon="121.3546805127023"><ele>52.333333333333336</ele><time>2026-03-22T12:10:00Z</time></trkpt><trkpt lat="24.935616295741944" lon="121.35483992084735"><ele>54.66666666666667</ele><time>2026-03-22T12:10:01Z</time></trkpt><trkpt lat="24.93567129962352" lon="121.35500387167657"><ele>57.0</ele><time>2026-03-22T12:10:02Z</time></trkpt><trkpt lat="24.935738070420634" lon="121.35516733630509"><ele>57.0</ele><time>2026-03-22T12:10:03Z</time></trkpt><trkpt lat="24.935804168553815" lon="121.35533250227321"><ele>57.0</ele><time>2026-03-22T12:10:04Z</time></trkpt><trkpt lat="24.935872626002478" lon="121.35549399308415"><ele>57.0</ele><time>2026-03-22T12:10:05Z</time></trkpt><trkpt lat="24.93594224548391" lon="121.35565712864343"><ele>54.66666666666667</ele><time>2026-03-22T12:10:06Z</time></trkpt><trkpt lat="24.936017625198303" lon="121.35582527664461"><ele>52.333333333333336</ele><time>2026-03-22T12:10:07Z</time></trkpt><trkpt lat="24.936095685904178" lon="121.35599348328894"><ele>50.0</ele><time>2026-03-22T12:10:08Z</time></trkpt><trkpt lat="24.936177560425925" lon="121.35616424097857"><ele>50.0</ele><time>2026-03-22T12:10:09Z</time></trkpt><trkpt lat="24.93625879575086" lon="121.3563328613408"><ele>50.0</ele><time>2026-03-22T12:10:10Z</time></trkpt><trkpt lat="24.936342699688574" lon="121.35650183810294"><ele>50.0</ele><time>2026-03-22T12:10:11Z</time></trkpt><trkpt lat="24.936433554379807" lon="121.3566758740228"><ele>49.333333333333336</ele><time>2026-03-22T12:10:12Z</time></trkpt><trkpt lat="24.93652901544236" lon="121.35684940029593"><ele>48.66666666666667</ele><time>2026-03-22T12:10:13Z</time></trkpt><trkpt lat="24.936627427418006" lon="121.35702379830155"><ele>48.0</ele><time>2026-03-22T12:10:14Z</time></trkpt><trkpt lat="24.936729047784233" lon="121.35719735810112"><ele>47.333333333333336</ele><time>2026-03-22T12:10:15Z</time></trkpt><trkpt lat="24.936834065707963" lon="121.35737048851986"><ele>46.66666666666667</ele><time>2026-03-22T12:10:16Z</time></trkpt><trkpt lat="24.93694220404781" lon="121.35754781757599"><ele>46.0</ele><time>2026-03-22T12:10:17Z</time></trkpt><trkpt lat="24.937052818382167" lon="121.35772439880196"><ele>46.0</ele><time>2026-03-22T12:10:18Z</time></trkpt><trkpt lat="24.937163869603513" lon="121.35789678714794"><ele>46.0</ele><time>2026-03-22T12:10:19Z</time></trkpt><trkpt lat="24.937276001189606" lon="121.35806802482996"><ele>46.0</ele><time>2026-03-22T12:10:20Z</time></trkpt><trkpt lat="24.93738918616702" lon="121.35823553333846"><ele>46.0</ele><time>2026-03-22T12:10:21Z</time></trkpt><trkpt lat="24.9375064602988" lon="121.35840491598994"><ele>46.0</ele><time>2026-03-22T12:10:22Z</time></trkpt><trkpt lat="24.937625051294056" lon="121.35857231400229"><ele>46.0</ele><time>2026-03-22T12:10:23Z</time></trkpt><trkpt lat="24.937744186786738" lon="121.35873710397857"><ele>46.333333333333336</ele><time>2026-03-22T12:10:24Z</time></trkpt><trkpt lat="24.937863747001625" lon="121.35889829394809"><ele>46.666666666666664</ele><time>2026-03-22T12:10:25Z</time></trkpt><trkpt lat="24.937986589620326" lon="121.35905980359075"><ele>47.0</ele><time>2026-03-22T12:10:26Z</time></trkpt><trkpt lat="24.938112085761475" lon="121.35922144942691"><ele>47.0</ele><time>2026-03-22T12:10:27Z</time></trkpt><trkpt lat="24.938240399424334" lon="121.35938907605143"><ele>47.0</ele><time>2026-03-22T12:10:28Z</time></trkpt><trkpt lat="24.938373187780332" lon="121.3595563261918"><ele>47.0</ele><time>2026-03-22T12:10:29Z</time></trkpt><trkpt lat="24.938508409150206" lon="121.35972346186163"><ele>48.0</ele><time>2026-03-22T12:10:30Z</time></trkpt><trkpt lat="24.938645366696704" lon="121.35989112749364"><ele>49.0</ele><time>2026-03-22T12:10:31Z</time></trkpt><trkpt lat="24.93878424681119" lon="121.36005347623289"><ele>50.0</ele><time>2026-03-22T12:10:32Z</time></trkpt><trkpt lat="24.938923932981645" lon="121.36021660158792"><ele>50.0</ele><time>2026-03-22T12:10:33Z</time></trkpt><trkpt lat="24.939061744226372" lon="121.36037682425273"><ele>50.0</ele><time>2026-03-22T12:10:34Z</time></trkpt><trkpt lat="24.939202114321176" lon="121.36053756247885"><ele>50.0</ele><time>2026-03-22T12:10:35Z</time></trkpt><trkpt lat="24.939340195098445" lon="121.36069676308131"><ele>49.333333333333336</ele><time>2026-03-22T12:10:36Z</time></trkpt><trkpt lat="24.93947894035428" lon="121.36085189185587"><ele>48.66666666666667</ele><time>2026-03-22T12:10:37Z</time></trkpt><trkpt lat="24.93961689059186" lon="121.36100709551503"><ele>48.0</ele><time>2026-03-22T12:10:38Z</time></trkpt><trkpt lat="24.939756928603455" lon="121.36115972773977"><ele>48.0</ele><time>2026-03-22T12:10:39Z</time></trkpt><trkpt lat="24.93989639701167" lon="121.36130956942004"><ele>48.0</ele><time>2026-03-22T12:10:40Z</time></trkpt><trkpt lat="24.940035275490185" lon="121.3614581112775"><ele>48.0</ele><time>2026-03-22T12:10:41Z</time></trkpt><trkpt lat="24.94017485931785" lon="121.36160804193331"><ele>46.666666666666664</ele><time>2026-03-22T12:10:42Z</time></trkpt><trkpt lat="24.940316449967764" lon="121.36175364554333"><ele>45.33333333333333</ele><time>2026-03-22T12:10:43Z</time></trkpt><trkpt lat="24.940453401908805" lon="121.36189663887367"><ele>44.0</ele><time>2026-03-22T12:10:44Z</time></trkpt><trkpt lat="24.940592239072693" lon="121.36204191252627"><ele>44.0</ele><time>2026-03-22T12:10:45Z</time></trkpt><trkpt lat="24.94073204171356" lon="121.36218501951356"><ele>44.0</ele><time>2026-03-22T12:10:46Z</time></trkpt><trkpt lat="24.94087130157586" lon="121.36232761650979"><ele>44.0</ele><time>2026-03-22T12:10:47Z</time></trkpt><trkpt lat="24.941011002225395" lon="121.36247143471164"><ele>43.666666666666664</ele><time>2026-03-22T12:10:48Z</time></trkpt><trkpt lat="24.941149818530633" lon="121.36261356788225"><ele>43.333333333333336</ele><time>2026-03-22T12:10:49Z</time></trkpt><trkpt lat="24.94128611475763" lon="121.36275491962778"><ele>43.0</ele><time>2026-03-22T12:10:50Z</time></trkpt><trkpt lat="24.941425439308553" lon="121.36289612105291"><ele>43.0</ele><time>2026-03-22T12:10:51Z</time></trkpt><trkpt lat="24.941563600625663" lon="121.36303679895651"><ele>43.0</ele><time>2026-03-22T12:10:52Z</time></trkpt><trkpt lat="24.941704529998322" lon="121.36318006708025"><ele>43.0</ele><time>2026-03-22T12:10:53Z</time></trkpt><trkpt lat="24.94184408848857" lon="121.36332393972367"><ele>43.0</ele><time>2026-03-22T12:10:54Z</time></trkpt><trkpt lat="24.94197815535358" lon="121.36346189560314"><ele>43.0</ele><time>2026-03-22T12:10:55Z</time></trkpt><trkpt lat="24.942107876565448" lon="121.36359966175144"><ele>43.0</ele><time>2026-03-22T12:10:56Z</time></trkpt><trkpt lat="24.942240659951217" lon="121.3637360336131"><ele>43.333333333333336</ele><time>2026-03-22T12:10:57Z</time></trkpt><trkpt lat="24.942375409381444" lon="121.36387158142267"><ele>43.666666666666664</ele><time>2026-03-22T12:10:58Z</time></trkpt><trkpt lat="24.94250851776781" lon="121.3640056094806"><ele>44.0</ele><time>2026-03-22T12:10:59Z</time></trkpt><trkpt lat="24.942641827954876" lon="121.36414100963371"><ele>43.0</ele><time>2026-03-22T12:11:00Z</time></trkpt><trkpt lat="24.942772950863564" lon="121.3642739846895"><ele>42.0</ele><time>2026-03-22T12:11:01Z</time></trkpt><trkpt lat="24.94290199316709" lon="121.36440678554162"><ele>41.0</ele><time>2026-03-22T12:11:02Z</time></trkpt><trkpt lat="24.94302493127783" lon="121.36453437706066"><ele>41.0</ele><time>2026-03-22T12:11:03Z</time></trkpt><trkpt lat="24.943148060028772" lon="121.3646641866291"><ele>41.0</ele><time>2026-03-22T12:11:04Z</time></trkpt><trkpt lat="24.943272173162985" lon="121.364794601049"><ele>41.0</ele><time>2026-03-22T12:11:05Z</time></trkpt><trkpt lat="24.943393662861553" lon="121.36492461085712"><ele>40.666666666666664</ele><time>2026-03-22T12:11:06Z</time></trkpt><trkpt lat="24.94351359662747" lon="121.36505475549201"><ele>40.333333333333336</ele><time>2026-03-22T12:11:07Z</time></trkpt><trkpt lat="24.943634564900222" lon="121.3651845656465"><ele>40.0</ele><time>2026-03-22T12:11:08Z</time></trkpt><trkpt lat="24.94375255369797" lon="121.36531206537157"><ele>40.0</ele><time>2026-03-22T12:11:09Z</time></trkpt><trkpt lat="24.943868882651767" lon="121.36543876687139"><ele>40.0</ele><time>2026-03-22T12:11:10Z</time></trkpt><trkpt lat="24.943982781039633" lon="121.36556514660366"><ele>40.0</ele><time>2026-03-22T12:11:11Z</time></trkpt><trkpt lat="24.9440971344228" lon="121.36569170480956"><ele>40.333333333333336</ele><time>2026-03-22T12:11:12Z</time></trkpt><trkpt lat="24.944208295206515" lon="121.36581840669282"><ele>40.666666666666664</ele><time>2026-03-22T12:11:13Z</time></trkpt><trkpt lat="24.944318945262438" lon="121.36594630073382"><ele>41.0</ele><time>2026-03-22T12:11:14Z</time></trkpt><trkpt lat="24.944429960540006" lon="121.36607475091871"><ele>41.0</ele><time>2026-03-22T12:11:15Z</time></trkpt><trkpt lat="24.944539489898023" lon="121.36620325500401"><ele>41.0</ele><time>2026-03-22T12:11:16Z</time></trkpt><trkpt lat="24.9446475547567" lon="121.36633061515742"><ele>41.0</ele><time>2026-03-22T12:11:17Z</time></trkpt><trkpt lat="24.944751669782658" lon="121.36645921413688"><ele>41.0</ele><time>2026-03-22T12:11:18Z</time></trkpt><trkpt lat="24.94485719638022" lon="121.36658806248202"><ele>41.0</ele><time>2026-03-22T12:11:19Z</time></trkpt><trkpt lat="24.944964982406916" lon="121.36671943286251"><ele>41.0</ele><time>2026-03-22T12:11:20Z</time></trkpt><trkpt lat="24.94507724773471" lon="121.36685030288409"><ele>41.0</ele><time>2026-03-22T12:11:21Z</time></trkpt><trkpt lat="24.945187215459196" lon="121.36699047136456"><ele>41.0</ele><time>2026-03-22T12:11:22Z</time></trkpt><trkpt lat="24.945293679394723" lon="121.36713740088328"><ele>41.0</ele><time>2026-03-22T12:11:23Z</time></trkpt><trkpt lat="24.94540257410937" lon="121.36727692860235"><ele>41.0</ele><time>2026-03-22T12:11:24Z</time></trkpt><trkpt lat="24.94551694975405" lon="121.36742187478504"><ele>41.0</ele><time>2026-03-22T12:11:25Z</time></trkpt><trkpt lat="24.94562673644573" lon="121.36756727620569"><ele>41.0</ele><time>2026-03-22T12:11:26Z</time></trkpt><trkpt lat="24.945735152504202" lon="121.36771469255359"><ele>41.0</ele><time>2026-03-22T12:11:27Z</time></trkpt><trkpt lat="24.94583847019056" lon="121.3678599487411"><ele>41.0</ele><time>2026-03-22T12:11:28Z</time></trkpt><trkpt lat="24.945943355511055" lon="121.36800567593266"><ele>41.0</ele><time>2026-03-22T12:11:29Z</time></trkpt><trkpt lat="24.946049433608454" lon="121.36815204797075"><ele>41.33333333333333</ele><time>2026-03-22T12:11:30Z</time></trkpt><trkpt lat="24.94615619984137" lon="121.36830222781792"><ele>41.666666666666664</ele><time>2026-03-22T12:11:31Z</time></trkpt><trkpt lat="24.9462637102244" lon="121.36845408425494"><ele>42.0</ele><time>2026-03-22T12:11:32Z</time></trkpt><trkpt lat="24.946370532275534" lon="121.36861096993982"><ele>42.0</ele><time>2026-03-22T12:11:33Z</time></trkpt><trkpt lat="24.94647797445879" lon="121.36876915118194"><ele>42.0</ele><time>2026-03-22T12:11:34Z</time></trkpt><trkpt lat="24.946586197166358" lon="121.36892974938746"><ele>42.0</ele><time>2026-03-22T12:11:35Z</time></trkpt><trkpt lat="24.946694123884786" lon="121.36909332376229"><ele>41.333333333333336</ele><time>2026-03-22T12:11:36Z</time></trkpt><trkpt lat="24.94680229791184" lon="121.36925633483197"><ele>40.66666666666667</ele><time>2026-03-22T12:11:37Z</time></trkpt><trkpt lat="24.94690642795963" lon="121.36941938231432"><ele>40.0</ele><time>2026-03-22T12:11:38Z</time></trkpt><trkpt lat="24.94703089567085" lon="121.36957150114748"><ele>39.0</ele><time>2026-03-22T12:11:39Z</time></trkpt><trkpt lat="24.947122783729284" lon="121.36974829905225"><ele>38.0</ele><time>2026-03-22T12:11:40Z</time></trkpt><trkpt lat="24.94721415442802" lon="121.36991693208626"><ele>37.0</ele><time>2026-03-22T12:11:41Z</time></trkpt><trkpt lat="24.947309532707227" lon="121.37007830307509"><ele>37.0</ele><time>2026-03-22T12:11:42Z</time></trkpt><trkpt lat="24.947405168542822" lon="121.37024142169963"><ele>37.0</ele><time>2026-03-22T12:11:43Z</time></trkpt><trkpt lat="24.947502241883143" lon="121.37040578953558"><ele>37.0</ele><time>2026-03-22T12:11:44Z</time></trkpt><trkpt lat="24.947601343182875" lon="121.37057145820287"><ele>38.333333333333336</ele><time>2026-03-22T12:11:45Z</time></trkpt><trkpt lat="24.94769892913395" lon="121.37074234318904"><ele>39.666666666666664</ele><time>2026-03-22T12:11:46Z</time></trkpt><trkpt lat="24.947797902986878" lon="121.37091810914478"><ele>41.0</ele><time>2026-03-22T12:11:47Z</time></trkpt><trkpt lat="24.947896561141544" lon="121.3710925479969"><ele>41.0</ele><time>2026-03-22T12:11:48Z</time></trkpt><trkpt lat="24.947994470750128" lon="121.37126740039018"><ele>41.0</ele><time>2026-03-22T12:11:49Z</time></trkpt><trkpt lat="24.94809081005737" lon="121.37144433038318"><ele>41.0</ele><time>2026-03-22T12:11:50Z</time></trkpt><trkpt lat="24.948189007288768" lon="121.37162867879475"><ele>40.666666666666664</ele><time>2026-03-22T12:11:51Z</time></trkpt><trkpt lat="24.948281703153906" lon="121.37180971521546"><ele>40.333333333333336</ele><time>2026-03-22T12:11:52Z</time></trkpt><trkpt lat="24.948369982731162" lon="121.37198709104692"><ele>40.0</ele><time>2026-03-22T12:11:53Z</time></trkpt><trkpt lat="24.948463045714128" lon="121.37217304208815"><ele>38.333333333333336</ele><time>2026-03-22T12:11:54Z</time></trkpt><trkpt lat="24.948554556234726" lon="121.37236154932292"><ele>36.666666666666664</ele><time>2026-03-22T12:11:55Z</time></trkpt><trkpt lat="24.94864622404903" lon="121.37255148520423"><ele>35.0</ele><time>2026-03-22T12:11:56Z</time></trkpt><trkpt lat="24.948736673488924" lon="121.37274344550381"><ele>35.0</ele><time>2026-03-22T12:11:57Z</time></trkpt><trkpt lat="24.948828690854352" lon="121.37293955897147"><ele>35.0</ele><time>2026-03-22T12:11:58Z</time></trkpt><trkpt lat="24.94891952188134" lon="121.37313626562506"><ele>35.0</ele><time>2026-03-22T12:11:59Z</time></trkpt><trkpt lat="24.949008048823575" lon="121.37333432550861"><ele>36.0</ele><time>2026-03-22T12:12:00Z</time></trkpt><trkpt lat="24.94909649550424" lon="121.37353467308942"><ele>37.0</ele><time>2026-03-22T12:12:01Z</time></trkpt><trkpt lat="24.949184932035443" lon="121.37373606183431"><ele>38.0</ele><time>2026-03-22T12:12:02Z</time></trkpt><trkpt lat="24.949271436268322" lon="121.37393791599942"><ele>38.0</ele><time>2026-03-22T12:12:03Z</time></trkpt><trkpt lat="24.949354750578927" lon="121.37414280220507"><ele>38.0</ele><time>2026-03-22T12:12:04Z</time></trkpt><trkpt lat="24.949437650553485" lon="121.37435155954108"><ele>38.0</ele><time>2026-03-22T12:12:05Z</time></trkpt><trkpt lat="24.949518889196874" lon="121.37455876800382"><ele>38.33333333333333</ele><time>2026-03-22T12:12:06Z</time></trkpt><trkpt lat="24.949598646462153" lon="121.3747660825555"><ele>38.666666666666664</ele><time>2026-03-22T12:12:07Z</time></trkpt><trkpt lat="24.94967999900896" lon="121.37497427281"><ele>39.0</ele><time>2026-03-22T12:12:08Z</time></trkpt><trkpt lat="24.94975878699376" lon="121.37518620465107"><ele>39.0</ele><time>2026-03-22T12:12:09Z</time></trkpt><trkpt lat="24.94983559147564" lon="121.37539938886633"><ele>39.0</ele><time>2026-03-22T12:12:10Z</time></trkpt><trkpt lat="24.949909396383084" lon="121.37561360207899"><ele>39.0</ele><time>2026-03-22T12:12:11Z</time></trkpt><trkpt lat="24.94998371385509" lon="121.37583102774946"><ele>38.0</ele><time>2026-03-22T12:12:12Z</time></trkpt><trkpt lat="24.950059136996472" lon="121.37604983825813"><ele>37.0</ele><time>2026-03-22T12:12:13Z</time></trkpt><trkpt lat="24.950132440632174" lon="121.3762675113117"><ele>36.0</ele><time>2026-03-22T12:12:14Z</time></trkpt><trkpt lat="24.950200036007878" lon="121.37648264758847"><ele>36.0</ele><time>2026-03-22T12:12:15Z</time></trkpt><trkpt lat="24.950267727737607" lon="121.3766964011508"><ele>36.0</ele><time>2026-03-22T12:12:16Z</time></trkpt><trkpt lat="24.9503363939012" lon="121.3769115891211"><ele>36.0</ele><time>2026-03-22T12:12:17Z</time></trkpt><trkpt lat="24.950401836466547" lon="121.37712347303497"><ele>36.333333333333336</ele><time>2026-03-22T12:12:18Z</time></trkpt><trkpt lat="24.95046574734481" lon="121.37733685056048"><ele>36.66666666666667</ele><time>2026-03-22T12:12:19Z</time></trkpt><trkpt lat="24.950527684188273" lon="121.3775510302117"><ele>37.0</ele><time>2026-03-22T12:12:20Z</time></trkpt><trkpt lat="24.95058704310461" lon="121.37776226309681"><ele>37.0</ele><time>2026-03-22T12:12:21Z</time></trkpt><trkpt lat="24.95064432476481" lon="121.37797253221524"><ele>37.0</ele><time>2026-03-22T12:12:22Z</time></trkpt><trkpt lat="24.950699238512062" lon="121.3781824631255"><ele>37.0</ele><time>2026-03-22T12:12:23Z</time></trkpt><trkpt lat="24.95075454775922" lon="121.37839476117269"><ele>37.0</ele><time>2026-03-22T12:12:24Z</time></trkpt><trkpt lat="24.95080935844027" lon="121.37860744491927"><ele>37.0</ele><time>2026-03-22T12:12:25Z</time></trkpt><trkpt lat="24.950861327660455" lon="121.37881956160975"><ele>37.0</ele><time>2026-03-22T12:12:26Z</time></trkpt><trkpt lat="24.95091539113618" lon="121.37903649449927"><ele>37.0</ele><time>2026-03-22T12:12:27Z</time></trkpt><trkpt lat="24.950965687018122" lon="121.37925284314265"><ele>37.0</ele><time>2026-03-22T12:12:28Z</time></trkpt><trkpt lat="24.95101441887548" lon="121.3794683785264"><ele>37.0</ele><time>2026-03-22T12:12:29Z</time></trkpt><trkpt lat="24.951060389371918" lon="121.37968773623439"><ele>37.0</ele><time>2026-03-22T12:12:30Z</time></trkpt><trkpt lat="24.95110476995453" lon="121.37990875131716"><ele>37.0</ele><time>2026-03-22T12:12:31Z</time></trkpt><trkpt lat="24.951149839444433" lon="121.38013288468194"><ele>37.0</ele><time>2026-03-22T12:12:32Z</time></trkpt><trkpt lat="24.951193649757055" lon="121.38035810538152"><ele>36.0</ele><time>2026-03-22T12:12:33Z</time></trkpt><trkpt lat="24.951235125490296" lon="121.3805820455082"><ele>35.0</ele><time>2026-03-22T12:12:34Z</time></trkpt><trkpt lat="24.95127440982676" lon="121.38080597340068"><ele>34.0</ele><time>2026-03-22T12:12:35Z</time></trkpt><trkpt lat="24.951312008657887" lon="121.38103125083985"><ele>34.0</ele><time>2026-03-22T12:12:36Z</time></trkpt><trkpt lat="24.95134853802245" lon="121.38126009186831"><ele>34.0</ele><time>2026-03-22T12:12:37Z</time></trkpt><trkpt lat="24.951383938654306" lon="121.38149086602307"><ele>34.0</ele><time>2026-03-22T12:12:38Z</time></trkpt><trkpt lat="24.951417466539123" lon="121.38172249714886"><ele>34.333333333333336</ele><time>2026-03-22T12:12:39Z</time></trkpt><trkpt lat="24.95145122951348" lon="121.38195402454798"><ele>34.666666666666664</ele><time>2026-03-22T12:12:40Z</time></trkpt><trkpt lat="24.951480776677826" lon="121.38218234426287"><ele>35.0</ele><time>2026-03-22T12:12:41Z</time></trkpt><trkpt lat="24.95150820106561" lon="121.38241159341752"><ele>35.0</ele><time>2026-03-22T12:12:42Z</time></trkpt><trkpt lat="24.95153151675515" lon="121.3826455627519"><ele>35.0</ele><time>2026-03-22T12:12:43Z</time></trkpt><trkpt lat="24.95155442353623" lon="121.38288047024373"><ele>35.0</ele><time>2026-03-22T12:12:44Z</time></trkpt><trkpt lat="24.951578837003677" lon="121.38311587445826"><ele>34.0</ele><time>2026-03-22T12:12:45Z</time></trkpt><trkpt lat="24.951601830469034" lon="121.38335218188467"><ele>33.0</ele><time>2026-03-22T12:12:46Z</time></trkpt><trkpt lat="24.951622689967127" lon="121.38359030640464"><ele>32.0</ele><time>2026-03-22T12:12:47Z</time></trkpt><trkpt lat="24.951642939568796" lon="121.38382730370559"><ele>31.0</ele><time>2026-03-22T12:12:48Z</time></trkpt><trkpt lat="24.951661201307367" lon="121.38406160426293"><ele>30.0</ele><time>2026-03-22T12:12:49Z</time></trkpt><trkpt lat="24.951676627583247" lon="121.38429875431518"><ele>29.0</ele><time>2026-03-22T12:12:50Z</time></trkpt><trkpt lat="24.951690634116808" lon="121.38453301501559"><ele>30.0</ele><time>2026-03-22T12:12:51Z</time></trkpt><trkpt lat="24.95170308690966" lon="121.38476617236647"><ele>31.0</ele><time>2026-03-22T12:12:52Z</time></trkpt><trkpt lat="24.951713614020814" lon="121.38499688666974"><ele>32.0</ele><time>2026-03-22T12:12:53Z</time></trkpt><trkpt lat="24.95172112062065" lon="121.38522519918303"><ele>32.0</ele><time>2026-03-22T12:12:54Z</time></trkpt><trkpt lat="24.951727810736934" lon="121.38545390294529"><ele>32.0</ele><time>2026-03-22T12:12:55Z</time></trkpt><trkpt lat="24.951732618234555" lon="121.38568245845964"><ele>32.0</ele><time>2026-03-22T12:12:56Z</time></trkpt><trkpt lat="24.951736152905205" lon="121.38591099848844"><ele>31.666666666666664</ele><time>2026-03-22T12:12:57Z</time></trkpt><trkpt lat="24.951738837620077" lon="121.38613757300257"><ele>31.333333333333336</ele><time>2026-03-22T12:12:58Z</time></trkpt><trkpt lat="24.951740535577468" lon="121.38636297835659"><ele>31.0</ele><time>2026-03-22T12:12:59Z</time></trkpt><trkpt lat="24.95174047845065" lon="121.38658853400062"><ele>30.666666666666668</ele><time>2026-03-22T12:13:00Z</time></trkpt><trkpt lat="24.951740114817785" lon="121.38681367730545"><ele>30.333333333333336</ele><time>2026-03-22T12:13:01Z</time></trkpt><trkpt lat="24.951739197202397" lon="121.38704160076519"><ele>30.0</ele><time>2026-03-22T12:13:02Z</time></trkpt><trkpt lat="24.951736629410465" lon="121.38726946296998"><ele>30.666666666666664</ele><time>2026-03-22T12:13:03Z</time></trkpt><trkpt lat="24.95173366629371" lon="121.38749591923957"><ele>31.333333333333332</ele><time>2026-03-22T12:13:04Z</time></trkpt><trkpt lat="24.951729326839217" lon="121.38772127138436"><ele>32.0</ele><time>2026-03-22T12:13:05Z</time></trkpt><trkpt lat="24.951722506542694" lon="121.38794769164618"><ele>32.0</ele><time>2026-03-22T12:13:06Z</time></trkpt><trkpt lat="24.95171455810922" lon="121.38817686869493"><ele>32.0</ele><time>2026-03-22T12:13:07Z</time></trkpt><trkpt lat="24.95170723236283" lon="121.38840533444063"><ele>32.0</ele><time>2026-03-22T12:13:08Z</time></trkpt><trkpt lat="24.951699035731714" lon="121.388633955313"><ele>30.333333333333332</ele><time>2026-03-22T12:13:09Z</time></trkpt><trkpt lat="24.951688240953956" lon="121.38886391017463"><ele>28.666666666666664</ele><time>2026-03-22T12:13:10Z</time></trkpt><trkpt lat="24.95167690534517" lon="121.3890940582876"><ele>27.0</ele><time>2026-03-22T12:13:11Z</time></trkpt><trkpt lat="24.95166603897791" lon="121.38932679164282"><ele>27.0</ele><time>2026-03-22T12:13:12Z</time></trkpt><trkpt lat="24.951654427891672" lon="121.38955970795458"><ele>27.0</ele><time>2026-03-22T12:13:13Z</time></trkpt><trkpt lat="24.951643146878116" lon="121.38979269315321"><ele>27.0</ele><time>2026-03-22T12:13:14Z</time></trkpt><trkpt lat="24.951630104034678" lon="121.3900227068199"><ele>28.333333333333336</ele><time>2026-03-22T12:13:15Z</time></trkpt><trkpt lat="24.951615037017294" lon="121.39025226313649"><ele>29.666666666666668</ele><time>2026-03-22T12:13:16Z</time></trkpt><trkpt lat="24.95159899715099" lon="121.3904820187706"><ele>31.0</ele><time>2026-03-22T12:13:17Z</time></trkpt><trkpt lat="24.95158220198951" lon="121.39071022944887"><ele>31.0</ele><time>2026-03-22T12:13:18Z</time></trkpt><trkpt lat="24.951565237308266" lon="121.39093622407864"><ele>31.0</ele><time>2026-03-22T12:13:19Z</time></trkpt><trkpt lat="24.95154785706624" lon="121.39116162647916"><ele>31.0</ele><time>2026-03-22T12:13:20Z</time></trkpt><trkpt lat="24.951529949060753" lon="121.39138712048627"><ele>31.0</ele><time>2026-03-22T12:13:21Z</time></trkpt><trkpt lat="24.951512044855555" lon="121.39161041965914"><ele>31.0</ele><time>2026-03-22T12:13:22Z</time></trkpt><trkpt lat="24.951492903888656" lon="121.39183471360492"><ele>31.0</ele><time>2026-03-22T12:13:23Z</time></trkpt><trkpt lat="24.951473987678725" lon="121.39206382342392"><ele>33.333333333333336</ele><time>2026-03-22T12:13:24Z</time></trkpt><trkpt lat="24.951454613234386" lon="121.39229443312945"><ele>35.666666666666664</ele><time>2026-03-22T12:13:25Z</time></trkpt><trkpt lat="24.951434795808048" lon="121.3925294573719"><ele>38.0</ele><time>2026-03-22T12:13:26Z</time></trkpt><trkpt lat="24.95141259525216" lon="121.39276288149193"><ele>38.0</ele><time>2026-03-22T12:13:27Z</time></trkpt><trkpt lat="24.95138848504169" lon="121.39299516469845"><ele>38.0</ele><time>2026-03-22T12:13:28Z</time></trkpt><trkpt lat="24.951363937332538" lon="121.39323321157568"><ele>38.0</ele><time>2026-03-22T12:13:29Z</time></trkpt><trkpt lat="24.951340407194934" lon="121.39347116671475"><ele>38.33333333333333</ele><time>2026-03-22T12:13:30Z</time></trkpt><trkpt lat="24.95131749142494" lon="121.39371072865725"><ele>38.666666666666664</ele><time>2026-03-22T12:13:31Z</time></trkpt><trkpt lat="24.951293535836275" lon="121.39395350163427"><ele>39.0</ele><time>2026-03-22T12:13:32Z</time></trkpt><trkpt lat="24.95127019511322" lon="121.39419793241807"><ele>39.0</ele><time>2026-03-22T12:13:33Z</time></trkpt><trkpt lat="24.95124589825833" lon="121.39444326589022"><ele>39.0</ele><time>2026-03-22T12:13:34Z</time></trkpt><trkpt lat="24.951223688149856" lon="121.39468968149005"><ele>39.0</ele><time>2026-03-22T12:13:35Z</time></trkpt><trkpt lat="24.951202073983943" lon="121.39493975278569"><ele>37.0</ele><time>2026-03-22T12:13:36Z</time></trkpt><trkpt lat="24.951180314140256" lon="121.39518969493865"><ele>35.0</ele><time>2026-03-22T12:13:37Z</time></trkpt><trkpt lat="24.95115810485637" lon="121.39544202604566"><ele>35.0</ele><time>2026-03-22T12:13:38Z</time></trkpt><trkpt lat="24.951134648330793" lon="121.39569801136498"><ele>35.0</ele><time>2026-03-22T12:13:39Z</time></trkpt><trkpt lat="24.951111483597234" lon="121.39595274907923"><ele>35.0</ele><time>2026-03-22T12:13:40Z</time></trkpt><trkpt lat="24.951087861556015" lon="121.39620611893554"><ele>35.0</ele><time>2026-03-22T12:13:41Z</time></trkpt><trkpt lat="24.95106406361912" lon="121.39645768037127"><ele>32.5</ele><time>2026-03-22T12:13:42Z</time></trkpt><trkpt lat="24.951040955703988" lon="121.39670696467357"><ele>30.0</ele><time>2026-03-22T12:13:43Z</time></trkpt><trkpt lat="24.951017549533493" lon="121.3969558944954"><ele>30.5</ele><time>2026-03-22T12:13:44Z</time></trkpt><trkpt lat="24.95099406527525" lon="121.39720494741293"><ele>31.0</ele><time>2026-03-22T12:13:45Z</time></trkpt><trkpt lat="24.950972231142124" lon="121.39745003203174"><ele>31.0</ele><time>2026-03-22T12:13:46Z</time></trkpt><trkpt lat="24.95095076045068" lon="121.39769179834616"><ele>31.0</ele><time>2026-03-22T12:13:47Z</time></trkpt><trkpt lat="24.950930592917405" lon="121.39792773730163"><ele>31.0</ele><time>2026-03-22T12:13:48Z</time></trkpt><trkpt lat="24.950911270096967" lon="121.39815791427759"><ele>31.0</ele><time>2026-03-22T12:13:49Z</time></trkpt><trkpt lat="24.950890265804727" lon="121.39838411190952"><ele>31.0</ele><time>2026-03-22T12:13:50Z</time></trkpt><trkpt lat="24.950869914321235" lon="121.39860408947588"><ele>31.0</ele><time>2026-03-22T12:13:51Z</time></trkpt><trkpt lat="24.95084975393158" lon="121.3988075115697"><ele>31.666666666666668</ele><time>2026-03-22T12:13:52Z</time></trkpt><trkpt lat="24.95083330884476" lon="121.39902654257341"><ele>32.333333333333336</ele><time>2026-03-22T12:13:53Z</time></trkpt><trkpt lat="24.950811626276998" lon="121.39919214712859"><ele>33.0</ele><time>2026-03-22T12:13:54Z</time></trkpt><trkpt lat="24.950792782234856" lon="121.39939211640402"><ele>33.0</ele><time>2026-03-22T12:13:55Z</time></trkpt><trkpt lat="24.95078040431743" lon="121.3995807264865"><ele>33.0</ele><time>2026-03-22T12:13:56Z</time></trkpt><trkpt lat="24.950752077113567" lon="121.39975018878697"><ele>33.0</ele><time>2026-03-22T12:13:57Z</time></trkpt><trkpt lat="24.95073799901046" lon="121.39990414362549"><ele>32.5</ele><time>2026-03-22T12:13:58Z</time></trkpt><trkpt lat="24.95072967745582" lon="121.40005248446074"><ele>32.0</ele><time>2026-03-22T12:13:59Z</time></trkpt><trkpt lat="24.95072046175511" lon="121.40020043776912"><ele>31.5</ele><time>2026-03-22T12:14:00Z</time></trkpt><trkpt lat="24.950706945273375" lon="121.40035249046244"><ele>31.0</ele><time>2026-03-22T12:14:01Z</time></trkpt><trkpt lat="24.950694318698275" lon="121.40049973832673"><ele>31.0</ele><time>2026-03-22T12:14:02Z</time></trkpt><trkpt lat="24.950679647997664" lon="121.40065448442876"><ele>31.0</ele><time>2026-03-22T12:14:03Z</time></trkpt><trkpt lat="24.95066557745701" lon="121.40080459828455"><ele>31.0</ele><time>2026-03-22T12:14:04Z</time></trkpt><trkpt lat="24.95065220295494" lon="121.40095452084877"><ele>31.0</ele><time>2026-03-22T12:14:05Z</time></trkpt><trkpt lat="24.95063891824862" lon="121.40110414270586"><ele>31.0</ele><time>2026-03-22T12:14:06Z</time></trkpt><trkpt lat="24.950626498583677" lon="121.40125048221272"><ele>31.0</ele><time>2026-03-22T12:14:07Z</time></trkpt><trkpt lat="24.950612959988483" lon="121.40139020393521"><ele>31.0</ele><time>2026-03-22T12:14:08Z</time></trkpt><trkpt lat="24.950600677357976" lon="121.40152341136948"><ele>31.0</ele><time>2026-03-22T12:14:09Z</time></trkpt><trkpt lat="24.950588253816687" lon="121.40165710236971"><ele>30.75</ele><time>2026-03-22T12:14:10Z</time></trkpt><trkpt lat="24.950576602716755" lon="121.40178928004677"><ele>30.5</ele><time>2026-03-22T12:14:11Z</time></trkpt><trkpt lat="24.950564957330375" lon="121.40192210847688"><ele>30.25</ele><time>2026-03-22T12:14:12Z</time></trkpt><trkpt lat="24.95055539825736" lon="121.40205996860107"><ele>30.0</ele><time>2026-03-22T12:14:13Z</time></trkpt><trkpt lat="24.95054490391451" lon="121.40220234026455"><ele>29.25</ele><time>2026-03-22T12:14:14Z</time></trkpt><trkpt lat="24.950532894562475" lon="121.40234723493334"><ele>28.5</ele><time>2026-03-22T12:14:15Z</time></trkpt><trkpt lat="24.950523277897243" lon="121.40249037120564"><ele>27.75</ele><time>2026-03-22T12:14:16Z</time></trkpt><trkpt lat="24.95051140227492" lon="121.4026335358145"><ele>27.0</ele><time>2026-03-22T12:14:17Z</time></trkpt><trkpt lat="24.950498707265112" lon="121.40277871563553"><ele>27.0</ele><time>2026-03-22T12:14:18Z</time></trkpt><trkpt lat="24.950485852003286" lon="121.40292577920698"><ele>27.0</ele><time>2026-03-22T12:14:19Z</time></trkpt><trkpt lat="24.95047273595873" lon="121.4030764574236"><ele>27.0</ele><time>2026-03-22T12:14:20Z</time></trkpt><trkpt lat="24.95045884618147" lon="121.40322929217278"><ele>27.0</ele><time>2026-03-22T12:14:21Z</time></trkpt><trkpt lat="24.950443801624164" lon="121.40338459826185"><ele>26.25</ele><time>2026-03-22T12:14:22Z</time></trkpt><trkpt lat="24.950430060872414" lon="121.40354102843807"><ele>25.5</ele><time>2026-03-22T12:14:23Z</time></trkpt><trkpt lat="24.95041706018547" lon="121.40369741980537"><ele>24.75</ele><time>2026-03-22T12:14:24Z</time></trkpt><trkpt lat="24.950405060709716" lon="121.40385464052099"><ele>24.0</ele><time>2026-03-22T12:14:25Z</time></trkpt><trkpt lat="24.95039124743938" lon="121.40401247742922"><ele>23.5</ele><time>2026-03-22T12:14:26Z</time></trkpt><trkpt lat="24.950376709250673" lon="121.40416976949719"><ele>23.0</ele><time>2026-03-22T12:14:27Z</time></trkpt><trkpt lat="24.95036394430955" lon="121.40433302503851"><ele>22.5</ele><time>2026-03-22T12:14:28Z</time></trkpt><trkpt lat="24.950350102620465" lon="121.40449858743825"><ele>22.0</ele><time>2026-03-22T12:14:29Z</time></trkpt><trkpt lat="24.95033439283206" lon="121.40466836703865"><ele>22.0</ele><time>2026-03-22T12:14:30Z</time></trkpt><trkpt lat="24.950319253212935" lon="121.40483995850306"><ele>22.0</ele><time>2026-03-22T12:14:31Z</time></trkpt><trkpt lat="24.950304581006588" lon="121.40500649993147"><ele>22.0</ele><time>2026-03-22T12:14:32Z</time></trkpt><trkpt lat="24.95028854347013" lon="121.40517122442489"><ele>22.0</ele><time>2026-03-22T12:14:33Z</time></trkpt><trkpt lat="24.950273595244138" lon="121.40533451951471"><ele>22.0</ele><time>2026-03-22T12:14:34Z</time></trkpt><trkpt lat="24.950259372538895" lon="121.4054950952248"><ele>22.0</ele><time>2026-03-22T12:14:35Z</time></trkpt><trkpt lat="24.95024515929738" lon="121.40565339554517"><ele>22.0</ele><time>2026-03-22T12:14:36Z</time></trkpt><trkpt lat="24.950231244765448" lon="121.40581109464739"><ele>21.5</ele><time>2026-03-22T12:14:37Z</time></trkpt><trkpt lat="24.95021742767053" lon="121.40596580237316"><ele>21.0</ele><time>2026-03-22T12:14:38Z</time></trkpt><trkpt lat="24.950202654503496" lon="121.40611653829332"><ele>20.5</ele><time>2026-03-22T12:14:39Z</time></trkpt><trkpt lat="24.950186646664644" lon="121.40627056066693"><ele>20.0</ele><time>2026-03-22T12:14:40Z</time></trkpt><trkpt lat="24.950170803052185" lon="121.40643056422347"><ele>20.0</ele><time>2026-03-22T12:14:41Z</time></trkpt><trkpt lat="24.950157339682992" lon="121.4065950512886"><ele>20.0</ele><time>2026-03-22T12:14:42Z</time></trkpt><trkpt lat="24.950143495867337" lon="121.40676159967887"><ele>20.0</ele><time>2026-03-22T12:14:43Z</time></trkpt><trkpt lat="24.95013104848291" lon="121.40692445556643"><ele>20.0</ele><time>2026-03-22T12:14:44Z</time></trkpt><trkpt lat="24.95011843437651" lon="121.40708465037137"><ele>20.0</ele><time>2026-03-22T12:14:45Z</time></trkpt><trkpt lat="24.95010469180114" lon="121.40724805688386"><ele>20.0</ele><time>2026-03-22T12:14:46Z</time></trkpt><trkpt lat="24.950091637059472" lon="121.40741433479747"><ele>20.0</ele><time>2026-03-22T12:14:47Z</time></trkpt><trkpt lat="24.950078295772304" lon="121.40758358872348"><ele>22.0</ele><time>2026-03-22T12:14:48Z</time></trkpt><trkpt lat="24.95006710318897" lon="121.40775577578523"><ele>24.0</ele><time>2026-03-22T12:14:49Z</time></trkpt><trkpt lat="24.95005583714964" lon="121.40793126016636"><ele>26.0</ele><time>2026-03-22T12:14:50Z</time></trkpt><trkpt lat="24.950045252371805" lon="121.4081081644153"><ele>26.666666666666664</ele><time>2026-03-22T12:14:51Z</time></trkpt><trkpt lat="24.95003600469406" lon="121.40828349240371"><ele>27.333333333333336</ele><time>2026-03-22T12:14:52Z</time></trkpt><trkpt lat="24.950026630082046" lon="121.40845538641724"><ele>28.0</ele><time>2026-03-22T12:14:53Z</time></trkpt><trkpt lat="24.950017087111203" lon="121.40862845019461"><ele>28.0</ele><time>2026-03-22T12:14:54Z</time></trkpt><trkpt lat="24.950009599298014" lon="121.40880613200866"><ele>28.0</ele><time>2026-03-22T12:14:55Z</time></trkpt><trkpt lat="24.950006012604156" lon="121.40898945064697"><ele>28.0</ele><time>2026-03-22T12:14:56Z</time></trkpt><trkpt lat="24.9500024581575" lon="121.4091750501558"><ele>27.0</ele><time>2026-03-22T12:14:57Z</time></trkpt><trkpt lat="24.949999712883724" lon="121.40936593256929"><ele>26.0</ele><time>2026-03-22T12:14:58Z</time></trkpt><trkpt lat="24.949999582806374" lon="121.40955409771071"><ele>25.0</ele><time>2026-03-22T12:14:59Z</time></trkpt><trkpt lat="24.950001951478733" lon="121.40974206677473"><ele>24.666666666666668</ele><time>2026-03-22T12:15:00Z</time></trkpt><trkpt lat="24.950004215335436" lon="121.40993490178714"><ele>24.333333333333336</ele><time>2026-03-22T12:15:01Z</time></trkpt><trkpt lat="24.950009269608568" lon="121.41013006031282"><ele>24.0</ele><time>2026-03-22T12:15:02Z</time></trkpt><trkpt lat="24.95001867557594" lon="121.4103289091824"><ele>24.0</ele><time>2026-03-22T12:15:03Z</time></trkpt><trkpt lat="24.950032161128934" lon="121.4105267249694"><ele>24.0</ele><time>2026-03-22T12:15:04Z</time></trkpt><trkpt lat="24.95004678521186" lon="121.41072327750074"><ele>24.0</ele><time>2026-03-22T12:15:05Z</time></trkpt><trkpt lat="24.950062902680695" lon="121.4109180224165"><ele>24.0</ele><time>2026-03-22T12:15:06Z</time></trkpt><trkpt lat="24.950081135319028" lon="121.41111324284044"><ele>24.0</ele><time>2026-03-22T12:15:07Z</time></trkpt><trkpt lat="24.950105353988636" lon="121.4113131506656"><ele>24.0</ele><time>2026-03-22T12:15:08Z</time></trkpt><trkpt lat="24.95013261096121" lon="121.41151206815464"><ele>25.666666666666664</ele><time>2026-03-22T12:15:09Z</time></trkpt><trkpt lat="24.95016223080284" lon="121.41170702788864"><ele>27.333333333333332</ele><time>2026-03-22T12:15:10Z</time></trkpt><trkpt lat="24.95019423048268" lon="121.41190135939769"><ele>29.0</ele><time>2026-03-22T12:15:11Z</time></trkpt><trkpt lat="24.950231207722798" lon="121.4120983280203"><ele>29.0</ele><time>2026-03-22T12:15:12Z</time></trkpt><trkpt lat="24.95027151918952" lon="121.41229580659653"><ele>29.0</ele><time>2026-03-22T12:15:13Z</time></trkpt><trkpt lat="24.950316233000244" lon="121.41249350138926"><ele>29.0</ele><time>2026-03-22T12:15:14Z</time></trkpt><trkpt lat="24.950366214134043" lon="121.41269125502502"><ele>29.0</ele><time>2026-03-22T12:15:15Z</time></trkpt><trkpt lat="24.950417102636166" lon="121.41288746938409"><ele>29.0</ele><time>2026-03-22T12:15:16Z</time></trkpt><trkpt lat="24.9504738450864" lon="121.41308236646888"><ele>29.0</ele><time>2026-03-22T12:15:17Z</time></trkpt><trkpt lat="24.950533399391226" lon="121.41327599991189"><ele>29.0</ele><time>2026-03-22T12:15:18Z</time></trkpt><trkpt lat="24.950596300784984" lon="121.41347051897122"><ele>29.0</ele><time>2026-03-22T12:15:19Z</time></trkpt><trkpt lat="24.95066543271615" lon="121.41366370279954"><ele>29.0</ele><time>2026-03-22T12:15:20Z</time></trkpt><trkpt lat="24.95073896813622" lon="121.4138588135167"><ele>30.333333333333332</ele><time>2026-03-22T12:15:21Z</time></trkpt><trkpt lat="24.950814456173298" lon="121.41404951798827"><ele>31.666666666666664</ele><time>2026-03-22T12:15:22Z</time></trkpt><trkpt lat="24.950893041737995" lon="121.41423636710437"><ele>33.0</ele><time>2026-03-22T12:15:23Z</time></trkpt><trkpt lat="24.95097565695959" lon="121.41441990869144"><ele>31.666666666666664</ele><time>2026-03-22T12:15:24Z</time></trkpt><trkpt lat="24.951060231613162" lon="121.41460103668808"><ele>30.333333333333332</ele><time>2026-03-22T12:15:25Z</time></trkpt><trkpt lat="24.95114802667107" lon="121.41477748651059"><ele>29.0</ele><time>2026-03-22T12:15:26Z</time></trkpt><trkpt lat="24.951236838269356" lon="121.41495102839929"><ele>29.0</ele><time>2026-03-22T12:15:27Z</time></trkpt><trkpt lat="24.951328759606252" lon="121.4151224093349"><ele>29.0</ele><time>2026-03-22T12:15:28Z</time></trkpt><trkpt lat="24.951421143671446" lon="121.41529114643224"><ele>29.0</ele><time>2026-03-22T12:15:29Z</time></trkpt><trkpt lat="24.95151853581819" lon="121.4154633015813"><ele>29.666666666666664</ele><time>2026-03-22T12:15:30Z</time></trkpt><trkpt lat="24.95161919266398" lon="121.41562672061984"><ele>30.333333333333336</ele><time>2026-03-22T12:15:31Z</time></trkpt><trkpt lat="24.95172586996643" lon="121.41578894249585"><ele>31.0</ele><time>2026-03-22T12:15:32Z</time></trkpt><trkpt lat="24.951836932989572" lon="121.41595061774794"><ele>31.333333333333336</ele><time>2026-03-22T12:15:33Z</time></trkpt><trkpt lat="24.951949940695833" lon="121.41611494455266"><ele>31.666666666666664</ele><time>2026-03-22T12:15:34Z</time></trkpt><trkpt lat="24.952069210264685" lon="121.41627248036495"><ele>32.0</ele><time>2026-03-22T12:15:35Z</time></trkpt><trkpt lat="24.952190761625378" lon="121.41643558555373"><ele>32.0</ele><time>2026-03-22T12:15:36Z</time></trkpt><trkpt lat="24.95231701755349" lon="121.4165941545547"><ele>32.0</ele><time>2026-03-22T12:15:37Z</time></trkpt><trkpt lat="24.952449020371937" lon="121.41674990537871"><ele>32.0</ele><time>2026-03-22T12:15:38Z</time></trkpt><trkpt lat="24.952587095916414" lon="121.41690486081185"><ele>32.666666666666664</ele><time>2026-03-22T12:15:39Z</time></trkpt><trkpt lat="24.952724851421113" lon="121.4170566054056"><ele>33.333333333333336</ele><time>2026-03-22T12:15:40Z</time></trkpt><trkpt lat="24.952863492325502" lon="121.41720359999046"><ele>34.0</ele><time>2026-03-22T12:15:41Z</time></trkpt><trkpt lat="24.95300646716274" lon="121.4173458657541"><ele>34.0</ele><time>2026-03-22T12:15:42Z</time></trkpt><trkpt lat="24.953150052607054" lon="121.41748839072419"><ele>34.0</ele><time>2026-03-22T12:15:43Z</time></trkpt><trkpt lat="24.95329674532917" lon="121.41762582346732"><ele>34.0</ele><time>2026-03-22T12:15:44Z</time></trkpt><trkpt lat="24.953442337210927" lon="121.41776277293762"><ele>34.0</ele><time>2026-03-22T12:15:45Z</time></trkpt><trkpt lat="24.95358981515984" lon="121.41789384299365"><ele>34.0</ele><time>2026-03-22T12:15:46Z</time></trkpt><trkpt lat="24.95372884529988" lon="121.41801641780013"><ele>34.0</ele><time>2026-03-22T12:15:47Z</time></trkpt><trkpt lat="24.953866937909726" lon="121.4181351466955"><ele>34.0</ele><time>2026-03-22T12:15:48Z</time></trkpt><trkpt lat="24.954001920649702" lon="121.41825035069844"><ele>34.0</ele><time>2026-03-22T12:15:49Z</time></trkpt><trkpt lat="24.954132867979055" lon="121.41835933918486"><ele>34.0</ele><time>2026-03-22T12:15:50Z</time></trkpt><trkpt lat="24.954259164073935" lon="121.41846911527735"><ele>33.5</ele><time>2026-03-22T12:15:51Z</time></trkpt><trkpt lat="24.954379836268032" lon="121.41857260957123"><ele>33.0</ele><time>2026-03-22T12:15:52Z</time></trkpt><trkpt lat="24.954495077600416" lon="121.41867337233293"><ele>32.5</ele><time>2026-03-22T12:15:53Z</time></trkpt><trkpt lat="24.954610591260586" lon="121.41876953350952"><ele>32.0</ele><time>2026-03-22T12:15:54Z</time></trkpt><trkpt lat="24.95472541599698" lon="121.41886725893715"><ele>32.0</ele><time>2026-03-22T12:15:55Z</time></trkpt><trkpt lat="24.954840485243935" lon="121.41895944541903"><ele>32.0</ele><time>2026-03-22T12:15:56Z</time></trkpt><trkpt lat="24.954953725533212" lon="121.41905191805299"><ele>32.0</ele><time>2026-03-22T12:15:57Z</time></trkpt><trkpt lat="24.955063056925894" lon="121.4191434632329"><ele>32.0</ele><time>2026-03-22T12:15:58Z</time></trkpt><trkpt lat="24.955173172381542" lon="121.41923742787472"><ele>30.25</ele><time>2026-03-22T12:15:59Z</time></trkpt><trkpt lat="24.955284768352932" lon="121.41933309959101"><ele>28.5</ele><time>2026-03-22T12:16:00Z</time></trkpt><trkpt lat="24.95539695349683" lon="121.41943169716629"><ele>26.75</ele><time>2026-03-22T12:16:01Z</time></trkpt><trkpt lat="24.95551046782518" lon="121.4195298921876"><ele>25.0</ele><time>2026-03-22T12:16:02Z</time></trkpt><trkpt lat="24.955623541438797" lon="121.41962982216907"><ele>24.75</ele><time>2026-03-22T12:16:03Z</time></trkpt><trkpt lat="24.955734649325187" lon="121.4197300326558"><ele>24.5</ele><time>2026-03-22T12:16:04Z</time></trkpt><trkpt lat="24.95584613854151" lon="121.41983585485467"><ele>24.25</ele><time>2026-03-22T12:16:05Z</time></trkpt><trkpt lat="24.95595800664078" lon="121.41994335795717"><ele>24.0</ele><time>2026-03-22T12:16:06Z</time></trkpt><trkpt lat="24.956069607026418" lon="121.42004727122385"><ele>24.0</ele><time>2026-03-22T12:16:07Z</time></trkpt><trkpt lat="24.95617548734329" lon="121.42015608577586"><ele>24.0</ele><time>2026-03-22T12:16:08Z</time></trkpt><trkpt lat="24.95627698955745" lon="121.42026472929862"><ele>24.0</ele><time>2026-03-22T12:16:09Z</time></trkpt><trkpt lat="24.956375157529067" lon="121.42037169940639"><ele>24.0</ele><time>2026-03-22T12:16:10Z</time></trkpt><trkpt lat="24.956468841088483" lon="121.420481421945"><ele>23.75</ele><time>2026-03-22T12:16:11Z</time></trkpt><trkpt lat="24.956566486790706" lon="121.42059370715194"><ele>23.5</ele><time>2026-03-22T12:16:12Z</time></trkpt><trkpt lat="24.95666272799587" lon="121.42070528021858"><ele>23.25</ele><time>2026-03-22T12:16:13Z</time></trkpt><trkpt lat="24.9567524166665" lon="121.42081581089623"><ele>23.0</ele><time>2026-03-22T12:16:14Z</time></trkpt><trkpt lat="24.95684719485841" lon="121.4209282052982"><ele>23.0</ele><time>2026-03-22T12:16:15Z</time></trkpt><trkpt lat="24.956934561011614" lon="121.42104279250447"><ele>23.0</ele><time>2026-03-22T12:16:16Z</time></trkpt><trkpt lat="24.957030129293862" lon="121.42116390956441"><ele>23.0</ele><time>2026-03-22T12:16:17Z</time></trkpt><trkpt lat="24.95712068102641" lon="121.42128816563951"><ele>23.0</ele><time>2026-03-22T12:16:18Z</time></trkpt><trkpt lat="24.95720385752974" lon="121.42141497904109"><ele>23.25</ele><time>2026-03-22T12:16:19Z</time></trkpt><trkpt lat="24.95728576916743" lon="121.42153669047401"><ele>23.5</ele><time>2026-03-22T12:16:20Z</time></trkpt><trkpt lat="24.957366883299414" lon="121.42166127744524"><ele>23.75</ele><time>2026-03-22T12:16:21Z</time></trkpt><trkpt lat="24.957444763137794" lon="121.421781178196"><ele>24.0</ele><time>2026-03-22T12:16:22Z</time></trkpt><trkpt lat="24.95752897536671" lon="121.42191389083257"><ele>24.0</ele><time>2026-03-22T12:16:23Z</time></trkpt><trkpt lat="24.9576095677548" lon="121.42204920763606"><ele>24.0</ele><time>2026-03-22T12:16:24Z</time></trkpt><trkpt lat="24.957693890631926" lon="121.42219170923094"><ele>24.0</ele><time>2026-03-22T12:16:25Z</time></trkpt><trkpt lat="24.957778692809633" lon="121.4223408278513"><ele>24.0</ele><time>2026-03-22T12:16:26Z</time></trkpt><trkpt lat="24.95786838563258" lon="121.42249322728217"><ele>24.0</ele><time>2026-03-22T12:16:27Z</time></trkpt><trkpt lat="24.95795038585974" lon="121.42265223537983"><ele>24.0</ele><time>2026-03-22T12:16:28Z</time></trkpt><trkpt lat="24.958036896582275" lon="121.42281207025644"><ele>24.0</ele><time>2026-03-22T12:16:29Z</time></trkpt><trkpt lat="24.958119575115486" lon="121.42297311730663"><ele>24.0</ele><time>2026-03-22T12:16:30Z</time></trkpt><trkpt lat="24.9582010146725" lon="121.42313562089807"><ele>24.0</ele><time>2026-03-22T12:16:31Z</time></trkpt><trkpt lat="24.95828338510099" lon="121.42330366130624"><ele>25.333333333333336</ele><time>2026-03-22T12:16:32Z</time></trkpt><trkpt lat="24.95836125982321" lon="121.42347999069642"><ele>26.666666666666668</ele><time>2026-03-22T12:16:33Z</time></trkpt><trkpt lat="24.95843794582736" lon="121.42365944778469"><ele>28.0</ele><time>2026-03-22T12:16:34Z</time></trkpt><trkpt lat="24.95851428209811" lon="121.42384198251372"><ele>30.666666666666668</ele><time>2026-03-22T12:16:35Z</time></trkpt><trkpt lat="24.958587773882474" lon="121.42402877769995"><ele>33.333333333333336</ele><time>2026-03-22T12:16:36Z</time></trkpt><trkpt lat="24.95866148462651" lon="121.4242213612008"><ele>36.0</ele><time>2026-03-22T12:16:37Z</time></trkpt><trkpt lat="24.958730076910264" lon="121.42441917931603"><ele>36.0</ele><time>2026-03-22T12:16:38Z</time></trkpt><trkpt lat="24.958797323988684" lon="121.42462070313965"><ele>36.0</ele><time>2026-03-22T12:16:39Z</time></trkpt><trkpt lat="24.958861560433686" lon="121.42482691170798"><ele>36.0</ele><time>2026-03-22T12:16:40Z</time></trkpt><trkpt lat="24.95892447681362" lon="121.42503607946463"><ele>35.0</ele><time>2026-03-22T12:16:41Z</time></trkpt><trkpt lat="24.9589856721662" lon="121.4252499153327"><ele>34.0</ele><time>2026-03-22T12:16:42Z</time></trkpt><trkpt lat="24.95903592731701" lon="121.42546818417854"><ele>33.0</ele><time>2026-03-22T12:16:43Z</time></trkpt><trkpt lat="24.959086130311405" lon="121.42569095757908"><ele>32.0</ele><time>2026-03-22T12:16:44Z</time></trkpt><trkpt lat="24.959131483591886" lon="121.42591207672096"><ele>31.0</ele><time>2026-03-22T12:16:45Z</time></trkpt><trkpt lat="24.95917253262007" lon="121.42613318530988"><ele>30.0</ele><time>2026-03-22T12:16:46Z</time></trkpt><trkpt lat="24.959215266023396" lon="121.42635513170907"><ele>29.666666666666664</ele><time>2026-03-22T12:16:47Z</time></trkpt><trkpt lat="24.959255534543853" lon="121.42657599283619"><ele>29.333333333333332</ele><time>2026-03-22T12:16:48Z</time></trkpt><trkpt lat="24.959294461425408" lon="121.4267957320081"><ele>29.0</ele><time>2026-03-22T12:16:49Z</time></trkpt><trkpt lat="24.959329030092245" lon="121.42701351387052"><ele>29.333333333333332</ele><time>2026-03-22T12:16:50Z</time></trkpt><trkpt lat="24.95936246544899" lon="121.4272311116939"><ele>29.666666666666664</ele><time>2026-03-22T12:16:51Z</time></trkpt><trkpt lat="24.959395443087438" lon="121.42744695907648"><ele>30.0</ele><time>2026-03-22T12:16:52Z</time></trkpt><trkpt lat="24.95942309840883" lon="121.42766194624079"><ele>30.0</ele><time>2026-03-22T12:16:53Z</time></trkpt><trkpt lat="24.95945040528509" lon="121.42787590534239"><ele>30.0</ele><time>2026-03-22T12:16:54Z</time></trkpt><trkpt lat="24.95947701971805" lon="121.4280932988051"><ele>30.0</ele><time>2026-03-22T12:16:55Z</time></trkpt><trkpt lat="24.95950516760909" lon="121.42831115009741"><ele>29.333333333333336</ele><time>2026-03-22T12:16:56Z</time></trkpt><trkpt lat="24.9595360007336" lon="121.42853252767628"><ele>28.666666666666668</ele><time>2026-03-22T12:16:57Z</time></trkpt><trkpt lat="24.959566331681053" lon="121.42875304935478"><ele>28.0</ele><time>2026-03-22T12:16:58Z</time></trkpt><trkpt lat="24.95959168602811" lon="121.42897805679105"><ele>28.0</ele><time>2026-03-22T12:16:59Z</time></trkpt><trkpt lat="24.95961772333642" lon="121.42920260144032"><ele>28.0</ele><time>2026-03-22T12:17:00Z</time></trkpt><trkpt lat="24.959647301082903" lon="121.4294344060143"><ele>28.0</ele><time>2026-03-22T12:17:01Z</time></trkpt><trkpt lat="24.959676037005337" lon="121.42965999395436"><ele>28.666666666666668</ele><time>2026-03-22T12:17:02Z</time></trkpt><trkpt lat="24.959706117000135" lon="121.4298863150924"><ele>29.333333333333336</ele><time>2026-03-22T12:17:03Z</time></trkpt><trkpt lat="24.95973720605163" lon="121.43011497693935"><ele>30.0</ele><time>2026-03-22T12:17:04Z</time></trkpt><trkpt lat="24.959771286376494" lon="121.43034177875961"><ele>28.333333333333336</ele><time>2026-03-22T12:17:05Z</time></trkpt><trkpt lat="24.959806046111485" lon="121.43056830701053"><ele>26.666666666666668</ele><time>2026-03-22T12:17:06Z</time></trkpt><trkpt lat="24.95984195255834" lon="121.43079473822208"><ele>25.0</ele><time>2026-03-22T12:17:07Z</time></trkpt><trkpt lat="24.959879350320357" lon="121.43102165721136"><ele>25.0</ele><time>2026-03-22T12:17:08Z</time></trkpt><trkpt lat="24.959919612912287" lon="121.43125161777279"><ele>25.0</ele><time>2026-03-22T12:17:09Z</time></trkpt><trkpt lat="24.95996509017213" lon="121.43148092344889"><ele>25.0</ele><time>2026-03-22T12:17:10Z</time></trkpt><trkpt lat="24.96001034871133" lon="121.43171244320332"><ele>24.333333333333336</ele><time>2026-03-22T12:17:11Z</time></trkpt><trkpt lat="24.96005756254044" lon="121.43194554304652"><ele>23.666666666666668</ele><time>2026-03-22T12:17:12Z</time></trkpt><trkpt lat="24.960104175193948" lon="121.43218042267313"><ele>23.0</ele><time>2026-03-22T12:17:13Z</time></trkpt><trkpt lat="24.960159589803048" lon="121.43241696951178"><ele>23.0</ele><time>2026-03-22T12:17:14Z</time></trkpt><trkpt lat="24.960215889360033" lon="121.43265407381749"><ele>23.0</ele><time>2026-03-22T12:17:15Z</time></trkpt><trkpt lat="24.96027261726153" lon="121.43288756608766"><ele>23.0</ele><time>2026-03-22T12:17:16Z</time></trkpt><trkpt lat="24.960332444224623" lon="121.43311807271044"><ele>24.333333333333336</ele><time>2026-03-22T12:17:17Z</time></trkpt><trkpt lat="24.9603990259682" lon="121.43334514764466"><ele>25.666666666666668</ele><time>2026-03-22T12:17:18Z</time></trkpt><trkpt lat="24.960470598940244" lon="121.4335665517706"><ele>27.0</ele><time>2026-03-22T12:17:19Z</time></trkpt><trkpt lat="24.96054458098931" lon="121.43378747836763"><ele>25.666666666666668</ele><time>2026-03-22T12:17:20Z</time></trkpt><trkpt lat="24.960623443481527" lon="121.43400587099504"><ele>24.333333333333336</ele><time>2026-03-22T12:17:21Z</time></trkpt><trkpt lat="24.96070020657871" lon="121.4342250181055"><ele>23.0</ele><time>2026-03-22T12:17:22Z</time></trkpt><trkpt lat="24.960783702604772" lon="121.4344402017668"><ele>22.666666666666668</ele><time>2026-03-22T12:17:23Z</time></trkpt><trkpt lat="24.960869418436566" lon="121.43465386836158"><ele>22.333333333333332</ele><time>2026-03-22T12:17:24Z</time></trkpt><trkpt lat="24.960959204262586" lon="121.43486640327099"><ele>22.0</ele><time>2026-03-22T12:17:25Z</time></trkpt><trkpt lat="24.96104655045747" lon="121.43507696493971"><ele>22.0</ele><time>2026-03-22T12:17:26Z</time></trkpt><trkpt lat="24.961136768166458" lon="121.43528587717127"><ele>22.0</ele><time>2026-03-22T12:17:27Z</time></trkpt><trkpt lat="24.961229538339094" lon="121.43549763737704"><ele>22.0</ele><time>2026-03-22T12:17:28Z</time></trkpt><trkpt lat="24.96132924995268" lon="121.43570897396981"><ele>22.333333333333332</ele><time>2026-03-22T12:17:29Z</time></trkpt><trkpt lat="24.961432285232195" lon="121.4359150547932"><ele>22.666666666666668</ele><time>2026-03-22T12:17:30Z</time></trkpt><trkpt lat="24.96153527068001" lon="121.43612250678214"><ele>23.0</ele><time>2026-03-22T12:17:31Z</time></trkpt><trkpt lat="24.961639596332727" lon="121.4363312245177"><ele>22.333333333333336</ele><time>2026-03-22T12:17:32Z</time></trkpt><trkpt lat="24.961748397003763" lon="121.43653659271916"><ele>21.666666666666668</ele><time>2026-03-22T12:17:33Z</time></trkpt><trkpt lat="24.961863567204748" lon="121.43674118251913"><ele>21.0</ele><time>2026-03-22T12:17:34Z</time></trkpt><trkpt lat="24.961981619814765" lon="121.4369452655611"><ele>21.333333333333332</ele><time>2026-03-22T12:17:35Z</time></trkpt><trkpt lat="24.962098672214676" lon="121.43714892712859"><ele>21.666666666666664</ele><time>2026-03-22T12:17:36Z</time></trkpt><trkpt lat="24.962221039741284" lon="121.43735235940846"><ele>22.0</ele><time>2026-03-22T12:17:37Z</time></trkpt><trkpt lat="24.962344872602998" lon="121.43755281142758"><ele>22.0</ele><time>2026-03-22T12:17:38Z</time></trkpt><trkpt lat="24.962469981229646" lon="121.43774838313698"><ele>22.0</ele><time>2026-03-22T12:17:39Z</time></trkpt><trkpt lat="24.962597257944346" lon="121.43794196316712"><ele>22.0</ele><time>2026-03-22T12:17:40Z</time></trkpt><trkpt lat="24.962727020640937" lon="121.43813174113971"><ele>22.0</ele><time>2026-03-22T12:17:41Z</time></trkpt><trkpt lat="24.962859755626408" lon="121.43831817476183"><ele>22.0</ele><time>2026-03-22T12:17:42Z</time></trkpt><trkpt lat="24.962994515766436" lon="121.43850220111065"><ele>22.0</ele><time>2026-03-22T12:17:43Z</time></trkpt><trkpt lat="24.96313126092799" lon="121.43868581398475"><ele>21.333333333333332</ele><time>2026-03-22T12:17:44Z</time></trkpt><trkpt lat="24.96327181669641" lon="121.438870445965"><ele>20.666666666666668</ele><time>2026-03-22T12:17:45Z</time></trkpt><trkpt lat="24.96341459329385" lon="121.43905370642476"><ele>20.0</ele><time>2026-03-22T12:17:46Z</time></trkpt><trkpt lat="24.963560015583802" lon="121.43923217927751"><ele>20.666666666666668</ele><time>2026-03-22T12:17:47Z</time></trkpt><trkpt lat="24.963707908012708" lon="121.43940528777516"><ele>21.333333333333332</ele><time>2026-03-22T12:17:48Z</time></trkpt><trkpt lat="24.96385509354144" lon="121.43957758119564"><ele>22.0</ele><time>2026-03-22T12:17:49Z</time></trkpt><trkpt lat="24.964003232993893" lon="121.43974936198143"><ele>22.0</ele><time>2026-03-22T12:17:50Z</time></trkpt><trkpt lat="24.96415468785885" lon="121.43992113680687"><ele>22.0</ele><time>2026-03-22T12:17:51Z</time></trkpt><trkpt lat="24.964310871261496" lon="121.44009092002901"><ele>22.0</ele><time>2026-03-22T12:17:52Z</time></trkpt><trkpt lat="24.964470306648927" lon="121.44025968455472"><ele>21.666666666666664</ele><time>2026-03-22T12:17:53Z</time></trkpt><trkpt lat="24.964634834933147" lon="121.44042434114195"><ele>21.333333333333332</ele><time>2026-03-22T12:17:54Z</time></trkpt><trkpt lat="24.964798454619157" lon="121.44058350372698"><ele>21.0</ele><time>2026-03-22T12:17:55Z</time></trkpt><trkpt lat="24.964963435097292" lon="121.44073895487337"><ele>22.333333333333336</ele><time>2026-03-22T12:17:56Z</time></trkpt><trkpt lat="24.965129309717472" lon="121.44089300653492"><ele>23.666666666666668</ele><time>2026-03-22T12:17:57Z</time></trkpt><trkpt lat="24.965294114153313" lon="121.44104547085841"><ele>25.0</ele><time>2026-03-22T12:17:58Z</time></trkpt><trkpt lat="24.965461694288404" lon="121.44119510103036"><ele>25.0</ele><time>2026-03-22T12:17:59Z</time></trkpt><trkpt lat="24.965628559733137" lon="121.44134235906402"><ele>25.0</ele><time>2026-03-22T12:18:00Z</time></trkpt><trkpt lat="24.96579831979969" lon="121.44148335050306"><ele>25.0</ele><time>2026-03-22T12:18:01Z</time></trkpt><trkpt lat="24.965970536871797" lon="121.44161767209829"><ele>25.0</ele><time>2026-03-22T12:18:02Z</time></trkpt><trkpt lat="24.966146180622616" lon="121.44175403600156"><ele>25.0</ele><time>2026-03-22T12:18:03Z</time></trkpt><trkpt lat="24.96632211616895" lon="121.44188771670717"><ele>25.0</ele><time>2026-03-22T12:18:04Z</time></trkpt><trkpt lat="24.966498713638973" lon="121.44202016320526"><ele>24.666666666666668</ele><time>2026-03-22T12:18:05Z</time></trkpt><trkpt lat="24.96667790655198" lon="121.44215148376288"><ele>24.333333333333336</ele><time>2026-03-22T12:18:06Z</time></trkpt><trkpt lat="24.96686373265334" lon="121.4422756834363"><ele>24.0</ele><time>2026-03-22T12:18:07Z</time></trkpt><trkpt lat="24.967056734657177" lon="121.44239750674548"><ele>23.0</ele><time>2026-03-22T12:18:08Z</time></trkpt><trkpt lat="24.967254383739263" lon="121.44251938432359"><ele>22.0</ele><time>2026-03-22T12:18:09Z</time></trkpt><trkpt lat="24.96745338042917" lon="121.44264003648891"><ele>21.333333333333332</ele><time>2026-03-22T12:18:10Z</time></trkpt><trkpt lat="24.96765341119909" lon="121.4427522549984"><ele>20.666666666666668</ele><time>2026-03-22T12:18:11Z</time></trkpt><trkpt lat="24.96785094834867" lon="121.4428674247291"><ele>20.0</ele><time>2026-03-22T12:18:12Z</time></trkpt><trkpt lat="24.968047440129634" lon="121.44298064952227"><ele>20.333333333333336</ele><time>2026-03-22T12:18:13Z</time></trkpt><trkpt lat="24.96824390583654" lon="121.44309554151305"><ele>20.666666666666668</ele><time>2026-03-22T12:18:14Z</time></trkpt><trkpt lat="24.96843962867176" lon="121.4432080122316"><ele>21.0</ele><time>2026-03-22T12:18:15Z</time></trkpt><trkpt lat="24.968632423534306" lon="121.44331894040221"><ele>21.0</ele><time>2026-03-22T12:18:16Z</time></trkpt><trkpt lat="24.968824005655332" lon="121.44343296441998"><ele>21.0</ele><time>2026-03-22T12:18:17Z</time></trkpt><trkpt lat="24.96901534935951" lon="121.44354680660656"><ele>21.0</ele><time>2026-03-22T12:18:18Z</time></trkpt><trkpt lat="24.969205831197712" lon="121.4436589935322"><ele>21.333333333333332</ele><time>2026-03-22T12:18:19Z</time></trkpt><trkpt lat="24.969393575846023" lon="121.44376959116728"><ele>21.666666666666664</ele><time>2026-03-22T12:18:20Z</time></trkpt><trkpt lat="24.969579159310655" lon="121.4438828057183"><ele>22.0</ele><time>2026-03-22T12:18:21Z</time></trkpt><trkpt lat="24.969764605725093" lon="121.44399520084927"><ele>22.0</ele><time>2026-03-22T12:18:22Z</time></trkpt><trkpt lat="24.96995073635499" lon="121.4441092256105"><ele>22.0</ele><time>2026-03-22T12:18:23Z</time></trkpt><trkpt lat="24.97013599145416" lon="121.44422516889455"><ele>22.0</ele><time>2026-03-22T12:18:24Z</time></trkpt><trkpt lat="24.97032007537659" lon="121.44434342741634"><ele>21.333333333333332</ele><time>2026-03-22T12:18:25Z</time></trkpt><trkpt lat="24.97050560556092" lon="121.44446169990921"><ele>20.666666666666668</ele><time>2026-03-22T12:18:26Z</time></trkpt><trkpt lat="24.97069010819078" lon="121.44458507548397"><ele>20.0</ele><time>2026-03-22T12:18:27Z</time></trkpt><trkpt lat="24.970873480257165" lon="121.44471246541961"><ele>21.333333333333336</ele><time>2026-03-22T12:18:28Z</time></trkpt><trkpt lat="24.9710560502619" lon="121.44484185187764"><ele>22.666666666666668</ele><time>2026-03-22T12:18:29Z</time></trkpt><trkpt lat="24.97123471334739" lon="121.44497626830241"><ele>24.0</ele><time>2026-03-22T12:18:30Z</time></trkpt><trkpt lat="24.971415003826003" lon="121.44511350022718"><ele>24.0</ele><time>2026-03-22T12:18:31Z</time></trkpt><trkpt lat="24.97159141413933" lon="121.44525713059485"><ele>24.0</ele><time>2026-03-22T12:18:32Z</time></trkpt><trkpt lat="24.97176354997831" lon="121.4454047779059"><ele>24.0</ele><time>2026-03-22T12:18:33Z</time></trkpt><trkpt lat="24.971931868118865" lon="121.44555567367556"><ele>24.333333333333336</ele><time>2026-03-22T12:18:34Z</time></trkpt><trkpt lat="24.972096220683515" lon="121.44570944050925"><ele>24.666666666666668</ele><time>2026-03-22T12:18:35Z</time></trkpt><trkpt lat="24.972259776650564" lon="121.44586831265835"><ele>25.0</ele><time>2026-03-22T12:18:36Z</time></trkpt><trkpt lat="24.972420382994205" lon="121.4460324351981"><ele>25.666666666666668</ele><time>2026-03-22T12:18:37Z</time></trkpt><trkpt lat="24.97257411606414" lon="121.44619628101375"><ele>26.333333333333336</ele><time>2026-03-22T12:18:38Z</time></trkpt><trkpt lat="24.972722607288866" lon="121.446366757014"><ele>27.0</ele><time>2026-03-22T12:18:39Z</time></trkpt><trkpt lat="24.97286836305686" lon="121.44654321984484"><ele>27.666666666666664</ele><time>2026-03-22T12:18:40Z</time></trkpt><trkpt lat="24.973010778525907" lon="121.44672115002635"><ele>28.333333333333332</ele><time>2026-03-22T12:18:41Z</time></trkpt><trkpt lat="24.97314952782598" lon="121.44690462680268"><ele>29.0</ele><time>2026-03-22T12:18:42Z</time></trkpt><trkpt lat="24.973283044718897" lon="121.44709402312895"><ele>26.333333333333332</ele><time>2026-03-22T12:18:43Z</time></trkpt><trkpt lat="24.973415005377483" lon="121.44728700090045"><ele>23.666666666666664</ele><time>2026-03-22T12:18:44Z</time></trkpt><trkpt lat="24.973543404085518" lon="121.44748437484046"><ele>21.0</ele><time>2026-03-22T12:18:45Z</time></trkpt><trkpt lat="24.973667253511636" lon="121.44768783347209"><ele>21.0</ele><time>2026-03-22T12:18:46Z</time></trkpt><trkpt lat="24.973787204127188" lon="121.44789540665806"><ele>21.0</ele><time>2026-03-22T12:18:47Z</time></trkpt><trkpt lat="24.973903193445366" lon="121.44810595174337"><ele>21.0</ele><time>2026-03-22T12:18:48Z</time></trkpt><trkpt lat="24.97401409651243" lon="121.44831865816901"><ele>21.0</ele><time>2026-03-22T12:18:49Z</time></trkpt><trkpt lat="24.974120562194717" lon="121.44853217621517"><ele>21.0</ele><time>2026-03-22T12:18:50Z</time></trkpt><trkpt lat="24.974221837849246" lon="121.4487461879468"><ele>21.0</ele><time>2026-03-22T12:18:51Z</time></trkpt><trkpt lat="24.974316106623768" lon="121.44896605774768"><ele>24.0</ele><time>2026-03-22T12:18:52Z</time></trkpt><trkpt lat="24.974404375130028" lon="121.44918878938309"><ele>27.0</ele><time>2026-03-22T12:18:53Z</time></trkpt><trkpt lat="24.97448863602771" lon="121.44941288599126"><ele>30.0</ele><time>2026-03-22T12:18:54Z</time></trkpt><trkpt lat="24.974571256815494" lon="121.44964220354171"><ele>30.0</ele><time>2026-03-22T12:18:55Z</time></trkpt><trkpt lat="24.97464820954287" lon="121.44986991896722"><ele>30.0</ele><time>2026-03-22T12:18:56Z</time></trkpt><trkpt lat="24.97471753053577" lon="121.45010516321221"><ele>30.0</ele><time>2026-03-22T12:18:57Z</time></trkpt><trkpt lat="24.974783227039985" lon="121.45033958223497"><ele>27.333333333333332</ele><time>2026-03-22T12:18:58Z</time></trkpt><trkpt lat="24.97484213602771" lon="121.45057155615915"><ele>24.666666666666664</ele><time>2026-03-22T12:18:59Z</time></trkpt><trkpt lat="24.974896107215294" lon="121.45080448299476"><ele>22.0</ele><time>2026-03-22T12:19:00Z</time></trkpt><trkpt lat="24.974943133196557" lon="121.45104086672703"><ele>22.0</ele><time>2026-03-22T12:19:01Z</time></trkpt><trkpt lat="24.97498646314319" lon="121.45127630109043"><ele>22.0</ele><time>2026-03-22T12:19:02Z</time></trkpt><trkpt lat="24.975025931459978" lon="121.45151141976119"><ele>22.0</ele><time>2026-03-22T12:19:03Z</time></trkpt><trkpt lat="24.97505737923454" lon="121.45174541817848"><ele>22.0</ele><time>2026-03-22T12:19:04Z</time></trkpt><trkpt lat="24.975084065214524" lon="121.451980981727"><ele>22.0</ele><time>2026-03-22T12:19:05Z</time></trkpt><trkpt lat="24.975105300150922" lon="121.45221832176313"><ele>22.0</ele><time>2026-03-22T12:19:06Z</time></trkpt><trkpt lat="24.97512342653187" lon="121.45245466587511"><ele>23.0</ele><time>2026-03-22T12:19:07Z</time></trkpt><trkpt lat="24.975136997958224" lon="121.45269269915417"><ele>24.0</ele><time>2026-03-22T12:19:08Z</time></trkpt><trkpt lat="24.975151095899985" lon="121.45292735957483"><ele>25.0</ele><time>2026-03-22T12:19:09Z</time></trkpt><trkpt lat="24.9751556564032" lon="121.45316678803107"><ele>25.0</ele><time>2026-03-22T12:19:10Z</time></trkpt><trkpt lat="24.975156063587185" lon="121.45340903823383"><ele>25.0</ele><time>2026-03-22T12:19:11Z</time></trkpt><trkpt lat="24.975156301737623" lon="121.45364674880246"><ele>25.0</ele><time>2026-03-22T12:19:12Z</time></trkpt><trkpt lat="24.975153846505243" lon="121.45388604804785"><ele>24.0</ele><time>2026-03-22T12:19:13Z</time></trkpt><trkpt lat="24.975150216115633" lon="121.45412484638021"><ele>23.0</ele><time>2026-03-22T12:19:14Z</time></trkpt><trkpt lat="24.975142394294668" lon="121.4543647058458"><ele>22.0</ele><time>2026-03-22T12:19:15Z</time></trkpt><trkpt lat="24.97513210618699" lon="121.45460524947677"><ele>24.333333333333332</ele><time>2026-03-22T12:19:16Z</time></trkpt><trkpt lat="24.975122773428318" lon="121.45484574400233"><ele>26.666666666666664</ele><time>2026-03-22T12:19:17Z</time></trkpt><trkpt lat="24.97511234674379" lon="121.45508340639734"><ele>29.0</ele><time>2026-03-22T12:19:18Z</time></trkpt><trkpt lat="24.975099813311527" lon="121.45532117986065"><ele>28.333333333333332</ele><time>2026-03-22T12:19:19Z</time></trkpt><trkpt lat="24.975086275537706" lon="121.4555583849065"><ele>27.666666666666664</ele><time>2026-03-22T12:19:20Z</time></trkpt><trkpt lat="24.97507771785329" lon="121.4557943172983"><ele>27.0</ele><time>2026-03-22T12:19:21Z</time></trkpt><trkpt lat="24.97506677930128" lon="121.4560317748118"><ele>27.0</ele><time>2026-03-22T12:19:22Z</time></trkpt><trkpt lat="24.97505636114599" lon="121.45627234294791"><ele>27.0</ele><time>2026-03-22T12:19:23Z</time></trkpt><trkpt lat="24.975046450333636" lon="121.45651546091554"><ele>27.0</ele><time>2026-03-22T12:19:24Z</time></trkpt><trkpt lat="24.9750386979253" lon="121.45675823013143"><ele>26.666666666666664</ele><time>2026-03-22T12:19:25Z</time></trkpt><trkpt lat="24.97503397998405" lon="121.4570024699338"><ele>26.333333333333332</ele><time>2026-03-22T12:19:26Z</time></trkpt><trkpt lat="24.97502929526544" lon="121.45724989780051"><ele>26.0</ele><time>2026-03-22T12:19:27Z</time></trkpt><trkpt lat="24.975025751341114" lon="121.4574975695918"><ele>25.5</ele><time>2026-03-22T12:19:28Z</time></trkpt><trkpt lat="24.975022822690786" lon="121.45774640077113"><ele>25.0</ele><time>2026-03-22T12:19:29Z</time></trkpt><trkpt lat="24.97502741974309" lon="121.45799540322847"><ele>24.0</ele><time>2026-03-22T12:19:30Z</time></trkpt><trkpt lat="24.97503385536549" lon="121.45824790568976"><ele>23.0</ele><time>2026-03-22T12:19:31Z</time></trkpt><trkpt lat="24.975042337202016" lon="121.45850299449246"><ele>23.0</ele><time>2026-03-22T12:19:32Z</time></trkpt><trkpt lat="24.975054704806933" lon="121.45875882965385"><ele>23.0</ele><time>2026-03-22T12:19:33Z</time></trkpt><trkpt lat="24.97507528163019" lon="121.45901401850894"><ele>23.0</ele><time>2026-03-22T12:19:34Z</time></trkpt><trkpt lat="24.97509891758391" lon="121.45926900277306"><ele>23.0</ele><time>2026-03-22T12:19:35Z</time></trkpt><trkpt lat="24.975126444827453" lon="121.45952691210346"><ele>25.5</ele><time>2026-03-22T12:19:36Z</time></trkpt><trkpt lat="24.9751593990387" lon="121.45978278620579"><ele>28.0</ele><time>2026-03-22T12:19:37Z</time></trkpt><trkpt lat="24.97519543291176" lon="121.46003538799413"><ele>28.0</ele><time>2026-03-22T12:19:38Z</time></trkpt><trkpt lat="24.97523502611191" lon="121.46028641515667"><ele>28.0</ele><time>2026-03-22T12:19:39Z</time></trkpt><trkpt lat="24.975277892800367" lon="121.46053662852458"><ele>29.0</ele><time>2026-03-22T12:19:40Z</time></trkpt><trkpt lat="24.97532777622738" lon="121.46078393900645"><ele>30.0</ele><time>2026-03-22T12:19:41Z</time></trkpt><trkpt lat="24.975384582982773" lon="121.46102669063673"><ele>30.0</ele><time>2026-03-22T12:19:42Z</time></trkpt><trkpt lat="24.975450713692883" lon="121.46126148274777"><ele>30.0</ele><time>2026-03-22T12:19:43Z</time></trkpt><trkpt lat="24.975520165223525" lon="121.46150249547068"><ele>29.5</ele><time>2026-03-22T12:19:44Z</time></trkpt><trkpt lat="24.975595495365187" lon="121.4617440087993"><ele>29.0</ele><time>2026-03-22T12:19:45Z</time></trkpt><trkpt lat="24.97567522247504" lon="121.46198457245042"><ele>28.0</ele><time>2026-03-22T12:19:46Z</time></trkpt><trkpt lat="24.975756792948253" lon="121.4622216623208"><ele>27.0</ele><time>2026-03-22T12:19:47Z</time></trkpt><trkpt lat="24.975842951527923" lon="121.46245319412417"><ele>25.0</ele><time>2026-03-22T12:19:48Z</time></trkpt><trkpt lat="24.975932348623708" lon="121.46268568871692"><ele>23.0</ele><time>2026-03-22T12:19:49Z</time></trkpt><trkpt lat="24.97602459490382" lon="121.46291533499287"><ele>24.5</ele><time>2026-03-22T12:19:50Z</time></trkpt><trkpt lat="24.97612401886838" lon="121.46314270756834"><ele>26.0</ele><time>2026-03-22T12:19:51Z</time></trkpt><trkpt lat="24.976228370933278" lon="121.4633665271521"><ele>26.0</ele><time>2026-03-22T12:19:52Z</time></trkpt><trkpt lat="24.97633768044307" lon="121.46358386045485"><ele>26.0</ele><time>2026-03-22T12:19:53Z</time></trkpt><trkpt lat="24.976445746688004" lon="121.46379772700651"><ele>26.0</ele><time>2026-03-22T12:19:54Z</time></trkpt><trkpt lat="24.976561201313896" lon="121.46401301024616"><ele>25.0</ele><time>2026-03-22T12:19:55Z</time></trkpt><trkpt lat="24.97667558673465" lon="121.4642244471249"><ele>24.0</ele><time>2026-03-22T12:19:56Z</time></trkpt><trkpt lat="24.976801028382283" lon="121.46443302894508"><ele>25.333333333333336</ele><time>2026-03-22T12:19:57Z</time></trkpt><trkpt lat="24.9769287269596" lon="121.46462973634068"><ele>26.666666666666668</ele><time>2026-03-22T12:19:58Z</time></trkpt><trkpt lat="24.977054267405325" lon="121.46482528210922"><ele>28.0</ele><time>2026-03-22T12:19:59Z</time></trkpt><trkpt lat="24.97718277093493" lon="121.46501937654918"><ele>28.0</ele><time>2026-03-22T12:20:00Z</time></trkpt><trkpt lat="24.977312581090896" lon="121.46520821069362"><ele>28.0</ele><time>2026-03-22T12:20:01Z</time></trkpt><trkpt lat="24.97744065934895" lon="121.46539820375511"><ele>28.0</ele><time>2026-03-22T12:20:02Z</time></trkpt><trkpt lat="24.977571037385044" lon="121.46558301723168"><ele>28.333333333333336</ele><time>2026-03-22T12:20:03Z</time></trkpt><trkpt lat="24.97770536925436" lon="121.4657629419138"><ele>28.666666666666664</ele><time>2026-03-22T12:20:04Z</time></trkpt><trkpt lat="24.97783984243898" lon="121.46594048427013"><ele>29.0</ele><time>2026-03-22T12:20:05Z</time></trkpt><trkpt lat="24.977973585881237" lon="121.46611697255814"><ele>28.666666666666664</ele><time>2026-03-22T12:20:06Z</time></trkpt><trkpt lat="24.978107708383398" lon="121.46629032761422"><ele>28.333333333333336</ele><time>2026-03-22T12:20:07Z</time></trkpt><trkpt lat="24.97824182716713" lon="121.46646153340495"><ele>28.0</ele><time>2026-03-22T12:20:08Z</time></trkpt><trkpt lat="24.97837459865954" lon="121.46663065038733"><ele>28.0</ele><time>2026-03-22T12:20:09Z</time></trkpt><trkpt lat="24.978509417401533" lon="121.46679642679152"><ele>28.0</ele><time>2026-03-22T12:20:10Z</time></trkpt><trkpt lat="24.978639963616015" lon="121.46695942298177"><ele>28.0</ele><time>2026-03-22T12:20:11Z</time></trkpt><trkpt lat="24.97877016638051" lon="121.46712072143882"><ele>30.333333333333336</ele><time>2026-03-22T12:20:12Z</time></trkpt><trkpt lat="24.97889990744739" lon="121.46727978881573"><ele>32.666666666666664</ele><time>2026-03-22T12:20:13Z</time></trkpt><trkpt lat="24.9790302698872" lon="121.46743795710401"><ele>35.0</ele><time>2026-03-22T12:20:14Z</time></trkpt><trkpt lat="24.979156852396255" lon="121.46759407504216"><ele>32.33333333333333</ele><time>2026-03-22T12:20:15Z</time></trkpt><trkpt lat="24.979283500579594" lon="121.46774603763245"><ele>29.666666666666664</ele><time>2026-03-22T12:20:16Z</time></trkpt><trkpt lat="24.9794074894512" lon="121.46789638805582"><ele>27.0</ele><time>2026-03-22T12:20:17Z</time></trkpt><trkpt lat="24.979527830251776" lon="121.46804622922367"><ele>25.333333333333332</ele><time>2026-03-22T12:20:18Z</time></trkpt><trkpt lat="24.9796503996533" lon="121.4681928515256"><ele>23.666666666666664</ele><time>2026-03-22T12:20:19Z</time></trkpt><trkpt lat="24.97976466227561" lon="121.46834067129255"><ele>22.0</ele><time>2026-03-22T12:20:20Z</time></trkpt><trkpt lat="24.979883406390222" lon="121.46848554462372"><ele>22.0</ele><time>2026-03-22T12:20:21Z</time></trkpt><trkpt lat="24.979999355409664" lon="121.46862632329132"><ele>22.0</ele><time>2026-03-22T12:20:22Z</time></trkpt><trkpt lat="24.98011477908236" lon="121.4687646049843"><ele>22.0</ele><time>2026-03-22T12:20:23Z</time></trkpt><trkpt lat="24.980226038670246" lon="121.4689024073995"><ele>24.0</ele><time>2026-03-22T12:20:24Z</time></trkpt><trkpt lat="24.980337115366662" lon="121.46903793402907"><ele>26.0</ele><time>2026-03-22T12:20:25Z</time></trkpt><trkpt lat="24.98044733874978" lon="121.46917143165125"><ele>28.0</ele><time>2026-03-22T12:20:26Z</time></trkpt><trkpt lat="24.980555543718346" lon="121.46930331891238"><ele>28.0</ele><time>2026-03-22T12:20:27Z</time></trkpt><trkpt lat="24.980663863176936" lon="121.46943370206378"><ele>28.0</ele><time>2026-03-22T12:20:28Z</time></trkpt><trkpt lat="24.980771003368975" lon="121.46956437318956"><ele>28.0</ele><time>2026-03-22T12:20:29Z</time></trkpt><trkpt lat="24.980882458122267" lon="121.46969649061849"><ele>30.0</ele><time>2026-03-22T12:20:30Z</time></trkpt><trkpt lat="24.98099456456036" lon="121.46983127620598"><ele>32.0</ele><time>2026-03-22T12:20:31Z</time></trkpt><trkpt lat="24.98110808555926" lon="121.46996795779346"><ele>34.0</ele><time>2026-03-22T12:20:32Z</time></trkpt><trkpt lat="24.981223250728153" lon="121.47010846623758"><ele>34.0</ele><time>2026-03-22T12:20:33Z</time></trkpt><trkpt lat="24.981337753343027" lon="121.47024672933915"><ele>34.0</ele><time>2026-03-22T12:20:34Z</time></trkpt><trkpt lat="24.98145053897498" lon="121.47038537903578"><ele>34.0</ele><time>2026-03-22T12:20:35Z</time></trkpt><trkpt lat="24.981565706204037" lon="121.47052382879116"><ele>34.333333333333336</ele><time>2026-03-22T12:20:36Z</time></trkpt><trkpt lat="24.98168224286847" lon="121.47066159313823"><ele>34.666666666666664</ele><time>2026-03-22T12:20:37Z</time></trkpt><trkpt lat="24.981798540168324" lon="121.47080516135094"><ele>35.0</ele><time>2026-03-22T12:20:38Z</time></trkpt><trkpt lat="24.98191566892379" lon="121.47094920707924"><ele>35.0</ele><time>2026-03-22T12:20:39Z</time></trkpt><trkpt lat="24.98203594325652" lon="121.4710928932815"><ele>35.0</ele><time>2026-03-22T12:20:40Z</time></trkpt><trkpt lat="24.982159141383967" lon="121.47123919547988"><ele>35.0</ele><time>2026-03-22T12:20:41Z</time></trkpt><trkpt lat="24.982283300681082" lon="121.47138774489768"><ele>34.666666666666664</ele><time>2026-03-22T12:20:42Z</time></trkpt><trkpt lat="24.982404088199015" lon="121.47153372939623"><ele>34.333333333333336</ele><time>2026-03-22T12:20:43Z</time></trkpt><trkpt lat="24.982525258856004" lon="121.47167906883145"><ele>34.0</ele><time>2026-03-22T12:20:44Z</time></trkpt><trkpt lat="24.982645876215447" lon="121.47182298402709"><ele>34.0</ele><time>2026-03-22T12:20:45Z</time></trkpt><trkpt lat="24.98276343673043" lon="121.47196639712931"><ele>34.0</ele><time>2026-03-22T12:20:46Z</time></trkpt><trkpt lat="24.982881741393697" lon="121.47211016507063"><ele>34.0</ele><time>2026-03-22T12:20:47Z</time></trkpt><trkpt lat="24.982999334641544" lon="121.47225462083225"><ele>35.66666666666667</ele><time>2026-03-22T12:20:48Z</time></trkpt><trkpt lat="24.98311398915052" lon="121.47239533816716"><ele>37.333333333333336</ele><time>2026-03-22T12:20:49Z</time></trkpt><trkpt lat="24.98322749720607" lon="121.47253527409462"><ele>39.0</ele><time>2026-03-22T12:20:50Z</time></trkpt><trkpt lat="24.983340543990384" lon="121.4726792633571"><ele>39.333333333333336</ele><time>2026-03-22T12:20:51Z</time></trkpt><trkpt lat="24.983455714804965" lon="121.47282110598894"><ele>39.66666666666667</ele><time>2026-03-22T12:20:52Z</time></trkpt><trkpt lat="24.983568248437464" lon="121.47296048570311"><ele>40.0</ele><time>2026-03-22T12:20:53Z</time></trkpt><trkpt lat="24.98368038419097" lon="121.47309779262609"><ele>40.0</ele><time>2026-03-22T12:20:54Z</time></trkpt><trkpt lat="24.983790404929305" lon="121.47323671356456"><ele>40.0</ele><time>2026-03-22T12:20:55Z</time></trkpt><trkpt lat="24.983903655147035" lon="121.47337435178093"><ele>40.0</ele><time>2026-03-22T12:20:56Z</time></trkpt><trkpt lat="24.984008703061814" lon="121.47350349952711"><ele>40.0</ele><time>2026-03-22T12:20:57Z</time></trkpt><trkpt lat="24.9841152157726" lon="121.47363241408665"><ele>40.0</ele><time>2026-03-22T12:20:58Z</time></trkpt><trkpt lat="24.98422088026558" lon="121.47375761315028"><ele>40.0</ele><time>2026-03-22T12:20:59Z</time></trkpt><trkpt lat="24.984320999895196" lon="121.47388051185689"><ele>39.25</ele><time>2026-03-22T12:21:00Z</time></trkpt><trkpt lat="24.98441679585961" lon="121.47400032959382"><ele>38.5</ele><time>2026-03-22T12:21:01Z</time></trkpt><trkpt lat="24.984510398739655" lon="121.47411557921991"><ele>37.75</ele><time>2026-03-22T12:21:02Z</time></trkpt><trkpt lat="24.98460073520661" lon="121.47422696729568"><ele>37.0</ele><time>2026-03-22T12:21:03Z</time></trkpt><trkpt lat="24.9846901811455" lon="121.47433558809442"><ele>37.0</ele><time>2026-03-22T12:21:04Z</time></trkpt><trkpt lat="24.984779549464342" lon="121.47444481457002"><ele>37.0</ele><time>2026-03-22T12:21:05Z</time></trkpt><trkpt lat="24.984870935437282" lon="121.47455502740239"><ele>37.0</ele><time>2026-03-22T12:21:06Z</time></trkpt><trkpt lat="24.98496575441647" lon="121.47467099508901"><ele>37.0</ele><time>2026-03-22T12:21:07Z</time></trkpt><trkpt lat="24.9850643331553" lon="121.47478938734157"><ele>37.75</ele><time>2026-03-22T12:21:08Z</time></trkpt><trkpt lat="24.985165184541405" lon="121.47491075995947"><ele>38.5</ele><time>2026-03-22T12:21:09Z</time></trkpt><trkpt lat="24.985264909576166" lon="121.47503128817327"><ele>39.25</ele><time>2026-03-22T12:21:10Z</time></trkpt><trkpt lat="24.985363887438908" lon="121.47515162326238"><ele>40.0</ele><time>2026-03-22T12:21:11Z</time></trkpt><trkpt lat="24.985461858440555" lon="121.47527133437025"><ele>40.0</ele><time>2026-03-22T12:21:12Z</time></trkpt><trkpt lat="24.98555867102239" lon="121.47538997612962"><ele>40.0</ele><time>2026-03-22T12:21:13Z</time></trkpt><trkpt lat="24.985656051908343" lon="121.47550807094612"><ele>40.0</ele><time>2026-03-22T12:21:14Z</time></trkpt><trkpt lat="24.985753174863255" lon="121.47562722249401"><ele>40.0</ele><time>2026-03-22T12:21:15Z</time></trkpt><trkpt lat="24.985849769632402" lon="121.47574791579052"><ele>36.0</ele><time>2026-03-22T12:21:16Z</time></trkpt><trkpt lat="24.985950880133686" lon="121.47587092117699"><ele>32.0</ele><time>2026-03-22T12:21:17Z</time></trkpt><trkpt lat="24.986050560719914" lon="121.47599722697117"><ele>28.0</ele><time>2026-03-22T12:21:18Z</time></trkpt><trkpt lat="24.986151339296484" lon="121.47612412532891"><ele>28.0</ele><time>2026-03-22T12:21:19Z</time></trkpt><trkpt lat="24.986253488270062" lon="121.4762539715492"><ele>28.0</ele><time>2026-03-22T12:21:20Z</time></trkpt><trkpt lat="24.98635234295601" lon="121.47638434613742"><ele>28.0</ele><time>2026-03-22T12:21:21Z</time></trkpt><trkpt lat="24.98645182999223" lon="121.47651226144785"><ele>26.666666666666668</ele><time>2026-03-22T12:21:22Z</time></trkpt><trkpt lat="24.986550310212323" lon="121.47664099339949"><ele>25.333333333333336</ele><time>2026-03-22T12:21:23Z</time></trkpt><trkpt lat="24.986651594501755" lon="121.47677467648685"><ele>24.0</ele><time>2026-03-22T12:21:24Z</time></trkpt><trkpt lat="24.98675289052051" lon="121.47691485501245"><ele>24.0</ele><time>2026-03-22T12:21:25Z</time></trkpt><trkpt lat="24.986857132148895" lon="121.47706023319519"><ele>24.0</ele><time>2026-03-22T12:21:26Z</time></trkpt><trkpt lat="24.986960299458296" lon="121.47721098183098"><ele>24.0</ele><time>2026-03-22T12:21:27Z</time></trkpt><trkpt lat="24.987064862273705" lon="121.47736163472558"><ele>27.333333333333336</ele><time>2026-03-22T12:21:28Z</time></trkpt><trkpt lat="24.987169608985347" lon="121.47751272516435"><ele>30.666666666666668</ele><time>2026-03-22T12:21:29Z</time></trkpt><trkpt lat="24.987274477650363" lon="121.4776696944536"><ele>34.0</ele><time>2026-03-22T12:21:30Z</time></trkpt><trkpt lat="24.987380006085072" lon="121.47783149767854"><ele>35.333333333333336</ele><time>2026-03-22T12:21:31Z</time></trkpt><trkpt lat="24.9874810177049" lon="121.47799421189319"><ele>36.666666666666664</ele><time>2026-03-22T12:21:32Z</time></trkpt><trkpt lat="24.98757915273035" lon="121.47815971785263"><ele>38.0</ele><time>2026-03-22T12:21:33Z</time></trkpt><trkpt lat="24.987675481437314" lon="121.47832502050885"><ele>38.0</ele><time>2026-03-22T12:21:34Z</time></trkpt><trkpt lat="24.98777011423474" lon="121.47849356698028"><ele>38.0</ele><time>2026-03-22T12:21:35Z</time></trkpt><trkpt lat="24.987860267940757" lon="121.47866478569388"><ele>38.0</ele><time>2026-03-22T12:21:36Z</time></trkpt><trkpt lat="24.987947712518285" lon="121.47883541283811"><ele>38.33333333333333</ele><time>2026-03-22T12:21:37Z</time></trkpt><trkpt lat="24.98803075044097" lon="121.47900950488665"><ele>38.666666666666664</ele><time>2026-03-22T12:21:38Z</time></trkpt><trkpt lat="24.988111063831912" lon="121.4791857250194"><ele>39.0</ele><time>2026-03-22T12:21:39Z</time></trkpt><trkpt lat="24.988188010736" lon="121.47936495309204"><ele>39.0</ele><time>2026-03-22T12:21:40Z</time></trkpt><trkpt lat="24.988261515840083" lon="121.47954792289292"><ele>39.0</ele><time>2026-03-22T12:21:41Z</time></trkpt><trkpt lat="24.98833318634814" lon="121.47973162089455"><ele>39.0</ele><time>2026-03-22T12:21:42Z</time></trkpt><trkpt lat="24.988401417746182" lon="121.47991452721314"><ele>41.0</ele><time>2026-03-22T12:21:43Z</time></trkpt><trkpt lat="24.988463360328474" lon="121.48009920021565"><ele>43.0</ele><time>2026-03-22T12:21:44Z</time></trkpt><trkpt lat="24.988524489452693" lon="121.48028500229965"><ele>45.0</ele><time>2026-03-22T12:21:45Z</time></trkpt><trkpt lat="24.988579755234795" lon="121.48047409356599"><ele>39.666666666666664</ele><time>2026-03-22T12:21:46Z</time></trkpt><trkpt lat="24.988631484432112" lon="121.48067124113976"><ele>34.33333333333333</ele><time>2026-03-22T12:21:47Z</time></trkpt><trkpt lat="24.988675741494987" lon="121.48086696434493"><ele>29.0</ele><time>2026-03-22T12:21:48Z</time></trkpt><trkpt lat="24.988716665306267" lon="121.48106043587227"><ele>29.0</ele><time>2026-03-22T12:21:49Z</time></trkpt><trkpt lat="24.98875025081532" lon="121.48125624232293"><ele>29.0</ele><time>2026-03-22T12:21:50Z</time></trkpt><trkpt lat="24.988779199912727" lon="121.48145233460842"><ele>29.0</ele><time>2026-03-22T12:21:51Z</time></trkpt><trkpt lat="24.98880420827926" lon="121.4816497065002"><ele>25.666666666666664</ele><time>2026-03-22T12:21:52Z</time></trkpt><trkpt lat="24.988819796541343" lon="121.48184862845278"><ele>22.333333333333332</ele><time>2026-03-22T12:21:53Z</time></trkpt><trkpt lat="24.988826632271703" lon="121.48204602190992"><ele>19.0</ele><time>2026-03-22T12:21:54Z</time></trkpt><trkpt lat="24.988825143505164" lon="121.48223062413182"><ele>19.0</ele><time>2026-03-22T12:21:55Z</time></trkpt><trkpt lat="24.988820173075528" lon="121.4824025201116"><ele>19.0</ele><time>2026-03-22T12:21:56Z</time></trkpt><trkpt lat="24.988800745847474" lon="121.48255891377791"><ele>19.0</ele><time>2026-03-22T12:21:57Z</time></trkpt><trkpt lat="24.98878122828838" lon="121.4827040502489"><ele>19.0</ele><time>2026-03-22T12:21:58Z</time></trkpt><trkpt lat="24.988760331638055" lon="121.48283383271121"><ele>18.166666666666664</ele><time>2026-03-22T12:21:59Z</time></trkpt><trkpt lat="24.988738688360026" lon="121.48294967722259"><ele>17.333333333333332</ele><time>2026-03-22T12:22:00Z</time></trkpt><trkpt lat="24.988716030050234" lon="121.48305476321958"><ele>16.5</ele><time>2026-03-22T12:22:01Z</time></trkpt><trkpt lat="24.98869551944492" lon="121.48314785039226"><ele>15.666666666666668</ele><time>2026-03-22T12:22:02Z</time></trkpt><trkpt lat="24.988676790801108" lon="121.48323105345645"><ele>14.833333333333334</ele><time>2026-03-22T12:22:03Z</time></trkpt><trkpt lat="24.988660241974152" lon="121.48330797171334"><ele>14.0</ele><time>2026-03-22T12:22:04Z</time></trkpt><trkpt lat="24.988643053206715" lon="121.48338667748597"><ele>14.0</ele><time>2026-03-22T12:22:05Z</time></trkpt><trkpt lat="24.988626291534672" lon="121.4834649009166"><ele>14.0</ele><time>2026-03-22T12:22:06Z</time></trkpt><trkpt lat="24.988609861186927" lon="121.48354307366453"><ele>14.0</ele><time>2026-03-22T12:22:07Z</time></trkpt><trkpt lat="24.988591002891432" lon="121.48362135740062"><ele>14.0</ele><time>2026-03-22T12:22:08Z</time></trkpt><trkpt lat="24.988572829248866" lon="121.48369901580087"><ele>14.0</ele><time>2026-03-22T12:22:09Z</time></trkpt><trkpt lat="24.98855467039418" lon="121.48377855638466"><ele>14.0</ele><time>2026-03-22T12:22:10Z</time></trkpt><trkpt lat="24.98853777800149" lon="121.48385675503458"><ele>14.0</ele><time>2026-03-22T12:22:11Z</time></trkpt><trkpt lat="24.9885219132855" lon="121.4839369593321"><ele>13.857142857142858</ele><time>2026-03-22T12:22:12Z</time></trkpt><trkpt lat="24.98850782813848" lon="121.48401510196067"><ele>13.714285714285715</ele><time>2026-03-22T12:22:13Z</time></trkpt><trkpt lat="24.98849220345379" lon="121.48409482848335"><ele>13.571428571428571</ele><time>2026-03-22T12:22:14Z</time></trkpt><trkpt lat="24.988481497873572" lon="121.48417356377873"><ele>13.428571428571429</ele><time>2026-03-22T12:22:15Z</time></trkpt><trkpt lat="24.988471302852464" lon="121.48425259875664"><ele>13.285714285714286</ele><time>2026-03-22T12:22:16Z</time></trkpt><trkpt lat="24.988463755990217" lon="121.48433130300018"><ele>13.142857142857142</ele><time>2026-03-22T12:22:17Z</time></trkpt><trkpt lat="24.98845889664348" lon="121.48441050401297"><ele>13.0</ele><time>2026-03-22T12:22:18Z</time></trkpt><trkpt lat="24.98845372864405" lon="121.48449717657336"><ele>13.0</ele><time>2026-03-22T12:22:19Z</time></trkpt><trkpt lat="24.98844955975188" lon="121.4845847630518"><ele>13.0</ele><time>2026-03-22T12:22:20Z</time></trkpt><trkpt lat="24.988452429280137" lon="121.48467969734298"><ele>13.0</ele><time>2026-03-22T12:22:21Z</time></trkpt><trkpt lat="24.988459172165275" lon="121.48478353743823"><ele>13.0</ele><time>2026-03-22T12:22:22Z</time></trkpt><trkpt lat="24.9884718482728" lon="121.48489011297353"><ele>13.0</ele><time>2026-03-22T12:22:23Z</time></trkpt><trkpt lat="24.988490264384872" lon="121.48499680624856"><ele>13.600000000000001</ele><time>2026-03-22T12:22:24Z</time></trkpt><trkpt lat="24.98851983872601" lon="121.48510181159281"><ele>14.200000000000001</ele><time>2026-03-22T12:22:25Z</time></trkpt><trkpt lat="24.988552019130953" lon="121.48520495809903"><ele>14.8</ele><time>2026-03-22T12:22:26Z</time></trkpt><trkpt lat="24.988590574473797" lon="121.48530737989117"><ele>15.4</ele><time>2026-03-22T12:22:27Z</time></trkpt><trkpt lat="24.9886401921215" lon="121.4854009264435"><ele>16.0</ele><time>2026-03-22T12:22:28Z</time></trkpt><trkpt lat="24.988693090705013" lon="121.48549149812578"><ele>16.285714285714285</ele><time>2026-03-22T12:22:29Z</time></trkpt><trkpt lat="24.98874428256402" lon="121.48556857210147"><ele>16.57142857142857</ele><time>2026-03-22T12:22:30Z</time></trkpt><trkpt lat="24.988793232912904" lon="121.48563565010555"><ele>16.857142857142858</ele><time>2026-03-22T12:22:31Z</time></trkpt><trkpt lat="24.988838094609086" lon="121.48569931863081"><ele>17.142857142857142</ele><time>2026-03-22T12:22:32Z</time></trkpt><trkpt lat="24.988885561876458" lon="121.48574967171038"><ele>17.42857142857143</ele><time>2026-03-22T12:22:33Z</time></trkpt><trkpt lat="24.988931468816904" lon="121.48579939658808"><ele>17.714285714285715</ele><time>2026-03-22T12:22:34Z</time></trkpt><trkpt lat="24.988978738355797" lon="121.48584869180213"><ele>18.0</ele><time>2026-03-22T12:22:35Z</time></trkpt><trkpt lat="24.98906799044534" lon="121.48592789206546"><ele>18.0</ele><time>2026-03-22T12:22:37Z</time></trkpt><trkpt lat="24.98915993646542" lon="121.4859905606851"><ele>18.0</ele><time>2026-03-22T12:22:39Z</time></trkpt><trkpt lat="24.989266780415722" lon="121.48607817712556"><ele>18.0</ele><time>2026-03-22T12:22:41Z</time></trkpt><trkpt lat="24.989327979769055" lon="121.48609981626386"><ele>18.0</ele><time>2026-03-22T12:22:42Z</time></trkpt><trkpt lat="24.989443210041784" lon="121.48611528776962"><ele>18.0</ele><time>2026-03-22T12:22:44Z</time></trkpt><trkpt lat="24.989506444599506" lon="121.48613301582293"><ele>18.166666666666668</ele><time>2026-03-22T12:22:45Z</time></trkpt><trkpt lat="24.989573060402922" lon="121.48614546667126"><ele>18.333333333333332</ele><time>2026-03-22T12:22:46Z</time></trkpt><trkpt lat="24.989639539200123" lon="121.48615217365519"><ele>18.5</ele><time>2026-03-22T12:22:47Z</time></trkpt><trkpt lat="24.989712580749664" lon="121.48615381189101"><ele>18.666666666666664</ele><time>2026-03-22T12:22:48Z</time></trkpt><trkpt lat="24.98979259690971" lon="121.48615101439516"><ele>18.833333333333332</ele><time>2026-03-22T12:22:49Z</time></trkpt><trkpt lat="24.989878202718398" lon="121.48614769153639"><ele>19.0</ele><time>2026-03-22T12:22:50Z</time></trkpt><trkpt lat="24.989967950285017" lon="121.4861458300471"><ele>18.5</ele><time>2026-03-22T12:22:51Z</time></trkpt><trkpt lat="24.990049604914386" lon="121.48613628289638"><ele>18.0</ele><time>2026-03-22T12:22:52Z</time></trkpt><trkpt lat="24.990128202204435" lon="121.48612571005908"><ele>17.5</ele><time>2026-03-22T12:22:53Z</time></trkpt><trkpt lat="24.990210246296275" lon="121.48611198126837"><ele>17.0</ele><time>2026-03-22T12:22:54Z</time></trkpt><trkpt lat="24.990302994569678" lon="121.48609230400204"><ele>16.5</ele><time>2026-03-22T12:22:55Z</time></trkpt><trkpt lat="24.990397797411035" lon="121.48607046483423"><ele>16.0</ele><time>2026-03-22T12:22:56Z</time></trkpt><trkpt lat="24.99049419064855" lon="121.48604452882557"><ele>16.0</ele><time>2026-03-22T12:22:57Z</time></trkpt><trkpt lat="24.99059584229868" lon="121.48601443710636"><ele>16.0</ele><time>2026-03-22T12:22:58Z</time></trkpt><trkpt lat="24.990693727904073" lon="121.4859862106615"><ele>16.0</ele><time>2026-03-22T12:22:59Z</time></trkpt><trkpt lat="24.99079161012363" lon="121.48595850847364"><ele>16.0</ele><time>2026-03-22T12:23:00Z</time></trkpt><trkpt lat="24.990893925234662" lon="121.48593145522378"><ele>16.0</ele><time>2026-03-22T12:23:01Z</time></trkpt><trkpt lat="24.991000332118922" lon="121.48590445588255"><ele>15.5</ele><time>2026-03-22T12:23:02Z</time></trkpt><trkpt lat="24.99111279671757" lon="121.48587663952732"><ele>15.0</ele><time>2026-03-22T12:23:03Z</time></trkpt><trkpt lat="24.99123046836654" lon="121.48584771108207"><ele>14.5</ele><time>2026-03-22T12:23:04Z</time></trkpt><trkpt lat="24.99135209238922" lon="121.48581621760907"><ele>14.0</ele><time>2026-03-22T12:23:05Z</time></trkpt><trkpt lat="24.99147949285657" lon="121.48578255042497"><ele>14.0</ele><time>2026-03-22T12:23:06Z</time></trkpt><trkpt lat="24.991609676591143" lon="121.4857533098473"><ele>14.0</ele><time>2026-03-22T12:23:07Z</time></trkpt><trkpt lat="24.991741553891153" lon="121.48572770819095"><ele>14.0</ele><time>2026-03-22T12:23:08Z</time></trkpt><trkpt lat="24.99187434945026" lon="121.48570402444801"><ele>14.0</ele><time>2026-03-22T12:23:09Z</time></trkpt><trkpt lat="24.99201152790063" lon="121.48568473820451"><ele>13.5</ele><time>2026-03-22T12:23:10Z</time></trkpt><trkpt lat="24.992147342999985" lon="121.48567254896652"><ele>13.0</ele><time>2026-03-22T12:23:11Z</time></trkpt><trkpt lat="24.992282678187863" lon="121.48566782408301"><ele>12.5</ele><time>2026-03-22T12:23:12Z</time></trkpt><trkpt lat="24.992417016028906" lon="121.48566752046678"><ele>12.0</ele><time>2026-03-22T12:23:13Z</time></trkpt><trkpt lat="24.9925524487514" lon="121.48566868097001"><ele>11.5</ele><time>2026-03-22T12:23:14Z</time></trkpt><trkpt lat="24.992685483406664" lon="121.48566863384875"><ele>11.0</ele><time>2026-03-22T12:23:15Z</time></trkpt><trkpt lat="24.992819931339852" lon="121.48567162054745"><ele>10.5</ele><time>2026-03-22T12:23:16Z</time></trkpt><trkpt lat="24.992952118172727" lon="121.48567316817905"><ele>10.0</ele><time>2026-03-22T12:23:17Z</time></trkpt><trkpt lat="24.993083396319093" lon="121.48567320915284"><ele>10.0</ele><time>2026-03-22T12:23:18Z</time></trkpt><trkpt lat="24.993214207574336" lon="121.4856748527145"><ele>10.0</ele><time>2026-03-22T12:23:19Z</time></trkpt><trkpt lat="24.993344475559837" lon="121.48567546888849"><ele>10.0</ele><time>2026-03-22T12:23:20Z</time></trkpt><trkpt lat="24.993472431615512" lon="121.48567637685056"><ele>10.0</ele><time>2026-03-22T12:23:21Z</time></trkpt><trkpt lat="24.993602943792407" lon="121.48567777556191"><ele>11.25</ele><time>2026-03-22T12:23:22Z</time></trkpt><trkpt lat="24.99373645323529" lon="121.48567727205167"><ele>12.5</ele><time>2026-03-22T12:23:23Z</time></trkpt><trkpt lat="24.993869723887975" lon="121.48568007881373"><ele>13.75</ele><time>2026-03-22T12:23:24Z</time></trkpt><trkpt lat="24.99400039709267" lon="121.48568117720325"><ele>15.0</ele><time>2026-03-22T12:23:25Z</time></trkpt><trkpt lat="24.994129016593764" lon="121.48568260777466"><ele>16.0</ele><time>2026-03-22T12:23:26Z</time></trkpt><trkpt lat="24.994255749215597" lon="121.48568205515095"><ele>17.0</ele><time>2026-03-22T12:23:27Z</time></trkpt><trkpt lat="24.99438387796067" lon="121.48568196984544"><ele>18.0</ele><time>2026-03-22T12:23:28Z</time></trkpt><trkpt lat="24.994513389396598" lon="121.48567540985012"><ele>19.0</ele><time>2026-03-22T12:23:29Z</time></trkpt><trkpt lat="24.994641781647996" lon="121.48565953203098"><ele>19.0</ele><time>2026-03-22T12:23:30Z</time></trkpt><trkpt lat="24.994766062325898" lon="121.4856366875783"><ele>19.0</ele><time>2026-03-22T12:23:31Z</time></trkpt><trkpt lat="24.994888543836197" lon="121.48561058213582"><ele>19.0</ele><time>2026-03-22T12:23:32Z</time></trkpt><trkpt lat="24.9950091519354" lon="121.4855831709589"><ele>19.0</ele><time>2026-03-22T12:23:33Z</time></trkpt><trkpt lat="24.995130403659317" lon="121.48555874722209"><ele>19.0</ele><time>2026-03-22T12:23:34Z</time></trkpt><trkpt lat="24.99524793291283" lon="121.48553861601197"><ele>19.0</ele><time>2026-03-22T12:23:35Z</time></trkpt><trkpt lat="24.995359362247076" lon="121.48552542362879"><ele>19.0</ele><time>2026-03-22T12:23:36Z</time></trkpt><trkpt lat="24.995469663251196" lon="121.48551298872678"><ele>19.0</ele><time>2026-03-22T12:23:37Z</time></trkpt><trkpt lat="24.995581099943657" lon="121.4854908794289"><ele>19.0</ele><time>2026-03-22T12:23:38Z</time></trkpt><trkpt lat="24.99569321236036" lon="121.48546580405802"><ele>19.0</ele><time>2026-03-22T12:23:39Z</time></trkpt><trkpt lat="24.99580522163242" lon="121.48544974115543"><ele>19.0</ele><time>2026-03-22T12:23:40Z</time></trkpt><trkpt lat="24.99592428012778" lon="121.48543287579722"><ele>19.0</ele><time>2026-03-22T12:23:41Z</time></trkpt><trkpt lat="24.996029940906446" lon="121.48541327762956"><ele>17.75</ele><time>2026-03-22T12:23:42Z</time></trkpt><trkpt lat="24.996148894248133" lon="121.48540405087452"><ele>16.5</ele><time>2026-03-22T12:23:43Z</time></trkpt><trkpt lat="24.996261580784015" lon="121.4853888492682"><ele>15.25</ele><time>2026-03-22T12:23:44Z</time></trkpt><trkpt lat="24.996379001644115" lon="121.48538539521206"><ele>14.0</ele><time>2026-03-22T12:23:45Z</time></trkpt><trkpt lat="24.99649600496718" lon="121.48537558954594"><ele>14.0</ele><time>2026-03-22T12:23:46Z</time></trkpt><trkpt lat="24.996614684920953" lon="121.48536127745142"><ele>14.0</ele><time>2026-03-22T12:23:47Z</time></trkpt><trkpt lat="24.996735435112146" lon="121.48534628258686"><ele>14.0</ele><time>2026-03-22T12:23:48Z</time></trkpt><trkpt lat="24.996847975302707" lon="121.48532708669278"><ele>14.0</ele><time>2026-03-22T12:23:49Z</time></trkpt><trkpt lat="24.99697089703598" lon="121.48531191996845"><ele>14.0</ele><time>2026-03-22T12:23:50Z</time></trkpt><trkpt lat="24.997096832420546" lon="121.48530340648655"><ele>14.0</ele><time>2026-03-22T12:23:51Z</time></trkpt><trkpt lat="24.997216700289748" lon="121.48529018663281"><ele>14.0</ele><time>2026-03-22T12:23:52Z</time></trkpt><trkpt lat="24.997337799077034" lon="121.48527350370009"><ele>14.0</ele><time>2026-03-22T12:23:53Z</time></trkpt><trkpt lat="24.99746855436287" lon="121.48526573132044"><ele>14.25</ele><time>2026-03-22T12:23:54Z</time></trkpt><trkpt lat="24.9976086739364" lon="121.48526562667298"><ele>14.5</ele><time>2026-03-22T12:23:55Z</time></trkpt><trkpt lat="24.997746883421293" lon="121.48527049367586"><ele>14.75</ele><time>2026-03-22T12:23:56Z</time></trkpt><trkpt lat="24.997888860571212" lon="121.48528186343621"><ele>15.0</ele><time>2026-03-22T12:23:57Z</time></trkpt><trkpt lat="24.99803102771623" lon="121.48529064786854"><ele>15.0</ele><time>2026-03-22T12:23:58Z</time></trkpt><trkpt lat="24.998192263400476" lon="121.48529350885184"><ele>15.0</ele><time>2026-03-22T12:23:59Z</time></trkpt><trkpt lat="24.99834790235754" lon="121.48528226556296"><ele>15.0</ele><time>2026-03-22T12:24:00Z</time></trkpt><trkpt lat="24.99850109822216" lon="121.48528166921064"><ele>18.333333333333336</ele><time>2026-03-22T12:24:01Z</time></trkpt><trkpt lat="24.99865323342252" lon="121.48525506838192"><ele>21.666666666666668</ele><time>2026-03-22T12:24:02Z</time></trkpt><trkpt lat="24.998810902167307" lon="121.48523287558538"><ele>25.0</ele><time>2026-03-22T12:24:03Z</time></trkpt><trkpt lat="24.998968428970503" lon="121.48522208789566"><ele>25.0</ele><time>2026-03-22T12:24:04Z</time></trkpt><trkpt lat="24.999127507351236" lon="121.48520758277643"><ele>25.0</ele><time>2026-03-22T12:24:05Z</time></trkpt><trkpt lat="24.999283317378442" lon="121.48519183405875"><ele>25.0</ele><time>2026-03-22T12:24:06Z</time></trkpt><trkpt lat="24.999435483270293" lon="121.48517082743177"><ele>29.666666666666668</ele><time>2026-03-22T12:24:07Z</time></trkpt><trkpt lat="24.99958692975343" lon="121.48515119994693"><ele>34.333333333333336</ele><time>2026-03-22T12:24:08Z</time></trkpt><trkpt lat="24.999737701035087" lon="121.48513208225458"><ele>39.0</ele><time>2026-03-22T12:24:09Z</time></trkpt><trkpt lat="24.99988365135791" lon="121.48512749879849"><ele>39.0</ele><time>2026-03-22T12:24:10Z</time></trkpt><trkpt lat="25.000030134367506" lon="121.48510839680658"><ele>39.0</ele><time>2026-03-22T12:24:11Z</time></trkpt><trkpt lat="25.000180713440177" lon="121.48509694091656"><ele>39.0</ele><time>2026-03-22T12:24:12Z</time></trkpt><trkpt lat="25.000328142892766" lon="121.4850848119376"><ele>39.0</ele><time>2026-03-22T12:24:13Z</time></trkpt><trkpt lat="25.00049122743514" lon="121.48505883548673"><ele>39.0</ele><time>2026-03-22T12:24:14Z</time></trkpt><trkpt lat="25.000652550262664" lon="121.48505061899054"><ele>39.0</ele><time>2026-03-22T12:24:15Z</time></trkpt><trkpt lat="25.00081043551997" lon="121.48503152104126"><ele>39.0</ele><time>2026-03-22T12:24:16Z</time></trkpt><trkpt lat="25.000968572892997" lon="121.48502374495597"><ele>37.666666666666664</ele><time>2026-03-22T12:24:17Z</time></trkpt><trkpt lat="25.001128506322257" lon="121.48501309878505"><ele>36.33333333333333</ele><time>2026-03-22T12:24:18Z</time></trkpt><trkpt lat="25.001286900863477" lon="121.48500459879241"><ele>35.0</ele><time>2026-03-22T12:24:19Z</time></trkpt><trkpt lat="25.00144892982561" lon="121.48498449030134"><ele>35.0</ele><time>2026-03-22T12:24:20Z</time></trkpt><trkpt lat="25.00161350988961" lon="121.48498392060743"><ele>35.0</ele><time>2026-03-22T12:24:21Z</time></trkpt><trkpt lat="25.0017775299209" lon="121.48496734671784"><ele>35.0</ele><time>2026-03-22T12:24:22Z</time></trkpt><trkpt lat="25.00193990379245" lon="121.48495482128376"><ele>31.666666666666664</ele><time>2026-03-22T12:24:23Z</time></trkpt><trkpt lat="25.002100809090923" lon="121.4849405446925"><ele>28.333333333333336</ele><time>2026-03-22T12:24:24Z</time></trkpt><trkpt lat="25.002257061862224" lon="121.4849248798189"><ele>25.0</ele><time>2026-03-22T12:24:25Z</time></trkpt><trkpt lat="25.002416707278815" lon="121.48490122692776"><ele>22.666666666666668</ele><time>2026-03-22T12:24:26Z</time></trkpt><trkpt lat="25.00257383162367" lon="121.48486961619768"><ele>20.333333333333336</ele><time>2026-03-22T12:24:27Z</time></trkpt><trkpt lat="25.002731585681637" lon="121.48484061787985"><ele>18.0</ele><time>2026-03-22T12:24:28Z</time></trkpt><trkpt lat="25.002888507373548" lon="121.48481232996025"><ele>18.0</ele><time>2026-03-22T12:24:29Z</time></trkpt><trkpt lat="25.00304810420223" lon="121.48478561548669"><ele>18.0</ele><time>2026-03-22T12:24:30Z</time></trkpt><trkpt lat="25.00320944052005" lon="121.48475906484542"><ele>18.0</ele><time>2026-03-22T12:24:31Z</time></trkpt><trkpt lat="25.00337529724628" lon="121.48473035567102"><ele>17.333333333333332</ele><time>2026-03-22T12:24:32Z</time></trkpt><trkpt lat="25.00353900823316" lon="121.48469982591887"><ele>16.666666666666664</ele><time>2026-03-22T12:24:33Z</time></trkpt><trkpt lat="25.003697247422263" lon="121.48467019665702"><ele>16.0</ele><time>2026-03-22T12:24:34Z</time></trkpt><trkpt lat="25.00385679471804" lon="121.48463998437282"><ele>16.0</ele><time>2026-03-22T12:24:35Z</time></trkpt><trkpt lat="25.00401984367419" lon="121.48460086401604"><ele>16.0</ele><time>2026-03-22T12:24:36Z</time></trkpt><trkpt lat="25.004183964728767" lon="121.4845529547685"><ele>16.0</ele><time>2026-03-22T12:24:37Z</time></trkpt><trkpt lat="25.00434945024501" lon="121.48449586932901"><ele>17.333333333333332</ele><time>2026-03-22T12:24:38Z</time></trkpt><trkpt lat="25.004512336011604" lon="121.48444303505758"><ele>18.666666666666668</ele><time>2026-03-22T12:24:39Z</time></trkpt><trkpt lat="25.00467205853405" lon="121.48439000484977"><ele>20.0</ele><time>2026-03-22T12:24:40Z</time></trkpt><trkpt lat="25.004845047452005" lon="121.4843261761938"><ele>18.666666666666668</ele><time>2026-03-22T12:24:41Z</time></trkpt><trkpt lat="25.00503511932165" lon="121.48432625061531"><ele>17.333333333333332</ele><time>2026-03-22T12:24:42Z</time></trkpt><trkpt lat="25.00518636818853" lon="121.48419911080143"><ele>16.0</ele><time>2026-03-22T12:24:43Z</time></trkpt><trkpt lat="25.005362781223948" lon="121.48413875853484"><ele>16.0</ele><time>2026-03-22T12:24:44Z</time></trkpt><trkpt lat="25.005544303276192" lon="121.48408974584095"><ele>16.0</ele><time>2026-03-22T12:24:45Z</time></trkpt><trkpt lat="25.005722984772714" lon="121.48403565527975"><ele>16.0</ele><time>2026-03-22T12:24:46Z</time></trkpt><trkpt lat="25.00590042807081" lon="121.48398339021539"><ele>15.666666666666666</ele><time>2026-03-22T12:24:47Z</time></trkpt><trkpt lat="25.006076848159218" lon="121.48392883644561"><ele>15.333333333333332</ele><time>2026-03-22T12:24:48Z</time></trkpt><trkpt lat="25.006249596852573" lon="121.4838690975192"><ele>15.0</ele><time>2026-03-22T12:24:49Z</time></trkpt><trkpt lat="25.00641565191865" lon="121.48380773414152"><ele>16.666666666666668</ele><time>2026-03-22T12:24:50Z</time></trkpt><trkpt lat="25.006579052125492" lon="121.48373642742457"><ele>18.333333333333336</ele><time>2026-03-22T12:24:51Z</time></trkpt><trkpt lat="25.00673690833412" lon="121.48365995508773"><ele>20.0</ele><time>2026-03-22T12:24:52Z</time></trkpt><trkpt lat="25.00689000050006" lon="121.4835802185816"><ele>16.666666666666668</ele><time>2026-03-22T12:24:53Z</time></trkpt><trkpt lat="25.007041118728722" lon="121.48350479020328"><ele>13.333333333333334</ele><time>2026-03-22T12:24:54Z</time></trkpt><trkpt lat="25.007189908861488" lon="121.48341159344156"><ele>10.0</ele><time>2026-03-22T12:24:55Z</time></trkpt><trkpt lat="25.007340303926068" lon="121.48332640219823"><ele>10.0</ele><time>2026-03-22T12:24:56Z</time></trkpt><trkpt lat="25.007492305051517" lon="121.48324559541112"><ele>10.0</ele><time>2026-03-22T12:24:57Z</time></trkpt><trkpt lat="25.007613988302033" lon="121.48311912554692"><ele>10.0</ele><time>2026-03-22T12:24:58Z</time></trkpt><trkpt lat="25.007756560059377" lon="121.48302200486003"><ele>9.0</ele><time>2026-03-22T12:24:59Z</time></trkpt><trkpt lat="25.007895887589328" lon="121.48292347274109"><ele>8.0</ele><time>2026-03-22T12:25:00Z</time></trkpt><trkpt lat="25.00803837077652" lon="121.48281550388243"><ele>7.0</ele><time>2026-03-22T12:25:01Z</time></trkpt><trkpt lat="25.0081790600455" lon="121.48271029866122"><ele>7.0</ele><time>2026-03-22T12:25:02Z</time></trkpt><trkpt lat="25.00831270691328" lon="121.48260604451625"><ele>7.0</ele><time>2026-03-22T12:25:03Z</time></trkpt><trkpt lat="25.008447630938715" lon="121.48249255234302"><ele>7.0</ele><time>2026-03-22T12:25:04Z</time></trkpt><trkpt lat="25.008576527321377" lon="121.48238120867126"><ele>8.333333333333334</ele><time>2026-03-22T12:25:05Z</time></trkpt><trkpt lat="25.008705962363827" lon="121.4822713666031"><ele>9.666666666666666</ele><time>2026-03-22T12:25:06Z</time></trkpt><trkpt lat="25.008834391002047" lon="121.48215808139699"><ele>11.0</ele><time>2026-03-22T12:25:07Z</time></trkpt><trkpt lat="25.008958436442942" lon="121.48204517735768"><ele>11.666666666666666</ele><time>2026-03-22T12:25:08Z</time></trkpt><trkpt lat="25.00907944305536" lon="121.48193310003349"><ele>12.333333333333332</ele><time>2026-03-22T12:25:09Z</time></trkpt><trkpt lat="25.00919998608536" lon="121.48182174467706"><ele>13.0</ele><time>2026-03-22T12:25:10Z</time></trkpt><trkpt lat="25.00931854843359" lon="121.48170803535514"><ele>13.666666666666666</ele><time>2026-03-22T12:25:11Z</time></trkpt><trkpt lat="25.009430262167815" lon="121.48159201276063"><ele>14.333333333333332</ele><time>2026-03-22T12:25:12Z</time></trkpt><trkpt lat="25.009538630530376" lon="121.48147122237094"><ele>15.0</ele><time>2026-03-22T12:25:13Z</time></trkpt><trkpt lat="25.00964145886507" lon="121.48134553308911"><ele>15.666666666666668</ele><time>2026-03-22T12:25:14Z</time></trkpt><trkpt lat="25.009742025353496" lon="121.48121579606439"><ele>16.333333333333336</ele><time>2026-03-22T12:25:15Z</time></trkpt><trkpt lat="25.00984376790954" lon="121.48108070243114"><ele>17.0</ele><time>2026-03-22T12:25:16Z</time></trkpt><trkpt lat="25.00994631781099" lon="121.48094117178248"><ele>16.333333333333336</ele><time>2026-03-22T12:25:17Z</time></trkpt><trkpt lat="25.01004845616025" lon="121.48079553075095"><ele>15.666666666666668</ele><time>2026-03-22T12:25:18Z</time></trkpt><trkpt lat="25.010140324963935" lon="121.48064395029198"><ele>15.0</ele><time>2026-03-22T12:25:19Z</time></trkpt><trkpt lat="25.01022285310716" lon="121.48049070169215"><ele>15.333333333333332</ele><time>2026-03-22T12:25:20Z</time></trkpt><trkpt lat="25.01030496203636" lon="121.48034592922242"><ele>15.666666666666666</ele><time>2026-03-22T12:25:21Z</time></trkpt><trkpt lat="25.01038276189193" lon="121.48019615094728"><ele>16.0</ele><time>2026-03-22T12:25:21.999Z</time></trkpt><trkpt lat="25.01045692940763" lon="121.48004971341317"><ele>16.0</ele><time>2026-03-22T12:25:22.999Z</time></trkpt><trkpt lat="25.010529912067476" lon="121.47990829834187"><ele>16.0</ele><time>2026-03-22T12:25:23.999Z</time></trkpt><trkpt lat="25.010593458709458" lon="121.47978131716644"><ele>16.0</ele><time>2026-03-22T12:25:24.999Z</time></trkpt><trkpt lat="25.010652839604916" lon="121.47967348594247"><ele>16.0</ele><time>2026-03-22T12:25:26Z</time></trkpt><trkpt lat="25.010705309317167" lon="121.47956768375781"><ele>15.999999999999998</ele><time>2026-03-22T12:25:27Z</time></trkpt><trkpt lat="25.010751306213173" lon="121.47947750106972"><ele>16.0</ele><time>2026-03-22T12:25:28Z</time></trkpt><trkpt lat="25.010793678880635" lon="121.47939428651678"><ele>16.0</ele><time>2026-03-22T12:25:29Z</time></trkpt><trkpt lat="25.010836895420706" lon="121.4793091950399"><ele>16.0</ele><time>2026-03-22T12:25:30Z</time></trkpt><trkpt lat="25.010879091007798" lon="121.4792281133105"><ele>15.999999999999998</ele><time>2026-03-22T12:25:31Z</time></trkpt><trkpt lat="25.010924389163957" lon="121.47915047193885"><ele>16.0</ele><time>2026-03-22T12:25:32Z</time></trkpt><trkpt lat="25.010966648452637" lon="121.4790716009292"><ele>15.600000000000001</ele><time>2026-03-22T12:25:33Z</time></trkpt><trkpt lat="25.01100580595467" lon="121.47900108153068"><ele>15.200000000000001</ele><time>2026-03-22T12:25:34Z</time></trkpt><trkpt lat="25.01104350588405" lon="121.47893736557366"><ele>14.799999999999999</ele><time>2026-03-22T12:25:35Z</time></trkpt><trkpt lat="25.011107921087284" lon="121.47881648253417"><ele>14.399999999999999</ele><time>2026-03-22T12:25:37Z</time></trkpt><trkpt lat="25.011161530979077" lon="121.47871413147719"><ele>14.0</ele><time>2026-03-22T12:25:39Z</time></trkpt><trkpt lat="25.01120133553637" lon="121.47863291431811"><ele>14.000000000000002</ele><time>2026-03-22T12:25:41Z</time></trkpt><trkpt lat="25.01124016945793" lon="121.47856135679449"><ele>14.0</ele><time>2026-03-22T12:25:43Z</time></trkpt><trkpt lat="25.011277261069463" lon="121.47848900461591"><ele>14.0</ele><time>2026-03-22T12:25:45Z</time></trkpt><trkpt lat="25.011312509292086" lon="121.47841625165199"><ele>14.0</ele><time>2026-03-22T12:25:47Z</time></trkpt><trkpt lat="25.01135073219386" lon="121.47834126222058"><ele>14.000000000000002</ele><time>2026-03-22T12:25:49Z</time></trkpt><trkpt lat="25.011404484708915" lon="121.47823655356392"><ele>14.0</ele><time>2026-03-22T12:25:51Z</time></trkpt><trkpt lat="25.011463417581613" lon="121.47812604154942"><ele>14.000000000000002</ele><time>2026-03-22T12:25:53Z</time></trkpt><trkpt lat="25.011495824668657" lon="121.47806280722384"><ele>14.0</ele><time>2026-03-22T12:25:54Z</time></trkpt><trkpt lat="25.011534409680355" lon="121.47799058380792"><ele>14.0</ele><time>2026-03-22T12:25:55Z</time></trkpt><trkpt lat="25.011577636291605" lon="121.477905820397"><ele>14.0</ele><time>2026-03-22T12:25:56Z</time></trkpt><trkpt lat="25.011626994659096" lon="121.47780449316471"><ele>14.000000000000002</ele><time>2026-03-22T12:25:57Z</time></trkpt><trkpt lat="25.011680418623865" lon="121.47769514771277"><ele>14.0</ele><time>2026-03-22T12:25:58Z</time></trkpt><trkpt lat="25.011732221258434" lon="121.47758814744282"><ele>15.0</ele><time>2026-03-22T12:25:59Z</time></trkpt><trkpt lat="25.01178534312006" lon="121.47748168249173"><ele>16.0</ele><time>2026-03-22T12:26:00Z</time></trkpt><trkpt lat="25.01183810274045" lon="121.47736221836918"><ele>17.0</ele><time>2026-03-22T12:26:01Z</time></trkpt><trkpt lat="25.01189335944882" lon="121.47723575085155"><ele>18.0</ele><time>2026-03-22T12:26:02Z</time></trkpt><trkpt lat="25.011950218754144" lon="121.47711973108017"><ele>22.25</ele><time>2026-03-22T12:26:03Z</time></trkpt><trkpt lat="25.012009561159832" lon="121.47700917166108"><ele>26.5</ele><time>2026-03-22T12:26:04Z</time></trkpt><trkpt lat="25.012072981897685" lon="121.47688579132947"><ele>30.75</ele><time>2026-03-22T12:26:05Z</time></trkpt><trkpt lat="25.01214117365698" lon="121.4767723234155"><ele>35.0</ele><time>2026-03-22T12:26:06Z</time></trkpt><trkpt lat="25.012211820937743" lon="121.47665957199587"><ele>35.0</ele><time>2026-03-22T12:26:07Z</time></trkpt><trkpt lat="25.012287674515978" lon="121.47654593100808"><ele>35.0</ele><time>2026-03-22T12:26:08Z</time></trkpt><trkpt lat="25.01236890481794" lon="121.47643850607156"><ele>35.0</ele><time>2026-03-22T12:26:09Z</time></trkpt><trkpt lat="25.012451071152654" lon="121.47633866225293"><ele>35.0</ele><time>2026-03-22T12:26:10Z</time></trkpt><trkpt lat="25.012540085015" lon="121.47624221940306"><ele>35.5</ele><time>2026-03-22T12:26:11Z</time></trkpt><trkpt lat="25.01262588978164" lon="121.47614901557293"><ele>36.0</ele><time>2026-03-22T12:26:12Z</time></trkpt><trkpt lat="25.01271297523898" lon="121.47606292975196"><ele>36.5</ele><time>2026-03-22T12:26:13Z</time></trkpt><trkpt lat="25.012792463557453" lon="121.47597532562673"><ele>37.0</ele><time>2026-03-22T12:26:14Z</time></trkpt><trkpt lat="25.0128785425181" lon="121.47588522272181"><ele>37.0</ele><time>2026-03-22T12:26:15Z</time></trkpt><trkpt lat="25.01296401779325" lon="121.47579312942896"><ele>37.0</ele><time>2026-03-22T12:26:16Z</time></trkpt><trkpt lat="25.013054273716794" lon="121.47571960292584"><ele>37.0</ele><time>2026-03-22T12:26:17Z</time></trkpt><trkpt lat="25.0131486025723" lon="121.4756336102897"><ele>37.0</ele><time>2026-03-22T12:26:18Z</time></trkpt><trkpt lat="25.013238750496377" lon="121.4755451234775"><ele>33.25</ele><time>2026-03-22T12:26:19Z</time></trkpt><trkpt lat="25.013330261872767" lon="121.47545549824"><ele>29.5</ele><time>2026-03-22T12:26:20Z</time></trkpt><trkpt lat="25.01342477709374" lon="121.47535974509506"><ele>25.75</ele><time>2026-03-22T12:26:21Z</time></trkpt><trkpt lat="25.01351346817302" lon="121.47526495787768"><ele>22.0</ele><time>2026-03-22T12:26:22Z</time></trkpt><trkpt lat="25.013606790674135" lon="121.47517178185404"><ele>21.0</ele><time>2026-03-22T12:26:23Z</time></trkpt><trkpt lat="25.013697778996292" lon="121.47508221115028"><ele>20.0</ele><time>2026-03-22T12:26:24Z</time></trkpt><trkpt lat="25.013791492857816" lon="121.47498964666941"><ele>19.0</ele><time>2026-03-22T12:26:25Z</time></trkpt><trkpt lat="25.013888774034513" lon="121.47489216696806"><ele>18.0</ele><time>2026-03-22T12:26:26Z</time></trkpt><trkpt lat="25.013990648617263" lon="121.4747921019659"><ele>18.0</ele><time>2026-03-22T12:26:27Z</time></trkpt><trkpt lat="25.01409096292033" lon="121.47470053572468"><ele>18.0</ele><time>2026-03-22T12:26:28Z</time></trkpt><trkpt lat="25.01418400261343" lon="121.47460393434282"><ele>18.0</ele><time>2026-03-22T12:26:29Z</time></trkpt><trkpt lat="25.014279308415688" lon="121.47450987241263"><ele>18.0</ele><time>2026-03-22T12:26:30Z</time></trkpt><trkpt lat="25.01437681391514" lon="121.47441584136763"><ele>16.75</ele><time>2026-03-22T12:26:31Z</time></trkpt><trkpt lat="25.014480054139334" lon="121.47432367445707"><ele>15.5</ele><time>2026-03-22T12:26:32Z</time></trkpt><trkpt lat="25.014583337657186" lon="121.4742286154154"><ele>14.25</ele><time>2026-03-22T12:26:33Z</time></trkpt><trkpt lat="25.014686526170017" lon="121.47413594292061"><ele>13.0</ele><time>2026-03-22T12:26:34Z</time></trkpt><trkpt lat="25.014794376416482" lon="121.47404169800478"><ele>13.0</ele><time>2026-03-22T12:26:35Z</time></trkpt><trkpt lat="25.014906155833458" lon="121.47395000712307"><ele>13.0</ele><time>2026-03-22T12:26:36Z</time></trkpt><trkpt lat="25.01501562596711" lon="121.47385762673512"><ele>13.0</ele><time>2026-03-22T12:26:37Z</time></trkpt><trkpt lat="25.015125564728358" lon="121.47377096072323"><ele>13.0</ele><time>2026-03-22T12:26:38Z</time></trkpt><trkpt lat="25.015235029613404" lon="121.4736864494941"><ele>13.25</ele><time>2026-03-22T12:26:39Z</time></trkpt><trkpt lat="25.015345586421724" lon="121.47360317872402"><ele>13.5</ele><time>2026-03-22T12:26:40Z</time></trkpt><trkpt lat="25.01545397991535" lon="121.47352241012177"><ele>13.75</ele><time>2026-03-22T12:26:41Z</time></trkpt><trkpt lat="25.015562025223094" lon="121.47344298089749"><ele>14.0</ele><time>2026-03-22T12:26:42Z</time></trkpt><trkpt lat="25.01566760072604" lon="121.47335631974777"><ele>14.0</ele><time>2026-03-22T12:26:43Z</time></trkpt><trkpt lat="25.015773740532953" lon="121.47327881690182"><ele>14.0</ele><time>2026-03-22T12:26:44Z</time></trkpt><trkpt lat="25.015878195941745" lon="121.47320204068153"><ele>14.0</ele><time>2026-03-22T12:26:45Z</time></trkpt><trkpt lat="25.015993152297415" lon="121.47312788964778"><ele>14.0</ele><time>2026-03-22T12:26:46Z</time></trkpt><trkpt lat="25.016095126807585" lon="121.47304743028558"><ele>13.5</ele><time>2026-03-22T12:26:47Z</time></trkpt><trkpt lat="25.01620161692962" lon="121.47296930525067"><ele>13.0</ele><time>2026-03-22T12:26:48Z</time></trkpt><trkpt lat="25.016304764237894" lon="121.47289207628984"><ele>12.5</ele><time>2026-03-22T12:26:49Z</time></trkpt><trkpt lat="25.016412601338654" lon="121.47281336141063"><ele>12.0</ele><time>2026-03-22T12:26:50Z</time></trkpt><trkpt lat="25.016516383325307" lon="121.47273730790893"><ele>12.0</ele><time>2026-03-22T12:26:51Z</time></trkpt><trkpt lat="25.01660830358977" lon="121.47266526581343"><ele>12.0</ele><time>2026-03-22T12:26:52Z</time></trkpt><trkpt lat="25.016710577602105" lon="121.47258983101831"><ele>12.0</ele><time>2026-03-22T12:26:53Z</time></trkpt><trkpt lat="25.016809628051583" lon="121.47251867733921"><ele>12.0</ele><time>2026-03-22T12:26:54Z</time></trkpt><trkpt lat="25.016907009725678" lon="121.47244170909819"><ele>11.75</ele><time>2026-03-22T12:26:55Z</time></trkpt><trkpt lat="25.01700602440126" lon="121.47236721125587"><ele>11.5</ele><time>2026-03-22T12:26:56Z</time></trkpt><trkpt lat="25.017103226158195" lon="121.47229344761266"><ele>11.25</ele><time>2026-03-22T12:26:57Z</time></trkpt><trkpt lat="25.01719964658913" lon="121.47222156626474"><ele>11.0</ele><time>2026-03-22T12:26:58Z</time></trkpt><trkpt lat="25.017294610019405" lon="121.47215010621215"><ele>12.25</ele><time>2026-03-22T12:26:59Z</time></trkpt><trkpt lat="25.01739320713773" lon="121.47207464618558"><ele>13.5</ele><time>2026-03-22T12:27:00Z</time></trkpt><trkpt lat="25.01749478896135" lon="121.47199572649596"><ele>14.75</ele><time>2026-03-22T12:27:01Z</time></trkpt><trkpt lat="25.017598974967527" lon="121.47192221066287"><ele>16.0</ele><time>2026-03-22T12:27:02Z</time></trkpt><trkpt lat="25.01770864064576" lon="121.47185464196303"><ele>16.0</ele><time>2026-03-22T12:27:03Z</time></trkpt><trkpt lat="25.017817878472947" lon="121.47179087012819"><ele>16.0</ele><time>2026-03-22T12:27:04Z</time></trkpt><trkpt lat="25.01792848552226" lon="121.47172621718535"><ele>16.0</ele><time>2026-03-22T12:27:05Z</time></trkpt><trkpt lat="25.018036717978763" lon="121.47165941559435"><ele>16.0</ele><time>2026-03-22T12:27:06Z</time></trkpt><trkpt lat="25.018145337873825" lon="121.47159310348094"><ele>16.0</ele><time>2026-03-22T12:27:07Z</time></trkpt><trkpt lat="25.018247677858916" lon="121.4715223390239"><ele>16.0</ele><time>2026-03-22T12:27:08Z</time></trkpt><trkpt lat="25.018349167483606" lon="121.47145090139583"><ele>16.0</ele><time>2026-03-22T12:27:09Z</time></trkpt><trkpt lat="25.01844788726278" lon="121.47137168066457"><ele>16.0</ele><time>2026-03-22T12:27:10Z</time></trkpt><trkpt lat="25.01854660031939" lon="121.47130015376244"><ele>15.4</ele><time>2026-03-22T12:27:11Z</time></trkpt><trkpt lat="25.018643696008652" lon="121.47123021647889"><ele>14.8</ele><time>2026-03-22T12:27:12Z</time></trkpt><trkpt lat="25.018737817041224" lon="121.4711625173943"><ele>14.200000000000001</ele><time>2026-03-22T12:27:13Z</time></trkpt><trkpt lat="25.01882788056667" lon="121.47109538916624"><ele>13.600000000000001</ele><time>2026-03-22T12:27:14Z</time></trkpt><trkpt lat="25.018918257920397" lon="121.47103162004652"><ele>13.0</ele><time>2026-03-22T12:27:15Z</time></trkpt><trkpt lat="25.01901082243317" lon="121.47096674108927"><ele>13.0</ele><time>2026-03-22T12:27:16Z</time></trkpt><trkpt lat="25.019105814489116" lon="121.47089855797635"><ele>13.0</ele><time>2026-03-22T12:27:17Z</time></trkpt><trkpt lat="25.0192015266958" lon="121.47082624261857"><ele>13.0</ele><time>2026-03-22T12:27:18Z</time></trkpt><trkpt lat="25.01929603928289" lon="121.4707571948612"><ele>13.0</ele><time>2026-03-22T12:27:19Z</time></trkpt><trkpt lat="25.019393764093998" lon="121.47067902441438"><ele>13.0</ele><time>2026-03-22T12:27:20Z</time></trkpt><trkpt lat="25.01948535279182" lon="121.47060315238251"><ele>13.0</ele><time>2026-03-22T12:27:21Z</time></trkpt><trkpt lat="25.01958012459219" lon="121.47053624295717"><ele>13.0</ele><time>2026-03-22T12:27:22Z</time></trkpt><trkpt lat="25.019666204522107" lon="121.47046323914036"><ele>13.0</ele><time>2026-03-22T12:27:23Z</time></trkpt><trkpt lat="25.019752716051148" lon="121.47039912386882"><ele>13.0</ele><time>2026-03-22T12:27:24Z</time></trkpt><trkpt lat="25.019834004060165" lon="121.47033590036499"><ele>12.999999999999998</ele><time>2026-03-22T12:27:25Z</time></trkpt><trkpt lat="25.01991249961141" lon="121.47027778815863"><ele>13.0</ele><time>2026-03-22T12:27:26Z</time></trkpt><trkpt lat="25.019981340525362" lon="121.4702215940262"><ele>13.0</ele><time>2026-03-22T12:27:26.999Z</time></trkpt><trkpt lat="25.02004927560084" lon="121.47017314960014"><ele>13.0</ele><time>2026-03-22T12:27:28Z</time></trkpt><trkpt lat="25.02010618504649" lon="121.47012601274653"><ele>12.999999999999998</ele><time>2026-03-22T12:27:29Z</time></trkpt><trkpt lat="25.02015652789257" lon="121.4700836398761"><ele>13.0</ele><time>2026-03-22T12:27:30Z</time></trkpt><trkpt lat="25.020229328156855" lon="121.47002491111208"><ele>12.499999999999998</ele><time>2026-03-22T12:27:32Z</time></trkpt><trkpt lat="25.02028580003146" lon="121.46998720382689"><ele>12.0</ele><time>2026-03-22T12:27:36.999Z</time></trkpt><trkpt lat="25.020356452061847" lon="121.46995957039373"><ele>11.5</ele><time>2026-03-22T12:28:12Z</time></trkpt><trkpt lat="25.020431562990847" lon="121.46989648516754"><ele>11.0</ele><time>2026-03-22T12:28:14Z</time></trkpt><trkpt lat="25.020491158821187" lon="121.46983710183173"><ele>10.5</ele><time>2026-03-22T12:28:16Z</time></trkpt><trkpt lat="25.02051404084581" lon="121.4697555314811"><ele>10.0</ele><time>2026-03-22T12:28:20Z</time></trkpt><trkpt lat="25.0204727171511" lon="121.46966514426441"><ele>10.0</ele><time>2026-03-22T12:28:23Z</time></trkpt><trkpt lat="25.02040908361734" lon="121.469590264622"><ele>10.0</ele><time>2026-03-22T12:28:25Z</time></trkpt><trkpt lat="25.02032914856985" lon="121.46956304608295"><ele>10.0</ele><time>2026-03-22T12:28:27Z</time></trkpt><trkpt lat="25.020268514200666" lon="121.4696506208149"><ele>10.0</ele><time>2026-03-22T12:28:29Z</time></trkpt><trkpt lat="25.02016383576057" lon="121.46972216965771"><ele>10.0</ele><time>2026-03-22T12:28:31Z</time></trkpt><trkpt lat="25.020101340003052" lon="121.46976776411304"><ele>10.0</ele><time>2026-03-22T12:28:32Z</time></trkpt><trkpt lat="25.020034926660887" lon="121.46981173265883"><ele>10.0</ele><time>2026-03-22T12:28:33Z</time></trkpt><trkpt lat="25.019972392550173" lon="121.46985604403885"><ele>10.0</ele><time>2026-03-22T12:28:34Z</time></trkpt><trkpt lat="25.019909230005542" lon="121.46990260152545"><ele>10.0</ele><time>2026-03-22T12:28:35Z</time></trkpt><trkpt lat="25.019850735037707" lon="121.46994503611768"><ele>10.0</ele><time>2026-03-22T12:28:36Z</time></trkpt><trkpt lat="25.019798272629917" lon="121.47000966454992"><ele>10.0</ele><time>2026-03-22T12:28:37Z</time></trkpt><trkpt lat="25.019724075229348" lon="121.47004859233377"><ele>10.5</ele><time>2026-03-22T12:28:38Z</time></trkpt><trkpt lat="25.019666103607207" lon="121.47011662069866"><ele>11.0</ele><time>2026-03-22T12:28:39Z</time></trkpt><trkpt lat="25.019595691680642" lon="121.47017318872555"><ele>11.5</ele><time>2026-03-22T12:28:40Z</time></trkpt><trkpt lat="25.019513395398246" lon="121.47021676207262"><ele>12.0</ele><time>2026-03-22T12:28:41Z</time></trkpt><trkpt lat="25.01944453704052" lon="121.47027963950063"><ele>12.499999999999998</ele><time>2026-03-22T12:28:42Z</time></trkpt><trkpt lat="25.019381435779408" lon="121.47033365586067"><ele>13.0</ele><time>2026-03-22T12:28:43Z</time></trkpt><trkpt lat="25.01932265541129" lon="121.4703851788003"><ele>12.999999999999998</ele><time>2026-03-22T12:28:44Z</time></trkpt><trkpt lat="25.019263409347314" lon="121.47043766629434"><ele>13.0</ele><time>2026-03-22T12:28:45Z</time></trkpt><trkpt lat="25.019198553203854" lon="121.47049392181313"><ele>13.0</ele><time>2026-03-22T12:28:46Z</time></trkpt><trkpt lat="25.019134771565852" lon="121.47054145895531"><ele>13.0</ele><time>2026-03-22T12:28:47Z</time></trkpt><trkpt lat="25.019078761533876" lon="121.47058684265987"><ele>12.999999999999998</ele><time>2026-03-22T12:28:48Z</time></trkpt><trkpt lat="25.018979287846836" lon="121.47066056666488"><ele>13.0</ele><time>2026-03-22T12:28:50Z</time></trkpt><trkpt lat="25.01890458372758" lon="121.47074108953807"><ele>13.0</ele><time>2026-03-22T12:28:52Z</time></trkpt><trkpt lat="25.018804914477514" lon="121.47079488771737"><ele>13.0</ele><time>2026-03-22T12:28:54Z</time></trkpt><trkpt lat="25.01871254549206" lon="121.47084596710326"><ele>13.0</ele><time>2026-03-22T12:28:56Z</time></trkpt><trkpt lat="25.01864961053313" lon="121.47089037082253"><ele>13.0</ele><time>2026-03-22T12:28:59Z</time></trkpt><trkpt lat="25.01860052026484" lon="121.47083098670811"><ele>13.0</ele><time>2026-03-22T12:29:17Z</time></trkpt><trkpt lat="25.018905930740164" lon="121.47071148030813"><ele>12.999999999999998</ele><time>2026-03-22T12:31:28.038Z</time></trkpt><trkpt lat="25.018794447633" lon="121.47072950870782"><ele>13.0</ele><time>2026-03-22T12:31:47.035Z</time></trkpt><trkpt lat="25.018818680743152" lon="121.47083480257062"><ele>13.0</ele><time>2026-03-22T12:31:49.035Z</time></trkpt><trkpt lat="25.01880273565142" lon="121.47090319271399"><ele>13.0</ele><time>2026-03-22T12:31:53.033Z</time></trkpt><trkpt lat="25.018781517158526" lon="121.4709737435455"><ele>12.999999999999998</ele><time>2026-03-22T12:31:56.028Z</time></trkpt><trkpt lat="25.018767306472064" lon="121.47107459278074"><ele>13.0</ele><time>2026-03-22T12:31:59.032Z</time></trkpt><trkpt lat="25.018767821452194" lon="121.47116137310468"><ele>12.75</ele><time>2026-03-22T12:32:02.028Z</time></trkpt><trkpt lat="25.01875994448385" lon="121.4713779015782"><ele>12.5</ele><time>2026-03-22T12:32:05.031Z</time></trkpt><trkpt lat="25.018783357181107" lon="121.47148153454629"><ele>12.25</ele><time>2026-03-22T12:32:06.028Z</time></trkpt><trkpt lat="25.018826201494033" lon="121.47158088178081"><ele>12.0</ele><time>2026-03-22T12:32:07.026Z</time></trkpt><trkpt lat="25.018866427554563" lon="121.47166128732862"><ele>12.0</ele><time>2026-03-22T12:32:08.026Z</time></trkpt><trkpt lat="25.018898500541205" lon="121.47173948793908"><ele>12.0</ele><time>2026-03-22T12:32:09.027Z</time></trkpt><trkpt lat="25.01866176302295" lon="121.47156857024243"><ele>12.0</ele><time>2026-03-22T12:32:10.023Z</time></trkpt><trkpt lat="25.018680494078954" lon="121.4716821907592"><ele>12.0</ele><time>2026-03-22T12:32:12.026Z</time></trkpt><trkpt lat="25.018729849031764" lon="121.47179895171357"><ele>12.0</ele><time>2026-03-22T12:32:13Z</time></trkpt><trkpt lat="25.018747071348887" lon="121.47157588316685"><ele>12.0</ele><time>2026-03-22T12:32:14Z</time></trkpt><trkpt lat="25.01885735743312" lon="121.4716566345723"><ele>12.0</ele><time>2026-03-22T12:32:16Z</time></trkpt><trkpt lat="25.01889329553411" lon="121.47171657031377"><ele>12.0</ele><time>2026-03-22T12:32:17Z</time></trkpt><trkpt lat="25.018951389563014" lon="121.47179730404721"><ele>12.0</ele><time>2026-03-22T12:32:18Z</time></trkpt><trkpt lat="25.01901500253002" lon="121.47188614936832"><ele>12.0</ele><time>2026-03-22T12:32:18.999Z</time></trkpt><trkpt lat="25.0190831128056" lon="121.47197748403983"><ele>12.0</ele><time>2026-03-22T12:32:19.999Z</time></trkpt><trkpt lat="25.019157240618863" lon="121.47207389648005"><ele>11.75</ele><time>2026-03-22T12:32:20.999Z</time></trkpt><trkpt lat="25.019232335070633" lon="121.47217500893069"><ele>11.5</ele><time>2026-03-22T12:32:21.999Z</time></trkpt><trkpt lat="25.019313754102342" lon="121.47229074230688"><ele>11.25</ele><time>2026-03-22T12:32:22.999Z</time></trkpt><trkpt lat="25.019389234969054" lon="121.47240570261954"><ele>11.0</ele><time>2026-03-22T12:32:23.999Z</time></trkpt><trkpt lat="25.01947058952115" lon="121.47253321378021"><ele>11.0</ele><time>2026-03-22T12:32:24.999Z</time></trkpt><trkpt lat="25.019562887112823" lon="121.47267054461345"><ele>11.0</ele><time>2026-03-22T12:32:25.999Z</time></trkpt><trkpt lat="25.019654569836845" lon="121.47280476104937"><ele>11.0</ele><time>2026-03-22T12:32:26.999Z</time></trkpt><trkpt lat="25.019753496288626" lon="121.47294705527827"><ele>11.666666666666666</ele><time>2026-03-22T12:32:27.999Z</time></trkpt><trkpt lat="25.019852079333315" lon="121.47309644931386"><ele>12.333333333333332</ele><time>2026-03-22T12:32:28.999Z</time></trkpt><trkpt lat="25.0199493052054" lon="121.47324614748126"><ele>13.0</ele><time>2026-03-22T12:32:29.999Z</time></trkpt><trkpt lat="25.020050758148574" lon="121.4734005234369"><ele>13.0</ele><time>2026-03-22T12:32:30.999Z</time></trkpt><trkpt lat="25.02016542392363" lon="121.47355903309413"><ele>13.0</ele><time>2026-03-22T12:32:31.999Z</time></trkpt><trkpt lat="25.020279198607536" lon="121.47371849078075"><ele>13.0</ele><time>2026-03-22T12:32:33Z</time></trkpt><trkpt lat="25.020392449107124" lon="121.47387366403682"><ele>13.666666666666666</ele><time>2026-03-22T12:32:34Z</time></trkpt><trkpt lat="25.02050497348038" lon="121.47401998513214"><ele>14.333333333333332</ele><time>2026-03-22T12:32:35Z</time></trkpt><trkpt lat="25.02061567630376" lon="121.4741762437915"><ele>15.0</ele><time>2026-03-22T12:32:36Z</time></trkpt><trkpt lat="25.02073182916152" lon="121.47433014713803"><ele>15.0</ele><time>2026-03-22T12:32:37Z</time></trkpt><trkpt lat="25.02085239499834" lon="121.47448563590099"><ele>15.0</ele><time>2026-03-22T12:32:38Z</time></trkpt><trkpt lat="25.020971511005175" lon="121.47465317937748"><ele>15.0</ele><time>2026-03-22T12:32:39Z</time></trkpt><trkpt lat="25.02110805620254" lon="121.47484098373313"><ele>14.333333333333332</ele><time>2026-03-22T12:32:40Z</time></trkpt><trkpt lat="25.021236437036354" lon="121.47502121583685"><ele>13.666666666666666</ele><time>2026-03-22T12:32:41Z</time></trkpt><trkpt lat="25.021364996066477" lon="121.47520403761122"><ele>13.0</ele><time>2026-03-22T12:32:42Z</time></trkpt><trkpt lat="25.02150297903513" lon="121.47539266959683"><ele>13.0</ele><time>2026-03-22T12:32:43Z</time></trkpt><trkpt lat="25.021644076838435" lon="121.4755877582783"><ele>13.0</ele><time>2026-03-22T12:32:44Z</time></trkpt><trkpt lat="25.02177997185034" lon="121.47577352736327"><ele>13.0</ele><time>2026-03-22T12:32:45Z</time></trkpt><trkpt lat="25.02191885945602" lon="121.47596371339462"><ele>13.0</ele><time>2026-03-22T12:32:46Z</time></trkpt><trkpt lat="25.022061177138756" lon="121.476160357039"><ele>13.0</ele><time>2026-03-22T12:32:47Z</time></trkpt><trkpt lat="25.02220232659071" lon="121.47635331546421"><ele>13.0</ele><time>2026-03-22T12:32:48Z</time></trkpt><trkpt lat="25.022345790414303" lon="121.47655106520612"><ele>13.0</ele><time>2026-03-22T12:32:49Z</time></trkpt><trkpt lat="25.022489299344038" lon="121.47675247570115"><ele>11.5</ele><time>2026-03-22T12:32:50Z</time></trkpt><trkpt lat="25.022634632967797" lon="121.47695586652479"><ele>10.0</ele><time>2026-03-22T12:32:51Z</time></trkpt><trkpt lat="25.022783624622996" lon="121.47715981604873"><ele>13.5</ele><time>2026-03-22T12:32:52Z</time></trkpt><trkpt lat="25.02293229084618" lon="121.47736758385246"><ele>17.0</ele><time>2026-03-22T12:32:53Z</time></trkpt><trkpt lat="25.0230790853119" lon="121.47757011270907"><ele>17.0</ele><time>2026-03-22T12:32:54Z</time></trkpt><trkpt lat="25.023220993440578" lon="121.4777747405997"><ele>17.0</ele><time>2026-03-22T12:32:55Z</time></trkpt><trkpt lat="25.02336129828036" lon="121.47797490012357"><ele>14.0</ele><time>2026-03-22T12:32:56Z</time></trkpt><trkpt lat="25.023499588970154" lon="121.47817344821405"><ele>11.0</ele><time>2026-03-22T12:32:57Z</time></trkpt><trkpt lat="25.023641698548566" lon="121.47837404534182"><ele>11.0</ele><time>2026-03-22T12:32:58Z</time></trkpt><trkpt lat="25.023776760757137" lon="121.47857139979608"><ele>11.0</ele><time>2026-03-22T12:32:59Z</time></trkpt><trkpt lat="25.023901296735392" lon="121.47876973379984"><ele>11.0</ele><time>2026-03-22T12:33:00Z</time></trkpt><trkpt lat="25.024031957104768" lon="121.478965105991"><ele>12.333333333333332</ele><time>2026-03-22T12:33:01Z</time></trkpt><trkpt lat="25.024164043088344" lon="121.47915569790364"><ele>13.666666666666666</ele><time>2026-03-22T12:33:02Z</time></trkpt><trkpt lat="25.024296803295915" lon="121.47934246263313"><ele>15.0</ele><time>2026-03-22T12:33:03Z</time></trkpt><trkpt lat="25.02442991969663" lon="121.47952543542772"><ele>15.333333333333332</ele><time>2026-03-22T12:33:04Z</time></trkpt><trkpt lat="25.02456169693115" lon="121.47970890866591"><ele>15.666666666666666</ele><time>2026-03-22T12:33:05Z</time></trkpt><trkpt lat="25.024692832835886" lon="121.47988655098544"><ele>16.0</ele><time>2026-03-22T12:33:06Z</time></trkpt><trkpt lat="25.024825059073468" lon="121.4800610678918"><ele>16.0</ele><time>2026-03-22T12:33:07Z</time></trkpt><trkpt lat="25.024956052544283" lon="121.48023388054402"><ele>16.0</ele><time>2026-03-22T12:33:08Z</time></trkpt><trkpt lat="25.025086659272898" lon="121.48040757910425"><ele>16.0</ele><time>2026-03-22T12:33:09Z</time></trkpt><trkpt lat="25.025210753320618" lon="121.48058045251796"><ele>17.333333333333332</ele><time>2026-03-22T12:33:10Z</time></trkpt><trkpt lat="25.025330981628358" lon="121.48075445227958"><ele>18.666666666666668</ele><time>2026-03-22T12:33:11Z</time></trkpt><trkpt lat="25.025448532292188" lon="121.48093075429495"><ele>20.0</ele><time>2026-03-22T12:33:12Z</time></trkpt><trkpt lat="25.025561971351518" lon="121.48110898116151"><ele>17.666666666666668</ele><time>2026-03-22T12:33:13Z</time></trkpt><trkpt lat="25.025680825890696" lon="121.48129004724204"><ele>15.333333333333332</ele><time>2026-03-22T12:33:14Z</time></trkpt><trkpt lat="25.02579026180101" lon="121.48147242412446"><ele>13.0</ele><time>2026-03-22T12:33:15Z</time></trkpt><trkpt lat="25.025888639447004" lon="121.48164849861574"><ele>12.666666666666666</ele><time>2026-03-22T12:33:16Z</time></trkpt><trkpt lat="25.025990121797037" lon="121.48183163648636"><ele>12.333333333333332</ele><time>2026-03-22T12:33:17Z</time></trkpt><trkpt lat="25.02608703671445" lon="121.48201708019953"><ele>12.0</ele><time>2026-03-22T12:33:18Z</time></trkpt><trkpt lat="25.02618156033875" lon="121.48220227508493"><ele>10.333333333333334</ele><time>2026-03-22T12:33:19Z</time></trkpt><trkpt lat="25.026272605935354" lon="121.4823878540054"><ele>8.666666666666668</ele><time>2026-03-22T12:33:20Z</time></trkpt><trkpt lat="25.02635909123554" lon="121.4825726310959"><ele>7.0</ele><time>2026-03-22T12:33:21Z</time></trkpt><trkpt lat="25.026439060302177" lon="121.48275648620155"><ele>6.666666666666667</ele><time>2026-03-22T12:33:22Z</time></trkpt><trkpt lat="25.026510251622582" lon="121.4829426413073"><ele>6.333333333333334</ele><time>2026-03-22T12:33:23Z</time></trkpt><trkpt lat="25.026574705912996" lon="121.48311964564715"><ele>6.0</ele><time>2026-03-22T12:33:24Z</time></trkpt><trkpt lat="25.0266287877109" lon="121.48330312259927"><ele>6.0</ele><time>2026-03-22T12:33:25Z</time></trkpt><trkpt lat="25.026681295584176" lon="121.48348806095437"><ele>6.0</ele><time>2026-03-22T12:33:26Z</time></trkpt><trkpt lat="25.026732159940693" lon="121.48367131789398"><ele>6.0</ele><time>2026-03-22T12:33:27Z</time></trkpt><trkpt lat="25.02677858487581" lon="121.48385248479973"><ele>7.0</ele><time>2026-03-22T12:33:28Z</time></trkpt><trkpt lat="25.026821348625813" lon="121.48403765986234"><ele>8.0</ele><time>2026-03-22T12:33:29Z</time></trkpt><trkpt lat="25.026865027370853" lon="121.4842217458762"><ele>9.0</ele><time>2026-03-22T12:33:30Z</time></trkpt><trkpt lat="25.02689995245042" lon="121.48440375024364"><ele>9.0</ele><time>2026-03-22T12:33:31Z</time></trkpt><trkpt lat="25.026927683159357" lon="121.4845889601836"><ele>9.0</ele><time>2026-03-22T12:33:32Z</time></trkpt><trkpt lat="25.02695345195569" lon="121.48476927371996"><ele>9.0</ele><time>2026-03-22T12:33:33Z</time></trkpt><trkpt lat="25.026982496972938" lon="121.48494867733491"><ele>8.666666666666666</ele><time>2026-03-22T12:33:34Z</time></trkpt><trkpt lat="25.027011569691698" lon="121.48512639718524"><ele>8.333333333333332</ele><time>2026-03-22T12:33:35Z</time></trkpt><trkpt lat="25.02704012914035" lon="121.48530417070887"><ele>8.0</ele><time>2026-03-22T12:33:36Z</time></trkpt><trkpt lat="25.02706968172073" lon="121.4854793159643"><ele>6.0</ele><time>2026-03-22T12:33:37Z</time></trkpt><trkpt lat="25.027098296574167" lon="121.48565089809496"><ele>4.0</ele><time>2026-03-22T12:33:38Z</time></trkpt><trkpt lat="25.027124859450463" lon="121.4858203338393"><ele>2.0</ele><time>2026-03-22T12:33:39Z</time></trkpt><trkpt lat="25.027151655822443" lon="121.48598901115639"><ele>2.0</ele><time>2026-03-22T12:33:40Z</time></trkpt><trkpt lat="25.02717649584244" lon="121.48615330141482"><ele>2.0</ele><time>2026-03-22T12:33:41Z</time></trkpt><trkpt lat="25.027201309388357" lon="121.48631536851421"><ele>2.0</ele><time>2026-03-22T12:33:42Z</time></trkpt><trkpt lat="25.027227865360835" lon="121.48647906048514"><ele>1.6666666666666665</ele><time>2026-03-22T12:33:43Z</time></trkpt><trkpt lat="25.027252767949008" lon="121.48664604260613"><ele>1.3333333333333333</ele><time>2026-03-22T12:33:44Z</time></trkpt><trkpt lat="25.027274534972513" lon="121.48682109409577"><ele>1.0</ele><time>2026-03-22T12:33:45Z</time></trkpt><trkpt lat="25.02730295209677" lon="121.48700144113934"><ele>1.0</ele><time>2026-03-22T12:33:46Z</time></trkpt><trkpt lat="25.027339193244707" lon="121.48719286715955"><ele>1.0</ele><time>2026-03-22T12:33:47Z</time></trkpt><trkpt lat="25.027366090866035" lon="121.48737523054857"><ele>1.0</ele><time>2026-03-22T12:33:48Z</time></trkpt><trkpt lat="25.027393004534918" lon="121.48755560011983"><ele>1.0</ele><time>2026-03-22T12:33:49Z</time></trkpt><trkpt lat="25.02742232539419" lon="121.48773873170578"><ele>1.0</ele><time>2026-03-22T12:33:50Z</time></trkpt><trkpt lat="25.02744627004899" lon="121.48791797327188"><ele>1.0</ele><time>2026-03-22T12:33:51Z</time></trkpt><trkpt lat="25.027474060078383" lon="121.48809726664196"><ele>2.0</ele><time>2026-03-22T12:33:52Z</time></trkpt><trkpt lat="25.027504322508474" lon="121.488280715368"><ele>3.0</ele><time>2026-03-22T12:33:53Z</time></trkpt><trkpt lat="25.027529819796815" lon="121.48846386687316"><ele>4.0</ele><time>2026-03-22T12:33:54Z</time></trkpt><trkpt lat="25.027552480726502" lon="121.48864476231134"><ele>4.666666666666666</ele><time>2026-03-22T12:33:55Z</time></trkpt><trkpt lat="25.02757622218144" lon="121.48882402612325"><ele>5.333333333333333</ele><time>2026-03-22T12:33:56Z</time></trkpt><trkpt lat="25.02759942417375" lon="121.48900600908291"><ele>6.0</ele><time>2026-03-22T12:33:57Z</time></trkpt><trkpt lat="25.027630202452116" lon="121.48918570512595"><ele>6.0</ele><time>2026-03-22T12:33:58Z</time></trkpt><trkpt lat="25.02766810483096" lon="121.48936147647886"><ele>6.0</ele><time>2026-03-22T12:33:59Z</time></trkpt><trkpt lat="25.027711929832677" lon="121.48953194107759"><ele>6.0</ele><time>2026-03-22T12:34:00Z</time></trkpt><trkpt lat="25.02776109073513" lon="121.48969936033248"><ele>7.0</ele><time>2026-03-22T12:34:01Z</time></trkpt><trkpt lat="25.027815053382877" lon="121.48986229636068"><ele>8.0</ele><time>2026-03-22T12:34:02Z</time></trkpt><trkpt lat="25.027873452169935" lon="121.49002084901274"><ele>9.0</ele><time>2026-03-22T12:34:03Z</time></trkpt><trkpt lat="25.027937946828857" lon="121.49018227029889"><ele>9.0</ele><time>2026-03-22T12:34:04Z</time></trkpt><trkpt lat="25.028004755361874" lon="121.49033564330192"><ele>9.0</ele><time>2026-03-22T12:34:05Z</time></trkpt><trkpt lat="25.028078235979116" lon="121.49048250281918"><ele>9.0</ele><time>2026-03-22T12:34:06Z</time></trkpt><trkpt lat="25.028152086311675" lon="121.49062779198437"><ele>8.5</ele><time>2026-03-22T12:34:07Z</time></trkpt><trkpt lat="25.028229561044757" lon="121.49076789189756"><ele>8.0</ele><time>2026-03-22T12:34:08Z</time></trkpt><trkpt lat="25.028311285764627" lon="121.49090181135597"><ele>7.5</ele><time>2026-03-22T12:34:09Z</time></trkpt><trkpt lat="25.028392980960408" lon="121.49103314600447"><ele>7.0</ele><time>2026-03-22T12:34:10Z</time></trkpt><trkpt lat="25.028486150515487" lon="121.49116462644905"><ele>7.75</ele><time>2026-03-22T12:34:11Z</time></trkpt><trkpt lat="25.028569678948795" lon="121.49128658816183"><ele>8.5</ele><time>2026-03-22T12:34:12Z</time></trkpt><trkpt lat="25.02866303378647" lon="121.49140349830812"><ele>9.25</ele><time>2026-03-22T12:34:13Z</time></trkpt><trkpt lat="25.028760758844268" lon="121.4915234929744"><ele>10.0</ele><time>2026-03-22T12:34:14Z</time></trkpt><trkpt lat="25.028849921200223" lon="121.49163219144302"><ele>10.0</ele><time>2026-03-22T12:34:15Z</time></trkpt><trkpt lat="25.02894345599401" lon="121.49174484048548"><ele>10.0</ele><time>2026-03-22T12:34:16Z</time></trkpt><trkpt lat="25.029043774462842" lon="121.49185986957369"><ele>10.0</ele><time>2026-03-22T12:34:17Z</time></trkpt><trkpt lat="25.029145388705707" lon="121.49197613160256"><ele>10.0</ele><time>2026-03-22T12:34:18Z</time></trkpt><trkpt lat="25.029250789395316" lon="121.49209614358938"><ele>9.333333333333334</ele><time>2026-03-22T12:34:19Z</time></trkpt><trkpt lat="25.029356136235098" lon="121.49221586567015"><ele>8.666666666666666</ele><time>2026-03-22T12:34:20Z</time></trkpt><trkpt lat="25.029462955707682" lon="121.49233812136679"><ele>8.0</ele><time>2026-03-22T12:34:21Z</time></trkpt><trkpt lat="25.02957382359929" lon="121.49246332294145"><ele>8.0</ele><time>2026-03-22T12:34:22Z</time></trkpt><trkpt lat="25.029682531383205" lon="121.49258598995807"><ele>8.0</ele><time>2026-03-22T12:34:23Z</time></trkpt><trkpt lat="25.02979089959515" lon="121.49270827412685"><ele>8.0</ele><time>2026-03-22T12:34:23.999Z</time></trkpt><trkpt lat="25.029896221530382" lon="121.4928278478335"><ele>8.0</ele><time>2026-03-22T12:34:24.999Z</time></trkpt><trkpt lat="25.029999615435532" lon="121.49294495338944"><ele>8.0</ele><time>2026-03-22T12:34:25.999Z</time></trkpt><trkpt lat="25.03010210627851" lon="121.49306103612858"><ele>8.0</ele><time>2026-03-22T12:34:26.999Z</time></trkpt><trkpt lat="25.030202387017287" lon="121.49317461568775"><ele>8.0</ele><time>2026-03-22T12:34:27.999Z</time></trkpt><trkpt lat="25.030313176439574" lon="121.49327637624204"><ele>8.0</ele><time>2026-03-22T12:34:28.999Z</time></trkpt><trkpt lat="25.0304093477493" lon="121.49339027594675"><ele>8.0</ele><time>2026-03-22T12:34:29.999Z</time></trkpt><trkpt lat="25.03049653549575" lon="121.4935059336599"><ele>8.0</ele><time>2026-03-22T12:34:30.999Z</time></trkpt><trkpt lat="25.030594455756987" lon="121.49360978036741"><ele>8.0</ele><time>2026-03-22T12:34:31.999Z</time></trkpt><trkpt lat="25.030675474364195" lon="121.493723910492"><ele>8.0</ele><time>2026-03-22T12:34:32.999Z</time></trkpt><trkpt lat="25.030774733199202" lon="121.49383934007813"><ele>8.0</ele><time>2026-03-22T12:34:33.999Z</time></trkpt><trkpt lat="25.03086812548242" lon="121.49394663706573"><ele>8.0</ele><time>2026-03-22T12:34:34.999Z</time></trkpt><trkpt lat="25.030966722076084" lon="121.49405732832163"><ele>8.0</ele><time>2026-03-22T12:34:35.999Z</time></trkpt><trkpt lat="25.031051225212767" lon="121.4941536469184"><ele>8.0</ele><time>2026-03-22T12:34:36.999Z</time></trkpt><trkpt lat="25.031131191916415" lon="121.49424336677376"><ele>8.0</ele><time>2026-03-22T12:34:37.999Z</time></trkpt><trkpt lat="25.031219650574556" lon="121.49434189880903"><ele>8.0</ele><time>2026-03-22T12:34:38.999Z</time></trkpt><trkpt lat="25.031315693836778" lon="121.49444913602504"><ele>8.0</ele><time>2026-03-22T12:34:39.999Z</time></trkpt><trkpt lat="25.031412967986643" lon="121.49456287100523"><ele>8.5</ele><time>2026-03-22T12:34:40.999Z</time></trkpt><trkpt lat="25.03151263955126" lon="121.49467659700414"><ele>9.0</ele><time>2026-03-22T12:34:41.999Z</time></trkpt><trkpt lat="25.031622252023332" lon="121.49479318816104"><ele>9.5</ele><time>2026-03-22T12:34:42.999Z</time></trkpt><trkpt lat="25.0317266721323" lon="121.49488573550353"><ele>10.0</ele><time>2026-03-22T12:34:43.999Z</time></trkpt><trkpt lat="25.031822397208504" lon="121.49498786835949"><ele>10.0</ele><time>2026-03-22T12:34:44.999Z</time></trkpt><trkpt lat="25.031919713816244" lon="121.49510065093409"><ele>10.0</ele><time>2026-03-22T12:34:45.999Z</time></trkpt><trkpt lat="25.03202606463594" lon="121.49521824799207"><ele>10.0</ele><time>2026-03-22T12:34:46.999Z</time></trkpt><trkpt lat="25.03212876735304" lon="121.49533069857023"><ele>10.0</ele><time>2026-03-22T12:34:47.999Z</time></trkpt><trkpt lat="25.032232910865766" lon="121.49544158466473"><ele>10.0</ele><time>2026-03-22T12:34:48.999Z</time></trkpt><trkpt lat="25.032335295551757" lon="121.49555051489335"><ele>10.0</ele><time>2026-03-22T12:34:49.999Z</time></trkpt><trkpt lat="25.03243974081408" lon="121.49566987282343"><ele>10.0</ele><time>2026-03-22T12:34:50.999Z</time></trkpt><trkpt lat="25.032533849808143" lon="121.49579964527034"><ele>10.0</ele><time>2026-03-22T12:34:51.999Z</time></trkpt><trkpt lat="25.032619451113458" lon="121.49593076944146"><ele>10.0</ele><time>2026-03-22T12:34:52.999Z</time></trkpt><trkpt lat="25.03270166877079" lon="121.49607234094663"><ele>10.0</ele><time>2026-03-22T12:34:53.999Z</time></trkpt><trkpt lat="25.032763899210416" lon="121.49619959509249"><ele>10.0</ele><time>2026-03-22T12:34:54.999Z</time></trkpt><trkpt lat="25.032823194089197" lon="121.4963359348366"><ele>10.0</ele><time>2026-03-22T12:34:55.999Z</time></trkpt><trkpt lat="25.032875300775277" lon="121.49647806409918"><ele>9.5</ele><time>2026-03-22T12:34:56.999Z</time></trkpt><trkpt lat="25.032922114351994" lon="121.49662326177236"><ele>9.0</ele><time>2026-03-22T12:34:57.999Z</time></trkpt><trkpt lat="25.032965967272578" lon="121.49677488686385"><ele>8.5</ele><time>2026-03-22T12:34:58.999Z</time></trkpt><trkpt lat="25.03300111213932" lon="121.4969183446068"><ele>8.0</ele><time>2026-03-22T12:35:00Z</time></trkpt><trkpt lat="25.033033618193397" lon="121.49706168379501"><ele>8.0</ele><time>2026-03-22T12:35:01Z</time></trkpt><trkpt lat="25.033062950941" lon="121.49720267214703"><ele>8.0</ele><time>2026-03-22T12:35:02Z</time></trkpt><trkpt lat="25.033087175663283" lon="121.49733117979916"><ele>8.0</ele><time>2026-03-22T12:35:03Z</time></trkpt><trkpt lat="25.0331002332558" lon="121.49742409714555"><ele>8.0</ele><time>2026-03-22T12:35:04Z</time></trkpt><trkpt lat="25.033107598187208" lon="121.49750607301279"><ele>8.0</ele><time>2026-03-22T12:35:05Z</time></trkpt><trkpt lat="25.03310811355572" lon="121.49758663905244"><ele>8.0</ele><time>2026-03-22T12:35:07Z</time></trkpt><trkpt lat="25.033131635335373" lon="121.49765442567563"><ele>7.999999999999999</ele><time>2026-03-22T12:36:23Z</time></trkpt><trkpt lat="25.033138623127638" lon="121.49774024937601"><ele>8.0</ele><time>2026-03-22T12:36:25Z</time></trkpt><trkpt lat="25.03312191524752" lon="121.49784883568324"><ele>8.0</ele><time>2026-03-22T12:36:27Z</time></trkpt><trkpt lat="25.033117511977267" lon="121.49792000633836"><ele>7.999999999999999</ele><time>2026-03-22T12:36:28Z</time></trkpt><trkpt lat="25.033114406904087" lon="121.49799012791324"><ele>8.0</ele><time>2026-03-22T12:36:29Z</time></trkpt><trkpt lat="25.03311056586371" lon="121.49806631663104"><ele>8.0</ele><time>2026-03-22T12:36:29.999Z</time></trkpt><trkpt lat="25.033102027395024" lon="121.49815671298671"><ele>8.200000000000001</ele><time>2026-03-22T12:36:30.999Z</time></trkpt><trkpt lat="25.033093961755558" lon="121.49825676007274"><ele>8.4</ele><time>2026-03-22T12:36:31.999Z</time></trkpt><trkpt lat="25.033083460634167" lon="121.49837242503249"><ele>8.600000000000001</ele><time>2026-03-22T12:36:32.999Z</time></trkpt><trkpt lat="25.033071511704826" lon="121.49848390727598"><ele>8.8</ele><time>2026-03-22T12:36:33.999Z</time></trkpt><trkpt lat="25.03305809804183" lon="121.4985987388112"><ele>9.0</ele><time>2026-03-22T12:36:35Z</time></trkpt><trkpt lat="25.033042292501552" lon="121.49871441872519"><ele>9.75</ele><time>2026-03-22T12:36:36Z</time></trkpt><trkpt lat="25.03302502926086" lon="121.49883641610154"><ele>10.5</ele><time>2026-03-22T12:36:37Z</time></trkpt><trkpt lat="25.03300363166441" lon="121.49896531186502"><ele>11.25</ele><time>2026-03-22T12:36:38Z</time></trkpt><trkpt lat="25.032979992441227" lon="121.49909451458676"><ele>12.0</ele><time>2026-03-22T12:36:39Z</time></trkpt><trkpt lat="25.032958100397458" lon="121.49922303152285"><ele>12.0</ele><time>2026-03-22T12:36:40Z</time></trkpt><trkpt lat="25.032937182448485" lon="121.4993514334062"><ele>12.0</ele><time>2026-03-22T12:36:41Z</time></trkpt><trkpt lat="25.03291938871166" lon="121.49948184032634"><ele>12.0</ele><time>2026-03-22T12:36:42Z</time></trkpt><trkpt lat="25.032910254814922" lon="121.49961291192858"><ele>12.0</ele><time>2026-03-22T12:36:43Z</time></trkpt><trkpt lat="25.03288843805256" lon="121.49975153300338"><ele>12.0</ele><time>2026-03-22T12:36:44Z</time></trkpt><trkpt lat="25.03288836727047" lon="121.49989038606675"><ele>12.0</ele><time>2026-03-22T12:36:45Z</time></trkpt><trkpt lat="25.032904961790567" lon="121.50003033821064"><ele>12.0</ele><time>2026-03-22T12:36:46Z</time></trkpt><trkpt lat="25.03290600141782" lon="121.5001693125176"><ele>12.0</ele><time>2026-03-22T12:36:47Z</time></trkpt><trkpt lat="25.032905580124204" lon="121.50030936404232"><ele>11.5</ele><time>2026-03-22T12:36:48Z</time></trkpt><trkpt lat="25.03290571951614" lon="121.50045149667092"><ele>11.0</ele><time>2026-03-22T12:36:49Z</time></trkpt><trkpt lat="25.03291017175126" lon="121.5005918775518"><ele>10.5</ele><time>2026-03-22T12:36:50Z</time></trkpt><trkpt lat="25.032919972703382" lon="121.5007376839193"><ele>10.0</ele><time>2026-03-22T12:36:51Z</time></trkpt><trkpt lat="25.032936549528134" lon="121.50088516047681"><ele>10.0</ele><time>2026-03-22T12:36:52Z</time></trkpt><trkpt lat="25.032957990780417" lon="121.50103396024555"><ele>10.0</ele><time>2026-03-22T12:36:53Z</time></trkpt><trkpt lat="25.032983595565085" lon="121.50117806561957"><ele>10.0</ele><time>2026-03-22T12:36:54Z</time></trkpt><trkpt lat="25.033014135013612" lon="121.5013247134352"><ele>10.0</ele><time>2026-03-22T12:36:55Z</time></trkpt><trkpt lat="25.033046161684325" lon="121.50146514266942"><ele>10.25</ele><time>2026-03-22T12:36:56Z</time></trkpt><trkpt lat="25.03307747601459" lon="121.50160468966492"><ele>10.5</ele><time>2026-03-22T12:36:57Z</time></trkpt><trkpt lat="25.0331090923172" lon="121.50174171752198"><ele>10.75</ele><time>2026-03-22T12:36:58Z</time></trkpt><trkpt lat="25.0331392361016" lon="121.50187733250723"><ele>11.0</ele><time>2026-03-22T12:36:59Z</time></trkpt><trkpt lat="25.033169274872858" lon="121.50201379662907"><ele>11.25</ele><time>2026-03-22T12:37:00Z</time></trkpt><trkpt lat="25.033201069170673" lon="121.50214564224642"><ele>11.5</ele><time>2026-03-22T12:37:01Z</time></trkpt><trkpt lat="25.033232948692675" lon="121.50228426246665"><ele>11.75</ele><time>2026-03-22T12:37:02Z</time></trkpt><trkpt lat="25.0332668136439" lon="121.50243046666763"><ele>12.0</ele><time>2026-03-22T12:37:03Z</time></trkpt><trkpt lat="25.033298931269773" lon="121.50257604165525"><ele>11.5</ele><time>2026-03-22T12:37:04Z</time></trkpt><trkpt lat="25.033329330484" lon="121.50272182196865"><ele>11.0</ele><time>2026-03-22T12:37:05Z</time></trkpt><trkpt lat="25.033359728030845" lon="121.50287545239115"><ele>10.5</ele><time>2026-03-22T12:37:06Z</time></trkpt><trkpt lat="25.033387639413938" lon="121.50303359099294"><ele>10.0</ele><time>2026-03-22T12:37:07Z</time></trkpt><trkpt lat="25.033417980746123" lon="121.50320251736797"><ele>10.0</ele><time>2026-03-22T12:37:08Z</time></trkpt><trkpt lat="25.03345341971875" lon="121.50336426133464"><ele>10.0</ele><time>2026-03-22T12:37:09Z</time></trkpt><trkpt lat="25.033524541621322" lon="121.50350929945562"><ele>10.0</ele><time>2026-03-22T12:37:10Z</time></trkpt><trkpt lat="25.03355597657081" lon="121.50365597192143"><ele>10.0</ele><time>2026-03-22T12:37:11Z</time></trkpt><trkpt lat="25.033589763466498" lon="121.50381295661633"><ele>10.25</ele><time>2026-03-22T12:37:12Z</time></trkpt><trkpt lat="25.033625527369963" lon="121.50396950179325"><ele>10.5</ele><time>2026-03-22T12:37:13Z</time></trkpt><trkpt lat="25.0336437591283" lon="121.50412416251604"><ele>10.75</ele><time>2026-03-22T12:37:14Z</time></trkpt><trkpt lat="25.033682075578906" lon="121.5042706334049"><ele>11.0</ele><time>2026-03-22T12:37:15Z</time></trkpt><trkpt lat="25.033729416057056" lon="121.50441517416027"><ele>11.0</ele><time>2026-03-22T12:37:16Z</time></trkpt><trkpt lat="25.03379632120516" lon="121.50454435126186"><ele>11.0</ele><time>2026-03-22T12:37:17Z</time></trkpt><trkpt lat="25.033851680334415" lon="121.50467801797026"><ele>11.0</ele><time>2026-03-22T12:37:18Z</time></trkpt><trkpt lat="25.033912315489292" lon="121.50481214977397"><ele>11.0</ele><time>2026-03-22T12:37:19Z</time></trkpt><trkpt lat="25.03398498518399" lon="121.50493620903858"><ele>11.5</ele><time>2026-03-22T12:37:20Z</time></trkpt><trkpt lat="25.034063568311304" lon="121.5050643508066"><ele>12.0</ele><time>2026-03-22T12:37:21Z</time></trkpt><trkpt lat="25.034115507441435" lon="121.5052168559675"><ele>12.5</ele><time>2026-03-22T12:37:22Z</time></trkpt><trkpt lat="25.034202633553903" lon="121.50533571778533"><ele>13.0</ele><time>2026-03-22T12:37:23Z</time></trkpt><trkpt lat="25.034287528858048" lon="121.50545483718098"><ele>13.25</ele><time>2026-03-22T12:37:24Z</time></trkpt><trkpt lat="25.034374273345065" lon="121.50557542689059"><ele>13.5</ele><time>2026-03-22T12:37:25Z</time></trkpt><trkpt lat="25.034457950881833" lon="121.50569067627077"><ele>13.75</ele><time>2026-03-22T12:37:26Z</time></trkpt><trkpt lat="25.034572615964745" lon="121.50577661726562"><ele>14.0</ele><time>2026-03-22T12:37:27Z</time></trkpt><trkpt lat="25.03466460896102" lon="121.50585686496872"><ele>14.0</ele><time>2026-03-22T12:37:28Z</time></trkpt><trkpt lat="25.034757791967838" lon="121.50593759375829"><ele>13.999999999999998</ele><time>2026-03-22T12:37:29Z</time></trkpt><trkpt lat="25.034843335788683" lon="121.50600859689929"><ele>13.999999999999998</ele><time>2026-03-22T12:37:30Z</time></trkpt><trkpt lat="25.034919366531938" lon="121.50606774690456"><ele>14.0</ele><time>2026-03-22T12:37:31Z</time></trkpt><trkpt lat="25.034987762065597" lon="121.50612175264777"><ele>14.0</ele><time>2026-03-22T12:37:32Z</time></trkpt><trkpt lat="25.035052334775326" lon="121.50616774247881"><ele>14.500000000000002</ele><time>2026-03-22T12:37:33Z</time></trkpt><trkpt lat="25.03511190952542" lon="121.5062084825201"><ele>15.0</ele><time>2026-03-22T12:37:34Z</time></trkpt><trkpt lat="25.03517303128423" lon="121.50624394361087"><ele>15.5</ele><time>2026-03-22T12:37:35Z</time></trkpt><trkpt lat="25.035235774276924" lon="121.50627964772963"><ele>16.0</ele><time>2026-03-22T12:37:36Z</time></trkpt><trkpt lat="25.035303017883233" lon="121.50630016064412"><ele>16.5</ele><time>2026-03-22T12:37:37Z</time></trkpt><trkpt lat="25.035359740903935" lon="121.50633439512431"><ele>17.0</ele><time>2026-03-22T12:37:38Z</time></trkpt><trkpt lat="25.03546202633277" lon="121.5063817782815"><ele>17.0</ele><time>2026-03-22T12:37:40Z</time></trkpt><trkpt lat="25.03554854269519" lon="121.5064196568742"><ele>17.0</ele><time>2026-03-22T12:37:42Z</time></trkpt><trkpt lat="25.03561421479674" lon="121.50645108210873"><ele>17.0</ele><time>2026-03-22T12:37:44Z</time></trkpt><trkpt lat="25.035690128982974" lon="121.50649651645908"><ele>17.0</ele><time>2026-03-22T12:38:03Z</time></trkpt><trkpt lat="25.035762377716768" lon="121.50652141130884"><ele>17.0</ele><time>2026-03-22T12:38:05Z</time></trkpt><trkpt lat="25.035848468301936" lon="121.50655099411647"><ele>17.0</ele><time>2026-03-22T12:38:07Z</time></trkpt><trkpt lat="25.035922842469084" lon="121.50658028245269"><ele>17.0</ele><time>2026-03-22T12:38:08Z</time></trkpt><trkpt lat="25.035990710498368" lon="121.50659992712606"><ele>17.0</ele><time>2026-03-22T12:38:09Z</time></trkpt><trkpt lat="25.036060010015962" lon="121.50661725214592"><ele>17.0</ele><time>2026-03-22T12:38:10Z</time></trkpt><trkpt lat="25.036144840142274" lon="121.50663556642913"><ele>17.0</ele><time>2026-03-22T12:38:11Z</time></trkpt><trkpt lat="25.03623684234189" lon="121.50665561159926"><ele>17.0</ele><time>2026-03-22T12:38:12Z</time></trkpt><trkpt lat="25.036346882085674" lon="121.50667924560115"><ele>17.0</ele><time>2026-03-22T12:38:13Z</time></trkpt><trkpt lat="25.03645859248916" lon="121.50670248968552"><ele>17.0</ele><time>2026-03-22T12:38:14Z</time></trkpt><trkpt lat="25.03656734513417" lon="121.50672553950115"><ele>17.0</ele><time>2026-03-22T12:38:15Z</time></trkpt><trkpt lat="25.036678967385853" lon="121.50673839324989"><ele>17.0</ele><time>2026-03-22T12:38:16Z</time></trkpt><trkpt lat="25.036780691101622" lon="121.50676348745847"><ele>17.0</ele><time>2026-03-22T12:38:17Z</time></trkpt><trkpt lat="25.03687594310766" lon="121.50679293605417"><ele>17.0</ele><time>2026-03-22T12:38:18Z</time></trkpt><trkpt lat="25.036964712557513" lon="121.50682995732357"><ele>15.833333333333334</ele><time>2026-03-22T12:38:19Z</time></trkpt><trkpt lat="25.0370457263636" lon="121.50687443157189"><ele>14.666666666666668</ele><time>2026-03-22T12:38:20Z</time></trkpt><trkpt lat="25.03711740894186" lon="121.5069096164658"><ele>13.5</ele><time>2026-03-22T12:38:21Z</time></trkpt><trkpt lat="25.03718570726054" lon="121.50694430203802"><ele>12.333333333333334</ele><time>2026-03-22T12:38:22Z</time></trkpt><trkpt lat="25.03726277602107" lon="121.50698259106487"><ele>11.166666666666668</ele><time>2026-03-22T12:38:23Z</time></trkpt><trkpt lat="25.037344991537733" lon="121.5070256540675"><ele>10.0</ele><time>2026-03-22T12:38:24Z</time></trkpt><trkpt lat="25.037430807203055" lon="121.50703737454351"><ele>10.4</ele><time>2026-03-22T12:38:25Z</time></trkpt><trkpt lat="25.03750350203551" lon="121.50710229869807"><ele>10.8</ele><time>2026-03-22T12:38:26Z</time></trkpt><trkpt lat="25.03758256896291" lon="121.5071318486735"><ele>11.2</ele><time>2026-03-22T12:38:27Z</time></trkpt><trkpt lat="25.037672187374834" lon="121.50715882013297"><ele>11.6</ele><time>2026-03-22T12:38:28Z</time></trkpt><trkpt lat="25.037761466922895" lon="121.5071774856043"><ele>12.0</ele><time>2026-03-22T12:38:29Z</time></trkpt><trkpt lat="25.037861008628024" lon="121.50720158415336"><ele>12.0</ele><time>2026-03-22T12:38:30Z</time></trkpt><trkpt lat="25.03795889105655" lon="121.50722982690593"><ele>12.0</ele><time>2026-03-22T12:38:31Z</time></trkpt><trkpt lat="25.038061027931953" lon="121.50725823517354"><ele>12.0</ele><time>2026-03-22T12:38:32Z</time></trkpt><trkpt lat="25.03816784003416" lon="121.50728600068565"><ele>12.0</ele><time>2026-03-22T12:38:33Z</time></trkpt><trkpt lat="25.038279446382337" lon="121.5073166854267"><ele>12.0</ele><time>2026-03-22T12:38:34Z</time></trkpt><trkpt lat="25.038395992501325" lon="121.50734416947195"><ele>12.399999999999999</ele><time>2026-03-22T12:38:35Z</time></trkpt><trkpt lat="25.038504362401383" lon="121.50737197780015"><ele>12.799999999999999</ele><time>2026-03-22T12:38:36Z</time></trkpt><trkpt lat="25.038607483563187" lon="121.50739820718618"><ele>13.2</ele><time>2026-03-22T12:38:37Z</time></trkpt><trkpt lat="25.038707606421507" lon="121.50742763273337"><ele>13.6</ele><time>2026-03-22T12:38:38Z</time></trkpt><trkpt lat="25.03881156207223" lon="121.5074538198985"><ele>14.0</ele><time>2026-03-22T12:38:39Z</time></trkpt><trkpt lat="25.03891489021526" lon="121.50748924330843"><ele>14.0</ele><time>2026-03-22T12:38:40Z</time></trkpt><trkpt lat="25.039031596680978" lon="121.50752221398756"><ele>14.0</ele><time>2026-03-22T12:38:41Z</time></trkpt><trkpt lat="25.039146835064415" lon="121.5075578262816"><ele>14.0</ele><time>2026-03-22T12:38:42Z</time></trkpt><trkpt lat="25.03927022544116" lon="121.50759386087977"><ele>14.0</ele><time>2026-03-22T12:38:43Z</time></trkpt><trkpt lat="25.039389829736933" lon="121.50762310004203"><ele>12.75</ele><time>2026-03-22T12:38:44Z</time></trkpt><trkpt lat="25.039511366180868" lon="121.50765366157765"><ele>11.5</ele><time>2026-03-22T12:38:45Z</time></trkpt><trkpt lat="25.0396299779135" lon="121.50768621140782"><ele>10.25</ele><time>2026-03-22T12:38:46Z</time></trkpt><trkpt lat="25.039746332836522" lon="121.50771472188055"><ele>9.0</ele><time>2026-03-22T12:38:47Z</time></trkpt><trkpt lat="25.03986077123001" lon="121.50774551993412"><ele>8.8</ele><time>2026-03-22T12:38:48Z</time></trkpt><trkpt lat="25.039971921714937" lon="121.5077751350787"><ele>8.600000000000001</ele><time>2026-03-22T12:38:49Z</time></trkpt><trkpt lat="25.04008164040093" lon="121.50780463453192"><ele>8.4</ele><time>2026-03-22T12:38:50Z</time></trkpt><trkpt lat="25.040184661083032" lon="121.50783221313625"><ele>8.200000000000001</ele><time>2026-03-22T12:38:51Z</time></trkpt><trkpt lat="25.040289597714484" lon="121.50786108405815"><ele>8.0</ele><time>2026-03-22T12:38:52Z</time></trkpt><trkpt lat="25.04039299488362" lon="121.50789087615584"><ele>8.4</ele><time>2026-03-22T12:38:53Z</time></trkpt><trkpt lat="25.040495649981" lon="121.50792166171595"><ele>8.8</ele><time>2026-03-22T12:38:54Z</time></trkpt><trkpt lat="25.040594440995065" lon="121.50795170352922"><ele>9.2</ele><time>2026-03-22T12:38:55Z</time></trkpt><trkpt lat="25.04069490460611" lon="121.50797944655234"><ele>9.6</ele><time>2026-03-22T12:38:56Z</time></trkpt><trkpt lat="25.040800204714262" lon="121.5080102362219"><ele>10.0</ele><time>2026-03-22T12:38:57Z</time></trkpt><trkpt lat="25.040909491266166" lon="121.50804270840003"><ele>10.5</ele><time>2026-03-22T12:38:58Z</time></trkpt><trkpt lat="25.041015726702565" lon="121.50807153143064"><ele>11.0</ele><time>2026-03-22T12:38:59Z</time></trkpt><trkpt lat="25.041126115806204" lon="121.50810573381446"><ele>11.5</ele><time>2026-03-22T12:39:00Z</time></trkpt><trkpt lat="25.04123440070106" lon="121.50813288000377"><ele>12.0</ele><time>2026-03-22T12:39:01Z</time></trkpt><trkpt lat="25.041345195153543" lon="121.50816710505502"><ele>12.0</ele><time>2026-03-22T12:39:02Z</time></trkpt><trkpt lat="25.04145616525567" lon="121.50819890850107"><ele>12.0</ele><time>2026-03-22T12:39:03Z</time></trkpt><trkpt lat="25.04156366929977" lon="121.50822838692228"><ele>12.0</ele><time>2026-03-22T12:39:04Z</time></trkpt><trkpt lat="25.041669369906476" lon="121.50825705851052"><ele>12.0</ele><time>2026-03-22T12:39:05Z</time></trkpt><trkpt lat="25.04177780840237" lon="121.50828628312539"><ele>12.0</ele><time>2026-03-22T12:39:06Z</time></trkpt><trkpt lat="25.04188446365949" lon="121.50831798490708"><ele>11.8</ele><time>2026-03-22T12:39:07Z</time></trkpt><trkpt lat="25.04198760419747" lon="121.50834857563058"><ele>11.6</ele><time>2026-03-22T12:39:08Z</time></trkpt><trkpt lat="25.042086984674775" lon="121.50837562979294"><ele>11.4</ele><time>2026-03-22T12:39:09Z</time></trkpt><trkpt lat="25.04218349189168" lon="121.50840557618933"><ele>11.200000000000001</ele><time>2026-03-22T12:39:10Z</time></trkpt><trkpt lat="25.042261851162515" lon="121.50850278832448"><ele>11.0</ele><time>2026-03-22T12:39:11Z</time></trkpt><trkpt lat="25.042371791523845" lon="121.50847148226795"><ele>11.0</ele><time>2026-03-22T12:39:12Z</time></trkpt><trkpt lat="25.04246196090406" lon="121.50850730908981"><ele>11.0</ele><time>2026-03-22T12:39:13Z</time></trkpt><trkpt lat="25.04255226960871" lon="121.50853890417918"><ele>11.0</ele><time>2026-03-22T12:39:14Z</time></trkpt><trkpt lat="25.042640323563912" lon="121.50856664340083"><ele>11.0</ele><time>2026-03-22T12:39:15Z</time></trkpt><trkpt lat="25.042721830319376" lon="121.50858945511037"><ele>11.0</ele><time>2026-03-22T12:39:16Z</time></trkpt><trkpt lat="25.042789865341923" lon="121.50860767365462"><ele>11.0</ele><time>2026-03-22T12:39:17Z</time></trkpt><trkpt lat="25.04285369198595" lon="121.50862523885992"><ele>11.333333333333332</ele><time>2026-03-22T12:39:18Z</time></trkpt><trkpt lat="25.04294869159347" lon="121.5086580155056"><ele>11.666666666666666</ele><time>2026-03-22T12:39:20Z</time></trkpt><trkpt lat="25.043002379779995" lon="121.50870035852815"><ele>12.0</ele><time>2026-03-22T12:39:22Z</time></trkpt><trkpt lat="25.043013138635096" lon="121.50880837441474"><ele>12.333333333333332</ele><time>2026-03-22T12:39:26Z</time></trkpt><trkpt lat="25.04299137840955" lon="121.50888826568948"><ele>12.666666666666666</ele><time>2026-03-22T12:39:28Z</time></trkpt><trkpt lat="25.042955364230913" lon="121.5089767982279"><ele>13.0</ele><time>2026-03-22T12:39:31Z</time></trkpt><trkpt lat="25.042955509302047" lon="121.50904639550306"><ele>13.666666666666666</ele><time>2026-03-22T12:39:35Z</time></trkpt><trkpt lat="25.04287192663151" lon="121.50904200518912"><ele>14.333333333333332</ele><time>2026-03-22T12:40:32Z</time></trkpt><trkpt lat="25.042883978106687" lon="121.50911398708041"><ele>15.0</ele><time>2026-03-22T12:40:57Z</time></trkpt><trkpt lat="25.042916354238205" lon="121.5092010507303"><ele>15.666666666666668</ele><time>2026-03-22T12:41:07Z</time></trkpt><trkpt lat="25.042844482381955" lon="121.50923209341039"><ele>16.333333333333336</ele><time>2026-03-22T12:41:11Z</time></trkpt><trkpt lat="25.042850170756665" lon="121.50931850871414"><ele>17.0</ele><time>2026-03-22T12:41:17Z</time></trkpt><trkpt lat="25.04274282574255" lon="121.50934230616383"><ele>17.0</ele><time>2026-03-22T12:41:42.07Z</time></trkpt><trkpt lat="25.04264814082844" lon="121.50954036343144"><ele>17.0</ele><time>2026-03-22T12:42:02.449Z</time></trkpt></trkseg></trk></gpx>